<?xml version="1.0" encoding="UTF-8" standalone="no" ?>
<gpx xmlns="http://www.topografix.com/GPX/1/1" xmlns:xsi="http://www.w3.org/2001/XMLSchema-instance" xsi:schemaLocation="http://www.topografix.com/GPX/1/1 http://www.topografix.com/GPX/1/1/gpx.xsd" version="1.1" creator="VisuGPX - https://www.visugpx.com">
  <metadata>
    <name>Baume2</name>
  </metadata>
  <wpt lat="43.69592" lon="5.99925">
    <ele>546.9</ele>
    <name><![CDATA[Baume des Pierres]]></name>
    <desc><![CDATA[Parc Régional de Verdon]]></desc>
    <cmt><![CDATA[Parc Régional de Verdon]]></cmt>
  </wpt>
  <trk>
    <name><![CDATA[Baume2]]></name>
    <trkseg>
      <trkpt lat="43.59922" lon="6.09508">
        <ele>413.4</ele>
        <time>2021-02-19T12:59:46Z</time>
      </trkpt>
      <trkpt lat="43.59922" lon="6.09508">
        <ele>413.2</ele>
        <time>2021-02-19T12:59:47Z</time>
      </trkpt>
      <trkpt lat="43.59922" lon="6.09508">
        <ele>413.4</ele>
        <time>2021-02-19T12:59:48Z</time>
      </trkpt>
      <trkpt lat="43.59922" lon="6.09508">
        <ele>413.4</ele>
        <time>2021-02-19T12:59:49Z</time>
      </trkpt>
      <trkpt lat="43.59922" lon="6.09508">
        <ele>413.4</ele>
        <time>2021-02-19T12:59:50Z</time>
      </trkpt>
      <trkpt lat="43.5992" lon="6.0951">
        <ele>413.4</ele>
        <time>2021-02-19T12:59:51Z</time>
      </trkpt>
      <trkpt lat="43.5992" lon="6.0951">
        <ele>413.4</ele>
        <time>2021-02-19T12:59:52Z</time>
      </trkpt>
      <trkpt lat="43.59919" lon="6.09511">
        <ele>413.4</ele>
        <time>2021-02-19T12:59:53Z</time>
      </trkpt>
      <trkpt lat="43.59919" lon="6.09511">
        <ele>413.4</ele>
        <time>2021-02-19T12:59:54Z</time>
      </trkpt>
      <trkpt lat="43.59918" lon="6.09513">
        <ele>413.2</ele>
        <time>2021-02-19T12:59:55Z</time>
      </trkpt>
      <trkpt lat="43.59917" lon="6.09513">
        <ele>413.2</ele>
        <time>2021-02-19T12:59:56Z</time>
      </trkpt>
      <trkpt lat="43.59917" lon="6.09513">
        <ele>413.2</ele>
        <time>2021-02-19T12:59:57Z</time>
      </trkpt>
      <trkpt lat="43.59917" lon="6.09513">
        <ele>413.2</ele>
        <time>2021-02-19T12:59:58Z</time>
      </trkpt>
      <trkpt lat="43.59918" lon="6.09513">
        <ele>413.2</ele>
        <time>2021-02-19T12:59:59Z</time>
      </trkpt>
      <trkpt lat="43.59918" lon="6.09513">
        <ele>413.2</ele>
        <time>2021-02-19T13:00:00Z</time>
      </trkpt>
      <trkpt lat="43.59918" lon="6.09513">
        <ele>413</ele>
        <time>2021-02-19T13:00:01Z</time>
      </trkpt>
      <trkpt lat="43.59918" lon="6.09513">
        <ele>413</ele>
        <time>2021-02-19T13:00:02Z</time>
      </trkpt>
      <trkpt lat="43.59918" lon="6.09515">
        <ele>413.2</ele>
        <time>2021-02-19T13:00:03Z</time>
      </trkpt>
      <trkpt lat="43.59921" lon="6.09514">
        <ele>413.2</ele>
        <time>2021-02-19T13:00:04Z</time>
      </trkpt>
      <trkpt lat="43.5992" lon="6.09515">
        <ele>413</ele>
        <time>2021-02-19T13:00:05Z</time>
      </trkpt>
      <trkpt lat="43.59919" lon="6.09515">
        <ele>413.2</ele>
        <time>2021-02-19T13:00:06Z</time>
      </trkpt>
      <trkpt lat="43.59919" lon="6.09514">
        <ele>413.4</ele>
        <time>2021-02-19T13:00:07Z</time>
      </trkpt>
      <trkpt lat="43.59919" lon="6.09514">
        <ele>413.4</ele>
        <time>2021-02-19T13:00:08Z</time>
      </trkpt>
      <trkpt lat="43.59919" lon="6.09514">
        <ele>413</ele>
        <time>2021-02-19T13:00:09Z</time>
      </trkpt>
      <trkpt lat="43.59919" lon="6.09513">
        <ele>414.4</ele>
        <time>2021-02-19T13:00:10Z</time>
      </trkpt>
      <trkpt lat="43.59919" lon="6.09513">
        <ele>413.4</ele>
        <time>2021-02-19T13:00:11Z</time>
      </trkpt>
      <trkpt lat="43.59919" lon="6.09512">
        <ele>412.8</ele>
        <time>2021-02-19T13:00:12Z</time>
      </trkpt>
      <trkpt lat="43.59919" lon="6.09512">
        <ele>413</ele>
        <time>2021-02-19T13:00:13Z</time>
      </trkpt>
      <trkpt lat="43.59919" lon="6.09512">
        <ele>412.8</ele>
        <time>2021-02-19T13:00:14Z</time>
      </trkpt>
      <trkpt lat="43.59919" lon="6.09512">
        <ele>413</ele>
        <time>2021-02-19T13:00:15Z</time>
      </trkpt>
      <trkpt lat="43.59919" lon="6.09512">
        <ele>413</ele>
        <time>2021-02-19T13:00:16Z</time>
      </trkpt>
      <trkpt lat="43.59919" lon="6.09512">
        <ele>412.8</ele>
        <time>2021-02-19T13:00:17Z</time>
      </trkpt>
      <trkpt lat="43.59919" lon="6.09512">
        <ele>413</ele>
        <time>2021-02-19T13:00:18Z</time>
      </trkpt>
      <trkpt lat="43.59919" lon="6.09512">
        <ele>413.2</ele>
        <time>2021-02-19T13:00:19Z</time>
      </trkpt>
      <trkpt lat="43.59919" lon="6.09512">
        <ele>413.2</ele>
        <time>2021-02-19T13:00:20Z</time>
      </trkpt>
      <trkpt lat="43.59919" lon="6.09512">
        <ele>413.2</ele>
        <time>2021-02-19T13:00:21Z</time>
      </trkpt>
      <trkpt lat="43.59919" lon="6.09512">
        <ele>413.2</ele>
        <time>2021-02-19T13:00:22Z</time>
      </trkpt>
      <trkpt lat="43.59919" lon="6.09511">
        <ele>413.2</ele>
        <time>2021-02-19T13:00:23Z</time>
      </trkpt>
      <trkpt lat="43.59919" lon="6.09511">
        <ele>413.2</ele>
        <time>2021-02-19T13:00:24Z</time>
      </trkpt>
      <trkpt lat="43.59918" lon="6.09511">
        <ele>413.2</ele>
        <time>2021-02-19T13:00:25Z</time>
      </trkpt>
      <trkpt lat="43.59918" lon="6.09511">
        <ele>413.2</ele>
        <time>2021-02-19T13:00:26Z</time>
      </trkpt>
      <trkpt lat="43.59918" lon="6.09511">
        <ele>413.2</ele>
        <time>2021-02-19T13:00:27Z</time>
      </trkpt>
      <trkpt lat="43.59918" lon="6.09511">
        <ele>413.2</ele>
        <time>2021-02-19T13:00:28Z</time>
      </trkpt>
      <trkpt lat="43.59917" lon="6.09511">
        <ele>413.2</ele>
        <time>2021-02-19T13:00:29Z</time>
      </trkpt>
      <trkpt lat="43.59916" lon="6.09511">
        <ele>413</ele>
        <time>2021-02-19T13:00:30Z</time>
      </trkpt>
      <trkpt lat="43.59914" lon="6.0951">
        <ele>413</ele>
        <time>2021-02-19T13:00:31Z</time>
      </trkpt>
      <trkpt lat="43.59913" lon="6.0951">
        <ele>413</ele>
        <time>2021-02-19T13:00:32Z</time>
      </trkpt>
      <trkpt lat="43.59911" lon="6.09509">
        <ele>413</ele>
        <time>2021-02-19T13:00:33Z</time>
      </trkpt>
      <trkpt lat="43.59909" lon="6.09509">
        <ele>413</ele>
        <time>2021-02-19T13:00:34Z</time>
      </trkpt>
      <trkpt lat="43.59908" lon="6.09507">
        <ele>413</ele>
        <time>2021-02-19T13:00:35Z</time>
      </trkpt>
      <trkpt lat="43.59908" lon="6.09504">
        <ele>413</ele>
        <time>2021-02-19T13:00:36Z</time>
      </trkpt>
      <trkpt lat="43.59909" lon="6.095">
        <ele>412.6</ele>
        <time>2021-02-19T13:00:37Z</time>
      </trkpt>
      <trkpt lat="43.59911" lon="6.09496">
        <ele>412.4</ele>
        <time>2021-02-19T13:00:38Z</time>
      </trkpt>
      <trkpt lat="43.59914" lon="6.09493">
        <ele>412.2</ele>
        <time>2021-02-19T13:00:39Z</time>
      </trkpt>
      <trkpt lat="43.59916" lon="6.0949">
        <ele>412.2</ele>
        <time>2021-02-19T13:00:40Z</time>
      </trkpt>
      <trkpt lat="43.59919" lon="6.09486">
        <ele>412</ele>
        <time>2021-02-19T13:00:41Z</time>
      </trkpt>
      <trkpt lat="43.59922" lon="6.09483">
        <ele>412</ele>
        <time>2021-02-19T13:00:42Z</time>
      </trkpt>
      <trkpt lat="43.59926" lon="6.09479">
        <ele>412</ele>
        <time>2021-02-19T13:00:43Z</time>
      </trkpt>
      <trkpt lat="43.59928" lon="6.09476">
        <ele>412.2</ele>
        <time>2021-02-19T13:00:44Z</time>
      </trkpt>
      <trkpt lat="43.59931" lon="6.09472">
        <ele>412.2</ele>
        <time>2021-02-19T13:00:45Z</time>
      </trkpt>
      <trkpt lat="43.59934" lon="6.09468">
        <ele>412.2</ele>
        <time>2021-02-19T13:00:46Z</time>
      </trkpt>
      <trkpt lat="43.59935" lon="6.09464">
        <ele>412</ele>
        <time>2021-02-19T13:00:47Z</time>
      </trkpt>
      <trkpt lat="43.59937" lon="6.0946">
        <ele>412.2</ele>
        <time>2021-02-19T13:00:48Z</time>
      </trkpt>
      <trkpt lat="43.59939" lon="6.09456">
        <ele>412.2</ele>
        <time>2021-02-19T13:00:49Z</time>
      </trkpt>
      <trkpt lat="43.59941" lon="6.09453">
        <ele>412.2</ele>
        <time>2021-02-19T13:00:50Z</time>
      </trkpt>
      <trkpt lat="43.59944" lon="6.09451">
        <ele>412.2</ele>
        <time>2021-02-19T13:00:51Z</time>
      </trkpt>
      <trkpt lat="43.59947" lon="6.09452">
        <ele>412.2</ele>
        <time>2021-02-19T13:00:52Z</time>
      </trkpt>
      <trkpt lat="43.59949" lon="6.09454">
        <ele>412.4</ele>
        <time>2021-02-19T13:00:53Z</time>
      </trkpt>
      <trkpt lat="43.5995" lon="6.09456">
        <ele>412.4</ele>
        <time>2021-02-19T13:00:54Z</time>
      </trkpt>
      <trkpt lat="43.59951" lon="6.09458">
        <ele>412.6</ele>
        <time>2021-02-19T13:00:55Z</time>
      </trkpt>
      <trkpt lat="43.59953" lon="6.09457">
        <ele>412.8</ele>
        <time>2021-02-19T13:00:56Z</time>
      </trkpt>
      <trkpt lat="43.59955" lon="6.09455">
        <ele>412.8</ele>
        <time>2021-02-19T13:00:57Z</time>
      </trkpt>
      <trkpt lat="43.59957" lon="6.09453">
        <ele>413</ele>
        <time>2021-02-19T13:00:58Z</time>
      </trkpt>
      <trkpt lat="43.59959" lon="6.09451">
        <ele>413</ele>
        <time>2021-02-19T13:00:59Z</time>
      </trkpt>
      <trkpt lat="43.59962" lon="6.09448">
        <ele>413</ele>
        <time>2021-02-19T13:01:00Z</time>
      </trkpt>
      <trkpt lat="43.59965" lon="6.09445">
        <ele>413.2</ele>
        <time>2021-02-19T13:01:01Z</time>
      </trkpt>
      <trkpt lat="43.59968" lon="6.0944">
        <ele>413.4</ele>
        <time>2021-02-19T13:01:02Z</time>
      </trkpt>
      <trkpt lat="43.59971" lon="6.09436">
        <ele>413.6</ele>
        <time>2021-02-19T13:01:03Z</time>
      </trkpt>
      <trkpt lat="43.59974" lon="6.09431">
        <ele>413.4</ele>
        <time>2021-02-19T13:01:04Z</time>
      </trkpt>
      <trkpt lat="43.59977" lon="6.09427">
        <ele>413.4</ele>
        <time>2021-02-19T13:01:05Z</time>
      </trkpt>
      <trkpt lat="43.5998" lon="6.09423">
        <ele>413.6</ele>
        <time>2021-02-19T13:01:06Z</time>
      </trkpt>
      <trkpt lat="43.59984" lon="6.09418">
        <ele>413.8</ele>
        <time>2021-02-19T13:01:07Z</time>
      </trkpt>
      <trkpt lat="43.59987" lon="6.09414">
        <ele>413.8</ele>
        <time>2021-02-19T13:01:08Z</time>
      </trkpt>
      <trkpt lat="43.59991" lon="6.09409">
        <ele>414</ele>
        <time>2021-02-19T13:01:09Z</time>
      </trkpt>
      <trkpt lat="43.59994" lon="6.09405">
        <ele>414.2</ele>
        <time>2021-02-19T13:01:10Z</time>
      </trkpt>
      <trkpt lat="43.59998" lon="6.09401">
        <ele>414.2</ele>
        <time>2021-02-19T13:01:11Z</time>
      </trkpt>
      <trkpt lat="43.60002" lon="6.09397">
        <ele>414.2</ele>
        <time>2021-02-19T13:01:12Z</time>
      </trkpt>
      <trkpt lat="43.60006" lon="6.09393">
        <ele>414.4</ele>
        <time>2021-02-19T13:01:13Z</time>
      </trkpt>
      <trkpt lat="43.6001" lon="6.09389">
        <ele>414.2</ele>
        <time>2021-02-19T13:01:14Z</time>
      </trkpt>
      <trkpt lat="43.60013" lon="6.09386">
        <ele>414.2</ele>
        <time>2021-02-19T13:01:15Z</time>
      </trkpt>
      <trkpt lat="43.60017" lon="6.09383">
        <ele>414.2</ele>
        <time>2021-02-19T13:01:16Z</time>
      </trkpt>
      <trkpt lat="43.60021" lon="6.09381">
        <ele>414.4</ele>
        <time>2021-02-19T13:01:17Z</time>
      </trkpt>
      <trkpt lat="43.60025" lon="6.0938">
        <ele>414.4</ele>
        <time>2021-02-19T13:01:18Z</time>
      </trkpt>
      <trkpt lat="43.60028" lon="6.09378">
        <ele>414.6</ele>
        <time>2021-02-19T13:01:19Z</time>
      </trkpt>
      <trkpt lat="43.6003" lon="6.09375">
        <ele>414.8</ele>
        <time>2021-02-19T13:01:20Z</time>
      </trkpt>
      <trkpt lat="43.60033" lon="6.09373">
        <ele>415</ele>
        <time>2021-02-19T13:01:21Z</time>
      </trkpt>
      <trkpt lat="43.60036" lon="6.09373">
        <ele>415.2</ele>
        <time>2021-02-19T13:01:22Z</time>
      </trkpt>
      <trkpt lat="43.60039" lon="6.09375">
        <ele>415.6</ele>
        <time>2021-02-19T13:01:23Z</time>
      </trkpt>
      <trkpt lat="43.60042" lon="6.09379">
        <ele>415.6</ele>
        <time>2021-02-19T13:01:24Z</time>
      </trkpt>
      <trkpt lat="43.60045" lon="6.09383">
        <ele>415.6</ele>
        <time>2021-02-19T13:01:25Z</time>
      </trkpt>
      <trkpt lat="43.60047" lon="6.09388">
        <ele>415.8</ele>
        <time>2021-02-19T13:01:26Z</time>
      </trkpt>
      <trkpt lat="43.60049" lon="6.09393">
        <ele>416</ele>
        <time>2021-02-19T13:01:27Z</time>
      </trkpt>
      <trkpt lat="43.6005" lon="6.09397">
        <ele>416.4</ele>
        <time>2021-02-19T13:01:28Z</time>
      </trkpt>
      <trkpt lat="43.60053" lon="6.09401">
        <ele>416.6</ele>
        <time>2021-02-19T13:01:29Z</time>
      </trkpt>
      <trkpt lat="43.60055" lon="6.09406">
        <ele>416.6</ele>
        <time>2021-02-19T13:01:30Z</time>
      </trkpt>
      <trkpt lat="43.60058" lon="6.0941">
        <ele>417.2</ele>
        <time>2021-02-19T13:01:31Z</time>
      </trkpt>
      <trkpt lat="43.6006" lon="6.09416">
        <ele>417.6</ele>
        <time>2021-02-19T13:01:32Z</time>
      </trkpt>
      <trkpt lat="43.60062" lon="6.09421">
        <ele>418.2</ele>
        <time>2021-02-19T13:01:33Z</time>
      </trkpt>
      <trkpt lat="43.60064" lon="6.09427">
        <ele>418.8</ele>
        <time>2021-02-19T13:01:34Z</time>
      </trkpt>
      <trkpt lat="43.60066" lon="6.09432">
        <ele>419.2</ele>
        <time>2021-02-19T13:01:35Z</time>
      </trkpt>
      <trkpt lat="43.60068" lon="6.09438">
        <ele>419.6</ele>
        <time>2021-02-19T13:01:36Z</time>
      </trkpt>
      <trkpt lat="43.6007" lon="6.09443">
        <ele>419.8</ele>
        <time>2021-02-19T13:01:37Z</time>
      </trkpt>
      <trkpt lat="43.60073" lon="6.09448">
        <ele>420</ele>
        <time>2021-02-19T13:01:38Z</time>
      </trkpt>
      <trkpt lat="43.60075" lon="6.09453">
        <ele>420.2</ele>
        <time>2021-02-19T13:01:39Z</time>
      </trkpt>
      <trkpt lat="43.60077" lon="6.09458">
        <ele>420.6</ele>
        <time>2021-02-19T13:01:40Z</time>
      </trkpt>
      <trkpt lat="43.60079" lon="6.09464">
        <ele>420.8</ele>
        <time>2021-02-19T13:01:41Z</time>
      </trkpt>
      <trkpt lat="43.60081" lon="6.09469">
        <ele>421.2</ele>
        <time>2021-02-19T13:01:42Z</time>
      </trkpt>
      <trkpt lat="43.60083" lon="6.09473">
        <ele>421.6</ele>
        <time>2021-02-19T13:01:43Z</time>
      </trkpt>
      <trkpt lat="43.60086" lon="6.09478">
        <ele>422.2</ele>
        <time>2021-02-19T13:01:44Z</time>
      </trkpt>
      <trkpt lat="43.60088" lon="6.09482">
        <ele>422.8</ele>
        <time>2021-02-19T13:01:45Z</time>
      </trkpt>
      <trkpt lat="43.60089" lon="6.09487">
        <ele>423.2</ele>
        <time>2021-02-19T13:01:46Z</time>
      </trkpt>
      <trkpt lat="43.60091" lon="6.09491">
        <ele>423.8</ele>
        <time>2021-02-19T13:01:47Z</time>
      </trkpt>
      <trkpt lat="43.60093" lon="6.09494">
        <ele>424</ele>
        <time>2021-02-19T13:01:48Z</time>
      </trkpt>
      <trkpt lat="43.60096" lon="6.09497">
        <ele>424.4</ele>
        <time>2021-02-19T13:01:49Z</time>
      </trkpt>
      <trkpt lat="43.60098" lon="6.09498">
        <ele>424.8</ele>
        <time>2021-02-19T13:01:50Z</time>
      </trkpt>
      <trkpt lat="43.60101" lon="6.09499">
        <ele>425</ele>
        <time>2021-02-19T13:01:51Z</time>
      </trkpt>
      <trkpt lat="43.60105" lon="6.09497">
        <ele>425.2</ele>
        <time>2021-02-19T13:01:52Z</time>
      </trkpt>
      <trkpt lat="43.60109" lon="6.09495">
        <ele>425.4</ele>
        <time>2021-02-19T13:01:53Z</time>
      </trkpt>
      <trkpt lat="43.60113" lon="6.09491">
        <ele>425.4</ele>
        <time>2021-02-19T13:01:54Z</time>
      </trkpt>
      <trkpt lat="43.60117" lon="6.09488">
        <ele>425.6</ele>
        <time>2021-02-19T13:01:55Z</time>
      </trkpt>
      <trkpt lat="43.60121" lon="6.09484">
        <ele>425.6</ele>
        <time>2021-02-19T13:01:56Z</time>
      </trkpt>
      <trkpt lat="43.60125" lon="6.09481">
        <ele>425.6</ele>
        <time>2021-02-19T13:01:57Z</time>
      </trkpt>
      <trkpt lat="43.60129" lon="6.09477">
        <ele>425.8</ele>
        <time>2021-02-19T13:01:58Z</time>
      </trkpt>
      <trkpt lat="43.60134" lon="6.09473">
        <ele>425.8</ele>
        <time>2021-02-19T13:01:59Z</time>
      </trkpt>
      <trkpt lat="43.60138" lon="6.0947">
        <ele>426</ele>
        <time>2021-02-19T13:02:00Z</time>
      </trkpt>
      <trkpt lat="43.60143" lon="6.09466">
        <ele>426</ele>
        <time>2021-02-19T13:02:01Z</time>
      </trkpt>
      <trkpt lat="43.60147" lon="6.09462">
        <ele>426</ele>
        <time>2021-02-19T13:02:02Z</time>
      </trkpt>
      <trkpt lat="43.60151" lon="6.09458">
        <ele>426</ele>
        <time>2021-02-19T13:02:03Z</time>
      </trkpt>
      <trkpt lat="43.60156" lon="6.09454">
        <ele>426</ele>
        <time>2021-02-19T13:02:04Z</time>
      </trkpt>
      <trkpt lat="43.6016" lon="6.09451">
        <ele>426</ele>
        <time>2021-02-19T13:02:05Z</time>
      </trkpt>
      <trkpt lat="43.60165" lon="6.09447">
        <ele>426.2</ele>
        <time>2021-02-19T13:02:06Z</time>
      </trkpt>
      <trkpt lat="43.60169" lon="6.09442">
        <ele>426.2</ele>
        <time>2021-02-19T13:02:07Z</time>
      </trkpt>
      <trkpt lat="43.60174" lon="6.09438">
        <ele>426.2</ele>
        <time>2021-02-19T13:02:08Z</time>
      </trkpt>
      <trkpt lat="43.60178" lon="6.09434">
        <ele>426.4</ele>
        <time>2021-02-19T13:02:09Z</time>
      </trkpt>
      <trkpt lat="43.60183" lon="6.0943">
        <ele>426.4</ele>
        <time>2021-02-19T13:02:10Z</time>
      </trkpt>
      <trkpt lat="43.60187" lon="6.09426">
        <ele>426.6</ele>
        <time>2021-02-19T13:02:11Z</time>
      </trkpt>
      <trkpt lat="43.60191" lon="6.09422">
        <ele>426.6</ele>
        <time>2021-02-19T13:02:12Z</time>
      </trkpt>
      <trkpt lat="43.60196" lon="6.09417">
        <ele>426.6</ele>
        <time>2021-02-19T13:02:13Z</time>
      </trkpt>
      <trkpt lat="43.602" lon="6.09413">
        <ele>426.6</ele>
        <time>2021-02-19T13:02:14Z</time>
      </trkpt>
      <trkpt lat="43.60204" lon="6.09409">
        <ele>426.8</ele>
        <time>2021-02-19T13:02:15Z</time>
      </trkpt>
      <trkpt lat="43.60209" lon="6.09405">
        <ele>426.8</ele>
        <time>2021-02-19T13:02:16Z</time>
      </trkpt>
      <trkpt lat="43.60213" lon="6.09401">
        <ele>427</ele>
        <time>2021-02-19T13:02:17Z</time>
      </trkpt>
      <trkpt lat="43.60218" lon="6.09396">
        <ele>427</ele>
        <time>2021-02-19T13:02:18Z</time>
      </trkpt>
      <trkpt lat="43.60223" lon="6.09392">
        <ele>427.2</ele>
        <time>2021-02-19T13:02:19Z</time>
      </trkpt>
      <trkpt lat="43.60227" lon="6.09388">
        <ele>427.2</ele>
        <time>2021-02-19T13:02:20Z</time>
      </trkpt>
      <trkpt lat="43.60232" lon="6.09384">
        <ele>427.2</ele>
        <time>2021-02-19T13:02:21Z</time>
      </trkpt>
      <trkpt lat="43.60236" lon="6.0938">
        <ele>427.2</ele>
        <time>2021-02-19T13:02:22Z</time>
      </trkpt>
      <trkpt lat="43.60241" lon="6.09375">
        <ele>427.4</ele>
        <time>2021-02-19T13:02:23Z</time>
      </trkpt>
      <trkpt lat="43.60246" lon="6.09371">
        <ele>427.6</ele>
        <time>2021-02-19T13:02:24Z</time>
      </trkpt>
      <trkpt lat="43.60251" lon="6.09366">
        <ele>427.6</ele>
        <time>2021-02-19T13:02:25Z</time>
      </trkpt>
      <trkpt lat="43.60256" lon="6.09362">
        <ele>427.8</ele>
        <time>2021-02-19T13:02:26Z</time>
      </trkpt>
      <trkpt lat="43.6026" lon="6.09357">
        <ele>428</ele>
        <time>2021-02-19T13:02:27Z</time>
      </trkpt>
      <trkpt lat="43.60265" lon="6.09353">
        <ele>428</ele>
        <time>2021-02-19T13:02:28Z</time>
      </trkpt>
      <trkpt lat="43.6027" lon="6.09348">
        <ele>428.2</ele>
        <time>2021-02-19T13:02:29Z</time>
      </trkpt>
      <trkpt lat="43.60275" lon="6.09344">
        <ele>428.2</ele>
        <time>2021-02-19T13:02:30Z</time>
      </trkpt>
      <trkpt lat="43.60279" lon="6.0934">
        <ele>428.4</ele>
        <time>2021-02-19T13:02:31Z</time>
      </trkpt>
      <trkpt lat="43.60284" lon="6.09335">
        <ele>428.4</ele>
        <time>2021-02-19T13:02:32Z</time>
      </trkpt>
      <trkpt lat="43.60288" lon="6.09331">
        <ele>428.4</ele>
        <time>2021-02-19T13:02:33Z</time>
      </trkpt>
      <trkpt lat="43.60292" lon="6.09327">
        <ele>428.4</ele>
        <time>2021-02-19T13:02:34Z</time>
      </trkpt>
      <trkpt lat="43.60296" lon="6.09323">
        <ele>428.4</ele>
        <time>2021-02-19T13:02:35Z</time>
      </trkpt>
      <trkpt lat="43.603" lon="6.09319">
        <ele>428.6</ele>
        <time>2021-02-19T13:02:36Z</time>
      </trkpt>
      <trkpt lat="43.60304" lon="6.09315">
        <ele>428.8</ele>
        <time>2021-02-19T13:02:37Z</time>
      </trkpt>
      <trkpt lat="43.60308" lon="6.09311">
        <ele>428.8</ele>
        <time>2021-02-19T13:02:38Z</time>
      </trkpt>
      <trkpt lat="43.60313" lon="6.09307">
        <ele>429</ele>
        <time>2021-02-19T13:02:39Z</time>
      </trkpt>
      <trkpt lat="43.60318" lon="6.09303">
        <ele>429</ele>
        <time>2021-02-19T13:02:40Z</time>
      </trkpt>
      <trkpt lat="43.60323" lon="6.09299">
        <ele>429.2</ele>
        <time>2021-02-19T13:02:41Z</time>
      </trkpt>
      <trkpt lat="43.60328" lon="6.09294">
        <ele>429.4</ele>
        <time>2021-02-19T13:02:42Z</time>
      </trkpt>
      <trkpt lat="43.60333" lon="6.09289">
        <ele>429.6</ele>
        <time>2021-02-19T13:02:43Z</time>
      </trkpt>
      <trkpt lat="43.60338" lon="6.09284">
        <ele>430.2</ele>
        <time>2021-02-19T13:02:44Z</time>
      </trkpt>
      <trkpt lat="43.60343" lon="6.09279">
        <ele>430.4</ele>
        <time>2021-02-19T13:02:45Z</time>
      </trkpt>
      <trkpt lat="43.60348" lon="6.09274">
        <ele>430.4</ele>
        <time>2021-02-19T13:02:46Z</time>
      </trkpt>
      <trkpt lat="43.60353" lon="6.09269">
        <ele>430.6</ele>
        <time>2021-02-19T13:02:47Z</time>
      </trkpt>
      <trkpt lat="43.60358" lon="6.09264">
        <ele>430.6</ele>
        <time>2021-02-19T13:02:48Z</time>
      </trkpt>
      <trkpt lat="43.60363" lon="6.0926">
        <ele>430.6</ele>
        <time>2021-02-19T13:02:49Z</time>
      </trkpt>
      <trkpt lat="43.60368" lon="6.09255">
        <ele>430.8</ele>
        <time>2021-02-19T13:02:50Z</time>
      </trkpt>
      <trkpt lat="43.60373" lon="6.0925">
        <ele>431</ele>
        <time>2021-02-19T13:02:51Z</time>
      </trkpt>
      <trkpt lat="43.60378" lon="6.09245">
        <ele>431.2</ele>
        <time>2021-02-19T13:02:52Z</time>
      </trkpt>
      <trkpt lat="43.60384" lon="6.0924">
        <ele>431.6</ele>
        <time>2021-02-19T13:02:53Z</time>
      </trkpt>
      <trkpt lat="43.60388" lon="6.09235">
        <ele>432</ele>
        <time>2021-02-19T13:02:54Z</time>
      </trkpt>
      <trkpt lat="43.60394" lon="6.0923">
        <ele>432.2</ele>
        <time>2021-02-19T13:02:55Z</time>
      </trkpt>
      <trkpt lat="43.60398" lon="6.09225">
        <ele>432.4</ele>
        <time>2021-02-19T13:02:56Z</time>
      </trkpt>
      <trkpt lat="43.60404" lon="6.09221">
        <ele>432.4</ele>
        <time>2021-02-19T13:02:57Z</time>
      </trkpt>
      <trkpt lat="43.60408" lon="6.09216">
        <ele>432.6</ele>
        <time>2021-02-19T13:02:58Z</time>
      </trkpt>
      <trkpt lat="43.60413" lon="6.09211">
        <ele>432.8</ele>
        <time>2021-02-19T13:02:59Z</time>
      </trkpt>
      <trkpt lat="43.60418" lon="6.09206">
        <ele>433</ele>
        <time>2021-02-19T13:03:00Z</time>
      </trkpt>
      <trkpt lat="43.60423" lon="6.09201">
        <ele>433.2</ele>
        <time>2021-02-19T13:03:01Z</time>
      </trkpt>
      <trkpt lat="43.60428" lon="6.09196">
        <ele>433.4</ele>
        <time>2021-02-19T13:03:02Z</time>
      </trkpt>
      <trkpt lat="43.60433" lon="6.09191">
        <ele>433.4</ele>
        <time>2021-02-19T13:03:03Z</time>
      </trkpt>
      <trkpt lat="43.60438" lon="6.09186">
        <ele>433.6</ele>
        <time>2021-02-19T13:03:04Z</time>
      </trkpt>
      <trkpt lat="43.60443" lon="6.09181">
        <ele>433.8</ele>
        <time>2021-02-19T13:03:05Z</time>
      </trkpt>
      <trkpt lat="43.60448" lon="6.09176">
        <ele>434</ele>
        <time>2021-02-19T13:03:06Z</time>
      </trkpt>
      <trkpt lat="43.60453" lon="6.09171">
        <ele>434</ele>
        <time>2021-02-19T13:03:07Z</time>
      </trkpt>
      <trkpt lat="43.60458" lon="6.09165">
        <ele>434.2</ele>
        <time>2021-02-19T13:03:08Z</time>
      </trkpt>
      <trkpt lat="43.60463" lon="6.0916">
        <ele>434.2</ele>
        <time>2021-02-19T13:03:09Z</time>
      </trkpt>
      <trkpt lat="43.60468" lon="6.09155">
        <ele>434</ele>
        <time>2021-02-19T13:03:10Z</time>
      </trkpt>
      <trkpt lat="43.60473" lon="6.09149">
        <ele>434.2</ele>
        <time>2021-02-19T13:03:11Z</time>
      </trkpt>
      <trkpt lat="43.60478" lon="6.09144">
        <ele>434.2</ele>
        <time>2021-02-19T13:03:12Z</time>
      </trkpt>
      <trkpt lat="43.60483" lon="6.09138">
        <ele>434.2</ele>
        <time>2021-02-19T13:03:13Z</time>
      </trkpt>
      <trkpt lat="43.60487" lon="6.09133">
        <ele>434.4</ele>
        <time>2021-02-19T13:03:14Z</time>
      </trkpt>
      <trkpt lat="43.60492" lon="6.09127">
        <ele>434.4</ele>
        <time>2021-02-19T13:03:15Z</time>
      </trkpt>
      <trkpt lat="43.60497" lon="6.09121">
        <ele>434.6</ele>
        <time>2021-02-19T13:03:16Z</time>
      </trkpt>
      <trkpt lat="43.60501" lon="6.09115">
        <ele>434.6</ele>
        <time>2021-02-19T13:03:17Z</time>
      </trkpt>
      <trkpt lat="43.60506" lon="6.09109">
        <ele>434.6</ele>
        <time>2021-02-19T13:03:18Z</time>
      </trkpt>
      <trkpt lat="43.6051" lon="6.09102">
        <ele>434.6</ele>
        <time>2021-02-19T13:03:19Z</time>
      </trkpt>
      <trkpt lat="43.60514" lon="6.09096">
        <ele>434.6</ele>
        <time>2021-02-19T13:03:20Z</time>
      </trkpt>
      <trkpt lat="43.60518" lon="6.09089">
        <ele>434.6</ele>
        <time>2021-02-19T13:03:21Z</time>
      </trkpt>
      <trkpt lat="43.60522" lon="6.09082">
        <ele>434.6</ele>
        <time>2021-02-19T13:03:22Z</time>
      </trkpt>
      <trkpt lat="43.60525" lon="6.09075">
        <ele>434.6</ele>
        <time>2021-02-19T13:03:23Z</time>
      </trkpt>
      <trkpt lat="43.60529" lon="6.09067">
        <ele>434.6</ele>
        <time>2021-02-19T13:03:24Z</time>
      </trkpt>
      <trkpt lat="43.60532" lon="6.0906">
        <ele>434.8</ele>
        <time>2021-02-19T13:03:25Z</time>
      </trkpt>
      <trkpt lat="43.60536" lon="6.09053">
        <ele>435</ele>
        <time>2021-02-19T13:03:26Z</time>
      </trkpt>
      <trkpt lat="43.60539" lon="6.09046">
        <ele>435.2</ele>
        <time>2021-02-19T13:03:27Z</time>
      </trkpt>
      <trkpt lat="43.60542" lon="6.09038">
        <ele>435.4</ele>
        <time>2021-02-19T13:03:28Z</time>
      </trkpt>
      <trkpt lat="43.60545" lon="6.09031">
        <ele>435.4</ele>
        <time>2021-02-19T13:03:29Z</time>
      </trkpt>
      <trkpt lat="43.60548" lon="6.09023">
        <ele>435.4</ele>
        <time>2021-02-19T13:03:30Z</time>
      </trkpt>
      <trkpt lat="43.6055" lon="6.09015">
        <ele>435.4</ele>
        <time>2021-02-19T13:03:31Z</time>
      </trkpt>
      <trkpt lat="43.60553" lon="6.09008">
        <ele>435.4</ele>
        <time>2021-02-19T13:03:32Z</time>
      </trkpt>
      <trkpt lat="43.60556" lon="6.09">
        <ele>435.4</ele>
        <time>2021-02-19T13:03:33Z</time>
      </trkpt>
      <trkpt lat="43.60559" lon="6.08993">
        <ele>435.4</ele>
        <time>2021-02-19T13:03:34Z</time>
      </trkpt>
      <trkpt lat="43.60562" lon="6.08986">
        <ele>435.2</ele>
        <time>2021-02-19T13:03:35Z</time>
      </trkpt>
      <trkpt lat="43.60565" lon="6.08978">
        <ele>435.2</ele>
        <time>2021-02-19T13:03:36Z</time>
      </trkpt>
      <trkpt lat="43.60568" lon="6.08971">
        <ele>435.2</ele>
        <time>2021-02-19T13:03:37Z</time>
      </trkpt>
      <trkpt lat="43.60572" lon="6.08963">
        <ele>435.4</ele>
        <time>2021-02-19T13:03:38Z</time>
      </trkpt>
      <trkpt lat="43.60575" lon="6.08956">
        <ele>435.6</ele>
        <time>2021-02-19T13:03:39Z</time>
      </trkpt>
      <trkpt lat="43.60578" lon="6.08948">
        <ele>435.6</ele>
        <time>2021-02-19T13:03:40Z</time>
      </trkpt>
      <trkpt lat="43.60581" lon="6.08941">
        <ele>435.6</ele>
        <time>2021-02-19T13:03:41Z</time>
      </trkpt>
      <trkpt lat="43.60585" lon="6.08934">
        <ele>435.6</ele>
        <time>2021-02-19T13:03:42Z</time>
      </trkpt>
      <trkpt lat="43.60588" lon="6.08926">
        <ele>435.6</ele>
        <time>2021-02-19T13:03:43Z</time>
      </trkpt>
      <trkpt lat="43.60591" lon="6.08919">
        <ele>435.6</ele>
        <time>2021-02-19T13:03:44Z</time>
      </trkpt>
      <trkpt lat="43.60594" lon="6.08911">
        <ele>435.4</ele>
        <time>2021-02-19T13:03:45Z</time>
      </trkpt>
      <trkpt lat="43.60597" lon="6.08904">
        <ele>435.4</ele>
        <time>2021-02-19T13:03:46Z</time>
      </trkpt>
      <trkpt lat="43.606" lon="6.08896">
        <ele>435.4</ele>
        <time>2021-02-19T13:03:47Z</time>
      </trkpt>
      <trkpt lat="43.60603" lon="6.08889">
        <ele>435.2</ele>
        <time>2021-02-19T13:03:48Z</time>
      </trkpt>
      <trkpt lat="43.60606" lon="6.08881">
        <ele>435.2</ele>
        <time>2021-02-19T13:03:49Z</time>
      </trkpt>
      <trkpt lat="43.60609" lon="6.08874">
        <ele>435</ele>
        <time>2021-02-19T13:03:50Z</time>
      </trkpt>
      <trkpt lat="43.60612" lon="6.08867">
        <ele>434.8</ele>
        <time>2021-02-19T13:03:51Z</time>
      </trkpt>
      <trkpt lat="43.60616" lon="6.08862">
        <ele>434.6</ele>
        <time>2021-02-19T13:03:52Z</time>
      </trkpt>
      <trkpt lat="43.60621" lon="6.08857">
        <ele>434.6</ele>
        <time>2021-02-19T13:03:53Z</time>
      </trkpt>
      <trkpt lat="43.60625" lon="6.08852">
        <ele>434.8</ele>
        <time>2021-02-19T13:03:54Z</time>
      </trkpt>
      <trkpt lat="43.6063" lon="6.08848">
        <ele>434.8</ele>
        <time>2021-02-19T13:03:55Z</time>
      </trkpt>
      <trkpt lat="43.60634" lon="6.08843">
        <ele>434.8</ele>
        <time>2021-02-19T13:03:56Z</time>
      </trkpt>
      <trkpt lat="43.60639" lon="6.08838">
        <ele>435</ele>
        <time>2021-02-19T13:03:57Z</time>
      </trkpt>
      <trkpt lat="43.60643" lon="6.08833">
        <ele>435</ele>
        <time>2021-02-19T13:03:58Z</time>
      </trkpt>
      <trkpt lat="43.60647" lon="6.08827">
        <ele>435</ele>
        <time>2021-02-19T13:03:59Z</time>
      </trkpt>
      <trkpt lat="43.60651" lon="6.08821">
        <ele>435</ele>
        <time>2021-02-19T13:04:00Z</time>
      </trkpt>
      <trkpt lat="43.60656" lon="6.08816">
        <ele>435</ele>
        <time>2021-02-19T13:04:01Z</time>
      </trkpt>
      <trkpt lat="43.60661" lon="6.08811">
        <ele>435</ele>
        <time>2021-02-19T13:04:02Z</time>
      </trkpt>
      <trkpt lat="43.60665" lon="6.08807">
        <ele>435.4</ele>
        <time>2021-02-19T13:04:03Z</time>
      </trkpt>
      <trkpt lat="43.6067" lon="6.08804">
        <ele>435.6</ele>
        <time>2021-02-19T13:04:04Z</time>
      </trkpt>
      <trkpt lat="43.60675" lon="6.088">
        <ele>435.8</ele>
        <time>2021-02-19T13:04:05Z</time>
      </trkpt>
      <trkpt lat="43.6068" lon="6.08795">
        <ele>436</ele>
        <time>2021-02-19T13:04:06Z</time>
      </trkpt>
      <trkpt lat="43.60684" lon="6.08791">
        <ele>436</ele>
        <time>2021-02-19T13:04:07Z</time>
      </trkpt>
      <trkpt lat="43.60689" lon="6.08786">
        <ele>436</ele>
        <time>2021-02-19T13:04:08Z</time>
      </trkpt>
      <trkpt lat="43.60693" lon="6.08781">
        <ele>436.2</ele>
        <time>2021-02-19T13:04:09Z</time>
      </trkpt>
      <trkpt lat="43.60697" lon="6.08777">
        <ele>436.2</ele>
        <time>2021-02-19T13:04:10Z</time>
      </trkpt>
      <trkpt lat="43.60701" lon="6.08773">
        <ele>436.2</ele>
        <time>2021-02-19T13:04:11Z</time>
      </trkpt>
      <trkpt lat="43.60705" lon="6.08769">
        <ele>436.2</ele>
        <time>2021-02-19T13:04:12Z</time>
      </trkpt>
      <trkpt lat="43.6071" lon="6.08765">
        <ele>436.2</ele>
        <time>2021-02-19T13:04:13Z</time>
      </trkpt>
      <trkpt lat="43.60715" lon="6.08761">
        <ele>436</ele>
        <time>2021-02-19T13:04:14Z</time>
      </trkpt>
      <trkpt lat="43.60721" lon="6.08756">
        <ele>436.2</ele>
        <time>2021-02-19T13:04:15Z</time>
      </trkpt>
      <trkpt lat="43.60726" lon="6.08751">
        <ele>436.2</ele>
        <time>2021-02-19T13:04:16Z</time>
      </trkpt>
      <trkpt lat="43.60731" lon="6.08745">
        <ele>435.8</ele>
        <time>2021-02-19T13:04:17Z</time>
      </trkpt>
      <trkpt lat="43.60736" lon="6.0874">
        <ele>434.6</ele>
        <time>2021-02-19T13:04:18Z</time>
      </trkpt>
      <trkpt lat="43.60742" lon="6.08735">
        <ele>433.2</ele>
        <time>2021-02-19T13:04:19Z</time>
      </trkpt>
      <trkpt lat="43.60748" lon="6.08731">
        <ele>432.4</ele>
        <time>2021-02-19T13:04:20Z</time>
      </trkpt>
      <trkpt lat="43.60752" lon="6.08727">
        <ele>432</ele>
        <time>2021-02-19T13:04:21Z</time>
      </trkpt>
      <trkpt lat="43.60756" lon="6.08723">
        <ele>431.6</ele>
        <time>2021-02-19T13:04:22Z</time>
      </trkpt>
      <trkpt lat="43.60759" lon="6.0872">
        <ele>431</ele>
        <time>2021-02-19T13:04:23Z</time>
      </trkpt>
      <trkpt lat="43.6076" lon="6.08717">
        <ele>430.4</ele>
        <time>2021-02-19T13:04:24Z</time>
      </trkpt>
      <trkpt lat="43.60761" lon="6.08714">
        <ele>429.8</ele>
        <time>2021-02-19T13:04:25Z</time>
      </trkpt>
      <trkpt lat="43.60761" lon="6.0871">
        <ele>429.6</ele>
        <time>2021-02-19T13:04:26Z</time>
      </trkpt>
      <trkpt lat="43.60763" lon="6.08707">
        <ele>429.4</ele>
        <time>2021-02-19T13:04:27Z</time>
      </trkpt>
      <trkpt lat="43.60765" lon="6.08704">
        <ele>429.2</ele>
        <time>2021-02-19T13:04:28Z</time>
      </trkpt>
      <trkpt lat="43.60767" lon="6.08702">
        <ele>429.2</ele>
        <time>2021-02-19T13:04:29Z</time>
      </trkpt>
      <trkpt lat="43.6077" lon="6.08699">
        <ele>429.4</ele>
        <time>2021-02-19T13:04:30Z</time>
      </trkpt>
      <trkpt lat="43.60772" lon="6.08697">
        <ele>429.4</ele>
        <time>2021-02-19T13:04:31Z</time>
      </trkpt>
      <trkpt lat="43.60775" lon="6.08696">
        <ele>429.4</ele>
        <time>2021-02-19T13:04:32Z</time>
      </trkpt>
      <trkpt lat="43.60777" lon="6.08694">
        <ele>429.4</ele>
        <time>2021-02-19T13:04:33Z</time>
      </trkpt>
      <trkpt lat="43.6078" lon="6.08692">
        <ele>429.4</ele>
        <time>2021-02-19T13:04:34Z</time>
      </trkpt>
      <trkpt lat="43.60782" lon="6.0869">
        <ele>429.6</ele>
        <time>2021-02-19T13:04:35Z</time>
      </trkpt>
      <trkpt lat="43.60784" lon="6.08687">
        <ele>429.6</ele>
        <time>2021-02-19T13:04:36Z</time>
      </trkpt>
      <trkpt lat="43.60784" lon="6.08684">
        <ele>429.8</ele>
        <time>2021-02-19T13:04:37Z</time>
      </trkpt>
      <trkpt lat="43.60783" lon="6.08682">
        <ele>429.8</ele>
        <time>2021-02-19T13:04:38Z</time>
      </trkpt>
      <trkpt lat="43.60781" lon="6.08679">
        <ele>429.8</ele>
        <time>2021-02-19T13:04:39Z</time>
      </trkpt>
      <trkpt lat="43.60778" lon="6.08677">
        <ele>430</ele>
        <time>2021-02-19T13:04:40Z</time>
      </trkpt>
      <trkpt lat="43.60775" lon="6.08676">
        <ele>430.4</ele>
        <time>2021-02-19T13:04:41Z</time>
      </trkpt>
      <trkpt lat="43.60772" lon="6.08675">
        <ele>430.6</ele>
        <time>2021-02-19T13:04:42Z</time>
      </trkpt>
      <trkpt lat="43.60768" lon="6.08675">
        <ele>430.8</ele>
        <time>2021-02-19T13:04:43Z</time>
      </trkpt>
      <trkpt lat="43.60765" lon="6.08676">
        <ele>431.2</ele>
        <time>2021-02-19T13:04:44Z</time>
      </trkpt>
      <trkpt lat="43.60763" lon="6.08678">
        <ele>431.4</ele>
        <time>2021-02-19T13:04:45Z</time>
      </trkpt>
      <trkpt lat="43.6076" lon="6.08681">
        <ele>431.6</ele>
        <time>2021-02-19T13:04:46Z</time>
      </trkpt>
      <trkpt lat="43.60756" lon="6.08685">
        <ele>431.8</ele>
        <time>2021-02-19T13:04:47Z</time>
      </trkpt>
      <trkpt lat="43.60753" lon="6.08689">
        <ele>432</ele>
        <time>2021-02-19T13:04:48Z</time>
      </trkpt>
      <trkpt lat="43.6075" lon="6.08693">
        <ele>432.2</ele>
        <time>2021-02-19T13:04:49Z</time>
      </trkpt>
      <trkpt lat="43.60747" lon="6.08697">
        <ele>432.6</ele>
        <time>2021-02-19T13:04:50Z</time>
      </trkpt>
      <trkpt lat="43.60744" lon="6.087">
        <ele>432.8</ele>
        <time>2021-02-19T13:04:51Z</time>
      </trkpt>
      <trkpt lat="43.60742" lon="6.08703">
        <ele>433.2</ele>
        <time>2021-02-19T13:04:52Z</time>
      </trkpt>
      <trkpt lat="43.60739" lon="6.08707">
        <ele>433.2</ele>
        <time>2021-02-19T13:04:53Z</time>
      </trkpt>
      <trkpt lat="43.60736" lon="6.0871">
        <ele>433.8</ele>
        <time>2021-02-19T13:04:54Z</time>
      </trkpt>
      <trkpt lat="43.60733" lon="6.08713">
        <ele>434</ele>
        <time>2021-02-19T13:04:55Z</time>
      </trkpt>
      <trkpt lat="43.60731" lon="6.08716">
        <ele>434.4</ele>
        <time>2021-02-19T13:04:56Z</time>
      </trkpt>
      <trkpt lat="43.60728" lon="6.08718">
        <ele>434.8</ele>
        <time>2021-02-19T13:04:57Z</time>
      </trkpt>
      <trkpt lat="43.60726" lon="6.0872">
        <ele>435.2</ele>
        <time>2021-02-19T13:04:58Z</time>
      </trkpt>
      <trkpt lat="43.60723" lon="6.08722">
        <ele>435.6</ele>
        <time>2021-02-19T13:04:59Z</time>
      </trkpt>
      <trkpt lat="43.60721" lon="6.08725">
        <ele>435.8</ele>
        <time>2021-02-19T13:05:00Z</time>
      </trkpt>
      <trkpt lat="43.60719" lon="6.08726">
        <ele>436</ele>
        <time>2021-02-19T13:05:01Z</time>
      </trkpt>
      <trkpt lat="43.60716" lon="6.08727">
        <ele>436</ele>
        <time>2021-02-19T13:05:02Z</time>
      </trkpt>
      <trkpt lat="43.60714" lon="6.08728">
        <ele>436</ele>
        <time>2021-02-19T13:05:03Z</time>
      </trkpt>
      <trkpt lat="43.60712" lon="6.08727">
        <ele>436</ele>
        <time>2021-02-19T13:05:04Z</time>
      </trkpt>
      <trkpt lat="43.6071" lon="6.08725">
        <ele>436</ele>
        <time>2021-02-19T13:05:05Z</time>
      </trkpt>
      <trkpt lat="43.6071" lon="6.08725">
        <ele>436</ele>
        <time>2021-02-19T13:05:06Z</time>
      </trkpt>
      <trkpt lat="43.6071" lon="6.08725">
        <ele>435.8</ele>
        <time>2021-02-19T13:05:07Z</time>
      </trkpt>
      <trkpt lat="43.60709" lon="6.08725">
        <ele>435.8</ele>
        <time>2021-02-19T13:05:08Z</time>
      </trkpt>
      <trkpt lat="43.60709" lon="6.08725">
        <ele>435.8</ele>
        <time>2021-02-19T13:05:09Z</time>
      </trkpt>
      <trkpt lat="43.60709" lon="6.08726">
        <ele>435.8</ele>
        <time>2021-02-19T13:05:10Z</time>
      </trkpt>
      <trkpt lat="43.60709" lon="6.08726">
        <ele>435.8</ele>
        <time>2021-02-19T13:05:11Z</time>
      </trkpt>
      <trkpt lat="43.60709" lon="6.08725">
        <ele>435.8</ele>
        <time>2021-02-19T13:05:12Z</time>
      </trkpt>
      <trkpt lat="43.60709" lon="6.08725">
        <ele>435.6</ele>
        <time>2021-02-19T13:05:13Z</time>
      </trkpt>
      <trkpt lat="43.60709" lon="6.08725">
        <ele>435.6</ele>
        <time>2021-02-19T13:05:14Z</time>
      </trkpt>
      <trkpt lat="43.60708" lon="6.08724">
        <ele>435.6</ele>
        <time>2021-02-19T13:05:15Z</time>
      </trkpt>
      <trkpt lat="43.60707" lon="6.08722">
        <ele>435.6</ele>
        <time>2021-02-19T13:05:16Z</time>
      </trkpt>
      <trkpt lat="43.60706" lon="6.08718">
        <ele>435.6</ele>
        <time>2021-02-19T13:05:17Z</time>
      </trkpt>
      <trkpt lat="43.60706" lon="6.08714">
        <ele>435.4</ele>
        <time>2021-02-19T13:05:18Z</time>
      </trkpt>
      <trkpt lat="43.60707" lon="6.08709">
        <ele>435.2</ele>
        <time>2021-02-19T13:05:19Z</time>
      </trkpt>
      <trkpt lat="43.60707" lon="6.08704">
        <ele>435</ele>
        <time>2021-02-19T13:05:20Z</time>
      </trkpt>
      <trkpt lat="43.60708" lon="6.08699">
        <ele>435</ele>
        <time>2021-02-19T13:05:21Z</time>
      </trkpt>
      <trkpt lat="43.60709" lon="6.08693">
        <ele>434.8</ele>
        <time>2021-02-19T13:05:22Z</time>
      </trkpt>
      <trkpt lat="43.60711" lon="6.08688">
        <ele>434.8</ele>
        <time>2021-02-19T13:05:23Z</time>
      </trkpt>
      <trkpt lat="43.60713" lon="6.08683">
        <ele>434.6</ele>
        <time>2021-02-19T13:05:24Z</time>
      </trkpt>
      <trkpt lat="43.60716" lon="6.08679">
        <ele>434.6</ele>
        <time>2021-02-19T13:05:25Z</time>
      </trkpt>
      <trkpt lat="43.60719" lon="6.08674">
        <ele>434.4</ele>
        <time>2021-02-19T13:05:26Z</time>
      </trkpt>
      <trkpt lat="43.60722" lon="6.0867">
        <ele>434.2</ele>
        <time>2021-02-19T13:05:27Z</time>
      </trkpt>
      <trkpt lat="43.60724" lon="6.08665">
        <ele>434.2</ele>
        <time>2021-02-19T13:05:28Z</time>
      </trkpt>
      <trkpt lat="43.60727" lon="6.0866">
        <ele>434</ele>
        <time>2021-02-19T13:05:29Z</time>
      </trkpt>
      <trkpt lat="43.60729" lon="6.08654">
        <ele>434</ele>
        <time>2021-02-19T13:05:30Z</time>
      </trkpt>
      <trkpt lat="43.6073" lon="6.08648">
        <ele>433.8</ele>
        <time>2021-02-19T13:05:31Z</time>
      </trkpt>
      <trkpt lat="43.6073" lon="6.08642">
        <ele>433.6</ele>
        <time>2021-02-19T13:05:32Z</time>
      </trkpt>
      <trkpt lat="43.60729" lon="6.08636">
        <ele>433.6</ele>
        <time>2021-02-19T13:05:33Z</time>
      </trkpt>
      <trkpt lat="43.60726" lon="6.08631">
        <ele>433.6</ele>
        <time>2021-02-19T13:05:34Z</time>
      </trkpt>
      <trkpt lat="43.60722" lon="6.08627">
        <ele>433.4</ele>
        <time>2021-02-19T13:05:35Z</time>
      </trkpt>
      <trkpt lat="43.60717" lon="6.08624">
        <ele>433.2</ele>
        <time>2021-02-19T13:05:36Z</time>
      </trkpt>
      <trkpt lat="43.60712" lon="6.08621">
        <ele>433</ele>
        <time>2021-02-19T13:05:37Z</time>
      </trkpt>
      <trkpt lat="43.60707" lon="6.08616">
        <ele>432.6</ele>
        <time>2021-02-19T13:05:38Z</time>
      </trkpt>
      <trkpt lat="43.60702" lon="6.0861">
        <ele>431.8</ele>
        <time>2021-02-19T13:05:39Z</time>
      </trkpt>
      <trkpt lat="43.60697" lon="6.08604">
        <ele>431.2</ele>
        <time>2021-02-19T13:05:40Z</time>
      </trkpt>
      <trkpt lat="43.60692" lon="6.08598">
        <ele>430.8</ele>
        <time>2021-02-19T13:05:41Z</time>
      </trkpt>
      <trkpt lat="43.60687" lon="6.08592">
        <ele>430.6</ele>
        <time>2021-02-19T13:05:42Z</time>
      </trkpt>
      <trkpt lat="43.60681" lon="6.08586">
        <ele>430.2</ele>
        <time>2021-02-19T13:05:43Z</time>
      </trkpt>
      <trkpt lat="43.60676" lon="6.0858">
        <ele>429.8</ele>
        <time>2021-02-19T13:05:44Z</time>
      </trkpt>
      <trkpt lat="43.6067" lon="6.08574">
        <ele>429.4</ele>
        <time>2021-02-19T13:05:45Z</time>
      </trkpt>
      <trkpt lat="43.60666" lon="6.08568">
        <ele>428.8</ele>
        <time>2021-02-19T13:05:46Z</time>
      </trkpt>
      <trkpt lat="43.60661" lon="6.08561">
        <ele>428.2</ele>
        <time>2021-02-19T13:05:47Z</time>
      </trkpt>
      <trkpt lat="43.60656" lon="6.08555">
        <ele>427.8</ele>
        <time>2021-02-19T13:05:48Z</time>
      </trkpt>
      <trkpt lat="43.60652" lon="6.0855">
        <ele>427.6</ele>
        <time>2021-02-19T13:05:49Z</time>
      </trkpt>
      <trkpt lat="43.60648" lon="6.08545">
        <ele>427.2</ele>
        <time>2021-02-19T13:05:50Z</time>
      </trkpt>
      <trkpt lat="43.60643" lon="6.0854">
        <ele>426.8</ele>
        <time>2021-02-19T13:05:51Z</time>
      </trkpt>
      <trkpt lat="43.60638" lon="6.08535">
        <ele>426.4</ele>
        <time>2021-02-19T13:05:52Z</time>
      </trkpt>
      <trkpt lat="43.60633" lon="6.08529">
        <ele>425.8</ele>
        <time>2021-02-19T13:05:53Z</time>
      </trkpt>
      <trkpt lat="43.60629" lon="6.08523">
        <ele>425.2</ele>
        <time>2021-02-19T13:05:54Z</time>
      </trkpt>
      <trkpt lat="43.60624" lon="6.08517">
        <ele>424.4</ele>
        <time>2021-02-19T13:05:55Z</time>
      </trkpt>
      <trkpt lat="43.60619" lon="6.08511">
        <ele>424.2</ele>
        <time>2021-02-19T13:05:56Z</time>
      </trkpt>
      <trkpt lat="43.60613" lon="6.08504">
        <ele>423.2</ele>
        <time>2021-02-19T13:05:57Z</time>
      </trkpt>
      <trkpt lat="43.60607" lon="6.08497">
        <ele>422.4</ele>
        <time>2021-02-19T13:05:58Z</time>
      </trkpt>
      <trkpt lat="43.606" lon="6.0849">
        <ele>422</ele>
        <time>2021-02-19T13:05:59Z</time>
      </trkpt>
      <trkpt lat="43.60593" lon="6.08483">
        <ele>421.8</ele>
        <time>2021-02-19T13:06:00Z</time>
      </trkpt>
      <trkpt lat="43.60587" lon="6.08476">
        <ele>421.4</ele>
        <time>2021-02-19T13:06:01Z</time>
      </trkpt>
      <trkpt lat="43.60581" lon="6.08469">
        <ele>421.2</ele>
        <time>2021-02-19T13:06:02Z</time>
      </trkpt>
      <trkpt lat="43.60576" lon="6.08462">
        <ele>421.2</ele>
        <time>2021-02-19T13:06:03Z</time>
      </trkpt>
      <trkpt lat="43.60571" lon="6.08456">
        <ele>421.2</ele>
        <time>2021-02-19T13:06:04Z</time>
      </trkpt>
      <trkpt lat="43.60566" lon="6.0845">
        <ele>421</ele>
        <time>2021-02-19T13:06:05Z</time>
      </trkpt>
      <trkpt lat="43.60561" lon="6.08444">
        <ele>420.8</ele>
        <time>2021-02-19T13:06:06Z</time>
      </trkpt>
      <trkpt lat="43.60557" lon="6.08439">
        <ele>420.6</ele>
        <time>2021-02-19T13:06:07Z</time>
      </trkpt>
      <trkpt lat="43.60553" lon="6.08434">
        <ele>420.4</ele>
        <time>2021-02-19T13:06:08Z</time>
      </trkpt>
      <trkpt lat="43.60548" lon="6.08429">
        <ele>420.2</ele>
        <time>2021-02-19T13:06:09Z</time>
      </trkpt>
      <trkpt lat="43.60544" lon="6.08424">
        <ele>420</ele>
        <time>2021-02-19T13:06:10Z</time>
      </trkpt>
      <trkpt lat="43.60541" lon="6.08418">
        <ele>419.8</ele>
        <time>2021-02-19T13:06:11Z</time>
      </trkpt>
      <trkpt lat="43.60537" lon="6.08413">
        <ele>419.8</ele>
        <time>2021-02-19T13:06:12Z</time>
      </trkpt>
      <trkpt lat="43.60533" lon="6.08408">
        <ele>419.8</ele>
        <time>2021-02-19T13:06:13Z</time>
      </trkpt>
      <trkpt lat="43.60529" lon="6.08402">
        <ele>419.8</ele>
        <time>2021-02-19T13:06:14Z</time>
      </trkpt>
      <trkpt lat="43.60526" lon="6.08397">
        <ele>420.2</ele>
        <time>2021-02-19T13:06:15Z</time>
      </trkpt>
      <trkpt lat="43.60522" lon="6.0839">
        <ele>420.2</ele>
        <time>2021-02-19T13:06:16Z</time>
      </trkpt>
      <trkpt lat="43.60519" lon="6.08384">
        <ele>420.4</ele>
        <time>2021-02-19T13:06:17Z</time>
      </trkpt>
      <trkpt lat="43.60517" lon="6.08377">
        <ele>420.4</ele>
        <time>2021-02-19T13:06:18Z</time>
      </trkpt>
      <trkpt lat="43.60514" lon="6.08371">
        <ele>420.4</ele>
        <time>2021-02-19T13:06:19Z</time>
      </trkpt>
      <trkpt lat="43.60511" lon="6.08364">
        <ele>420.6</ele>
        <time>2021-02-19T13:06:20Z</time>
      </trkpt>
      <trkpt lat="43.60509" lon="6.08358">
        <ele>420.6</ele>
        <time>2021-02-19T13:06:21Z</time>
      </trkpt>
      <trkpt lat="43.60506" lon="6.08352">
        <ele>420.6</ele>
        <time>2021-02-19T13:06:22Z</time>
      </trkpt>
      <trkpt lat="43.60503" lon="6.08345">
        <ele>420.6</ele>
        <time>2021-02-19T13:06:23Z</time>
      </trkpt>
      <trkpt lat="43.605" lon="6.0834">
        <ele>420.8</ele>
        <time>2021-02-19T13:06:24Z</time>
      </trkpt>
      <trkpt lat="43.60496" lon="6.08335">
        <ele>420.8</ele>
        <time>2021-02-19T13:06:25Z</time>
      </trkpt>
      <trkpt lat="43.60493" lon="6.0833">
        <ele>420.8</ele>
        <time>2021-02-19T13:06:26Z</time>
      </trkpt>
      <trkpt lat="43.6049" lon="6.08326">
        <ele>421</ele>
        <time>2021-02-19T13:06:27Z</time>
      </trkpt>
      <trkpt lat="43.60487" lon="6.08322">
        <ele>421</ele>
        <time>2021-02-19T13:06:28Z</time>
      </trkpt>
      <trkpt lat="43.60485" lon="6.08318">
        <ele>421</ele>
        <time>2021-02-19T13:06:29Z</time>
      </trkpt>
      <trkpt lat="43.60483" lon="6.08314">
        <ele>420.8</ele>
        <time>2021-02-19T13:06:30Z</time>
      </trkpt>
      <trkpt lat="43.60481" lon="6.0831">
        <ele>420.8</ele>
        <time>2021-02-19T13:06:31Z</time>
      </trkpt>
      <trkpt lat="43.60478" lon="6.08306">
        <ele>420.8</ele>
        <time>2021-02-19T13:06:32Z</time>
      </trkpt>
      <trkpt lat="43.60476" lon="6.08302">
        <ele>420.8</ele>
        <time>2021-02-19T13:06:33Z</time>
      </trkpt>
      <trkpt lat="43.60474" lon="6.08298">
        <ele>420.6</ele>
        <time>2021-02-19T13:06:34Z</time>
      </trkpt>
      <trkpt lat="43.60471" lon="6.08294">
        <ele>420.6</ele>
        <time>2021-02-19T13:06:35Z</time>
      </trkpt>
      <trkpt lat="43.60468" lon="6.0829">
        <ele>420.6</ele>
        <time>2021-02-19T13:06:36Z</time>
      </trkpt>
      <trkpt lat="43.60465" lon="6.08286">
        <ele>420.2</ele>
        <time>2021-02-19T13:06:37Z</time>
      </trkpt>
      <trkpt lat="43.60462" lon="6.08281">
        <ele>420</ele>
        <time>2021-02-19T13:06:38Z</time>
      </trkpt>
      <trkpt lat="43.60459" lon="6.08277">
        <ele>419.8</ele>
        <time>2021-02-19T13:06:39Z</time>
      </trkpt>
      <trkpt lat="43.60456" lon="6.08272">
        <ele>419.6</ele>
        <time>2021-02-19T13:06:40Z</time>
      </trkpt>
      <trkpt lat="43.60453" lon="6.08268">
        <ele>419.4</ele>
        <time>2021-02-19T13:06:41Z</time>
      </trkpt>
      <trkpt lat="43.60451" lon="6.08263">
        <ele>419.2</ele>
        <time>2021-02-19T13:06:42Z</time>
      </trkpt>
      <trkpt lat="43.60448" lon="6.08257">
        <ele>419</ele>
        <time>2021-02-19T13:06:43Z</time>
      </trkpt>
      <trkpt lat="43.60444" lon="6.08253">
        <ele>418.8</ele>
        <time>2021-02-19T13:06:44Z</time>
      </trkpt>
      <trkpt lat="43.60441" lon="6.08248">
        <ele>418.6</ele>
        <time>2021-02-19T13:06:45Z</time>
      </trkpt>
      <trkpt lat="43.60437" lon="6.08243">
        <ele>418.2</ele>
        <time>2021-02-19T13:06:46Z</time>
      </trkpt>
      <trkpt lat="43.60433" lon="6.08239">
        <ele>417.8</ele>
        <time>2021-02-19T13:06:47Z</time>
      </trkpt>
      <trkpt lat="43.60429" lon="6.08234">
        <ele>417</ele>
        <time>2021-02-19T13:06:48Z</time>
      </trkpt>
      <trkpt lat="43.60426" lon="6.0823">
        <ele>416.6</ele>
        <time>2021-02-19T13:06:49Z</time>
      </trkpt>
      <trkpt lat="43.60422" lon="6.08226">
        <ele>416</ele>
        <time>2021-02-19T13:06:50Z</time>
      </trkpt>
      <trkpt lat="43.60418" lon="6.08222">
        <ele>415.8</ele>
        <time>2021-02-19T13:06:51Z</time>
      </trkpt>
      <trkpt lat="43.60414" lon="6.08219">
        <ele>415.6</ele>
        <time>2021-02-19T13:06:52Z</time>
      </trkpt>
      <trkpt lat="43.60409" lon="6.08215">
        <ele>415.6</ele>
        <time>2021-02-19T13:06:53Z</time>
      </trkpt>
      <trkpt lat="43.60405" lon="6.08212">
        <ele>415.6</ele>
        <time>2021-02-19T13:06:54Z</time>
      </trkpt>
      <trkpt lat="43.60401" lon="6.08209">
        <ele>416</ele>
        <time>2021-02-19T13:06:55Z</time>
      </trkpt>
      <trkpt lat="43.60397" lon="6.08207">
        <ele>416</ele>
        <time>2021-02-19T13:06:56Z</time>
      </trkpt>
      <trkpt lat="43.60393" lon="6.08204">
        <ele>416.6</ele>
        <time>2021-02-19T13:06:57Z</time>
      </trkpt>
      <trkpt lat="43.60391" lon="6.08202">
        <ele>417.2</ele>
        <time>2021-02-19T13:06:58Z</time>
      </trkpt>
      <trkpt lat="43.60387" lon="6.08201">
        <ele>417.6</ele>
        <time>2021-02-19T13:06:59Z</time>
      </trkpt>
      <trkpt lat="43.60383" lon="6.08199">
        <ele>417.8</ele>
        <time>2021-02-19T13:07:00Z</time>
      </trkpt>
      <trkpt lat="43.60378" lon="6.08197">
        <ele>418.2</ele>
        <time>2021-02-19T13:07:01Z</time>
      </trkpt>
      <trkpt lat="43.60374" lon="6.08195">
        <ele>418.6</ele>
        <time>2021-02-19T13:07:02Z</time>
      </trkpt>
      <trkpt lat="43.60371" lon="6.08193">
        <ele>418.8</ele>
        <time>2021-02-19T13:07:03Z</time>
      </trkpt>
      <trkpt lat="43.60368" lon="6.0819">
        <ele>418.8</ele>
        <time>2021-02-19T13:07:04Z</time>
      </trkpt>
      <trkpt lat="43.60366" lon="6.08186">
        <ele>418.8</ele>
        <time>2021-02-19T13:07:05Z</time>
      </trkpt>
      <trkpt lat="43.60365" lon="6.08182">
        <ele>418.8</ele>
        <time>2021-02-19T13:07:06Z</time>
      </trkpt>
      <trkpt lat="43.60365" lon="6.08177">
        <ele>418.6</ele>
        <time>2021-02-19T13:07:07Z</time>
      </trkpt>
      <trkpt lat="43.60365" lon="6.08172">
        <ele>418.6</ele>
        <time>2021-02-19T13:07:08Z</time>
      </trkpt>
      <trkpt lat="43.60364" lon="6.08166">
        <ele>418.6</ele>
        <time>2021-02-19T13:07:09Z</time>
      </trkpt>
      <trkpt lat="43.60363" lon="6.08159">
        <ele>418.8</ele>
        <time>2021-02-19T13:07:10Z</time>
      </trkpt>
      <trkpt lat="43.60362" lon="6.08152">
        <ele>419</ele>
        <time>2021-02-19T13:07:11Z</time>
      </trkpt>
      <trkpt lat="43.60361" lon="6.08145">
        <ele>419</ele>
        <time>2021-02-19T13:07:12Z</time>
      </trkpt>
      <trkpt lat="43.60361" lon="6.08137">
        <ele>419.2</ele>
        <time>2021-02-19T13:07:13Z</time>
      </trkpt>
      <trkpt lat="43.6036" lon="6.08129">
        <ele>419.2</ele>
        <time>2021-02-19T13:07:14Z</time>
      </trkpt>
      <trkpt lat="43.60359" lon="6.08122">
        <ele>419.2</ele>
        <time>2021-02-19T13:07:15Z</time>
      </trkpt>
      <trkpt lat="43.60358" lon="6.08114">
        <ele>419.2</ele>
        <time>2021-02-19T13:07:16Z</time>
      </trkpt>
      <trkpt lat="43.60357" lon="6.08106">
        <ele>419.2</ele>
        <time>2021-02-19T13:07:17Z</time>
      </trkpt>
      <trkpt lat="43.60357" lon="6.08098">
        <ele>419</ele>
        <time>2021-02-19T13:07:18Z</time>
      </trkpt>
      <trkpt lat="43.60356" lon="6.0809">
        <ele>419</ele>
        <time>2021-02-19T13:07:19Z</time>
      </trkpt>
      <trkpt lat="43.60355" lon="6.08082">
        <ele>419.2</ele>
        <time>2021-02-19T13:07:20Z</time>
      </trkpt>
      <trkpt lat="43.60354" lon="6.08074">
        <ele>419.6</ele>
        <time>2021-02-19T13:07:21Z</time>
      </trkpt>
      <trkpt lat="43.60353" lon="6.08066">
        <ele>419.6</ele>
        <time>2021-02-19T13:07:22Z</time>
      </trkpt>
      <trkpt lat="43.60353" lon="6.08058">
        <ele>419.8</ele>
        <time>2021-02-19T13:07:23Z</time>
      </trkpt>
      <trkpt lat="43.60352" lon="6.0805">
        <ele>419.6</ele>
        <time>2021-02-19T13:07:24Z</time>
      </trkpt>
      <trkpt lat="43.60351" lon="6.08042">
        <ele>419.8</ele>
        <time>2021-02-19T13:07:25Z</time>
      </trkpt>
      <trkpt lat="43.6035" lon="6.08034">
        <ele>419.8</ele>
        <time>2021-02-19T13:07:26Z</time>
      </trkpt>
      <trkpt lat="43.60349" lon="6.08026">
        <ele>419.8</ele>
        <time>2021-02-19T13:07:27Z</time>
      </trkpt>
      <trkpt lat="43.60348" lon="6.08018">
        <ele>419.8</ele>
        <time>2021-02-19T13:07:28Z</time>
      </trkpt>
      <trkpt lat="43.60348" lon="6.08011">
        <ele>420</ele>
        <time>2021-02-19T13:07:29Z</time>
      </trkpt>
      <trkpt lat="43.60347" lon="6.08003">
        <ele>420</ele>
        <time>2021-02-19T13:07:30Z</time>
      </trkpt>
      <trkpt lat="43.60346" lon="6.07995">
        <ele>420</ele>
        <time>2021-02-19T13:07:31Z</time>
      </trkpt>
      <trkpt lat="43.60345" lon="6.07988">
        <ele>420</ele>
        <time>2021-02-19T13:07:32Z</time>
      </trkpt>
      <trkpt lat="43.60345" lon="6.0798">
        <ele>420</ele>
        <time>2021-02-19T13:07:33Z</time>
      </trkpt>
      <trkpt lat="43.60344" lon="6.07973">
        <ele>420</ele>
        <time>2021-02-19T13:07:34Z</time>
      </trkpt>
      <trkpt lat="43.60343" lon="6.07965">
        <ele>420</ele>
        <time>2021-02-19T13:07:35Z</time>
      </trkpt>
      <trkpt lat="43.60342" lon="6.07958">
        <ele>420.2</ele>
        <time>2021-02-19T13:07:36Z</time>
      </trkpt>
      <trkpt lat="43.60342" lon="6.0795">
        <ele>420.4</ele>
        <time>2021-02-19T13:07:37Z</time>
      </trkpt>
      <trkpt lat="43.60341" lon="6.07943">
        <ele>420.6</ele>
        <time>2021-02-19T13:07:38Z</time>
      </trkpt>
      <trkpt lat="43.6034" lon="6.07935">
        <ele>420.8</ele>
        <time>2021-02-19T13:07:39Z</time>
      </trkpt>
      <trkpt lat="43.60339" lon="6.07928">
        <ele>420.8</ele>
        <time>2021-02-19T13:07:40Z</time>
      </trkpt>
      <trkpt lat="43.60339" lon="6.0792">
        <ele>421.4</ele>
        <time>2021-02-19T13:07:41Z</time>
      </trkpt>
      <trkpt lat="43.60338" lon="6.07913">
        <ele>421.2</ele>
        <time>2021-02-19T13:07:42Z</time>
      </trkpt>
      <trkpt lat="43.60337" lon="6.07905">
        <ele>421.6</ele>
        <time>2021-02-19T13:07:43Z</time>
      </trkpt>
      <trkpt lat="43.60337" lon="6.07898">
        <ele>421.6</ele>
        <time>2021-02-19T13:07:44Z</time>
      </trkpt>
      <trkpt lat="43.60336" lon="6.07891">
        <ele>421.6</ele>
        <time>2021-02-19T13:07:45Z</time>
      </trkpt>
      <trkpt lat="43.60335" lon="6.07884">
        <ele>421.8</ele>
        <time>2021-02-19T13:07:46Z</time>
      </trkpt>
      <trkpt lat="43.60335" lon="6.07877">
        <ele>422</ele>
        <time>2021-02-19T13:07:47Z</time>
      </trkpt>
      <trkpt lat="43.60334" lon="6.0787">
        <ele>422.2</ele>
        <time>2021-02-19T13:07:48Z</time>
      </trkpt>
      <trkpt lat="43.60334" lon="6.07864">
        <ele>422.2</ele>
        <time>2021-02-19T13:07:49Z</time>
      </trkpt>
      <trkpt lat="43.60332" lon="6.07859">
        <ele>422.4</ele>
        <time>2021-02-19T13:07:50Z</time>
      </trkpt>
      <trkpt lat="43.60329" lon="6.07857">
        <ele>422.4</ele>
        <time>2021-02-19T13:07:51Z</time>
      </trkpt>
      <trkpt lat="43.60326" lon="6.07856">
        <ele>422.4</ele>
        <time>2021-02-19T13:07:52Z</time>
      </trkpt>
      <trkpt lat="43.60324" lon="6.07857">
        <ele>422.6</ele>
        <time>2021-02-19T13:07:53Z</time>
      </trkpt>
      <trkpt lat="43.60321" lon="6.07858">
        <ele>422.8</ele>
        <time>2021-02-19T13:07:54Z</time>
      </trkpt>
      <trkpt lat="43.60319" lon="6.07859">
        <ele>423</ele>
        <time>2021-02-19T13:07:55Z</time>
      </trkpt>
      <trkpt lat="43.60316" lon="6.0786">
        <ele>423</ele>
        <time>2021-02-19T13:07:56Z</time>
      </trkpt>
      <trkpt lat="43.60314" lon="6.07861">
        <ele>423.2</ele>
        <time>2021-02-19T13:07:57Z</time>
      </trkpt>
      <trkpt lat="43.60312" lon="6.07862">
        <ele>423.2</ele>
        <time>2021-02-19T13:07:58Z</time>
      </trkpt>
      <trkpt lat="43.60309" lon="6.07862">
        <ele>423.2</ele>
        <time>2021-02-19T13:07:59Z</time>
      </trkpt>
      <trkpt lat="43.60306" lon="6.07862">
        <ele>423</ele>
        <time>2021-02-19T13:08:00Z</time>
      </trkpt>
      <trkpt lat="43.60304" lon="6.07862">
        <ele>422.8</ele>
        <time>2021-02-19T13:08:01Z</time>
      </trkpt>
      <trkpt lat="43.60303" lon="6.0786">
        <ele>422.6</ele>
        <time>2021-02-19T13:08:02Z</time>
      </trkpt>
      <trkpt lat="43.60302" lon="6.07858">
        <ele>422.2</ele>
        <time>2021-02-19T13:08:03Z</time>
      </trkpt>
      <trkpt lat="43.60303" lon="6.07855">
        <ele>422.2</ele>
        <time>2021-02-19T13:08:04Z</time>
      </trkpt>
      <trkpt lat="43.60305" lon="6.07854">
        <ele>422.2</ele>
        <time>2021-02-19T13:08:05Z</time>
      </trkpt>
      <trkpt lat="43.60307" lon="6.07853">
        <ele>422.2</ele>
        <time>2021-02-19T13:08:06Z</time>
      </trkpt>
      <trkpt lat="43.60311" lon="6.07854">
        <ele>422.4</ele>
        <time>2021-02-19T13:08:07Z</time>
      </trkpt>
      <trkpt lat="43.60315" lon="6.07853">
        <ele>422.6</ele>
        <time>2021-02-19T13:08:08Z</time>
      </trkpt>
      <trkpt lat="43.60318" lon="6.07852">
        <ele>422.8</ele>
        <time>2021-02-19T13:08:09Z</time>
      </trkpt>
      <trkpt lat="43.6032" lon="6.07849">
        <ele>423</ele>
        <time>2021-02-19T13:08:10Z</time>
      </trkpt>
      <trkpt lat="43.6032" lon="6.07845">
        <ele>423</ele>
        <time>2021-02-19T13:08:11Z</time>
      </trkpt>
      <trkpt lat="43.60319" lon="6.07841">
        <ele>423.4</ele>
        <time>2021-02-19T13:08:12Z</time>
      </trkpt>
      <trkpt lat="43.60318" lon="6.07837">
        <ele>423.4</ele>
        <time>2021-02-19T13:08:13Z</time>
      </trkpt>
      <trkpt lat="43.60316" lon="6.07832">
        <ele>423.6</ele>
        <time>2021-02-19T13:08:14Z</time>
      </trkpt>
      <trkpt lat="43.60315" lon="6.07826">
        <ele>423.8</ele>
        <time>2021-02-19T13:08:15Z</time>
      </trkpt>
      <trkpt lat="43.60314" lon="6.0782">
        <ele>424.2</ele>
        <time>2021-02-19T13:08:16Z</time>
      </trkpt>
      <trkpt lat="43.60313" lon="6.07815">
        <ele>424.4</ele>
        <time>2021-02-19T13:08:17Z</time>
      </trkpt>
      <trkpt lat="43.60311" lon="6.07809">
        <ele>424.4</ele>
        <time>2021-02-19T13:08:18Z</time>
      </trkpt>
      <trkpt lat="43.6031" lon="6.07803">
        <ele>424.8</ele>
        <time>2021-02-19T13:08:19Z</time>
      </trkpt>
      <trkpt lat="43.60309" lon="6.07797">
        <ele>424.8</ele>
        <time>2021-02-19T13:08:20Z</time>
      </trkpt>
      <trkpt lat="43.60308" lon="6.07791">
        <ele>424.8</ele>
        <time>2021-02-19T13:08:21Z</time>
      </trkpt>
      <trkpt lat="43.60306" lon="6.07786">
        <ele>425</ele>
        <time>2021-02-19T13:08:22Z</time>
      </trkpt>
      <trkpt lat="43.60305" lon="6.0778">
        <ele>425</ele>
        <time>2021-02-19T13:08:23Z</time>
      </trkpt>
      <trkpt lat="43.60304" lon="6.07774">
        <ele>425.2</ele>
        <time>2021-02-19T13:08:24Z</time>
      </trkpt>
      <trkpt lat="43.60302" lon="6.07767">
        <ele>425.2</ele>
        <time>2021-02-19T13:08:25Z</time>
      </trkpt>
      <trkpt lat="43.60301" lon="6.07761">
        <ele>425.4</ele>
        <time>2021-02-19T13:08:26Z</time>
      </trkpt>
      <trkpt lat="43.60299" lon="6.07756">
        <ele>425.6</ele>
        <time>2021-02-19T13:08:27Z</time>
      </trkpt>
      <trkpt lat="43.60298" lon="6.0775">
        <ele>426</ele>
        <time>2021-02-19T13:08:28Z</time>
      </trkpt>
      <trkpt lat="43.60297" lon="6.07744">
        <ele>426</ele>
        <time>2021-02-19T13:08:29Z</time>
      </trkpt>
      <trkpt lat="43.60296" lon="6.07739">
        <ele>426.2</ele>
        <time>2021-02-19T13:08:30Z</time>
      </trkpt>
      <trkpt lat="43.60296" lon="6.07734">
        <ele>426.4</ele>
        <time>2021-02-19T13:08:31Z</time>
      </trkpt>
      <trkpt lat="43.60297" lon="6.07729">
        <ele>426.4</ele>
        <time>2021-02-19T13:08:32Z</time>
      </trkpt>
      <trkpt lat="43.60299" lon="6.07726">
        <ele>426.4</ele>
        <time>2021-02-19T13:08:33Z</time>
      </trkpt>
      <trkpt lat="43.603" lon="6.07722">
        <ele>426.6</ele>
        <time>2021-02-19T13:08:34Z</time>
      </trkpt>
      <trkpt lat="43.60299" lon="6.07719">
        <ele>426.8</ele>
        <time>2021-02-19T13:08:35Z</time>
      </trkpt>
      <trkpt lat="43.60299" lon="6.07715">
        <ele>427</ele>
        <time>2021-02-19T13:08:36Z</time>
      </trkpt>
      <trkpt lat="43.60297" lon="6.07711">
        <ele>427.2</ele>
        <time>2021-02-19T13:08:37Z</time>
      </trkpt>
      <trkpt lat="43.60296" lon="6.07705">
        <ele>427.2</ele>
        <time>2021-02-19T13:08:38Z</time>
      </trkpt>
      <trkpt lat="43.60294" lon="6.077">
        <ele>427.4</ele>
        <time>2021-02-19T13:08:39Z</time>
      </trkpt>
      <trkpt lat="43.60292" lon="6.07694">
        <ele>427.4</ele>
        <time>2021-02-19T13:08:40Z</time>
      </trkpt>
      <trkpt lat="43.6029" lon="6.07689">
        <ele>427.6</ele>
        <time>2021-02-19T13:08:41Z</time>
      </trkpt>
      <trkpt lat="43.60289" lon="6.07683">
        <ele>427.8</ele>
        <time>2021-02-19T13:08:42Z</time>
      </trkpt>
      <trkpt lat="43.60287" lon="6.07677">
        <ele>428</ele>
        <time>2021-02-19T13:08:43Z</time>
      </trkpt>
      <trkpt lat="43.60285" lon="6.07672">
        <ele>428</ele>
        <time>2021-02-19T13:08:44Z</time>
      </trkpt>
      <trkpt lat="43.60284" lon="6.07666">
        <ele>428.2</ele>
        <time>2021-02-19T13:08:45Z</time>
      </trkpt>
      <trkpt lat="43.60282" lon="6.07661">
        <ele>428.6</ele>
        <time>2021-02-19T13:08:46Z</time>
      </trkpt>
      <trkpt lat="43.60281" lon="6.07655">
        <ele>429.2</ele>
        <time>2021-02-19T13:08:47Z</time>
      </trkpt>
      <trkpt lat="43.60279" lon="6.07649">
        <ele>429.4</ele>
        <time>2021-02-19T13:08:48Z</time>
      </trkpt>
      <trkpt lat="43.60277" lon="6.07643">
        <ele>429.6</ele>
        <time>2021-02-19T13:08:49Z</time>
      </trkpt>
      <trkpt lat="43.60275" lon="6.07638">
        <ele>429.8</ele>
        <time>2021-02-19T13:08:50Z</time>
      </trkpt>
      <trkpt lat="43.60273" lon="6.07633">
        <ele>430.2</ele>
        <time>2021-02-19T13:08:51Z</time>
      </trkpt>
      <trkpt lat="43.60272" lon="6.07627">
        <ele>430.4</ele>
        <time>2021-02-19T13:08:52Z</time>
      </trkpt>
      <trkpt lat="43.60269" lon="6.07622">
        <ele>430.8</ele>
        <time>2021-02-19T13:08:53Z</time>
      </trkpt>
      <trkpt lat="43.60267" lon="6.07617">
        <ele>431</ele>
        <time>2021-02-19T13:08:54Z</time>
      </trkpt>
      <trkpt lat="43.60266" lon="6.07612">
        <ele>431.4</ele>
        <time>2021-02-19T13:08:55Z</time>
      </trkpt>
      <trkpt lat="43.60265" lon="6.07607">
        <ele>431.8</ele>
        <time>2021-02-19T13:08:56Z</time>
      </trkpt>
      <trkpt lat="43.60264" lon="6.07602">
        <ele>432.4</ele>
        <time>2021-02-19T13:08:57Z</time>
      </trkpt>
      <trkpt lat="43.60264" lon="6.07597">
        <ele>432.8</ele>
        <time>2021-02-19T13:08:58Z</time>
      </trkpt>
      <trkpt lat="43.60266" lon="6.07592">
        <ele>433.2</ele>
        <time>2021-02-19T13:08:59Z</time>
      </trkpt>
      <trkpt lat="43.60267" lon="6.07588">
        <ele>433.4</ele>
        <time>2021-02-19T13:09:00Z</time>
      </trkpt>
      <trkpt lat="43.6027" lon="6.07583">
        <ele>433.6</ele>
        <time>2021-02-19T13:09:01Z</time>
      </trkpt>
      <trkpt lat="43.60272" lon="6.07578">
        <ele>434.2</ele>
        <time>2021-02-19T13:09:02Z</time>
      </trkpt>
      <trkpt lat="43.60275" lon="6.07574">
        <ele>434.2</ele>
        <time>2021-02-19T13:09:03Z</time>
      </trkpt>
      <trkpt lat="43.60277" lon="6.07569">
        <ele>434.4</ele>
        <time>2021-02-19T13:09:04Z</time>
      </trkpt>
      <trkpt lat="43.60278" lon="6.07564">
        <ele>434.8</ele>
        <time>2021-02-19T13:09:05Z</time>
      </trkpt>
      <trkpt lat="43.6028" lon="6.07559">
        <ele>435</ele>
        <time>2021-02-19T13:09:06Z</time>
      </trkpt>
      <trkpt lat="43.60282" lon="6.07554">
        <ele>435.2</ele>
        <time>2021-02-19T13:09:07Z</time>
      </trkpt>
      <trkpt lat="43.60284" lon="6.07551">
        <ele>435.4</ele>
        <time>2021-02-19T13:09:08Z</time>
      </trkpt>
      <trkpt lat="43.60286" lon="6.07548">
        <ele>435.8</ele>
        <time>2021-02-19T13:09:09Z</time>
      </trkpt>
      <trkpt lat="43.6029" lon="6.07544">
        <ele>436.2</ele>
        <time>2021-02-19T13:09:10Z</time>
      </trkpt>
      <trkpt lat="43.60293" lon="6.07542">
        <ele>436.4</ele>
        <time>2021-02-19T13:09:11Z</time>
      </trkpt>
      <trkpt lat="43.60296" lon="6.07539">
        <ele>436.6</ele>
        <time>2021-02-19T13:09:12Z</time>
      </trkpt>
      <trkpt lat="43.603" lon="6.07536">
        <ele>436.8</ele>
        <time>2021-02-19T13:09:13Z</time>
      </trkpt>
      <trkpt lat="43.60303" lon="6.07533">
        <ele>436.8</ele>
        <time>2021-02-19T13:09:14Z</time>
      </trkpt>
      <trkpt lat="43.60305" lon="6.07529">
        <ele>436.8</ele>
        <time>2021-02-19T13:09:15Z</time>
      </trkpt>
      <trkpt lat="43.60306" lon="6.07524">
        <ele>436.8</ele>
        <time>2021-02-19T13:09:16Z</time>
      </trkpt>
      <trkpt lat="43.60306" lon="6.07519">
        <ele>437</ele>
        <time>2021-02-19T13:09:17Z</time>
      </trkpt>
      <trkpt lat="43.60304" lon="6.07515">
        <ele>437.2</ele>
        <time>2021-02-19T13:09:18Z</time>
      </trkpt>
      <trkpt lat="43.60301" lon="6.07514">
        <ele>437.4</ele>
        <time>2021-02-19T13:09:19Z</time>
      </trkpt>
      <trkpt lat="43.60298" lon="6.07514">
        <ele>437.6</ele>
        <time>2021-02-19T13:09:20Z</time>
      </trkpt>
      <trkpt lat="43.60295" lon="6.07516">
        <ele>438</ele>
        <time>2021-02-19T13:09:21Z</time>
      </trkpt>
      <trkpt lat="43.60292" lon="6.07519">
        <ele>438.4</ele>
        <time>2021-02-19T13:09:22Z</time>
      </trkpt>
      <trkpt lat="43.60289" lon="6.07521">
        <ele>438.8</ele>
        <time>2021-02-19T13:09:23Z</time>
      </trkpt>
      <trkpt lat="43.60286" lon="6.07523">
        <ele>439</ele>
        <time>2021-02-19T13:09:24Z</time>
      </trkpt>
      <trkpt lat="43.60283" lon="6.07525">
        <ele>439</ele>
        <time>2021-02-19T13:09:25Z</time>
      </trkpt>
      <trkpt lat="43.6028" lon="6.07525">
        <ele>439.2</ele>
        <time>2021-02-19T13:09:26Z</time>
      </trkpt>
      <trkpt lat="43.60277" lon="6.07527">
        <ele>439.4</ele>
        <time>2021-02-19T13:09:27Z</time>
      </trkpt>
      <trkpt lat="43.60273" lon="6.07528">
        <ele>439.4</ele>
        <time>2021-02-19T13:09:28Z</time>
      </trkpt>
      <trkpt lat="43.6027" lon="6.07529">
        <ele>439.6</ele>
        <time>2021-02-19T13:09:29Z</time>
      </trkpt>
      <trkpt lat="43.60267" lon="6.07531">
        <ele>439.4</ele>
        <time>2021-02-19T13:09:30Z</time>
      </trkpt>
      <trkpt lat="43.60263" lon="6.07532">
        <ele>439.4</ele>
        <time>2021-02-19T13:09:31Z</time>
      </trkpt>
      <trkpt lat="43.6026" lon="6.07534">
        <ele>439.2</ele>
        <time>2021-02-19T13:09:32Z</time>
      </trkpt>
      <trkpt lat="43.60257" lon="6.07536">
        <ele>439.2</ele>
        <time>2021-02-19T13:09:33Z</time>
      </trkpt>
      <trkpt lat="43.60253" lon="6.07537">
        <ele>439</ele>
        <time>2021-02-19T13:09:34Z</time>
      </trkpt>
      <trkpt lat="43.60249" lon="6.07538">
        <ele>438.6</ele>
        <time>2021-02-19T13:09:35Z</time>
      </trkpt>
      <trkpt lat="43.60244" lon="6.0754">
        <ele>438.2</ele>
        <time>2021-02-19T13:09:36Z</time>
      </trkpt>
      <trkpt lat="43.6024" lon="6.07542">
        <ele>438</ele>
        <time>2021-02-19T13:09:37Z</time>
      </trkpt>
      <trkpt lat="43.60235" lon="6.07544">
        <ele>438</ele>
        <time>2021-02-19T13:09:38Z</time>
      </trkpt>
      <trkpt lat="43.60231" lon="6.07545">
        <ele>437.6</ele>
        <time>2021-02-19T13:09:39Z</time>
      </trkpt>
      <trkpt lat="43.60227" lon="6.07547">
        <ele>437.6</ele>
        <time>2021-02-19T13:09:40Z</time>
      </trkpt>
      <trkpt lat="43.60224" lon="6.07548">
        <ele>437.4</ele>
        <time>2021-02-19T13:09:41Z</time>
      </trkpt>
      <trkpt lat="43.60221" lon="6.07548">
        <ele>437.2</ele>
        <time>2021-02-19T13:09:42Z</time>
      </trkpt>
      <trkpt lat="43.60218" lon="6.07546">
        <ele>437</ele>
        <time>2021-02-19T13:09:43Z</time>
      </trkpt>
      <trkpt lat="43.60215" lon="6.07543">
        <ele>437</ele>
        <time>2021-02-19T13:09:44Z</time>
      </trkpt>
      <trkpt lat="43.60214" lon="6.07538">
        <ele>437</ele>
        <time>2021-02-19T13:09:45Z</time>
      </trkpt>
      <trkpt lat="43.60212" lon="6.07533">
        <ele>437.2</ele>
        <time>2021-02-19T13:09:46Z</time>
      </trkpt>
      <trkpt lat="43.60211" lon="6.07528">
        <ele>437.4</ele>
        <time>2021-02-19T13:09:47Z</time>
      </trkpt>
      <trkpt lat="43.6021" lon="6.07522">
        <ele>437.6</ele>
        <time>2021-02-19T13:09:48Z</time>
      </trkpt>
      <trkpt lat="43.60208" lon="6.07516">
        <ele>438</ele>
        <time>2021-02-19T13:09:49Z</time>
      </trkpt>
      <trkpt lat="43.60207" lon="6.0751">
        <ele>438.2</ele>
        <time>2021-02-19T13:09:50Z</time>
      </trkpt>
      <trkpt lat="43.60204" lon="6.07505">
        <ele>438.4</ele>
        <time>2021-02-19T13:09:51Z</time>
      </trkpt>
      <trkpt lat="43.60202" lon="6.07499">
        <ele>438.6</ele>
        <time>2021-02-19T13:09:52Z</time>
      </trkpt>
      <trkpt lat="43.60199" lon="6.07494">
        <ele>439</ele>
        <time>2021-02-19T13:09:53Z</time>
      </trkpt>
      <trkpt lat="43.60196" lon="6.07489">
        <ele>439.4</ele>
        <time>2021-02-19T13:09:54Z</time>
      </trkpt>
      <trkpt lat="43.60194" lon="6.07484">
        <ele>440</ele>
        <time>2021-02-19T13:09:55Z</time>
      </trkpt>
      <trkpt lat="43.60192" lon="6.07478">
        <ele>440.4</ele>
        <time>2021-02-19T13:09:56Z</time>
      </trkpt>
      <trkpt lat="43.60191" lon="6.07472">
        <ele>440.8</ele>
        <time>2021-02-19T13:09:57Z</time>
      </trkpt>
      <trkpt lat="43.60189" lon="6.07466">
        <ele>441.4</ele>
        <time>2021-02-19T13:09:58Z</time>
      </trkpt>
      <trkpt lat="43.60188" lon="6.0746">
        <ele>441.6</ele>
        <time>2021-02-19T13:09:59Z</time>
      </trkpt>
      <trkpt lat="43.60186" lon="6.07454">
        <ele>441.8</ele>
        <time>2021-02-19T13:10:00Z</time>
      </trkpt>
      <trkpt lat="43.60184" lon="6.07448">
        <ele>442</ele>
        <time>2021-02-19T13:10:01Z</time>
      </trkpt>
      <trkpt lat="43.60182" lon="6.07443">
        <ele>442</ele>
        <time>2021-02-19T13:10:02Z</time>
      </trkpt>
      <trkpt lat="43.6018" lon="6.07437">
        <ele>442.2</ele>
        <time>2021-02-19T13:10:03Z</time>
      </trkpt>
      <trkpt lat="43.60178" lon="6.07432">
        <ele>442.6</ele>
        <time>2021-02-19T13:10:04Z</time>
      </trkpt>
      <trkpt lat="43.60177" lon="6.07426">
        <ele>442.8</ele>
        <time>2021-02-19T13:10:05Z</time>
      </trkpt>
      <trkpt lat="43.60175" lon="6.07421">
        <ele>443</ele>
        <time>2021-02-19T13:10:06Z</time>
      </trkpt>
      <trkpt lat="43.60174" lon="6.07416">
        <ele>443.4</ele>
        <time>2021-02-19T13:10:07Z</time>
      </trkpt>
      <trkpt lat="43.60172" lon="6.07411">
        <ele>443.8</ele>
        <time>2021-02-19T13:10:08Z</time>
      </trkpt>
      <trkpt lat="43.60171" lon="6.07405">
        <ele>444</ele>
        <time>2021-02-19T13:10:09Z</time>
      </trkpt>
      <trkpt lat="43.60169" lon="6.074">
        <ele>444</ele>
        <time>2021-02-19T13:10:10Z</time>
      </trkpt>
      <trkpt lat="43.60167" lon="6.07395">
        <ele>444.6</ele>
        <time>2021-02-19T13:10:11Z</time>
      </trkpt>
      <trkpt lat="43.60165" lon="6.0739">
        <ele>444.8</ele>
        <time>2021-02-19T13:10:12Z</time>
      </trkpt>
      <trkpt lat="43.60164" lon="6.07384">
        <ele>445</ele>
        <time>2021-02-19T13:10:13Z</time>
      </trkpt>
      <trkpt lat="43.60162" lon="6.07379">
        <ele>445.4</ele>
        <time>2021-02-19T13:10:14Z</time>
      </trkpt>
      <trkpt lat="43.60161" lon="6.07374">
        <ele>445.6</ele>
        <time>2021-02-19T13:10:15Z</time>
      </trkpt>
      <trkpt lat="43.60159" lon="6.07369">
        <ele>445.8</ele>
        <time>2021-02-19T13:10:16Z</time>
      </trkpt>
      <trkpt lat="43.60158" lon="6.07364">
        <ele>446.2</ele>
        <time>2021-02-19T13:10:17Z</time>
      </trkpt>
      <trkpt lat="43.60156" lon="6.07359">
        <ele>446.4</ele>
        <time>2021-02-19T13:10:18Z</time>
      </trkpt>
      <trkpt lat="43.60155" lon="6.07354">
        <ele>447</ele>
        <time>2021-02-19T13:10:19Z</time>
      </trkpt>
      <trkpt lat="43.60153" lon="6.0735">
        <ele>447.4</ele>
        <time>2021-02-19T13:10:20Z</time>
      </trkpt>
      <trkpt lat="43.60151" lon="6.07346">
        <ele>447.6</ele>
        <time>2021-02-19T13:10:21Z</time>
      </trkpt>
      <trkpt lat="43.60149" lon="6.07343">
        <ele>447.8</ele>
        <time>2021-02-19T13:10:22Z</time>
      </trkpt>
      <trkpt lat="43.60145" lon="6.07342">
        <ele>448</ele>
        <time>2021-02-19T13:10:23Z</time>
      </trkpt>
      <trkpt lat="43.60142" lon="6.07343">
        <ele>448.2</ele>
        <time>2021-02-19T13:10:24Z</time>
      </trkpt>
      <trkpt lat="43.60138" lon="6.07344">
        <ele>448.2</ele>
        <time>2021-02-19T13:10:25Z</time>
      </trkpt>
      <trkpt lat="43.60134" lon="6.07346">
        <ele>448.2</ele>
        <time>2021-02-19T13:10:26Z</time>
      </trkpt>
      <trkpt lat="43.60131" lon="6.07349">
        <ele>448.2</ele>
        <time>2021-02-19T13:10:27Z</time>
      </trkpt>
      <trkpt lat="43.60127" lon="6.07351">
        <ele>448.2</ele>
        <time>2021-02-19T13:10:28Z</time>
      </trkpt>
      <trkpt lat="43.60123" lon="6.07353">
        <ele>448.2</ele>
        <time>2021-02-19T13:10:29Z</time>
      </trkpt>
      <trkpt lat="43.6012" lon="6.07356">
        <ele>448.2</ele>
        <time>2021-02-19T13:10:30Z</time>
      </trkpt>
      <trkpt lat="43.60116" lon="6.07359">
        <ele>448.2</ele>
        <time>2021-02-19T13:10:31Z</time>
      </trkpt>
      <trkpt lat="43.60113" lon="6.07361">
        <ele>448.2</ele>
        <time>2021-02-19T13:10:32Z</time>
      </trkpt>
      <trkpt lat="43.60109" lon="6.07363">
        <ele>448.2</ele>
        <time>2021-02-19T13:10:33Z</time>
      </trkpt>
      <trkpt lat="43.60106" lon="6.07365">
        <ele>448.4</ele>
        <time>2021-02-19T13:10:34Z</time>
      </trkpt>
      <trkpt lat="43.60102" lon="6.07367">
        <ele>448.6</ele>
        <time>2021-02-19T13:10:35Z</time>
      </trkpt>
      <trkpt lat="43.60099" lon="6.07369">
        <ele>448.6</ele>
        <time>2021-02-19T13:10:36Z</time>
      </trkpt>
      <trkpt lat="43.60096" lon="6.07369">
        <ele>448.6</ele>
        <time>2021-02-19T13:10:37Z</time>
      </trkpt>
      <trkpt lat="43.60092" lon="6.07369">
        <ele>448.6</ele>
        <time>2021-02-19T13:10:38Z</time>
      </trkpt>
      <trkpt lat="43.60089" lon="6.07369">
        <ele>448.6</ele>
        <time>2021-02-19T13:10:39Z</time>
      </trkpt>
      <trkpt lat="43.60086" lon="6.07368">
        <ele>448.6</ele>
        <time>2021-02-19T13:10:40Z</time>
      </trkpt>
      <trkpt lat="43.60083" lon="6.07369">
        <ele>448.6</ele>
        <time>2021-02-19T13:10:41Z</time>
      </trkpt>
      <trkpt lat="43.6008" lon="6.07369">
        <ele>448.4</ele>
        <time>2021-02-19T13:10:42Z</time>
      </trkpt>
      <trkpt lat="43.60078" lon="6.0737">
        <ele>448.4</ele>
        <time>2021-02-19T13:10:43Z</time>
      </trkpt>
      <trkpt lat="43.60075" lon="6.07371">
        <ele>448.4</ele>
        <time>2021-02-19T13:10:44Z</time>
      </trkpt>
      <trkpt lat="43.60072" lon="6.07372">
        <ele>448.2</ele>
        <time>2021-02-19T13:10:45Z</time>
      </trkpt>
      <trkpt lat="43.60069" lon="6.07374">
        <ele>448.2</ele>
        <time>2021-02-19T13:10:46Z</time>
      </trkpt>
      <trkpt lat="43.60067" lon="6.07375">
        <ele>448.2</ele>
        <time>2021-02-19T13:10:47Z</time>
      </trkpt>
      <trkpt lat="43.60065" lon="6.07376">
        <ele>448.4</ele>
        <time>2021-02-19T13:10:48Z</time>
      </trkpt>
      <trkpt lat="43.60062" lon="6.07375">
        <ele>448.4</ele>
        <time>2021-02-19T13:10:49Z</time>
      </trkpt>
      <trkpt lat="43.6006" lon="6.07374">
        <ele>448.6</ele>
        <time>2021-02-19T13:10:50Z</time>
      </trkpt>
      <trkpt lat="43.60059" lon="6.07372">
        <ele>449</ele>
        <time>2021-02-19T13:10:51Z</time>
      </trkpt>
      <trkpt lat="43.60058" lon="6.0737">
        <ele>449.2</ele>
        <time>2021-02-19T13:10:52Z</time>
      </trkpt>
      <trkpt lat="43.60058" lon="6.07368">
        <ele>449.6</ele>
        <time>2021-02-19T13:10:53Z</time>
      </trkpt>
      <trkpt lat="43.60059" lon="6.07365">
        <ele>449.8</ele>
        <time>2021-02-19T13:10:54Z</time>
      </trkpt>
      <trkpt lat="43.60059" lon="6.07362">
        <ele>450</ele>
        <time>2021-02-19T13:10:55Z</time>
      </trkpt>
      <trkpt lat="43.6006" lon="6.07359">
        <ele>450.4</ele>
        <time>2021-02-19T13:10:56Z</time>
      </trkpt>
      <trkpt lat="43.60061" lon="6.07356">
        <ele>450.6</ele>
        <time>2021-02-19T13:10:57Z</time>
      </trkpt>
      <trkpt lat="43.60062" lon="6.07352">
        <ele>450.8</ele>
        <time>2021-02-19T13:10:58Z</time>
      </trkpt>
      <trkpt lat="43.60063" lon="6.07347">
        <ele>451</ele>
        <time>2021-02-19T13:10:59Z</time>
      </trkpt>
      <trkpt lat="43.60063" lon="6.07343">
        <ele>451.2</ele>
        <time>2021-02-19T13:11:00Z</time>
      </trkpt>
      <trkpt lat="43.60062" lon="6.07338">
        <ele>451.2</ele>
        <time>2021-02-19T13:11:01Z</time>
      </trkpt>
      <trkpt lat="43.60062" lon="6.07334">
        <ele>451.6</ele>
        <time>2021-02-19T13:11:02Z</time>
      </trkpt>
      <trkpt lat="43.60061" lon="6.07328">
        <ele>452</ele>
        <time>2021-02-19T13:11:03Z</time>
      </trkpt>
      <trkpt lat="43.60061" lon="6.07323">
        <ele>452.2</ele>
        <time>2021-02-19T13:11:04Z</time>
      </trkpt>
      <trkpt lat="43.6006" lon="6.07318">
        <ele>452.6</ele>
        <time>2021-02-19T13:11:05Z</time>
      </trkpt>
      <trkpt lat="43.60059" lon="6.07312">
        <ele>452.8</ele>
        <time>2021-02-19T13:11:06Z</time>
      </trkpt>
      <trkpt lat="43.60058" lon="6.07307">
        <ele>453.4</ele>
        <time>2021-02-19T13:11:07Z</time>
      </trkpt>
      <trkpt lat="43.60057" lon="6.07302">
        <ele>453.6</ele>
        <time>2021-02-19T13:11:08Z</time>
      </trkpt>
      <trkpt lat="43.60057" lon="6.07297">
        <ele>454.2</ele>
        <time>2021-02-19T13:11:09Z</time>
      </trkpt>
      <trkpt lat="43.60057" lon="6.07292">
        <ele>454.8</ele>
        <time>2021-02-19T13:11:10Z</time>
      </trkpt>
      <trkpt lat="43.60058" lon="6.07287">
        <ele>455.2</ele>
        <time>2021-02-19T13:11:11Z</time>
      </trkpt>
      <trkpt lat="43.6006" lon="6.07282">
        <ele>455.4</ele>
        <time>2021-02-19T13:11:12Z</time>
      </trkpt>
      <trkpt lat="43.60062" lon="6.07278">
        <ele>455.6</ele>
        <time>2021-02-19T13:11:13Z</time>
      </trkpt>
      <trkpt lat="43.60063" lon="6.07274">
        <ele>456</ele>
        <time>2021-02-19T13:11:14Z</time>
      </trkpt>
      <trkpt lat="43.60064" lon="6.0727">
        <ele>456.8</ele>
        <time>2021-02-19T13:11:15Z</time>
      </trkpt>
      <trkpt lat="43.60065" lon="6.07266">
        <ele>457</ele>
        <time>2021-02-19T13:11:16Z</time>
      </trkpt>
      <trkpt lat="43.60064" lon="6.07262">
        <ele>457.4</ele>
        <time>2021-02-19T13:11:17Z</time>
      </trkpt>
      <trkpt lat="43.60063" lon="6.07258">
        <ele>457.6</ele>
        <time>2021-02-19T13:11:18Z</time>
      </trkpt>
      <trkpt lat="43.60063" lon="6.07254">
        <ele>457.8</ele>
        <time>2021-02-19T13:11:19Z</time>
      </trkpt>
      <trkpt lat="43.60062" lon="6.07249">
        <ele>458</ele>
        <time>2021-02-19T13:11:20Z</time>
      </trkpt>
      <trkpt lat="43.60061" lon="6.07245">
        <ele>458.2</ele>
        <time>2021-02-19T13:11:21Z</time>
      </trkpt>
      <trkpt lat="43.60061" lon="6.07242">
        <ele>458.6</ele>
        <time>2021-02-19T13:11:22Z</time>
      </trkpt>
      <trkpt lat="43.60062" lon="6.07238">
        <ele>459</ele>
        <time>2021-02-19T13:11:23Z</time>
      </trkpt>
      <trkpt lat="43.60063" lon="6.07234">
        <ele>459.6</ele>
        <time>2021-02-19T13:11:24Z</time>
      </trkpt>
      <trkpt lat="43.60064" lon="6.07231">
        <ele>460</ele>
        <time>2021-02-19T13:11:25Z</time>
      </trkpt>
      <trkpt lat="43.60065" lon="6.07228">
        <ele>460.4</ele>
        <time>2021-02-19T13:11:26Z</time>
      </trkpt>
      <trkpt lat="43.60066" lon="6.07226">
        <ele>461</ele>
        <time>2021-02-19T13:11:27Z</time>
      </trkpt>
      <trkpt lat="43.60068" lon="6.07222">
        <ele>461.4</ele>
        <time>2021-02-19T13:11:28Z</time>
      </trkpt>
      <trkpt lat="43.6007" lon="6.07218">
        <ele>462</ele>
        <time>2021-02-19T13:11:29Z</time>
      </trkpt>
      <trkpt lat="43.60071" lon="6.07214">
        <ele>462.4</ele>
        <time>2021-02-19T13:11:30Z</time>
      </trkpt>
      <trkpt lat="43.60071" lon="6.07209">
        <ele>462.8</ele>
        <time>2021-02-19T13:11:31Z</time>
      </trkpt>
      <trkpt lat="43.6007" lon="6.07205">
        <ele>463.2</ele>
        <time>2021-02-19T13:11:32Z</time>
      </trkpt>
      <trkpt lat="43.60069" lon="6.07202">
        <ele>463.6</ele>
        <time>2021-02-19T13:11:33Z</time>
      </trkpt>
      <trkpt lat="43.60067" lon="6.07199">
        <ele>463.8</ele>
        <time>2021-02-19T13:11:34Z</time>
      </trkpt>
      <trkpt lat="43.60064" lon="6.07196">
        <ele>464.2</ele>
        <time>2021-02-19T13:11:35Z</time>
      </trkpt>
      <trkpt lat="43.60061" lon="6.07194">
        <ele>464.6</ele>
        <time>2021-02-19T13:11:36Z</time>
      </trkpt>
      <trkpt lat="43.60059" lon="6.07191">
        <ele>464.8</ele>
        <time>2021-02-19T13:11:37Z</time>
      </trkpt>
      <trkpt lat="43.60057" lon="6.07188">
        <ele>465.4</ele>
        <time>2021-02-19T13:11:38Z</time>
      </trkpt>
      <trkpt lat="43.60055" lon="6.07184">
        <ele>466.2</ele>
        <time>2021-02-19T13:11:39Z</time>
      </trkpt>
      <trkpt lat="43.60053" lon="6.07181">
        <ele>466.6</ele>
        <time>2021-02-19T13:11:40Z</time>
      </trkpt>
      <trkpt lat="43.60051" lon="6.07178">
        <ele>467</ele>
        <time>2021-02-19T13:11:41Z</time>
      </trkpt>
      <trkpt lat="43.60049" lon="6.07174">
        <ele>467.2</ele>
        <time>2021-02-19T13:11:42Z</time>
      </trkpt>
      <trkpt lat="43.60048" lon="6.07169">
        <ele>467.8</ele>
        <time>2021-02-19T13:11:43Z</time>
      </trkpt>
      <trkpt lat="43.60047" lon="6.07165">
        <ele>468.2</ele>
        <time>2021-02-19T13:11:44Z</time>
      </trkpt>
      <trkpt lat="43.60046" lon="6.0716">
        <ele>468.6</ele>
        <time>2021-02-19T13:11:45Z</time>
      </trkpt>
      <trkpt lat="43.60045" lon="6.07156">
        <ele>469</ele>
        <time>2021-02-19T13:11:46Z</time>
      </trkpt>
      <trkpt lat="43.60043" lon="6.07152">
        <ele>469.6</ele>
        <time>2021-02-19T13:11:47Z</time>
      </trkpt>
      <trkpt lat="43.60042" lon="6.07148">
        <ele>470.2</ele>
        <time>2021-02-19T13:11:48Z</time>
      </trkpt>
      <trkpt lat="43.60041" lon="6.07143">
        <ele>470.6</ele>
        <time>2021-02-19T13:11:49Z</time>
      </trkpt>
      <trkpt lat="43.60039" lon="6.07139">
        <ele>471</ele>
        <time>2021-02-19T13:11:50Z</time>
      </trkpt>
      <trkpt lat="43.60038" lon="6.07135">
        <ele>471.4</ele>
        <time>2021-02-19T13:11:51Z</time>
      </trkpt>
      <trkpt lat="43.60037" lon="6.07131">
        <ele>471.8</ele>
        <time>2021-02-19T13:11:52Z</time>
      </trkpt>
      <trkpt lat="43.60035" lon="6.07127">
        <ele>472.4</ele>
        <time>2021-02-19T13:11:53Z</time>
      </trkpt>
      <trkpt lat="43.60034" lon="6.07123">
        <ele>473</ele>
        <time>2021-02-19T13:11:54Z</time>
      </trkpt>
      <trkpt lat="43.60032" lon="6.07118">
        <ele>473.4</ele>
        <time>2021-02-19T13:11:55Z</time>
      </trkpt>
      <trkpt lat="43.6003" lon="6.07114">
        <ele>474</ele>
        <time>2021-02-19T13:11:56Z</time>
      </trkpt>
      <trkpt lat="43.60029" lon="6.0711">
        <ele>474.8</ele>
        <time>2021-02-19T13:11:57Z</time>
      </trkpt>
      <trkpt lat="43.60027" lon="6.07106">
        <ele>475.2</ele>
        <time>2021-02-19T13:11:58Z</time>
      </trkpt>
      <trkpt lat="43.60027" lon="6.07101">
        <ele>475.6</ele>
        <time>2021-02-19T13:11:59Z</time>
      </trkpt>
      <trkpt lat="43.60027" lon="6.07097">
        <ele>475.8</ele>
        <time>2021-02-19T13:12:00Z</time>
      </trkpt>
      <trkpt lat="43.60028" lon="6.07093">
        <ele>476</ele>
        <time>2021-02-19T13:12:01Z</time>
      </trkpt>
      <trkpt lat="43.60029" lon="6.0709">
        <ele>476.4</ele>
        <time>2021-02-19T13:12:02Z</time>
      </trkpt>
      <trkpt lat="43.60029" lon="6.07086">
        <ele>476.8</ele>
        <time>2021-02-19T13:12:03Z</time>
      </trkpt>
      <trkpt lat="43.60028" lon="6.07083">
        <ele>477.2</ele>
        <time>2021-02-19T13:12:04Z</time>
      </trkpt>
      <trkpt lat="43.60027" lon="6.0708">
        <ele>477.4</ele>
        <time>2021-02-19T13:12:05Z</time>
      </trkpt>
      <trkpt lat="43.60026" lon="6.07077">
        <ele>477.6</ele>
        <time>2021-02-19T13:12:06Z</time>
      </trkpt>
      <trkpt lat="43.60024" lon="6.07075">
        <ele>477.8</ele>
        <time>2021-02-19T13:12:07Z</time>
      </trkpt>
      <trkpt lat="43.60023" lon="6.07073">
        <ele>478</ele>
        <time>2021-02-19T13:12:08Z</time>
      </trkpt>
      <trkpt lat="43.60022" lon="6.0707">
        <ele>478.4</ele>
        <time>2021-02-19T13:12:09Z</time>
      </trkpt>
      <trkpt lat="43.60022" lon="6.07066">
        <ele>478.8</ele>
        <time>2021-02-19T13:12:10Z</time>
      </trkpt>
      <trkpt lat="43.60021" lon="6.07062">
        <ele>479.6</ele>
        <time>2021-02-19T13:12:11Z</time>
      </trkpt>
      <trkpt lat="43.60021" lon="6.07059">
        <ele>480</ele>
        <time>2021-02-19T13:12:12Z</time>
      </trkpt>
      <trkpt lat="43.6002" lon="6.07056">
        <ele>480.2</ele>
        <time>2021-02-19T13:12:13Z</time>
      </trkpt>
      <trkpt lat="43.60019" lon="6.07053">
        <ele>480.4</ele>
        <time>2021-02-19T13:12:14Z</time>
      </trkpt>
      <trkpt lat="43.60017" lon="6.07051">
        <ele>480.6</ele>
        <time>2021-02-19T13:12:15Z</time>
      </trkpt>
      <trkpt lat="43.60017" lon="6.07048">
        <ele>480.8</ele>
        <time>2021-02-19T13:12:16Z</time>
      </trkpt>
      <trkpt lat="43.60016" lon="6.07045">
        <ele>481</ele>
        <time>2021-02-19T13:12:17Z</time>
      </trkpt>
      <trkpt lat="43.60015" lon="6.07043">
        <ele>481.4</ele>
        <time>2021-02-19T13:12:18Z</time>
      </trkpt>
      <trkpt lat="43.60013" lon="6.07041">
        <ele>481.8</ele>
        <time>2021-02-19T13:12:19Z</time>
      </trkpt>
      <trkpt lat="43.60012" lon="6.07038">
        <ele>482.2</ele>
        <time>2021-02-19T13:12:20Z</time>
      </trkpt>
      <trkpt lat="43.60012" lon="6.07036">
        <ele>482.4</ele>
        <time>2021-02-19T13:12:21Z</time>
      </trkpt>
      <trkpt lat="43.60011" lon="6.07034">
        <ele>482.8</ele>
        <time>2021-02-19T13:12:22Z</time>
      </trkpt>
      <trkpt lat="43.6001" lon="6.07032">
        <ele>483.2</ele>
        <time>2021-02-19T13:12:23Z</time>
      </trkpt>
      <trkpt lat="43.60009" lon="6.0703">
        <ele>483.6</ele>
        <time>2021-02-19T13:12:24Z</time>
      </trkpt>
      <trkpt lat="43.60008" lon="6.07028">
        <ele>483.8</ele>
        <time>2021-02-19T13:12:25Z</time>
      </trkpt>
      <trkpt lat="43.60008" lon="6.07026">
        <ele>484.2</ele>
        <time>2021-02-19T13:12:26Z</time>
      </trkpt>
      <trkpt lat="43.60006" lon="6.07023">
        <ele>484.4</ele>
        <time>2021-02-19T13:12:27Z</time>
      </trkpt>
      <trkpt lat="43.60006" lon="6.07021">
        <ele>484.8</ele>
        <time>2021-02-19T13:12:28Z</time>
      </trkpt>
      <trkpt lat="43.60004" lon="6.07018">
        <ele>485</ele>
        <time>2021-02-19T13:12:29Z</time>
      </trkpt>
      <trkpt lat="43.60004" lon="6.07015">
        <ele>485.4</ele>
        <time>2021-02-19T13:12:30Z</time>
      </trkpt>
      <trkpt lat="43.60003" lon="6.07012">
        <ele>485.6</ele>
        <time>2021-02-19T13:12:31Z</time>
      </trkpt>
      <trkpt lat="43.60002" lon="6.0701">
        <ele>485.8</ele>
        <time>2021-02-19T13:12:32Z</time>
      </trkpt>
      <trkpt lat="43.60001" lon="6.07007">
        <ele>486.2</ele>
        <time>2021-02-19T13:12:33Z</time>
      </trkpt>
      <trkpt lat="43.60001" lon="6.07005">
        <ele>486.6</ele>
        <time>2021-02-19T13:12:34Z</time>
      </trkpt>
      <trkpt lat="43.6" lon="6.07003">
        <ele>486.8</ele>
        <time>2021-02-19T13:12:35Z</time>
      </trkpt>
      <trkpt lat="43.59999" lon="6.07">
        <ele>487.6</ele>
        <time>2021-02-19T13:12:36Z</time>
      </trkpt>
      <trkpt lat="43.59999" lon="6.06998">
        <ele>488.2</ele>
        <time>2021-02-19T13:12:37Z</time>
      </trkpt>
      <trkpt lat="43.59997" lon="6.06994">
        <ele>488.4</ele>
        <time>2021-02-19T13:12:38Z</time>
      </trkpt>
      <trkpt lat="43.59997" lon="6.06991">
        <ele>488.8</ele>
        <time>2021-02-19T13:12:39Z</time>
      </trkpt>
      <trkpt lat="43.59996" lon="6.06989">
        <ele>489</ele>
        <time>2021-02-19T13:12:40Z</time>
      </trkpt>
      <trkpt lat="43.59996" lon="6.06986">
        <ele>489.4</ele>
        <time>2021-02-19T13:12:41Z</time>
      </trkpt>
      <trkpt lat="43.59996" lon="6.06984">
        <ele>489.8</ele>
        <time>2021-02-19T13:12:42Z</time>
      </trkpt>
      <trkpt lat="43.59994" lon="6.06981">
        <ele>490.4</ele>
        <time>2021-02-19T13:12:43Z</time>
      </trkpt>
      <trkpt lat="43.59994" lon="6.06978">
        <ele>490.6</ele>
        <time>2021-02-19T13:12:44Z</time>
      </trkpt>
      <trkpt lat="43.59993" lon="6.06975">
        <ele>490.8</ele>
        <time>2021-02-19T13:12:45Z</time>
      </trkpt>
      <trkpt lat="43.59993" lon="6.06971">
        <ele>491.2</ele>
        <time>2021-02-19T13:12:46Z</time>
      </trkpt>
      <trkpt lat="43.59991" lon="6.06967">
        <ele>491.4</ele>
        <time>2021-02-19T13:12:47Z</time>
      </trkpt>
      <trkpt lat="43.5999" lon="6.06963">
        <ele>491.6</ele>
        <time>2021-02-19T13:12:48Z</time>
      </trkpt>
      <trkpt lat="43.59988" lon="6.0696">
        <ele>492</ele>
        <time>2021-02-19T13:12:49Z</time>
      </trkpt>
      <trkpt lat="43.59987" lon="6.06956">
        <ele>492.2</ele>
        <time>2021-02-19T13:12:50Z</time>
      </trkpt>
      <trkpt lat="43.59986" lon="6.06952">
        <ele>492.8</ele>
        <time>2021-02-19T13:12:51Z</time>
      </trkpt>
      <trkpt lat="43.59984" lon="6.06948">
        <ele>493</ele>
        <time>2021-02-19T13:12:52Z</time>
      </trkpt>
      <trkpt lat="43.59982" lon="6.06944">
        <ele>493.4</ele>
        <time>2021-02-19T13:12:53Z</time>
      </trkpt>
      <trkpt lat="43.59981" lon="6.06941">
        <ele>493.8</ele>
        <time>2021-02-19T13:12:54Z</time>
      </trkpt>
      <trkpt lat="43.59981" lon="6.06939">
        <ele>494.2</ele>
        <time>2021-02-19T13:12:55Z</time>
      </trkpt>
      <trkpt lat="43.5998" lon="6.06936">
        <ele>494.6</ele>
        <time>2021-02-19T13:12:56Z</time>
      </trkpt>
      <trkpt lat="43.59977" lon="6.06931">
        <ele>494.8</ele>
        <time>2021-02-19T13:12:57Z</time>
      </trkpt>
      <trkpt lat="43.59975" lon="6.06927">
        <ele>495</ele>
        <time>2021-02-19T13:12:58Z</time>
      </trkpt>
      <trkpt lat="43.59974" lon="6.06924">
        <ele>495.6</ele>
        <time>2021-02-19T13:12:59Z</time>
      </trkpt>
      <trkpt lat="43.59973" lon="6.0692">
        <ele>496</ele>
        <time>2021-02-19T13:13:00Z</time>
      </trkpt>
      <trkpt lat="43.59971" lon="6.06917">
        <ele>496.2</ele>
        <time>2021-02-19T13:13:01Z</time>
      </trkpt>
      <trkpt lat="43.59969" lon="6.06915">
        <ele>496.2</ele>
        <time>2021-02-19T13:13:02Z</time>
      </trkpt>
      <trkpt lat="43.59969" lon="6.06914">
        <ele>496.6</ele>
        <time>2021-02-19T13:13:03Z</time>
      </trkpt>
      <trkpt lat="43.59968" lon="6.06911">
        <ele>496.8</ele>
        <time>2021-02-19T13:13:04Z</time>
      </trkpt>
      <trkpt lat="43.59967" lon="6.0691">
        <ele>497</ele>
        <time>2021-02-19T13:13:05Z</time>
      </trkpt>
      <trkpt lat="43.59968" lon="6.06909">
        <ele>497.2</ele>
        <time>2021-02-19T13:13:06Z</time>
      </trkpt>
      <trkpt lat="43.59968" lon="6.06908">
        <ele>497.2</ele>
        <time>2021-02-19T13:13:07Z</time>
      </trkpt>
      <trkpt lat="43.59967" lon="6.06906">
        <ele>497.2</ele>
        <time>2021-02-19T13:13:08Z</time>
      </trkpt>
      <trkpt lat="43.59965" lon="6.06904">
        <ele>497.4</ele>
        <time>2021-02-19T13:13:09Z</time>
      </trkpt>
      <trkpt lat="43.59964" lon="6.06901">
        <ele>497.4</ele>
        <time>2021-02-19T13:13:10Z</time>
      </trkpt>
      <trkpt lat="43.59963" lon="6.06899">
        <ele>497.6</ele>
        <time>2021-02-19T13:13:11Z</time>
      </trkpt>
      <trkpt lat="43.59962" lon="6.06896">
        <ele>498.2</ele>
        <time>2021-02-19T13:13:12Z</time>
      </trkpt>
      <trkpt lat="43.59962" lon="6.06894">
        <ele>498.4</ele>
        <time>2021-02-19T13:13:13Z</time>
      </trkpt>
      <trkpt lat="43.59963" lon="6.06891">
        <ele>498.6</ele>
        <time>2021-02-19T13:13:14Z</time>
      </trkpt>
      <trkpt lat="43.59963" lon="6.06889">
        <ele>498.8</ele>
        <time>2021-02-19T13:13:15Z</time>
      </trkpt>
      <trkpt lat="43.59964" lon="6.06887">
        <ele>498.8</ele>
        <time>2021-02-19T13:13:16Z</time>
      </trkpt>
      <trkpt lat="43.59964" lon="6.06886">
        <ele>499</ele>
        <time>2021-02-19T13:13:17Z</time>
      </trkpt>
      <trkpt lat="43.59964" lon="6.06883">
        <ele>499</ele>
        <time>2021-02-19T13:13:18Z</time>
      </trkpt>
      <trkpt lat="43.59963" lon="6.0688">
        <ele>499</ele>
        <time>2021-02-19T13:13:19Z</time>
      </trkpt>
      <trkpt lat="43.59964" lon="6.06877">
        <ele>499</ele>
        <time>2021-02-19T13:13:20Z</time>
      </trkpt>
      <trkpt lat="43.59964" lon="6.06874">
        <ele>499.2</ele>
        <time>2021-02-19T13:13:21Z</time>
      </trkpt>
      <trkpt lat="43.59963" lon="6.0687">
        <ele>499.2</ele>
        <time>2021-02-19T13:13:22Z</time>
      </trkpt>
      <trkpt lat="43.59962" lon="6.06865">
        <ele>499.6</ele>
        <time>2021-02-19T13:13:23Z</time>
      </trkpt>
      <trkpt lat="43.59961" lon="6.06861">
        <ele>499.6</ele>
        <time>2021-02-19T13:13:24Z</time>
      </trkpt>
      <trkpt lat="43.5996" lon="6.06856">
        <ele>499.8</ele>
        <time>2021-02-19T13:13:25Z</time>
      </trkpt>
      <trkpt lat="43.59959" lon="6.06852">
        <ele>500.2</ele>
        <time>2021-02-19T13:13:26Z</time>
      </trkpt>
      <trkpt lat="43.59958" lon="6.06848">
        <ele>500.4</ele>
        <time>2021-02-19T13:13:27Z</time>
      </trkpt>
      <trkpt lat="43.59956" lon="6.06843">
        <ele>500.6</ele>
        <time>2021-02-19T13:13:28Z</time>
      </trkpt>
      <trkpt lat="43.59955" lon="6.06839">
        <ele>500.8</ele>
        <time>2021-02-19T13:13:29Z</time>
      </trkpt>
      <trkpt lat="43.59954" lon="6.06835">
        <ele>501.2</ele>
        <time>2021-02-19T13:13:30Z</time>
      </trkpt>
      <trkpt lat="43.59954" lon="6.06831">
        <ele>502</ele>
        <time>2021-02-19T13:13:31Z</time>
      </trkpt>
      <trkpt lat="43.59953" lon="6.06826">
        <ele>502.2</ele>
        <time>2021-02-19T13:13:32Z</time>
      </trkpt>
      <trkpt lat="43.59952" lon="6.06821">
        <ele>502.4</ele>
        <time>2021-02-19T13:13:33Z</time>
      </trkpt>
      <trkpt lat="43.59951" lon="6.06816">
        <ele>502.8</ele>
        <time>2021-02-19T13:13:34Z</time>
      </trkpt>
      <trkpt lat="43.59951" lon="6.06811">
        <ele>503</ele>
        <time>2021-02-19T13:13:35Z</time>
      </trkpt>
      <trkpt lat="43.59949" lon="6.06806">
        <ele>503.2</ele>
        <time>2021-02-19T13:13:36Z</time>
      </trkpt>
      <trkpt lat="43.59947" lon="6.06801">
        <ele>503.2</ele>
        <time>2021-02-19T13:13:37Z</time>
      </trkpt>
      <trkpt lat="43.59946" lon="6.06796">
        <ele>503.2</ele>
        <time>2021-02-19T13:13:38Z</time>
      </trkpt>
      <trkpt lat="43.59944" lon="6.0679">
        <ele>503.2</ele>
        <time>2021-02-19T13:13:39Z</time>
      </trkpt>
      <trkpt lat="43.59942" lon="6.06785">
        <ele>503.2</ele>
        <time>2021-02-19T13:13:40Z</time>
      </trkpt>
      <trkpt lat="43.59941" lon="6.06779">
        <ele>503.4</ele>
        <time>2021-02-19T13:13:41Z</time>
      </trkpt>
      <trkpt lat="43.5994" lon="6.06775">
        <ele>503.6</ele>
        <time>2021-02-19T13:13:42Z</time>
      </trkpt>
      <trkpt lat="43.59939" lon="6.06771">
        <ele>504</ele>
        <time>2021-02-19T13:13:43Z</time>
      </trkpt>
      <trkpt lat="43.59938" lon="6.06767">
        <ele>504.2</ele>
        <time>2021-02-19T13:13:44Z</time>
      </trkpt>
      <trkpt lat="43.59937" lon="6.06763">
        <ele>504.2</ele>
        <time>2021-02-19T13:13:45Z</time>
      </trkpt>
      <trkpt lat="43.59935" lon="6.06759">
        <ele>504.4</ele>
        <time>2021-02-19T13:13:46Z</time>
      </trkpt>
      <trkpt lat="43.59934" lon="6.06754">
        <ele>504.4</ele>
        <time>2021-02-19T13:13:47Z</time>
      </trkpt>
      <trkpt lat="43.59933" lon="6.06749">
        <ele>504.4</ele>
        <time>2021-02-19T13:13:48Z</time>
      </trkpt>
      <trkpt lat="43.59931" lon="6.06743">
        <ele>504.4</ele>
        <time>2021-02-19T13:13:49Z</time>
      </trkpt>
      <trkpt lat="43.59929" lon="6.06737">
        <ele>504.4</ele>
        <time>2021-02-19T13:13:50Z</time>
      </trkpt>
      <trkpt lat="43.59927" lon="6.06731">
        <ele>504.4</ele>
        <time>2021-02-19T13:13:51Z</time>
      </trkpt>
      <trkpt lat="43.59923" lon="6.06726">
        <ele>504.4</ele>
        <time>2021-02-19T13:13:52Z</time>
      </trkpt>
      <trkpt lat="43.59921" lon="6.06722">
        <ele>504.6</ele>
        <time>2021-02-19T13:13:53Z</time>
      </trkpt>
      <trkpt lat="43.59918" lon="6.06718">
        <ele>504.6</ele>
        <time>2021-02-19T13:13:54Z</time>
      </trkpt>
      <trkpt lat="43.59916" lon="6.06714">
        <ele>504.8</ele>
        <time>2021-02-19T13:13:55Z</time>
      </trkpt>
      <trkpt lat="43.59915" lon="6.06709">
        <ele>504.6</ele>
        <time>2021-02-19T13:13:56Z</time>
      </trkpt>
      <trkpt lat="43.59913" lon="6.06704">
        <ele>504.6</ele>
        <time>2021-02-19T13:13:57Z</time>
      </trkpt>
      <trkpt lat="43.59911" lon="6.06698">
        <ele>504.2</ele>
        <time>2021-02-19T13:13:58Z</time>
      </trkpt>
      <trkpt lat="43.5991" lon="6.06692">
        <ele>504.4</ele>
        <time>2021-02-19T13:13:59Z</time>
      </trkpt>
      <trkpt lat="43.59908" lon="6.06686">
        <ele>504.4</ele>
        <time>2021-02-19T13:14:00Z</time>
      </trkpt>
      <trkpt lat="43.59906" lon="6.06679">
        <ele>504.2</ele>
        <time>2021-02-19T13:14:01Z</time>
      </trkpt>
      <trkpt lat="43.59904" lon="6.06672">
        <ele>504.2</ele>
        <time>2021-02-19T13:14:02Z</time>
      </trkpt>
      <trkpt lat="43.59902" lon="6.06666">
        <ele>504.2</ele>
        <time>2021-02-19T13:14:03Z</time>
      </trkpt>
      <trkpt lat="43.59899" lon="6.06659">
        <ele>504.2</ele>
        <time>2021-02-19T13:14:04Z</time>
      </trkpt>
      <trkpt lat="43.59898" lon="6.06653">
        <ele>504.2</ele>
        <time>2021-02-19T13:14:05Z</time>
      </trkpt>
      <trkpt lat="43.59896" lon="6.06645">
        <ele>504</ele>
        <time>2021-02-19T13:14:06Z</time>
      </trkpt>
      <trkpt lat="43.59894" lon="6.06638">
        <ele>504</ele>
        <time>2021-02-19T13:14:07Z</time>
      </trkpt>
      <trkpt lat="43.59893" lon="6.06632">
        <ele>503.8</ele>
        <time>2021-02-19T13:14:08Z</time>
      </trkpt>
      <trkpt lat="43.59892" lon="6.06626">
        <ele>503.8</ele>
        <time>2021-02-19T13:14:09Z</time>
      </trkpt>
      <trkpt lat="43.59889" lon="6.06618">
        <ele>503.6</ele>
        <time>2021-02-19T13:14:10Z</time>
      </trkpt>
      <trkpt lat="43.59888" lon="6.06611">
        <ele>503.4</ele>
        <time>2021-02-19T13:14:11Z</time>
      </trkpt>
      <trkpt lat="43.59887" lon="6.06604">
        <ele>503.4</ele>
        <time>2021-02-19T13:14:12Z</time>
      </trkpt>
      <trkpt lat="43.59886" lon="6.06597">
        <ele>503.2</ele>
        <time>2021-02-19T13:14:13Z</time>
      </trkpt>
      <trkpt lat="43.59885" lon="6.06591">
        <ele>503.2</ele>
        <time>2021-02-19T13:14:14Z</time>
      </trkpt>
      <trkpt lat="43.59884" lon="6.06585">
        <ele>503.2</ele>
        <time>2021-02-19T13:14:15Z</time>
      </trkpt>
      <trkpt lat="43.59883" lon="6.06578">
        <ele>503.2</ele>
        <time>2021-02-19T13:14:16Z</time>
      </trkpt>
      <trkpt lat="43.59881" lon="6.06571">
        <ele>503.2</ele>
        <time>2021-02-19T13:14:17Z</time>
      </trkpt>
      <trkpt lat="43.5988" lon="6.06564">
        <ele>503.2</ele>
        <time>2021-02-19T13:14:18Z</time>
      </trkpt>
      <trkpt lat="43.59879" lon="6.06556">
        <ele>502.6</ele>
        <time>2021-02-19T13:14:19Z</time>
      </trkpt>
      <trkpt lat="43.59878" lon="6.06549">
        <ele>502.4</ele>
        <time>2021-02-19T13:14:20Z</time>
      </trkpt>
      <trkpt lat="43.59877" lon="6.06542">
        <ele>502</ele>
        <time>2021-02-19T13:14:21Z</time>
      </trkpt>
      <trkpt lat="43.59876" lon="6.06534">
        <ele>502</ele>
        <time>2021-02-19T13:14:22Z</time>
      </trkpt>
      <trkpt lat="43.59877" lon="6.06527">
        <ele>501.8</ele>
        <time>2021-02-19T13:14:23Z</time>
      </trkpt>
      <trkpt lat="43.59877" lon="6.0652">
        <ele>501.8</ele>
        <time>2021-02-19T13:14:24Z</time>
      </trkpt>
      <trkpt lat="43.59878" lon="6.06514">
        <ele>501.8</ele>
        <time>2021-02-19T13:14:25Z</time>
      </trkpt>
      <trkpt lat="43.59877" lon="6.06508">
        <ele>501.4</ele>
        <time>2021-02-19T13:14:26Z</time>
      </trkpt>
      <trkpt lat="43.59875" lon="6.06503">
        <ele>501.2</ele>
        <time>2021-02-19T13:14:27Z</time>
      </trkpt>
      <trkpt lat="43.59874" lon="6.06498">
        <ele>500.8</ele>
        <time>2021-02-19T13:14:28Z</time>
      </trkpt>
      <trkpt lat="43.59872" lon="6.06494">
        <ele>500.6</ele>
        <time>2021-02-19T13:14:29Z</time>
      </trkpt>
      <trkpt lat="43.5987" lon="6.06489">
        <ele>500.2</ele>
        <time>2021-02-19T13:14:30Z</time>
      </trkpt>
      <trkpt lat="43.59868" lon="6.06483">
        <ele>500</ele>
        <time>2021-02-19T13:14:31Z</time>
      </trkpt>
      <trkpt lat="43.5987" lon="6.06479">
        <ele>499.8</ele>
        <time>2021-02-19T13:14:32Z</time>
      </trkpt>
      <trkpt lat="43.59872" lon="6.06477">
        <ele>499.8</ele>
        <time>2021-02-19T13:14:33Z</time>
      </trkpt>
      <trkpt lat="43.59876" lon="6.06476">
        <ele>500.2</ele>
        <time>2021-02-19T13:14:34Z</time>
      </trkpt>
      <trkpt lat="43.59879" lon="6.06473">
        <ele>500.6</ele>
        <time>2021-02-19T13:14:35Z</time>
      </trkpt>
      <trkpt lat="43.59882" lon="6.0647">
        <ele>500.8</ele>
        <time>2021-02-19T13:14:36Z</time>
      </trkpt>
      <trkpt lat="43.59885" lon="6.06467">
        <ele>501.4</ele>
        <time>2021-02-19T13:14:37Z</time>
      </trkpt>
      <trkpt lat="43.59887" lon="6.06463">
        <ele>501.8</ele>
        <time>2021-02-19T13:14:38Z</time>
      </trkpt>
      <trkpt lat="43.5989" lon="6.06461">
        <ele>502</ele>
        <time>2021-02-19T13:14:39Z</time>
      </trkpt>
      <trkpt lat="43.59892" lon="6.06458">
        <ele>502.2</ele>
        <time>2021-02-19T13:14:40Z</time>
      </trkpt>
      <trkpt lat="43.59895" lon="6.06456">
        <ele>502.4</ele>
        <time>2021-02-19T13:14:41Z</time>
      </trkpt>
      <trkpt lat="43.59898" lon="6.06454">
        <ele>501.8</ele>
        <time>2021-02-19T13:14:42Z</time>
      </trkpt>
      <trkpt lat="43.59902" lon="6.06453">
        <ele>501.2</ele>
        <time>2021-02-19T13:14:43Z</time>
      </trkpt>
      <trkpt lat="43.59906" lon="6.06451">
        <ele>501</ele>
        <time>2021-02-19T13:14:44Z</time>
      </trkpt>
      <trkpt lat="43.59909" lon="6.06449">
        <ele>500.8</ele>
        <time>2021-02-19T13:14:45Z</time>
      </trkpt>
      <trkpt lat="43.59912" lon="6.06448">
        <ele>500.6</ele>
        <time>2021-02-19T13:14:46Z</time>
      </trkpt>
      <trkpt lat="43.59915" lon="6.06446">
        <ele>500.4</ele>
        <time>2021-02-19T13:14:47Z</time>
      </trkpt>
      <trkpt lat="43.59918" lon="6.06446">
        <ele>500.4</ele>
        <time>2021-02-19T13:14:48Z</time>
      </trkpt>
      <trkpt lat="43.59922" lon="6.06445">
        <ele>500.4</ele>
        <time>2021-02-19T13:14:49Z</time>
      </trkpt>
      <trkpt lat="43.59925" lon="6.06444">
        <ele>500.4</ele>
        <time>2021-02-19T13:14:50Z</time>
      </trkpt>
      <trkpt lat="43.59928" lon="6.06445">
        <ele>500.4</ele>
        <time>2021-02-19T13:14:51Z</time>
      </trkpt>
      <trkpt lat="43.59931" lon="6.06445">
        <ele>500.4</ele>
        <time>2021-02-19T13:14:52Z</time>
      </trkpt>
      <trkpt lat="43.59935" lon="6.06446">
        <ele>500.4</ele>
        <time>2021-02-19T13:14:53Z</time>
      </trkpt>
      <trkpt lat="43.59939" lon="6.06447">
        <ele>500.6</ele>
        <time>2021-02-19T13:14:54Z</time>
      </trkpt>
      <trkpt lat="43.59944" lon="6.06448">
        <ele>501</ele>
        <time>2021-02-19T13:14:55Z</time>
      </trkpt>
      <trkpt lat="43.59948" lon="6.06449">
        <ele>501.2</ele>
        <time>2021-02-19T13:14:56Z</time>
      </trkpt>
      <trkpt lat="43.59953" lon="6.0645">
        <ele>501.4</ele>
        <time>2021-02-19T13:14:57Z</time>
      </trkpt>
      <trkpt lat="43.59958" lon="6.0645">
        <ele>501.6</ele>
        <time>2021-02-19T13:14:58Z</time>
      </trkpt>
      <trkpt lat="43.59964" lon="6.0645">
        <ele>502</ele>
        <time>2021-02-19T13:14:59Z</time>
      </trkpt>
      <trkpt lat="43.59968" lon="6.0645">
        <ele>502.4</ele>
        <time>2021-02-19T13:15:00Z</time>
      </trkpt>
      <trkpt lat="43.59972" lon="6.0645">
        <ele>502.8</ele>
        <time>2021-02-19T13:15:01Z</time>
      </trkpt>
      <trkpt lat="43.59976" lon="6.0645">
        <ele>503.2</ele>
        <time>2021-02-19T13:15:02Z</time>
      </trkpt>
      <trkpt lat="43.59979" lon="6.0645">
        <ele>503.8</ele>
        <time>2021-02-19T13:15:03Z</time>
      </trkpt>
      <trkpt lat="43.59983" lon="6.06451">
        <ele>504.8</ele>
        <time>2021-02-19T13:15:04Z</time>
      </trkpt>
      <trkpt lat="43.59986" lon="6.06451">
        <ele>505.6</ele>
        <time>2021-02-19T13:15:05Z</time>
      </trkpt>
      <trkpt lat="43.5999" lon="6.06452">
        <ele>506.2</ele>
        <time>2021-02-19T13:15:06Z</time>
      </trkpt>
      <trkpt lat="43.59993" lon="6.06453">
        <ele>506.6</ele>
        <time>2021-02-19T13:15:07Z</time>
      </trkpt>
      <trkpt lat="43.59996" lon="6.06454">
        <ele>506.8</ele>
        <time>2021-02-19T13:15:08Z</time>
      </trkpt>
      <trkpt lat="43.6" lon="6.06454">
        <ele>507.4</ele>
        <time>2021-02-19T13:15:09Z</time>
      </trkpt>
      <trkpt lat="43.60003" lon="6.06454">
        <ele>508</ele>
        <time>2021-02-19T13:15:10Z</time>
      </trkpt>
      <trkpt lat="43.60007" lon="6.06454">
        <ele>508.4</ele>
        <time>2021-02-19T13:15:11Z</time>
      </trkpt>
      <trkpt lat="43.6001" lon="6.06454">
        <ele>508.8</ele>
        <time>2021-02-19T13:15:12Z</time>
      </trkpt>
      <trkpt lat="43.60014" lon="6.06454">
        <ele>509.8</ele>
        <time>2021-02-19T13:15:13Z</time>
      </trkpt>
      <trkpt lat="43.60017" lon="6.06454">
        <ele>510.6</ele>
        <time>2021-02-19T13:15:14Z</time>
      </trkpt>
      <trkpt lat="43.60021" lon="6.06454">
        <ele>511.4</ele>
        <time>2021-02-19T13:15:15Z</time>
      </trkpt>
      <trkpt lat="43.60025" lon="6.06454">
        <ele>512</ele>
        <time>2021-02-19T13:15:16Z</time>
      </trkpt>
      <trkpt lat="43.60029" lon="6.06455">
        <ele>512.6</ele>
        <time>2021-02-19T13:15:17Z</time>
      </trkpt>
      <trkpt lat="43.60032" lon="6.06454">
        <ele>513.4</ele>
        <time>2021-02-19T13:15:18Z</time>
      </trkpt>
      <trkpt lat="43.60036" lon="6.06454">
        <ele>513.8</ele>
        <time>2021-02-19T13:15:19Z</time>
      </trkpt>
      <trkpt lat="43.6004" lon="6.06454">
        <ele>514.2</ele>
        <time>2021-02-19T13:15:20Z</time>
      </trkpt>
      <trkpt lat="43.60043" lon="6.06454">
        <ele>515</ele>
        <time>2021-02-19T13:15:21Z</time>
      </trkpt>
      <trkpt lat="43.60047" lon="6.06454">
        <ele>515.6</ele>
        <time>2021-02-19T13:15:22Z</time>
      </trkpt>
      <trkpt lat="43.6005" lon="6.06454">
        <ele>516.4</ele>
        <time>2021-02-19T13:15:23Z</time>
      </trkpt>
      <trkpt lat="43.60054" lon="6.06454">
        <ele>516.6</ele>
        <time>2021-02-19T13:15:24Z</time>
      </trkpt>
      <trkpt lat="43.60058" lon="6.06454">
        <ele>517.2</ele>
        <time>2021-02-19T13:15:25Z</time>
      </trkpt>
      <trkpt lat="43.60062" lon="6.06454">
        <ele>518</ele>
        <time>2021-02-19T13:15:26Z</time>
      </trkpt>
      <trkpt lat="43.60066" lon="6.06454">
        <ele>518.2</ele>
        <time>2021-02-19T13:15:27Z</time>
      </trkpt>
      <trkpt lat="43.6007" lon="6.06454">
        <ele>518.6</ele>
        <time>2021-02-19T13:15:28Z</time>
      </trkpt>
      <trkpt lat="43.60073" lon="6.06454">
        <ele>518.8</ele>
        <time>2021-02-19T13:15:29Z</time>
      </trkpt>
      <trkpt lat="43.60077" lon="6.06454">
        <ele>519.2</ele>
        <time>2021-02-19T13:15:30Z</time>
      </trkpt>
      <trkpt lat="43.60081" lon="6.06454">
        <ele>519.8</ele>
        <time>2021-02-19T13:15:31Z</time>
      </trkpt>
      <trkpt lat="43.60085" lon="6.06454">
        <ele>520.4</ele>
        <time>2021-02-19T13:15:32Z</time>
      </trkpt>
      <trkpt lat="43.60089" lon="6.06454">
        <ele>521</ele>
        <time>2021-02-19T13:15:33Z</time>
      </trkpt>
      <trkpt lat="43.60093" lon="6.06453">
        <ele>521.4</ele>
        <time>2021-02-19T13:15:34Z</time>
      </trkpt>
      <trkpt lat="43.60097" lon="6.06453">
        <ele>521.6</ele>
        <time>2021-02-19T13:15:35Z</time>
      </trkpt>
      <trkpt lat="43.60101" lon="6.06452">
        <ele>522</ele>
        <time>2021-02-19T13:15:36Z</time>
      </trkpt>
      <trkpt lat="43.60105" lon="6.06452">
        <ele>522.2</ele>
        <time>2021-02-19T13:15:37Z</time>
      </trkpt>
      <trkpt lat="43.60109" lon="6.06451">
        <ele>522.8</ele>
        <time>2021-02-19T13:15:38Z</time>
      </trkpt>
      <trkpt lat="43.60114" lon="6.0645">
        <ele>523.2</ele>
        <time>2021-02-19T13:15:39Z</time>
      </trkpt>
      <trkpt lat="43.60118" lon="6.0645">
        <ele>523.4</ele>
        <time>2021-02-19T13:15:40Z</time>
      </trkpt>
      <trkpt lat="43.60122" lon="6.06449">
        <ele>523.8</ele>
        <time>2021-02-19T13:15:41Z</time>
      </trkpt>
      <trkpt lat="43.60127" lon="6.06448">
        <ele>524.2</ele>
        <time>2021-02-19T13:15:42Z</time>
      </trkpt>
      <trkpt lat="43.60131" lon="6.06446">
        <ele>524.4</ele>
        <time>2021-02-19T13:15:43Z</time>
      </trkpt>
      <trkpt lat="43.60135" lon="6.06445">
        <ele>524.4</ele>
        <time>2021-02-19T13:15:44Z</time>
      </trkpt>
      <trkpt lat="43.6014" lon="6.06443">
        <ele>524.6</ele>
        <time>2021-02-19T13:15:45Z</time>
      </trkpt>
      <trkpt lat="43.60144" lon="6.06442">
        <ele>524.8</ele>
        <time>2021-02-19T13:15:46Z</time>
      </trkpt>
      <trkpt lat="43.60149" lon="6.0644">
        <ele>525.4</ele>
        <time>2021-02-19T13:15:47Z</time>
      </trkpt>
      <trkpt lat="43.60153" lon="6.06439">
        <ele>525.6</ele>
        <time>2021-02-19T13:15:48Z</time>
      </trkpt>
      <trkpt lat="43.60157" lon="6.06437">
        <ele>525.8</ele>
        <time>2021-02-19T13:15:49Z</time>
      </trkpt>
      <trkpt lat="43.60161" lon="6.06436">
        <ele>525.8</ele>
        <time>2021-02-19T13:15:50Z</time>
      </trkpt>
      <trkpt lat="43.60164" lon="6.06434">
        <ele>526</ele>
        <time>2021-02-19T13:15:51Z</time>
      </trkpt>
      <trkpt lat="43.60168" lon="6.06433">
        <ele>526.2</ele>
        <time>2021-02-19T13:15:52Z</time>
      </trkpt>
      <trkpt lat="43.60172" lon="6.06432">
        <ele>526.4</ele>
        <time>2021-02-19T13:15:53Z</time>
      </trkpt>
      <trkpt lat="43.60176" lon="6.06431">
        <ele>526.6</ele>
        <time>2021-02-19T13:15:54Z</time>
      </trkpt>
      <trkpt lat="43.6018" lon="6.0643">
        <ele>526.6</ele>
        <time>2021-02-19T13:15:55Z</time>
      </trkpt>
      <trkpt lat="43.60184" lon="6.06429">
        <ele>526.8</ele>
        <time>2021-02-19T13:15:56Z</time>
      </trkpt>
      <trkpt lat="43.60188" lon="6.06429">
        <ele>526.8</ele>
        <time>2021-02-19T13:15:57Z</time>
      </trkpt>
      <trkpt lat="43.60192" lon="6.06429">
        <ele>527.2</ele>
        <time>2021-02-19T13:15:58Z</time>
      </trkpt>
      <trkpt lat="43.60196" lon="6.06428">
        <ele>527.2</ele>
        <time>2021-02-19T13:15:59Z</time>
      </trkpt>
      <trkpt lat="43.602" lon="6.06427">
        <ele>527.4</ele>
        <time>2021-02-19T13:16:00Z</time>
      </trkpt>
      <trkpt lat="43.60204" lon="6.06425">
        <ele>527.4</ele>
        <time>2021-02-19T13:16:01Z</time>
      </trkpt>
      <trkpt lat="43.60207" lon="6.06423">
        <ele>527.4</ele>
        <time>2021-02-19T13:16:02Z</time>
      </trkpt>
      <trkpt lat="43.60211" lon="6.0642">
        <ele>527</ele>
        <time>2021-02-19T13:16:03Z</time>
      </trkpt>
      <trkpt lat="43.60214" lon="6.06418">
        <ele>527</ele>
        <time>2021-02-19T13:16:04Z</time>
      </trkpt>
      <trkpt lat="43.60218" lon="6.06415">
        <ele>526.8</ele>
        <time>2021-02-19T13:16:05Z</time>
      </trkpt>
      <trkpt lat="43.60222" lon="6.06413">
        <ele>527</ele>
        <time>2021-02-19T13:16:06Z</time>
      </trkpt>
      <trkpt lat="43.60225" lon="6.06411">
        <ele>526.8</ele>
        <time>2021-02-19T13:16:07Z</time>
      </trkpt>
      <trkpt lat="43.60228" lon="6.06409">
        <ele>526.8</ele>
        <time>2021-02-19T13:16:08Z</time>
      </trkpt>
      <trkpt lat="43.60232" lon="6.06408">
        <ele>526.8</ele>
        <time>2021-02-19T13:16:09Z</time>
      </trkpt>
      <trkpt lat="43.60235" lon="6.06405">
        <ele>526.8</ele>
        <time>2021-02-19T13:16:10Z</time>
      </trkpt>
      <trkpt lat="43.60237" lon="6.06404">
        <ele>527</ele>
        <time>2021-02-19T13:16:11Z</time>
      </trkpt>
      <trkpt lat="43.60239" lon="6.06403">
        <ele>527</ele>
        <time>2021-02-19T13:16:12Z</time>
      </trkpt>
      <trkpt lat="43.60241" lon="6.06403">
        <ele>527</ele>
        <time>2021-02-19T13:16:13Z</time>
      </trkpt>
      <trkpt lat="43.60244" lon="6.06402">
        <ele>527</ele>
        <time>2021-02-19T13:16:14Z</time>
      </trkpt>
      <trkpt lat="43.60248" lon="6.06401">
        <ele>527</ele>
        <time>2021-02-19T13:16:15Z</time>
      </trkpt>
      <trkpt lat="43.60253" lon="6.064">
        <ele>527.2</ele>
        <time>2021-02-19T13:16:16Z</time>
      </trkpt>
      <trkpt lat="43.60258" lon="6.06399">
        <ele>527.4</ele>
        <time>2021-02-19T13:16:17Z</time>
      </trkpt>
      <trkpt lat="43.60263" lon="6.06398">
        <ele>527.4</ele>
        <time>2021-02-19T13:16:18Z</time>
      </trkpt>
      <trkpt lat="43.60268" lon="6.06397">
        <ele>527.6</ele>
        <time>2021-02-19T13:16:19Z</time>
      </trkpt>
      <trkpt lat="43.60273" lon="6.06395">
        <ele>527.6</ele>
        <time>2021-02-19T13:16:20Z</time>
      </trkpt>
      <trkpt lat="43.60278" lon="6.06393">
        <ele>527.6</ele>
        <time>2021-02-19T13:16:21Z</time>
      </trkpt>
      <trkpt lat="43.60283" lon="6.06391">
        <ele>527.6</ele>
        <time>2021-02-19T13:16:22Z</time>
      </trkpt>
      <trkpt lat="43.60288" lon="6.06389">
        <ele>527.6</ele>
        <time>2021-02-19T13:16:23Z</time>
      </trkpt>
      <trkpt lat="43.60293" lon="6.06388">
        <ele>527.6</ele>
        <time>2021-02-19T13:16:24Z</time>
      </trkpt>
      <trkpt lat="43.60298" lon="6.06388">
        <ele>527.6</ele>
        <time>2021-02-19T13:16:25Z</time>
      </trkpt>
      <trkpt lat="43.60303" lon="6.06387">
        <ele>528</ele>
        <time>2021-02-19T13:16:26Z</time>
      </trkpt>
      <trkpt lat="43.60308" lon="6.06387">
        <ele>528.8</ele>
        <time>2021-02-19T13:16:27Z</time>
      </trkpt>
      <trkpt lat="43.60313" lon="6.06385">
        <ele>529</ele>
        <time>2021-02-19T13:16:28Z</time>
      </trkpt>
      <trkpt lat="43.60318" lon="6.06383">
        <ele>529.4</ele>
        <time>2021-02-19T13:16:29Z</time>
      </trkpt>
      <trkpt lat="43.60323" lon="6.06382">
        <ele>529.6</ele>
        <time>2021-02-19T13:16:30Z</time>
      </trkpt>
      <trkpt lat="43.60328" lon="6.0638">
        <ele>529.8</ele>
        <time>2021-02-19T13:16:31Z</time>
      </trkpt>
      <trkpt lat="43.60333" lon="6.06378">
        <ele>530</ele>
        <time>2021-02-19T13:16:32Z</time>
      </trkpt>
      <trkpt lat="43.60338" lon="6.06376">
        <ele>530.2</ele>
        <time>2021-02-19T13:16:33Z</time>
      </trkpt>
      <trkpt lat="43.60343" lon="6.06374">
        <ele>530.2</ele>
        <time>2021-02-19T13:16:34Z</time>
      </trkpt>
      <trkpt lat="43.60348" lon="6.06373">
        <ele>530.4</ele>
        <time>2021-02-19T13:16:35Z</time>
      </trkpt>
      <trkpt lat="43.60352" lon="6.06371">
        <ele>530.4</ele>
        <time>2021-02-19T13:16:36Z</time>
      </trkpt>
      <trkpt lat="43.60358" lon="6.0637">
        <ele>530.4</ele>
        <time>2021-02-19T13:16:37Z</time>
      </trkpt>
      <trkpt lat="43.60362" lon="6.06369">
        <ele>530.6</ele>
        <time>2021-02-19T13:16:38Z</time>
      </trkpt>
      <trkpt lat="43.60367" lon="6.06367">
        <ele>530.8</ele>
        <time>2021-02-19T13:16:39Z</time>
      </trkpt>
      <trkpt lat="43.60372" lon="6.06366">
        <ele>530.8</ele>
        <time>2021-02-19T13:16:40Z</time>
      </trkpt>
      <trkpt lat="43.60378" lon="6.06365">
        <ele>531</ele>
        <time>2021-02-19T13:16:41Z</time>
      </trkpt>
      <trkpt lat="43.60383" lon="6.06363">
        <ele>531.2</ele>
        <time>2021-02-19T13:16:42Z</time>
      </trkpt>
      <trkpt lat="43.60388" lon="6.06362">
        <ele>531.2</ele>
        <time>2021-02-19T13:16:43Z</time>
      </trkpt>
      <trkpt lat="43.60393" lon="6.06362">
        <ele>531.4</ele>
        <time>2021-02-19T13:16:44Z</time>
      </trkpt>
      <trkpt lat="43.60398" lon="6.06361">
        <ele>531.6</ele>
        <time>2021-02-19T13:16:45Z</time>
      </trkpt>
      <trkpt lat="43.60403" lon="6.0636">
        <ele>531.8</ele>
        <time>2021-02-19T13:16:46Z</time>
      </trkpt>
      <trkpt lat="43.60408" lon="6.06358">
        <ele>532</ele>
        <time>2021-02-19T13:16:47Z</time>
      </trkpt>
      <trkpt lat="43.60413" lon="6.06357">
        <ele>532.2</ele>
        <time>2021-02-19T13:16:48Z</time>
      </trkpt>
      <trkpt lat="43.60418" lon="6.06355">
        <ele>532.4</ele>
        <time>2021-02-19T13:16:49Z</time>
      </trkpt>
      <trkpt lat="43.60423" lon="6.06354">
        <ele>532.4</ele>
        <time>2021-02-19T13:16:50Z</time>
      </trkpt>
      <trkpt lat="43.60428" lon="6.06353">
        <ele>532.6</ele>
        <time>2021-02-19T13:16:51Z</time>
      </trkpt>
      <trkpt lat="43.60433" lon="6.06352">
        <ele>532.6</ele>
        <time>2021-02-19T13:16:52Z</time>
      </trkpt>
      <trkpt lat="43.60438" lon="6.06352">
        <ele>532.8</ele>
        <time>2021-02-19T13:16:53Z</time>
      </trkpt>
      <trkpt lat="43.60443" lon="6.06351">
        <ele>533</ele>
        <time>2021-02-19T13:16:54Z</time>
      </trkpt>
      <trkpt lat="43.60448" lon="6.0635">
        <ele>533</ele>
        <time>2021-02-19T13:16:55Z</time>
      </trkpt>
      <trkpt lat="43.60453" lon="6.06349">
        <ele>533.4</ele>
        <time>2021-02-19T13:16:56Z</time>
      </trkpt>
      <trkpt lat="43.60458" lon="6.06348">
        <ele>533.8</ele>
        <time>2021-02-19T13:16:57Z</time>
      </trkpt>
      <trkpt lat="43.60463" lon="6.06347">
        <ele>534</ele>
        <time>2021-02-19T13:16:58Z</time>
      </trkpt>
      <trkpt lat="43.60468" lon="6.06346">
        <ele>534.4</ele>
        <time>2021-02-19T13:16:59Z</time>
      </trkpt>
      <trkpt lat="43.60473" lon="6.06345">
        <ele>534.6</ele>
        <time>2021-02-19T13:17:00Z</time>
      </trkpt>
      <trkpt lat="43.60477" lon="6.06343">
        <ele>534.8</ele>
        <time>2021-02-19T13:17:01Z</time>
      </trkpt>
      <trkpt lat="43.60482" lon="6.06342">
        <ele>535.4</ele>
        <time>2021-02-19T13:17:02Z</time>
      </trkpt>
      <trkpt lat="43.60487" lon="6.06341">
        <ele>535.6</ele>
        <time>2021-02-19T13:17:03Z</time>
      </trkpt>
      <trkpt lat="43.60491" lon="6.0634">
        <ele>536</ele>
        <time>2021-02-19T13:17:04Z</time>
      </trkpt>
      <trkpt lat="43.60495" lon="6.06339">
        <ele>536.2</ele>
        <time>2021-02-19T13:17:05Z</time>
      </trkpt>
      <trkpt lat="43.60499" lon="6.06337">
        <ele>536.8</ele>
        <time>2021-02-19T13:17:06Z</time>
      </trkpt>
      <trkpt lat="43.60504" lon="6.06336">
        <ele>537.2</ele>
        <time>2021-02-19T13:17:07Z</time>
      </trkpt>
      <trkpt lat="43.60509" lon="6.06335">
        <ele>537.6</ele>
        <time>2021-02-19T13:17:08Z</time>
      </trkpt>
      <trkpt lat="43.60514" lon="6.06334">
        <ele>537.8</ele>
        <time>2021-02-19T13:17:09Z</time>
      </trkpt>
      <trkpt lat="43.60519" lon="6.06333">
        <ele>538.2</ele>
        <time>2021-02-19T13:17:10Z</time>
      </trkpt>
      <trkpt lat="43.60524" lon="6.06332">
        <ele>538.2</ele>
        <time>2021-02-19T13:17:11Z</time>
      </trkpt>
      <trkpt lat="43.6053" lon="6.0633">
        <ele>538.4</ele>
        <time>2021-02-19T13:17:12Z</time>
      </trkpt>
      <trkpt lat="43.60535" lon="6.06329">
        <ele>538.8</ele>
        <time>2021-02-19T13:17:13Z</time>
      </trkpt>
      <trkpt lat="43.60541" lon="6.06328">
        <ele>539</ele>
        <time>2021-02-19T13:17:14Z</time>
      </trkpt>
      <trkpt lat="43.60546" lon="6.06326">
        <ele>539.6</ele>
        <time>2021-02-19T13:17:15Z</time>
      </trkpt>
      <trkpt lat="43.60551" lon="6.06324">
        <ele>540</ele>
        <time>2021-02-19T13:17:16Z</time>
      </trkpt>
      <trkpt lat="43.60556" lon="6.06322">
        <ele>540.2</ele>
        <time>2021-02-19T13:17:17Z</time>
      </trkpt>
      <trkpt lat="43.60562" lon="6.06319">
        <ele>540.4</ele>
        <time>2021-02-19T13:17:18Z</time>
      </trkpt>
      <trkpt lat="43.60567" lon="6.06317">
        <ele>540.8</ele>
        <time>2021-02-19T13:17:19Z</time>
      </trkpt>
      <trkpt lat="43.60572" lon="6.06316">
        <ele>541.2</ele>
        <time>2021-02-19T13:17:20Z</time>
      </trkpt>
      <trkpt lat="43.60578" lon="6.06313">
        <ele>541.6</ele>
        <time>2021-02-19T13:17:21Z</time>
      </trkpt>
      <trkpt lat="43.60583" lon="6.0631">
        <ele>541.8</ele>
        <time>2021-02-19T13:17:22Z</time>
      </trkpt>
      <trkpt lat="43.60588" lon="6.06307">
        <ele>542.4</ele>
        <time>2021-02-19T13:17:23Z</time>
      </trkpt>
      <trkpt lat="43.60592" lon="6.06305">
        <ele>542.8</ele>
        <time>2021-02-19T13:17:24Z</time>
      </trkpt>
      <trkpt lat="43.60597" lon="6.06303">
        <ele>543.2</ele>
        <time>2021-02-19T13:17:25Z</time>
      </trkpt>
      <trkpt lat="43.60602" lon="6.06302">
        <ele>543.4</ele>
        <time>2021-02-19T13:17:26Z</time>
      </trkpt>
      <trkpt lat="43.60608" lon="6.06301">
        <ele>543.6</ele>
        <time>2021-02-19T13:17:27Z</time>
      </trkpt>
      <trkpt lat="43.60613" lon="6.063">
        <ele>543.8</ele>
        <time>2021-02-19T13:17:28Z</time>
      </trkpt>
      <trkpt lat="43.60618" lon="6.06299">
        <ele>544.2</ele>
        <time>2021-02-19T13:17:29Z</time>
      </trkpt>
      <trkpt lat="43.60624" lon="6.06298">
        <ele>544.6</ele>
        <time>2021-02-19T13:17:30Z</time>
      </trkpt>
      <trkpt lat="43.6063" lon="6.06297">
        <ele>544.8</ele>
        <time>2021-02-19T13:17:31Z</time>
      </trkpt>
      <trkpt lat="43.60635" lon="6.06296">
        <ele>545</ele>
        <time>2021-02-19T13:17:32Z</time>
      </trkpt>
      <trkpt lat="43.6064" lon="6.06295">
        <ele>545.2</ele>
        <time>2021-02-19T13:17:33Z</time>
      </trkpt>
      <trkpt lat="43.60646" lon="6.06293">
        <ele>545.2</ele>
        <time>2021-02-19T13:17:34Z</time>
      </trkpt>
      <trkpt lat="43.60651" lon="6.06292">
        <ele>545.2</ele>
        <time>2021-02-19T13:17:35Z</time>
      </trkpt>
      <trkpt lat="43.60657" lon="6.0629">
        <ele>545.2</ele>
        <time>2021-02-19T13:17:36Z</time>
      </trkpt>
      <trkpt lat="43.60662" lon="6.06289">
        <ele>545.4</ele>
        <time>2021-02-19T13:17:37Z</time>
      </trkpt>
      <trkpt lat="43.60668" lon="6.06287">
        <ele>545.6</ele>
        <time>2021-02-19T13:17:38Z</time>
      </trkpt>
      <trkpt lat="43.60673" lon="6.06286">
        <ele>546</ele>
        <time>2021-02-19T13:17:39Z</time>
      </trkpt>
      <trkpt lat="43.60679" lon="6.06284">
        <ele>546.2</ele>
        <time>2021-02-19T13:17:40Z</time>
      </trkpt>
      <trkpt lat="43.60684" lon="6.06283">
        <ele>546.2</ele>
        <time>2021-02-19T13:17:41Z</time>
      </trkpt>
      <trkpt lat="43.6069" lon="6.06283">
        <ele>546.4</ele>
        <time>2021-02-19T13:17:42Z</time>
      </trkpt>
      <trkpt lat="43.60696" lon="6.06281">
        <ele>546.6</ele>
        <time>2021-02-19T13:17:43Z</time>
      </trkpt>
      <trkpt lat="43.60701" lon="6.0628">
        <ele>546.8</ele>
        <time>2021-02-19T13:17:44Z</time>
      </trkpt>
      <trkpt lat="43.60707" lon="6.06278">
        <ele>547</ele>
        <time>2021-02-19T13:17:45Z</time>
      </trkpt>
      <trkpt lat="43.60712" lon="6.06277">
        <ele>547.4</ele>
        <time>2021-02-19T13:17:46Z</time>
      </trkpt>
      <trkpt lat="43.60717" lon="6.06275">
        <ele>547.6</ele>
        <time>2021-02-19T13:17:47Z</time>
      </trkpt>
      <trkpt lat="43.60722" lon="6.06273">
        <ele>548</ele>
        <time>2021-02-19T13:17:48Z</time>
      </trkpt>
      <trkpt lat="43.60727" lon="6.06271">
        <ele>548.2</ele>
        <time>2021-02-19T13:17:49Z</time>
      </trkpt>
      <trkpt lat="43.60732" lon="6.06269">
        <ele>548.4</ele>
        <time>2021-02-19T13:17:50Z</time>
      </trkpt>
      <trkpt lat="43.60738" lon="6.06267">
        <ele>548.6</ele>
        <time>2021-02-19T13:17:51Z</time>
      </trkpt>
      <trkpt lat="43.60743" lon="6.06265">
        <ele>549</ele>
        <time>2021-02-19T13:17:52Z</time>
      </trkpt>
      <trkpt lat="43.60748" lon="6.06263">
        <ele>549.4</ele>
        <time>2021-02-19T13:17:53Z</time>
      </trkpt>
      <trkpt lat="43.60753" lon="6.06261">
        <ele>549.8</ele>
        <time>2021-02-19T13:17:54Z</time>
      </trkpt>
      <trkpt lat="43.60758" lon="6.06258">
        <ele>550.2</ele>
        <time>2021-02-19T13:17:55Z</time>
      </trkpt>
      <trkpt lat="43.60764" lon="6.06256">
        <ele>550.6</ele>
        <time>2021-02-19T13:17:56Z</time>
      </trkpt>
      <trkpt lat="43.60768" lon="6.06254">
        <ele>551</ele>
        <time>2021-02-19T13:17:57Z</time>
      </trkpt>
      <trkpt lat="43.60774" lon="6.06252">
        <ele>551.2</ele>
        <time>2021-02-19T13:17:58Z</time>
      </trkpt>
      <trkpt lat="43.60779" lon="6.0625">
        <ele>551.6</ele>
        <time>2021-02-19T13:17:59Z</time>
      </trkpt>
      <trkpt lat="43.60784" lon="6.06249">
        <ele>551.8</ele>
        <time>2021-02-19T13:18:00Z</time>
      </trkpt>
      <trkpt lat="43.60788" lon="6.06248">
        <ele>552</ele>
        <time>2021-02-19T13:18:01Z</time>
      </trkpt>
      <trkpt lat="43.60793" lon="6.06247">
        <ele>552.4</ele>
        <time>2021-02-19T13:18:02Z</time>
      </trkpt>
      <trkpt lat="43.60798" lon="6.06247">
        <ele>553.2</ele>
        <time>2021-02-19T13:18:03Z</time>
      </trkpt>
      <trkpt lat="43.60803" lon="6.06245">
        <ele>554</ele>
        <time>2021-02-19T13:18:04Z</time>
      </trkpt>
      <trkpt lat="43.60808" lon="6.06243">
        <ele>554.4</ele>
        <time>2021-02-19T13:18:05Z</time>
      </trkpt>
      <trkpt lat="43.60813" lon="6.06241">
        <ele>554.8</ele>
        <time>2021-02-19T13:18:06Z</time>
      </trkpt>
      <trkpt lat="43.60817" lon="6.06238">
        <ele>555</ele>
        <time>2021-02-19T13:18:07Z</time>
      </trkpt>
      <trkpt lat="43.60822" lon="6.06235">
        <ele>555.2</ele>
        <time>2021-02-19T13:18:08Z</time>
      </trkpt>
      <trkpt lat="43.60827" lon="6.06232">
        <ele>555.4</ele>
        <time>2021-02-19T13:18:09Z</time>
      </trkpt>
      <trkpt lat="43.60831" lon="6.06229">
        <ele>555.4</ele>
        <time>2021-02-19T13:18:10Z</time>
      </trkpt>
      <trkpt lat="43.60836" lon="6.06226">
        <ele>555.6</ele>
        <time>2021-02-19T13:18:11Z</time>
      </trkpt>
      <trkpt lat="43.60841" lon="6.06224">
        <ele>555.8</ele>
        <time>2021-02-19T13:18:12Z</time>
      </trkpt>
      <trkpt lat="43.60846" lon="6.06221">
        <ele>555.8</ele>
        <time>2021-02-19T13:18:13Z</time>
      </trkpt>
      <trkpt lat="43.60851" lon="6.06218">
        <ele>556</ele>
        <time>2021-02-19T13:18:14Z</time>
      </trkpt>
      <trkpt lat="43.60856" lon="6.06216">
        <ele>556.2</ele>
        <time>2021-02-19T13:18:15Z</time>
      </trkpt>
      <trkpt lat="43.60861" lon="6.06214">
        <ele>556.4</ele>
        <time>2021-02-19T13:18:16Z</time>
      </trkpt>
      <trkpt lat="43.60865" lon="6.06211">
        <ele>556.4</ele>
        <time>2021-02-19T13:18:17Z</time>
      </trkpt>
      <trkpt lat="43.6087" lon="6.06208">
        <ele>556.8</ele>
        <time>2021-02-19T13:18:18Z</time>
      </trkpt>
      <trkpt lat="43.60874" lon="6.06205">
        <ele>557.2</ele>
        <time>2021-02-19T13:18:19Z</time>
      </trkpt>
      <trkpt lat="43.60878" lon="6.06202">
        <ele>557.6</ele>
        <time>2021-02-19T13:18:20Z</time>
      </trkpt>
      <trkpt lat="43.60882" lon="6.06198">
        <ele>558.2</ele>
        <time>2021-02-19T13:18:21Z</time>
      </trkpt>
      <trkpt lat="43.60886" lon="6.06195">
        <ele>559</ele>
        <time>2021-02-19T13:18:22Z</time>
      </trkpt>
      <trkpt lat="43.6089" lon="6.06192">
        <ele>559.6</ele>
        <time>2021-02-19T13:18:23Z</time>
      </trkpt>
      <trkpt lat="43.60894" lon="6.0619">
        <ele>560</ele>
        <time>2021-02-19T13:18:24Z</time>
      </trkpt>
      <trkpt lat="43.60898" lon="6.06188">
        <ele>560.4</ele>
        <time>2021-02-19T13:18:25Z</time>
      </trkpt>
      <trkpt lat="43.60902" lon="6.06186">
        <ele>561.2</ele>
        <time>2021-02-19T13:18:26Z</time>
      </trkpt>
      <trkpt lat="43.60906" lon="6.06185">
        <ele>562</ele>
        <time>2021-02-19T13:18:27Z</time>
      </trkpt>
      <trkpt lat="43.60911" lon="6.06184">
        <ele>562.4</ele>
        <time>2021-02-19T13:18:28Z</time>
      </trkpt>
      <trkpt lat="43.60916" lon="6.06182">
        <ele>562.8</ele>
        <time>2021-02-19T13:18:29Z</time>
      </trkpt>
      <trkpt lat="43.6092" lon="6.0618">
        <ele>563.2</ele>
        <time>2021-02-19T13:18:30Z</time>
      </trkpt>
      <trkpt lat="43.60924" lon="6.06179">
        <ele>563.2</ele>
        <time>2021-02-19T13:18:31Z</time>
      </trkpt>
      <trkpt lat="43.60928" lon="6.06177">
        <ele>564.2</ele>
        <time>2021-02-19T13:18:32Z</time>
      </trkpt>
      <trkpt lat="43.60932" lon="6.06175">
        <ele>564.8</ele>
        <time>2021-02-19T13:18:33Z</time>
      </trkpt>
      <trkpt lat="43.60935" lon="6.06174">
        <ele>565.8</ele>
        <time>2021-02-19T13:18:34Z</time>
      </trkpt>
      <trkpt lat="43.60938" lon="6.06173">
        <ele>566.8</ele>
        <time>2021-02-19T13:18:35Z</time>
      </trkpt>
      <trkpt lat="43.60942" lon="6.06172">
        <ele>567.6</ele>
        <time>2021-02-19T13:18:36Z</time>
      </trkpt>
      <trkpt lat="43.60945" lon="6.0617">
        <ele>568</ele>
        <time>2021-02-19T13:18:37Z</time>
      </trkpt>
      <trkpt lat="43.60948" lon="6.06168">
        <ele>568.6</ele>
        <time>2021-02-19T13:18:38Z</time>
      </trkpt>
      <trkpt lat="43.60952" lon="6.06166">
        <ele>569</ele>
        <time>2021-02-19T13:18:39Z</time>
      </trkpt>
      <trkpt lat="43.60955" lon="6.06165">
        <ele>569.6</ele>
        <time>2021-02-19T13:18:40Z</time>
      </trkpt>
      <trkpt lat="43.60959" lon="6.06163">
        <ele>570</ele>
        <time>2021-02-19T13:18:41Z</time>
      </trkpt>
      <trkpt lat="43.60962" lon="6.06162">
        <ele>570.4</ele>
        <time>2021-02-19T13:18:42Z</time>
      </trkpt>
      <trkpt lat="43.60965" lon="6.0616">
        <ele>570.8</ele>
        <time>2021-02-19T13:18:43Z</time>
      </trkpt>
      <trkpt lat="43.60969" lon="6.06159">
        <ele>570.8</ele>
        <time>2021-02-19T13:18:44Z</time>
      </trkpt>
      <trkpt lat="43.60972" lon="6.06157">
        <ele>571.2</ele>
        <time>2021-02-19T13:18:45Z</time>
      </trkpt>
      <trkpt lat="43.60976" lon="6.06156">
        <ele>571.6</ele>
        <time>2021-02-19T13:18:46Z</time>
      </trkpt>
      <trkpt lat="43.6098" lon="6.06154">
        <ele>572.6</ele>
        <time>2021-02-19T13:18:47Z</time>
      </trkpt>
      <trkpt lat="43.60983" lon="6.06152">
        <ele>573.4</ele>
        <time>2021-02-19T13:18:48Z</time>
      </trkpt>
      <trkpt lat="43.60987" lon="6.06149">
        <ele>574</ele>
        <time>2021-02-19T13:18:49Z</time>
      </trkpt>
      <trkpt lat="43.6099" lon="6.06147">
        <ele>574.4</ele>
        <time>2021-02-19T13:18:50Z</time>
      </trkpt>
      <trkpt lat="43.60993" lon="6.06145">
        <ele>575</ele>
        <time>2021-02-19T13:18:51Z</time>
      </trkpt>
      <trkpt lat="43.60996" lon="6.06142">
        <ele>575.4</ele>
        <time>2021-02-19T13:18:52Z</time>
      </trkpt>
      <trkpt lat="43.60999" lon="6.06139">
        <ele>576</ele>
        <time>2021-02-19T13:18:53Z</time>
      </trkpt>
      <trkpt lat="43.61003" lon="6.06136">
        <ele>576.4</ele>
        <time>2021-02-19T13:18:54Z</time>
      </trkpt>
      <trkpt lat="43.61006" lon="6.06133">
        <ele>576.8</ele>
        <time>2021-02-19T13:18:55Z</time>
      </trkpt>
      <trkpt lat="43.6101" lon="6.06131">
        <ele>577.2</ele>
        <time>2021-02-19T13:18:56Z</time>
      </trkpt>
      <trkpt lat="43.61014" lon="6.06128">
        <ele>577.6</ele>
        <time>2021-02-19T13:18:57Z</time>
      </trkpt>
      <trkpt lat="43.61018" lon="6.06126">
        <ele>577.8</ele>
        <time>2021-02-19T13:18:58Z</time>
      </trkpt>
      <trkpt lat="43.61022" lon="6.06124">
        <ele>578</ele>
        <time>2021-02-19T13:18:59Z</time>
      </trkpt>
      <trkpt lat="43.61026" lon="6.06121">
        <ele>578.2</ele>
        <time>2021-02-19T13:19:00Z</time>
      </trkpt>
      <trkpt lat="43.6103" lon="6.06119">
        <ele>578.8</ele>
        <time>2021-02-19T13:19:01Z</time>
      </trkpt>
      <trkpt lat="43.61033" lon="6.06117">
        <ele>579.2</ele>
        <time>2021-02-19T13:19:02Z</time>
      </trkpt>
      <trkpt lat="43.61037" lon="6.06115">
        <ele>579.4</ele>
        <time>2021-02-19T13:19:03Z</time>
      </trkpt>
      <trkpt lat="43.61041" lon="6.06113">
        <ele>579.8</ele>
        <time>2021-02-19T13:19:04Z</time>
      </trkpt>
      <trkpt lat="43.61045" lon="6.0611">
        <ele>580</ele>
        <time>2021-02-19T13:19:05Z</time>
      </trkpt>
      <trkpt lat="43.61049" lon="6.06108">
        <ele>580.2</ele>
        <time>2021-02-19T13:19:06Z</time>
      </trkpt>
      <trkpt lat="43.61053" lon="6.06106">
        <ele>580.4</ele>
        <time>2021-02-19T13:19:07Z</time>
      </trkpt>
      <trkpt lat="43.61057" lon="6.06104">
        <ele>580.6</ele>
        <time>2021-02-19T13:19:08Z</time>
      </trkpt>
      <trkpt lat="43.61061" lon="6.06102">
        <ele>580.8</ele>
        <time>2021-02-19T13:19:09Z</time>
      </trkpt>
      <trkpt lat="43.61065" lon="6.06099">
        <ele>581</ele>
        <time>2021-02-19T13:19:10Z</time>
      </trkpt>
      <trkpt lat="43.6107" lon="6.06097">
        <ele>581.2</ele>
        <time>2021-02-19T13:19:11Z</time>
      </trkpt>
      <trkpt lat="43.61074" lon="6.06094">
        <ele>581.4</ele>
        <time>2021-02-19T13:19:12Z</time>
      </trkpt>
      <trkpt lat="43.61078" lon="6.06092">
        <ele>581.4</ele>
        <time>2021-02-19T13:19:13Z</time>
      </trkpt>
      <trkpt lat="43.61083" lon="6.06089">
        <ele>581.8</ele>
        <time>2021-02-19T13:19:14Z</time>
      </trkpt>
      <trkpt lat="43.61087" lon="6.06087">
        <ele>582</ele>
        <time>2021-02-19T13:19:15Z</time>
      </trkpt>
      <trkpt lat="43.61091" lon="6.06084">
        <ele>582.2</ele>
        <time>2021-02-19T13:19:16Z</time>
      </trkpt>
      <trkpt lat="43.61096" lon="6.06082">
        <ele>582.6</ele>
        <time>2021-02-19T13:19:17Z</time>
      </trkpt>
      <trkpt lat="43.611" lon="6.06079">
        <ele>583</ele>
        <time>2021-02-19T13:19:18Z</time>
      </trkpt>
      <trkpt lat="43.61104" lon="6.06076">
        <ele>583.4</ele>
        <time>2021-02-19T13:19:19Z</time>
      </trkpt>
      <trkpt lat="43.61109" lon="6.06073">
        <ele>583.8</ele>
        <time>2021-02-19T13:19:20Z</time>
      </trkpt>
      <trkpt lat="43.61113" lon="6.06071">
        <ele>584.2</ele>
        <time>2021-02-19T13:19:21Z</time>
      </trkpt>
      <trkpt lat="43.61117" lon="6.06068">
        <ele>584.4</ele>
        <time>2021-02-19T13:19:22Z</time>
      </trkpt>
      <trkpt lat="43.61121" lon="6.06065">
        <ele>584.8</ele>
        <time>2021-02-19T13:19:23Z</time>
      </trkpt>
      <trkpt lat="43.61125" lon="6.06062">
        <ele>584.8</ele>
        <time>2021-02-19T13:19:24Z</time>
      </trkpt>
      <trkpt lat="43.61129" lon="6.06059">
        <ele>585.2</ele>
        <time>2021-02-19T13:19:25Z</time>
      </trkpt>
      <trkpt lat="43.61132" lon="6.06055">
        <ele>585.4</ele>
        <time>2021-02-19T13:19:26Z</time>
      </trkpt>
      <trkpt lat="43.61135" lon="6.06053">
        <ele>585.8</ele>
        <time>2021-02-19T13:19:27Z</time>
      </trkpt>
      <trkpt lat="43.61138" lon="6.0605">
        <ele>586.2</ele>
        <time>2021-02-19T13:19:28Z</time>
      </trkpt>
      <trkpt lat="43.61141" lon="6.06048">
        <ele>586.4</ele>
        <time>2021-02-19T13:19:29Z</time>
      </trkpt>
      <trkpt lat="43.61144" lon="6.06046">
        <ele>587</ele>
        <time>2021-02-19T13:19:30Z</time>
      </trkpt>
      <trkpt lat="43.61147" lon="6.06044">
        <ele>587.8</ele>
        <time>2021-02-19T13:19:31Z</time>
      </trkpt>
      <trkpt lat="43.61151" lon="6.06041">
        <ele>588.4</ele>
        <time>2021-02-19T13:19:32Z</time>
      </trkpt>
      <trkpt lat="43.61154" lon="6.06039">
        <ele>589</ele>
        <time>2021-02-19T13:19:33Z</time>
      </trkpt>
      <trkpt lat="43.61157" lon="6.06036">
        <ele>589.4</ele>
        <time>2021-02-19T13:19:34Z</time>
      </trkpt>
      <trkpt lat="43.61161" lon="6.06033">
        <ele>589.8</ele>
        <time>2021-02-19T13:19:35Z</time>
      </trkpt>
      <trkpt lat="43.61164" lon="6.06031">
        <ele>590.2</ele>
        <time>2021-02-19T13:19:36Z</time>
      </trkpt>
      <trkpt lat="43.61168" lon="6.06028">
        <ele>590.6</ele>
        <time>2021-02-19T13:19:37Z</time>
      </trkpt>
      <trkpt lat="43.61171" lon="6.06026">
        <ele>591</ele>
        <time>2021-02-19T13:19:38Z</time>
      </trkpt>
      <trkpt lat="43.61174" lon="6.06024">
        <ele>591.8</ele>
        <time>2021-02-19T13:19:39Z</time>
      </trkpt>
      <trkpt lat="43.61178" lon="6.06021">
        <ele>592.2</ele>
        <time>2021-02-19T13:19:40Z</time>
      </trkpt>
      <trkpt lat="43.61181" lon="6.06019">
        <ele>592.8</ele>
        <time>2021-02-19T13:19:41Z</time>
      </trkpt>
      <trkpt lat="43.61183" lon="6.06016">
        <ele>593.8</ele>
        <time>2021-02-19T13:19:42Z</time>
      </trkpt>
      <trkpt lat="43.61186" lon="6.06013">
        <ele>594.2</ele>
        <time>2021-02-19T13:19:43Z</time>
      </trkpt>
      <trkpt lat="43.61189" lon="6.0601">
        <ele>594.6</ele>
        <time>2021-02-19T13:19:44Z</time>
      </trkpt>
      <trkpt lat="43.61192" lon="6.06008">
        <ele>595</ele>
        <time>2021-02-19T13:19:45Z</time>
      </trkpt>
      <trkpt lat="43.61195" lon="6.06005">
        <ele>595.4</ele>
        <time>2021-02-19T13:19:46Z</time>
      </trkpt>
      <trkpt lat="43.61198" lon="6.06002">
        <ele>596</ele>
        <time>2021-02-19T13:19:47Z</time>
      </trkpt>
      <trkpt lat="43.61201" lon="6.06">
        <ele>596.6</ele>
        <time>2021-02-19T13:19:48Z</time>
      </trkpt>
      <trkpt lat="43.61204" lon="6.05997">
        <ele>597.2</ele>
        <time>2021-02-19T13:19:49Z</time>
      </trkpt>
      <trkpt lat="43.61207" lon="6.05994">
        <ele>597.6</ele>
        <time>2021-02-19T13:19:50Z</time>
      </trkpt>
      <trkpt lat="43.6121" lon="6.05991">
        <ele>598</ele>
        <time>2021-02-19T13:19:51Z</time>
      </trkpt>
      <trkpt lat="43.61213" lon="6.05989">
        <ele>598.6</ele>
        <time>2021-02-19T13:19:52Z</time>
      </trkpt>
      <trkpt lat="43.61216" lon="6.05986">
        <ele>598.8</ele>
        <time>2021-02-19T13:19:53Z</time>
      </trkpt>
      <trkpt lat="43.61219" lon="6.05984">
        <ele>599.4</ele>
        <time>2021-02-19T13:19:54Z</time>
      </trkpt>
      <trkpt lat="43.61222" lon="6.05981">
        <ele>600</ele>
        <time>2021-02-19T13:19:55Z</time>
      </trkpt>
      <trkpt lat="43.61225" lon="6.05979">
        <ele>600.4</ele>
        <time>2021-02-19T13:19:56Z</time>
      </trkpt>
      <trkpt lat="43.61228" lon="6.05976">
        <ele>600.8</ele>
        <time>2021-02-19T13:19:57Z</time>
      </trkpt>
      <trkpt lat="43.61231" lon="6.05974">
        <ele>601.2</ele>
        <time>2021-02-19T13:19:58Z</time>
      </trkpt>
      <trkpt lat="43.61234" lon="6.05971">
        <ele>602</ele>
        <time>2021-02-19T13:19:59Z</time>
      </trkpt>
      <trkpt lat="43.61237" lon="6.05968">
        <ele>602.4</ele>
        <time>2021-02-19T13:20:00Z</time>
      </trkpt>
      <trkpt lat="43.61239" lon="6.05966">
        <ele>603.2</ele>
        <time>2021-02-19T13:20:01Z</time>
      </trkpt>
      <trkpt lat="43.61242" lon="6.05963">
        <ele>603.8</ele>
        <time>2021-02-19T13:20:02Z</time>
      </trkpt>
      <trkpt lat="43.61245" lon="6.05961">
        <ele>604.6</ele>
        <time>2021-02-19T13:20:03Z</time>
      </trkpt>
      <trkpt lat="43.61248" lon="6.05958">
        <ele>604.8</ele>
        <time>2021-02-19T13:20:04Z</time>
      </trkpt>
      <trkpt lat="43.6125" lon="6.05955">
        <ele>605.2</ele>
        <time>2021-02-19T13:20:05Z</time>
      </trkpt>
      <trkpt lat="43.61253" lon="6.05953">
        <ele>605.4</ele>
        <time>2021-02-19T13:20:06Z</time>
      </trkpt>
      <trkpt lat="43.61256" lon="6.0595">
        <ele>606</ele>
        <time>2021-02-19T13:20:07Z</time>
      </trkpt>
      <trkpt lat="43.61258" lon="6.05947">
        <ele>606.6</ele>
        <time>2021-02-19T13:20:08Z</time>
      </trkpt>
      <trkpt lat="43.61261" lon="6.05944">
        <ele>607.2</ele>
        <time>2021-02-19T13:20:09Z</time>
      </trkpt>
      <trkpt lat="43.61263" lon="6.05941">
        <ele>607.6</ele>
        <time>2021-02-19T13:20:10Z</time>
      </trkpt>
      <trkpt lat="43.61266" lon="6.05938">
        <ele>608.4</ele>
        <time>2021-02-19T13:20:11Z</time>
      </trkpt>
      <trkpt lat="43.61268" lon="6.05934">
        <ele>608.8</ele>
        <time>2021-02-19T13:20:12Z</time>
      </trkpt>
      <trkpt lat="43.61271" lon="6.05931">
        <ele>609</ele>
        <time>2021-02-19T13:20:13Z</time>
      </trkpt>
      <trkpt lat="43.61273" lon="6.05927">
        <ele>609.6</ele>
        <time>2021-02-19T13:20:14Z</time>
      </trkpt>
      <trkpt lat="43.61276" lon="6.05925">
        <ele>609.8</ele>
        <time>2021-02-19T13:20:15Z</time>
      </trkpt>
      <trkpt lat="43.61279" lon="6.05922">
        <ele>610.2</ele>
        <time>2021-02-19T13:20:16Z</time>
      </trkpt>
      <trkpt lat="43.61281" lon="6.05919">
        <ele>610.6</ele>
        <time>2021-02-19T13:20:17Z</time>
      </trkpt>
      <trkpt lat="43.61284" lon="6.05916">
        <ele>611.2</ele>
        <time>2021-02-19T13:20:18Z</time>
      </trkpt>
      <trkpt lat="43.61286" lon="6.05914">
        <ele>612</ele>
        <time>2021-02-19T13:20:19Z</time>
      </trkpt>
      <trkpt lat="43.61289" lon="6.05911">
        <ele>612.4</ele>
        <time>2021-02-19T13:20:20Z</time>
      </trkpt>
      <trkpt lat="43.61292" lon="6.05909">
        <ele>612.8</ele>
        <time>2021-02-19T13:20:21Z</time>
      </trkpt>
      <trkpt lat="43.61294" lon="6.05906">
        <ele>613.2</ele>
        <time>2021-02-19T13:20:22Z</time>
      </trkpt>
      <trkpt lat="43.61297" lon="6.05904">
        <ele>613.4</ele>
        <time>2021-02-19T13:20:23Z</time>
      </trkpt>
      <trkpt lat="43.61299" lon="6.05901">
        <ele>614</ele>
        <time>2021-02-19T13:20:24Z</time>
      </trkpt>
      <trkpt lat="43.61301" lon="6.05899">
        <ele>614.8</ele>
        <time>2021-02-19T13:20:25Z</time>
      </trkpt>
      <trkpt lat="43.61303" lon="6.05896">
        <ele>615.2</ele>
        <time>2021-02-19T13:20:26Z</time>
      </trkpt>
      <trkpt lat="43.61305" lon="6.05893">
        <ele>615.8</ele>
        <time>2021-02-19T13:20:27Z</time>
      </trkpt>
      <trkpt lat="43.61307" lon="6.0589">
        <ele>616.4</ele>
        <time>2021-02-19T13:20:28Z</time>
      </trkpt>
      <trkpt lat="43.61309" lon="6.05888">
        <ele>617</ele>
        <time>2021-02-19T13:20:29Z</time>
      </trkpt>
      <trkpt lat="43.61311" lon="6.05885">
        <ele>617.8</ele>
        <time>2021-02-19T13:20:30Z</time>
      </trkpt>
      <trkpt lat="43.61313" lon="6.05883">
        <ele>618.4</ele>
        <time>2021-02-19T13:20:31Z</time>
      </trkpt>
      <trkpt lat="43.61316" lon="6.0588">
        <ele>618.8</ele>
        <time>2021-02-19T13:20:32Z</time>
      </trkpt>
      <trkpt lat="43.61318" lon="6.05878">
        <ele>619.4</ele>
        <time>2021-02-19T13:20:33Z</time>
      </trkpt>
      <trkpt lat="43.6132" lon="6.05875">
        <ele>619.8</ele>
        <time>2021-02-19T13:20:34Z</time>
      </trkpt>
      <trkpt lat="43.61322" lon="6.05873">
        <ele>620.8</ele>
        <time>2021-02-19T13:20:35Z</time>
      </trkpt>
      <trkpt lat="43.61324" lon="6.05871">
        <ele>621.4</ele>
        <time>2021-02-19T13:20:36Z</time>
      </trkpt>
      <trkpt lat="43.61326" lon="6.05868">
        <ele>622</ele>
        <time>2021-02-19T13:20:37Z</time>
      </trkpt>
      <trkpt lat="43.61329" lon="6.05866">
        <ele>622.4</ele>
        <time>2021-02-19T13:20:38Z</time>
      </trkpt>
      <trkpt lat="43.61331" lon="6.05864">
        <ele>622.8</ele>
        <time>2021-02-19T13:20:39Z</time>
      </trkpt>
      <trkpt lat="43.61333" lon="6.05863">
        <ele>623.2</ele>
        <time>2021-02-19T13:20:40Z</time>
      </trkpt>
      <trkpt lat="43.61336" lon="6.05861">
        <ele>623.6</ele>
        <time>2021-02-19T13:20:41Z</time>
      </trkpt>
      <trkpt lat="43.61339" lon="6.0586">
        <ele>624</ele>
        <time>2021-02-19T13:20:42Z</time>
      </trkpt>
      <trkpt lat="43.61341" lon="6.05859">
        <ele>624.6</ele>
        <time>2021-02-19T13:20:43Z</time>
      </trkpt>
      <trkpt lat="43.61344" lon="6.05859">
        <ele>625.2</ele>
        <time>2021-02-19T13:20:44Z</time>
      </trkpt>
      <trkpt lat="43.61347" lon="6.05859">
        <ele>626</ele>
        <time>2021-02-19T13:20:45Z</time>
      </trkpt>
      <trkpt lat="43.6135" lon="6.05859">
        <ele>626.4</ele>
        <time>2021-02-19T13:20:46Z</time>
      </trkpt>
      <trkpt lat="43.61353" lon="6.05858">
        <ele>627</ele>
        <time>2021-02-19T13:20:47Z</time>
      </trkpt>
      <trkpt lat="43.61356" lon="6.05858">
        <ele>627.4</ele>
        <time>2021-02-19T13:20:48Z</time>
      </trkpt>
      <trkpt lat="43.61359" lon="6.05857">
        <ele>627.6</ele>
        <time>2021-02-19T13:20:49Z</time>
      </trkpt>
      <trkpt lat="43.61362" lon="6.05857">
        <ele>628.4</ele>
        <time>2021-02-19T13:20:50Z</time>
      </trkpt>
      <trkpt lat="43.61365" lon="6.05855">
        <ele>628.8</ele>
        <time>2021-02-19T13:20:51Z</time>
      </trkpt>
      <trkpt lat="43.61368" lon="6.05854">
        <ele>629</ele>
        <time>2021-02-19T13:20:52Z</time>
      </trkpt>
      <trkpt lat="43.61371" lon="6.05852">
        <ele>629.2</ele>
        <time>2021-02-19T13:20:53Z</time>
      </trkpt>
      <trkpt lat="43.61374" lon="6.0585">
        <ele>629.4</ele>
        <time>2021-02-19T13:20:54Z</time>
      </trkpt>
      <trkpt lat="43.61376" lon="6.05848">
        <ele>629.6</ele>
        <time>2021-02-19T13:20:55Z</time>
      </trkpt>
      <trkpt lat="43.61379" lon="6.05846">
        <ele>630</ele>
        <time>2021-02-19T13:20:56Z</time>
      </trkpt>
      <trkpt lat="43.61382" lon="6.05843">
        <ele>630.2</ele>
        <time>2021-02-19T13:20:57Z</time>
      </trkpt>
      <trkpt lat="43.61384" lon="6.05841">
        <ele>630.6</ele>
        <time>2021-02-19T13:20:58Z</time>
      </trkpt>
      <trkpt lat="43.61387" lon="6.05839">
        <ele>631</ele>
        <time>2021-02-19T13:20:59Z</time>
      </trkpt>
      <trkpt lat="43.61389" lon="6.05837">
        <ele>631.2</ele>
        <time>2021-02-19T13:21:00Z</time>
      </trkpt>
      <trkpt lat="43.61392" lon="6.05835">
        <ele>631.6</ele>
        <time>2021-02-19T13:21:01Z</time>
      </trkpt>
      <trkpt lat="43.61394" lon="6.05833">
        <ele>632</ele>
        <time>2021-02-19T13:21:02Z</time>
      </trkpt>
      <trkpt lat="43.61397" lon="6.0583">
        <ele>632.4</ele>
        <time>2021-02-19T13:21:03Z</time>
      </trkpt>
      <trkpt lat="43.61399" lon="6.05829">
        <ele>632.6</ele>
        <time>2021-02-19T13:21:04Z</time>
      </trkpt>
      <trkpt lat="43.61402" lon="6.05827">
        <ele>632.8</ele>
        <time>2021-02-19T13:21:05Z</time>
      </trkpt>
      <trkpt lat="43.61404" lon="6.05825">
        <ele>633.2</ele>
        <time>2021-02-19T13:21:06Z</time>
      </trkpt>
      <trkpt lat="43.61407" lon="6.05823">
        <ele>633.8</ele>
        <time>2021-02-19T13:21:07Z</time>
      </trkpt>
      <trkpt lat="43.6141" lon="6.05821">
        <ele>634.2</ele>
        <time>2021-02-19T13:21:08Z</time>
      </trkpt>
      <trkpt lat="43.61412" lon="6.05819">
        <ele>634.8</ele>
        <time>2021-02-19T13:21:09Z</time>
      </trkpt>
      <trkpt lat="43.61415" lon="6.05818">
        <ele>635.2</ele>
        <time>2021-02-19T13:21:10Z</time>
      </trkpt>
      <trkpt lat="43.61418" lon="6.05816">
        <ele>635.6</ele>
        <time>2021-02-19T13:21:11Z</time>
      </trkpt>
      <trkpt lat="43.6142" lon="6.05815">
        <ele>636</ele>
        <time>2021-02-19T13:21:12Z</time>
      </trkpt>
      <trkpt lat="43.61423" lon="6.05814">
        <ele>636.4</ele>
        <time>2021-02-19T13:21:13Z</time>
      </trkpt>
      <trkpt lat="43.61425" lon="6.05813">
        <ele>636.8</ele>
        <time>2021-02-19T13:21:14Z</time>
      </trkpt>
      <trkpt lat="43.61427" lon="6.05812">
        <ele>637.2</ele>
        <time>2021-02-19T13:21:15Z</time>
      </trkpt>
      <trkpt lat="43.61429" lon="6.05812">
        <ele>637.8</ele>
        <time>2021-02-19T13:21:16Z</time>
      </trkpt>
      <trkpt lat="43.61431" lon="6.05811">
        <ele>638.4</ele>
        <time>2021-02-19T13:21:17Z</time>
      </trkpt>
      <trkpt lat="43.61433" lon="6.0581">
        <ele>639</ele>
        <time>2021-02-19T13:21:18Z</time>
      </trkpt>
      <trkpt lat="43.61435" lon="6.05809">
        <ele>639.8</ele>
        <time>2021-02-19T13:21:19Z</time>
      </trkpt>
      <trkpt lat="43.61438" lon="6.05809">
        <ele>640.6</ele>
        <time>2021-02-19T13:21:20Z</time>
      </trkpt>
      <trkpt lat="43.6144" lon="6.05809">
        <ele>641.6</ele>
        <time>2021-02-19T13:21:21Z</time>
      </trkpt>
      <trkpt lat="43.61442" lon="6.05809">
        <ele>642.4</ele>
        <time>2021-02-19T13:21:22Z</time>
      </trkpt>
      <trkpt lat="43.61444" lon="6.05809">
        <ele>643.2</ele>
        <time>2021-02-19T13:21:23Z</time>
      </trkpt>
      <trkpt lat="43.61447" lon="6.05808">
        <ele>643.8</ele>
        <time>2021-02-19T13:21:24Z</time>
      </trkpt>
      <trkpt lat="43.61449" lon="6.05807">
        <ele>644.4</ele>
        <time>2021-02-19T13:21:25Z</time>
      </trkpt>
      <trkpt lat="43.61451" lon="6.05806">
        <ele>645.4</ele>
        <time>2021-02-19T13:21:26Z</time>
      </trkpt>
      <trkpt lat="43.61453" lon="6.05804">
        <ele>646.2</ele>
        <time>2021-02-19T13:21:27Z</time>
      </trkpt>
      <trkpt lat="43.61455" lon="6.05802">
        <ele>646.8</ele>
        <time>2021-02-19T13:21:28Z</time>
      </trkpt>
      <trkpt lat="43.61456" lon="6.05798">
        <ele>647.2</ele>
        <time>2021-02-19T13:21:29Z</time>
      </trkpt>
      <trkpt lat="43.61456" lon="6.05794">
        <ele>647.6</ele>
        <time>2021-02-19T13:21:30Z</time>
      </trkpt>
      <trkpt lat="43.61456" lon="6.05791">
        <ele>648.4</ele>
        <time>2021-02-19T13:21:31Z</time>
      </trkpt>
      <trkpt lat="43.61456" lon="6.05786">
        <ele>648.8</ele>
        <time>2021-02-19T13:21:32Z</time>
      </trkpt>
      <trkpt lat="43.61456" lon="6.05782">
        <ele>649</ele>
        <time>2021-02-19T13:21:33Z</time>
      </trkpt>
      <trkpt lat="43.61456" lon="6.05778">
        <ele>649.6</ele>
        <time>2021-02-19T13:21:34Z</time>
      </trkpt>
      <trkpt lat="43.61456" lon="6.05774">
        <ele>650</ele>
        <time>2021-02-19T13:21:35Z</time>
      </trkpt>
      <trkpt lat="43.61457" lon="6.05769">
        <ele>650.4</ele>
        <time>2021-02-19T13:21:36Z</time>
      </trkpt>
      <trkpt lat="43.61458" lon="6.05765">
        <ele>650.8</ele>
        <time>2021-02-19T13:21:37Z</time>
      </trkpt>
      <trkpt lat="43.61458" lon="6.05762">
        <ele>651.2</ele>
        <time>2021-02-19T13:21:38Z</time>
      </trkpt>
      <trkpt lat="43.61459" lon="6.05758">
        <ele>651.6</ele>
        <time>2021-02-19T13:21:39Z</time>
      </trkpt>
      <trkpt lat="43.6146" lon="6.05754">
        <ele>652</ele>
        <time>2021-02-19T13:21:40Z</time>
      </trkpt>
      <trkpt lat="43.61461" lon="6.0575">
        <ele>652.2</ele>
        <time>2021-02-19T13:21:41Z</time>
      </trkpt>
      <trkpt lat="43.61462" lon="6.05746">
        <ele>652.6</ele>
        <time>2021-02-19T13:21:42Z</time>
      </trkpt>
      <trkpt lat="43.61464" lon="6.05742">
        <ele>653</ele>
        <time>2021-02-19T13:21:43Z</time>
      </trkpt>
      <trkpt lat="43.61465" lon="6.05737">
        <ele>653.4</ele>
        <time>2021-02-19T13:21:44Z</time>
      </trkpt>
      <trkpt lat="43.61466" lon="6.05733">
        <ele>653.6</ele>
        <time>2021-02-19T13:21:45Z</time>
      </trkpt>
      <trkpt lat="43.61467" lon="6.05729">
        <ele>654</ele>
        <time>2021-02-19T13:21:46Z</time>
      </trkpt>
      <trkpt lat="43.61469" lon="6.05725">
        <ele>654.6</ele>
        <time>2021-02-19T13:21:47Z</time>
      </trkpt>
      <trkpt lat="43.6147" lon="6.05721">
        <ele>655</ele>
        <time>2021-02-19T13:21:48Z</time>
      </trkpt>
      <trkpt lat="43.61472" lon="6.05717">
        <ele>655.2</ele>
        <time>2021-02-19T13:21:49Z</time>
      </trkpt>
      <trkpt lat="43.61474" lon="6.05713">
        <ele>655.6</ele>
        <time>2021-02-19T13:21:50Z</time>
      </trkpt>
      <trkpt lat="43.61476" lon="6.0571">
        <ele>656</ele>
        <time>2021-02-19T13:21:51Z</time>
      </trkpt>
      <trkpt lat="43.61478" lon="6.05707">
        <ele>656.4</ele>
        <time>2021-02-19T13:21:52Z</time>
      </trkpt>
      <trkpt lat="43.61481" lon="6.05704">
        <ele>656.8</ele>
        <time>2021-02-19T13:21:53Z</time>
      </trkpt>
      <trkpt lat="43.61484" lon="6.05702">
        <ele>657.2</ele>
        <time>2021-02-19T13:21:54Z</time>
      </trkpt>
      <trkpt lat="43.61486" lon="6.05701">
        <ele>657.8</ele>
        <time>2021-02-19T13:21:55Z</time>
      </trkpt>
      <trkpt lat="43.61489" lon="6.057">
        <ele>658.2</ele>
        <time>2021-02-19T13:21:56Z</time>
      </trkpt>
      <trkpt lat="43.61492" lon="6.05699">
        <ele>658.8</ele>
        <time>2021-02-19T13:21:57Z</time>
      </trkpt>
      <trkpt lat="43.61494" lon="6.05698">
        <ele>659.4</ele>
        <time>2021-02-19T13:21:58Z</time>
      </trkpt>
      <trkpt lat="43.61497" lon="6.05697">
        <ele>660</ele>
        <time>2021-02-19T13:21:59Z</time>
      </trkpt>
      <trkpt lat="43.615" lon="6.05697">
        <ele>660.4</ele>
        <time>2021-02-19T13:22:00Z</time>
      </trkpt>
      <trkpt lat="43.61503" lon="6.05697">
        <ele>661</ele>
        <time>2021-02-19T13:22:01Z</time>
      </trkpt>
      <trkpt lat="43.61506" lon="6.05697">
        <ele>661.6</ele>
        <time>2021-02-19T13:22:02Z</time>
      </trkpt>
      <trkpt lat="43.61509" lon="6.05697">
        <ele>662.2</ele>
        <time>2021-02-19T13:22:03Z</time>
      </trkpt>
      <trkpt lat="43.61511" lon="6.05698">
        <ele>662.6</ele>
        <time>2021-02-19T13:22:04Z</time>
      </trkpt>
      <trkpt lat="43.61514" lon="6.05699">
        <ele>663.2</ele>
        <time>2021-02-19T13:22:05Z</time>
      </trkpt>
      <trkpt lat="43.61517" lon="6.057">
        <ele>663.6</ele>
        <time>2021-02-19T13:22:06Z</time>
      </trkpt>
      <trkpt lat="43.61521" lon="6.05701">
        <ele>664</ele>
        <time>2021-02-19T13:22:07Z</time>
      </trkpt>
      <trkpt lat="43.61524" lon="6.05702">
        <ele>664.4</ele>
        <time>2021-02-19T13:22:08Z</time>
      </trkpt>
      <trkpt lat="43.61527" lon="6.05703">
        <ele>665</ele>
        <time>2021-02-19T13:22:09Z</time>
      </trkpt>
      <trkpt lat="43.6153" lon="6.05704">
        <ele>665.4</ele>
        <time>2021-02-19T13:22:10Z</time>
      </trkpt>
      <trkpt lat="43.61533" lon="6.05705">
        <ele>665.8</ele>
        <time>2021-02-19T13:22:11Z</time>
      </trkpt>
      <trkpt lat="43.61536" lon="6.05707">
        <ele>666</ele>
        <time>2021-02-19T13:22:12Z</time>
      </trkpt>
      <trkpt lat="43.61539" lon="6.05709">
        <ele>666.6</ele>
        <time>2021-02-19T13:22:13Z</time>
      </trkpt>
      <trkpt lat="43.61543" lon="6.05711">
        <ele>667.2</ele>
        <time>2021-02-19T13:22:14Z</time>
      </trkpt>
      <trkpt lat="43.61546" lon="6.05713">
        <ele>667.8</ele>
        <time>2021-02-19T13:22:15Z</time>
      </trkpt>
      <trkpt lat="43.61548" lon="6.05716">
        <ele>668.2</ele>
        <time>2021-02-19T13:22:16Z</time>
      </trkpt>
      <trkpt lat="43.61551" lon="6.05718">
        <ele>668.6</ele>
        <time>2021-02-19T13:22:17Z</time>
      </trkpt>
      <trkpt lat="43.61554" lon="6.05721">
        <ele>669.2</ele>
        <time>2021-02-19T13:22:18Z</time>
      </trkpt>
      <trkpt lat="43.61556" lon="6.05723">
        <ele>669.6</ele>
        <time>2021-02-19T13:22:19Z</time>
      </trkpt>
      <trkpt lat="43.61559" lon="6.05726">
        <ele>670</ele>
        <time>2021-02-19T13:22:20Z</time>
      </trkpt>
      <trkpt lat="43.61561" lon="6.05729">
        <ele>670.6</ele>
        <time>2021-02-19T13:22:21Z</time>
      </trkpt>
      <trkpt lat="43.61564" lon="6.05732">
        <ele>671.2</ele>
        <time>2021-02-19T13:22:22Z</time>
      </trkpt>
      <trkpt lat="43.61566" lon="6.05734">
        <ele>671.4</ele>
        <time>2021-02-19T13:22:23Z</time>
      </trkpt>
      <trkpt lat="43.61569" lon="6.05737">
        <ele>671.6</ele>
        <time>2021-02-19T13:22:24Z</time>
      </trkpt>
      <trkpt lat="43.61572" lon="6.05739">
        <ele>672</ele>
        <time>2021-02-19T13:22:25Z</time>
      </trkpt>
      <trkpt lat="43.61575" lon="6.05741">
        <ele>672.4</ele>
        <time>2021-02-19T13:22:26Z</time>
      </trkpt>
      <trkpt lat="43.61578" lon="6.05742">
        <ele>673</ele>
        <time>2021-02-19T13:22:27Z</time>
      </trkpt>
      <trkpt lat="43.61581" lon="6.05743">
        <ele>673.4</ele>
        <time>2021-02-19T13:22:28Z</time>
      </trkpt>
      <trkpt lat="43.61584" lon="6.05743">
        <ele>674</ele>
        <time>2021-02-19T13:22:29Z</time>
      </trkpt>
      <trkpt lat="43.61587" lon="6.05743">
        <ele>674.2</ele>
        <time>2021-02-19T13:22:30Z</time>
      </trkpt>
      <trkpt lat="43.6159" lon="6.05743">
        <ele>674.8</ele>
        <time>2021-02-19T13:22:31Z</time>
      </trkpt>
      <trkpt lat="43.61593" lon="6.05743">
        <ele>675.2</ele>
        <time>2021-02-19T13:22:32Z</time>
      </trkpt>
      <trkpt lat="43.61596" lon="6.05742">
        <ele>675.6</ele>
        <time>2021-02-19T13:22:33Z</time>
      </trkpt>
      <trkpt lat="43.61599" lon="6.05741">
        <ele>676</ele>
        <time>2021-02-19T13:22:34Z</time>
      </trkpt>
      <trkpt lat="43.61602" lon="6.05741">
        <ele>676.4</ele>
        <time>2021-02-19T13:22:35Z</time>
      </trkpt>
      <trkpt lat="43.61605" lon="6.0574">
        <ele>676.8</ele>
        <time>2021-02-19T13:22:36Z</time>
      </trkpt>
      <trkpt lat="43.61609" lon="6.05739">
        <ele>677</ele>
        <time>2021-02-19T13:22:37Z</time>
      </trkpt>
      <trkpt lat="43.61612" lon="6.05738">
        <ele>677.2</ele>
        <time>2021-02-19T13:22:38Z</time>
      </trkpt>
      <trkpt lat="43.61616" lon="6.05737">
        <ele>677.8</ele>
        <time>2021-02-19T13:22:39Z</time>
      </trkpt>
      <trkpt lat="43.61619" lon="6.05736">
        <ele>678.2</ele>
        <time>2021-02-19T13:22:40Z</time>
      </trkpt>
      <trkpt lat="43.61623" lon="6.05735">
        <ele>678.4</ele>
        <time>2021-02-19T13:22:41Z</time>
      </trkpt>
      <trkpt lat="43.61627" lon="6.05735">
        <ele>678.6</ele>
        <time>2021-02-19T13:22:42Z</time>
      </trkpt>
      <trkpt lat="43.61631" lon="6.05734">
        <ele>679</ele>
        <time>2021-02-19T13:22:43Z</time>
      </trkpt>
      <trkpt lat="43.61635" lon="6.05734">
        <ele>679.4</ele>
        <time>2021-02-19T13:22:44Z</time>
      </trkpt>
      <trkpt lat="43.61639" lon="6.05733">
        <ele>679.6</ele>
        <time>2021-02-19T13:22:45Z</time>
      </trkpt>
      <trkpt lat="43.61644" lon="6.05732">
        <ele>680</ele>
        <time>2021-02-19T13:22:46Z</time>
      </trkpt>
      <trkpt lat="43.61648" lon="6.05731">
        <ele>680.2</ele>
        <time>2021-02-19T13:22:47Z</time>
      </trkpt>
      <trkpt lat="43.61652" lon="6.0573">
        <ele>680.6</ele>
        <time>2021-02-19T13:22:48Z</time>
      </trkpt>
      <trkpt lat="43.61657" lon="6.05729">
        <ele>680.8</ele>
        <time>2021-02-19T13:22:49Z</time>
      </trkpt>
      <trkpt lat="43.61661" lon="6.05729">
        <ele>681.2</ele>
        <time>2021-02-19T13:22:50Z</time>
      </trkpt>
      <trkpt lat="43.61665" lon="6.05728">
        <ele>681.6</ele>
        <time>2021-02-19T13:22:51Z</time>
      </trkpt>
      <trkpt lat="43.6167" lon="6.05727">
        <ele>682</ele>
        <time>2021-02-19T13:22:52Z</time>
      </trkpt>
      <trkpt lat="43.61674" lon="6.05726">
        <ele>682.4</ele>
        <time>2021-02-19T13:22:53Z</time>
      </trkpt>
      <trkpt lat="43.61678" lon="6.05725">
        <ele>682.6</ele>
        <time>2021-02-19T13:22:54Z</time>
      </trkpt>
      <trkpt lat="43.61682" lon="6.05725">
        <ele>683.2</ele>
        <time>2021-02-19T13:22:55Z</time>
      </trkpt>
      <trkpt lat="43.61686" lon="6.05723">
        <ele>683.4</ele>
        <time>2021-02-19T13:22:56Z</time>
      </trkpt>
      <trkpt lat="43.6169" lon="6.05722">
        <ele>683.6</ele>
        <time>2021-02-19T13:22:57Z</time>
      </trkpt>
      <trkpt lat="43.61694" lon="6.05721">
        <ele>684</ele>
        <time>2021-02-19T13:22:58Z</time>
      </trkpt>
      <trkpt lat="43.61699" lon="6.0572">
        <ele>684.6</ele>
        <time>2021-02-19T13:22:59Z</time>
      </trkpt>
      <trkpt lat="43.61703" lon="6.05718">
        <ele>685</ele>
        <time>2021-02-19T13:23:00Z</time>
      </trkpt>
      <trkpt lat="43.61707" lon="6.05716">
        <ele>685.2</ele>
        <time>2021-02-19T13:23:01Z</time>
      </trkpt>
      <trkpt lat="43.61711" lon="6.05715">
        <ele>685.4</ele>
        <time>2021-02-19T13:23:02Z</time>
      </trkpt>
      <trkpt lat="43.61714" lon="6.05714">
        <ele>685.8</ele>
        <time>2021-02-19T13:23:03Z</time>
      </trkpt>
      <trkpt lat="43.61717" lon="6.05712">
        <ele>686</ele>
        <time>2021-02-19T13:23:04Z</time>
      </trkpt>
      <trkpt lat="43.6172" lon="6.05712">
        <ele>686.2</ele>
        <time>2021-02-19T13:23:05Z</time>
      </trkpt>
      <trkpt lat="43.61723" lon="6.05711">
        <ele>686.4</ele>
        <time>2021-02-19T13:23:06Z</time>
      </trkpt>
      <trkpt lat="43.61726" lon="6.05711">
        <ele>686.8</ele>
        <time>2021-02-19T13:23:07Z</time>
      </trkpt>
      <trkpt lat="43.61729" lon="6.0571">
        <ele>687</ele>
        <time>2021-02-19T13:23:08Z</time>
      </trkpt>
      <trkpt lat="43.61732" lon="6.05709">
        <ele>687.2</ele>
        <time>2021-02-19T13:23:09Z</time>
      </trkpt>
      <trkpt lat="43.61734" lon="6.05707">
        <ele>687.2</ele>
        <time>2021-02-19T13:23:10Z</time>
      </trkpt>
      <trkpt lat="43.61736" lon="6.05705">
        <ele>687.2</ele>
        <time>2021-02-19T13:23:11Z</time>
      </trkpt>
      <trkpt lat="43.61738" lon="6.05702">
        <ele>687.2</ele>
        <time>2021-02-19T13:23:12Z</time>
      </trkpt>
      <trkpt lat="43.61739" lon="6.05699">
        <ele>687.4</ele>
        <time>2021-02-19T13:23:13Z</time>
      </trkpt>
      <trkpt lat="43.6174" lon="6.05695">
        <ele>687.4</ele>
        <time>2021-02-19T13:23:14Z</time>
      </trkpt>
      <trkpt lat="43.61739" lon="6.05692">
        <ele>687.4</ele>
        <time>2021-02-19T13:23:15Z</time>
      </trkpt>
      <trkpt lat="43.61738" lon="6.05688">
        <ele>687.6</ele>
        <time>2021-02-19T13:23:16Z</time>
      </trkpt>
      <trkpt lat="43.61736" lon="6.05686">
        <ele>687.8</ele>
        <time>2021-02-19T13:23:17Z</time>
      </trkpt>
      <trkpt lat="43.61734" lon="6.05684">
        <ele>687.8</ele>
        <time>2021-02-19T13:23:18Z</time>
      </trkpt>
      <trkpt lat="43.61732" lon="6.05683">
        <ele>688</ele>
        <time>2021-02-19T13:23:19Z</time>
      </trkpt>
      <trkpt lat="43.6173" lon="6.05684">
        <ele>688</ele>
        <time>2021-02-19T13:23:20Z</time>
      </trkpt>
      <trkpt lat="43.61728" lon="6.05685">
        <ele>688</ele>
        <time>2021-02-19T13:23:21Z</time>
      </trkpt>
      <trkpt lat="43.61726" lon="6.05687">
        <ele>688.2</ele>
        <time>2021-02-19T13:23:22Z</time>
      </trkpt>
      <trkpt lat="43.61724" lon="6.0569">
        <ele>688</ele>
        <time>2021-02-19T13:23:23Z</time>
      </trkpt>
      <trkpt lat="43.61723" lon="6.05693">
        <ele>688</ele>
        <time>2021-02-19T13:23:24Z</time>
      </trkpt>
      <trkpt lat="43.61723" lon="6.05697">
        <ele>687.8</ele>
        <time>2021-02-19T13:23:25Z</time>
      </trkpt>
      <trkpt lat="43.61723" lon="6.057">
        <ele>687.8</ele>
        <time>2021-02-19T13:23:26Z</time>
      </trkpt>
      <trkpt lat="43.61725" lon="6.05703">
        <ele>687.6</ele>
        <time>2021-02-19T13:23:27Z</time>
      </trkpt>
      <trkpt lat="43.61727" lon="6.05706">
        <ele>687.6</ele>
        <time>2021-02-19T13:23:28Z</time>
      </trkpt>
      <trkpt lat="43.61729" lon="6.05707">
        <ele>687.4</ele>
        <time>2021-02-19T13:23:29Z</time>
      </trkpt>
      <trkpt lat="43.61731" lon="6.05707">
        <ele>687.2</ele>
        <time>2021-02-19T13:23:30Z</time>
      </trkpt>
      <trkpt lat="43.61734" lon="6.05706">
        <ele>687.2</ele>
        <time>2021-02-19T13:23:31Z</time>
      </trkpt>
      <trkpt lat="43.61736" lon="6.05705">
        <ele>687.4</ele>
        <time>2021-02-19T13:23:32Z</time>
      </trkpt>
      <trkpt lat="43.61737" lon="6.05702">
        <ele>687.4</ele>
        <time>2021-02-19T13:23:33Z</time>
      </trkpt>
      <trkpt lat="43.61738" lon="6.05698">
        <ele>687.4</ele>
        <time>2021-02-19T13:23:34Z</time>
      </trkpt>
      <trkpt lat="43.61739" lon="6.05694">
        <ele>687.4</ele>
        <time>2021-02-19T13:23:35Z</time>
      </trkpt>
      <trkpt lat="43.61739" lon="6.0569">
        <ele>687.6</ele>
        <time>2021-02-19T13:23:36Z</time>
      </trkpt>
      <trkpt lat="43.61739" lon="6.05686">
        <ele>687.6</ele>
        <time>2021-02-19T13:23:37Z</time>
      </trkpt>
      <trkpt lat="43.61739" lon="6.05682">
        <ele>687.8</ele>
        <time>2021-02-19T13:23:38Z</time>
      </trkpt>
      <trkpt lat="43.6174" lon="6.05678">
        <ele>687.8</ele>
        <time>2021-02-19T13:23:39Z</time>
      </trkpt>
      <trkpt lat="43.61741" lon="6.05674">
        <ele>687.8</ele>
        <time>2021-02-19T13:23:40Z</time>
      </trkpt>
      <trkpt lat="43.61742" lon="6.0567">
        <ele>687.8</ele>
        <time>2021-02-19T13:23:41Z</time>
      </trkpt>
      <trkpt lat="43.61744" lon="6.05665">
        <ele>687.6</ele>
        <time>2021-02-19T13:23:42Z</time>
      </trkpt>
      <trkpt lat="43.61745" lon="6.05661">
        <ele>687.4</ele>
        <time>2021-02-19T13:23:43Z</time>
      </trkpt>
      <trkpt lat="43.61747" lon="6.05656">
        <ele>687.2</ele>
        <time>2021-02-19T13:23:44Z</time>
      </trkpt>
      <trkpt lat="43.61749" lon="6.05651">
        <ele>687.2</ele>
        <time>2021-02-19T13:23:45Z</time>
      </trkpt>
      <trkpt lat="43.61751" lon="6.05647">
        <ele>687</ele>
        <time>2021-02-19T13:23:46Z</time>
      </trkpt>
      <trkpt lat="43.61753" lon="6.05642">
        <ele>686.8</ele>
        <time>2021-02-19T13:23:47Z</time>
      </trkpt>
      <trkpt lat="43.61755" lon="6.05637">
        <ele>686.8</ele>
        <time>2021-02-19T13:23:48Z</time>
      </trkpt>
      <trkpt lat="43.61756" lon="6.05631">
        <ele>686.8</ele>
        <time>2021-02-19T13:23:49Z</time>
      </trkpt>
      <trkpt lat="43.61758" lon="6.05626">
        <ele>686.6</ele>
        <time>2021-02-19T13:23:50Z</time>
      </trkpt>
      <trkpt lat="43.6176" lon="6.05621">
        <ele>686.6</ele>
        <time>2021-02-19T13:23:51Z</time>
      </trkpt>
      <trkpt lat="43.61761" lon="6.05615">
        <ele>686.8</ele>
        <time>2021-02-19T13:23:52Z</time>
      </trkpt>
      <trkpt lat="43.61763" lon="6.05609">
        <ele>686.8</ele>
        <time>2021-02-19T13:23:53Z</time>
      </trkpt>
      <trkpt lat="43.61765" lon="6.05603">
        <ele>686.8</ele>
        <time>2021-02-19T13:23:54Z</time>
      </trkpt>
      <trkpt lat="43.61766" lon="6.05597">
        <ele>686.6</ele>
        <time>2021-02-19T13:23:55Z</time>
      </trkpt>
      <trkpt lat="43.61768" lon="6.0559">
        <ele>686.4</ele>
        <time>2021-02-19T13:23:56Z</time>
      </trkpt>
      <trkpt lat="43.6177" lon="6.05584">
        <ele>686.4</ele>
        <time>2021-02-19T13:23:57Z</time>
      </trkpt>
      <trkpt lat="43.61771" lon="6.05578">
        <ele>686.2</ele>
        <time>2021-02-19T13:23:58Z</time>
      </trkpt>
      <trkpt lat="43.61773" lon="6.05571">
        <ele>686.2</ele>
        <time>2021-02-19T13:23:59Z</time>
      </trkpt>
      <trkpt lat="43.61774" lon="6.05565">
        <ele>686</ele>
        <time>2021-02-19T13:24:00Z</time>
      </trkpt>
      <trkpt lat="43.61775" lon="6.05558">
        <ele>686</ele>
        <time>2021-02-19T13:24:01Z</time>
      </trkpt>
      <trkpt lat="43.61777" lon="6.05552">
        <ele>685.8</ele>
        <time>2021-02-19T13:24:02Z</time>
      </trkpt>
      <trkpt lat="43.61778" lon="6.05545">
        <ele>685.8</ele>
        <time>2021-02-19T13:24:03Z</time>
      </trkpt>
      <trkpt lat="43.61779" lon="6.05538">
        <ele>685.6</ele>
        <time>2021-02-19T13:24:04Z</time>
      </trkpt>
      <trkpt lat="43.6178" lon="6.05531">
        <ele>685.6</ele>
        <time>2021-02-19T13:24:05Z</time>
      </trkpt>
      <trkpt lat="43.61782" lon="6.05523">
        <ele>685.2</ele>
        <time>2021-02-19T13:24:06Z</time>
      </trkpt>
      <trkpt lat="43.61783" lon="6.05515">
        <ele>685</ele>
        <time>2021-02-19T13:24:07Z</time>
      </trkpt>
      <trkpt lat="43.61783" lon="6.05507">
        <ele>684.8</ele>
        <time>2021-02-19T13:24:08Z</time>
      </trkpt>
      <trkpt lat="43.61784" lon="6.05498">
        <ele>684.8</ele>
        <time>2021-02-19T13:24:09Z</time>
      </trkpt>
      <trkpt lat="43.61785" lon="6.05489">
        <ele>684.2</ele>
        <time>2021-02-19T13:24:10Z</time>
      </trkpt>
      <trkpt lat="43.61785" lon="6.0548">
        <ele>683.8</ele>
        <time>2021-02-19T13:24:11Z</time>
      </trkpt>
      <trkpt lat="43.61786" lon="6.0547">
        <ele>683.2</ele>
        <time>2021-02-19T13:24:12Z</time>
      </trkpt>
      <trkpt lat="43.61786" lon="6.0546">
        <ele>683</ele>
        <time>2021-02-19T13:24:13Z</time>
      </trkpt>
      <trkpt lat="43.61786" lon="6.0545">
        <ele>682.4</ele>
        <time>2021-02-19T13:24:14Z</time>
      </trkpt>
      <trkpt lat="43.61787" lon="6.0544">
        <ele>682</ele>
        <time>2021-02-19T13:24:15Z</time>
      </trkpt>
      <trkpt lat="43.61787" lon="6.05429">
        <ele>681.6</ele>
        <time>2021-02-19T13:24:16Z</time>
      </trkpt>
      <trkpt lat="43.61787" lon="6.05419">
        <ele>681.2</ele>
        <time>2021-02-19T13:24:17Z</time>
      </trkpt>
      <trkpt lat="43.61787" lon="6.0541">
        <ele>680.8</ele>
        <time>2021-02-19T13:24:18Z</time>
      </trkpt>
      <trkpt lat="43.61787" lon="6.05401">
        <ele>679.6</ele>
        <time>2021-02-19T13:24:19Z</time>
      </trkpt>
      <trkpt lat="43.61787" lon="6.05392">
        <ele>678.4</ele>
        <time>2021-02-19T13:24:20Z</time>
      </trkpt>
      <trkpt lat="43.61787" lon="6.05383">
        <ele>677.4</ele>
        <time>2021-02-19T13:24:21Z</time>
      </trkpt>
      <trkpt lat="43.61787" lon="6.05373">
        <ele>676.6</ele>
        <time>2021-02-19T13:24:22Z</time>
      </trkpt>
      <trkpt lat="43.61787" lon="6.05364">
        <ele>675.8</ele>
        <time>2021-02-19T13:24:23Z</time>
      </trkpt>
      <trkpt lat="43.61787" lon="6.05355">
        <ele>675.4</ele>
        <time>2021-02-19T13:24:24Z</time>
      </trkpt>
      <trkpt lat="43.61787" lon="6.05347">
        <ele>674.4</ele>
        <time>2021-02-19T13:24:25Z</time>
      </trkpt>
      <trkpt lat="43.61787" lon="6.05339">
        <ele>673.6</ele>
        <time>2021-02-19T13:24:26Z</time>
      </trkpt>
      <trkpt lat="43.61787" lon="6.0533">
        <ele>672.8</ele>
        <time>2021-02-19T13:24:27Z</time>
      </trkpt>
      <trkpt lat="43.61787" lon="6.05322">
        <ele>671.6</ele>
        <time>2021-02-19T13:24:28Z</time>
      </trkpt>
      <trkpt lat="43.61787" lon="6.05313">
        <ele>670.6</ele>
        <time>2021-02-19T13:24:29Z</time>
      </trkpt>
      <trkpt lat="43.61787" lon="6.05304">
        <ele>670</ele>
        <time>2021-02-19T13:24:30Z</time>
      </trkpt>
      <trkpt lat="43.61787" lon="6.05295">
        <ele>669.2</ele>
        <time>2021-02-19T13:24:31Z</time>
      </trkpt>
      <trkpt lat="43.61788" lon="6.05286">
        <ele>668.2</ele>
        <time>2021-02-19T13:24:32Z</time>
      </trkpt>
      <trkpt lat="43.61789" lon="6.05276">
        <ele>667</ele>
        <time>2021-02-19T13:24:33Z</time>
      </trkpt>
      <trkpt lat="43.61789" lon="6.05266">
        <ele>666</ele>
        <time>2021-02-19T13:24:34Z</time>
      </trkpt>
      <trkpt lat="43.61789" lon="6.05256">
        <ele>664.8</ele>
        <time>2021-02-19T13:24:35Z</time>
      </trkpt>
      <trkpt lat="43.6179" lon="6.05245">
        <ele>663.6</ele>
        <time>2021-02-19T13:24:36Z</time>
      </trkpt>
      <trkpt lat="43.6179" lon="6.05233">
        <ele>662.4</ele>
        <time>2021-02-19T13:24:37Z</time>
      </trkpt>
      <trkpt lat="43.6179" lon="6.05221">
        <ele>661</ele>
        <time>2021-02-19T13:24:38Z</time>
      </trkpt>
      <trkpt lat="43.6179" lon="6.0521">
        <ele>660</ele>
        <time>2021-02-19T13:24:39Z</time>
      </trkpt>
      <trkpt lat="43.6179" lon="6.05198">
        <ele>659.4</ele>
        <time>2021-02-19T13:24:40Z</time>
      </trkpt>
      <trkpt lat="43.6179" lon="6.05187">
        <ele>658.8</ele>
        <time>2021-02-19T13:24:41Z</time>
      </trkpt>
      <trkpt lat="43.6179" lon="6.05175">
        <ele>658.4</ele>
        <time>2021-02-19T13:24:42Z</time>
      </trkpt>
      <trkpt lat="43.6179" lon="6.05164">
        <ele>657.6</ele>
        <time>2021-02-19T13:24:43Z</time>
      </trkpt>
      <trkpt lat="43.6179" lon="6.05152">
        <ele>657.2</ele>
        <time>2021-02-19T13:24:44Z</time>
      </trkpt>
      <trkpt lat="43.6179" lon="6.05142">
        <ele>657</ele>
        <time>2021-02-19T13:24:45Z</time>
      </trkpt>
      <trkpt lat="43.61789" lon="6.05132">
        <ele>657</ele>
        <time>2021-02-19T13:24:46Z</time>
      </trkpt>
      <trkpt lat="43.61788" lon="6.05122">
        <ele>656.8</ele>
        <time>2021-02-19T13:24:47Z</time>
      </trkpt>
      <trkpt lat="43.61788" lon="6.05113">
        <ele>656.8</ele>
        <time>2021-02-19T13:24:48Z</time>
      </trkpt>
      <trkpt lat="43.61787" lon="6.05105">
        <ele>657</ele>
        <time>2021-02-19T13:24:49Z</time>
      </trkpt>
      <trkpt lat="43.61786" lon="6.05097">
        <ele>657</ele>
        <time>2021-02-19T13:24:50Z</time>
      </trkpt>
      <trkpt lat="43.61785" lon="6.05089">
        <ele>657</ele>
        <time>2021-02-19T13:24:51Z</time>
      </trkpt>
      <trkpt lat="43.61785" lon="6.0508">
        <ele>657.2</ele>
        <time>2021-02-19T13:24:52Z</time>
      </trkpt>
      <trkpt lat="43.61784" lon="6.05072">
        <ele>657.2</ele>
        <time>2021-02-19T13:24:53Z</time>
      </trkpt>
      <trkpt lat="43.61783" lon="6.05064">
        <ele>657.2</ele>
        <time>2021-02-19T13:24:54Z</time>
      </trkpt>
      <trkpt lat="43.61782" lon="6.05055">
        <ele>657.4</ele>
        <time>2021-02-19T13:24:55Z</time>
      </trkpt>
      <trkpt lat="43.61782" lon="6.05047">
        <ele>657.4</ele>
        <time>2021-02-19T13:24:56Z</time>
      </trkpt>
      <trkpt lat="43.61781" lon="6.05039">
        <ele>657.2</ele>
        <time>2021-02-19T13:24:57Z</time>
      </trkpt>
      <trkpt lat="43.6178" lon="6.0503">
        <ele>657.2</ele>
        <time>2021-02-19T13:24:58Z</time>
      </trkpt>
      <trkpt lat="43.6178" lon="6.05022">
        <ele>656.8</ele>
        <time>2021-02-19T13:24:59Z</time>
      </trkpt>
      <trkpt lat="43.6178" lon="6.05013">
        <ele>656.4</ele>
        <time>2021-02-19T13:25:00Z</time>
      </trkpt>
      <trkpt lat="43.61779" lon="6.05005">
        <ele>655.8</ele>
        <time>2021-02-19T13:25:01Z</time>
      </trkpt>
      <trkpt lat="43.61779" lon="6.04997">
        <ele>655.4</ele>
        <time>2021-02-19T13:25:02Z</time>
      </trkpt>
      <trkpt lat="43.61779" lon="6.04989">
        <ele>655.2</ele>
        <time>2021-02-19T13:25:03Z</time>
      </trkpt>
      <trkpt lat="43.61779" lon="6.04982">
        <ele>654.4</ele>
        <time>2021-02-19T13:25:04Z</time>
      </trkpt>
      <trkpt lat="43.6178" lon="6.04975">
        <ele>653.8</ele>
        <time>2021-02-19T13:25:05Z</time>
      </trkpt>
      <trkpt lat="43.61782" lon="6.04968">
        <ele>653.2</ele>
        <time>2021-02-19T13:25:06Z</time>
      </trkpt>
      <trkpt lat="43.61784" lon="6.04961">
        <ele>652.6</ele>
        <time>2021-02-19T13:25:07Z</time>
      </trkpt>
      <trkpt lat="43.61787" lon="6.04955">
        <ele>652</ele>
        <time>2021-02-19T13:25:08Z</time>
      </trkpt>
      <trkpt lat="43.6179" lon="6.04947">
        <ele>651.4</ele>
        <time>2021-02-19T13:25:09Z</time>
      </trkpt>
      <trkpt lat="43.61793" lon="6.04939">
        <ele>650.6</ele>
        <time>2021-02-19T13:25:10Z</time>
      </trkpt>
      <trkpt lat="43.61796" lon="6.04931">
        <ele>650.2</ele>
        <time>2021-02-19T13:25:11Z</time>
      </trkpt>
      <trkpt lat="43.61799" lon="6.04922">
        <ele>649.8</ele>
        <time>2021-02-19T13:25:12Z</time>
      </trkpt>
      <trkpt lat="43.61801" lon="6.04913">
        <ele>649.4</ele>
        <time>2021-02-19T13:25:13Z</time>
      </trkpt>
      <trkpt lat="43.61803" lon="6.04905">
        <ele>649</ele>
        <time>2021-02-19T13:25:14Z</time>
      </trkpt>
      <trkpt lat="43.61805" lon="6.04896">
        <ele>648.8</ele>
        <time>2021-02-19T13:25:15Z</time>
      </trkpt>
      <trkpt lat="43.61806" lon="6.04887">
        <ele>648.4</ele>
        <time>2021-02-19T13:25:16Z</time>
      </trkpt>
      <trkpt lat="43.61808" lon="6.04879">
        <ele>648.4</ele>
        <time>2021-02-19T13:25:17Z</time>
      </trkpt>
      <trkpt lat="43.61809" lon="6.04871">
        <ele>648.4</ele>
        <time>2021-02-19T13:25:18Z</time>
      </trkpt>
      <trkpt lat="43.61811" lon="6.04863">
        <ele>648.2</ele>
        <time>2021-02-19T13:25:19Z</time>
      </trkpt>
      <trkpt lat="43.61812" lon="6.04856">
        <ele>648.2</ele>
        <time>2021-02-19T13:25:20Z</time>
      </trkpt>
      <trkpt lat="43.61814" lon="6.04849">
        <ele>648.2</ele>
        <time>2021-02-19T13:25:21Z</time>
      </trkpt>
      <trkpt lat="43.61816" lon="6.04841">
        <ele>648.2</ele>
        <time>2021-02-19T13:25:22Z</time>
      </trkpt>
      <trkpt lat="43.61819" lon="6.04833">
        <ele>648.2</ele>
        <time>2021-02-19T13:25:23Z</time>
      </trkpt>
      <trkpt lat="43.61821" lon="6.04826">
        <ele>648</ele>
        <time>2021-02-19T13:25:24Z</time>
      </trkpt>
      <trkpt lat="43.61823" lon="6.04818">
        <ele>647.8</ele>
        <time>2021-02-19T13:25:25Z</time>
      </trkpt>
      <trkpt lat="43.61825" lon="6.0481">
        <ele>647.4</ele>
        <time>2021-02-19T13:25:26Z</time>
      </trkpt>
      <trkpt lat="43.61828" lon="6.04802">
        <ele>647</ele>
        <time>2021-02-19T13:25:27Z</time>
      </trkpt>
      <trkpt lat="43.6183" lon="6.04793">
        <ele>646.8</ele>
        <time>2021-02-19T13:25:28Z</time>
      </trkpt>
      <trkpt lat="43.61833" lon="6.04784">
        <ele>646.4</ele>
        <time>2021-02-19T13:25:29Z</time>
      </trkpt>
      <trkpt lat="43.61835" lon="6.04776">
        <ele>646.2</ele>
        <time>2021-02-19T13:25:30Z</time>
      </trkpt>
      <trkpt lat="43.61838" lon="6.04767">
        <ele>645.6</ele>
        <time>2021-02-19T13:25:31Z</time>
      </trkpt>
      <trkpt lat="43.6184" lon="6.04758">
        <ele>645.4</ele>
        <time>2021-02-19T13:25:32Z</time>
      </trkpt>
      <trkpt lat="43.61841" lon="6.0475">
        <ele>645</ele>
        <time>2021-02-19T13:25:33Z</time>
      </trkpt>
      <trkpt lat="43.61842" lon="6.04742">
        <ele>644.4</ele>
        <time>2021-02-19T13:25:34Z</time>
      </trkpt>
      <trkpt lat="43.61844" lon="6.04734">
        <ele>643.8</ele>
        <time>2021-02-19T13:25:35Z</time>
      </trkpt>
      <trkpt lat="43.61845" lon="6.04725">
        <ele>643</ele>
        <time>2021-02-19T13:25:36Z</time>
      </trkpt>
      <trkpt lat="43.61848" lon="6.04716">
        <ele>642.2</ele>
        <time>2021-02-19T13:25:37Z</time>
      </trkpt>
      <trkpt lat="43.61851" lon="6.04706">
        <ele>641.8</ele>
        <time>2021-02-19T13:25:38Z</time>
      </trkpt>
      <trkpt lat="43.61855" lon="6.04697">
        <ele>640</ele>
        <time>2021-02-19T13:25:39Z</time>
      </trkpt>
      <trkpt lat="43.6186" lon="6.04689">
        <ele>639</ele>
        <time>2021-02-19T13:25:40Z</time>
      </trkpt>
      <trkpt lat="43.61865" lon="6.04681">
        <ele>638.2</ele>
        <time>2021-02-19T13:25:41Z</time>
      </trkpt>
      <trkpt lat="43.6187" lon="6.04674">
        <ele>637.6</ele>
        <time>2021-02-19T13:25:42Z</time>
      </trkpt>
      <trkpt lat="43.61875" lon="6.04667">
        <ele>637.2</ele>
        <time>2021-02-19T13:25:43Z</time>
      </trkpt>
      <trkpt lat="43.6188" lon="6.04661">
        <ele>636.8</ele>
        <time>2021-02-19T13:25:44Z</time>
      </trkpt>
      <trkpt lat="43.61885" lon="6.04654">
        <ele>635.8</ele>
        <time>2021-02-19T13:25:45Z</time>
      </trkpt>
      <trkpt lat="43.61889" lon="6.04648">
        <ele>635</ele>
        <time>2021-02-19T13:25:46Z</time>
      </trkpt>
      <trkpt lat="43.61895" lon="6.0464">
        <ele>634</ele>
        <time>2021-02-19T13:25:47Z</time>
      </trkpt>
      <trkpt lat="43.619" lon="6.04632">
        <ele>633.2</ele>
        <time>2021-02-19T13:25:48Z</time>
      </trkpt>
      <trkpt lat="43.61905" lon="6.04624">
        <ele>632.2</ele>
        <time>2021-02-19T13:25:49Z</time>
      </trkpt>
      <trkpt lat="43.6191" lon="6.04617">
        <ele>631.2</ele>
        <time>2021-02-19T13:25:50Z</time>
      </trkpt>
      <trkpt lat="43.61915" lon="6.04609">
        <ele>630.4</ele>
        <time>2021-02-19T13:25:51Z</time>
      </trkpt>
      <trkpt lat="43.6192" lon="6.04602">
        <ele>630</ele>
        <time>2021-02-19T13:25:52Z</time>
      </trkpt>
      <trkpt lat="43.61924" lon="6.04594">
        <ele>629.6</ele>
        <time>2021-02-19T13:25:53Z</time>
      </trkpt>
      <trkpt lat="43.61929" lon="6.04586">
        <ele>628.8</ele>
        <time>2021-02-19T13:25:54Z</time>
      </trkpt>
      <trkpt lat="43.61933" lon="6.04578">
        <ele>627.6</ele>
        <time>2021-02-19T13:25:55Z</time>
      </trkpt>
      <trkpt lat="43.61938" lon="6.0457">
        <ele>627</ele>
        <time>2021-02-19T13:25:56Z</time>
      </trkpt>
      <trkpt lat="43.61942" lon="6.04561">
        <ele>626.4</ele>
        <time>2021-02-19T13:25:57Z</time>
      </trkpt>
      <trkpt lat="43.61946" lon="6.04553">
        <ele>625.6</ele>
        <time>2021-02-19T13:25:58Z</time>
      </trkpt>
      <trkpt lat="43.61949" lon="6.04545">
        <ele>624.8</ele>
        <time>2021-02-19T13:25:59Z</time>
      </trkpt>
      <trkpt lat="43.61952" lon="6.04537">
        <ele>624.2</ele>
        <time>2021-02-19T13:26:00Z</time>
      </trkpt>
      <trkpt lat="43.61955" lon="6.04528">
        <ele>623.4</ele>
        <time>2021-02-19T13:26:01Z</time>
      </trkpt>
      <trkpt lat="43.61958" lon="6.04519">
        <ele>622.6</ele>
        <time>2021-02-19T13:26:02Z</time>
      </trkpt>
      <trkpt lat="43.61961" lon="6.0451">
        <ele>621.8</ele>
        <time>2021-02-19T13:26:03Z</time>
      </trkpt>
      <trkpt lat="43.61964" lon="6.045">
        <ele>621.4</ele>
        <time>2021-02-19T13:26:04Z</time>
      </trkpt>
      <trkpt lat="43.61967" lon="6.04489">
        <ele>620.8</ele>
        <time>2021-02-19T13:26:05Z</time>
      </trkpt>
      <trkpt lat="43.6197" lon="6.04478">
        <ele>619.8</ele>
        <time>2021-02-19T13:26:06Z</time>
      </trkpt>
      <trkpt lat="43.61973" lon="6.04466">
        <ele>619.2</ele>
        <time>2021-02-19T13:26:07Z</time>
      </trkpt>
      <trkpt lat="43.61976" lon="6.04456">
        <ele>618.2</ele>
        <time>2021-02-19T13:26:08Z</time>
      </trkpt>
      <trkpt lat="43.61979" lon="6.04445">
        <ele>617.2</ele>
        <time>2021-02-19T13:26:09Z</time>
      </trkpt>
      <trkpt lat="43.61983" lon="6.04436">
        <ele>616.2</ele>
        <time>2021-02-19T13:26:10Z</time>
      </trkpt>
      <trkpt lat="43.61986" lon="6.04427">
        <ele>615.4</ele>
        <time>2021-02-19T13:26:11Z</time>
      </trkpt>
      <trkpt lat="43.61989" lon="6.04419">
        <ele>614.6</ele>
        <time>2021-02-19T13:26:12Z</time>
      </trkpt>
      <trkpt lat="43.61992" lon="6.0441">
        <ele>613.8</ele>
        <time>2021-02-19T13:26:13Z</time>
      </trkpt>
      <trkpt lat="43.61995" lon="6.044">
        <ele>613.2</ele>
        <time>2021-02-19T13:26:14Z</time>
      </trkpt>
      <trkpt lat="43.61998" lon="6.04391">
        <ele>612.6</ele>
        <time>2021-02-19T13:26:15Z</time>
      </trkpt>
      <trkpt lat="43.62001" lon="6.04381">
        <ele>612.2</ele>
        <time>2021-02-19T13:26:16Z</time>
      </trkpt>
      <trkpt lat="43.62005" lon="6.04372">
        <ele>611.6</ele>
        <time>2021-02-19T13:26:17Z</time>
      </trkpt>
      <trkpt lat="43.62008" lon="6.04363">
        <ele>610.8</ele>
        <time>2021-02-19T13:26:18Z</time>
      </trkpt>
      <trkpt lat="43.62011" lon="6.04354">
        <ele>610</ele>
        <time>2021-02-19T13:26:19Z</time>
      </trkpt>
      <trkpt lat="43.62015" lon="6.04346">
        <ele>609</ele>
        <time>2021-02-19T13:26:20Z</time>
      </trkpt>
      <trkpt lat="43.62018" lon="6.04337">
        <ele>608.2</ele>
        <time>2021-02-19T13:26:21Z</time>
      </trkpt>
      <trkpt lat="43.62021" lon="6.04329">
        <ele>607.8</ele>
        <time>2021-02-19T13:26:22Z</time>
      </trkpt>
      <trkpt lat="43.62024" lon="6.04321">
        <ele>607.2</ele>
        <time>2021-02-19T13:26:23Z</time>
      </trkpt>
      <trkpt lat="43.62027" lon="6.04313">
        <ele>606.8</ele>
        <time>2021-02-19T13:26:24Z</time>
      </trkpt>
      <trkpt lat="43.62029" lon="6.04305">
        <ele>606.2</ele>
        <time>2021-02-19T13:26:25Z</time>
      </trkpt>
      <trkpt lat="43.62033" lon="6.04298">
        <ele>605.6</ele>
        <time>2021-02-19T13:26:26Z</time>
      </trkpt>
      <trkpt lat="43.62038" lon="6.0429">
        <ele>604.6</ele>
        <time>2021-02-19T13:26:27Z</time>
      </trkpt>
      <trkpt lat="43.62043" lon="6.04283">
        <ele>603.8</ele>
        <time>2021-02-19T13:26:28Z</time>
      </trkpt>
      <trkpt lat="43.62049" lon="6.04277">
        <ele>603.2</ele>
        <time>2021-02-19T13:26:29Z</time>
      </trkpt>
      <trkpt lat="43.62053" lon="6.04271">
        <ele>602.6</ele>
        <time>2021-02-19T13:26:30Z</time>
      </trkpt>
      <trkpt lat="43.62057" lon="6.04264">
        <ele>602</ele>
        <time>2021-02-19T13:26:31Z</time>
      </trkpt>
      <trkpt lat="43.62061" lon="6.04258">
        <ele>601.4</ele>
        <time>2021-02-19T13:26:32Z</time>
      </trkpt>
      <trkpt lat="43.62063" lon="6.04252">
        <ele>600.8</ele>
        <time>2021-02-19T13:26:33Z</time>
      </trkpt>
      <trkpt lat="43.62065" lon="6.04245">
        <ele>600.2</ele>
        <time>2021-02-19T13:26:34Z</time>
      </trkpt>
      <trkpt lat="43.62065" lon="6.04238">
        <ele>599.4</ele>
        <time>2021-02-19T13:26:35Z</time>
      </trkpt>
      <trkpt lat="43.62064" lon="6.04231">
        <ele>599.2</ele>
        <time>2021-02-19T13:26:36Z</time>
      </trkpt>
      <trkpt lat="43.62063" lon="6.04223">
        <ele>598.8</ele>
        <time>2021-02-19T13:26:37Z</time>
      </trkpt>
      <trkpt lat="43.62062" lon="6.04215">
        <ele>598.4</ele>
        <time>2021-02-19T13:26:38Z</time>
      </trkpt>
      <trkpt lat="43.62061" lon="6.04206">
        <ele>598</ele>
        <time>2021-02-19T13:26:39Z</time>
      </trkpt>
      <trkpt lat="43.6206" lon="6.04198">
        <ele>597.8</ele>
        <time>2021-02-19T13:26:40Z</time>
      </trkpt>
      <trkpt lat="43.6206" lon="6.04188">
        <ele>597.6</ele>
        <time>2021-02-19T13:26:41Z</time>
      </trkpt>
      <trkpt lat="43.6206" lon="6.04178">
        <ele>597.4</ele>
        <time>2021-02-19T13:26:42Z</time>
      </trkpt>
      <trkpt lat="43.6206" lon="6.04168">
        <ele>597</ele>
        <time>2021-02-19T13:26:43Z</time>
      </trkpt>
      <trkpt lat="43.6206" lon="6.04157">
        <ele>596.6</ele>
        <time>2021-02-19T13:26:44Z</time>
      </trkpt>
      <trkpt lat="43.62061" lon="6.04146">
        <ele>596.4</ele>
        <time>2021-02-19T13:26:45Z</time>
      </trkpt>
      <trkpt lat="43.62063" lon="6.04134">
        <ele>596.2</ele>
        <time>2021-02-19T13:26:46Z</time>
      </trkpt>
      <trkpt lat="43.62065" lon="6.04123">
        <ele>595.4</ele>
        <time>2021-02-19T13:26:47Z</time>
      </trkpt>
      <trkpt lat="43.62068" lon="6.04112">
        <ele>594.8</ele>
        <time>2021-02-19T13:26:48Z</time>
      </trkpt>
      <trkpt lat="43.62071" lon="6.04102">
        <ele>594</ele>
        <time>2021-02-19T13:26:49Z</time>
      </trkpt>
      <trkpt lat="43.62074" lon="6.04092">
        <ele>593.6</ele>
        <time>2021-02-19T13:26:50Z</time>
      </trkpt>
      <trkpt lat="43.62078" lon="6.04082">
        <ele>592.8</ele>
        <time>2021-02-19T13:26:51Z</time>
      </trkpt>
      <trkpt lat="43.62082" lon="6.04073">
        <ele>592.4</ele>
        <time>2021-02-19T13:26:52Z</time>
      </trkpt>
      <trkpt lat="43.62086" lon="6.04063">
        <ele>592.2</ele>
        <time>2021-02-19T13:26:53Z</time>
      </trkpt>
      <trkpt lat="43.6209" lon="6.04054">
        <ele>592.2</ele>
        <time>2021-02-19T13:26:54Z</time>
      </trkpt>
      <trkpt lat="43.62094" lon="6.04044">
        <ele>592</ele>
        <time>2021-02-19T13:26:55Z</time>
      </trkpt>
      <trkpt lat="43.62098" lon="6.04035">
        <ele>591.8</ele>
        <time>2021-02-19T13:26:56Z</time>
      </trkpt>
      <trkpt lat="43.62102" lon="6.04026">
        <ele>591.6</ele>
        <time>2021-02-19T13:26:57Z</time>
      </trkpt>
      <trkpt lat="43.62106" lon="6.04017">
        <ele>591.4</ele>
        <time>2021-02-19T13:26:58Z</time>
      </trkpt>
      <trkpt lat="43.62109" lon="6.04008">
        <ele>591</ele>
        <time>2021-02-19T13:26:59Z</time>
      </trkpt>
      <trkpt lat="43.62112" lon="6.03999">
        <ele>590.8</ele>
        <time>2021-02-19T13:27:00Z</time>
      </trkpt>
      <trkpt lat="43.62116" lon="6.0399">
        <ele>590.4</ele>
        <time>2021-02-19T13:27:01Z</time>
      </trkpt>
      <trkpt lat="43.62119" lon="6.03981">
        <ele>590</ele>
        <time>2021-02-19T13:27:02Z</time>
      </trkpt>
      <trkpt lat="43.62122" lon="6.03972">
        <ele>590</ele>
        <time>2021-02-19T13:27:03Z</time>
      </trkpt>
      <trkpt lat="43.62126" lon="6.03963">
        <ele>589.8</ele>
        <time>2021-02-19T13:27:04Z</time>
      </trkpt>
      <trkpt lat="43.62129" lon="6.03954">
        <ele>589.8</ele>
        <time>2021-02-19T13:27:05Z</time>
      </trkpt>
      <trkpt lat="43.62133" lon="6.03946">
        <ele>589.6</ele>
        <time>2021-02-19T13:27:06Z</time>
      </trkpt>
      <trkpt lat="43.62137" lon="6.03937">
        <ele>589.6</ele>
        <time>2021-02-19T13:27:07Z</time>
      </trkpt>
      <trkpt lat="43.6214" lon="6.03928">
        <ele>589.4</ele>
        <time>2021-02-19T13:27:08Z</time>
      </trkpt>
      <trkpt lat="43.62144" lon="6.03919">
        <ele>589.2</ele>
        <time>2021-02-19T13:27:09Z</time>
      </trkpt>
      <trkpt lat="43.62149" lon="6.0391">
        <ele>588.8</ele>
        <time>2021-02-19T13:27:10Z</time>
      </trkpt>
      <trkpt lat="43.62153" lon="6.03901">
        <ele>588.2</ele>
        <time>2021-02-19T13:27:11Z</time>
      </trkpt>
      <trkpt lat="43.62158" lon="6.03894">
        <ele>587.8</ele>
        <time>2021-02-19T13:27:12Z</time>
      </trkpt>
      <trkpt lat="43.62163" lon="6.03887">
        <ele>587.4</ele>
        <time>2021-02-19T13:27:13Z</time>
      </trkpt>
      <trkpt lat="43.62168" lon="6.03882">
        <ele>587</ele>
        <time>2021-02-19T13:27:14Z</time>
      </trkpt>
      <trkpt lat="43.62173" lon="6.03877">
        <ele>586.6</ele>
        <time>2021-02-19T13:27:15Z</time>
      </trkpt>
      <trkpt lat="43.62177" lon="6.03874">
        <ele>586.2</ele>
        <time>2021-02-19T13:27:16Z</time>
      </trkpt>
      <trkpt lat="43.62181" lon="6.03871">
        <ele>585.4</ele>
        <time>2021-02-19T13:27:17Z</time>
      </trkpt>
      <trkpt lat="43.62184" lon="6.0387">
        <ele>584.8</ele>
        <time>2021-02-19T13:27:18Z</time>
      </trkpt>
      <trkpt lat="43.62187" lon="6.03869">
        <ele>584.2</ele>
        <time>2021-02-19T13:27:19Z</time>
      </trkpt>
      <trkpt lat="43.62191" lon="6.0387">
        <ele>583.6</ele>
        <time>2021-02-19T13:27:20Z</time>
      </trkpt>
      <trkpt lat="43.62195" lon="6.03873">
        <ele>583.4</ele>
        <time>2021-02-19T13:27:21Z</time>
      </trkpt>
      <trkpt lat="43.62198" lon="6.03876">
        <ele>583</ele>
        <time>2021-02-19T13:27:22Z</time>
      </trkpt>
      <trkpt lat="43.62201" lon="6.03881">
        <ele>582.8</ele>
        <time>2021-02-19T13:27:23Z</time>
      </trkpt>
      <trkpt lat="43.62204" lon="6.03886">
        <ele>582.4</ele>
        <time>2021-02-19T13:27:24Z</time>
      </trkpt>
      <trkpt lat="43.62207" lon="6.03892">
        <ele>582.2</ele>
        <time>2021-02-19T13:27:25Z</time>
      </trkpt>
      <trkpt lat="43.6221" lon="6.03898">
        <ele>582</ele>
        <time>2021-02-19T13:27:26Z</time>
      </trkpt>
      <trkpt lat="43.62213" lon="6.03904">
        <ele>582</ele>
        <time>2021-02-19T13:27:27Z</time>
      </trkpt>
      <trkpt lat="43.62217" lon="6.0391">
        <ele>581.8</ele>
        <time>2021-02-19T13:27:28Z</time>
      </trkpt>
      <trkpt lat="43.62222" lon="6.03916">
        <ele>581.8</ele>
        <time>2021-02-19T13:27:29Z</time>
      </trkpt>
      <trkpt lat="43.62226" lon="6.03921">
        <ele>581.8</ele>
        <time>2021-02-19T13:27:30Z</time>
      </trkpt>
      <trkpt lat="43.62231" lon="6.03927">
        <ele>581.6</ele>
        <time>2021-02-19T13:27:31Z</time>
      </trkpt>
      <trkpt lat="43.62235" lon="6.03933">
        <ele>581.4</ele>
        <time>2021-02-19T13:27:32Z</time>
      </trkpt>
      <trkpt lat="43.62239" lon="6.03939">
        <ele>581</ele>
        <time>2021-02-19T13:27:33Z</time>
      </trkpt>
      <trkpt lat="43.62242" lon="6.03946">
        <ele>580.8</ele>
        <time>2021-02-19T13:27:34Z</time>
      </trkpt>
      <trkpt lat="43.62245" lon="6.03953">
        <ele>580.6</ele>
        <time>2021-02-19T13:27:35Z</time>
      </trkpt>
      <trkpt lat="43.62248" lon="6.0396">
        <ele>580.6</ele>
        <time>2021-02-19T13:27:36Z</time>
      </trkpt>
      <trkpt lat="43.62251" lon="6.03968">
        <ele>580.4</ele>
        <time>2021-02-19T13:27:37Z</time>
      </trkpt>
      <trkpt lat="43.62254" lon="6.03976">
        <ele>580.4</ele>
        <time>2021-02-19T13:27:38Z</time>
      </trkpt>
      <trkpt lat="43.62258" lon="6.03983">
        <ele>580</ele>
        <time>2021-02-19T13:27:39Z</time>
      </trkpt>
      <trkpt lat="43.62261" lon="6.0399">
        <ele>579.6</ele>
        <time>2021-02-19T13:27:40Z</time>
      </trkpt>
      <trkpt lat="43.62265" lon="6.03997">
        <ele>579.6</ele>
        <time>2021-02-19T13:27:41Z</time>
      </trkpt>
      <trkpt lat="43.6227" lon="6.04003">
        <ele>579.6</ele>
        <time>2021-02-19T13:27:42Z</time>
      </trkpt>
      <trkpt lat="43.62274" lon="6.04008">
        <ele>579.8</ele>
        <time>2021-02-19T13:27:43Z</time>
      </trkpt>
      <trkpt lat="43.62279" lon="6.04012">
        <ele>580</ele>
        <time>2021-02-19T13:27:44Z</time>
      </trkpt>
      <trkpt lat="43.62284" lon="6.04017">
        <ele>580.2</ele>
        <time>2021-02-19T13:27:45Z</time>
      </trkpt>
      <trkpt lat="43.62289" lon="6.04022">
        <ele>580.4</ele>
        <time>2021-02-19T13:27:46Z</time>
      </trkpt>
      <trkpt lat="43.62294" lon="6.04027">
        <ele>580.6</ele>
        <time>2021-02-19T13:27:47Z</time>
      </trkpt>
      <trkpt lat="43.62298" lon="6.04032">
        <ele>581</ele>
        <time>2021-02-19T13:27:48Z</time>
      </trkpt>
      <trkpt lat="43.62303" lon="6.04038">
        <ele>581.2</ele>
        <time>2021-02-19T13:27:49Z</time>
      </trkpt>
      <trkpt lat="43.62308" lon="6.04043">
        <ele>581.4</ele>
        <time>2021-02-19T13:27:50Z</time>
      </trkpt>
      <trkpt lat="43.62313" lon="6.04049">
        <ele>581.4</ele>
        <time>2021-02-19T13:27:51Z</time>
      </trkpt>
      <trkpt lat="43.62318" lon="6.04054">
        <ele>581.4</ele>
        <time>2021-02-19T13:27:52Z</time>
      </trkpt>
      <trkpt lat="43.62322" lon="6.0406">
        <ele>581.6</ele>
        <time>2021-02-19T13:27:53Z</time>
      </trkpt>
      <trkpt lat="43.62327" lon="6.04065">
        <ele>581.8</ele>
        <time>2021-02-19T13:27:54Z</time>
      </trkpt>
      <trkpt lat="43.62332" lon="6.04071">
        <ele>582.2</ele>
        <time>2021-02-19T13:27:55Z</time>
      </trkpt>
      <trkpt lat="43.62336" lon="6.04077">
        <ele>582.6</ele>
        <time>2021-02-19T13:27:56Z</time>
      </trkpt>
      <trkpt lat="43.62341" lon="6.04082">
        <ele>582.8</ele>
        <time>2021-02-19T13:27:57Z</time>
      </trkpt>
      <trkpt lat="43.62345" lon="6.04087">
        <ele>583</ele>
        <time>2021-02-19T13:27:58Z</time>
      </trkpt>
      <trkpt lat="43.6235" lon="6.04093">
        <ele>583</ele>
        <time>2021-02-19T13:27:59Z</time>
      </trkpt>
      <trkpt lat="43.62354" lon="6.04098">
        <ele>583.2</ele>
        <time>2021-02-19T13:28:00Z</time>
      </trkpt>
      <trkpt lat="43.62359" lon="6.04103">
        <ele>583.4</ele>
        <time>2021-02-19T13:28:01Z</time>
      </trkpt>
      <trkpt lat="43.62364" lon="6.04108">
        <ele>583.6</ele>
        <time>2021-02-19T13:28:02Z</time>
      </trkpt>
      <trkpt lat="43.62368" lon="6.04114">
        <ele>583.8</ele>
        <time>2021-02-19T13:28:03Z</time>
      </trkpt>
      <trkpt lat="43.62373" lon="6.0412">
        <ele>584</ele>
        <time>2021-02-19T13:28:04Z</time>
      </trkpt>
      <trkpt lat="43.62378" lon="6.04126">
        <ele>584</ele>
        <time>2021-02-19T13:28:05Z</time>
      </trkpt>
      <trkpt lat="43.62382" lon="6.04133">
        <ele>584</ele>
        <time>2021-02-19T13:28:06Z</time>
      </trkpt>
      <trkpt lat="43.62387" lon="6.04139">
        <ele>584</ele>
        <time>2021-02-19T13:28:07Z</time>
      </trkpt>
      <trkpt lat="43.62391" lon="6.04146">
        <ele>584</ele>
        <time>2021-02-19T13:28:08Z</time>
      </trkpt>
      <trkpt lat="43.62396" lon="6.04152">
        <ele>583.8</ele>
        <time>2021-02-19T13:28:09Z</time>
      </trkpt>
      <trkpt lat="43.624" lon="6.04159">
        <ele>583.6</ele>
        <time>2021-02-19T13:28:10Z</time>
      </trkpt>
      <trkpt lat="43.62404" lon="6.04166">
        <ele>583</ele>
        <time>2021-02-19T13:28:11Z</time>
      </trkpt>
      <trkpt lat="43.62409" lon="6.04173">
        <ele>582.6</ele>
        <time>2021-02-19T13:28:12Z</time>
      </trkpt>
      <trkpt lat="43.62414" lon="6.0418">
        <ele>582.4</ele>
        <time>2021-02-19T13:28:13Z</time>
      </trkpt>
      <trkpt lat="43.62418" lon="6.04187">
        <ele>582.2</ele>
        <time>2021-02-19T13:28:14Z</time>
      </trkpt>
      <trkpt lat="43.62422" lon="6.04194">
        <ele>582.2</ele>
        <time>2021-02-19T13:28:15Z</time>
      </trkpt>
      <trkpt lat="43.62427" lon="6.042">
        <ele>582</ele>
        <time>2021-02-19T13:28:16Z</time>
      </trkpt>
      <trkpt lat="43.62431" lon="6.04207">
        <ele>581.8</ele>
        <time>2021-02-19T13:28:17Z</time>
      </trkpt>
      <trkpt lat="43.62436" lon="6.04213">
        <ele>581.8</ele>
        <time>2021-02-19T13:28:18Z</time>
      </trkpt>
      <trkpt lat="43.6244" lon="6.04219">
        <ele>581.6</ele>
        <time>2021-02-19T13:28:19Z</time>
      </trkpt>
      <trkpt lat="43.62444" lon="6.04224">
        <ele>581.6</ele>
        <time>2021-02-19T13:28:20Z</time>
      </trkpt>
      <trkpt lat="43.62449" lon="6.0423">
        <ele>581.6</ele>
        <time>2021-02-19T13:28:21Z</time>
      </trkpt>
      <trkpt lat="43.62453" lon="6.04236">
        <ele>581.8</ele>
        <time>2021-02-19T13:28:22Z</time>
      </trkpt>
      <trkpt lat="43.62457" lon="6.04242">
        <ele>581.8</ele>
        <time>2021-02-19T13:28:23Z</time>
      </trkpt>
      <trkpt lat="43.62461" lon="6.04248">
        <ele>582</ele>
        <time>2021-02-19T13:28:24Z</time>
      </trkpt>
      <trkpt lat="43.62465" lon="6.04254">
        <ele>582</ele>
        <time>2021-02-19T13:28:25Z</time>
      </trkpt>
      <trkpt lat="43.62469" lon="6.0426">
        <ele>582.2</ele>
        <time>2021-02-19T13:28:26Z</time>
      </trkpt>
      <trkpt lat="43.62473" lon="6.04266">
        <ele>582.4</ele>
        <time>2021-02-19T13:28:27Z</time>
      </trkpt>
      <trkpt lat="43.62477" lon="6.04271">
        <ele>582.4</ele>
        <time>2021-02-19T13:28:28Z</time>
      </trkpt>
      <trkpt lat="43.62481" lon="6.04277">
        <ele>582.2</ele>
        <time>2021-02-19T13:28:29Z</time>
      </trkpt>
      <trkpt lat="43.62485" lon="6.04283">
        <ele>582.2</ele>
        <time>2021-02-19T13:28:30Z</time>
      </trkpt>
      <trkpt lat="43.62489" lon="6.04289">
        <ele>582</ele>
        <time>2021-02-19T13:28:31Z</time>
      </trkpt>
      <trkpt lat="43.62494" lon="6.04296">
        <ele>582</ele>
        <time>2021-02-19T13:28:32Z</time>
      </trkpt>
      <trkpt lat="43.62498" lon="6.04303">
        <ele>581.6</ele>
        <time>2021-02-19T13:28:33Z</time>
      </trkpt>
      <trkpt lat="43.62503" lon="6.0431">
        <ele>581.4</ele>
        <time>2021-02-19T13:28:34Z</time>
      </trkpt>
      <trkpt lat="43.62508" lon="6.04317">
        <ele>581</ele>
        <time>2021-02-19T13:28:35Z</time>
      </trkpt>
      <trkpt lat="43.62512" lon="6.04324">
        <ele>580.6</ele>
        <time>2021-02-19T13:28:36Z</time>
      </trkpt>
      <trkpt lat="43.62517" lon="6.04332">
        <ele>580</ele>
        <time>2021-02-19T13:28:37Z</time>
      </trkpt>
      <trkpt lat="43.62521" lon="6.0434">
        <ele>579.6</ele>
        <time>2021-02-19T13:28:38Z</time>
      </trkpt>
      <trkpt lat="43.62526" lon="6.04347">
        <ele>579.2</ele>
        <time>2021-02-19T13:28:39Z</time>
      </trkpt>
      <trkpt lat="43.6253" lon="6.04356">
        <ele>579</ele>
        <time>2021-02-19T13:28:40Z</time>
      </trkpt>
      <trkpt lat="43.62535" lon="6.04364">
        <ele>578.8</ele>
        <time>2021-02-19T13:28:41Z</time>
      </trkpt>
      <trkpt lat="43.6254" lon="6.04372">
        <ele>578.2</ele>
        <time>2021-02-19T13:28:42Z</time>
      </trkpt>
      <trkpt lat="43.62545" lon="6.0438">
        <ele>576.8</ele>
        <time>2021-02-19T13:28:43Z</time>
      </trkpt>
      <trkpt lat="43.62551" lon="6.04388">
        <ele>576</ele>
        <time>2021-02-19T13:28:44Z</time>
      </trkpt>
      <trkpt lat="43.62556" lon="6.04396">
        <ele>575.4</ele>
        <time>2021-02-19T13:28:45Z</time>
      </trkpt>
      <trkpt lat="43.62561" lon="6.04405">
        <ele>575.2</ele>
        <time>2021-02-19T13:28:46Z</time>
      </trkpt>
      <trkpt lat="43.62566" lon="6.04414">
        <ele>574.8</ele>
        <time>2021-02-19T13:28:47Z</time>
      </trkpt>
      <trkpt lat="43.62571" lon="6.04422">
        <ele>574.4</ele>
        <time>2021-02-19T13:28:48Z</time>
      </trkpt>
      <trkpt lat="43.62576" lon="6.04431">
        <ele>574</ele>
        <time>2021-02-19T13:28:49Z</time>
      </trkpt>
      <trkpt lat="43.62581" lon="6.0444">
        <ele>573.6</ele>
        <time>2021-02-19T13:28:50Z</time>
      </trkpt>
      <trkpt lat="43.62586" lon="6.04448">
        <ele>573.2</ele>
        <time>2021-02-19T13:28:51Z</time>
      </trkpt>
      <trkpt lat="43.62591" lon="6.04457">
        <ele>573</ele>
        <time>2021-02-19T13:28:52Z</time>
      </trkpt>
      <trkpt lat="43.62596" lon="6.04465">
        <ele>572.6</ele>
        <time>2021-02-19T13:28:53Z</time>
      </trkpt>
      <trkpt lat="43.62601" lon="6.04473">
        <ele>572.4</ele>
        <time>2021-02-19T13:28:54Z</time>
      </trkpt>
      <trkpt lat="43.62606" lon="6.04481">
        <ele>571.8</ele>
        <time>2021-02-19T13:28:55Z</time>
      </trkpt>
      <trkpt lat="43.6261" lon="6.04488">
        <ele>571.6</ele>
        <time>2021-02-19T13:28:56Z</time>
      </trkpt>
      <trkpt lat="43.62614" lon="6.04495">
        <ele>571.6</ele>
        <time>2021-02-19T13:28:57Z</time>
      </trkpt>
      <trkpt lat="43.62618" lon="6.04502">
        <ele>571.6</ele>
        <time>2021-02-19T13:28:58Z</time>
      </trkpt>
      <trkpt lat="43.62621" lon="6.0451">
        <ele>571.6</ele>
        <time>2021-02-19T13:28:59Z</time>
      </trkpt>
      <trkpt lat="43.62624" lon="6.04517">
        <ele>571.6</ele>
        <time>2021-02-19T13:29:00Z</time>
      </trkpt>
      <trkpt lat="43.62627" lon="6.04525">
        <ele>571.8</ele>
        <time>2021-02-19T13:29:01Z</time>
      </trkpt>
      <trkpt lat="43.6263" lon="6.04532">
        <ele>572</ele>
        <time>2021-02-19T13:29:02Z</time>
      </trkpt>
      <trkpt lat="43.62633" lon="6.04539">
        <ele>572.2</ele>
        <time>2021-02-19T13:29:03Z</time>
      </trkpt>
      <trkpt lat="43.62636" lon="6.04546">
        <ele>572.2</ele>
        <time>2021-02-19T13:29:04Z</time>
      </trkpt>
      <trkpt lat="43.62638" lon="6.04553">
        <ele>572.2</ele>
        <time>2021-02-19T13:29:05Z</time>
      </trkpt>
      <trkpt lat="43.62641" lon="6.0456">
        <ele>572.2</ele>
        <time>2021-02-19T13:29:06Z</time>
      </trkpt>
      <trkpt lat="43.62644" lon="6.04567">
        <ele>571.8</ele>
        <time>2021-02-19T13:29:07Z</time>
      </trkpt>
      <trkpt lat="43.62647" lon="6.04574">
        <ele>571.6</ele>
        <time>2021-02-19T13:29:08Z</time>
      </trkpt>
      <trkpt lat="43.6265" lon="6.04582">
        <ele>571.4</ele>
        <time>2021-02-19T13:29:09Z</time>
      </trkpt>
      <trkpt lat="43.62653" lon="6.0459">
        <ele>571.4</ele>
        <time>2021-02-19T13:29:10Z</time>
      </trkpt>
      <trkpt lat="43.62656" lon="6.04597">
        <ele>571.2</ele>
        <time>2021-02-19T13:29:11Z</time>
      </trkpt>
      <trkpt lat="43.62659" lon="6.04605">
        <ele>571.2</ele>
        <time>2021-02-19T13:29:12Z</time>
      </trkpt>
      <trkpt lat="43.62661" lon="6.04613">
        <ele>571.2</ele>
        <time>2021-02-19T13:29:13Z</time>
      </trkpt>
      <trkpt lat="43.62663" lon="6.0462">
        <ele>571.4</ele>
        <time>2021-02-19T13:29:14Z</time>
      </trkpt>
      <trkpt lat="43.62666" lon="6.04627">
        <ele>571.4</ele>
        <time>2021-02-19T13:29:15Z</time>
      </trkpt>
      <trkpt lat="43.62669" lon="6.04633">
        <ele>571.4</ele>
        <time>2021-02-19T13:29:16Z</time>
      </trkpt>
      <trkpt lat="43.62673" lon="6.0464">
        <ele>571.6</ele>
        <time>2021-02-19T13:29:17Z</time>
      </trkpt>
      <trkpt lat="43.62676" lon="6.04645">
        <ele>572</ele>
        <time>2021-02-19T13:29:18Z</time>
      </trkpt>
      <trkpt lat="43.62679" lon="6.04651">
        <ele>572.4</ele>
        <time>2021-02-19T13:29:19Z</time>
      </trkpt>
      <trkpt lat="43.62683" lon="6.04657">
        <ele>572.6</ele>
        <time>2021-02-19T13:29:20Z</time>
      </trkpt>
      <trkpt lat="43.62686" lon="6.04663">
        <ele>572.8</ele>
        <time>2021-02-19T13:29:21Z</time>
      </trkpt>
      <trkpt lat="43.6269" lon="6.04669">
        <ele>573</ele>
        <time>2021-02-19T13:29:22Z</time>
      </trkpt>
      <trkpt lat="43.62695" lon="6.04675">
        <ele>573</ele>
        <time>2021-02-19T13:29:23Z</time>
      </trkpt>
      <trkpt lat="43.62699" lon="6.04681">
        <ele>573</ele>
        <time>2021-02-19T13:29:24Z</time>
      </trkpt>
      <trkpt lat="43.62704" lon="6.04687">
        <ele>572.8</ele>
        <time>2021-02-19T13:29:25Z</time>
      </trkpt>
      <trkpt lat="43.62709" lon="6.04692">
        <ele>572.4</ele>
        <time>2021-02-19T13:29:26Z</time>
      </trkpt>
      <trkpt lat="43.62714" lon="6.04699">
        <ele>572</ele>
        <time>2021-02-19T13:29:27Z</time>
      </trkpt>
      <trkpt lat="43.62719" lon="6.04705">
        <ele>571.6</ele>
        <time>2021-02-19T13:29:28Z</time>
      </trkpt>
      <trkpt lat="43.62724" lon="6.04711">
        <ele>571.4</ele>
        <time>2021-02-19T13:29:29Z</time>
      </trkpt>
      <trkpt lat="43.62729" lon="6.04717">
        <ele>571.2</ele>
        <time>2021-02-19T13:29:30Z</time>
      </trkpt>
      <trkpt lat="43.62734" lon="6.04724">
        <ele>570.6</ele>
        <time>2021-02-19T13:29:31Z</time>
      </trkpt>
      <trkpt lat="43.62739" lon="6.0473">
        <ele>570.4</ele>
        <time>2021-02-19T13:29:32Z</time>
      </trkpt>
      <trkpt lat="43.62743" lon="6.04737">
        <ele>570.4</ele>
        <time>2021-02-19T13:29:33Z</time>
      </trkpt>
      <trkpt lat="43.62747" lon="6.04742">
        <ele>570.4</ele>
        <time>2021-02-19T13:29:34Z</time>
      </trkpt>
      <trkpt lat="43.6275" lon="6.04748">
        <ele>570.4</ele>
        <time>2021-02-19T13:29:35Z</time>
      </trkpt>
      <trkpt lat="43.62753" lon="6.04754">
        <ele>570.4</ele>
        <time>2021-02-19T13:29:36Z</time>
      </trkpt>
      <trkpt lat="43.62756" lon="6.0476">
        <ele>570.4</ele>
        <time>2021-02-19T13:29:37Z</time>
      </trkpt>
      <trkpt lat="43.62759" lon="6.04765">
        <ele>570.4</ele>
        <time>2021-02-19T13:29:38Z</time>
      </trkpt>
      <trkpt lat="43.62763" lon="6.0477">
        <ele>570.4</ele>
        <time>2021-02-19T13:29:39Z</time>
      </trkpt>
      <trkpt lat="43.62767" lon="6.04776">
        <ele>570.4</ele>
        <time>2021-02-19T13:29:40Z</time>
      </trkpt>
      <trkpt lat="43.62772" lon="6.0478">
        <ele>570.4</ele>
        <time>2021-02-19T13:29:41Z</time>
      </trkpt>
      <trkpt lat="43.62776" lon="6.04785">
        <ele>570.2</ele>
        <time>2021-02-19T13:29:42Z</time>
      </trkpt>
      <trkpt lat="43.62781" lon="6.04789">
        <ele>570</ele>
        <time>2021-02-19T13:29:43Z</time>
      </trkpt>
      <trkpt lat="43.62786" lon="6.04794">
        <ele>569.8</ele>
        <time>2021-02-19T13:29:44Z</time>
      </trkpt>
      <trkpt lat="43.62791" lon="6.048">
        <ele>569.4</ele>
        <time>2021-02-19T13:29:45Z</time>
      </trkpt>
      <trkpt lat="43.62796" lon="6.04805">
        <ele>569</ele>
        <time>2021-02-19T13:29:46Z</time>
      </trkpt>
      <trkpt lat="43.62802" lon="6.0481">
        <ele>568.4</ele>
        <time>2021-02-19T13:29:47Z</time>
      </trkpt>
      <trkpt lat="43.62807" lon="6.04815">
        <ele>568</ele>
        <time>2021-02-19T13:29:48Z</time>
      </trkpt>
      <trkpt lat="43.62812" lon="6.0482">
        <ele>567.6</ele>
        <time>2021-02-19T13:29:49Z</time>
      </trkpt>
      <trkpt lat="43.62818" lon="6.04826">
        <ele>567</ele>
        <time>2021-02-19T13:29:50Z</time>
      </trkpt>
      <trkpt lat="43.62823" lon="6.04831">
        <ele>566.8</ele>
        <time>2021-02-19T13:29:51Z</time>
      </trkpt>
      <trkpt lat="43.62829" lon="6.04836">
        <ele>566.4</ele>
        <time>2021-02-19T13:29:52Z</time>
      </trkpt>
      <trkpt lat="43.62834" lon="6.0484">
        <ele>566.2</ele>
        <time>2021-02-19T13:29:53Z</time>
      </trkpt>
      <trkpt lat="43.62839" lon="6.04845">
        <ele>566</ele>
        <time>2021-02-19T13:29:54Z</time>
      </trkpt>
      <trkpt lat="43.62844" lon="6.04851">
        <ele>565.2</ele>
        <time>2021-02-19T13:29:55Z</time>
      </trkpt>
      <trkpt lat="43.62849" lon="6.04858">
        <ele>564.8</ele>
        <time>2021-02-19T13:29:56Z</time>
      </trkpt>
      <trkpt lat="43.62855" lon="6.04864">
        <ele>564.6</ele>
        <time>2021-02-19T13:29:57Z</time>
      </trkpt>
      <trkpt lat="43.62861" lon="6.0487">
        <ele>564.2</ele>
        <time>2021-02-19T13:29:58Z</time>
      </trkpt>
      <trkpt lat="43.62867" lon="6.04877">
        <ele>563.8</ele>
        <time>2021-02-19T13:29:59Z</time>
      </trkpt>
      <trkpt lat="43.62874" lon="6.04883">
        <ele>563.6</ele>
        <time>2021-02-19T13:30:00Z</time>
      </trkpt>
      <trkpt lat="43.6288" lon="6.04889">
        <ele>563</ele>
        <time>2021-02-19T13:30:01Z</time>
      </trkpt>
      <trkpt lat="43.62887" lon="6.04895">
        <ele>562.4</ele>
        <time>2021-02-19T13:30:02Z</time>
      </trkpt>
      <trkpt lat="43.62893" lon="6.04901">
        <ele>561.8</ele>
        <time>2021-02-19T13:30:03Z</time>
      </trkpt>
      <trkpt lat="43.629" lon="6.04907">
        <ele>561.4</ele>
        <time>2021-02-19T13:30:04Z</time>
      </trkpt>
      <trkpt lat="43.62906" lon="6.04912">
        <ele>561.2</ele>
        <time>2021-02-19T13:30:05Z</time>
      </trkpt>
      <trkpt lat="43.62912" lon="6.04916">
        <ele>561</ele>
        <time>2021-02-19T13:30:06Z</time>
      </trkpt>
      <trkpt lat="43.62918" lon="6.0492">
        <ele>561</ele>
        <time>2021-02-19T13:30:07Z</time>
      </trkpt>
      <trkpt lat="43.62925" lon="6.04923">
        <ele>561</ele>
        <time>2021-02-19T13:30:08Z</time>
      </trkpt>
      <trkpt lat="43.62931" lon="6.04926">
        <ele>560.8</ele>
        <time>2021-02-19T13:30:09Z</time>
      </trkpt>
      <trkpt lat="43.62936" lon="6.04928">
        <ele>560.8</ele>
        <time>2021-02-19T13:30:10Z</time>
      </trkpt>
      <trkpt lat="43.62942" lon="6.0493">
        <ele>560.6</ele>
        <time>2021-02-19T13:30:11Z</time>
      </trkpt>
      <trkpt lat="43.62948" lon="6.04932">
        <ele>560.6</ele>
        <time>2021-02-19T13:30:12Z</time>
      </trkpt>
      <trkpt lat="43.62954" lon="6.04933">
        <ele>560.4</ele>
        <time>2021-02-19T13:30:13Z</time>
      </trkpt>
      <trkpt lat="43.6296" lon="6.04935">
        <ele>560.6</ele>
        <time>2021-02-19T13:30:14Z</time>
      </trkpt>
      <trkpt lat="43.62966" lon="6.04936">
        <ele>560.4</ele>
        <time>2021-02-19T13:30:15Z</time>
      </trkpt>
      <trkpt lat="43.62971" lon="6.04937">
        <ele>560.6</ele>
        <time>2021-02-19T13:30:16Z</time>
      </trkpt>
      <trkpt lat="43.62977" lon="6.04938">
        <ele>560.6</ele>
        <time>2021-02-19T13:30:17Z</time>
      </trkpt>
      <trkpt lat="43.62983" lon="6.0494">
        <ele>560.6</ele>
        <time>2021-02-19T13:30:18Z</time>
      </trkpt>
      <trkpt lat="43.62989" lon="6.04941">
        <ele>560.6</ele>
        <time>2021-02-19T13:30:19Z</time>
      </trkpt>
      <trkpt lat="43.62995" lon="6.04943">
        <ele>560.6</ele>
        <time>2021-02-19T13:30:20Z</time>
      </trkpt>
      <trkpt lat="43.63001" lon="6.04944">
        <ele>560.8</ele>
        <time>2021-02-19T13:30:21Z</time>
      </trkpt>
      <trkpt lat="43.63007" lon="6.04946">
        <ele>560.8</ele>
        <time>2021-02-19T13:30:22Z</time>
      </trkpt>
      <trkpt lat="43.63013" lon="6.04948">
        <ele>561</ele>
        <time>2021-02-19T13:30:23Z</time>
      </trkpt>
      <trkpt lat="43.63019" lon="6.04949">
        <ele>561</ele>
        <time>2021-02-19T13:30:24Z</time>
      </trkpt>
      <trkpt lat="43.63025" lon="6.0495">
        <ele>561</ele>
        <time>2021-02-19T13:30:25Z</time>
      </trkpt>
      <trkpt lat="43.63031" lon="6.04951">
        <ele>561</ele>
        <time>2021-02-19T13:30:26Z</time>
      </trkpt>
      <trkpt lat="43.63037" lon="6.04951">
        <ele>560.8</ele>
        <time>2021-02-19T13:30:27Z</time>
      </trkpt>
      <trkpt lat="43.63042" lon="6.04952">
        <ele>560.8</ele>
        <time>2021-02-19T13:30:28Z</time>
      </trkpt>
      <trkpt lat="43.63048" lon="6.04953">
        <ele>560.8</ele>
        <time>2021-02-19T13:30:29Z</time>
      </trkpt>
      <trkpt lat="43.63053" lon="6.04954">
        <ele>560.8</ele>
        <time>2021-02-19T13:30:30Z</time>
      </trkpt>
      <trkpt lat="43.63059" lon="6.04956">
        <ele>560.8</ele>
        <time>2021-02-19T13:30:31Z</time>
      </trkpt>
      <trkpt lat="43.63064" lon="6.04957">
        <ele>561</ele>
        <time>2021-02-19T13:30:32Z</time>
      </trkpt>
      <trkpt lat="43.63069" lon="6.04959">
        <ele>561</ele>
        <time>2021-02-19T13:30:33Z</time>
      </trkpt>
      <trkpt lat="43.63075" lon="6.04961">
        <ele>561.2</ele>
        <time>2021-02-19T13:30:34Z</time>
      </trkpt>
      <trkpt lat="43.6308" lon="6.04963">
        <ele>561.2</ele>
        <time>2021-02-19T13:30:35Z</time>
      </trkpt>
      <trkpt lat="43.63085" lon="6.04966">
        <ele>561.2</ele>
        <time>2021-02-19T13:30:36Z</time>
      </trkpt>
      <trkpt lat="43.6309" lon="6.04968">
        <ele>561.2</ele>
        <time>2021-02-19T13:30:37Z</time>
      </trkpt>
      <trkpt lat="43.63096" lon="6.04971">
        <ele>561.4</ele>
        <time>2021-02-19T13:30:38Z</time>
      </trkpt>
      <trkpt lat="43.63101" lon="6.04974">
        <ele>561.6</ele>
        <time>2021-02-19T13:30:39Z</time>
      </trkpt>
      <trkpt lat="43.63106" lon="6.04976">
        <ele>561.8</ele>
        <time>2021-02-19T13:30:40Z</time>
      </trkpt>
      <trkpt lat="43.63112" lon="6.04978">
        <ele>562</ele>
        <time>2021-02-19T13:30:41Z</time>
      </trkpt>
      <trkpt lat="43.63117" lon="6.0498">
        <ele>562</ele>
        <time>2021-02-19T13:30:42Z</time>
      </trkpt>
      <trkpt lat="43.63123" lon="6.04983">
        <ele>562</ele>
        <time>2021-02-19T13:30:43Z</time>
      </trkpt>
      <trkpt lat="43.63128" lon="6.04985">
        <ele>561.8</ele>
        <time>2021-02-19T13:30:44Z</time>
      </trkpt>
      <trkpt lat="43.63134" lon="6.04988">
        <ele>561.6</ele>
        <time>2021-02-19T13:30:45Z</time>
      </trkpt>
      <trkpt lat="43.6314" lon="6.04991">
        <ele>561.6</ele>
        <time>2021-02-19T13:30:46Z</time>
      </trkpt>
      <trkpt lat="43.63146" lon="6.04994">
        <ele>561.2</ele>
        <time>2021-02-19T13:30:47Z</time>
      </trkpt>
      <trkpt lat="43.63152" lon="6.04997">
        <ele>561</ele>
        <time>2021-02-19T13:30:48Z</time>
      </trkpt>
      <trkpt lat="43.63158" lon="6.05">
        <ele>560.8</ele>
        <time>2021-02-19T13:30:49Z</time>
      </trkpt>
      <trkpt lat="43.63164" lon="6.05003">
        <ele>560.8</ele>
        <time>2021-02-19T13:30:50Z</time>
      </trkpt>
      <trkpt lat="43.63171" lon="6.05005">
        <ele>560.6</ele>
        <time>2021-02-19T13:30:51Z</time>
      </trkpt>
      <trkpt lat="43.63177" lon="6.05008">
        <ele>560.4</ele>
        <time>2021-02-19T13:30:52Z</time>
      </trkpt>
      <trkpt lat="43.63183" lon="6.0501">
        <ele>560.2</ele>
        <time>2021-02-19T13:30:53Z</time>
      </trkpt>
      <trkpt lat="43.6319" lon="6.05011">
        <ele>560.2</ele>
        <time>2021-02-19T13:30:54Z</time>
      </trkpt>
      <trkpt lat="43.63195" lon="6.05013">
        <ele>560</ele>
        <time>2021-02-19T13:30:55Z</time>
      </trkpt>
      <trkpt lat="43.63201" lon="6.05014">
        <ele>560</ele>
        <time>2021-02-19T13:30:56Z</time>
      </trkpt>
      <trkpt lat="43.63207" lon="6.05015">
        <ele>560</ele>
        <time>2021-02-19T13:30:57Z</time>
      </trkpt>
      <trkpt lat="43.63213" lon="6.05016">
        <ele>559.8</ele>
        <time>2021-02-19T13:30:58Z</time>
      </trkpt>
      <trkpt lat="43.63219" lon="6.05017">
        <ele>559.6</ele>
        <time>2021-02-19T13:30:59Z</time>
      </trkpt>
      <trkpt lat="43.63226" lon="6.05018">
        <ele>559.6</ele>
        <time>2021-02-19T13:31:00Z</time>
      </trkpt>
      <trkpt lat="43.63232" lon="6.0502">
        <ele>559.6</ele>
        <time>2021-02-19T13:31:01Z</time>
      </trkpt>
      <trkpt lat="43.63238" lon="6.0502">
        <ele>559.6</ele>
        <time>2021-02-19T13:31:02Z</time>
      </trkpt>
      <trkpt lat="43.63244" lon="6.05022">
        <ele>559.8</ele>
        <time>2021-02-19T13:31:03Z</time>
      </trkpt>
      <trkpt lat="43.6325" lon="6.05022">
        <ele>560</ele>
        <time>2021-02-19T13:31:04Z</time>
      </trkpt>
      <trkpt lat="43.63256" lon="6.05023">
        <ele>560.2</ele>
        <time>2021-02-19T13:31:05Z</time>
      </trkpt>
      <trkpt lat="43.63263" lon="6.05023">
        <ele>560.6</ele>
        <time>2021-02-19T13:31:06Z</time>
      </trkpt>
      <trkpt lat="43.63269" lon="6.05024">
        <ele>560.8</ele>
        <time>2021-02-19T13:31:07Z</time>
      </trkpt>
      <trkpt lat="43.63275" lon="6.05024">
        <ele>561</ele>
        <time>2021-02-19T13:31:08Z</time>
      </trkpt>
      <trkpt lat="43.63281" lon="6.05025">
        <ele>561.2</ele>
        <time>2021-02-19T13:31:09Z</time>
      </trkpt>
      <trkpt lat="43.63287" lon="6.05025">
        <ele>561.2</ele>
        <time>2021-02-19T13:31:10Z</time>
      </trkpt>
      <trkpt lat="43.63294" lon="6.05026">
        <ele>561.6</ele>
        <time>2021-02-19T13:31:11Z</time>
      </trkpt>
      <trkpt lat="43.633" lon="6.05027">
        <ele>561.8</ele>
        <time>2021-02-19T13:31:12Z</time>
      </trkpt>
      <trkpt lat="43.63306" lon="6.05028">
        <ele>562</ele>
        <time>2021-02-19T13:31:13Z</time>
      </trkpt>
      <trkpt lat="43.63313" lon="6.05029">
        <ele>562.2</ele>
        <time>2021-02-19T13:31:14Z</time>
      </trkpt>
      <trkpt lat="43.63319" lon="6.0503">
        <ele>562.8</ele>
        <time>2021-02-19T13:31:15Z</time>
      </trkpt>
      <trkpt lat="43.63325" lon="6.0503">
        <ele>563.2</ele>
        <time>2021-02-19T13:31:16Z</time>
      </trkpt>
      <trkpt lat="43.63332" lon="6.05031">
        <ele>563.6</ele>
        <time>2021-02-19T13:31:17Z</time>
      </trkpt>
      <trkpt lat="43.63338" lon="6.05032">
        <ele>563.8</ele>
        <time>2021-02-19T13:31:18Z</time>
      </trkpt>
      <trkpt lat="43.63344" lon="6.05032">
        <ele>564</ele>
        <time>2021-02-19T13:31:19Z</time>
      </trkpt>
      <trkpt lat="43.6335" lon="6.05033">
        <ele>564.2</ele>
        <time>2021-02-19T13:31:20Z</time>
      </trkpt>
      <trkpt lat="43.63357" lon="6.05033">
        <ele>564.4</ele>
        <time>2021-02-19T13:31:21Z</time>
      </trkpt>
      <trkpt lat="43.63363" lon="6.05033">
        <ele>564.4</ele>
        <time>2021-02-19T13:31:22Z</time>
      </trkpt>
      <trkpt lat="43.63369" lon="6.05034">
        <ele>564.6</ele>
        <time>2021-02-19T13:31:23Z</time>
      </trkpt>
      <trkpt lat="43.63375" lon="6.05034">
        <ele>564.8</ele>
        <time>2021-02-19T13:31:24Z</time>
      </trkpt>
      <trkpt lat="43.63381" lon="6.05034">
        <ele>565</ele>
        <time>2021-02-19T13:31:25Z</time>
      </trkpt>
      <trkpt lat="43.63388" lon="6.05034">
        <ele>565</ele>
        <time>2021-02-19T13:31:26Z</time>
      </trkpt>
      <trkpt lat="43.63394" lon="6.05035">
        <ele>565.2</ele>
        <time>2021-02-19T13:31:27Z</time>
      </trkpt>
      <trkpt lat="43.634" lon="6.05035">
        <ele>565.6</ele>
        <time>2021-02-19T13:31:28Z</time>
      </trkpt>
      <trkpt lat="43.63405" lon="6.05035">
        <ele>565.8</ele>
        <time>2021-02-19T13:31:29Z</time>
      </trkpt>
      <trkpt lat="43.63411" lon="6.05035">
        <ele>566</ele>
        <time>2021-02-19T13:31:30Z</time>
      </trkpt>
      <trkpt lat="43.63417" lon="6.05035">
        <ele>566.2</ele>
        <time>2021-02-19T13:31:31Z</time>
      </trkpt>
      <trkpt lat="43.63424" lon="6.05035">
        <ele>566.4</ele>
        <time>2021-02-19T13:31:32Z</time>
      </trkpt>
      <trkpt lat="43.6343" lon="6.05035">
        <ele>566.6</ele>
        <time>2021-02-19T13:31:33Z</time>
      </trkpt>
      <trkpt lat="43.63436" lon="6.05036">
        <ele>566.6</ele>
        <time>2021-02-19T13:31:34Z</time>
      </trkpt>
      <trkpt lat="43.63443" lon="6.05036">
        <ele>566.8</ele>
        <time>2021-02-19T13:31:35Z</time>
      </trkpt>
      <trkpt lat="43.63449" lon="6.05037">
        <ele>567</ele>
        <time>2021-02-19T13:31:36Z</time>
      </trkpt>
      <trkpt lat="43.63455" lon="6.05036">
        <ele>567</ele>
        <time>2021-02-19T13:31:37Z</time>
      </trkpt>
      <trkpt lat="43.63462" lon="6.05036">
        <ele>567</ele>
        <time>2021-02-19T13:31:38Z</time>
      </trkpt>
      <trkpt lat="43.63468" lon="6.05035">
        <ele>567</ele>
        <time>2021-02-19T13:31:39Z</time>
      </trkpt>
      <trkpt lat="43.63474" lon="6.05034">
        <ele>567</ele>
        <time>2021-02-19T13:31:40Z</time>
      </trkpt>
      <trkpt lat="43.63481" lon="6.05033">
        <ele>567</ele>
        <time>2021-02-19T13:31:41Z</time>
      </trkpt>
      <trkpt lat="43.63487" lon="6.05033">
        <ele>567</ele>
        <time>2021-02-19T13:31:42Z</time>
      </trkpt>
      <trkpt lat="43.63493" lon="6.05032">
        <ele>566.8</ele>
        <time>2021-02-19T13:31:43Z</time>
      </trkpt>
      <trkpt lat="43.635" lon="6.05032">
        <ele>566.8</ele>
        <time>2021-02-19T13:31:44Z</time>
      </trkpt>
      <trkpt lat="43.63506" lon="6.05032">
        <ele>566.8</ele>
        <time>2021-02-19T13:31:45Z</time>
      </trkpt>
      <trkpt lat="43.63512" lon="6.05031">
        <ele>566.8</ele>
        <time>2021-02-19T13:31:46Z</time>
      </trkpt>
      <trkpt lat="43.63518" lon="6.0503">
        <ele>566.4</ele>
        <time>2021-02-19T13:31:47Z</time>
      </trkpt>
      <trkpt lat="43.63524" lon="6.05029">
        <ele>566.2</ele>
        <time>2021-02-19T13:31:48Z</time>
      </trkpt>
      <trkpt lat="43.6353" lon="6.05029">
        <ele>566</ele>
        <time>2021-02-19T13:31:49Z</time>
      </trkpt>
      <trkpt lat="43.63535" lon="6.0503">
        <ele>566</ele>
        <time>2021-02-19T13:31:50Z</time>
      </trkpt>
      <trkpt lat="43.63541" lon="6.05031">
        <ele>566</ele>
        <time>2021-02-19T13:31:51Z</time>
      </trkpt>
      <trkpt lat="43.63546" lon="6.05032">
        <ele>566</ele>
        <time>2021-02-19T13:31:52Z</time>
      </trkpt>
      <trkpt lat="43.63552" lon="6.05034">
        <ele>566</ele>
        <time>2021-02-19T13:31:53Z</time>
      </trkpt>
      <trkpt lat="43.63558" lon="6.05035">
        <ele>566</ele>
        <time>2021-02-19T13:31:54Z</time>
      </trkpt>
      <trkpt lat="43.63564" lon="6.05036">
        <ele>566</ele>
        <time>2021-02-19T13:31:55Z</time>
      </trkpt>
      <trkpt lat="43.6357" lon="6.05037">
        <ele>566</ele>
        <time>2021-02-19T13:31:56Z</time>
      </trkpt>
      <trkpt lat="43.63575" lon="6.05039">
        <ele>566</ele>
        <time>2021-02-19T13:31:57Z</time>
      </trkpt>
      <trkpt lat="43.63772" lon="6.05">
        <ele>555.6</ele>
      </trkpt>
      <trkpt lat="43.63929" lon="6.05039">
        <ele>553</ele>
      </trkpt>
      <trkpt lat="43.64073" lon="6.04967">
        <ele>552.8</ele>
      </trkpt>
      <trkpt lat="43.64077" lon="6.04962">
        <ele>553</ele>
      </trkpt>
      <trkpt lat="43.64239" lon="6.04874">
        <ele>550.8</ele>
      </trkpt>
      <trkpt lat="43.64392" lon="6.04825">
        <ele>547.9</ele>
      </trkpt>
      <trkpt lat="43.64486" lon="6.04819">
        <ele>550</ele>
      </trkpt>
      <trkpt lat="43.64616" lon="6.04781">
        <ele>551.7</ele>
      </trkpt>
      <trkpt lat="43.64667" lon="6.04775">
        <ele>549.1</ele>
      </trkpt>
      <trkpt lat="43.64692" lon="6.0474">
        <ele>549.4</ele>
      </trkpt>
      <trkpt lat="43.64718" lon="6.04736">
        <ele>548.7</ele>
      </trkpt>
      <trkpt lat="43.64757" lon="6.04732">
        <ele>551.1</ele>
      </trkpt>
      <trkpt lat="43.64783" lon="6.04722">
        <ele>651.59997558594</ele>
        <time>2021-05-23T09:27:26Z</time>
      </trkpt>
      <trkpt lat="43.64785" lon="6.04721">
        <ele>651.79998779297</ele>
        <time>2021-05-23T09:27:27Z</time>
      </trkpt>
      <trkpt lat="43.64787" lon="6.04721">
        <ele>652.20001220703</ele>
        <time>2021-05-23T09:27:28Z</time>
      </trkpt>
      <trkpt lat="43.64789" lon="6.04721">
        <ele>652.20001220703</ele>
        <time>2021-05-23T09:27:29Z</time>
      </trkpt>
      <trkpt lat="43.64791" lon="6.04721">
        <ele>652.59997558594</ele>
        <time>2021-05-23T09:27:30Z</time>
      </trkpt>
      <trkpt lat="43.64793" lon="6.04721">
        <ele>652.79998779297</ele>
        <time>2021-05-23T09:27:31Z</time>
      </trkpt>
      <trkpt lat="43.64796" lon="6.04721">
        <ele>653.20001220703</ele>
        <time>2021-05-23T09:27:32Z</time>
      </trkpt>
      <trkpt lat="43.64798" lon="6.04721">
        <ele>653.20001220703</ele>
        <time>2021-05-23T09:27:33Z</time>
      </trkpt>
      <trkpt lat="43.64801" lon="6.0472">
        <ele>653.40002441406</ele>
        <time>2021-05-23T09:27:34Z</time>
      </trkpt>
      <trkpt lat="43.64803" lon="6.0472">
        <ele>653.40002441406</ele>
        <time>2021-05-23T09:27:35Z</time>
      </trkpt>
      <trkpt lat="43.64806" lon="6.04719">
        <ele>653.40002441406</ele>
        <time>2021-05-23T09:27:36Z</time>
      </trkpt>
      <trkpt lat="43.64808" lon="6.04718">
        <ele>653.59997558594</ele>
        <time>2021-05-23T09:27:37Z</time>
      </trkpt>
      <trkpt lat="43.64811" lon="6.04717">
        <ele>653.59997558594</ele>
        <time>2021-05-23T09:27:38Z</time>
      </trkpt>
      <trkpt lat="43.64813" lon="6.04717">
        <ele>653.79998779297</ele>
        <time>2021-05-23T09:27:39Z</time>
      </trkpt>
      <trkpt lat="43.64815" lon="6.04716">
        <ele>653.79998779297</ele>
        <time>2021-05-23T09:27:40Z</time>
      </trkpt>
      <trkpt lat="43.64817" lon="6.04715">
        <ele>654</ele>
        <time>2021-05-23T09:27:41Z</time>
      </trkpt>
      <trkpt lat="43.64819" lon="6.04715">
        <ele>654</ele>
        <time>2021-05-23T09:27:42Z</time>
      </trkpt>
      <trkpt lat="43.64822" lon="6.04714">
        <ele>654.20001220703</ele>
        <time>2021-05-23T09:27:43Z</time>
      </trkpt>
      <trkpt lat="43.64824" lon="6.04713">
        <ele>654.20001220703</ele>
        <time>2021-05-23T09:27:44Z</time>
      </trkpt>
      <trkpt lat="43.64827" lon="6.04712">
        <ele>654.20001220703</ele>
        <time>2021-05-23T09:27:45Z</time>
      </trkpt>
      <trkpt lat="43.64829" lon="6.04712">
        <ele>654.20001220703</ele>
        <time>2021-05-23T09:27:46Z</time>
      </trkpt>
      <trkpt lat="43.64832" lon="6.04711">
        <ele>654.20001220703</ele>
        <time>2021-05-23T09:27:47Z</time>
      </trkpt>
      <trkpt lat="43.64835" lon="6.0471">
        <ele>654</ele>
        <time>2021-05-23T09:27:48Z</time>
      </trkpt>
      <trkpt lat="43.64838" lon="6.04709">
        <ele>654</ele>
        <time>2021-05-23T09:27:49Z</time>
      </trkpt>
      <trkpt lat="43.6484" lon="6.04708">
        <ele>654.20001220703</ele>
        <time>2021-05-23T09:27:50Z</time>
      </trkpt>
      <trkpt lat="43.64843" lon="6.04708">
        <ele>654.20001220703</ele>
        <time>2021-05-23T09:27:51Z</time>
      </trkpt>
      <trkpt lat="43.64846" lon="6.04707">
        <ele>654.20001220703</ele>
        <time>2021-05-23T09:27:52Z</time>
      </trkpt>
      <trkpt lat="43.64848" lon="6.04707">
        <ele>654.20001220703</ele>
        <time>2021-05-23T09:27:53Z</time>
      </trkpt>
      <trkpt lat="43.64851" lon="6.04707">
        <ele>654.40002441406</ele>
        <time>2021-05-23T09:27:54Z</time>
      </trkpt>
      <trkpt lat="43.64853" lon="6.04707">
        <ele>654.40002441406</ele>
        <time>2021-05-23T09:27:55Z</time>
      </trkpt>
      <trkpt lat="43.64856" lon="6.04708">
        <ele>654.59997558594</ele>
        <time>2021-05-23T09:27:56Z</time>
      </trkpt>
      <trkpt lat="43.64858" lon="6.04708">
        <ele>654.59997558594</ele>
        <time>2021-05-23T09:27:57Z</time>
      </trkpt>
      <trkpt lat="43.6486" lon="6.04709">
        <ele>654.59997558594</ele>
        <time>2021-05-23T09:27:58Z</time>
      </trkpt>
      <trkpt lat="43.64863" lon="6.0471">
        <ele>654.59997558594</ele>
        <time>2021-05-23T09:27:59Z</time>
      </trkpt>
      <trkpt lat="43.64865" lon="6.04711">
        <ele>654.79998779297</ele>
        <time>2021-05-23T09:28:00Z</time>
      </trkpt>
      <trkpt lat="43.64868" lon="6.04712">
        <ele>655</ele>
        <time>2021-05-23T09:28:01Z</time>
      </trkpt>
      <trkpt lat="43.6487" lon="6.04713">
        <ele>655.20001220703</ele>
        <time>2021-05-23T09:28:02Z</time>
      </trkpt>
      <trkpt lat="43.64873" lon="6.04714">
        <ele>655.40002441406</ele>
        <time>2021-05-23T09:28:03Z</time>
      </trkpt>
      <trkpt lat="43.64875" lon="6.04715">
        <ele>656</ele>
        <time>2021-05-23T09:28:04Z</time>
      </trkpt>
      <trkpt lat="43.64878" lon="6.04716">
        <ele>656.40002441406</ele>
        <time>2021-05-23T09:28:05Z</time>
      </trkpt>
      <trkpt lat="43.64881" lon="6.04716">
        <ele>656.59997558594</ele>
        <time>2021-05-23T09:28:06Z</time>
      </trkpt>
      <trkpt lat="43.64883" lon="6.04716">
        <ele>656.79998779297</ele>
        <time>2021-05-23T09:28:07Z</time>
      </trkpt>
      <trkpt lat="43.64886" lon="6.04716">
        <ele>657.20001220703</ele>
        <time>2021-05-23T09:28:08Z</time>
      </trkpt>
      <trkpt lat="43.64889" lon="6.04717">
        <ele>657.59997558594</ele>
        <time>2021-05-23T09:28:09Z</time>
      </trkpt>
      <trkpt lat="43.64891" lon="6.04718">
        <ele>657.79998779297</ele>
        <time>2021-05-23T09:28:10Z</time>
      </trkpt>
      <trkpt lat="43.64893" lon="6.0472">
        <ele>657.79998779297</ele>
        <time>2021-05-23T09:28:11Z</time>
      </trkpt>
      <trkpt lat="43.64896" lon="6.04721">
        <ele>658.40002441406</ele>
        <time>2021-05-23T09:28:12Z</time>
      </trkpt>
      <trkpt lat="43.64898" lon="6.04723">
        <ele>658.59997558594</ele>
        <time>2021-05-23T09:28:13Z</time>
      </trkpt>
      <trkpt lat="43.649" lon="6.04726">
        <ele>658.79998779297</ele>
        <time>2021-05-23T09:28:14Z</time>
      </trkpt>
      <trkpt lat="43.64902" lon="6.04728">
        <ele>659</ele>
        <time>2021-05-23T09:28:15Z</time>
      </trkpt>
      <trkpt lat="43.64904" lon="6.04731">
        <ele>659.40002441406</ele>
        <time>2021-05-23T09:28:16Z</time>
      </trkpt>
      <trkpt lat="43.64906" lon="6.04733">
        <ele>659.59997558594</ele>
        <time>2021-05-23T09:28:17Z</time>
      </trkpt>
      <trkpt lat="43.64908" lon="6.04735">
        <ele>659.79998779297</ele>
        <time>2021-05-23T09:28:18Z</time>
      </trkpt>
      <trkpt lat="43.6491" lon="6.04736">
        <ele>659.79998779297</ele>
        <time>2021-05-23T09:28:19Z</time>
      </trkpt>
      <trkpt lat="43.64913" lon="6.04737">
        <ele>660.40002441406</ele>
        <time>2021-05-23T09:28:20Z</time>
      </trkpt>
      <trkpt lat="43.64915" lon="6.04738">
        <ele>660.59997558594</ele>
        <time>2021-05-23T09:28:21Z</time>
      </trkpt>
      <trkpt lat="43.64917" lon="6.04739">
        <ele>661</ele>
        <time>2021-05-23T09:28:22Z</time>
      </trkpt>
      <trkpt lat="43.64919" lon="6.04739">
        <ele>661.20001220703</ele>
        <time>2021-05-23T09:28:23Z</time>
      </trkpt>
      <trkpt lat="43.64921" lon="6.04739">
        <ele>661.59997558594</ele>
        <time>2021-05-23T09:28:24Z</time>
      </trkpt>
      <trkpt lat="43.64923" lon="6.0474">
        <ele>661.79998779297</ele>
        <time>2021-05-23T09:28:25Z</time>
      </trkpt>
      <trkpt lat="43.64925" lon="6.0474">
        <ele>662.20001220703</ele>
        <time>2021-05-23T09:28:26Z</time>
      </trkpt>
      <trkpt lat="43.64927" lon="6.04741">
        <ele>662.40002441406</ele>
        <time>2021-05-23T09:28:27Z</time>
      </trkpt>
      <trkpt lat="43.64928" lon="6.04742">
        <ele>662.79998779297</ele>
        <time>2021-05-23T09:28:28Z</time>
      </trkpt>
      <trkpt lat="43.6493" lon="6.04742">
        <ele>663.20001220703</ele>
        <time>2021-05-23T09:28:29Z</time>
      </trkpt>
      <trkpt lat="43.64932" lon="6.04741">
        <ele>663.40002441406</ele>
        <time>2021-05-23T09:28:30Z</time>
      </trkpt>
      <trkpt lat="43.64934" lon="6.0474">
        <ele>663.59997558594</ele>
        <time>2021-05-23T09:28:31Z</time>
      </trkpt>
      <trkpt lat="43.64935" lon="6.04738">
        <ele>663.79998779297</ele>
        <time>2021-05-23T09:28:32Z</time>
      </trkpt>
      <trkpt lat="43.64937" lon="6.04736">
        <ele>664</ele>
        <time>2021-05-23T09:28:33Z</time>
      </trkpt>
      <trkpt lat="43.64939" lon="6.04733">
        <ele>664.20001220703</ele>
        <time>2021-05-23T09:28:34Z</time>
      </trkpt>
      <trkpt lat="43.6494" lon="6.04731">
        <ele>664.40002441406</ele>
        <time>2021-05-23T09:28:35Z</time>
      </trkpt>
      <trkpt lat="43.64942" lon="6.0473">
        <ele>664.59997558594</ele>
        <time>2021-05-23T09:28:36Z</time>
      </trkpt>
      <trkpt lat="43.64943" lon="6.04728">
        <ele>664.79998779297</ele>
        <time>2021-05-23T09:28:37Z</time>
      </trkpt>
      <trkpt lat="43.64944" lon="6.04725">
        <ele>665.20001220703</ele>
        <time>2021-05-23T09:28:38Z</time>
      </trkpt>
      <trkpt lat="43.64946" lon="6.04723">
        <ele>665.40002441406</ele>
        <time>2021-05-23T09:28:39Z</time>
      </trkpt>
      <trkpt lat="43.64948" lon="6.04721">
        <ele>665.40002441406</ele>
        <time>2021-05-23T09:28:40Z</time>
      </trkpt>
      <trkpt lat="43.64949" lon="6.04719">
        <ele>665.59997558594</ele>
        <time>2021-05-23T09:28:41Z</time>
      </trkpt>
      <trkpt lat="43.64951" lon="6.04717">
        <ele>665.79998779297</ele>
        <time>2021-05-23T09:28:42Z</time>
      </trkpt>
      <trkpt lat="43.64952" lon="6.04716">
        <ele>665.79998779297</ele>
        <time>2021-05-23T09:28:43Z</time>
      </trkpt>
      <trkpt lat="43.64954" lon="6.04714">
        <ele>666</ele>
        <time>2021-05-23T09:28:44Z</time>
      </trkpt>
      <trkpt lat="43.64956" lon="6.04713">
        <ele>666</ele>
        <time>2021-05-23T09:28:45Z</time>
      </trkpt>
      <trkpt lat="43.64957" lon="6.04712">
        <ele>666</ele>
        <time>2021-05-23T09:28:46Z</time>
      </trkpt>
      <trkpt lat="43.64959" lon="6.04711">
        <ele>666.20001220703</ele>
        <time>2021-05-23T09:28:47Z</time>
      </trkpt>
      <trkpt lat="43.64961" lon="6.04709">
        <ele>666.40002441406</ele>
        <time>2021-05-23T09:28:48Z</time>
      </trkpt>
      <trkpt lat="43.64962" lon="6.04708">
        <ele>666.59997558594</ele>
        <time>2021-05-23T09:28:49Z</time>
      </trkpt>
      <trkpt lat="43.64964" lon="6.04706">
        <ele>666.79998779297</ele>
        <time>2021-05-23T09:28:50Z</time>
      </trkpt>
      <trkpt lat="43.64965" lon="6.04704">
        <ele>666.79998779297</ele>
        <time>2021-05-23T09:28:51Z</time>
      </trkpt>
      <trkpt lat="43.64966" lon="6.04702">
        <ele>667</ele>
        <time>2021-05-23T09:28:52Z</time>
      </trkpt>
      <trkpt lat="43.64968" lon="6.04701">
        <ele>667.20001220703</ele>
        <time>2021-05-23T09:28:53Z</time>
      </trkpt>
      <trkpt lat="43.64969" lon="6.04699">
        <ele>667.20001220703</ele>
        <time>2021-05-23T09:28:54Z</time>
      </trkpt>
      <trkpt lat="43.6497" lon="6.04698">
        <ele>667.40002441406</ele>
        <time>2021-05-23T09:28:55Z</time>
      </trkpt>
      <trkpt lat="43.64972" lon="6.04696">
        <ele>667.40002441406</ele>
        <time>2021-05-23T09:28:56Z</time>
      </trkpt>
      <trkpt lat="43.64973" lon="6.04694">
        <ele>667.40002441406</ele>
        <time>2021-05-23T09:28:57Z</time>
      </trkpt>
      <trkpt lat="43.64975" lon="6.04692">
        <ele>667.59997558594</ele>
        <time>2021-05-23T09:28:58Z</time>
      </trkpt>
      <trkpt lat="43.64976" lon="6.0469">
        <ele>667.59997558594</ele>
        <time>2021-05-23T09:28:59Z</time>
      </trkpt>
      <trkpt lat="43.64978" lon="6.04689">
        <ele>667.59997558594</ele>
        <time>2021-05-23T09:29:00Z</time>
      </trkpt>
      <trkpt lat="43.64981" lon="6.04688">
        <ele>667.59997558594</ele>
        <time>2021-05-23T09:29:01Z</time>
      </trkpt>
      <trkpt lat="43.64983" lon="6.04688">
        <ele>667.79998779297</ele>
        <time>2021-05-23T09:29:02Z</time>
      </trkpt>
      <trkpt lat="43.64985" lon="6.04689">
        <ele>668</ele>
        <time>2021-05-23T09:29:03Z</time>
      </trkpt>
      <trkpt lat="43.64987" lon="6.04691">
        <ele>668.20001220703</ele>
        <time>2021-05-23T09:29:04Z</time>
      </trkpt>
      <trkpt lat="43.6499" lon="6.04692">
        <ele>668.40002441406</ele>
        <time>2021-05-23T09:29:05Z</time>
      </trkpt>
      <trkpt lat="43.64992" lon="6.04694">
        <ele>668.40002441406</ele>
        <time>2021-05-23T09:29:06Z</time>
      </trkpt>
      <trkpt lat="43.64994" lon="6.04696">
        <ele>668.59997558594</ele>
        <time>2021-05-23T09:29:07Z</time>
      </trkpt>
      <trkpt lat="43.64996" lon="6.04697">
        <ele>668.59997558594</ele>
        <time>2021-05-23T09:29:08Z</time>
      </trkpt>
      <trkpt lat="43.64998" lon="6.04698">
        <ele>668.59997558594</ele>
        <time>2021-05-23T09:29:09Z</time>
      </trkpt>
      <trkpt lat="43.65" lon="6.04699">
        <ele>668.59997558594</ele>
        <time>2021-05-23T09:29:10Z</time>
      </trkpt>
      <trkpt lat="43.65002" lon="6.04701">
        <ele>668.79998779297</ele>
        <time>2021-05-23T09:29:11Z</time>
      </trkpt>
      <trkpt lat="43.65004" lon="6.04703">
        <ele>668.79998779297</ele>
        <time>2021-05-23T09:29:12Z</time>
      </trkpt>
      <trkpt lat="43.65006" lon="6.04705">
        <ele>669</ele>
        <time>2021-05-23T09:29:13Z</time>
      </trkpt>
      <trkpt lat="43.65008" lon="6.04708">
        <ele>669</ele>
        <time>2021-05-23T09:29:14Z</time>
      </trkpt>
      <trkpt lat="43.6501" lon="6.0471">
        <ele>669.20001220703</ele>
        <time>2021-05-23T09:29:15Z</time>
      </trkpt>
      <trkpt lat="43.65013" lon="6.04711">
        <ele>669.20001220703</ele>
        <time>2021-05-23T09:29:16Z</time>
      </trkpt>
      <trkpt lat="43.65015" lon="6.04711">
        <ele>669.20001220703</ele>
        <time>2021-05-23T09:29:17Z</time>
      </trkpt>
      <trkpt lat="43.65017" lon="6.04712">
        <ele>669.20001220703</ele>
        <time>2021-05-23T09:29:18Z</time>
      </trkpt>
      <trkpt lat="43.65019" lon="6.04713">
        <ele>669.20001220703</ele>
        <time>2021-05-23T09:29:19Z</time>
      </trkpt>
      <trkpt lat="43.65021" lon="6.04713">
        <ele>669.20001220703</ele>
        <time>2021-05-23T09:29:20Z</time>
      </trkpt>
      <trkpt lat="43.65023" lon="6.04714">
        <ele>669.20001220703</ele>
        <time>2021-05-23T09:29:21Z</time>
      </trkpt>
      <trkpt lat="43.65026" lon="6.04714">
        <ele>669</ele>
        <time>2021-05-23T09:29:22Z</time>
      </trkpt>
      <trkpt lat="43.65028" lon="6.04714">
        <ele>669</ele>
        <time>2021-05-23T09:29:23Z</time>
      </trkpt>
      <trkpt lat="43.65031" lon="6.04714">
        <ele>669</ele>
        <time>2021-05-23T09:29:24Z</time>
      </trkpt>
      <trkpt lat="43.65034" lon="6.04714">
        <ele>669</ele>
        <time>2021-05-23T09:29:25Z</time>
      </trkpt>
      <trkpt lat="43.65037" lon="6.04713">
        <ele>669</ele>
        <time>2021-05-23T09:29:26Z</time>
      </trkpt>
      <trkpt lat="43.6504" lon="6.04713">
        <ele>669</ele>
        <time>2021-05-23T09:29:27Z</time>
      </trkpt>
      <trkpt lat="43.65043" lon="6.04713">
        <ele>669</ele>
        <time>2021-05-23T09:29:28Z</time>
      </trkpt>
      <trkpt lat="43.65047" lon="6.04714">
        <ele>669</ele>
        <time>2021-05-23T09:29:29Z</time>
      </trkpt>
      <trkpt lat="43.6505" lon="6.04714">
        <ele>668.79998779297</ele>
        <time>2021-05-23T09:29:30Z</time>
      </trkpt>
      <trkpt lat="43.65054" lon="6.04714">
        <ele>668.79998779297</ele>
        <time>2021-05-23T09:29:31Z</time>
      </trkpt>
      <trkpt lat="43.65057" lon="6.04714">
        <ele>668.79998779297</ele>
        <time>2021-05-23T09:29:32Z</time>
      </trkpt>
      <trkpt lat="43.6506" lon="6.04714">
        <ele>668.59997558594</ele>
        <time>2021-05-23T09:29:33Z</time>
      </trkpt>
      <trkpt lat="43.65063" lon="6.04714">
        <ele>668.59997558594</ele>
        <time>2021-05-23T09:29:34Z</time>
      </trkpt>
      <trkpt lat="43.65066" lon="6.04714">
        <ele>668.59997558594</ele>
        <time>2021-05-23T09:29:35Z</time>
      </trkpt>
      <trkpt lat="43.65069" lon="6.04714">
        <ele>668.79998779297</ele>
        <time>2021-05-23T09:29:36Z</time>
      </trkpt>
      <trkpt lat="43.65072" lon="6.04714">
        <ele>668.79998779297</ele>
        <time>2021-05-23T09:29:37Z</time>
      </trkpt>
      <trkpt lat="43.65075" lon="6.04714">
        <ele>668.79998779297</ele>
        <time>2021-05-23T09:29:38Z</time>
      </trkpt>
      <trkpt lat="43.65079" lon="6.04714">
        <ele>668.59997558594</ele>
        <time>2021-05-23T09:29:39Z</time>
      </trkpt>
      <trkpt lat="43.65082" lon="6.04714">
        <ele>668.59997558594</ele>
        <time>2021-05-23T09:29:40Z</time>
      </trkpt>
      <trkpt lat="43.65086" lon="6.04714">
        <ele>668.40002441406</ele>
        <time>2021-05-23T09:29:41Z</time>
      </trkpt>
      <trkpt lat="43.65089" lon="6.04714">
        <ele>668.40002441406</ele>
        <time>2021-05-23T09:29:42Z</time>
      </trkpt>
      <trkpt lat="43.65093" lon="6.04715">
        <ele>668.40002441406</ele>
        <time>2021-05-23T09:29:43Z</time>
      </trkpt>
      <trkpt lat="43.65096" lon="6.04716">
        <ele>668.40002441406</ele>
        <time>2021-05-23T09:29:44Z</time>
      </trkpt>
      <trkpt lat="43.65099" lon="6.04716">
        <ele>668.40002441406</ele>
        <time>2021-05-23T09:29:45Z</time>
      </trkpt>
      <trkpt lat="43.65103" lon="6.04717">
        <ele>668.40002441406</ele>
        <time>2021-05-23T09:29:46Z</time>
      </trkpt>
      <trkpt lat="43.65106" lon="6.04717">
        <ele>668.20001220703</ele>
        <time>2021-05-23T09:29:47Z</time>
      </trkpt>
      <trkpt lat="43.6511" lon="6.04718">
        <ele>668.20001220703</ele>
        <time>2021-05-23T09:29:48Z</time>
      </trkpt>
      <trkpt lat="43.65113" lon="6.04718">
        <ele>668</ele>
        <time>2021-05-23T09:29:49Z</time>
      </trkpt>
      <trkpt lat="43.65116" lon="6.04719">
        <ele>668</ele>
        <time>2021-05-23T09:29:50Z</time>
      </trkpt>
      <trkpt lat="43.6512" lon="6.04719">
        <ele>667.79998779297</ele>
        <time>2021-05-23T09:29:51Z</time>
      </trkpt>
      <trkpt lat="43.65124" lon="6.04719">
        <ele>667.79998779297</ele>
        <time>2021-05-23T09:29:52Z</time>
      </trkpt>
      <trkpt lat="43.65128" lon="6.04719">
        <ele>667.59997558594</ele>
        <time>2021-05-23T09:29:53Z</time>
      </trkpt>
      <trkpt lat="43.65132" lon="6.0472">
        <ele>667.59997558594</ele>
        <time>2021-05-23T09:29:54Z</time>
      </trkpt>
      <trkpt lat="43.65136" lon="6.04721">
        <ele>667.40002441406</ele>
        <time>2021-05-23T09:29:55Z</time>
      </trkpt>
      <trkpt lat="43.6514" lon="6.04722">
        <ele>667.40002441406</ele>
        <time>2021-05-23T09:29:56Z</time>
      </trkpt>
      <trkpt lat="43.65144" lon="6.04724">
        <ele>667.40002441406</ele>
        <time>2021-05-23T09:29:57Z</time>
      </trkpt>
      <trkpt lat="43.65148" lon="6.04725">
        <ele>667.20001220703</ele>
        <time>2021-05-23T09:29:58Z</time>
      </trkpt>
      <trkpt lat="43.65151" lon="6.04725">
        <ele>667.20001220703</ele>
        <time>2021-05-23T09:29:59Z</time>
      </trkpt>
      <trkpt lat="43.65154" lon="6.04726">
        <ele>667.20001220703</ele>
        <time>2021-05-23T09:30:00Z</time>
      </trkpt>
      <trkpt lat="43.65157" lon="6.04726">
        <ele>667</ele>
        <time>2021-05-23T09:30:01Z</time>
      </trkpt>
      <trkpt lat="43.65161" lon="6.04727">
        <ele>667</ele>
        <time>2021-05-23T09:30:02Z</time>
      </trkpt>
      <trkpt lat="43.65165" lon="6.04727">
        <ele>667</ele>
        <time>2021-05-23T09:30:03Z</time>
      </trkpt>
      <trkpt lat="43.65169" lon="6.04728">
        <ele>666.79998779297</ele>
        <time>2021-05-23T09:30:04Z</time>
      </trkpt>
      <trkpt lat="43.65173" lon="6.04729">
        <ele>666.79998779297</ele>
        <time>2021-05-23T09:30:05Z</time>
      </trkpt>
      <trkpt lat="43.65177" lon="6.04729">
        <ele>666.59997558594</ele>
        <time>2021-05-23T09:30:06Z</time>
      </trkpt>
      <trkpt lat="43.65181" lon="6.04729">
        <ele>666.59997558594</ele>
        <time>2021-05-23T09:30:07Z</time>
      </trkpt>
      <trkpt lat="43.65185" lon="6.04729">
        <ele>666.59997558594</ele>
        <time>2021-05-23T09:30:08Z</time>
      </trkpt>
      <trkpt lat="43.65189" lon="6.0473">
        <ele>666.20001220703</ele>
        <time>2021-05-23T09:30:09Z</time>
      </trkpt>
      <trkpt lat="43.65194" lon="6.0473">
        <ele>666.20001220703</ele>
        <time>2021-05-23T09:30:10Z</time>
      </trkpt>
      <trkpt lat="43.65198" lon="6.0473">
        <ele>666.20001220703</ele>
        <time>2021-05-23T09:30:11Z</time>
      </trkpt>
      <trkpt lat="43.65202" lon="6.04731">
        <ele>666</ele>
        <time>2021-05-23T09:30:12Z</time>
      </trkpt>
      <trkpt lat="43.65206" lon="6.04732">
        <ele>666</ele>
        <time>2021-05-23T09:30:13Z</time>
      </trkpt>
      <trkpt lat="43.6521" lon="6.04733">
        <ele>666</ele>
        <time>2021-05-23T09:30:14Z</time>
      </trkpt>
      <trkpt lat="43.65214" lon="6.04735">
        <ele>666</ele>
        <time>2021-05-23T09:30:15Z</time>
      </trkpt>
      <trkpt lat="43.65217" lon="6.04736">
        <ele>666</ele>
        <time>2021-05-23T09:30:16Z</time>
      </trkpt>
      <trkpt lat="43.65221" lon="6.04738">
        <ele>666</ele>
        <time>2021-05-23T09:30:17Z</time>
      </trkpt>
      <trkpt lat="43.65224" lon="6.04739">
        <ele>665.79998779297</ele>
        <time>2021-05-23T09:30:18Z</time>
      </trkpt>
      <trkpt lat="43.65228" lon="6.0474">
        <ele>665.79998779297</ele>
        <time>2021-05-23T09:30:19Z</time>
      </trkpt>
      <trkpt lat="43.65231" lon="6.04741">
        <ele>665.59997558594</ele>
        <time>2021-05-23T09:30:20Z</time>
      </trkpt>
      <trkpt lat="43.65235" lon="6.04742">
        <ele>665.59997558594</ele>
        <time>2021-05-23T09:30:21Z</time>
      </trkpt>
      <trkpt lat="43.65238" lon="6.04742">
        <ele>665.59997558594</ele>
        <time>2021-05-23T09:30:22Z</time>
      </trkpt>
      <trkpt lat="43.65242" lon="6.04742">
        <ele>665.40002441406</ele>
        <time>2021-05-23T09:30:23Z</time>
      </trkpt>
      <trkpt lat="43.65246" lon="6.04743">
        <ele>665.40002441406</ele>
        <time>2021-05-23T09:30:24Z</time>
      </trkpt>
      <trkpt lat="43.6525" lon="6.04744">
        <ele>665.40002441406</ele>
        <time>2021-05-23T09:30:25Z</time>
      </trkpt>
      <trkpt lat="43.65254" lon="6.04744">
        <ele>665.40002441406</ele>
        <time>2021-05-23T09:30:26Z</time>
      </trkpt>
      <trkpt lat="43.65258" lon="6.04744">
        <ele>665.20001220703</ele>
        <time>2021-05-23T09:30:27Z</time>
      </trkpt>
      <trkpt lat="43.65262" lon="6.04744">
        <ele>665</ele>
        <time>2021-05-23T09:30:28Z</time>
      </trkpt>
      <trkpt lat="43.65266" lon="6.04744">
        <ele>664.79998779297</ele>
        <time>2021-05-23T09:30:29Z</time>
      </trkpt>
      <trkpt lat="43.6527" lon="6.04744">
        <ele>664.79998779297</ele>
        <time>2021-05-23T09:30:30Z</time>
      </trkpt>
      <trkpt lat="43.65274" lon="6.04743">
        <ele>664.59997558594</ele>
        <time>2021-05-23T09:30:31Z</time>
      </trkpt>
      <trkpt lat="43.65278" lon="6.04743">
        <ele>664.59997558594</ele>
        <time>2021-05-23T09:30:32Z</time>
      </trkpt>
      <trkpt lat="43.65282" lon="6.04742">
        <ele>664.40002441406</ele>
        <time>2021-05-23T09:30:33Z</time>
      </trkpt>
      <trkpt lat="43.65285" lon="6.04741">
        <ele>664.40002441406</ele>
        <time>2021-05-23T09:30:34Z</time>
      </trkpt>
      <trkpt lat="43.65289" lon="6.0474">
        <ele>664.40002441406</ele>
        <time>2021-05-23T09:30:35Z</time>
      </trkpt>
      <trkpt lat="43.65293" lon="6.04739">
        <ele>664.20001220703</ele>
        <time>2021-05-23T09:30:36Z</time>
      </trkpt>
      <trkpt lat="43.65297" lon="6.04738">
        <ele>664.20001220703</ele>
        <time>2021-05-23T09:30:37Z</time>
      </trkpt>
      <trkpt lat="43.65301" lon="6.04736">
        <ele>664.20001220703</ele>
        <time>2021-05-23T09:30:38Z</time>
      </trkpt>
      <trkpt lat="43.65305" lon="6.04734">
        <ele>664</ele>
        <time>2021-05-23T09:30:39Z</time>
      </trkpt>
      <trkpt lat="43.65309" lon="6.04732">
        <ele>663.79998779297</ele>
        <time>2021-05-23T09:30:40Z</time>
      </trkpt>
      <trkpt lat="43.65313" lon="6.0473">
        <ele>663.59997558594</ele>
        <time>2021-05-23T09:30:41Z</time>
      </trkpt>
      <trkpt lat="43.65316" lon="6.04729">
        <ele>663.59997558594</ele>
        <time>2021-05-23T09:30:42Z</time>
      </trkpt>
      <trkpt lat="43.6532" lon="6.04727">
        <ele>663.59997558594</ele>
        <time>2021-05-23T09:30:43Z</time>
      </trkpt>
      <trkpt lat="43.65324" lon="6.04726">
        <ele>663.59997558594</ele>
        <time>2021-05-23T09:30:44Z</time>
      </trkpt>
      <trkpt lat="43.65328" lon="6.04725">
        <ele>663.40002441406</ele>
        <time>2021-05-23T09:30:45Z</time>
      </trkpt>
      <trkpt lat="43.65332" lon="6.04724">
        <ele>663.40002441406</ele>
        <time>2021-05-23T09:30:46Z</time>
      </trkpt>
      <trkpt lat="43.65335" lon="6.04723">
        <ele>663.20001220703</ele>
        <time>2021-05-23T09:30:47Z</time>
      </trkpt>
      <trkpt lat="43.65339" lon="6.04723">
        <ele>663.20001220703</ele>
        <time>2021-05-23T09:30:48Z</time>
      </trkpt>
      <trkpt lat="43.65343" lon="6.04722">
        <ele>663</ele>
        <time>2021-05-23T09:30:49Z</time>
      </trkpt>
      <trkpt lat="43.65347" lon="6.04721">
        <ele>663</ele>
        <time>2021-05-23T09:30:50Z</time>
      </trkpt>
      <trkpt lat="43.6535" lon="6.0472">
        <ele>663</ele>
        <time>2021-05-23T09:30:51Z</time>
      </trkpt>
      <trkpt lat="43.65354" lon="6.0472">
        <ele>663</ele>
        <time>2021-05-23T09:30:52Z</time>
      </trkpt>
      <trkpt lat="43.65359" lon="6.04719">
        <ele>663</ele>
        <time>2021-05-23T09:30:53Z</time>
      </trkpt>
      <trkpt lat="43.65363" lon="6.04718">
        <ele>663</ele>
        <time>2021-05-23T09:30:54Z</time>
      </trkpt>
      <trkpt lat="43.65367" lon="6.04717">
        <ele>663</ele>
        <time>2021-05-23T09:30:55Z</time>
      </trkpt>
      <trkpt lat="43.6537" lon="6.04715">
        <ele>662.79998779297</ele>
        <time>2021-05-23T09:30:56Z</time>
      </trkpt>
      <trkpt lat="43.65374" lon="6.04714">
        <ele>662.59997558594</ele>
        <time>2021-05-23T09:30:57Z</time>
      </trkpt>
      <trkpt lat="43.65378" lon="6.04713">
        <ele>662.40002441406</ele>
        <time>2021-05-23T09:30:58Z</time>
      </trkpt>
      <trkpt lat="43.65382" lon="6.04712">
        <ele>662.20001220703</ele>
        <time>2021-05-23T09:30:59Z</time>
      </trkpt>
      <trkpt lat="43.65386" lon="6.04711">
        <ele>661.79998779297</ele>
        <time>2021-05-23T09:31:00Z</time>
      </trkpt>
      <trkpt lat="43.65391" lon="6.04709">
        <ele>661.40002441406</ele>
        <time>2021-05-23T09:31:01Z</time>
      </trkpt>
      <trkpt lat="43.65395" lon="6.04707">
        <ele>661</ele>
        <time>2021-05-23T09:31:02Z</time>
      </trkpt>
      <trkpt lat="43.65399" lon="6.04706">
        <ele>661</ele>
        <time>2021-05-23T09:31:03Z</time>
      </trkpt>
      <trkpt lat="43.65403" lon="6.04704">
        <ele>660.79998779297</ele>
        <time>2021-05-23T09:31:04Z</time>
      </trkpt>
      <trkpt lat="43.65406" lon="6.04703">
        <ele>660.79998779297</ele>
        <time>2021-05-23T09:31:05Z</time>
      </trkpt>
      <trkpt lat="43.6541" lon="6.04701">
        <ele>660.79998779297</ele>
        <time>2021-05-23T09:31:06Z</time>
      </trkpt>
      <trkpt lat="43.65414" lon="6.04699">
        <ele>660.79998779297</ele>
        <time>2021-05-23T09:31:07Z</time>
      </trkpt>
      <trkpt lat="43.65417" lon="6.04697">
        <ele>660.79998779297</ele>
        <time>2021-05-23T09:31:08Z</time>
      </trkpt>
      <trkpt lat="43.65421" lon="6.04695">
        <ele>660.79998779297</ele>
        <time>2021-05-23T09:31:09Z</time>
      </trkpt>
      <trkpt lat="43.65425" lon="6.04694">
        <ele>660.59997558594</ele>
        <time>2021-05-23T09:31:10Z</time>
      </trkpt>
      <trkpt lat="43.65429" lon="6.04692">
        <ele>660.40002441406</ele>
        <time>2021-05-23T09:31:11Z</time>
      </trkpt>
      <trkpt lat="43.65432" lon="6.0469">
        <ele>660.20001220703</ele>
        <time>2021-05-23T09:31:12Z</time>
      </trkpt>
      <trkpt lat="43.65436" lon="6.04689">
        <ele>660</ele>
        <time>2021-05-23T09:31:13Z</time>
      </trkpt>
      <trkpt lat="43.6544" lon="6.04688">
        <ele>659.59997558594</ele>
        <time>2021-05-23T09:31:14Z</time>
      </trkpt>
      <trkpt lat="43.65444" lon="6.04686">
        <ele>659.59997558594</ele>
        <time>2021-05-23T09:31:15Z</time>
      </trkpt>
      <trkpt lat="43.65448" lon="6.04684">
        <ele>659.40002441406</ele>
        <time>2021-05-23T09:31:16Z</time>
      </trkpt>
      <trkpt lat="43.65452" lon="6.04682">
        <ele>659.40002441406</ele>
        <time>2021-05-23T09:31:17Z</time>
      </trkpt>
      <trkpt lat="43.65456" lon="6.04681">
        <ele>659</ele>
        <time>2021-05-23T09:31:18Z</time>
      </trkpt>
      <trkpt lat="43.6546" lon="6.04679">
        <ele>659</ele>
        <time>2021-05-23T09:31:19Z</time>
      </trkpt>
      <trkpt lat="43.65464" lon="6.04678">
        <ele>658.79998779297</ele>
        <time>2021-05-23T09:31:20Z</time>
      </trkpt>
      <trkpt lat="43.65467" lon="6.04677">
        <ele>658.79998779297</ele>
        <time>2021-05-23T09:31:21Z</time>
      </trkpt>
      <trkpt lat="43.65471" lon="6.04676">
        <ele>658.79998779297</ele>
        <time>2021-05-23T09:31:22Z</time>
      </trkpt>
      <trkpt lat="43.65474" lon="6.04674">
        <ele>658.79998779297</ele>
        <time>2021-05-23T09:31:23Z</time>
      </trkpt>
      <trkpt lat="43.65478" lon="6.04674">
        <ele>658.79998779297</ele>
        <time>2021-05-23T09:31:24Z</time>
      </trkpt>
      <trkpt lat="43.65482" lon="6.04673">
        <ele>658.59997558594</ele>
        <time>2021-05-23T09:31:25Z</time>
      </trkpt>
      <trkpt lat="43.65486" lon="6.04673">
        <ele>658.20001220703</ele>
        <time>2021-05-23T09:31:26Z</time>
      </trkpt>
      <trkpt lat="43.6549" lon="6.04672">
        <ele>658</ele>
        <time>2021-05-23T09:31:27Z</time>
      </trkpt>
      <trkpt lat="43.65494" lon="6.04672">
        <ele>658.20001220703</ele>
        <time>2021-05-23T09:31:28Z</time>
      </trkpt>
      <trkpt lat="43.65498" lon="6.04672">
        <ele>658</ele>
        <time>2021-05-23T09:31:29Z</time>
      </trkpt>
      <trkpt lat="43.65502" lon="6.04672">
        <ele>658</ele>
        <time>2021-05-23T09:31:30Z</time>
      </trkpt>
      <trkpt lat="43.65506" lon="6.04672">
        <ele>657.59997558594</ele>
        <time>2021-05-23T09:31:31Z</time>
      </trkpt>
      <trkpt lat="43.6551" lon="6.04671">
        <ele>657.40002441406</ele>
        <time>2021-05-23T09:31:32Z</time>
      </trkpt>
      <trkpt lat="43.65514" lon="6.04671">
        <ele>657</ele>
        <time>2021-05-23T09:31:33Z</time>
      </trkpt>
      <trkpt lat="43.65518" lon="6.04671">
        <ele>656.59997558594</ele>
        <time>2021-05-23T09:31:34Z</time>
      </trkpt>
      <trkpt lat="43.65522" lon="6.04671">
        <ele>656.40002441406</ele>
        <time>2021-05-23T09:31:35Z</time>
      </trkpt>
      <trkpt lat="43.65526" lon="6.04671">
        <ele>656</ele>
        <time>2021-05-23T09:31:36Z</time>
      </trkpt>
      <trkpt lat="43.6553" lon="6.0467">
        <ele>655.79998779297</ele>
        <time>2021-05-23T09:31:37Z</time>
      </trkpt>
      <trkpt lat="43.65534" lon="6.04669">
        <ele>656</ele>
        <time>2021-05-23T09:31:38Z</time>
      </trkpt>
      <trkpt lat="43.65538" lon="6.04669">
        <ele>655.79998779297</ele>
        <time>2021-05-23T09:31:39Z</time>
      </trkpt>
      <trkpt lat="43.65542" lon="6.04669">
        <ele>655.79998779297</ele>
        <time>2021-05-23T09:31:40Z</time>
      </trkpt>
      <trkpt lat="43.65546" lon="6.04669">
        <ele>655.59997558594</ele>
        <time>2021-05-23T09:31:41Z</time>
      </trkpt>
      <trkpt lat="43.6555" lon="6.04668">
        <ele>655.59997558594</ele>
        <time>2021-05-23T09:31:42Z</time>
      </trkpt>
      <trkpt lat="43.65554" lon="6.04667">
        <ele>655</ele>
        <time>2021-05-23T09:31:43Z</time>
      </trkpt>
      <trkpt lat="43.65559" lon="6.04666">
        <ele>654.79998779297</ele>
        <time>2021-05-23T09:31:44Z</time>
      </trkpt>
      <trkpt lat="43.65563" lon="6.04665">
        <ele>654.59997558594</ele>
        <time>2021-05-23T09:31:45Z</time>
      </trkpt>
      <trkpt lat="43.65567" lon="6.04664">
        <ele>654.40002441406</ele>
        <time>2021-05-23T09:31:46Z</time>
      </trkpt>
      <trkpt lat="43.65571" lon="6.04663">
        <ele>654.20001220703</ele>
        <time>2021-05-23T09:31:47Z</time>
      </trkpt>
      <trkpt lat="43.65575" lon="6.04662">
        <ele>654</ele>
        <time>2021-05-23T09:31:48Z</time>
      </trkpt>
      <trkpt lat="43.65578" lon="6.04661">
        <ele>653.79998779297</ele>
        <time>2021-05-23T09:31:49Z</time>
      </trkpt>
      <trkpt lat="43.65581" lon="6.04661">
        <ele>653.79998779297</ele>
        <time>2021-05-23T09:31:50Z</time>
      </trkpt>
      <trkpt lat="43.65585" lon="6.0466">
        <ele>653.59997558594</ele>
        <time>2021-05-23T09:31:51Z</time>
      </trkpt>
      <trkpt lat="43.65589" lon="6.04659">
        <ele>653.40002441406</ele>
        <time>2021-05-23T09:31:52Z</time>
      </trkpt>
      <trkpt lat="43.65592" lon="6.04659">
        <ele>653.20001220703</ele>
        <time>2021-05-23T09:31:53Z</time>
      </trkpt>
      <trkpt lat="43.65596" lon="6.04658">
        <ele>653</ele>
        <time>2021-05-23T09:31:54Z</time>
      </trkpt>
      <trkpt lat="43.656" lon="6.04658">
        <ele>652.79998779297</ele>
        <time>2021-05-23T09:31:55Z</time>
      </trkpt>
      <trkpt lat="43.65603" lon="6.04657">
        <ele>652.59997558594</ele>
        <time>2021-05-23T09:31:56Z</time>
      </trkpt>
      <trkpt lat="43.65607" lon="6.04656">
        <ele>652.40002441406</ele>
        <time>2021-05-23T09:31:57Z</time>
      </trkpt>
      <trkpt lat="43.6561" lon="6.04655">
        <ele>652.40002441406</ele>
        <time>2021-05-23T09:31:58Z</time>
      </trkpt>
      <trkpt lat="43.65614" lon="6.04654">
        <ele>652.40002441406</ele>
        <time>2021-05-23T09:31:59Z</time>
      </trkpt>
      <trkpt lat="43.65618" lon="6.04654">
        <ele>652.20001220703</ele>
        <time>2021-05-23T09:32:00Z</time>
      </trkpt>
      <trkpt lat="43.65623" lon="6.04653">
        <ele>652.20001220703</ele>
        <time>2021-05-23T09:32:01Z</time>
      </trkpt>
      <trkpt lat="43.65626" lon="6.04652">
        <ele>652.20001220703</ele>
        <time>2021-05-23T09:32:02Z</time>
      </trkpt>
      <trkpt lat="43.6563" lon="6.04652">
        <ele>652.20001220703</ele>
        <time>2021-05-23T09:32:03Z</time>
      </trkpt>
      <trkpt lat="43.65634" lon="6.04651">
        <ele>651.79998779297</ele>
        <time>2021-05-23T09:32:04Z</time>
      </trkpt>
      <trkpt lat="43.65637" lon="6.04651">
        <ele>651.20001220703</ele>
        <time>2021-05-23T09:32:05Z</time>
      </trkpt>
      <trkpt lat="43.65641" lon="6.0465">
        <ele>650.59997558594</ele>
        <time>2021-05-23T09:32:06Z</time>
      </trkpt>
      <trkpt lat="43.65645" lon="6.0465">
        <ele>650.40002441406</ele>
        <time>2021-05-23T09:32:07Z</time>
      </trkpt>
      <trkpt lat="43.65648" lon="6.0465">
        <ele>650.20001220703</ele>
        <time>2021-05-23T09:32:08Z</time>
      </trkpt>
      <trkpt lat="43.65652" lon="6.04649">
        <ele>650</ele>
        <time>2021-05-23T09:32:09Z</time>
      </trkpt>
      <trkpt lat="43.65655" lon="6.04649">
        <ele>650</ele>
        <time>2021-05-23T09:32:10Z</time>
      </trkpt>
      <trkpt lat="43.65659" lon="6.04648">
        <ele>649.79998779297</ele>
        <time>2021-05-23T09:32:11Z</time>
      </trkpt>
      <trkpt lat="43.65663" lon="6.04648">
        <ele>649.59997558594</ele>
        <time>2021-05-23T09:32:12Z</time>
      </trkpt>
      <trkpt lat="43.65666" lon="6.04647">
        <ele>649.20001220703</ele>
        <time>2021-05-23T09:32:13Z</time>
      </trkpt>
      <trkpt lat="43.65669" lon="6.04646">
        <ele>648.79998779297</ele>
        <time>2021-05-23T09:32:14Z</time>
      </trkpt>
      <trkpt lat="43.65671" lon="6.04646">
        <ele>648.59997558594</ele>
        <time>2021-05-23T09:32:15Z</time>
      </trkpt>
      <trkpt lat="43.65673" lon="6.04645">
        <ele>648.40002441406</ele>
        <time>2021-05-23T09:32:16Z</time>
      </trkpt>
      <trkpt lat="43.65675" lon="6.04645">
        <ele>648</ele>
        <time>2021-05-23T09:32:17Z</time>
      </trkpt>
      <trkpt lat="43.65677" lon="6.04645">
        <ele>647.79998779297</ele>
        <time>2021-05-23T09:32:18Z</time>
      </trkpt>
      <trkpt lat="43.65678" lon="6.04644">
        <ele>647.59997558594</ele>
        <time>2021-05-23T09:32:19Z</time>
      </trkpt>
      <trkpt lat="43.65679" lon="6.04643">
        <ele>647.20001220703</ele>
        <time>2021-05-23T09:32:20Z</time>
      </trkpt>
      <trkpt lat="43.6568" lon="6.04642">
        <ele>647.20001220703</ele>
        <time>2021-05-23T09:32:21Z</time>
      </trkpt>
      <trkpt lat="43.65681" lon="6.04642">
        <ele>647</ele>
        <time>2021-05-23T09:32:22Z</time>
      </trkpt>
      <trkpt lat="43.65683" lon="6.0464">
        <ele>646.79998779297</ele>
        <time>2021-05-23T09:32:23Z</time>
      </trkpt>
      <trkpt lat="43.65685" lon="6.04638">
        <ele>646.79998779297</ele>
        <time>2021-05-23T09:32:24Z</time>
      </trkpt>
      <trkpt lat="43.65686" lon="6.04636">
        <ele>646.59997558594</ele>
        <time>2021-05-23T09:32:25Z</time>
      </trkpt>
      <trkpt lat="43.65688" lon="6.04634">
        <ele>646.59997558594</ele>
        <time>2021-05-23T09:32:26Z</time>
      </trkpt>
      <trkpt lat="43.6569" lon="6.04633">
        <ele>646.40002441406</ele>
        <time>2021-05-23T09:32:27Z</time>
      </trkpt>
      <trkpt lat="43.65691" lon="6.04632">
        <ele>646.40002441406</ele>
        <time>2021-05-23T09:32:28Z</time>
      </trkpt>
      <trkpt lat="43.65693" lon="6.04632">
        <ele>646.20001220703</ele>
        <time>2021-05-23T09:32:29Z</time>
      </trkpt>
      <trkpt lat="43.65694" lon="6.04631">
        <ele>646.20001220703</ele>
        <time>2021-05-23T09:32:30Z</time>
      </trkpt>
      <trkpt lat="43.65696" lon="6.04631">
        <ele>646.20001220703</ele>
        <time>2021-05-23T09:32:31Z</time>
      </trkpt>
      <trkpt lat="43.65698" lon="6.0463">
        <ele>646</ele>
        <time>2021-05-23T09:32:32Z</time>
      </trkpt>
      <trkpt lat="43.65699" lon="6.04629">
        <ele>646</ele>
        <time>2021-05-23T09:32:33Z</time>
      </trkpt>
      <trkpt lat="43.65702" lon="6.04626">
        <ele>646</ele>
        <time>2021-05-23T09:32:34Z</time>
      </trkpt>
      <trkpt lat="43.65704" lon="6.04624">
        <ele>646</ele>
        <time>2021-05-23T09:32:35Z</time>
      </trkpt>
      <trkpt lat="43.65706" lon="6.04621">
        <ele>646</ele>
        <time>2021-05-23T09:32:36Z</time>
      </trkpt>
      <trkpt lat="43.65708" lon="6.04617">
        <ele>646</ele>
        <time>2021-05-23T09:32:37Z</time>
      </trkpt>
      <trkpt lat="43.6571" lon="6.04614">
        <ele>646</ele>
        <time>2021-05-23T09:32:38Z</time>
      </trkpt>
      <trkpt lat="43.65712" lon="6.0461">
        <ele>646</ele>
        <time>2021-05-23T09:32:39Z</time>
      </trkpt>
      <trkpt lat="43.65715" lon="6.04607">
        <ele>646</ele>
        <time>2021-05-23T09:32:40Z</time>
      </trkpt>
      <trkpt lat="43.65717" lon="6.04603">
        <ele>645.79998779297</ele>
        <time>2021-05-23T09:32:41Z</time>
      </trkpt>
      <trkpt lat="43.65721" lon="6.04599">
        <ele>645.79998779297</ele>
        <time>2021-05-23T09:32:42Z</time>
      </trkpt>
      <trkpt lat="43.65724" lon="6.04596">
        <ele>645.79998779297</ele>
        <time>2021-05-23T09:32:43Z</time>
      </trkpt>
      <trkpt lat="43.65727" lon="6.04593">
        <ele>645.59997558594</ele>
        <time>2021-05-23T09:32:44Z</time>
      </trkpt>
      <trkpt lat="43.6573" lon="6.0459">
        <ele>645.59997558594</ele>
        <time>2021-05-23T09:32:45Z</time>
      </trkpt>
      <trkpt lat="43.65733" lon="6.04586">
        <ele>645.79998779297</ele>
        <time>2021-05-23T09:32:46Z</time>
      </trkpt>
      <trkpt lat="43.65736" lon="6.04583">
        <ele>645.79998779297</ele>
        <time>2021-05-23T09:32:47Z</time>
      </trkpt>
      <trkpt lat="43.65739" lon="6.0458">
        <ele>646</ele>
        <time>2021-05-23T09:32:48Z</time>
      </trkpt>
      <trkpt lat="43.65742" lon="6.04576">
        <ele>646</ele>
        <time>2021-05-23T09:32:49Z</time>
      </trkpt>
      <trkpt lat="43.65744" lon="6.04573">
        <ele>645.79998779297</ele>
        <time>2021-05-23T09:32:50Z</time>
      </trkpt>
      <trkpt lat="43.65748" lon="6.0457">
        <ele>645.79998779297</ele>
        <time>2021-05-23T09:32:51Z</time>
      </trkpt>
      <trkpt lat="43.65751" lon="6.04567">
        <ele>645.59997558594</ele>
        <time>2021-05-23T09:32:52Z</time>
      </trkpt>
      <trkpt lat="43.65754" lon="6.04563">
        <ele>645.59997558594</ele>
        <time>2021-05-23T09:32:53Z</time>
      </trkpt>
      <trkpt lat="43.65757" lon="6.04559">
        <ele>645.20001220703</ele>
        <time>2021-05-23T09:32:54Z</time>
      </trkpt>
      <trkpt lat="43.6576" lon="6.04556">
        <ele>645.20001220703</ele>
        <time>2021-05-23T09:32:55Z</time>
      </trkpt>
      <trkpt lat="43.65762" lon="6.04552">
        <ele>645</ele>
        <time>2021-05-23T09:32:56Z</time>
      </trkpt>
      <trkpt lat="43.65766" lon="6.04549">
        <ele>644.79998779297</ele>
        <time>2021-05-23T09:32:57Z</time>
      </trkpt>
      <trkpt lat="43.65768" lon="6.04546">
        <ele>644.59997558594</ele>
        <time>2021-05-23T09:32:58Z</time>
      </trkpt>
      <trkpt lat="43.65772" lon="6.04542">
        <ele>644.79998779297</ele>
        <time>2021-05-23T09:32:59Z</time>
      </trkpt>
      <trkpt lat="43.65775" lon="6.04538">
        <ele>644.79998779297</ele>
        <time>2021-05-23T09:33:00Z</time>
      </trkpt>
      <trkpt lat="43.65778" lon="6.04536">
        <ele>644.79998779297</ele>
        <time>2021-05-23T09:33:01Z</time>
      </trkpt>
      <trkpt lat="43.6578" lon="6.04533">
        <ele>644.79998779297</ele>
        <time>2021-05-23T09:33:02Z</time>
      </trkpt>
      <trkpt lat="43.65783" lon="6.0453">
        <ele>644.79998779297</ele>
        <time>2021-05-23T09:33:03Z</time>
      </trkpt>
      <trkpt lat="43.65785" lon="6.04528">
        <ele>645</ele>
        <time>2021-05-23T09:33:04Z</time>
      </trkpt>
      <trkpt lat="43.65788" lon="6.04525">
        <ele>645</ele>
        <time>2021-05-23T09:33:05Z</time>
      </trkpt>
      <trkpt lat="43.6579" lon="6.04523">
        <ele>645</ele>
        <time>2021-05-23T09:33:06Z</time>
      </trkpt>
      <trkpt lat="43.65793" lon="6.0452">
        <ele>645</ele>
        <time>2021-05-23T09:33:07Z</time>
      </trkpt>
      <trkpt lat="43.65796" lon="6.04517">
        <ele>645</ele>
        <time>2021-05-23T09:33:08Z</time>
      </trkpt>
      <trkpt lat="43.65799" lon="6.04514">
        <ele>645</ele>
        <time>2021-05-23T09:33:09Z</time>
      </trkpt>
      <trkpt lat="43.65802" lon="6.04512">
        <ele>645</ele>
        <time>2021-05-23T09:33:10Z</time>
      </trkpt>
      <trkpt lat="43.65806" lon="6.0451">
        <ele>645</ele>
        <time>2021-05-23T09:33:11Z</time>
      </trkpt>
      <trkpt lat="43.65809" lon="6.04507">
        <ele>644.79998779297</ele>
        <time>2021-05-23T09:33:12Z</time>
      </trkpt>
      <trkpt lat="43.65812" lon="6.04504">
        <ele>644.59997558594</ele>
        <time>2021-05-23T09:33:13Z</time>
      </trkpt>
      <trkpt lat="43.65816" lon="6.04501">
        <ele>644.59997558594</ele>
        <time>2021-05-23T09:33:14Z</time>
      </trkpt>
      <trkpt lat="43.65819" lon="6.04499">
        <ele>644.40002441406</ele>
        <time>2021-05-23T09:33:15Z</time>
      </trkpt>
      <trkpt lat="43.65822" lon="6.04496">
        <ele>644.20001220703</ele>
        <time>2021-05-23T09:33:16Z</time>
      </trkpt>
      <trkpt lat="43.65825" lon="6.04493">
        <ele>644.20001220703</ele>
        <time>2021-05-23T09:33:17Z</time>
      </trkpt>
      <trkpt lat="43.65828" lon="6.0449">
        <ele>644.20001220703</ele>
        <time>2021-05-23T09:33:18Z</time>
      </trkpt>
      <trkpt lat="43.65831" lon="6.04487">
        <ele>644.20001220703</ele>
        <time>2021-05-23T09:33:19Z</time>
      </trkpt>
      <trkpt lat="43.65833" lon="6.04484">
        <ele>644</ele>
        <time>2021-05-23T09:33:20Z</time>
      </trkpt>
      <trkpt lat="43.65836" lon="6.0448">
        <ele>643.79998779297</ele>
        <time>2021-05-23T09:33:21Z</time>
      </trkpt>
      <trkpt lat="43.65839" lon="6.04478">
        <ele>643.79998779297</ele>
        <time>2021-05-23T09:33:22Z</time>
      </trkpt>
      <trkpt lat="43.65842" lon="6.04474">
        <ele>643.79998779297</ele>
        <time>2021-05-23T09:33:23Z</time>
      </trkpt>
      <trkpt lat="43.65845" lon="6.04471">
        <ele>643.59997558594</ele>
        <time>2021-05-23T09:33:24Z</time>
      </trkpt>
      <trkpt lat="43.65849" lon="6.04468">
        <ele>643.59997558594</ele>
        <time>2021-05-23T09:33:25Z</time>
      </trkpt>
      <trkpt lat="43.65852" lon="6.04465">
        <ele>643.59997558594</ele>
        <time>2021-05-23T09:33:26Z</time>
      </trkpt>
      <trkpt lat="43.65855" lon="6.04462">
        <ele>643.40002441406</ele>
        <time>2021-05-23T09:33:27Z</time>
      </trkpt>
      <trkpt lat="43.65858" lon="6.04458">
        <ele>643.20001220703</ele>
        <time>2021-05-23T09:33:28Z</time>
      </trkpt>
      <trkpt lat="43.65861" lon="6.04455">
        <ele>643</ele>
        <time>2021-05-23T09:33:29Z</time>
      </trkpt>
      <trkpt lat="43.65864" lon="6.04452">
        <ele>642.79998779297</ele>
        <time>2021-05-23T09:33:30Z</time>
      </trkpt>
      <trkpt lat="43.65868" lon="6.04449">
        <ele>642.59997558594</ele>
        <time>2021-05-23T09:33:31Z</time>
      </trkpt>
      <trkpt lat="43.65871" lon="6.04446">
        <ele>642.40002441406</ele>
        <time>2021-05-23T09:33:32Z</time>
      </trkpt>
      <trkpt lat="43.65875" lon="6.04443">
        <ele>642.20001220703</ele>
        <time>2021-05-23T09:33:33Z</time>
      </trkpt>
      <trkpt lat="43.65878" lon="6.0444">
        <ele>642.20001220703</ele>
        <time>2021-05-23T09:33:34Z</time>
      </trkpt>
      <trkpt lat="43.65881" lon="6.04437">
        <ele>641.79998779297</ele>
        <time>2021-05-23T09:33:35Z</time>
      </trkpt>
      <trkpt lat="43.65885" lon="6.04433">
        <ele>641.59997558594</ele>
        <time>2021-05-23T09:33:36Z</time>
      </trkpt>
      <trkpt lat="43.65888" lon="6.04429">
        <ele>641.40002441406</ele>
        <time>2021-05-23T09:33:37Z</time>
      </trkpt>
      <trkpt lat="43.65892" lon="6.04425">
        <ele>641.40002441406</ele>
        <time>2021-05-23T09:33:38Z</time>
      </trkpt>
      <trkpt lat="43.65895" lon="6.04421">
        <ele>641.20001220703</ele>
        <time>2021-05-23T09:33:39Z</time>
      </trkpt>
      <trkpt lat="43.65899" lon="6.04417">
        <ele>641</ele>
        <time>2021-05-23T09:33:40Z</time>
      </trkpt>
      <trkpt lat="43.65902" lon="6.04413">
        <ele>640.79998779297</ele>
        <time>2021-05-23T09:33:41Z</time>
      </trkpt>
      <trkpt lat="43.65906" lon="6.04409">
        <ele>640.40002441406</ele>
        <time>2021-05-23T09:33:42Z</time>
      </trkpt>
      <trkpt lat="43.65909" lon="6.04405">
        <ele>639.79998779297</ele>
        <time>2021-05-23T09:33:43Z</time>
      </trkpt>
      <trkpt lat="43.65913" lon="6.04401">
        <ele>639.20001220703</ele>
        <time>2021-05-23T09:33:44Z</time>
      </trkpt>
      <trkpt lat="43.65917" lon="6.04397">
        <ele>639</ele>
        <time>2021-05-23T09:33:45Z</time>
      </trkpt>
      <trkpt lat="43.65921" lon="6.04393">
        <ele>639</ele>
        <time>2021-05-23T09:33:46Z</time>
      </trkpt>
      <trkpt lat="43.65924" lon="6.04388">
        <ele>638.79998779297</ele>
        <time>2021-05-23T09:33:47Z</time>
      </trkpt>
      <trkpt lat="43.65928" lon="6.04384">
        <ele>638.59997558594</ele>
        <time>2021-05-23T09:33:48Z</time>
      </trkpt>
      <trkpt lat="43.65931" lon="6.04381">
        <ele>638.59997558594</ele>
        <time>2021-05-23T09:33:49Z</time>
      </trkpt>
      <trkpt lat="43.65934" lon="6.04377">
        <ele>638.59997558594</ele>
        <time>2021-05-23T09:33:50Z</time>
      </trkpt>
      <trkpt lat="43.65937" lon="6.04372">
        <ele>638.59997558594</ele>
        <time>2021-05-23T09:33:51Z</time>
      </trkpt>
      <trkpt lat="43.6594" lon="6.04368">
        <ele>638.59997558594</ele>
        <time>2021-05-23T09:33:52Z</time>
      </trkpt>
      <trkpt lat="43.65943" lon="6.04364">
        <ele>638.40002441406</ele>
        <time>2021-05-23T09:33:53Z</time>
      </trkpt>
      <trkpt lat="43.65947" lon="6.04361">
        <ele>638.40002441406</ele>
        <time>2021-05-23T09:33:54Z</time>
      </trkpt>
      <trkpt lat="43.6595" lon="6.04357">
        <ele>638.40002441406</ele>
        <time>2021-05-23T09:33:55Z</time>
      </trkpt>
      <trkpt lat="43.65953" lon="6.04353">
        <ele>638.20001220703</ele>
        <time>2021-05-23T09:33:56Z</time>
      </trkpt>
      <trkpt lat="43.65956" lon="6.04349">
        <ele>638</ele>
        <time>2021-05-23T09:33:57Z</time>
      </trkpt>
      <trkpt lat="43.65958" lon="6.04346">
        <ele>637.59997558594</ele>
        <time>2021-05-23T09:33:58Z</time>
      </trkpt>
      <trkpt lat="43.65959" lon="6.04344">
        <ele>637.59997558594</ele>
        <time>2021-05-23T09:33:59Z</time>
      </trkpt>
      <trkpt lat="43.6596" lon="6.04343">
        <ele>637.40002441406</ele>
        <time>2021-05-23T09:34:00Z</time>
      </trkpt>
      <trkpt lat="43.65961" lon="6.04341">
        <ele>637.40002441406</ele>
        <time>2021-05-23T09:34:01Z</time>
      </trkpt>
      <trkpt lat="43.65961" lon="6.0434">
        <ele>637.40002441406</ele>
        <time>2021-05-23T09:34:02Z</time>
      </trkpt>
      <trkpt lat="43.65963" lon="6.04339">
        <ele>637.20001220703</ele>
        <time>2021-05-23T09:34:03Z</time>
      </trkpt>
      <trkpt lat="43.65964" lon="6.04339">
        <ele>637.20001220703</ele>
        <time>2021-05-23T09:34:04Z</time>
      </trkpt>
      <trkpt lat="43.65965" lon="6.04339">
        <ele>637.20001220703</ele>
        <time>2021-05-23T09:34:05Z</time>
      </trkpt>
      <trkpt lat="43.65966" lon="6.04338">
        <ele>637.20001220703</ele>
        <time>2021-05-23T09:34:06Z</time>
      </trkpt>
      <trkpt lat="43.65967" lon="6.04337">
        <ele>637.20001220703</ele>
        <time>2021-05-23T09:34:07Z</time>
      </trkpt>
      <trkpt lat="43.65969" lon="6.04336">
        <ele>637.20001220703</ele>
        <time>2021-05-23T09:34:08Z</time>
      </trkpt>
      <trkpt lat="43.6597" lon="6.04335">
        <ele>637.20001220703</ele>
        <time>2021-05-23T09:34:09Z</time>
      </trkpt>
      <trkpt lat="43.65971" lon="6.04334">
        <ele>637.20001220703</ele>
        <time>2021-05-23T09:34:10Z</time>
      </trkpt>
      <trkpt lat="43.65971" lon="6.04333">
        <ele>637.40002441406</ele>
        <time>2021-05-23T09:34:11Z</time>
      </trkpt>
      <trkpt lat="43.65971" lon="6.04333">
        <ele>637.40002441406</ele>
        <time>2021-05-23T09:34:12Z</time>
      </trkpt>
      <trkpt lat="43.65971" lon="6.04333">
        <ele>637.59997558594</ele>
        <time>2021-05-23T09:34:13Z</time>
      </trkpt>
      <trkpt lat="43.65971" lon="6.04333">
        <ele>637.59997558594</ele>
        <time>2021-05-23T09:34:14Z</time>
      </trkpt>
      <trkpt lat="43.65971" lon="6.04333">
        <ele>637.79998779297</ele>
        <time>2021-05-23T09:34:15Z</time>
      </trkpt>
      <trkpt lat="43.65971" lon="6.04333">
        <ele>637.79998779297</ele>
        <time>2021-05-23T09:34:16Z</time>
      </trkpt>
      <trkpt lat="43.65972" lon="6.04333">
        <ele>638</ele>
        <time>2021-05-23T09:34:17Z</time>
      </trkpt>
      <trkpt lat="43.65972" lon="6.04333">
        <ele>637.79998779297</ele>
        <time>2021-05-23T09:34:18Z</time>
      </trkpt>
      <trkpt lat="43.65972" lon="6.04333">
        <ele>637.79998779297</ele>
        <time>2021-05-23T09:34:19Z</time>
      </trkpt>
      <trkpt lat="43.65972" lon="6.04333">
        <ele>637.79998779297</ele>
        <time>2021-05-23T09:34:20Z</time>
      </trkpt>
      <trkpt lat="43.65972" lon="6.04333">
        <ele>637.79998779297</ele>
        <time>2021-05-23T09:34:21Z</time>
      </trkpt>
      <trkpt lat="43.65971" lon="6.04333">
        <ele>637.59997558594</ele>
        <time>2021-05-23T09:34:22Z</time>
      </trkpt>
      <trkpt lat="43.65971" lon="6.04333">
        <ele>637.59997558594</ele>
        <time>2021-05-23T09:34:23Z</time>
      </trkpt>
      <trkpt lat="43.65971" lon="6.04333">
        <ele>637.59997558594</ele>
        <time>2021-05-23T09:34:24Z</time>
      </trkpt>
      <trkpt lat="43.65971" lon="6.04333">
        <ele>637.59997558594</ele>
        <time>2021-05-23T09:34:25Z</time>
      </trkpt>
      <trkpt lat="43.65971" lon="6.04333">
        <ele>637.59997558594</ele>
        <time>2021-05-23T09:34:26Z</time>
      </trkpt>
      <trkpt lat="43.65972" lon="6.04332">
        <ele>637.59997558594</ele>
        <time>2021-05-23T09:34:27Z</time>
      </trkpt>
      <trkpt lat="43.65972" lon="6.04332">
        <ele>637.59997558594</ele>
        <time>2021-05-23T09:34:28Z</time>
      </trkpt>
      <trkpt lat="43.65972" lon="6.04332">
        <ele>637.59997558594</ele>
        <time>2021-05-23T09:34:29Z</time>
      </trkpt>
      <trkpt lat="43.65972" lon="6.04331">
        <ele>637.59997558594</ele>
        <time>2021-05-23T09:34:30Z</time>
      </trkpt>
      <trkpt lat="43.65973" lon="6.0433">
        <ele>637.59997558594</ele>
        <time>2021-05-23T09:34:31Z</time>
      </trkpt>
      <trkpt lat="43.65974" lon="6.04329">
        <ele>637.59997558594</ele>
        <time>2021-05-23T09:34:32Z</time>
      </trkpt>
      <trkpt lat="43.65975" lon="6.04328">
        <ele>637.59997558594</ele>
        <time>2021-05-23T09:34:33Z</time>
      </trkpt>
      <trkpt lat="43.65976" lon="6.04326">
        <ele>637.59997558594</ele>
        <time>2021-05-23T09:34:34Z</time>
      </trkpt>
      <trkpt lat="43.65977" lon="6.04323">
        <ele>637.40002441406</ele>
        <time>2021-05-23T09:34:35Z</time>
      </trkpt>
      <trkpt lat="43.65979" lon="6.04321">
        <ele>637.40002441406</ele>
        <time>2021-05-23T09:34:36Z</time>
      </trkpt>
      <trkpt lat="43.65981" lon="6.04319">
        <ele>637.40002441406</ele>
        <time>2021-05-23T09:34:37Z</time>
      </trkpt>
      <trkpt lat="43.65982" lon="6.04317">
        <ele>637.40002441406</ele>
        <time>2021-05-23T09:34:38Z</time>
      </trkpt>
      <trkpt lat="43.65984" lon="6.04315">
        <ele>637.59997558594</ele>
        <time>2021-05-23T09:34:39Z</time>
      </trkpt>
      <trkpt lat="43.65986" lon="6.04313">
        <ele>637.79998779297</ele>
        <time>2021-05-23T09:34:40Z</time>
      </trkpt>
      <trkpt lat="43.65988" lon="6.04311">
        <ele>638</ele>
        <time>2021-05-23T09:34:41Z</time>
      </trkpt>
      <trkpt lat="43.65989" lon="6.0431">
        <ele>638.40002441406</ele>
        <time>2021-05-23T09:34:42Z</time>
      </trkpt>
      <trkpt lat="43.6599" lon="6.04309">
        <ele>638.40002441406</ele>
        <time>2021-05-23T09:34:43Z</time>
      </trkpt>
      <trkpt lat="43.65992" lon="6.04309">
        <ele>638.59997558594</ele>
        <time>2021-05-23T09:34:44Z</time>
      </trkpt>
      <trkpt lat="43.65993" lon="6.04308">
        <ele>638.59997558594</ele>
        <time>2021-05-23T09:34:45Z</time>
      </trkpt>
      <trkpt lat="43.65994" lon="6.04306">
        <ele>638.59997558594</ele>
        <time>2021-05-23T09:34:46Z</time>
      </trkpt>
      <trkpt lat="43.65996" lon="6.04306">
        <ele>638.59997558594</ele>
        <time>2021-05-23T09:34:47Z</time>
      </trkpt>
      <trkpt lat="43.65997" lon="6.04305">
        <ele>638.59997558594</ele>
        <time>2021-05-23T09:34:48Z</time>
      </trkpt>
      <trkpt lat="43.65999" lon="6.04304">
        <ele>638.59997558594</ele>
        <time>2021-05-23T09:34:49Z</time>
      </trkpt>
      <trkpt lat="43.66" lon="6.04302">
        <ele>638.59997558594</ele>
        <time>2021-05-23T09:34:50Z</time>
      </trkpt>
      <trkpt lat="43.66001" lon="6.04301">
        <ele>638.79998779297</ele>
        <time>2021-05-23T09:34:51Z</time>
      </trkpt>
      <trkpt lat="43.66002" lon="6.043">
        <ele>638.79998779297</ele>
        <time>2021-05-23T09:34:52Z</time>
      </trkpt>
      <trkpt lat="43.66003" lon="6.04298">
        <ele>639</ele>
        <time>2021-05-23T09:34:53Z</time>
      </trkpt>
      <trkpt lat="43.66004" lon="6.04297">
        <ele>639</ele>
        <time>2021-05-23T09:34:54Z</time>
      </trkpt>
      <trkpt lat="43.66005" lon="6.04296">
        <ele>639</ele>
        <time>2021-05-23T09:34:55Z</time>
      </trkpt>
      <trkpt lat="43.66006" lon="6.04295">
        <ele>639</ele>
        <time>2021-05-23T09:34:56Z</time>
      </trkpt>
      <trkpt lat="43.66008" lon="6.04293">
        <ele>639.20001220703</ele>
        <time>2021-05-23T09:34:57Z</time>
      </trkpt>
      <trkpt lat="43.66009" lon="6.04292">
        <ele>639.20001220703</ele>
        <time>2021-05-23T09:34:58Z</time>
      </trkpt>
      <trkpt lat="43.66011" lon="6.0429">
        <ele>639.20001220703</ele>
        <time>2021-05-23T09:34:59Z</time>
      </trkpt>
      <trkpt lat="43.66013" lon="6.04288">
        <ele>639.20001220703</ele>
        <time>2021-05-23T09:35:00Z</time>
      </trkpt>
      <trkpt lat="43.66015" lon="6.04286">
        <ele>639.20001220703</ele>
        <time>2021-05-23T09:35:01Z</time>
      </trkpt>
      <trkpt lat="43.66017" lon="6.04284">
        <ele>639.20001220703</ele>
        <time>2021-05-23T09:35:02Z</time>
      </trkpt>
      <trkpt lat="43.6602" lon="6.04282">
        <ele>639.20001220703</ele>
        <time>2021-05-23T09:35:03Z</time>
      </trkpt>
      <trkpt lat="43.66022" lon="6.0428">
        <ele>639.40002441406</ele>
        <time>2021-05-23T09:35:04Z</time>
      </trkpt>
      <trkpt lat="43.66024" lon="6.04278">
        <ele>639.40002441406</ele>
        <time>2021-05-23T09:35:05Z</time>
      </trkpt>
      <trkpt lat="43.66027" lon="6.04276">
        <ele>639.40002441406</ele>
        <time>2021-05-23T09:35:06Z</time>
      </trkpt>
      <trkpt lat="43.6603" lon="6.04274">
        <ele>639.40002441406</ele>
        <time>2021-05-23T09:35:07Z</time>
      </trkpt>
      <trkpt lat="43.66032" lon="6.04273">
        <ele>639.59997558594</ele>
        <time>2021-05-23T09:35:08Z</time>
      </trkpt>
      <trkpt lat="43.66035" lon="6.04271">
        <ele>639.79998779297</ele>
        <time>2021-05-23T09:35:09Z</time>
      </trkpt>
      <trkpt lat="43.66038" lon="6.0427">
        <ele>639.79998779297</ele>
        <time>2021-05-23T09:35:10Z</time>
      </trkpt>
      <trkpt lat="43.66041" lon="6.04268">
        <ele>639.79998779297</ele>
        <time>2021-05-23T09:35:11Z</time>
      </trkpt>
      <trkpt lat="43.66044" lon="6.04266">
        <ele>640</ele>
        <time>2021-05-23T09:35:12Z</time>
      </trkpt>
      <trkpt lat="43.66046" lon="6.04264">
        <ele>640.20001220703</ele>
        <time>2021-05-23T09:35:13Z</time>
      </trkpt>
      <trkpt lat="43.66049" lon="6.04261">
        <ele>640.59997558594</ele>
        <time>2021-05-23T09:35:14Z</time>
      </trkpt>
      <trkpt lat="43.66052" lon="6.04259">
        <ele>641</ele>
        <time>2021-05-23T09:35:15Z</time>
      </trkpt>
      <trkpt lat="43.66055" lon="6.04257">
        <ele>641.40002441406</ele>
        <time>2021-05-23T09:35:16Z</time>
      </trkpt>
      <trkpt lat="43.66058" lon="6.04255">
        <ele>641.59997558594</ele>
        <time>2021-05-23T09:35:17Z</time>
      </trkpt>
      <trkpt lat="43.6606" lon="6.04253">
        <ele>641.79998779297</ele>
        <time>2021-05-23T09:35:18Z</time>
      </trkpt>
      <trkpt lat="43.66063" lon="6.04252">
        <ele>641.79998779297</ele>
        <time>2021-05-23T09:35:19Z</time>
      </trkpt>
      <trkpt lat="43.66066" lon="6.0425">
        <ele>641.79998779297</ele>
        <time>2021-05-23T09:35:20Z</time>
      </trkpt>
      <trkpt lat="43.66068" lon="6.04248">
        <ele>641.79998779297</ele>
        <time>2021-05-23T09:35:21Z</time>
      </trkpt>
      <trkpt lat="43.66071" lon="6.04246">
        <ele>641.79998779297</ele>
        <time>2021-05-23T09:35:22Z</time>
      </trkpt>
      <trkpt lat="43.66074" lon="6.04244">
        <ele>642.20001220703</ele>
        <time>2021-05-23T09:35:23Z</time>
      </trkpt>
      <trkpt lat="43.66077" lon="6.04243">
        <ele>642.59997558594</ele>
        <time>2021-05-23T09:35:24Z</time>
      </trkpt>
      <trkpt lat="43.6608" lon="6.04241">
        <ele>642.79998779297</ele>
        <time>2021-05-23T09:35:25Z</time>
      </trkpt>
      <trkpt lat="43.66082" lon="6.04239">
        <ele>642.79998779297</ele>
        <time>2021-05-23T09:35:26Z</time>
      </trkpt>
      <trkpt lat="43.66086" lon="6.04237">
        <ele>642.79998779297</ele>
        <time>2021-05-23T09:35:27Z</time>
      </trkpt>
      <trkpt lat="43.66089" lon="6.04235">
        <ele>643.20001220703</ele>
        <time>2021-05-23T09:35:28Z</time>
      </trkpt>
      <trkpt lat="43.66092" lon="6.04234">
        <ele>643.59997558594</ele>
        <time>2021-05-23T09:35:29Z</time>
      </trkpt>
      <trkpt lat="43.66095" lon="6.04232">
        <ele>643.79998779297</ele>
        <time>2021-05-23T09:35:30Z</time>
      </trkpt>
      <trkpt lat="43.66097" lon="6.04231">
        <ele>644</ele>
        <time>2021-05-23T09:35:31Z</time>
      </trkpt>
      <trkpt lat="43.661" lon="6.0423">
        <ele>644</ele>
        <time>2021-05-23T09:35:32Z</time>
      </trkpt>
      <trkpt lat="43.66103" lon="6.04229">
        <ele>644.20001220703</ele>
        <time>2021-05-23T09:35:33Z</time>
      </trkpt>
      <trkpt lat="43.66106" lon="6.04227">
        <ele>644.40002441406</ele>
        <time>2021-05-23T09:35:34Z</time>
      </trkpt>
      <trkpt lat="43.66108" lon="6.04226">
        <ele>644.40002441406</ele>
        <time>2021-05-23T09:35:35Z</time>
      </trkpt>
      <trkpt lat="43.66112" lon="6.04225">
        <ele>644.59997558594</ele>
        <time>2021-05-23T09:35:36Z</time>
      </trkpt>
      <trkpt lat="43.66115" lon="6.04224">
        <ele>644.59997558594</ele>
        <time>2021-05-23T09:35:37Z</time>
      </trkpt>
      <trkpt lat="43.66118" lon="6.04222">
        <ele>644.79998779297</ele>
        <time>2021-05-23T09:35:38Z</time>
      </trkpt>
      <trkpt lat="43.6612" lon="6.04221">
        <ele>644.79998779297</ele>
        <time>2021-05-23T09:35:39Z</time>
      </trkpt>
      <trkpt lat="43.66123" lon="6.0422">
        <ele>645</ele>
        <time>2021-05-23T09:35:40Z</time>
      </trkpt>
      <trkpt lat="43.66126" lon="6.04219">
        <ele>645</ele>
        <time>2021-05-23T09:35:41Z</time>
      </trkpt>
      <trkpt lat="43.66128" lon="6.04218">
        <ele>645.20001220703</ele>
        <time>2021-05-23T09:35:42Z</time>
      </trkpt>
      <trkpt lat="43.66131" lon="6.04216">
        <ele>645.20001220703</ele>
        <time>2021-05-23T09:35:43Z</time>
      </trkpt>
      <trkpt lat="43.66134" lon="6.04214">
        <ele>645.59997558594</ele>
        <time>2021-05-23T09:35:44Z</time>
      </trkpt>
      <trkpt lat="43.66136" lon="6.04213">
        <ele>645.59997558594</ele>
        <time>2021-05-23T09:35:45Z</time>
      </trkpt>
      <trkpt lat="43.66138" lon="6.04211">
        <ele>645.79998779297</ele>
        <time>2021-05-23T09:35:46Z</time>
      </trkpt>
      <trkpt lat="43.6614" lon="6.0421">
        <ele>645.79998779297</ele>
        <time>2021-05-23T09:35:47Z</time>
      </trkpt>
      <trkpt lat="43.66143" lon="6.04209">
        <ele>645.79998779297</ele>
        <time>2021-05-23T09:35:48Z</time>
      </trkpt>
      <trkpt lat="43.66146" lon="6.04207">
        <ele>645.79998779297</ele>
        <time>2021-05-23T09:35:49Z</time>
      </trkpt>
      <trkpt lat="43.66149" lon="6.04206">
        <ele>646</ele>
        <time>2021-05-23T09:35:50Z</time>
      </trkpt>
      <trkpt lat="43.66151" lon="6.04206">
        <ele>646</ele>
        <time>2021-05-23T09:35:51Z</time>
      </trkpt>
      <trkpt lat="43.66153" lon="6.04206">
        <ele>646</ele>
        <time>2021-05-23T09:35:52Z</time>
      </trkpt>
      <trkpt lat="43.66156" lon="6.04205">
        <ele>646</ele>
        <time>2021-05-23T09:35:53Z</time>
      </trkpt>
      <trkpt lat="43.66158" lon="6.04206">
        <ele>646</ele>
        <time>2021-05-23T09:35:54Z</time>
      </trkpt>
      <trkpt lat="43.66161" lon="6.04205">
        <ele>646</ele>
        <time>2021-05-23T09:35:55Z</time>
      </trkpt>
      <trkpt lat="43.66164" lon="6.04205">
        <ele>645.79998779297</ele>
        <time>2021-05-23T09:35:56Z</time>
      </trkpt>
      <trkpt lat="43.66166" lon="6.04204">
        <ele>646</ele>
        <time>2021-05-23T09:35:57Z</time>
      </trkpt>
      <trkpt lat="43.66169" lon="6.04205">
        <ele>646</ele>
        <time>2021-05-23T09:35:58Z</time>
      </trkpt>
      <trkpt lat="43.66172" lon="6.04204">
        <ele>646</ele>
        <time>2021-05-23T09:35:59Z</time>
      </trkpt>
      <trkpt lat="43.66175" lon="6.04204">
        <ele>646</ele>
        <time>2021-05-23T09:36:00Z</time>
      </trkpt>
      <trkpt lat="43.66178" lon="6.04204">
        <ele>646.20001220703</ele>
        <time>2021-05-23T09:36:01Z</time>
      </trkpt>
      <trkpt lat="43.6618" lon="6.04204">
        <ele>646.20001220703</ele>
        <time>2021-05-23T09:36:02Z</time>
      </trkpt>
      <trkpt lat="43.66183" lon="6.04203">
        <ele>646.20001220703</ele>
        <time>2021-05-23T09:36:03Z</time>
      </trkpt>
      <trkpt lat="43.66187" lon="6.04202">
        <ele>646.20001220703</ele>
        <time>2021-05-23T09:36:04Z</time>
      </trkpt>
      <trkpt lat="43.66191" lon="6.04201">
        <ele>646.20001220703</ele>
        <time>2021-05-23T09:36:05Z</time>
      </trkpt>
      <trkpt lat="43.66195" lon="6.04201">
        <ele>646.20001220703</ele>
        <time>2021-05-23T09:36:06Z</time>
      </trkpt>
      <trkpt lat="43.662" lon="6.042">
        <ele>646.20001220703</ele>
        <time>2021-05-23T09:36:07Z</time>
      </trkpt>
      <trkpt lat="43.66203" lon="6.04199">
        <ele>646.40002441406</ele>
        <time>2021-05-23T09:36:08Z</time>
      </trkpt>
      <trkpt lat="43.66207" lon="6.04199">
        <ele>646.40002441406</ele>
        <time>2021-05-23T09:36:09Z</time>
      </trkpt>
      <trkpt lat="43.66211" lon="6.04198">
        <ele>646.59997558594</ele>
        <time>2021-05-23T09:36:10Z</time>
      </trkpt>
      <trkpt lat="43.66215" lon="6.04197">
        <ele>646.59997558594</ele>
        <time>2021-05-23T09:36:11Z</time>
      </trkpt>
      <trkpt lat="43.66219" lon="6.04196">
        <ele>646.59997558594</ele>
        <time>2021-05-23T09:36:12Z</time>
      </trkpt>
      <trkpt lat="43.66223" lon="6.04196">
        <ele>646.79998779297</ele>
        <time>2021-05-23T09:36:13Z</time>
      </trkpt>
      <trkpt lat="43.66227" lon="6.04195">
        <ele>646.79998779297</ele>
        <time>2021-05-23T09:36:14Z</time>
      </trkpt>
      <trkpt lat="43.6623" lon="6.04194">
        <ele>646.79998779297</ele>
        <time>2021-05-23T09:36:15Z</time>
      </trkpt>
      <trkpt lat="43.66233" lon="6.04194">
        <ele>646.79998779297</ele>
        <time>2021-05-23T09:36:16Z</time>
      </trkpt>
      <trkpt lat="43.66236" lon="6.04194">
        <ele>647</ele>
        <time>2021-05-23T09:36:17Z</time>
      </trkpt>
      <trkpt lat="43.66239" lon="6.04193">
        <ele>647</ele>
        <time>2021-05-23T09:36:18Z</time>
      </trkpt>
      <trkpt lat="43.66242" lon="6.04192">
        <ele>647</ele>
        <time>2021-05-23T09:36:19Z</time>
      </trkpt>
      <trkpt lat="43.66245" lon="6.04191">
        <ele>647.20001220703</ele>
        <time>2021-05-23T09:36:20Z</time>
      </trkpt>
      <trkpt lat="43.66249" lon="6.0419">
        <ele>647.40002441406</ele>
        <time>2021-05-23T09:36:21Z</time>
      </trkpt>
      <trkpt lat="43.66252" lon="6.0419">
        <ele>647.59997558594</ele>
        <time>2021-05-23T09:36:22Z</time>
      </trkpt>
      <trkpt lat="43.66255" lon="6.0419">
        <ele>648</ele>
        <time>2021-05-23T09:36:23Z</time>
      </trkpt>
      <trkpt lat="43.66258" lon="6.04189">
        <ele>648.20001220703</ele>
        <time>2021-05-23T09:36:24Z</time>
      </trkpt>
      <trkpt lat="43.66262" lon="6.04188">
        <ele>648.40002441406</ele>
        <time>2021-05-23T09:36:25Z</time>
      </trkpt>
      <trkpt lat="43.66266" lon="6.04186">
        <ele>648.59997558594</ele>
        <time>2021-05-23T09:36:26Z</time>
      </trkpt>
      <trkpt lat="43.66269" lon="6.04186">
        <ele>648.79998779297</ele>
        <time>2021-05-23T09:36:27Z</time>
      </trkpt>
      <trkpt lat="43.66272" lon="6.04185">
        <ele>649</ele>
        <time>2021-05-23T09:36:28Z</time>
      </trkpt>
      <trkpt lat="43.66275" lon="6.04184">
        <ele>649</ele>
        <time>2021-05-23T09:36:29Z</time>
      </trkpt>
      <trkpt lat="43.66277" lon="6.04183">
        <ele>649.20001220703</ele>
        <time>2021-05-23T09:36:30Z</time>
      </trkpt>
      <trkpt lat="43.66281" lon="6.04181">
        <ele>649.40002441406</ele>
        <time>2021-05-23T09:36:31Z</time>
      </trkpt>
      <trkpt lat="43.66284" lon="6.0418">
        <ele>649.40002441406</ele>
        <time>2021-05-23T09:36:32Z</time>
      </trkpt>
      <trkpt lat="43.66287" lon="6.04178">
        <ele>649.59997558594</ele>
        <time>2021-05-23T09:36:33Z</time>
      </trkpt>
      <trkpt lat="43.6629" lon="6.04177">
        <ele>649.79998779297</ele>
        <time>2021-05-23T09:36:34Z</time>
      </trkpt>
      <trkpt lat="43.66294" lon="6.04175">
        <ele>650</ele>
        <time>2021-05-23T09:36:35Z</time>
      </trkpt>
      <trkpt lat="43.66298" lon="6.04174">
        <ele>650.20001220703</ele>
        <time>2021-05-23T09:36:36Z</time>
      </trkpt>
      <trkpt lat="43.66301" lon="6.04172">
        <ele>650.40002441406</ele>
        <time>2021-05-23T09:36:37Z</time>
      </trkpt>
      <trkpt lat="43.66305" lon="6.04172">
        <ele>650.59997558594</ele>
        <time>2021-05-23T09:36:38Z</time>
      </trkpt>
      <trkpt lat="43.66308" lon="6.04171">
        <ele>650.79998779297</ele>
        <time>2021-05-23T09:36:39Z</time>
      </trkpt>
      <trkpt lat="43.66312" lon="6.0417">
        <ele>651</ele>
        <time>2021-05-23T09:36:40Z</time>
      </trkpt>
      <trkpt lat="43.66316" lon="6.04168">
        <ele>651</ele>
        <time>2021-05-23T09:36:41Z</time>
      </trkpt>
      <trkpt lat="43.66321" lon="6.04166">
        <ele>651.20001220703</ele>
        <time>2021-05-23T09:36:42Z</time>
      </trkpt>
      <trkpt lat="43.66324" lon="6.04164">
        <ele>651.20001220703</ele>
        <time>2021-05-23T09:36:43Z</time>
      </trkpt>
      <trkpt lat="43.66327" lon="6.04163">
        <ele>651.20001220703</ele>
        <time>2021-05-23T09:36:44Z</time>
      </trkpt>
      <trkpt lat="43.6633" lon="6.04161">
        <ele>651.20001220703</ele>
        <time>2021-05-23T09:36:45Z</time>
      </trkpt>
      <trkpt lat="43.66333" lon="6.0416">
        <ele>651.20001220703</ele>
        <time>2021-05-23T09:36:46Z</time>
      </trkpt>
      <trkpt lat="43.66336" lon="6.0416">
        <ele>651.40002441406</ele>
        <time>2021-05-23T09:36:47Z</time>
      </trkpt>
      <trkpt lat="43.66339" lon="6.0416">
        <ele>651.59997558594</ele>
        <time>2021-05-23T09:36:48Z</time>
      </trkpt>
      <trkpt lat="43.66342" lon="6.04159">
        <ele>652</ele>
        <time>2021-05-23T09:36:49Z</time>
      </trkpt>
      <trkpt lat="43.66344" lon="6.04158">
        <ele>652.20001220703</ele>
        <time>2021-05-23T09:36:50Z</time>
      </trkpt>
      <trkpt lat="43.66348" lon="6.04157">
        <ele>652.20001220703</ele>
        <time>2021-05-23T09:36:51Z</time>
      </trkpt>
      <trkpt lat="43.66352" lon="6.04156">
        <ele>652.40002441406</ele>
        <time>2021-05-23T09:36:52Z</time>
      </trkpt>
      <trkpt lat="43.66355" lon="6.04155">
        <ele>652.40002441406</ele>
        <time>2021-05-23T09:36:53Z</time>
      </trkpt>
      <trkpt lat="43.66358" lon="6.04153">
        <ele>652.40002441406</ele>
        <time>2021-05-23T09:36:54Z</time>
      </trkpt>
      <trkpt lat="43.66362" lon="6.04152">
        <ele>652.20001220703</ele>
        <time>2021-05-23T09:36:55Z</time>
      </trkpt>
      <trkpt lat="43.66365" lon="6.0415">
        <ele>652.20001220703</ele>
        <time>2021-05-23T09:36:56Z</time>
      </trkpt>
      <trkpt lat="43.66369" lon="6.0415">
        <ele>652.20001220703</ele>
        <time>2021-05-23T09:36:57Z</time>
      </trkpt>
      <trkpt lat="43.66372" lon="6.04149">
        <ele>652.20001220703</ele>
        <time>2021-05-23T09:36:58Z</time>
      </trkpt>
      <trkpt lat="43.66376" lon="6.04147">
        <ele>652</ele>
        <time>2021-05-23T09:36:59Z</time>
      </trkpt>
      <trkpt lat="43.6638" lon="6.04145">
        <ele>652</ele>
        <time>2021-05-23T09:37:00Z</time>
      </trkpt>
      <trkpt lat="43.66384" lon="6.04144">
        <ele>652</ele>
        <time>2021-05-23T09:37:01Z</time>
      </trkpt>
      <trkpt lat="43.66388" lon="6.04143">
        <ele>652</ele>
        <time>2021-05-23T09:37:02Z</time>
      </trkpt>
      <trkpt lat="43.66391" lon="6.04142">
        <ele>652</ele>
        <time>2021-05-23T09:37:03Z</time>
      </trkpt>
      <trkpt lat="43.66395" lon="6.0414">
        <ele>652</ele>
        <time>2021-05-23T09:37:04Z</time>
      </trkpt>
      <trkpt lat="43.66398" lon="6.04139">
        <ele>652</ele>
        <time>2021-05-23T09:37:05Z</time>
      </trkpt>
      <trkpt lat="43.66402" lon="6.04137">
        <ele>651.79998779297</ele>
        <time>2021-05-23T09:37:06Z</time>
      </trkpt>
      <trkpt lat="43.66405" lon="6.04135">
        <ele>651.79998779297</ele>
        <time>2021-05-23T09:37:07Z</time>
      </trkpt>
      <trkpt lat="43.66409" lon="6.04134">
        <ele>651.79998779297</ele>
        <time>2021-05-23T09:37:08Z</time>
      </trkpt>
      <trkpt lat="43.66413" lon="6.04132">
        <ele>651.59997558594</ele>
        <time>2021-05-23T09:37:09Z</time>
      </trkpt>
      <trkpt lat="43.66416" lon="6.04131">
        <ele>651.59997558594</ele>
        <time>2021-05-23T09:37:10Z</time>
      </trkpt>
      <trkpt lat="43.6642" lon="6.0413">
        <ele>651.59997558594</ele>
        <time>2021-05-23T09:37:11Z</time>
      </trkpt>
      <trkpt lat="43.66424" lon="6.04128">
        <ele>651.59997558594</ele>
        <time>2021-05-23T09:37:12Z</time>
      </trkpt>
      <trkpt lat="43.66427" lon="6.04127">
        <ele>651.40002441406</ele>
        <time>2021-05-23T09:37:13Z</time>
      </trkpt>
      <trkpt lat="43.6643" lon="6.04126">
        <ele>651.20001220703</ele>
        <time>2021-05-23T09:37:14Z</time>
      </trkpt>
      <trkpt lat="43.66434" lon="6.04125">
        <ele>651</ele>
        <time>2021-05-23T09:37:15Z</time>
      </trkpt>
      <trkpt lat="43.66438" lon="6.04124">
        <ele>650.79998779297</ele>
        <time>2021-05-23T09:37:16Z</time>
      </trkpt>
      <trkpt lat="43.66441" lon="6.04123">
        <ele>650.59997558594</ele>
        <time>2021-05-23T09:37:17Z</time>
      </trkpt>
      <trkpt lat="43.66444" lon="6.04122">
        <ele>650.59997558594</ele>
        <time>2021-05-23T09:37:18Z</time>
      </trkpt>
      <trkpt lat="43.66447" lon="6.04121">
        <ele>650.59997558594</ele>
        <time>2021-05-23T09:37:19Z</time>
      </trkpt>
      <trkpt lat="43.66451" lon="6.04119">
        <ele>650.59997558594</ele>
        <time>2021-05-23T09:37:20Z</time>
      </trkpt>
      <trkpt lat="43.66454" lon="6.04117">
        <ele>650.40002441406</ele>
        <time>2021-05-23T09:37:21Z</time>
      </trkpt>
      <trkpt lat="43.66457" lon="6.04116">
        <ele>650.59997558594</ele>
        <time>2021-05-23T09:37:22Z</time>
      </trkpt>
      <trkpt lat="43.66461" lon="6.04114">
        <ele>650.40002441406</ele>
        <time>2021-05-23T09:37:23Z</time>
      </trkpt>
      <trkpt lat="43.66464" lon="6.04113">
        <ele>650.40002441406</ele>
        <time>2021-05-23T09:37:24Z</time>
      </trkpt>
      <trkpt lat="43.66467" lon="6.04112">
        <ele>650.40002441406</ele>
        <time>2021-05-23T09:37:25Z</time>
      </trkpt>
      <trkpt lat="43.66469" lon="6.04111">
        <ele>650.40002441406</ele>
        <time>2021-05-23T09:37:26Z</time>
      </trkpt>
      <trkpt lat="43.66472" lon="6.04109">
        <ele>650.20001220703</ele>
        <time>2021-05-23T09:37:27Z</time>
      </trkpt>
      <trkpt lat="43.66474" lon="6.04108">
        <ele>650.20001220703</ele>
        <time>2021-05-23T09:37:28Z</time>
      </trkpt>
      <trkpt lat="43.66477" lon="6.04107">
        <ele>650.20001220703</ele>
        <time>2021-05-23T09:37:29Z</time>
      </trkpt>
      <trkpt lat="43.6648" lon="6.04106">
        <ele>650.20001220703</ele>
        <time>2021-05-23T09:37:30Z</time>
      </trkpt>
      <trkpt lat="43.66482" lon="6.04105">
        <ele>650.20001220703</ele>
        <time>2021-05-23T09:37:31Z</time>
      </trkpt>
      <trkpt lat="43.66484" lon="6.04104">
        <ele>649.79998779297</ele>
        <time>2021-05-23T09:37:32Z</time>
      </trkpt>
      <trkpt lat="43.66487" lon="6.04103">
        <ele>649.59997558594</ele>
        <time>2021-05-23T09:37:33Z</time>
      </trkpt>
      <trkpt lat="43.66489" lon="6.04103">
        <ele>649.59997558594</ele>
        <time>2021-05-23T09:37:34Z</time>
      </trkpt>
      <trkpt lat="43.66492" lon="6.04103">
        <ele>649.59997558594</ele>
        <time>2021-05-23T09:37:35Z</time>
      </trkpt>
      <trkpt lat="43.66495" lon="6.04102">
        <ele>649.59997558594</ele>
        <time>2021-05-23T09:37:36Z</time>
      </trkpt>
      <trkpt lat="43.66498" lon="6.04102">
        <ele>649.79998779297</ele>
        <time>2021-05-23T09:37:37Z</time>
      </trkpt>
      <trkpt lat="43.66501" lon="6.04101">
        <ele>650</ele>
        <time>2021-05-23T09:37:38Z</time>
      </trkpt>
      <trkpt lat="43.66503" lon="6.041">
        <ele>650</ele>
        <time>2021-05-23T09:37:39Z</time>
      </trkpt>
      <trkpt lat="43.66506" lon="6.04099">
        <ele>650.20001220703</ele>
        <time>2021-05-23T09:37:40Z</time>
      </trkpt>
      <trkpt lat="43.6651" lon="6.04098">
        <ele>650.40002441406</ele>
        <time>2021-05-23T09:37:41Z</time>
      </trkpt>
      <trkpt lat="43.66513" lon="6.04097">
        <ele>650.59997558594</ele>
        <time>2021-05-23T09:37:42Z</time>
      </trkpt>
      <trkpt lat="43.66516" lon="6.04096">
        <ele>650.79998779297</ele>
        <time>2021-05-23T09:37:43Z</time>
      </trkpt>
      <trkpt lat="43.6652" lon="6.04095">
        <ele>650.79998779297</ele>
        <time>2021-05-23T09:37:44Z</time>
      </trkpt>
      <trkpt lat="43.66523" lon="6.04094">
        <ele>650.79998779297</ele>
        <time>2021-05-23T09:37:45Z</time>
      </trkpt>
      <trkpt lat="43.66526" lon="6.04093">
        <ele>650.79998779297</ele>
        <time>2021-05-23T09:37:46Z</time>
      </trkpt>
      <trkpt lat="43.66529" lon="6.04092">
        <ele>650.79998779297</ele>
        <time>2021-05-23T09:37:47Z</time>
      </trkpt>
      <trkpt lat="43.66533" lon="6.04092">
        <ele>650.79998779297</ele>
        <time>2021-05-23T09:37:48Z</time>
      </trkpt>
      <trkpt lat="43.66536" lon="6.04091">
        <ele>650.59997558594</ele>
        <time>2021-05-23T09:37:49Z</time>
      </trkpt>
      <trkpt lat="43.6654" lon="6.0409">
        <ele>650.59997558594</ele>
        <time>2021-05-23T09:37:50Z</time>
      </trkpt>
      <trkpt lat="43.66543" lon="6.04089">
        <ele>650.59997558594</ele>
        <time>2021-05-23T09:37:51Z</time>
      </trkpt>
      <trkpt lat="43.66546" lon="6.04089">
        <ele>650.59997558594</ele>
        <time>2021-05-23T09:37:52Z</time>
      </trkpt>
      <trkpt lat="43.66549" lon="6.04088">
        <ele>650.59997558594</ele>
        <time>2021-05-23T09:37:53Z</time>
      </trkpt>
      <trkpt lat="43.66552" lon="6.04088">
        <ele>650.59997558594</ele>
        <time>2021-05-23T09:37:54Z</time>
      </trkpt>
      <trkpt lat="43.66555" lon="6.04087">
        <ele>650.59997558594</ele>
        <time>2021-05-23T09:37:55Z</time>
      </trkpt>
      <trkpt lat="43.66558" lon="6.04085">
        <ele>650.59997558594</ele>
        <time>2021-05-23T09:37:56Z</time>
      </trkpt>
      <trkpt lat="43.66561" lon="6.04083">
        <ele>650.59997558594</ele>
        <time>2021-05-23T09:37:57Z</time>
      </trkpt>
      <trkpt lat="43.66563" lon="6.04081">
        <ele>650.59997558594</ele>
        <time>2021-05-23T09:37:58Z</time>
      </trkpt>
      <trkpt lat="43.66566" lon="6.04079">
        <ele>650.59997558594</ele>
        <time>2021-05-23T09:37:59Z</time>
      </trkpt>
      <trkpt lat="43.66569" lon="6.04076">
        <ele>650.79998779297</ele>
        <time>2021-05-23T09:38:00Z</time>
      </trkpt>
      <trkpt lat="43.66572" lon="6.04074">
        <ele>651.20001220703</ele>
        <time>2021-05-23T09:38:01Z</time>
      </trkpt>
      <trkpt lat="43.66574" lon="6.04072">
        <ele>651.20001220703</ele>
        <time>2021-05-23T09:38:02Z</time>
      </trkpt>
      <trkpt lat="43.66578" lon="6.0407">
        <ele>651.40002441406</ele>
        <time>2021-05-23T09:38:03Z</time>
      </trkpt>
      <trkpt lat="43.66581" lon="6.04068">
        <ele>651.40002441406</ele>
        <time>2021-05-23T09:38:04Z</time>
      </trkpt>
      <trkpt lat="43.66584" lon="6.04066">
        <ele>651.59997558594</ele>
        <time>2021-05-23T09:38:05Z</time>
      </trkpt>
      <trkpt lat="43.66588" lon="6.04063">
        <ele>651.59997558594</ele>
        <time>2021-05-23T09:38:06Z</time>
      </trkpt>
      <trkpt lat="43.66591" lon="6.04061">
        <ele>651.59997558594</ele>
        <time>2021-05-23T09:38:07Z</time>
      </trkpt>
      <trkpt lat="43.66594" lon="6.04058">
        <ele>651.79998779297</ele>
        <time>2021-05-23T09:38:08Z</time>
      </trkpt>
      <trkpt lat="43.66597" lon="6.04056">
        <ele>652</ele>
        <time>2021-05-23T09:38:09Z</time>
      </trkpt>
      <trkpt lat="43.66601" lon="6.04054">
        <ele>652.20001220703</ele>
        <time>2021-05-23T09:38:10Z</time>
      </trkpt>
      <trkpt lat="43.66604" lon="6.04052">
        <ele>652.20001220703</ele>
        <time>2021-05-23T09:38:11Z</time>
      </trkpt>
      <trkpt lat="43.66607" lon="6.04049">
        <ele>652.40002441406</ele>
        <time>2021-05-23T09:38:12Z</time>
      </trkpt>
      <trkpt lat="43.6661" lon="6.04046">
        <ele>652.40002441406</ele>
        <time>2021-05-23T09:38:13Z</time>
      </trkpt>
      <trkpt lat="43.66613" lon="6.04044">
        <ele>652.40002441406</ele>
        <time>2021-05-23T09:38:14Z</time>
      </trkpt>
      <trkpt lat="43.66616" lon="6.04041">
        <ele>652.59997558594</ele>
        <time>2021-05-23T09:38:15Z</time>
      </trkpt>
      <trkpt lat="43.66618" lon="6.04038">
        <ele>653</ele>
        <time>2021-05-23T09:38:16Z</time>
      </trkpt>
      <trkpt lat="43.66621" lon="6.04036">
        <ele>653.20001220703</ele>
        <time>2021-05-23T09:38:17Z</time>
      </trkpt>
      <trkpt lat="43.66624" lon="6.04034">
        <ele>653.20001220703</ele>
        <time>2021-05-23T09:38:18Z</time>
      </trkpt>
      <trkpt lat="43.66626" lon="6.04031">
        <ele>653.20001220703</ele>
        <time>2021-05-23T09:38:19Z</time>
      </trkpt>
      <trkpt lat="43.66629" lon="6.04027">
        <ele>653.20001220703</ele>
        <time>2021-05-23T09:38:20Z</time>
      </trkpt>
      <trkpt lat="43.66631" lon="6.04025">
        <ele>653.40002441406</ele>
        <time>2021-05-23T09:38:21Z</time>
      </trkpt>
      <trkpt lat="43.66634" lon="6.04021">
        <ele>653.40002441406</ele>
        <time>2021-05-23T09:38:22Z</time>
      </trkpt>
      <trkpt lat="43.66636" lon="6.04018">
        <ele>653.40002441406</ele>
        <time>2021-05-23T09:38:23Z</time>
      </trkpt>
      <trkpt lat="43.66638" lon="6.04014">
        <ele>653.59997558594</ele>
        <time>2021-05-23T09:38:24Z</time>
      </trkpt>
      <trkpt lat="43.66641" lon="6.04011">
        <ele>653.59997558594</ele>
        <time>2021-05-23T09:38:25Z</time>
      </trkpt>
      <trkpt lat="43.66643" lon="6.04008">
        <ele>653.59997558594</ele>
        <time>2021-05-23T09:38:26Z</time>
      </trkpt>
      <trkpt lat="43.66646" lon="6.04005">
        <ele>653.59997558594</ele>
        <time>2021-05-23T09:38:27Z</time>
      </trkpt>
      <trkpt lat="43.66648" lon="6.04001">
        <ele>653.59997558594</ele>
        <time>2021-05-23T09:38:28Z</time>
      </trkpt>
      <trkpt lat="43.66651" lon="6.03998">
        <ele>653.79998779297</ele>
        <time>2021-05-23T09:38:29Z</time>
      </trkpt>
      <trkpt lat="43.66653" lon="6.03995">
        <ele>653.79998779297</ele>
        <time>2021-05-23T09:38:30Z</time>
      </trkpt>
      <trkpt lat="43.66656" lon="6.03992">
        <ele>654</ele>
        <time>2021-05-23T09:38:31Z</time>
      </trkpt>
      <trkpt lat="43.66658" lon="6.0399">
        <ele>654</ele>
        <time>2021-05-23T09:38:32Z</time>
      </trkpt>
      <trkpt lat="43.6666" lon="6.03987">
        <ele>654.20001220703</ele>
        <time>2021-05-23T09:38:33Z</time>
      </trkpt>
      <trkpt lat="43.66662" lon="6.03986">
        <ele>654.40002441406</ele>
        <time>2021-05-23T09:38:34Z</time>
      </trkpt>
      <trkpt lat="43.66664" lon="6.03983">
        <ele>654.59997558594</ele>
        <time>2021-05-23T09:38:35Z</time>
      </trkpt>
      <trkpt lat="43.66666" lon="6.0398">
        <ele>654.79998779297</ele>
        <time>2021-05-23T09:38:36Z</time>
      </trkpt>
      <trkpt lat="43.66668" lon="6.03977">
        <ele>654.79998779297</ele>
        <time>2021-05-23T09:38:37Z</time>
      </trkpt>
      <trkpt lat="43.6667" lon="6.03974">
        <ele>654.79998779297</ele>
        <time>2021-05-23T09:38:38Z</time>
      </trkpt>
      <trkpt lat="43.66672" lon="6.03971">
        <ele>655.20001220703</ele>
        <time>2021-05-23T09:38:39Z</time>
      </trkpt>
      <trkpt lat="43.66675" lon="6.03968">
        <ele>655.20001220703</ele>
        <time>2021-05-23T09:38:40Z</time>
      </trkpt>
      <trkpt lat="43.66677" lon="6.03966">
        <ele>655</ele>
        <time>2021-05-23T09:38:41Z</time>
      </trkpt>
      <trkpt lat="43.6668" lon="6.03964">
        <ele>655.40002441406</ele>
        <time>2021-05-23T09:38:42Z</time>
      </trkpt>
      <trkpt lat="43.66683" lon="6.03963">
        <ele>655.40002441406</ele>
        <time>2021-05-23T09:38:43Z</time>
      </trkpt>
      <trkpt lat="43.66685" lon="6.03963">
        <ele>655.59997558594</ele>
        <time>2021-05-23T09:38:44Z</time>
      </trkpt>
      <trkpt lat="43.66688" lon="6.03962">
        <ele>655.59997558594</ele>
        <time>2021-05-23T09:38:45Z</time>
      </trkpt>
      <trkpt lat="43.66691" lon="6.03963">
        <ele>655.79998779297</ele>
        <time>2021-05-23T09:38:46Z</time>
      </trkpt>
      <trkpt lat="43.66694" lon="6.03963">
        <ele>655.79998779297</ele>
        <time>2021-05-23T09:38:47Z</time>
      </trkpt>
      <trkpt lat="43.66697" lon="6.03962">
        <ele>656</ele>
        <time>2021-05-23T09:38:48Z</time>
      </trkpt>
      <trkpt lat="43.66699" lon="6.03962">
        <ele>656</ele>
        <time>2021-05-23T09:38:49Z</time>
      </trkpt>
      <trkpt lat="43.66702" lon="6.03962">
        <ele>656</ele>
        <time>2021-05-23T09:38:50Z</time>
      </trkpt>
      <trkpt lat="43.66705" lon="6.03961">
        <ele>656</ele>
        <time>2021-05-23T09:38:51Z</time>
      </trkpt>
      <trkpt lat="43.66708" lon="6.0396">
        <ele>656.20001220703</ele>
        <time>2021-05-23T09:38:52Z</time>
      </trkpt>
      <trkpt lat="43.66711" lon="6.0396">
        <ele>656.40002441406</ele>
        <time>2021-05-23T09:38:53Z</time>
      </trkpt>
      <trkpt lat="43.66713" lon="6.03959">
        <ele>656.59997558594</ele>
        <time>2021-05-23T09:38:54Z</time>
      </trkpt>
      <trkpt lat="43.66716" lon="6.03959">
        <ele>656.59997558594</ele>
        <time>2021-05-23T09:38:55Z</time>
      </trkpt>
      <trkpt lat="43.66719" lon="6.03958">
        <ele>656.79998779297</ele>
        <time>2021-05-23T09:38:56Z</time>
      </trkpt>
      <trkpt lat="43.66721" lon="6.03957">
        <ele>657</ele>
        <time>2021-05-23T09:38:57Z</time>
      </trkpt>
      <trkpt lat="43.66724" lon="6.03957">
        <ele>657.20001220703</ele>
        <time>2021-05-23T09:38:58Z</time>
      </trkpt>
      <trkpt lat="43.66727" lon="6.03956">
        <ele>657.40002441406</ele>
        <time>2021-05-23T09:38:59Z</time>
      </trkpt>
      <trkpt lat="43.6673" lon="6.03955">
        <ele>657.40002441406</ele>
        <time>2021-05-23T09:39:00Z</time>
      </trkpt>
      <trkpt lat="43.66732" lon="6.03955">
        <ele>657.40002441406</ele>
        <time>2021-05-23T09:39:01Z</time>
      </trkpt>
      <trkpt lat="43.66735" lon="6.03954">
        <ele>657.59997558594</ele>
        <time>2021-05-23T09:39:02Z</time>
      </trkpt>
      <trkpt lat="43.66738" lon="6.03953">
        <ele>657.79998779297</ele>
        <time>2021-05-23T09:39:03Z</time>
      </trkpt>
      <trkpt lat="43.6674" lon="6.03952">
        <ele>658</ele>
        <time>2021-05-23T09:39:04Z</time>
      </trkpt>
      <trkpt lat="43.66743" lon="6.03951">
        <ele>658</ele>
        <time>2021-05-23T09:39:05Z</time>
      </trkpt>
      <trkpt lat="43.66745" lon="6.03951">
        <ele>658.20001220703</ele>
        <time>2021-05-23T09:39:06Z</time>
      </trkpt>
      <trkpt lat="43.66748" lon="6.0395">
        <ele>658.20001220703</ele>
        <time>2021-05-23T09:39:07Z</time>
      </trkpt>
      <trkpt lat="43.66751" lon="6.03948">
        <ele>658.40002441406</ele>
        <time>2021-05-23T09:39:08Z</time>
      </trkpt>
      <trkpt lat="43.66754" lon="6.03948">
        <ele>658.40002441406</ele>
        <time>2021-05-23T09:39:09Z</time>
      </trkpt>
      <trkpt lat="43.66757" lon="6.03947">
        <ele>658.59997558594</ele>
        <time>2021-05-23T09:39:10Z</time>
      </trkpt>
      <trkpt lat="43.6676" lon="6.03946">
        <ele>658.59997558594</ele>
        <time>2021-05-23T09:39:11Z</time>
      </trkpt>
      <trkpt lat="43.66763" lon="6.03945">
        <ele>658.59997558594</ele>
        <time>2021-05-23T09:39:12Z</time>
      </trkpt>
      <trkpt lat="43.66766" lon="6.03944">
        <ele>658.59997558594</ele>
        <time>2021-05-23T09:39:13Z</time>
      </trkpt>
      <trkpt lat="43.66769" lon="6.03943">
        <ele>659</ele>
        <time>2021-05-23T09:39:14Z</time>
      </trkpt>
      <trkpt lat="43.66772" lon="6.03942">
        <ele>659.20001220703</ele>
        <time>2021-05-23T09:39:15Z</time>
      </trkpt>
      <trkpt lat="43.66775" lon="6.0394">
        <ele>659.20001220703</ele>
        <time>2021-05-23T09:39:16Z</time>
      </trkpt>
      <trkpt lat="43.66777" lon="6.03939">
        <ele>659.20001220703</ele>
        <time>2021-05-23T09:39:17Z</time>
      </trkpt>
      <trkpt lat="43.6678" lon="6.03937">
        <ele>659.20001220703</ele>
        <time>2021-05-23T09:39:18Z</time>
      </trkpt>
      <trkpt lat="43.66783" lon="6.03936">
        <ele>659.40002441406</ele>
        <time>2021-05-23T09:39:19Z</time>
      </trkpt>
      <trkpt lat="43.66785" lon="6.03935">
        <ele>659.40002441406</ele>
        <time>2021-05-23T09:39:20Z</time>
      </trkpt>
      <trkpt lat="43.66788" lon="6.03934">
        <ele>659.40002441406</ele>
        <time>2021-05-23T09:39:21Z</time>
      </trkpt>
      <trkpt lat="43.66791" lon="6.03932">
        <ele>659.59997558594</ele>
        <time>2021-05-23T09:39:22Z</time>
      </trkpt>
      <trkpt lat="43.66794" lon="6.0393">
        <ele>659.59997558594</ele>
        <time>2021-05-23T09:39:23Z</time>
      </trkpt>
      <trkpt lat="43.66797" lon="6.03929">
        <ele>659.59997558594</ele>
        <time>2021-05-23T09:39:24Z</time>
      </trkpt>
      <trkpt lat="43.66799" lon="6.03928">
        <ele>659.79998779297</ele>
        <time>2021-05-23T09:39:25Z</time>
      </trkpt>
      <trkpt lat="43.66802" lon="6.03927">
        <ele>659.79998779297</ele>
        <time>2021-05-23T09:39:26Z</time>
      </trkpt>
      <trkpt lat="43.66805" lon="6.03926">
        <ele>660</ele>
        <time>2021-05-23T09:39:27Z</time>
      </trkpt>
      <trkpt lat="43.66808" lon="6.03925">
        <ele>660</ele>
        <time>2021-05-23T09:39:28Z</time>
      </trkpt>
      <trkpt lat="43.66811" lon="6.03924">
        <ele>660</ele>
        <time>2021-05-23T09:39:29Z</time>
      </trkpt>
      <trkpt lat="43.66814" lon="6.03922">
        <ele>660</ele>
        <time>2021-05-23T09:39:30Z</time>
      </trkpt>
      <trkpt lat="43.66817" lon="6.0392">
        <ele>660</ele>
        <time>2021-05-23T09:39:31Z</time>
      </trkpt>
      <trkpt lat="43.66819" lon="6.03919">
        <ele>660</ele>
        <time>2021-05-23T09:39:32Z</time>
      </trkpt>
      <trkpt lat="43.66822" lon="6.03917">
        <ele>660</ele>
        <time>2021-05-23T09:39:33Z</time>
      </trkpt>
      <trkpt lat="43.66825" lon="6.03916">
        <ele>660</ele>
        <time>2021-05-23T09:39:34Z</time>
      </trkpt>
      <trkpt lat="43.66828" lon="6.03915">
        <ele>660</ele>
        <time>2021-05-23T09:39:35Z</time>
      </trkpt>
      <trkpt lat="43.6683" lon="6.03913">
        <ele>660.20001220703</ele>
        <time>2021-05-23T09:39:36Z</time>
      </trkpt>
      <trkpt lat="43.66833" lon="6.03912">
        <ele>660.40002441406</ele>
        <time>2021-05-23T09:39:37Z</time>
      </trkpt>
      <trkpt lat="43.66836" lon="6.03911">
        <ele>660.59997558594</ele>
        <time>2021-05-23T09:39:38Z</time>
      </trkpt>
      <trkpt lat="43.66838" lon="6.0391">
        <ele>660.79998779297</ele>
        <time>2021-05-23T09:39:39Z</time>
      </trkpt>
      <trkpt lat="43.66841" lon="6.03909">
        <ele>660.79998779297</ele>
        <time>2021-05-23T09:39:40Z</time>
      </trkpt>
      <trkpt lat="43.66843" lon="6.03907">
        <ele>660.79998779297</ele>
        <time>2021-05-23T09:39:41Z</time>
      </trkpt>
      <trkpt lat="43.66846" lon="6.03905">
        <ele>661</ele>
        <time>2021-05-23T09:39:42Z</time>
      </trkpt>
      <trkpt lat="43.66849" lon="6.03903">
        <ele>661</ele>
        <time>2021-05-23T09:39:43Z</time>
      </trkpt>
      <trkpt lat="43.66851" lon="6.03902">
        <ele>661</ele>
        <time>2021-05-23T09:39:44Z</time>
      </trkpt>
      <trkpt lat="43.66853" lon="6.03901">
        <ele>661.20001220703</ele>
        <time>2021-05-23T09:39:45Z</time>
      </trkpt>
      <trkpt lat="43.66856" lon="6.03899">
        <ele>661.40002441406</ele>
        <time>2021-05-23T09:39:46Z</time>
      </trkpt>
      <trkpt lat="43.66858" lon="6.03898">
        <ele>661.59997558594</ele>
        <time>2021-05-23T09:39:47Z</time>
      </trkpt>
      <trkpt lat="43.66861" lon="6.03897">
        <ele>661.79998779297</ele>
        <time>2021-05-23T09:39:48Z</time>
      </trkpt>
      <trkpt lat="43.66863" lon="6.03895">
        <ele>661.79998779297</ele>
        <time>2021-05-23T09:39:49Z</time>
      </trkpt>
      <trkpt lat="43.66865" lon="6.03894">
        <ele>661.79998779297</ele>
        <time>2021-05-23T09:39:50Z</time>
      </trkpt>
      <trkpt lat="43.66867" lon="6.03893">
        <ele>662</ele>
        <time>2021-05-23T09:39:51Z</time>
      </trkpt>
      <trkpt lat="43.6687" lon="6.03891">
        <ele>662</ele>
        <time>2021-05-23T09:39:52Z</time>
      </trkpt>
      <trkpt lat="43.66872" lon="6.03891">
        <ele>662.20001220703</ele>
        <time>2021-05-23T09:39:53Z</time>
      </trkpt>
      <trkpt lat="43.66875" lon="6.0389">
        <ele>662.40002441406</ele>
        <time>2021-05-23T09:39:54Z</time>
      </trkpt>
      <trkpt lat="43.66878" lon="6.03889">
        <ele>662.40002441406</ele>
        <time>2021-05-23T09:39:55Z</time>
      </trkpt>
      <trkpt lat="43.6688" lon="6.03887">
        <ele>662.40002441406</ele>
        <time>2021-05-23T09:39:56Z</time>
      </trkpt>
      <trkpt lat="43.66883" lon="6.03885">
        <ele>662.59997558594</ele>
        <time>2021-05-23T09:39:57Z</time>
      </trkpt>
      <trkpt lat="43.66885" lon="6.03884">
        <ele>662.79998779297</ele>
        <time>2021-05-23T09:39:58Z</time>
      </trkpt>
      <trkpt lat="43.66887" lon="6.03882">
        <ele>663.20001220703</ele>
        <time>2021-05-23T09:39:59Z</time>
      </trkpt>
      <trkpt lat="43.66889" lon="6.03881">
        <ele>663.40002441406</ele>
        <time>2021-05-23T09:40:00Z</time>
      </trkpt>
      <trkpt lat="43.66892" lon="6.0388">
        <ele>663.59997558594</ele>
        <time>2021-05-23T09:40:01Z</time>
      </trkpt>
      <trkpt lat="43.66894" lon="6.03879">
        <ele>664</ele>
        <time>2021-05-23T09:40:02Z</time>
      </trkpt>
      <trkpt lat="43.66896" lon="6.03879">
        <ele>664.20001220703</ele>
        <time>2021-05-23T09:40:03Z</time>
      </trkpt>
      <trkpt lat="43.66899" lon="6.03878">
        <ele>664.40002441406</ele>
        <time>2021-05-23T09:40:04Z</time>
      </trkpt>
      <trkpt lat="43.66901" lon="6.03876">
        <ele>664.59997558594</ele>
        <time>2021-05-23T09:40:05Z</time>
      </trkpt>
      <trkpt lat="43.66904" lon="6.03875">
        <ele>664.59997558594</ele>
        <time>2021-05-23T09:40:06Z</time>
      </trkpt>
      <trkpt lat="43.66907" lon="6.03874">
        <ele>664.79998779297</ele>
        <time>2021-05-23T09:40:07Z</time>
      </trkpt>
      <trkpt lat="43.66909" lon="6.03873">
        <ele>664.79998779297</ele>
        <time>2021-05-23T09:40:08Z</time>
      </trkpt>
      <trkpt lat="43.66912" lon="6.03872">
        <ele>665</ele>
        <time>2021-05-23T09:40:09Z</time>
      </trkpt>
      <trkpt lat="43.66915" lon="6.03871">
        <ele>665.20001220703</ele>
        <time>2021-05-23T09:40:10Z</time>
      </trkpt>
      <trkpt lat="43.66917" lon="6.0387">
        <ele>665.20001220703</ele>
        <time>2021-05-23T09:40:11Z</time>
      </trkpt>
      <trkpt lat="43.66919" lon="6.03869">
        <ele>665.59997558594</ele>
        <time>2021-05-23T09:40:12Z</time>
      </trkpt>
      <trkpt lat="43.66922" lon="6.03868">
        <ele>665.79998779297</ele>
        <time>2021-05-23T09:40:13Z</time>
      </trkpt>
      <trkpt lat="43.66924" lon="6.03866">
        <ele>666.20001220703</ele>
        <time>2021-05-23T09:40:14Z</time>
      </trkpt>
      <trkpt lat="43.66926" lon="6.03865">
        <ele>666.40002441406</ele>
        <time>2021-05-23T09:40:15Z</time>
      </trkpt>
      <trkpt lat="43.66929" lon="6.03864">
        <ele>666.59997558594</ele>
        <time>2021-05-23T09:40:16Z</time>
      </trkpt>
      <trkpt lat="43.66931" lon="6.03863">
        <ele>666.79998779297</ele>
        <time>2021-05-23T09:40:17Z</time>
      </trkpt>
      <trkpt lat="43.66933" lon="6.03862">
        <ele>666.79998779297</ele>
        <time>2021-05-23T09:40:18Z</time>
      </trkpt>
      <trkpt lat="43.66936" lon="6.03862">
        <ele>666.79998779297</ele>
        <time>2021-05-23T09:40:19Z</time>
      </trkpt>
      <trkpt lat="43.66938" lon="6.03861">
        <ele>666.79998779297</ele>
        <time>2021-05-23T09:40:20Z</time>
      </trkpt>
      <trkpt lat="43.6694" lon="6.03861">
        <ele>666.79998779297</ele>
        <time>2021-05-23T09:40:21Z</time>
      </trkpt>
      <trkpt lat="43.66942" lon="6.0386">
        <ele>667</ele>
        <time>2021-05-23T09:40:22Z</time>
      </trkpt>
      <trkpt lat="43.66945" lon="6.03859">
        <ele>667.20001220703</ele>
        <time>2021-05-23T09:40:23Z</time>
      </trkpt>
      <trkpt lat="43.66948" lon="6.03858">
        <ele>667.20001220703</ele>
        <time>2021-05-23T09:40:24Z</time>
      </trkpt>
      <trkpt lat="43.66951" lon="6.03857">
        <ele>667.40002441406</ele>
        <time>2021-05-23T09:40:25Z</time>
      </trkpt>
      <trkpt lat="43.66953" lon="6.03856">
        <ele>667.40002441406</ele>
        <time>2021-05-23T09:40:26Z</time>
      </trkpt>
      <trkpt lat="43.66956" lon="6.03856">
        <ele>667.40002441406</ele>
        <time>2021-05-23T09:40:27Z</time>
      </trkpt>
      <trkpt lat="43.66959" lon="6.03855">
        <ele>667.40002441406</ele>
        <time>2021-05-23T09:40:28Z</time>
      </trkpt>
      <trkpt lat="43.66962" lon="6.03855">
        <ele>667.40002441406</ele>
        <time>2021-05-23T09:40:29Z</time>
      </trkpt>
      <trkpt lat="43.66965" lon="6.03854">
        <ele>667.40002441406</ele>
        <time>2021-05-23T09:40:30Z</time>
      </trkpt>
      <trkpt lat="43.66968" lon="6.03853">
        <ele>667.40002441406</ele>
        <time>2021-05-23T09:40:31Z</time>
      </trkpt>
      <trkpt lat="43.6697" lon="6.03852">
        <ele>667.40002441406</ele>
        <time>2021-05-23T09:40:32Z</time>
      </trkpt>
      <trkpt lat="43.66973" lon="6.03851">
        <ele>667.40002441406</ele>
        <time>2021-05-23T09:40:33Z</time>
      </trkpt>
      <trkpt lat="43.66976" lon="6.03851">
        <ele>667.40002441406</ele>
        <time>2021-05-23T09:40:34Z</time>
      </trkpt>
      <trkpt lat="43.66978" lon="6.03851">
        <ele>667.40002441406</ele>
        <time>2021-05-23T09:40:35Z</time>
      </trkpt>
      <trkpt lat="43.66981" lon="6.0385">
        <ele>667.79998779297</ele>
        <time>2021-05-23T09:40:36Z</time>
      </trkpt>
      <trkpt lat="43.66983" lon="6.03849">
        <ele>667.79998779297</ele>
        <time>2021-05-23T09:40:37Z</time>
      </trkpt>
      <trkpt lat="43.66986" lon="6.03848">
        <ele>668</ele>
        <time>2021-05-23T09:40:38Z</time>
      </trkpt>
      <trkpt lat="43.66989" lon="6.03848">
        <ele>668</ele>
        <time>2021-05-23T09:40:39Z</time>
      </trkpt>
      <trkpt lat="43.66992" lon="6.03847">
        <ele>668</ele>
        <time>2021-05-23T09:40:40Z</time>
      </trkpt>
      <trkpt lat="43.66995" lon="6.03846">
        <ele>668.20001220703</ele>
        <time>2021-05-23T09:40:41Z</time>
      </trkpt>
      <trkpt lat="43.66997" lon="6.03846">
        <ele>668.20001220703</ele>
        <time>2021-05-23T09:40:42Z</time>
      </trkpt>
      <trkpt lat="43.67" lon="6.03845">
        <ele>668</ele>
        <time>2021-05-23T09:40:43Z</time>
      </trkpt>
      <trkpt lat="43.67003" lon="6.03845">
        <ele>668</ele>
        <time>2021-05-23T09:40:44Z</time>
      </trkpt>
      <trkpt lat="43.67006" lon="6.03844">
        <ele>668</ele>
        <time>2021-05-23T09:40:45Z</time>
      </trkpt>
      <trkpt lat="43.67009" lon="6.03844">
        <ele>668</ele>
        <time>2021-05-23T09:40:46Z</time>
      </trkpt>
      <trkpt lat="43.67012" lon="6.03844">
        <ele>668</ele>
        <time>2021-05-23T09:40:47Z</time>
      </trkpt>
      <trkpt lat="43.67015" lon="6.03844">
        <ele>668</ele>
        <time>2021-05-23T09:40:48Z</time>
      </trkpt>
      <trkpt lat="43.67018" lon="6.03844">
        <ele>668</ele>
        <time>2021-05-23T09:40:49Z</time>
      </trkpt>
      <trkpt lat="43.6702" lon="6.03844">
        <ele>667.79998779297</ele>
        <time>2021-05-23T09:40:50Z</time>
      </trkpt>
      <trkpt lat="43.67023" lon="6.03844">
        <ele>667.79998779297</ele>
        <time>2021-05-23T09:40:51Z</time>
      </trkpt>
      <trkpt lat="43.67026" lon="6.03843">
        <ele>667.79998779297</ele>
        <time>2021-05-23T09:40:52Z</time>
      </trkpt>
      <trkpt lat="43.67029" lon="6.03843">
        <ele>667.79998779297</ele>
        <time>2021-05-23T09:40:53Z</time>
      </trkpt>
      <trkpt lat="43.67032" lon="6.03843">
        <ele>667.59997558594</ele>
        <time>2021-05-23T09:40:54Z</time>
      </trkpt>
      <trkpt lat="43.67034" lon="6.03842">
        <ele>667.40002441406</ele>
        <time>2021-05-23T09:40:55Z</time>
      </trkpt>
      <trkpt lat="43.67038" lon="6.03842">
        <ele>667.40002441406</ele>
        <time>2021-05-23T09:40:56Z</time>
      </trkpt>
      <trkpt lat="43.67041" lon="6.03841">
        <ele>667.40002441406</ele>
        <time>2021-05-23T09:40:57Z</time>
      </trkpt>
      <trkpt lat="43.67044" lon="6.0384">
        <ele>667.40002441406</ele>
        <time>2021-05-23T09:40:58Z</time>
      </trkpt>
      <trkpt lat="43.67047" lon="6.0384">
        <ele>667.40002441406</ele>
        <time>2021-05-23T09:40:59Z</time>
      </trkpt>
      <trkpt lat="43.6705" lon="6.0384">
        <ele>667.40002441406</ele>
        <time>2021-05-23T09:41:00Z</time>
      </trkpt>
      <trkpt lat="43.67053" lon="6.0384">
        <ele>667.40002441406</ele>
        <time>2021-05-23T09:41:01Z</time>
      </trkpt>
      <trkpt lat="43.67055" lon="6.03839">
        <ele>667.40002441406</ele>
        <time>2021-05-23T09:41:02Z</time>
      </trkpt>
      <trkpt lat="43.67059" lon="6.03839">
        <ele>667.40002441406</ele>
        <time>2021-05-23T09:41:03Z</time>
      </trkpt>
      <trkpt lat="43.67062" lon="6.03838">
        <ele>667.40002441406</ele>
        <time>2021-05-23T09:41:04Z</time>
      </trkpt>
      <trkpt lat="43.67065" lon="6.03837">
        <ele>667.40002441406</ele>
        <time>2021-05-23T09:41:05Z</time>
      </trkpt>
      <trkpt lat="43.67068" lon="6.03835">
        <ele>667.20001220703</ele>
        <time>2021-05-23T09:41:06Z</time>
      </trkpt>
      <trkpt lat="43.67071" lon="6.03835">
        <ele>667.20001220703</ele>
        <time>2021-05-23T09:41:07Z</time>
      </trkpt>
      <trkpt lat="43.67075" lon="6.03834">
        <ele>667.20001220703</ele>
        <time>2021-05-23T09:41:08Z</time>
      </trkpt>
      <trkpt lat="43.67078" lon="6.03833">
        <ele>667.20001220703</ele>
        <time>2021-05-23T09:41:09Z</time>
      </trkpt>
      <trkpt lat="43.67081" lon="6.03832">
        <ele>667.20001220703</ele>
        <time>2021-05-23T09:41:10Z</time>
      </trkpt>
      <trkpt lat="43.67084" lon="6.0383">
        <ele>667.40002441406</ele>
        <time>2021-05-23T09:41:11Z</time>
      </trkpt>
      <trkpt lat="43.67088" lon="6.03829">
        <ele>667.40002441406</ele>
        <time>2021-05-23T09:41:12Z</time>
      </trkpt>
      <trkpt lat="43.67091" lon="6.03827">
        <ele>667.40002441406</ele>
        <time>2021-05-23T09:41:13Z</time>
      </trkpt>
      <trkpt lat="43.67094" lon="6.03825">
        <ele>667.40002441406</ele>
        <time>2021-05-23T09:41:14Z</time>
      </trkpt>
      <trkpt lat="43.67098" lon="6.03824">
        <ele>667.40002441406</ele>
        <time>2021-05-23T09:41:15Z</time>
      </trkpt>
      <trkpt lat="43.67101" lon="6.03823">
        <ele>667.40002441406</ele>
        <time>2021-05-23T09:41:16Z</time>
      </trkpt>
      <trkpt lat="43.67104" lon="6.03821">
        <ele>667.40002441406</ele>
        <time>2021-05-23T09:41:17Z</time>
      </trkpt>
      <trkpt lat="43.67107" lon="6.03819">
        <ele>667.40002441406</ele>
        <time>2021-05-23T09:41:18Z</time>
      </trkpt>
      <trkpt lat="43.6711" lon="6.03818">
        <ele>667.40002441406</ele>
        <time>2021-05-23T09:41:19Z</time>
      </trkpt>
      <trkpt lat="43.67113" lon="6.03817">
        <ele>667.40002441406</ele>
        <time>2021-05-23T09:41:20Z</time>
      </trkpt>
      <trkpt lat="43.67115" lon="6.03815">
        <ele>667.40002441406</ele>
        <time>2021-05-23T09:41:21Z</time>
      </trkpt>
      <trkpt lat="43.67118" lon="6.03814">
        <ele>667.40002441406</ele>
        <time>2021-05-23T09:41:22Z</time>
      </trkpt>
      <trkpt lat="43.67121" lon="6.03812">
        <ele>667.59997558594</ele>
        <time>2021-05-23T09:41:23Z</time>
      </trkpt>
      <trkpt lat="43.67124" lon="6.03811">
        <ele>667.79998779297</ele>
        <time>2021-05-23T09:41:24Z</time>
      </trkpt>
      <trkpt lat="43.67128" lon="6.0381">
        <ele>667.59997558594</ele>
        <time>2021-05-23T09:41:25Z</time>
      </trkpt>
      <trkpt lat="43.67131" lon="6.03809">
        <ele>667.59997558594</ele>
        <time>2021-05-23T09:41:26Z</time>
      </trkpt>
      <trkpt lat="43.67133" lon="6.03807">
        <ele>667.59997558594</ele>
        <time>2021-05-23T09:41:27Z</time>
      </trkpt>
      <trkpt lat="43.67136" lon="6.03806">
        <ele>667.59997558594</ele>
        <time>2021-05-23T09:41:28Z</time>
      </trkpt>
      <trkpt lat="43.67139" lon="6.03805">
        <ele>667.59997558594</ele>
        <time>2021-05-23T09:41:29Z</time>
      </trkpt>
      <trkpt lat="43.67142" lon="6.03804">
        <ele>667.59997558594</ele>
        <time>2021-05-23T09:41:30Z</time>
      </trkpt>
      <trkpt lat="43.67144" lon="6.03802">
        <ele>667.59997558594</ele>
        <time>2021-05-23T09:41:31Z</time>
      </trkpt>
      <trkpt lat="43.67147" lon="6.03801">
        <ele>667.79998779297</ele>
        <time>2021-05-23T09:41:32Z</time>
      </trkpt>
      <trkpt lat="43.6715" lon="6.03799">
        <ele>667.79998779297</ele>
        <time>2021-05-23T09:41:33Z</time>
      </trkpt>
      <trkpt lat="43.67153" lon="6.03797">
        <ele>667.79998779297</ele>
        <time>2021-05-23T09:41:34Z</time>
      </trkpt>
      <trkpt lat="43.67155" lon="6.03795">
        <ele>667.79998779297</ele>
        <time>2021-05-23T09:41:35Z</time>
      </trkpt>
      <trkpt lat="43.67158" lon="6.03793">
        <ele>667.79998779297</ele>
        <time>2021-05-23T09:41:36Z</time>
      </trkpt>
      <trkpt lat="43.67161" lon="6.03791">
        <ele>667.59997558594</ele>
        <time>2021-05-23T09:41:37Z</time>
      </trkpt>
      <trkpt lat="43.67164" lon="6.03789">
        <ele>667.59997558594</ele>
        <time>2021-05-23T09:41:38Z</time>
      </trkpt>
      <trkpt lat="43.67166" lon="6.03788">
        <ele>667.59997558594</ele>
        <time>2021-05-23T09:41:39Z</time>
      </trkpt>
      <trkpt lat="43.67169" lon="6.03786">
        <ele>667.59997558594</ele>
        <time>2021-05-23T09:41:40Z</time>
      </trkpt>
      <trkpt lat="43.67172" lon="6.03784">
        <ele>667.59997558594</ele>
        <time>2021-05-23T09:41:41Z</time>
      </trkpt>
      <trkpt lat="43.67175" lon="6.03783">
        <ele>667.59997558594</ele>
        <time>2021-05-23T09:41:42Z</time>
      </trkpt>
      <trkpt lat="43.67178" lon="6.03782">
        <ele>667.79998779297</ele>
        <time>2021-05-23T09:41:43Z</time>
      </trkpt>
      <trkpt lat="43.67181" lon="6.0378">
        <ele>667.59997558594</ele>
        <time>2021-05-23T09:41:44Z</time>
      </trkpt>
      <trkpt lat="43.67184" lon="6.03779">
        <ele>667.59997558594</ele>
        <time>2021-05-23T09:41:45Z</time>
      </trkpt>
      <trkpt lat="43.67187" lon="6.03777">
        <ele>667.59997558594</ele>
        <time>2021-05-23T09:41:46Z</time>
      </trkpt>
      <trkpt lat="43.6719" lon="6.03776">
        <ele>667.59997558594</ele>
        <time>2021-05-23T09:41:47Z</time>
      </trkpt>
      <trkpt lat="43.67193" lon="6.03775">
        <ele>667.59997558594</ele>
        <time>2021-05-23T09:41:48Z</time>
      </trkpt>
      <trkpt lat="43.67197" lon="6.03774">
        <ele>667.59997558594</ele>
        <time>2021-05-23T09:41:49Z</time>
      </trkpt>
      <trkpt lat="43.672" lon="6.03772">
        <ele>667.79998779297</ele>
        <time>2021-05-23T09:41:50Z</time>
      </trkpt>
      <trkpt lat="43.67203" lon="6.03771">
        <ele>667.59997558594</ele>
        <time>2021-05-23T09:41:51Z</time>
      </trkpt>
      <trkpt lat="43.67206" lon="6.03769">
        <ele>667.40002441406</ele>
        <time>2021-05-23T09:41:52Z</time>
      </trkpt>
      <trkpt lat="43.67209" lon="6.03767">
        <ele>667.40002441406</ele>
        <time>2021-05-23T09:41:53Z</time>
      </trkpt>
      <trkpt lat="43.67212" lon="6.03765">
        <ele>667.40002441406</ele>
        <time>2021-05-23T09:41:54Z</time>
      </trkpt>
      <trkpt lat="43.67215" lon="6.03764">
        <ele>667.40002441406</ele>
        <time>2021-05-23T09:41:55Z</time>
      </trkpt>
      <trkpt lat="43.67218" lon="6.03762">
        <ele>667.59997558594</ele>
        <time>2021-05-23T09:41:56Z</time>
      </trkpt>
      <trkpt lat="43.67221" lon="6.0376">
        <ele>667.59997558594</ele>
        <time>2021-05-23T09:41:57Z</time>
      </trkpt>
      <trkpt lat="43.67224" lon="6.03759">
        <ele>667.79998779297</ele>
        <time>2021-05-23T09:41:58Z</time>
      </trkpt>
      <trkpt lat="43.67227" lon="6.03757">
        <ele>667.79998779297</ele>
        <time>2021-05-23T09:41:59Z</time>
      </trkpt>
      <trkpt lat="43.6723" lon="6.03755">
        <ele>667.79998779297</ele>
        <time>2021-05-23T09:42:00Z</time>
      </trkpt>
      <trkpt lat="43.67233" lon="6.03754">
        <ele>667.59997558594</ele>
        <time>2021-05-23T09:42:01Z</time>
      </trkpt>
      <trkpt lat="43.67237" lon="6.03752">
        <ele>667.59997558594</ele>
        <time>2021-05-23T09:42:02Z</time>
      </trkpt>
      <trkpt lat="43.6724" lon="6.03751">
        <ele>667.40002441406</ele>
        <time>2021-05-23T09:42:03Z</time>
      </trkpt>
      <trkpt lat="43.67243" lon="6.03749">
        <ele>667</ele>
        <time>2021-05-23T09:42:04Z</time>
      </trkpt>
      <trkpt lat="43.67246" lon="6.03748">
        <ele>667</ele>
        <time>2021-05-23T09:42:05Z</time>
      </trkpt>
      <trkpt lat="43.67249" lon="6.03746">
        <ele>666.79998779297</ele>
        <time>2021-05-23T09:42:06Z</time>
      </trkpt>
      <trkpt lat="43.67252" lon="6.03744">
        <ele>666.79998779297</ele>
        <time>2021-05-23T09:42:07Z</time>
      </trkpt>
      <trkpt lat="43.67255" lon="6.03743">
        <ele>666.79998779297</ele>
        <time>2021-05-23T09:42:08Z</time>
      </trkpt>
      <trkpt lat="43.67258" lon="6.03741">
        <ele>666.79998779297</ele>
        <time>2021-05-23T09:42:09Z</time>
      </trkpt>
      <trkpt lat="43.67262" lon="6.03739">
        <ele>666.79998779297</ele>
        <time>2021-05-23T09:42:10Z</time>
      </trkpt>
      <trkpt lat="43.67265" lon="6.03736">
        <ele>666.79998779297</ele>
        <time>2021-05-23T09:42:11Z</time>
      </trkpt>
      <trkpt lat="43.67268" lon="6.03733">
        <ele>666.59997558594</ele>
        <time>2021-05-23T09:42:12Z</time>
      </trkpt>
      <trkpt lat="43.67271" lon="6.03731">
        <ele>666.59997558594</ele>
        <time>2021-05-23T09:42:13Z</time>
      </trkpt>
      <trkpt lat="43.67274" lon="6.03729">
        <ele>666.59997558594</ele>
        <time>2021-05-23T09:42:14Z</time>
      </trkpt>
      <trkpt lat="43.67277" lon="6.03727">
        <ele>666.59997558594</ele>
        <time>2021-05-23T09:42:15Z</time>
      </trkpt>
      <trkpt lat="43.6728" lon="6.03724">
        <ele>666.59997558594</ele>
        <time>2021-05-23T09:42:16Z</time>
      </trkpt>
      <trkpt lat="43.67283" lon="6.03722">
        <ele>666.59997558594</ele>
        <time>2021-05-23T09:42:17Z</time>
      </trkpt>
      <trkpt lat="43.67286" lon="6.0372">
        <ele>666.59997558594</ele>
        <time>2021-05-23T09:42:18Z</time>
      </trkpt>
      <trkpt lat="43.67289" lon="6.03717">
        <ele>666.59997558594</ele>
        <time>2021-05-23T09:42:19Z</time>
      </trkpt>
      <trkpt lat="43.67292" lon="6.03715">
        <ele>666.79998779297</ele>
        <time>2021-05-23T09:42:20Z</time>
      </trkpt>
      <trkpt lat="43.67295" lon="6.03713">
        <ele>666.79998779297</ele>
        <time>2021-05-23T09:42:21Z</time>
      </trkpt>
      <trkpt lat="43.67298" lon="6.0371">
        <ele>666.59997558594</ele>
        <time>2021-05-23T09:42:22Z</time>
      </trkpt>
      <trkpt lat="43.67301" lon="6.03708">
        <ele>666.59997558594</ele>
        <time>2021-05-23T09:42:23Z</time>
      </trkpt>
      <trkpt lat="43.67304" lon="6.03706">
        <ele>666.40002441406</ele>
        <time>2021-05-23T09:42:24Z</time>
      </trkpt>
      <trkpt lat="43.67306" lon="6.03703">
        <ele>666.40002441406</ele>
        <time>2021-05-23T09:42:25Z</time>
      </trkpt>
      <trkpt lat="43.67309" lon="6.03701">
        <ele>666.40002441406</ele>
        <time>2021-05-23T09:42:26Z</time>
      </trkpt>
      <trkpt lat="43.67312" lon="6.03699">
        <ele>666.40002441406</ele>
        <time>2021-05-23T09:42:27Z</time>
      </trkpt>
      <trkpt lat="43.67315" lon="6.03697">
        <ele>666.20001220703</ele>
        <time>2021-05-23T09:42:28Z</time>
      </trkpt>
      <trkpt lat="43.67318" lon="6.03695">
        <ele>666.20001220703</ele>
        <time>2021-05-23T09:42:29Z</time>
      </trkpt>
      <trkpt lat="43.67321" lon="6.03693">
        <ele>666.20001220703</ele>
        <time>2021-05-23T09:42:30Z</time>
      </trkpt>
      <trkpt lat="43.67324" lon="6.0369">
        <ele>666</ele>
        <time>2021-05-23T09:42:31Z</time>
      </trkpt>
      <trkpt lat="43.67328" lon="6.03688">
        <ele>665.79998779297</ele>
        <time>2021-05-23T09:42:32Z</time>
      </trkpt>
      <trkpt lat="43.67331" lon="6.03686">
        <ele>665.79998779297</ele>
        <time>2021-05-23T09:42:33Z</time>
      </trkpt>
      <trkpt lat="43.67334" lon="6.03684">
        <ele>665.79998779297</ele>
        <time>2021-05-23T09:42:34Z</time>
      </trkpt>
      <trkpt lat="43.67337" lon="6.03682">
        <ele>665.79998779297</ele>
        <time>2021-05-23T09:42:35Z</time>
      </trkpt>
      <trkpt lat="43.67341" lon="6.03679">
        <ele>665.59997558594</ele>
        <time>2021-05-23T09:42:36Z</time>
      </trkpt>
      <trkpt lat="43.67344" lon="6.03677">
        <ele>665.59997558594</ele>
        <time>2021-05-23T09:42:37Z</time>
      </trkpt>
      <trkpt lat="43.67348" lon="6.03675">
        <ele>665.20001220703</ele>
        <time>2021-05-23T09:42:38Z</time>
      </trkpt>
      <trkpt lat="43.67352" lon="6.03672">
        <ele>665.40002441406</ele>
        <time>2021-05-23T09:42:39Z</time>
      </trkpt>
      <trkpt lat="43.67356" lon="6.0367">
        <ele>665.20001220703</ele>
        <time>2021-05-23T09:42:40Z</time>
      </trkpt>
      <trkpt lat="43.67359" lon="6.03667">
        <ele>665.20001220703</ele>
        <time>2021-05-23T09:42:41Z</time>
      </trkpt>
      <trkpt lat="43.67363" lon="6.03664">
        <ele>665</ele>
        <time>2021-05-23T09:42:42Z</time>
      </trkpt>
      <trkpt lat="43.67367" lon="6.03662">
        <ele>665</ele>
        <time>2021-05-23T09:42:43Z</time>
      </trkpt>
      <trkpt lat="43.6737" lon="6.03659">
        <ele>665</ele>
        <time>2021-05-23T09:42:44Z</time>
      </trkpt>
      <trkpt lat="43.67374" lon="6.03656">
        <ele>665</ele>
        <time>2021-05-23T09:42:45Z</time>
      </trkpt>
      <trkpt lat="43.67377" lon="6.03654">
        <ele>665</ele>
        <time>2021-05-23T09:42:46Z</time>
      </trkpt>
      <trkpt lat="43.67381" lon="6.03652">
        <ele>665</ele>
        <time>2021-05-23T09:42:47Z</time>
      </trkpt>
      <trkpt lat="43.67384" lon="6.03649">
        <ele>664.79998779297</ele>
        <time>2021-05-23T09:42:48Z</time>
      </trkpt>
      <trkpt lat="43.67387" lon="6.03647">
        <ele>664.59997558594</ele>
        <time>2021-05-23T09:42:49Z</time>
      </trkpt>
      <trkpt lat="43.67391" lon="6.03645">
        <ele>664.40002441406</ele>
        <time>2021-05-23T09:42:50Z</time>
      </trkpt>
      <trkpt lat="43.67394" lon="6.03642">
        <ele>664.20001220703</ele>
        <time>2021-05-23T09:42:51Z</time>
      </trkpt>
      <trkpt lat="43.67397" lon="6.0364">
        <ele>664</ele>
        <time>2021-05-23T09:42:52Z</time>
      </trkpt>
      <trkpt lat="43.674" lon="6.03637">
        <ele>664</ele>
        <time>2021-05-23T09:42:53Z</time>
      </trkpt>
      <trkpt lat="43.67402" lon="6.03634">
        <ele>664</ele>
        <time>2021-05-23T09:42:54Z</time>
      </trkpt>
      <trkpt lat="43.67405" lon="6.03631">
        <ele>664</ele>
        <time>2021-05-23T09:42:55Z</time>
      </trkpt>
      <trkpt lat="43.67409" lon="6.03629">
        <ele>664</ele>
        <time>2021-05-23T09:42:56Z</time>
      </trkpt>
      <trkpt lat="43.67412" lon="6.03626">
        <ele>664</ele>
        <time>2021-05-23T09:42:57Z</time>
      </trkpt>
      <trkpt lat="43.67415" lon="6.03623">
        <ele>664</ele>
        <time>2021-05-23T09:42:58Z</time>
      </trkpt>
      <trkpt lat="43.67418" lon="6.03621">
        <ele>664</ele>
        <time>2021-05-23T09:42:59Z</time>
      </trkpt>
      <trkpt lat="43.67421" lon="6.03619">
        <ele>664</ele>
        <time>2021-05-23T09:43:00Z</time>
      </trkpt>
      <trkpt lat="43.67424" lon="6.03616">
        <ele>664</ele>
        <time>2021-05-23T09:43:01Z</time>
      </trkpt>
      <trkpt lat="43.67426" lon="6.03614">
        <ele>664</ele>
        <time>2021-05-23T09:43:02Z</time>
      </trkpt>
      <trkpt lat="43.67429" lon="6.03612">
        <ele>663.59997558594</ele>
        <time>2021-05-23T09:43:03Z</time>
      </trkpt>
      <trkpt lat="43.67432" lon="6.0361">
        <ele>663.40002441406</ele>
        <time>2021-05-23T09:43:04Z</time>
      </trkpt>
      <trkpt lat="43.67435" lon="6.03607">
        <ele>663.20001220703</ele>
        <time>2021-05-23T09:43:05Z</time>
      </trkpt>
      <trkpt lat="43.67438" lon="6.03605">
        <ele>663</ele>
        <time>2021-05-23T09:43:06Z</time>
      </trkpt>
      <trkpt lat="43.67442" lon="6.03602">
        <ele>663</ele>
        <time>2021-05-23T09:43:07Z</time>
      </trkpt>
      <trkpt lat="43.67445" lon="6.036">
        <ele>663</ele>
        <time>2021-05-23T09:43:08Z</time>
      </trkpt>
      <trkpt lat="43.67448" lon="6.03597">
        <ele>663</ele>
        <time>2021-05-23T09:43:09Z</time>
      </trkpt>
      <trkpt lat="43.67452" lon="6.03594">
        <ele>663</ele>
        <time>2021-05-23T09:43:10Z</time>
      </trkpt>
      <trkpt lat="43.67455" lon="6.03591">
        <ele>662.79998779297</ele>
        <time>2021-05-23T09:43:11Z</time>
      </trkpt>
      <trkpt lat="43.67459" lon="6.03589">
        <ele>662.40002441406</ele>
        <time>2021-05-23T09:43:12Z</time>
      </trkpt>
      <trkpt lat="43.67462" lon="6.03586">
        <ele>662.20001220703</ele>
        <time>2021-05-23T09:43:13Z</time>
      </trkpt>
      <trkpt lat="43.67465" lon="6.03584">
        <ele>662.20001220703</ele>
        <time>2021-05-23T09:43:14Z</time>
      </trkpt>
      <trkpt lat="43.67469" lon="6.03581">
        <ele>662</ele>
        <time>2021-05-23T09:43:15Z</time>
      </trkpt>
      <trkpt lat="43.67472" lon="6.03578">
        <ele>662.40002441406</ele>
        <time>2021-05-23T09:43:16Z</time>
      </trkpt>
      <trkpt lat="43.67475" lon="6.03575">
        <ele>662.40002441406</ele>
        <time>2021-05-23T09:43:17Z</time>
      </trkpt>
      <trkpt lat="43.67478" lon="6.03572">
        <ele>662.40002441406</ele>
        <time>2021-05-23T09:43:18Z</time>
      </trkpt>
      <trkpt lat="43.67481" lon="6.0357">
        <ele>662.40002441406</ele>
        <time>2021-05-23T09:43:19Z</time>
      </trkpt>
      <trkpt lat="43.67484" lon="6.03567">
        <ele>662.40002441406</ele>
        <time>2021-05-23T09:43:20Z</time>
      </trkpt>
      <trkpt lat="43.67487" lon="6.03564">
        <ele>662.20001220703</ele>
        <time>2021-05-23T09:43:21Z</time>
      </trkpt>
      <trkpt lat="43.67489" lon="6.03562">
        <ele>662</ele>
        <time>2021-05-23T09:43:22Z</time>
      </trkpt>
      <trkpt lat="43.67492" lon="6.03559">
        <ele>661.59997558594</ele>
        <time>2021-05-23T09:43:23Z</time>
      </trkpt>
      <trkpt lat="43.67496" lon="6.03557">
        <ele>661.40002441406</ele>
        <time>2021-05-23T09:43:24Z</time>
      </trkpt>
      <trkpt lat="43.67499" lon="6.03554">
        <ele>661.40002441406</ele>
        <time>2021-05-23T09:43:25Z</time>
      </trkpt>
      <trkpt lat="43.67502" lon="6.03553">
        <ele>661.40002441406</ele>
        <time>2021-05-23T09:43:26Z</time>
      </trkpt>
      <trkpt lat="43.67505" lon="6.0355">
        <ele>661.40002441406</ele>
        <time>2021-05-23T09:43:27Z</time>
      </trkpt>
      <trkpt lat="43.67508" lon="6.03548">
        <ele>661.40002441406</ele>
        <time>2021-05-23T09:43:28Z</time>
      </trkpt>
      <trkpt lat="43.67511" lon="6.03546">
        <ele>661.20001220703</ele>
        <time>2021-05-23T09:43:29Z</time>
      </trkpt>
      <trkpt lat="43.67514" lon="6.03544">
        <ele>661</ele>
        <time>2021-05-23T09:43:30Z</time>
      </trkpt>
      <trkpt lat="43.67518" lon="6.03542">
        <ele>661</ele>
        <time>2021-05-23T09:43:31Z</time>
      </trkpt>
      <trkpt lat="43.67521" lon="6.0354">
        <ele>660.79998779297</ele>
        <time>2021-05-23T09:43:32Z</time>
      </trkpt>
      <trkpt lat="43.67524" lon="6.03538">
        <ele>660.79998779297</ele>
        <time>2021-05-23T09:43:33Z</time>
      </trkpt>
      <trkpt lat="43.67528" lon="6.03536">
        <ele>660.59997558594</ele>
        <time>2021-05-23T09:43:34Z</time>
      </trkpt>
      <trkpt lat="43.67531" lon="6.03534">
        <ele>660.59997558594</ele>
        <time>2021-05-23T09:43:35Z</time>
      </trkpt>
      <trkpt lat="43.67534" lon="6.03533">
        <ele>660.59997558594</ele>
        <time>2021-05-23T09:43:36Z</time>
      </trkpt>
      <trkpt lat="43.67537" lon="6.03531">
        <ele>660.40002441406</ele>
        <time>2021-05-23T09:43:37Z</time>
      </trkpt>
      <trkpt lat="43.6754" lon="6.03529">
        <ele>660.40002441406</ele>
        <time>2021-05-23T09:43:38Z</time>
      </trkpt>
      <trkpt lat="43.67543" lon="6.03527">
        <ele>660.40002441406</ele>
        <time>2021-05-23T09:43:39Z</time>
      </trkpt>
      <trkpt lat="43.67546" lon="6.03525">
        <ele>660.20001220703</ele>
        <time>2021-05-23T09:43:40Z</time>
      </trkpt>
      <trkpt lat="43.67549" lon="6.03523">
        <ele>660.20001220703</ele>
        <time>2021-05-23T09:43:41Z</time>
      </trkpt>
      <trkpt lat="43.67552" lon="6.03521">
        <ele>660.20001220703</ele>
        <time>2021-05-23T09:43:42Z</time>
      </trkpt>
      <trkpt lat="43.67555" lon="6.03519">
        <ele>660</ele>
        <time>2021-05-23T09:43:43Z</time>
      </trkpt>
      <trkpt lat="43.67558" lon="6.03518">
        <ele>660</ele>
        <time>2021-05-23T09:43:44Z</time>
      </trkpt>
      <trkpt lat="43.67561" lon="6.03516">
        <ele>659.79998779297</ele>
        <time>2021-05-23T09:43:45Z</time>
      </trkpt>
      <trkpt lat="43.67564" lon="6.03514">
        <ele>659.79998779297</ele>
        <time>2021-05-23T09:43:46Z</time>
      </trkpt>
      <trkpt lat="43.67568" lon="6.03511">
        <ele>659.79998779297</ele>
        <time>2021-05-23T09:43:47Z</time>
      </trkpt>
      <trkpt lat="43.67571" lon="6.03509">
        <ele>659.59997558594</ele>
        <time>2021-05-23T09:43:48Z</time>
      </trkpt>
      <trkpt lat="43.67574" lon="6.03507">
        <ele>659.59997558594</ele>
        <time>2021-05-23T09:43:49Z</time>
      </trkpt>
      <trkpt lat="43.67577" lon="6.03505">
        <ele>659.40002441406</ele>
        <time>2021-05-23T09:43:50Z</time>
      </trkpt>
      <trkpt lat="43.6758" lon="6.03503">
        <ele>659.40002441406</ele>
        <time>2021-05-23T09:43:51Z</time>
      </trkpt>
      <trkpt lat="43.67583" lon="6.03501">
        <ele>659.40002441406</ele>
        <time>2021-05-23T09:43:52Z</time>
      </trkpt>
      <trkpt lat="43.67586" lon="6.035">
        <ele>659.40002441406</ele>
        <time>2021-05-23T09:43:53Z</time>
      </trkpt>
      <trkpt lat="43.67589" lon="6.03498">
        <ele>659.40002441406</ele>
        <time>2021-05-23T09:43:54Z</time>
      </trkpt>
      <trkpt lat="43.67592" lon="6.03496">
        <ele>659.40002441406</ele>
        <time>2021-05-23T09:43:55Z</time>
      </trkpt>
      <trkpt lat="43.67595" lon="6.03494">
        <ele>659.20001220703</ele>
        <time>2021-05-23T09:43:56Z</time>
      </trkpt>
      <trkpt lat="43.67598" lon="6.03493">
        <ele>659.20001220703</ele>
        <time>2021-05-23T09:43:57Z</time>
      </trkpt>
      <trkpt lat="43.67601" lon="6.03491">
        <ele>659</ele>
        <time>2021-05-23T09:43:58Z</time>
      </trkpt>
      <trkpt lat="43.67605" lon="6.03489">
        <ele>658.79998779297</ele>
        <time>2021-05-23T09:43:59Z</time>
      </trkpt>
      <trkpt lat="43.67608" lon="6.03487">
        <ele>658.59997558594</ele>
        <time>2021-05-23T09:44:00Z</time>
      </trkpt>
      <trkpt lat="43.67612" lon="6.03485">
        <ele>658.79998779297</ele>
        <time>2021-05-23T09:44:01Z</time>
      </trkpt>
      <trkpt lat="43.67615" lon="6.03483">
        <ele>658.79998779297</ele>
        <time>2021-05-23T09:44:02Z</time>
      </trkpt>
      <trkpt lat="43.67618" lon="6.03481">
        <ele>659</ele>
        <time>2021-05-23T09:44:03Z</time>
      </trkpt>
      <trkpt lat="43.67621" lon="6.03479">
        <ele>659</ele>
        <time>2021-05-23T09:44:04Z</time>
      </trkpt>
      <trkpt lat="43.67624" lon="6.03477">
        <ele>659</ele>
        <time>2021-05-23T09:44:05Z</time>
      </trkpt>
      <trkpt lat="43.67627" lon="6.03475">
        <ele>659</ele>
        <time>2021-05-23T09:44:06Z</time>
      </trkpt>
      <trkpt lat="43.6763" lon="6.03473">
        <ele>659</ele>
        <time>2021-05-23T09:44:07Z</time>
      </trkpt>
      <trkpt lat="43.67633" lon="6.03471">
        <ele>659</ele>
        <time>2021-05-23T09:44:08Z</time>
      </trkpt>
      <trkpt lat="43.67636" lon="6.0347">
        <ele>659</ele>
        <time>2021-05-23T09:44:09Z</time>
      </trkpt>
      <trkpt lat="43.67639" lon="6.03468">
        <ele>659</ele>
        <time>2021-05-23T09:44:10Z</time>
      </trkpt>
      <trkpt lat="43.67642" lon="6.03466">
        <ele>659</ele>
        <time>2021-05-23T09:44:11Z</time>
      </trkpt>
      <trkpt lat="43.67645" lon="6.03464">
        <ele>659</ele>
        <time>2021-05-23T09:44:12Z</time>
      </trkpt>
      <trkpt lat="43.67648" lon="6.03462">
        <ele>659</ele>
        <time>2021-05-23T09:44:13Z</time>
      </trkpt>
      <trkpt lat="43.67652" lon="6.0346">
        <ele>659.20001220703</ele>
        <time>2021-05-23T09:44:14Z</time>
      </trkpt>
      <trkpt lat="43.67655" lon="6.03459">
        <ele>659.20001220703</ele>
        <time>2021-05-23T09:44:15Z</time>
      </trkpt>
      <trkpt lat="43.67658" lon="6.03457">
        <ele>659.20001220703</ele>
        <time>2021-05-23T09:44:16Z</time>
      </trkpt>
      <trkpt lat="43.67661" lon="6.03455">
        <ele>659.40002441406</ele>
        <time>2021-05-23T09:44:17Z</time>
      </trkpt>
      <trkpt lat="43.67664" lon="6.03453">
        <ele>659.40002441406</ele>
        <time>2021-05-23T09:44:18Z</time>
      </trkpt>
      <trkpt lat="43.67666" lon="6.03452">
        <ele>659.40002441406</ele>
        <time>2021-05-23T09:44:19Z</time>
      </trkpt>
      <trkpt lat="43.67669" lon="6.0345">
        <ele>659.20001220703</ele>
        <time>2021-05-23T09:44:20Z</time>
      </trkpt>
      <trkpt lat="43.67671" lon="6.03448">
        <ele>659.40002441406</ele>
        <time>2021-05-23T09:44:21Z</time>
      </trkpt>
      <trkpt lat="43.67672" lon="6.03445">
        <ele>659.20001220703</ele>
        <time>2021-05-23T09:44:22Z</time>
      </trkpt>
      <trkpt lat="43.67674" lon="6.03442">
        <ele>659.20001220703</ele>
        <time>2021-05-23T09:44:23Z</time>
      </trkpt>
      <trkpt lat="43.67674" lon="6.03438">
        <ele>659.20001220703</ele>
        <time>2021-05-23T09:44:24Z</time>
      </trkpt>
      <trkpt lat="43.67674" lon="6.03435">
        <ele>659.40002441406</ele>
        <time>2021-05-23T09:44:25Z</time>
      </trkpt>
      <trkpt lat="43.67673" lon="6.03432">
        <ele>659.79998779297</ele>
        <time>2021-05-23T09:44:26Z</time>
      </trkpt>
      <trkpt lat="43.67671" lon="6.0343">
        <ele>660</ele>
        <time>2021-05-23T09:44:27Z</time>
      </trkpt>
      <trkpt lat="43.6767" lon="6.03427">
        <ele>660.20001220703</ele>
        <time>2021-05-23T09:44:28Z</time>
      </trkpt>
      <trkpt lat="43.67668" lon="6.03424">
        <ele>660.20001220703</ele>
        <time>2021-05-23T09:44:29Z</time>
      </trkpt>
      <trkpt lat="43.67667" lon="6.0342">
        <ele>660.20001220703</ele>
        <time>2021-05-23T09:44:30Z</time>
      </trkpt>
      <trkpt lat="43.67666" lon="6.03417">
        <ele>660.59997558594</ele>
        <time>2021-05-23T09:44:31Z</time>
      </trkpt>
      <trkpt lat="43.67665" lon="6.03414">
        <ele>660.59997558594</ele>
        <time>2021-05-23T09:44:32Z</time>
      </trkpt>
      <trkpt lat="43.67664" lon="6.0341">
        <ele>660.59997558594</ele>
        <time>2021-05-23T09:44:33Z</time>
      </trkpt>
      <trkpt lat="43.67662" lon="6.03407">
        <ele>660.59997558594</ele>
        <time>2021-05-23T09:44:34Z</time>
      </trkpt>
      <trkpt lat="43.67661" lon="6.03404">
        <ele>660.79998779297</ele>
        <time>2021-05-23T09:44:35Z</time>
      </trkpt>
      <trkpt lat="43.6766" lon="6.034">
        <ele>660.79998779297</ele>
        <time>2021-05-23T09:44:36Z</time>
      </trkpt>
      <trkpt lat="43.67659" lon="6.03396">
        <ele>661</ele>
        <time>2021-05-23T09:44:37Z</time>
      </trkpt>
      <trkpt lat="43.67658" lon="6.03393">
        <ele>661</ele>
        <time>2021-05-23T09:44:38Z</time>
      </trkpt>
      <trkpt lat="43.67656" lon="6.0339">
        <ele>661</ele>
        <time>2021-05-23T09:44:39Z</time>
      </trkpt>
      <trkpt lat="43.67655" lon="6.03386">
        <ele>661.20001220703</ele>
        <time>2021-05-23T09:44:40Z</time>
      </trkpt>
      <trkpt lat="43.67653" lon="6.03383">
        <ele>661.59997558594</ele>
        <time>2021-05-23T09:44:41Z</time>
      </trkpt>
      <trkpt lat="43.67651" lon="6.0338">
        <ele>661.79998779297</ele>
        <time>2021-05-23T09:44:42Z</time>
      </trkpt>
      <trkpt lat="43.6765" lon="6.03377">
        <ele>661.79998779297</ele>
        <time>2021-05-23T09:44:43Z</time>
      </trkpt>
      <trkpt lat="43.67648" lon="6.03374">
        <ele>662</ele>
        <time>2021-05-23T09:44:44Z</time>
      </trkpt>
      <trkpt lat="43.67646" lon="6.03371">
        <ele>662</ele>
        <time>2021-05-23T09:44:45Z</time>
      </trkpt>
      <trkpt lat="43.67644" lon="6.03368">
        <ele>662</ele>
        <time>2021-05-23T09:44:46Z</time>
      </trkpt>
      <trkpt lat="43.67642" lon="6.03365">
        <ele>662</ele>
        <time>2021-05-23T09:44:47Z</time>
      </trkpt>
      <trkpt lat="43.6764" lon="6.03362">
        <ele>662.20001220703</ele>
        <time>2021-05-23T09:44:48Z</time>
      </trkpt>
      <trkpt lat="43.67637" lon="6.03359">
        <ele>662.20001220703</ele>
        <time>2021-05-23T09:44:49Z</time>
      </trkpt>
      <trkpt lat="43.67635" lon="6.03357">
        <ele>662.40002441406</ele>
        <time>2021-05-23T09:44:50Z</time>
      </trkpt>
      <trkpt lat="43.67633" lon="6.03354">
        <ele>662.59997558594</ele>
        <time>2021-05-23T09:44:51Z</time>
      </trkpt>
      <trkpt lat="43.67631" lon="6.03351">
        <ele>662.59997558594</ele>
        <time>2021-05-23T09:44:52Z</time>
      </trkpt>
      <trkpt lat="43.67628" lon="6.03349">
        <ele>662.79998779297</ele>
        <time>2021-05-23T09:44:53Z</time>
      </trkpt>
      <trkpt lat="43.67626" lon="6.03346">
        <ele>662.79998779297</ele>
        <time>2021-05-23T09:44:54Z</time>
      </trkpt>
      <trkpt lat="43.67623" lon="6.03344">
        <ele>663</ele>
        <time>2021-05-23T09:44:55Z</time>
      </trkpt>
      <trkpt lat="43.67621" lon="6.03341">
        <ele>663</ele>
        <time>2021-05-23T09:44:56Z</time>
      </trkpt>
      <trkpt lat="43.67619" lon="6.03338">
        <ele>663.20001220703</ele>
        <time>2021-05-23T09:44:57Z</time>
      </trkpt>
      <trkpt lat="43.67616" lon="6.03336">
        <ele>663.40002441406</ele>
        <time>2021-05-23T09:44:58Z</time>
      </trkpt>
      <trkpt lat="43.67614" lon="6.03333">
        <ele>663.59997558594</ele>
        <time>2021-05-23T09:44:59Z</time>
      </trkpt>
      <trkpt lat="43.67611" lon="6.0333">
        <ele>663.59997558594</ele>
        <time>2021-05-23T09:45:00Z</time>
      </trkpt>
      <trkpt lat="43.67609" lon="6.03327">
        <ele>663.59997558594</ele>
        <time>2021-05-23T09:45:01Z</time>
      </trkpt>
      <trkpt lat="43.67607" lon="6.03325">
        <ele>663.59997558594</ele>
        <time>2021-05-23T09:45:02Z</time>
      </trkpt>
      <trkpt lat="43.67604" lon="6.03322">
        <ele>663.59997558594</ele>
        <time>2021-05-23T09:45:03Z</time>
      </trkpt>
      <trkpt lat="43.67602" lon="6.03319">
        <ele>663.59997558594</ele>
        <time>2021-05-23T09:45:04Z</time>
      </trkpt>
      <trkpt lat="43.676" lon="6.03316">
        <ele>663.40002441406</ele>
        <time>2021-05-23T09:45:05Z</time>
      </trkpt>
      <trkpt lat="43.67597" lon="6.03313">
        <ele>663.40002441406</ele>
        <time>2021-05-23T09:45:06Z</time>
      </trkpt>
      <trkpt lat="43.67595" lon="6.0331">
        <ele>663.40002441406</ele>
        <time>2021-05-23T09:45:07Z</time>
      </trkpt>
      <trkpt lat="43.67592" lon="6.03308">
        <ele>663.59997558594</ele>
        <time>2021-05-23T09:45:08Z</time>
      </trkpt>
      <trkpt lat="43.6759" lon="6.03305">
        <ele>663.59997558594</ele>
        <time>2021-05-23T09:45:09Z</time>
      </trkpt>
      <trkpt lat="43.67588" lon="6.03302">
        <ele>663.59997558594</ele>
        <time>2021-05-23T09:45:10Z</time>
      </trkpt>
      <trkpt lat="43.67585" lon="6.03299">
        <ele>663.59997558594</ele>
        <time>2021-05-23T09:45:11Z</time>
      </trkpt>
      <trkpt lat="43.67583" lon="6.03297">
        <ele>663.59997558594</ele>
        <time>2021-05-23T09:45:12Z</time>
      </trkpt>
      <trkpt lat="43.6758" lon="6.03293">
        <ele>663.79998779297</ele>
        <time>2021-05-23T09:45:13Z</time>
      </trkpt>
      <trkpt lat="43.67578" lon="6.03291">
        <ele>663.59997558594</ele>
        <time>2021-05-23T09:45:14Z</time>
      </trkpt>
      <trkpt lat="43.67575" lon="6.03288">
        <ele>663.59997558594</ele>
        <time>2021-05-23T09:45:15Z</time>
      </trkpt>
      <trkpt lat="43.67573" lon="6.03285">
        <ele>663.59997558594</ele>
        <time>2021-05-23T09:45:16Z</time>
      </trkpt>
      <trkpt lat="43.67571" lon="6.03282">
        <ele>663.79998779297</ele>
        <time>2021-05-23T09:45:17Z</time>
      </trkpt>
      <trkpt lat="43.67569" lon="6.03279">
        <ele>664</ele>
        <time>2021-05-23T09:45:18Z</time>
      </trkpt>
      <trkpt lat="43.67567" lon="6.03277">
        <ele>664.20001220703</ele>
        <time>2021-05-23T09:45:19Z</time>
      </trkpt>
      <trkpt lat="43.67564" lon="6.03274">
        <ele>664.20001220703</ele>
        <time>2021-05-23T09:45:20Z</time>
      </trkpt>
      <trkpt lat="43.67562" lon="6.03271">
        <ele>664.40002441406</ele>
        <time>2021-05-23T09:45:21Z</time>
      </trkpt>
      <trkpt lat="43.6756" lon="6.03269">
        <ele>664.40002441406</ele>
        <time>2021-05-23T09:45:22Z</time>
      </trkpt>
      <trkpt lat="43.67558" lon="6.03266">
        <ele>664.40002441406</ele>
        <time>2021-05-23T09:45:23Z</time>
      </trkpt>
      <trkpt lat="43.67555" lon="6.03264">
        <ele>664.40002441406</ele>
        <time>2021-05-23T09:45:24Z</time>
      </trkpt>
      <trkpt lat="43.67553" lon="6.03261">
        <ele>664.40002441406</ele>
        <time>2021-05-23T09:45:25Z</time>
      </trkpt>
      <trkpt lat="43.67551" lon="6.03258">
        <ele>664.20001220703</ele>
        <time>2021-05-23T09:45:26Z</time>
      </trkpt>
      <trkpt lat="43.67548" lon="6.03256">
        <ele>664.20001220703</ele>
        <time>2021-05-23T09:45:27Z</time>
      </trkpt>
      <trkpt lat="43.67546" lon="6.03253">
        <ele>664.20001220703</ele>
        <time>2021-05-23T09:45:28Z</time>
      </trkpt>
      <trkpt lat="43.67543" lon="6.0325">
        <ele>664.20001220703</ele>
        <time>2021-05-23T09:45:29Z</time>
      </trkpt>
      <trkpt lat="43.67541" lon="6.03247">
        <ele>664.20001220703</ele>
        <time>2021-05-23T09:45:30Z</time>
      </trkpt>
      <trkpt lat="43.67539" lon="6.03245">
        <ele>664.20001220703</ele>
        <time>2021-05-23T09:45:31Z</time>
      </trkpt>
      <trkpt lat="43.67536" lon="6.03242">
        <ele>664.40002441406</ele>
        <time>2021-05-23T09:45:32Z</time>
      </trkpt>
      <trkpt lat="43.67534" lon="6.03238">
        <ele>664.40002441406</ele>
        <time>2021-05-23T09:45:33Z</time>
      </trkpt>
      <trkpt lat="43.67532" lon="6.03236">
        <ele>664.40002441406</ele>
        <time>2021-05-23T09:45:34Z</time>
      </trkpt>
      <trkpt lat="43.6753" lon="6.03233">
        <ele>664.40002441406</ele>
        <time>2021-05-23T09:45:35Z</time>
      </trkpt>
      <trkpt lat="43.67527" lon="6.0323">
        <ele>664.20001220703</ele>
        <time>2021-05-23T09:45:36Z</time>
      </trkpt>
      <trkpt lat="43.67525" lon="6.03228">
        <ele>664.20001220703</ele>
        <time>2021-05-23T09:45:37Z</time>
      </trkpt>
      <trkpt lat="43.67522" lon="6.03225">
        <ele>664.20001220703</ele>
        <time>2021-05-23T09:45:38Z</time>
      </trkpt>
      <trkpt lat="43.6752" lon="6.03223">
        <ele>664.20001220703</ele>
        <time>2021-05-23T09:45:39Z</time>
      </trkpt>
      <trkpt lat="43.67517" lon="6.0322">
        <ele>664.20001220703</ele>
        <time>2021-05-23T09:45:40Z</time>
      </trkpt>
      <trkpt lat="43.67514" lon="6.03218">
        <ele>664.20001220703</ele>
        <time>2021-05-23T09:45:41Z</time>
      </trkpt>
      <trkpt lat="43.67512" lon="6.03215">
        <ele>664.20001220703</ele>
        <time>2021-05-23T09:45:42Z</time>
      </trkpt>
      <trkpt lat="43.6751" lon="6.03212">
        <ele>664.40002441406</ele>
        <time>2021-05-23T09:45:43Z</time>
      </trkpt>
      <trkpt lat="43.67507" lon="6.0321">
        <ele>664.20001220703</ele>
        <time>2021-05-23T09:45:44Z</time>
      </trkpt>
      <trkpt lat="43.67505" lon="6.03207">
        <ele>664.20001220703</ele>
        <time>2021-05-23T09:45:45Z</time>
      </trkpt>
      <trkpt lat="43.67502" lon="6.03204">
        <ele>664</ele>
        <time>2021-05-23T09:45:46Z</time>
      </trkpt>
      <trkpt lat="43.675" lon="6.03201">
        <ele>664.20001220703</ele>
        <time>2021-05-23T09:45:47Z</time>
      </trkpt>
      <trkpt lat="43.67498" lon="6.03199">
        <ele>664.20001220703</ele>
        <time>2021-05-23T09:45:48Z</time>
      </trkpt>
      <trkpt lat="43.67495" lon="6.03197">
        <ele>664.20001220703</ele>
        <time>2021-05-23T09:45:49Z</time>
      </trkpt>
      <trkpt lat="43.67494" lon="6.03196">
        <ele>664</ele>
        <time>2021-05-23T09:45:50Z</time>
      </trkpt>
      <trkpt lat="43.67493" lon="6.03195">
        <ele>664</ele>
        <time>2021-05-23T09:45:51Z</time>
      </trkpt>
      <trkpt lat="43.67493" lon="6.03195">
        <ele>664</ele>
        <time>2021-05-23T09:45:52Z</time>
      </trkpt>
      <trkpt lat="43.67492" lon="6.03195">
        <ele>664</ele>
        <time>2021-05-23T09:45:53Z</time>
      </trkpt>
      <trkpt lat="43.67492" lon="6.03195">
        <ele>664</ele>
        <time>2021-05-23T09:45:54Z</time>
      </trkpt>
      <trkpt lat="43.67492" lon="6.03195">
        <ele>663.79998779297</ele>
        <time>2021-05-23T09:45:55Z</time>
      </trkpt>
      <trkpt lat="43.67492" lon="6.03195">
        <ele>663.79998779297</ele>
        <time>2021-05-23T09:45:56Z</time>
      </trkpt>
      <trkpt lat="43.67492" lon="6.03195">
        <ele>663.79998779297</ele>
        <time>2021-05-23T09:45:57Z</time>
      </trkpt>
      <trkpt lat="43.67492" lon="6.03195">
        <ele>663.79998779297</ele>
        <time>2021-05-23T09:45:58Z</time>
      </trkpt>
      <trkpt lat="43.67492" lon="6.03195">
        <ele>663.79998779297</ele>
        <time>2021-05-23T09:45:59Z</time>
      </trkpt>
      <trkpt lat="43.67492" lon="6.03195">
        <ele>663.79998779297</ele>
        <time>2021-05-23T09:46:00Z</time>
      </trkpt>
      <trkpt lat="43.67492" lon="6.03195">
        <ele>663.79998779297</ele>
        <time>2021-05-23T09:46:01Z</time>
      </trkpt>
      <trkpt lat="43.67492" lon="6.03195">
        <ele>663.79998779297</ele>
        <time>2021-05-23T09:46:02Z</time>
      </trkpt>
      <trkpt lat="43.67492" lon="6.03195">
        <ele>663.79998779297</ele>
        <time>2021-05-23T09:46:03Z</time>
      </trkpt>
      <trkpt lat="43.67492" lon="6.03195">
        <ele>663.79998779297</ele>
        <time>2021-05-23T09:46:04Z</time>
      </trkpt>
      <trkpt lat="43.67492" lon="6.03195">
        <ele>663.79998779297</ele>
        <time>2021-05-23T09:46:05Z</time>
      </trkpt>
      <trkpt lat="43.67492" lon="6.03195">
        <ele>663.79998779297</ele>
        <time>2021-05-23T09:46:06Z</time>
      </trkpt>
      <trkpt lat="43.67492" lon="6.03195">
        <ele>664</ele>
        <time>2021-05-23T09:46:07Z</time>
      </trkpt>
      <trkpt lat="43.67492" lon="6.03195">
        <ele>664</ele>
        <time>2021-05-23T09:46:08Z</time>
      </trkpt>
      <trkpt lat="43.67492" lon="6.03195">
        <ele>664</ele>
        <time>2021-05-23T09:46:09Z</time>
      </trkpt>
      <trkpt lat="43.67492" lon="6.03195">
        <ele>664</ele>
        <time>2021-05-23T09:46:10Z</time>
      </trkpt>
      <trkpt lat="43.67492" lon="6.03195">
        <ele>664</ele>
        <time>2021-05-23T09:46:11Z</time>
      </trkpt>
      <trkpt lat="43.67492" lon="6.03195">
        <ele>664</ele>
        <time>2021-05-23T09:46:12Z</time>
      </trkpt>
      <trkpt lat="43.67492" lon="6.03195">
        <ele>664</ele>
        <time>2021-05-23T09:46:13Z</time>
      </trkpt>
      <trkpt lat="43.67492" lon="6.03195">
        <ele>664</ele>
        <time>2021-05-23T09:46:14Z</time>
      </trkpt>
      <trkpt lat="43.67492" lon="6.03195">
        <ele>664</ele>
        <time>2021-05-23T09:46:15Z</time>
      </trkpt>
      <trkpt lat="43.67492" lon="6.03195">
        <ele>664</ele>
        <time>2021-05-23T09:46:16Z</time>
      </trkpt>
      <trkpt lat="43.67492" lon="6.03195">
        <ele>664</ele>
        <time>2021-05-23T09:46:17Z</time>
      </trkpt>
      <trkpt lat="43.67492" lon="6.03195">
        <ele>664</ele>
        <time>2021-05-23T09:46:18Z</time>
      </trkpt>
      <trkpt lat="43.67492" lon="6.03195">
        <ele>664</ele>
        <time>2021-05-23T09:46:19Z</time>
      </trkpt>
      <trkpt lat="43.67492" lon="6.03195">
        <ele>663.79998779297</ele>
        <time>2021-05-23T09:46:20Z</time>
      </trkpt>
      <trkpt lat="43.67492" lon="6.03195">
        <ele>663.79998779297</ele>
        <time>2021-05-23T09:46:21Z</time>
      </trkpt>
      <trkpt lat="43.67492" lon="6.03195">
        <ele>663.79998779297</ele>
        <time>2021-05-23T09:46:22Z</time>
      </trkpt>
      <trkpt lat="43.67492" lon="6.03195">
        <ele>663.79998779297</ele>
        <time>2021-05-23T09:46:23Z</time>
      </trkpt>
      <trkpt lat="43.67492" lon="6.03195">
        <ele>663.79998779297</ele>
        <time>2021-05-23T09:46:24Z</time>
      </trkpt>
      <trkpt lat="43.67492" lon="6.03195">
        <ele>664</ele>
        <time>2021-05-23T09:46:25Z</time>
      </trkpt>
      <trkpt lat="43.67492" lon="6.03195">
        <ele>664</ele>
        <time>2021-05-23T09:46:26Z</time>
      </trkpt>
      <trkpt lat="43.67492" lon="6.03195">
        <ele>664</ele>
        <time>2021-05-23T09:46:27Z</time>
      </trkpt>
      <trkpt lat="43.67492" lon="6.03195">
        <ele>664</ele>
        <time>2021-05-23T09:46:28Z</time>
      </trkpt>
      <trkpt lat="43.67492" lon="6.03195">
        <ele>664</ele>
        <time>2021-05-23T09:46:29Z</time>
      </trkpt>
      <trkpt lat="43.67492" lon="6.03195">
        <ele>664</ele>
        <time>2021-05-23T09:46:30Z</time>
      </trkpt>
      <trkpt lat="43.67492" lon="6.03195">
        <ele>664</ele>
        <time>2021-05-23T09:46:31Z</time>
      </trkpt>
      <trkpt lat="43.67492" lon="6.03195">
        <ele>664</ele>
        <time>2021-05-23T09:46:32Z</time>
      </trkpt>
      <trkpt lat="43.67492" lon="6.03195">
        <ele>664</ele>
        <time>2021-05-23T09:46:33Z</time>
      </trkpt>
      <trkpt lat="43.67492" lon="6.03195">
        <ele>664</ele>
        <time>2021-05-23T09:46:34Z</time>
      </trkpt>
      <trkpt lat="43.67492" lon="6.03195">
        <ele>664</ele>
        <time>2021-05-23T09:46:35Z</time>
      </trkpt>
      <trkpt lat="43.67492" lon="6.03195">
        <ele>664</ele>
        <time>2021-05-23T09:46:36Z</time>
      </trkpt>
      <trkpt lat="43.67492" lon="6.03195">
        <ele>664</ele>
        <time>2021-05-23T09:46:37Z</time>
      </trkpt>
      <trkpt lat="43.67492" lon="6.03195">
        <ele>664</ele>
        <time>2021-05-23T09:46:38Z</time>
      </trkpt>
      <trkpt lat="43.67492" lon="6.03195">
        <ele>664</ele>
        <time>2021-05-23T09:46:39Z</time>
      </trkpt>
      <trkpt lat="43.67492" lon="6.03195">
        <ele>664</ele>
        <time>2021-05-23T09:46:40Z</time>
      </trkpt>
      <trkpt lat="43.67492" lon="6.03195">
        <ele>664</ele>
        <time>2021-05-23T09:46:41Z</time>
      </trkpt>
      <trkpt lat="43.67492" lon="6.03195">
        <ele>664</ele>
        <time>2021-05-23T09:46:42Z</time>
      </trkpt>
      <trkpt lat="43.67492" lon="6.03195">
        <ele>664.20001220703</ele>
        <time>2021-05-23T09:46:43Z</time>
      </trkpt>
      <trkpt lat="43.67492" lon="6.03195">
        <ele>664.20001220703</ele>
        <time>2021-05-23T09:46:44Z</time>
      </trkpt>
      <trkpt lat="43.67492" lon="6.03195">
        <ele>664.20001220703</ele>
        <time>2021-05-23T09:46:45Z</time>
      </trkpt>
      <trkpt lat="43.67492" lon="6.03195">
        <ele>664.20001220703</ele>
        <time>2021-05-23T09:46:46Z</time>
      </trkpt>
      <trkpt lat="43.67492" lon="6.03194">
        <ele>664.20001220703</ele>
        <time>2021-05-23T09:46:47Z</time>
      </trkpt>
      <trkpt lat="43.6749" lon="6.03192">
        <ele>664.20001220703</ele>
        <time>2021-05-23T09:46:48Z</time>
      </trkpt>
      <trkpt lat="43.67489" lon="6.0319">
        <ele>664.20001220703</ele>
        <time>2021-05-23T09:46:49Z</time>
      </trkpt>
      <trkpt lat="43.67487" lon="6.03188">
        <ele>664</ele>
        <time>2021-05-23T09:46:50Z</time>
      </trkpt>
      <trkpt lat="43.67485" lon="6.03186">
        <ele>664.20001220703</ele>
        <time>2021-05-23T09:46:51Z</time>
      </trkpt>
      <trkpt lat="43.67482" lon="6.03183">
        <ele>664</ele>
        <time>2021-05-23T09:46:52Z</time>
      </trkpt>
      <trkpt lat="43.6748" lon="6.03181">
        <ele>663.79998779297</ele>
        <time>2021-05-23T09:46:53Z</time>
      </trkpt>
      <trkpt lat="43.67478" lon="6.03178">
        <ele>663.59997558594</ele>
        <time>2021-05-23T09:46:54Z</time>
      </trkpt>
      <trkpt lat="43.67475" lon="6.03175">
        <ele>663.40002441406</ele>
        <time>2021-05-23T09:46:55Z</time>
      </trkpt>
      <trkpt lat="43.67473" lon="6.03172">
        <ele>663.20001220703</ele>
        <time>2021-05-23T09:46:56Z</time>
      </trkpt>
      <trkpt lat="43.67471" lon="6.03169">
        <ele>663</ele>
        <time>2021-05-23T09:46:57Z</time>
      </trkpt>
      <trkpt lat="43.67468" lon="6.03167">
        <ele>663</ele>
        <time>2021-05-23T09:46:58Z</time>
      </trkpt>
      <trkpt lat="43.67466" lon="6.03164">
        <ele>662.79998779297</ele>
        <time>2021-05-23T09:46:59Z</time>
      </trkpt>
      <trkpt lat="43.67464" lon="6.03161">
        <ele>662.79998779297</ele>
        <time>2021-05-23T09:47:00Z</time>
      </trkpt>
      <trkpt lat="43.67461" lon="6.03158">
        <ele>662.79998779297</ele>
        <time>2021-05-23T09:47:01Z</time>
      </trkpt>
      <trkpt lat="43.67459" lon="6.03155">
        <ele>662.59997558594</ele>
        <time>2021-05-23T09:47:02Z</time>
      </trkpt>
      <trkpt lat="43.67456" lon="6.03152">
        <ele>662.59997558594</ele>
        <time>2021-05-23T09:47:03Z</time>
      </trkpt>
      <trkpt lat="43.67453" lon="6.03148">
        <ele>662.40002441406</ele>
        <time>2021-05-23T09:47:04Z</time>
      </trkpt>
      <trkpt lat="43.67451" lon="6.03145">
        <ele>662.40002441406</ele>
        <time>2021-05-23T09:47:05Z</time>
      </trkpt>
      <trkpt lat="43.67448" lon="6.03141">
        <ele>662.20001220703</ele>
        <time>2021-05-23T09:47:06Z</time>
      </trkpt>
      <trkpt lat="43.67445" lon="6.03137">
        <ele>661.79998779297</ele>
        <time>2021-05-23T09:47:07Z</time>
      </trkpt>
      <trkpt lat="43.67442" lon="6.03133">
        <ele>661.59997558594</ele>
        <time>2021-05-23T09:47:08Z</time>
      </trkpt>
      <trkpt lat="43.67439" lon="6.03129">
        <ele>661.40002441406</ele>
        <time>2021-05-23T09:47:09Z</time>
      </trkpt>
      <trkpt lat="43.67435" lon="6.03125">
        <ele>661.20001220703</ele>
        <time>2021-05-23T09:47:10Z</time>
      </trkpt>
      <trkpt lat="43.67432" lon="6.03121">
        <ele>661</ele>
        <time>2021-05-23T09:47:11Z</time>
      </trkpt>
      <trkpt lat="43.67428" lon="6.03117">
        <ele>660.59997558594</ele>
        <time>2021-05-23T09:47:12Z</time>
      </trkpt>
      <trkpt lat="43.67425" lon="6.03112">
        <ele>660.20001220703</ele>
        <time>2021-05-23T09:47:13Z</time>
      </trkpt>
      <trkpt lat="43.67421" lon="6.03108">
        <ele>660</ele>
        <time>2021-05-23T09:47:14Z</time>
      </trkpt>
      <trkpt lat="43.67418" lon="6.03103">
        <ele>659.79998779297</ele>
        <time>2021-05-23T09:47:15Z</time>
      </trkpt>
      <trkpt lat="43.67414" lon="6.03099">
        <ele>659.40002441406</ele>
        <time>2021-05-23T09:47:16Z</time>
      </trkpt>
      <trkpt lat="43.67411" lon="6.03094">
        <ele>659.40002441406</ele>
        <time>2021-05-23T09:47:17Z</time>
      </trkpt>
      <trkpt lat="43.67407" lon="6.03089">
        <ele>659.20001220703</ele>
        <time>2021-05-23T09:47:18Z</time>
      </trkpt>
      <trkpt lat="43.67403" lon="6.03084">
        <ele>658.59997558594</ele>
        <time>2021-05-23T09:47:19Z</time>
      </trkpt>
      <trkpt lat="43.67399" lon="6.03079">
        <ele>658</ele>
        <time>2021-05-23T09:47:20Z</time>
      </trkpt>
      <trkpt lat="43.67395" lon="6.03074">
        <ele>657.59997558594</ele>
        <time>2021-05-23T09:47:21Z</time>
      </trkpt>
      <trkpt lat="43.67391" lon="6.03068">
        <ele>657.40002441406</ele>
        <time>2021-05-23T09:47:22Z</time>
      </trkpt>
      <trkpt lat="43.67387" lon="6.03063">
        <ele>657.20001220703</ele>
        <time>2021-05-23T09:47:23Z</time>
      </trkpt>
      <trkpt lat="43.67383" lon="6.03057">
        <ele>656.59997558594</ele>
        <time>2021-05-23T09:47:24Z</time>
      </trkpt>
      <trkpt lat="43.67378" lon="6.03052">
        <ele>656</ele>
        <time>2021-05-23T09:47:25Z</time>
      </trkpt>
      <trkpt lat="43.67374" lon="6.03046">
        <ele>655.79998779297</ele>
        <time>2021-05-23T09:47:26Z</time>
      </trkpt>
      <trkpt lat="43.6737" lon="6.03041">
        <ele>655.40002441406</ele>
        <time>2021-05-23T09:47:27Z</time>
      </trkpt>
      <trkpt lat="43.67367" lon="6.03035">
        <ele>655.20001220703</ele>
        <time>2021-05-23T09:47:28Z</time>
      </trkpt>
      <trkpt lat="43.67363" lon="6.03029">
        <ele>655.20001220703</ele>
        <time>2021-05-23T09:47:29Z</time>
      </trkpt>
      <trkpt lat="43.67358" lon="6.03023">
        <ele>654.79998779297</ele>
        <time>2021-05-23T09:47:30Z</time>
      </trkpt>
      <trkpt lat="43.67354" lon="6.03018">
        <ele>654.59997558594</ele>
        <time>2021-05-23T09:47:31Z</time>
      </trkpt>
      <trkpt lat="43.67349" lon="6.03012">
        <ele>654.40002441406</ele>
        <time>2021-05-23T09:47:32Z</time>
      </trkpt>
      <trkpt lat="43.67345" lon="6.03007">
        <ele>654.40002441406</ele>
        <time>2021-05-23T09:47:33Z</time>
      </trkpt>
      <trkpt lat="43.6734" lon="6.03001">
        <ele>654</ele>
        <time>2021-05-23T09:47:34Z</time>
      </trkpt>
      <trkpt lat="43.67335" lon="6.02995">
        <ele>653.79998779297</ele>
        <time>2021-05-23T09:47:35Z</time>
      </trkpt>
      <trkpt lat="43.67331" lon="6.0299">
        <ele>653.20001220703</ele>
        <time>2021-05-23T09:47:36Z</time>
      </trkpt>
      <trkpt lat="43.67326" lon="6.02984">
        <ele>652.79998779297</ele>
        <time>2021-05-23T09:47:37Z</time>
      </trkpt>
      <trkpt lat="43.67321" lon="6.02978">
        <ele>652.40002441406</ele>
        <time>2021-05-23T09:47:38Z</time>
      </trkpt>
      <trkpt lat="43.67317" lon="6.02973">
        <ele>652.40002441406</ele>
        <time>2021-05-23T09:47:39Z</time>
      </trkpt>
      <trkpt lat="43.67313" lon="6.02969">
        <ele>652.20001220703</ele>
        <time>2021-05-23T09:47:40Z</time>
      </trkpt>
      <trkpt lat="43.67309" lon="6.02965">
        <ele>652</ele>
        <time>2021-05-23T09:47:41Z</time>
      </trkpt>
      <trkpt lat="43.67306" lon="6.0296">
        <ele>651.59997558594</ele>
        <time>2021-05-23T09:47:42Z</time>
      </trkpt>
      <trkpt lat="43.67304" lon="6.02957">
        <ele>651.40002441406</ele>
        <time>2021-05-23T09:47:43Z</time>
      </trkpt>
      <trkpt lat="43.67301" lon="6.02954">
        <ele>651.20001220703</ele>
        <time>2021-05-23T09:47:44Z</time>
      </trkpt>
      <trkpt lat="43.67299" lon="6.02951">
        <ele>651.20001220703</ele>
        <time>2021-05-23T09:47:45Z</time>
      </trkpt>
      <trkpt lat="43.67297" lon="6.02948">
        <ele>651.40002441406</ele>
        <time>2021-05-23T09:47:46Z</time>
      </trkpt>
      <trkpt lat="43.67294" lon="6.02945">
        <ele>651.59997558594</ele>
        <time>2021-05-23T09:47:47Z</time>
      </trkpt>
      <trkpt lat="43.67291" lon="6.02941">
        <ele>651.79998779297</ele>
        <time>2021-05-23T09:47:48Z</time>
      </trkpt>
      <trkpt lat="43.67288" lon="6.02938">
        <ele>651.79998779297</ele>
        <time>2021-05-23T09:47:49Z</time>
      </trkpt>
      <trkpt lat="43.67286" lon="6.02934">
        <ele>651.79998779297</ele>
        <time>2021-05-23T09:47:50Z</time>
      </trkpt>
      <trkpt lat="43.67283" lon="6.02931">
        <ele>651.79998779297</ele>
        <time>2021-05-23T09:47:51Z</time>
      </trkpt>
      <trkpt lat="43.6728" lon="6.02927">
        <ele>652</ele>
        <time>2021-05-23T09:47:52Z</time>
      </trkpt>
      <trkpt lat="43.67277" lon="6.02923">
        <ele>652</ele>
        <time>2021-05-23T09:47:53Z</time>
      </trkpt>
      <trkpt lat="43.67274" lon="6.0292">
        <ele>652.20001220703</ele>
        <time>2021-05-23T09:47:54Z</time>
      </trkpt>
      <trkpt lat="43.67271" lon="6.02917">
        <ele>652.40002441406</ele>
        <time>2021-05-23T09:47:55Z</time>
      </trkpt>
      <trkpt lat="43.67268" lon="6.02913">
        <ele>652.79998779297</ele>
        <time>2021-05-23T09:47:56Z</time>
      </trkpt>
      <trkpt lat="43.67266" lon="6.0291">
        <ele>652.79998779297</ele>
        <time>2021-05-23T09:47:57Z</time>
      </trkpt>
      <trkpt lat="43.67263" lon="6.02906">
        <ele>652.79998779297</ele>
        <time>2021-05-23T09:47:58Z</time>
      </trkpt>
      <trkpt lat="43.6726" lon="6.02903">
        <ele>652.79998779297</ele>
        <time>2021-05-23T09:47:59Z</time>
      </trkpt>
      <trkpt lat="43.67257" lon="6.029">
        <ele>652.79998779297</ele>
        <time>2021-05-23T09:48:00Z</time>
      </trkpt>
      <trkpt lat="43.67255" lon="6.02897">
        <ele>652.79998779297</ele>
        <time>2021-05-23T09:48:01Z</time>
      </trkpt>
      <trkpt lat="43.67252" lon="6.02893">
        <ele>653.20001220703</ele>
        <time>2021-05-23T09:48:02Z</time>
      </trkpt>
      <trkpt lat="43.6725" lon="6.0289">
        <ele>653.20001220703</ele>
        <time>2021-05-23T09:48:03Z</time>
      </trkpt>
      <trkpt lat="43.67247" lon="6.02886">
        <ele>653.40002441406</ele>
        <time>2021-05-23T09:48:04Z</time>
      </trkpt>
      <trkpt lat="43.67245" lon="6.02883">
        <ele>653.20001220703</ele>
        <time>2021-05-23T09:48:05Z</time>
      </trkpt>
      <trkpt lat="43.67242" lon="6.02879">
        <ele>653.20001220703</ele>
        <time>2021-05-23T09:48:06Z</time>
      </trkpt>
      <trkpt lat="43.6724" lon="6.02876">
        <ele>653.20001220703</ele>
        <time>2021-05-23T09:48:07Z</time>
      </trkpt>
      <trkpt lat="43.67237" lon="6.02872">
        <ele>653.20001220703</ele>
        <time>2021-05-23T09:48:08Z</time>
      </trkpt>
      <trkpt lat="43.67234" lon="6.02869">
        <ele>653</ele>
        <time>2021-05-23T09:48:09Z</time>
      </trkpt>
      <trkpt lat="43.67232" lon="6.02866">
        <ele>653</ele>
        <time>2021-05-23T09:48:10Z</time>
      </trkpt>
      <trkpt lat="43.67229" lon="6.02862">
        <ele>653</ele>
        <time>2021-05-23T09:48:11Z</time>
      </trkpt>
      <trkpt lat="43.67226" lon="6.02859">
        <ele>652.79998779297</ele>
        <time>2021-05-23T09:48:12Z</time>
      </trkpt>
      <trkpt lat="43.67223" lon="6.02856">
        <ele>652.59997558594</ele>
        <time>2021-05-23T09:48:13Z</time>
      </trkpt>
      <trkpt lat="43.6722" lon="6.02852">
        <ele>652.59997558594</ele>
        <time>2021-05-23T09:48:14Z</time>
      </trkpt>
      <trkpt lat="43.67218" lon="6.02848">
        <ele>652.40002441406</ele>
        <time>2021-05-23T09:48:15Z</time>
      </trkpt>
      <trkpt lat="43.67215" lon="6.02844">
        <ele>652.20001220703</ele>
        <time>2021-05-23T09:48:16Z</time>
      </trkpt>
      <trkpt lat="43.67212" lon="6.0284">
        <ele>652</ele>
        <time>2021-05-23T09:48:17Z</time>
      </trkpt>
      <trkpt lat="43.67209" lon="6.02836">
        <ele>651.79998779297</ele>
        <time>2021-05-23T09:48:18Z</time>
      </trkpt>
      <trkpt lat="43.67207" lon="6.02833">
        <ele>651.59997558594</ele>
        <time>2021-05-23T09:48:19Z</time>
      </trkpt>
      <trkpt lat="43.67204" lon="6.02829">
        <ele>651.40002441406</ele>
        <time>2021-05-23T09:48:20Z</time>
      </trkpt>
      <trkpt lat="43.67202" lon="6.02825">
        <ele>651.20001220703</ele>
        <time>2021-05-23T09:48:21Z</time>
      </trkpt>
      <trkpt lat="43.67199" lon="6.02821">
        <ele>651.20001220703</ele>
        <time>2021-05-23T09:48:22Z</time>
      </trkpt>
      <trkpt lat="43.67196" lon="6.02817">
        <ele>650.79998779297</ele>
        <time>2021-05-23T09:48:23Z</time>
      </trkpt>
      <trkpt lat="43.67193" lon="6.02812">
        <ele>650.59997558594</ele>
        <time>2021-05-23T09:48:24Z</time>
      </trkpt>
      <trkpt lat="43.67191" lon="6.02807">
        <ele>650.59997558594</ele>
        <time>2021-05-23T09:48:25Z</time>
      </trkpt>
      <trkpt lat="43.67188" lon="6.02802">
        <ele>650.59997558594</ele>
        <time>2021-05-23T09:48:26Z</time>
      </trkpt>
      <trkpt lat="43.67185" lon="6.02797">
        <ele>650.59997558594</ele>
        <time>2021-05-23T09:48:27Z</time>
      </trkpt>
      <trkpt lat="43.67182" lon="6.02792">
        <ele>650.20001220703</ele>
        <time>2021-05-23T09:48:28Z</time>
      </trkpt>
      <trkpt lat="43.67179" lon="6.02788">
        <ele>649.59997558594</ele>
        <time>2021-05-23T09:48:29Z</time>
      </trkpt>
      <trkpt lat="43.67177" lon="6.02783">
        <ele>649.40002441406</ele>
        <time>2021-05-23T09:48:30Z</time>
      </trkpt>
      <trkpt lat="43.67174" lon="6.02777">
        <ele>649</ele>
        <time>2021-05-23T09:48:31Z</time>
      </trkpt>
      <trkpt lat="43.67171" lon="6.02772">
        <ele>648.79998779297</ele>
        <time>2021-05-23T09:48:32Z</time>
      </trkpt>
      <trkpt lat="43.67169" lon="6.02767">
        <ele>648.59997558594</ele>
        <time>2021-05-23T09:48:33Z</time>
      </trkpt>
      <trkpt lat="43.67166" lon="6.02761">
        <ele>648.20001220703</ele>
        <time>2021-05-23T09:48:34Z</time>
      </trkpt>
      <trkpt lat="43.67163" lon="6.02756">
        <ele>648.20001220703</ele>
        <time>2021-05-23T09:48:35Z</time>
      </trkpt>
      <trkpt lat="43.67161" lon="6.0275">
        <ele>648</ele>
        <time>2021-05-23T09:48:36Z</time>
      </trkpt>
      <trkpt lat="43.67158" lon="6.02746">
        <ele>647.59997558594</ele>
        <time>2021-05-23T09:48:37Z</time>
      </trkpt>
      <trkpt lat="43.67155" lon="6.02741">
        <ele>647.40002441406</ele>
        <time>2021-05-23T09:48:38Z</time>
      </trkpt>
      <trkpt lat="43.67152" lon="6.02737">
        <ele>647.59997558594</ele>
        <time>2021-05-23T09:48:39Z</time>
      </trkpt>
      <trkpt lat="43.6715" lon="6.02733">
        <ele>647.20001220703</ele>
        <time>2021-05-23T09:48:40Z</time>
      </trkpt>
      <trkpt lat="43.67148" lon="6.02728">
        <ele>647</ele>
        <time>2021-05-23T09:48:41Z</time>
      </trkpt>
      <trkpt lat="43.67146" lon="6.02724">
        <ele>646.79998779297</ele>
        <time>2021-05-23T09:48:42Z</time>
      </trkpt>
      <trkpt lat="43.67143" lon="6.02719">
        <ele>646.59997558594</ele>
        <time>2021-05-23T09:48:43Z</time>
      </trkpt>
      <trkpt lat="43.67141" lon="6.02714">
        <ele>646.59997558594</ele>
        <time>2021-05-23T09:48:44Z</time>
      </trkpt>
      <trkpt lat="43.67138" lon="6.0271">
        <ele>646.20001220703</ele>
        <time>2021-05-23T09:48:45Z</time>
      </trkpt>
      <trkpt lat="43.67135" lon="6.02705">
        <ele>646.40002441406</ele>
        <time>2021-05-23T09:48:46Z</time>
      </trkpt>
      <trkpt lat="43.67133" lon="6.02701">
        <ele>646.40002441406</ele>
        <time>2021-05-23T09:48:47Z</time>
      </trkpt>
      <trkpt lat="43.6713" lon="6.02696">
        <ele>646.20001220703</ele>
        <time>2021-05-23T09:48:48Z</time>
      </trkpt>
      <trkpt lat="43.67128" lon="6.02692">
        <ele>646.20001220703</ele>
        <time>2021-05-23T09:48:49Z</time>
      </trkpt>
      <trkpt lat="43.67126" lon="6.02688">
        <ele>646.20001220703</ele>
        <time>2021-05-23T09:48:50Z</time>
      </trkpt>
      <trkpt lat="43.67124" lon="6.02684">
        <ele>646.20001220703</ele>
        <time>2021-05-23T09:48:51Z</time>
      </trkpt>
      <trkpt lat="43.67122" lon="6.0268">
        <ele>646</ele>
        <time>2021-05-23T09:48:52Z</time>
      </trkpt>
      <trkpt lat="43.6712" lon="6.02677">
        <ele>645.79998779297</ele>
        <time>2021-05-23T09:48:53Z</time>
      </trkpt>
      <trkpt lat="43.67118" lon="6.02674">
        <ele>645.79998779297</ele>
        <time>2021-05-23T09:48:54Z</time>
      </trkpt>
      <trkpt lat="43.67117" lon="6.02671">
        <ele>645.79998779297</ele>
        <time>2021-05-23T09:48:55Z</time>
      </trkpt>
      <trkpt lat="43.67115" lon="6.02668">
        <ele>645.79998779297</ele>
        <time>2021-05-23T09:48:56Z</time>
      </trkpt>
      <trkpt lat="43.67113" lon="6.02665">
        <ele>645.79998779297</ele>
        <time>2021-05-23T09:48:57Z</time>
      </trkpt>
      <trkpt lat="43.67111" lon="6.02662">
        <ele>645.79998779297</ele>
        <time>2021-05-23T09:48:58Z</time>
      </trkpt>
      <trkpt lat="43.6711" lon="6.02659">
        <ele>645.79998779297</ele>
        <time>2021-05-23T09:48:59Z</time>
      </trkpt>
      <trkpt lat="43.67108" lon="6.02656">
        <ele>645.59997558594</ele>
        <time>2021-05-23T09:49:00Z</time>
      </trkpt>
      <trkpt lat="43.67106" lon="6.02652">
        <ele>645.59997558594</ele>
        <time>2021-05-23T09:49:01Z</time>
      </trkpt>
      <trkpt lat="43.67104" lon="6.02648">
        <ele>645.59997558594</ele>
        <time>2021-05-23T09:49:02Z</time>
      </trkpt>
      <trkpt lat="43.67103" lon="6.02645">
        <ele>645.59997558594</ele>
        <time>2021-05-23T09:49:03Z</time>
      </trkpt>
      <trkpt lat="43.671" lon="6.02642">
        <ele>645.40002441406</ele>
        <time>2021-05-23T09:49:04Z</time>
      </trkpt>
      <trkpt lat="43.67099" lon="6.02639">
        <ele>645.40002441406</ele>
        <time>2021-05-23T09:49:05Z</time>
      </trkpt>
      <trkpt lat="43.67097" lon="6.02635">
        <ele>645.40002441406</ele>
        <time>2021-05-23T09:49:06Z</time>
      </trkpt>
      <trkpt lat="43.67095" lon="6.02632">
        <ele>645.40002441406</ele>
        <time>2021-05-23T09:49:07Z</time>
      </trkpt>
      <trkpt lat="43.67094" lon="6.02629">
        <ele>645</ele>
        <time>2021-05-23T09:49:08Z</time>
      </trkpt>
      <trkpt lat="43.67092" lon="6.02626">
        <ele>645</ele>
        <time>2021-05-23T09:49:09Z</time>
      </trkpt>
      <trkpt lat="43.67091" lon="6.02623">
        <ele>644.79998779297</ele>
        <time>2021-05-23T09:49:10Z</time>
      </trkpt>
      <trkpt lat="43.6709" lon="6.0262">
        <ele>644.79998779297</ele>
        <time>2021-05-23T09:49:11Z</time>
      </trkpt>
      <trkpt lat="43.67089" lon="6.02617">
        <ele>644.79998779297</ele>
        <time>2021-05-23T09:49:12Z</time>
      </trkpt>
      <trkpt lat="43.67087" lon="6.02614">
        <ele>644.79998779297</ele>
        <time>2021-05-23T09:49:13Z</time>
      </trkpt>
      <trkpt lat="43.67085" lon="6.02611">
        <ele>644.59997558594</ele>
        <time>2021-05-23T09:49:14Z</time>
      </trkpt>
      <trkpt lat="43.67083" lon="6.02607">
        <ele>644.40002441406</ele>
        <time>2021-05-23T09:49:15Z</time>
      </trkpt>
      <trkpt lat="43.67082" lon="6.02604">
        <ele>644.20001220703</ele>
        <time>2021-05-23T09:49:16Z</time>
      </trkpt>
      <trkpt lat="43.6708" lon="6.02601">
        <ele>644.20001220703</ele>
        <time>2021-05-23T09:49:17Z</time>
      </trkpt>
      <trkpt lat="43.67079" lon="6.02597">
        <ele>644</ele>
        <time>2021-05-23T09:49:18Z</time>
      </trkpt>
      <trkpt lat="43.67077" lon="6.02594">
        <ele>643.79998779297</ele>
        <time>2021-05-23T09:49:19Z</time>
      </trkpt>
      <trkpt lat="43.67076" lon="6.02591">
        <ele>643.79998779297</ele>
        <time>2021-05-23T09:49:20Z</time>
      </trkpt>
      <trkpt lat="43.67074" lon="6.02587">
        <ele>643.79998779297</ele>
        <time>2021-05-23T09:49:21Z</time>
      </trkpt>
      <trkpt lat="43.67072" lon="6.02584">
        <ele>643.79998779297</ele>
        <time>2021-05-23T09:49:22Z</time>
      </trkpt>
      <trkpt lat="43.6707" lon="6.0258">
        <ele>643.79998779297</ele>
        <time>2021-05-23T09:49:23Z</time>
      </trkpt>
      <trkpt lat="43.67068" lon="6.02577">
        <ele>643.79998779297</ele>
        <time>2021-05-23T09:49:24Z</time>
      </trkpt>
      <trkpt lat="43.67066" lon="6.02573">
        <ele>643.79998779297</ele>
        <time>2021-05-23T09:49:25Z</time>
      </trkpt>
      <trkpt lat="43.67063" lon="6.0257">
        <ele>643.59997558594</ele>
        <time>2021-05-23T09:49:26Z</time>
      </trkpt>
      <trkpt lat="43.67061" lon="6.02567">
        <ele>643.40002441406</ele>
        <time>2021-05-23T09:49:27Z</time>
      </trkpt>
      <trkpt lat="43.67058" lon="6.02563">
        <ele>643.40002441406</ele>
        <time>2021-05-23T09:49:28Z</time>
      </trkpt>
      <trkpt lat="43.67056" lon="6.0256">
        <ele>643.40002441406</ele>
        <time>2021-05-23T09:49:29Z</time>
      </trkpt>
      <trkpt lat="43.67054" lon="6.02556">
        <ele>643.40002441406</ele>
        <time>2021-05-23T09:49:30Z</time>
      </trkpt>
      <trkpt lat="43.67052" lon="6.02552">
        <ele>643.40002441406</ele>
        <time>2021-05-23T09:49:31Z</time>
      </trkpt>
      <trkpt lat="43.6705" lon="6.02548">
        <ele>643.40002441406</ele>
        <time>2021-05-23T09:49:32Z</time>
      </trkpt>
      <trkpt lat="43.67048" lon="6.02545">
        <ele>643.20001220703</ele>
        <time>2021-05-23T09:49:33Z</time>
      </trkpt>
      <trkpt lat="43.67046" lon="6.02541">
        <ele>643.20001220703</ele>
        <time>2021-05-23T09:49:34Z</time>
      </trkpt>
      <trkpt lat="43.67044" lon="6.02537">
        <ele>643</ele>
        <time>2021-05-23T09:49:35Z</time>
      </trkpt>
      <trkpt lat="43.67043" lon="6.02534">
        <ele>643</ele>
        <time>2021-05-23T09:49:36Z</time>
      </trkpt>
      <trkpt lat="43.67041" lon="6.0253">
        <ele>643</ele>
        <time>2021-05-23T09:49:37Z</time>
      </trkpt>
      <trkpt lat="43.67039" lon="6.02526">
        <ele>642.79998779297</ele>
        <time>2021-05-23T09:49:38Z</time>
      </trkpt>
      <trkpt lat="43.67037" lon="6.02522">
        <ele>642.79998779297</ele>
        <time>2021-05-23T09:49:39Z</time>
      </trkpt>
      <trkpt lat="43.67034" lon="6.02518">
        <ele>642.59997558594</ele>
        <time>2021-05-23T09:49:40Z</time>
      </trkpt>
      <trkpt lat="43.67032" lon="6.02514">
        <ele>642.40002441406</ele>
        <time>2021-05-23T09:49:41Z</time>
      </trkpt>
      <trkpt lat="43.6703" lon="6.02511">
        <ele>642.40002441406</ele>
        <time>2021-05-23T09:49:42Z</time>
      </trkpt>
      <trkpt lat="43.67027" lon="6.02507">
        <ele>642.40002441406</ele>
        <time>2021-05-23T09:49:43Z</time>
      </trkpt>
      <trkpt lat="43.67025" lon="6.02504">
        <ele>642.40002441406</ele>
        <time>2021-05-23T09:49:44Z</time>
      </trkpt>
      <trkpt lat="43.67023" lon="6.025">
        <ele>642.40002441406</ele>
        <time>2021-05-23T09:49:45Z</time>
      </trkpt>
      <trkpt lat="43.67021" lon="6.02496">
        <ele>642.40002441406</ele>
        <time>2021-05-23T09:49:46Z</time>
      </trkpt>
      <trkpt lat="43.67019" lon="6.02492">
        <ele>642.20001220703</ele>
        <time>2021-05-23T09:49:47Z</time>
      </trkpt>
      <trkpt lat="43.67017" lon="6.02489">
        <ele>642</ele>
        <time>2021-05-23T09:49:48Z</time>
      </trkpt>
      <trkpt lat="43.67015" lon="6.02485">
        <ele>642</ele>
        <time>2021-05-23T09:49:49Z</time>
      </trkpt>
      <trkpt lat="43.67012" lon="6.02482">
        <ele>641.79998779297</ele>
        <time>2021-05-23T09:49:50Z</time>
      </trkpt>
      <trkpt lat="43.6701" lon="6.02478">
        <ele>641.59997558594</ele>
        <time>2021-05-23T09:49:51Z</time>
      </trkpt>
      <trkpt lat="43.67008" lon="6.02475">
        <ele>641.59997558594</ele>
        <time>2021-05-23T09:49:52Z</time>
      </trkpt>
      <trkpt lat="43.67006" lon="6.02471">
        <ele>641.59997558594</ele>
        <time>2021-05-23T09:49:53Z</time>
      </trkpt>
      <trkpt lat="43.67004" lon="6.02467">
        <ele>641.59997558594</ele>
        <time>2021-05-23T09:49:54Z</time>
      </trkpt>
      <trkpt lat="43.67002" lon="6.02464">
        <ele>641.59997558594</ele>
        <time>2021-05-23T09:49:55Z</time>
      </trkpt>
      <trkpt lat="43.67" lon="6.0246">
        <ele>641.40002441406</ele>
        <time>2021-05-23T09:49:56Z</time>
      </trkpt>
      <trkpt lat="43.66998" lon="6.02457">
        <ele>641.40002441406</ele>
        <time>2021-05-23T09:49:57Z</time>
      </trkpt>
      <trkpt lat="43.66996" lon="6.02454">
        <ele>641.40002441406</ele>
        <time>2021-05-23T09:49:58Z</time>
      </trkpt>
      <trkpt lat="43.66995" lon="6.02451">
        <ele>641.20001220703</ele>
        <time>2021-05-23T09:49:59Z</time>
      </trkpt>
      <trkpt lat="43.66994" lon="6.02449">
        <ele>641</ele>
        <time>2021-05-23T09:50:00Z</time>
      </trkpt>
      <trkpt lat="43.66993" lon="6.02447">
        <ele>641</ele>
        <time>2021-05-23T09:50:01Z</time>
      </trkpt>
      <trkpt lat="43.66991" lon="6.02444">
        <ele>641</ele>
        <time>2021-05-23T09:50:02Z</time>
      </trkpt>
      <trkpt lat="43.6699" lon="6.02441">
        <ele>640.79998779297</ele>
        <time>2021-05-23T09:50:03Z</time>
      </trkpt>
      <trkpt lat="43.66988" lon="6.02438">
        <ele>640.59997558594</ele>
        <time>2021-05-23T09:50:04Z</time>
      </trkpt>
      <trkpt lat="43.66986" lon="6.02435">
        <ele>640.40002441406</ele>
        <time>2021-05-23T09:50:05Z</time>
      </trkpt>
      <trkpt lat="43.66984" lon="6.02431">
        <ele>640.40002441406</ele>
        <time>2021-05-23T09:50:06Z</time>
      </trkpt>
      <trkpt lat="43.66982" lon="6.02428">
        <ele>640.40002441406</ele>
        <time>2021-05-23T09:50:07Z</time>
      </trkpt>
      <trkpt lat="43.6698" lon="6.02424">
        <ele>640.20001220703</ele>
        <time>2021-05-23T09:50:08Z</time>
      </trkpt>
      <trkpt lat="43.66978" lon="6.02421">
        <ele>640.20001220703</ele>
        <time>2021-05-23T09:50:09Z</time>
      </trkpt>
      <trkpt lat="43.66976" lon="6.02417">
        <ele>640</ele>
        <time>2021-05-23T09:50:10Z</time>
      </trkpt>
      <trkpt lat="43.66974" lon="6.02413">
        <ele>639.79998779297</ele>
        <time>2021-05-23T09:50:11Z</time>
      </trkpt>
      <trkpt lat="43.66972" lon="6.02409">
        <ele>639.59997558594</ele>
        <time>2021-05-23T09:50:12Z</time>
      </trkpt>
      <trkpt lat="43.6697" lon="6.02405">
        <ele>639.40002441406</ele>
        <time>2021-05-23T09:50:13Z</time>
      </trkpt>
      <trkpt lat="43.66968" lon="6.024">
        <ele>639.20001220703</ele>
        <time>2021-05-23T09:50:14Z</time>
      </trkpt>
      <trkpt lat="43.66965" lon="6.02396">
        <ele>639.20001220703</ele>
        <time>2021-05-23T09:50:15Z</time>
      </trkpt>
      <trkpt lat="43.66963" lon="6.02392">
        <ele>639</ele>
        <time>2021-05-23T09:50:16Z</time>
      </trkpt>
      <trkpt lat="43.6696" lon="6.02388">
        <ele>638.79998779297</ele>
        <time>2021-05-23T09:50:17Z</time>
      </trkpt>
      <trkpt lat="43.66958" lon="6.02384">
        <ele>638.79998779297</ele>
        <time>2021-05-23T09:50:18Z</time>
      </trkpt>
      <trkpt lat="43.66955" lon="6.0238">
        <ele>638.59997558594</ele>
        <time>2021-05-23T09:50:19Z</time>
      </trkpt>
      <trkpt lat="43.66953" lon="6.02375">
        <ele>638.59997558594</ele>
        <time>2021-05-23T09:50:20Z</time>
      </trkpt>
      <trkpt lat="43.6695" lon="6.02371">
        <ele>638.40002441406</ele>
        <time>2021-05-23T09:50:21Z</time>
      </trkpt>
      <trkpt lat="43.66948" lon="6.02367">
        <ele>638.20001220703</ele>
        <time>2021-05-23T09:50:22Z</time>
      </trkpt>
      <trkpt lat="43.66946" lon="6.02363">
        <ele>638</ele>
        <time>2021-05-23T09:50:23Z</time>
      </trkpt>
      <trkpt lat="43.66944" lon="6.02359">
        <ele>638</ele>
        <time>2021-05-23T09:50:24Z</time>
      </trkpt>
      <trkpt lat="43.66942" lon="6.02355">
        <ele>638</ele>
        <time>2021-05-23T09:50:25Z</time>
      </trkpt>
      <trkpt lat="43.6694" lon="6.0235">
        <ele>638</ele>
        <time>2021-05-23T09:50:26Z</time>
      </trkpt>
      <trkpt lat="43.66938" lon="6.02346">
        <ele>637.79998779297</ele>
        <time>2021-05-23T09:50:27Z</time>
      </trkpt>
      <trkpt lat="43.66936" lon="6.02342">
        <ele>637.59997558594</ele>
        <time>2021-05-23T09:50:28Z</time>
      </trkpt>
      <trkpt lat="43.66934" lon="6.02337">
        <ele>637.40002441406</ele>
        <time>2021-05-23T09:50:29Z</time>
      </trkpt>
      <trkpt lat="43.66932" lon="6.02333">
        <ele>637.20001220703</ele>
        <time>2021-05-23T09:50:30Z</time>
      </trkpt>
      <trkpt lat="43.6693" lon="6.02329">
        <ele>637.20001220703</ele>
        <time>2021-05-23T09:50:31Z</time>
      </trkpt>
      <trkpt lat="43.66927" lon="6.02324">
        <ele>637.20001220703</ele>
        <time>2021-05-23T09:50:32Z</time>
      </trkpt>
      <trkpt lat="43.66925" lon="6.0232">
        <ele>637</ele>
        <time>2021-05-23T09:50:33Z</time>
      </trkpt>
      <trkpt lat="43.66922" lon="6.02316">
        <ele>637</ele>
        <time>2021-05-23T09:50:34Z</time>
      </trkpt>
      <trkpt lat="43.6692" lon="6.02312">
        <ele>637</ele>
        <time>2021-05-23T09:50:35Z</time>
      </trkpt>
      <trkpt lat="43.66918" lon="6.02308">
        <ele>637</ele>
        <time>2021-05-23T09:50:36Z</time>
      </trkpt>
      <trkpt lat="43.66915" lon="6.02304">
        <ele>637</ele>
        <time>2021-05-23T09:50:37Z</time>
      </trkpt>
      <trkpt lat="43.66912" lon="6.023">
        <ele>637</ele>
        <time>2021-05-23T09:50:38Z</time>
      </trkpt>
      <trkpt lat="43.6691" lon="6.02296">
        <ele>637</ele>
        <time>2021-05-23T09:50:39Z</time>
      </trkpt>
      <trkpt lat="43.66908" lon="6.02292">
        <ele>636.79998779297</ele>
        <time>2021-05-23T09:50:40Z</time>
      </trkpt>
      <trkpt lat="43.66905" lon="6.02288">
        <ele>636.59997558594</ele>
        <time>2021-05-23T09:50:41Z</time>
      </trkpt>
      <trkpt lat="43.66903" lon="6.02284">
        <ele>636.59997558594</ele>
        <time>2021-05-23T09:50:42Z</time>
      </trkpt>
      <trkpt lat="43.66901" lon="6.02279">
        <ele>636.40002441406</ele>
        <time>2021-05-23T09:50:43Z</time>
      </trkpt>
      <trkpt lat="43.66898" lon="6.02276">
        <ele>636.40002441406</ele>
        <time>2021-05-23T09:50:44Z</time>
      </trkpt>
      <trkpt lat="43.66896" lon="6.02272">
        <ele>636.40002441406</ele>
        <time>2021-05-23T09:50:45Z</time>
      </trkpt>
      <trkpt lat="43.66894" lon="6.02267">
        <ele>636.40002441406</ele>
        <time>2021-05-23T09:50:46Z</time>
      </trkpt>
      <trkpt lat="43.66892" lon="6.02263">
        <ele>636.40002441406</ele>
        <time>2021-05-23T09:50:47Z</time>
      </trkpt>
      <trkpt lat="43.6689" lon="6.02259">
        <ele>636.20001220703</ele>
        <time>2021-05-23T09:50:48Z</time>
      </trkpt>
      <trkpt lat="43.66887" lon="6.02255">
        <ele>636</ele>
        <time>2021-05-23T09:50:49Z</time>
      </trkpt>
      <trkpt lat="43.66885" lon="6.0225">
        <ele>636.20001220703</ele>
        <time>2021-05-23T09:50:50Z</time>
      </trkpt>
      <trkpt lat="43.66883" lon="6.02246">
        <ele>636.20001220703</ele>
        <time>2021-05-23T09:50:51Z</time>
      </trkpt>
      <trkpt lat="43.6688" lon="6.02242">
        <ele>636</ele>
        <time>2021-05-23T09:50:52Z</time>
      </trkpt>
      <trkpt lat="43.66878" lon="6.02237">
        <ele>636</ele>
        <time>2021-05-23T09:50:53Z</time>
      </trkpt>
      <trkpt lat="43.66876" lon="6.02233">
        <ele>636</ele>
        <time>2021-05-23T09:50:54Z</time>
      </trkpt>
      <trkpt lat="43.66873" lon="6.02228">
        <ele>636</ele>
        <time>2021-05-23T09:50:55Z</time>
      </trkpt>
      <trkpt lat="43.66871" lon="6.02224">
        <ele>635.79998779297</ele>
        <time>2021-05-23T09:50:56Z</time>
      </trkpt>
      <trkpt lat="43.66868" lon="6.02219">
        <ele>635.59997558594</ele>
        <time>2021-05-23T09:50:57Z</time>
      </trkpt>
      <trkpt lat="43.66865" lon="6.02215">
        <ele>635.40002441406</ele>
        <time>2021-05-23T09:50:58Z</time>
      </trkpt>
      <trkpt lat="43.66863" lon="6.0221">
        <ele>635.20001220703</ele>
        <time>2021-05-23T09:50:59Z</time>
      </trkpt>
      <trkpt lat="43.6686" lon="6.02206">
        <ele>634.59997558594</ele>
        <time>2021-05-23T09:51:00Z</time>
      </trkpt>
      <trkpt lat="43.66857" lon="6.02202">
        <ele>634.40002441406</ele>
        <time>2021-05-23T09:51:01Z</time>
      </trkpt>
      <trkpt lat="43.66855" lon="6.02198">
        <ele>634</ele>
        <time>2021-05-23T09:51:02Z</time>
      </trkpt>
      <trkpt lat="43.66852" lon="6.02194">
        <ele>634</ele>
        <time>2021-05-23T09:51:03Z</time>
      </trkpt>
      <trkpt lat="43.6685" lon="6.02191">
        <ele>633.79998779297</ele>
        <time>2021-05-23T09:51:04Z</time>
      </trkpt>
      <trkpt lat="43.66849" lon="6.02188">
        <ele>633.79998779297</ele>
        <time>2021-05-23T09:51:05Z</time>
      </trkpt>
      <trkpt lat="43.66848" lon="6.02184">
        <ele>633.79998779297</ele>
        <time>2021-05-23T09:51:06Z</time>
      </trkpt>
      <trkpt lat="43.66847" lon="6.0218">
        <ele>633.59997558594</ele>
        <time>2021-05-23T09:51:07Z</time>
      </trkpt>
      <trkpt lat="43.66847" lon="6.02176">
        <ele>633.40002441406</ele>
        <time>2021-05-23T09:51:08Z</time>
      </trkpt>
      <trkpt lat="43.66847" lon="6.02172">
        <ele>632.79998779297</ele>
        <time>2021-05-23T09:51:09Z</time>
      </trkpt>
      <trkpt lat="43.66848" lon="6.02167">
        <ele>632.59997558594</ele>
        <time>2021-05-23T09:51:10Z</time>
      </trkpt>
      <trkpt lat="43.66847" lon="6.02163">
        <ele>632.40002441406</ele>
        <time>2021-05-23T09:51:11Z</time>
      </trkpt>
      <trkpt lat="43.66847" lon="6.0216">
        <ele>632.20001220703</ele>
        <time>2021-05-23T09:51:12Z</time>
      </trkpt>
      <trkpt lat="43.66846" lon="6.02158">
        <ele>632.20001220703</ele>
        <time>2021-05-23T09:51:13Z</time>
      </trkpt>
      <trkpt lat="43.66845" lon="6.02156">
        <ele>632</ele>
        <time>2021-05-23T09:51:14Z</time>
      </trkpt>
      <trkpt lat="43.66844" lon="6.02155">
        <ele>632</ele>
        <time>2021-05-23T09:51:15Z</time>
      </trkpt>
      <trkpt lat="43.6685" lon="6.02152">
        <ele>632.20001220703</ele>
        <time>2021-05-23T09:52:12Z</time>
      </trkpt>
      <trkpt lat="43.66852" lon="6.02153">
        <ele>632.20001220703</ele>
        <time>2021-05-23T09:52:13Z</time>
      </trkpt>
      <trkpt lat="43.66855" lon="6.02154">
        <ele>632.20001220703</ele>
        <time>2021-05-23T09:52:14Z</time>
      </trkpt>
      <trkpt lat="43.66857" lon="6.02153">
        <ele>632.20001220703</ele>
        <time>2021-05-23T09:52:15Z</time>
      </trkpt>
      <trkpt lat="43.6686" lon="6.02151">
        <ele>632.20001220703</ele>
        <time>2021-05-23T09:52:16Z</time>
      </trkpt>
      <trkpt lat="43.66863" lon="6.0215">
        <ele>632</ele>
        <time>2021-05-23T09:52:17Z</time>
      </trkpt>
      <trkpt lat="43.66865" lon="6.02147">
        <ele>632</ele>
        <time>2021-05-23T09:52:18Z</time>
      </trkpt>
      <trkpt lat="43.66868" lon="6.02145">
        <ele>631.79998779297</ele>
        <time>2021-05-23T09:52:19Z</time>
      </trkpt>
      <trkpt lat="43.6687" lon="6.02144">
        <ele>631.79998779297</ele>
        <time>2021-05-23T09:52:20Z</time>
      </trkpt>
      <trkpt lat="43.66873" lon="6.02141">
        <ele>631.59997558594</ele>
        <time>2021-05-23T09:52:21Z</time>
      </trkpt>
      <trkpt lat="43.66876" lon="6.02139">
        <ele>631.59997558594</ele>
        <time>2021-05-23T09:52:22Z</time>
      </trkpt>
      <trkpt lat="43.66879" lon="6.02137">
        <ele>631.59997558594</ele>
        <time>2021-05-23T09:52:23Z</time>
      </trkpt>
      <trkpt lat="43.66882" lon="6.02136">
        <ele>631.59997558594</ele>
        <time>2021-05-23T09:52:24Z</time>
      </trkpt>
      <trkpt lat="43.66885" lon="6.02133">
        <ele>631.79998779297</ele>
        <time>2021-05-23T09:52:25Z</time>
      </trkpt>
      <trkpt lat="43.66888" lon="6.0213">
        <ele>631.79998779297</ele>
        <time>2021-05-23T09:52:26Z</time>
      </trkpt>
      <trkpt lat="43.66891" lon="6.02128">
        <ele>631.79998779297</ele>
        <time>2021-05-23T09:52:27Z</time>
      </trkpt>
      <trkpt lat="43.66894" lon="6.02125">
        <ele>631.59997558594</ele>
        <time>2021-05-23T09:52:28Z</time>
      </trkpt>
      <trkpt lat="43.66897" lon="6.02122">
        <ele>631.59997558594</ele>
        <time>2021-05-23T09:52:29Z</time>
      </trkpt>
      <trkpt lat="43.669" lon="6.02119">
        <ele>631.59997558594</ele>
        <time>2021-05-23T09:52:30Z</time>
      </trkpt>
      <trkpt lat="43.66903" lon="6.02116">
        <ele>631.59997558594</ele>
        <time>2021-05-23T09:52:31Z</time>
      </trkpt>
      <trkpt lat="43.66905" lon="6.02113">
        <ele>631.40002441406</ele>
        <time>2021-05-23T09:52:32Z</time>
      </trkpt>
      <trkpt lat="43.66908" lon="6.0211">
        <ele>631.40002441406</ele>
        <time>2021-05-23T09:52:33Z</time>
      </trkpt>
      <trkpt lat="43.66911" lon="6.02107">
        <ele>631.40002441406</ele>
        <time>2021-05-23T09:52:34Z</time>
      </trkpt>
      <trkpt lat="43.66914" lon="6.02104">
        <ele>631.40002441406</ele>
        <time>2021-05-23T09:52:35Z</time>
      </trkpt>
      <trkpt lat="43.66917" lon="6.02101">
        <ele>631.40002441406</ele>
        <time>2021-05-23T09:52:36Z</time>
      </trkpt>
      <trkpt lat="43.6692" lon="6.02098">
        <ele>631.40002441406</ele>
        <time>2021-05-23T09:52:37Z</time>
      </trkpt>
      <trkpt lat="43.66923" lon="6.02095">
        <ele>631.40002441406</ele>
        <time>2021-05-23T09:52:38Z</time>
      </trkpt>
      <trkpt lat="43.66925" lon="6.02092">
        <ele>631.40002441406</ele>
        <time>2021-05-23T09:52:39Z</time>
      </trkpt>
      <trkpt lat="43.66928" lon="6.02089">
        <ele>631.40002441406</ele>
        <time>2021-05-23T09:52:40Z</time>
      </trkpt>
      <trkpt lat="43.6693" lon="6.02085">
        <ele>631.40002441406</ele>
        <time>2021-05-23T09:52:41Z</time>
      </trkpt>
      <trkpt lat="43.66932" lon="6.02081">
        <ele>631.40002441406</ele>
        <time>2021-05-23T09:52:42Z</time>
      </trkpt>
      <trkpt lat="43.66933" lon="6.02077">
        <ele>631.40002441406</ele>
        <time>2021-05-23T09:52:43Z</time>
      </trkpt>
      <trkpt lat="43.66934" lon="6.02072">
        <ele>631.20001220703</ele>
        <time>2021-05-23T09:52:44Z</time>
      </trkpt>
      <trkpt lat="43.66935" lon="6.02068">
        <ele>631.20001220703</ele>
        <time>2021-05-23T09:52:45Z</time>
      </trkpt>
      <trkpt lat="43.66937" lon="6.02063">
        <ele>631.20001220703</ele>
        <time>2021-05-23T09:52:46Z</time>
      </trkpt>
      <trkpt lat="43.66939" lon="6.02059">
        <ele>631</ele>
        <time>2021-05-23T09:52:47Z</time>
      </trkpt>
      <trkpt lat="43.66941" lon="6.02056">
        <ele>631</ele>
        <time>2021-05-23T09:52:48Z</time>
      </trkpt>
      <trkpt lat="43.66944" lon="6.02053">
        <ele>631</ele>
        <time>2021-05-23T09:52:49Z</time>
      </trkpt>
      <trkpt lat="43.66947" lon="6.0205">
        <ele>630.79998779297</ele>
        <time>2021-05-23T09:52:50Z</time>
      </trkpt>
      <trkpt lat="43.66951" lon="6.02048">
        <ele>630.79998779297</ele>
        <time>2021-05-23T09:52:51Z</time>
      </trkpt>
      <trkpt lat="43.66954" lon="6.02046">
        <ele>630.59997558594</ele>
        <time>2021-05-23T09:52:52Z</time>
      </trkpt>
      <trkpt lat="43.66958" lon="6.02044">
        <ele>630.40002441406</ele>
        <time>2021-05-23T09:52:53Z</time>
      </trkpt>
      <trkpt lat="43.66961" lon="6.02043">
        <ele>630.20001220703</ele>
        <time>2021-05-23T09:52:54Z</time>
      </trkpt>
      <trkpt lat="43.66965" lon="6.02041">
        <ele>630.20001220703</ele>
        <time>2021-05-23T09:52:55Z</time>
      </trkpt>
      <trkpt lat="43.66968" lon="6.02039">
        <ele>630.20001220703</ele>
        <time>2021-05-23T09:52:56Z</time>
      </trkpt>
      <trkpt lat="43.66971" lon="6.02037">
        <ele>630.20001220703</ele>
        <time>2021-05-23T09:52:57Z</time>
      </trkpt>
      <trkpt lat="43.66975" lon="6.02034">
        <ele>630.40002441406</ele>
        <time>2021-05-23T09:52:58Z</time>
      </trkpt>
      <trkpt lat="43.66978" lon="6.02032">
        <ele>630.40002441406</ele>
        <time>2021-05-23T09:52:59Z</time>
      </trkpt>
      <trkpt lat="43.66982" lon="6.02029">
        <ele>630.59997558594</ele>
        <time>2021-05-23T09:53:00Z</time>
      </trkpt>
      <trkpt lat="43.66985" lon="6.02026">
        <ele>630.59997558594</ele>
        <time>2021-05-23T09:53:01Z</time>
      </trkpt>
      <trkpt lat="43.66988" lon="6.02023">
        <ele>630.59997558594</ele>
        <time>2021-05-23T09:53:02Z</time>
      </trkpt>
      <trkpt lat="43.66991" lon="6.0202">
        <ele>630.40002441406</ele>
        <time>2021-05-23T09:53:03Z</time>
      </trkpt>
      <trkpt lat="43.66994" lon="6.02017">
        <ele>630.40002441406</ele>
        <time>2021-05-23T09:53:04Z</time>
      </trkpt>
      <trkpt lat="43.66997" lon="6.02014">
        <ele>630.40002441406</ele>
        <time>2021-05-23T09:53:05Z</time>
      </trkpt>
      <trkpt lat="43.67" lon="6.02012">
        <ele>630.40002441406</ele>
        <time>2021-05-23T09:53:06Z</time>
      </trkpt>
      <trkpt lat="43.67002" lon="6.02009">
        <ele>630.20001220703</ele>
        <time>2021-05-23T09:53:07Z</time>
      </trkpt>
      <trkpt lat="43.67005" lon="6.02007">
        <ele>630.20001220703</ele>
        <time>2021-05-23T09:53:08Z</time>
      </trkpt>
      <trkpt lat="43.67006" lon="6.02006">
        <ele>630.20001220703</ele>
        <time>2021-05-23T09:53:09Z</time>
      </trkpt>
      <trkpt lat="43.67008" lon="6.02004">
        <ele>630.20001220703</ele>
        <time>2021-05-23T09:53:10Z</time>
      </trkpt>
      <trkpt lat="43.67008" lon="6.02004">
        <ele>630</ele>
        <time>2021-05-23T09:53:11Z</time>
      </trkpt>
      <trkpt lat="43.67008" lon="6.02004">
        <ele>630</ele>
        <time>2021-05-23T09:53:12Z</time>
      </trkpt>
      <trkpt lat="43.67008" lon="6.02004">
        <ele>629.79998779297</ele>
        <time>2021-05-23T09:53:13Z</time>
      </trkpt>
      <trkpt lat="43.67008" lon="6.02004">
        <ele>629.79998779297</ele>
        <time>2021-05-23T09:53:14Z</time>
      </trkpt>
      <trkpt lat="43.67008" lon="6.02004">
        <ele>629.79998779297</ele>
        <time>2021-05-23T09:53:15Z</time>
      </trkpt>
      <trkpt lat="43.67008" lon="6.02004">
        <ele>629.79998779297</ele>
        <time>2021-05-23T09:53:16Z</time>
      </trkpt>
      <trkpt lat="43.67009" lon="6.02004">
        <ele>629.79998779297</ele>
        <time>2021-05-23T09:53:17Z</time>
      </trkpt>
      <trkpt lat="43.67009" lon="6.02004">
        <ele>629.79998779297</ele>
        <time>2021-05-23T09:53:18Z</time>
      </trkpt>
      <trkpt lat="43.67009" lon="6.02004">
        <ele>629.79998779297</ele>
        <time>2021-05-23T09:53:19Z</time>
      </trkpt>
      <trkpt lat="43.67009" lon="6.02004">
        <ele>629.79998779297</ele>
        <time>2021-05-23T09:53:20Z</time>
      </trkpt>
      <trkpt lat="43.67009" lon="6.02004">
        <ele>629.79998779297</ele>
        <time>2021-05-23T09:53:21Z</time>
      </trkpt>
      <trkpt lat="43.67009" lon="6.02004">
        <ele>629.79998779297</ele>
        <time>2021-05-23T09:53:22Z</time>
      </trkpt>
      <trkpt lat="43.67009" lon="6.02004">
        <ele>629.79998779297</ele>
        <time>2021-05-23T09:53:23Z</time>
      </trkpt>
      <trkpt lat="43.67009" lon="6.02004">
        <ele>629.79998779297</ele>
        <time>2021-05-23T09:53:24Z</time>
      </trkpt>
      <trkpt lat="43.67009" lon="6.02004">
        <ele>629.79998779297</ele>
        <time>2021-05-23T09:53:25Z</time>
      </trkpt>
      <trkpt lat="43.67009" lon="6.02004">
        <ele>629.79998779297</ele>
        <time>2021-05-23T09:53:26Z</time>
      </trkpt>
      <trkpt lat="43.67009" lon="6.02004">
        <ele>629.79998779297</ele>
        <time>2021-05-23T09:53:27Z</time>
      </trkpt>
      <trkpt lat="43.67009" lon="6.02004">
        <ele>629.79998779297</ele>
        <time>2021-05-23T09:53:28Z</time>
      </trkpt>
      <trkpt lat="43.67009" lon="6.02004">
        <ele>630</ele>
        <time>2021-05-23T09:53:29Z</time>
      </trkpt>
      <trkpt lat="43.67009" lon="6.02004">
        <ele>630</ele>
        <time>2021-05-23T09:53:30Z</time>
      </trkpt>
      <trkpt lat="43.67009" lon="6.02004">
        <ele>630</ele>
        <time>2021-05-23T09:53:31Z</time>
      </trkpt>
      <trkpt lat="43.67009" lon="6.02004">
        <ele>630</ele>
        <time>2021-05-23T09:53:32Z</time>
      </trkpt>
      <trkpt lat="43.67009" lon="6.02004">
        <ele>630</ele>
        <time>2021-05-23T09:53:33Z</time>
      </trkpt>
      <trkpt lat="43.67009" lon="6.02004">
        <ele>629.79998779297</ele>
        <time>2021-05-23T09:53:34Z</time>
      </trkpt>
      <trkpt lat="43.67009" lon="6.02004">
        <ele>629.79998779297</ele>
        <time>2021-05-23T09:53:35Z</time>
      </trkpt>
      <trkpt lat="43.67009" lon="6.02004">
        <ele>629.79998779297</ele>
        <time>2021-05-23T09:53:36Z</time>
      </trkpt>
      <trkpt lat="43.67009" lon="6.02004">
        <ele>629.79998779297</ele>
        <time>2021-05-23T09:53:37Z</time>
      </trkpt>
      <trkpt lat="43.67009" lon="6.02004">
        <ele>629.79998779297</ele>
        <time>2021-05-23T09:53:38Z</time>
      </trkpt>
      <trkpt lat="43.67009" lon="6.02004">
        <ele>629.79998779297</ele>
        <time>2021-05-23T09:53:39Z</time>
      </trkpt>
      <trkpt lat="43.67009" lon="6.02004">
        <ele>629.79998779297</ele>
        <time>2021-05-23T09:53:40Z</time>
      </trkpt>
      <trkpt lat="43.67009" lon="6.02004">
        <ele>629.79998779297</ele>
        <time>2021-05-23T09:53:41Z</time>
      </trkpt>
      <trkpt lat="43.67009" lon="6.02004">
        <ele>629.79998779297</ele>
        <time>2021-05-23T09:53:42Z</time>
      </trkpt>
      <trkpt lat="43.67009" lon="6.02004">
        <ele>630</ele>
        <time>2021-05-23T09:53:43Z</time>
      </trkpt>
      <trkpt lat="43.67009" lon="6.02004">
        <ele>630</ele>
        <time>2021-05-23T09:53:44Z</time>
      </trkpt>
      <trkpt lat="43.67009" lon="6.02004">
        <ele>630</ele>
        <time>2021-05-23T09:53:45Z</time>
      </trkpt>
      <trkpt lat="43.67009" lon="6.02004">
        <ele>630</ele>
        <time>2021-05-23T09:53:46Z</time>
      </trkpt>
      <trkpt lat="43.67009" lon="6.02004">
        <ele>629.79998779297</ele>
        <time>2021-05-23T09:53:47Z</time>
      </trkpt>
      <trkpt lat="43.67009" lon="6.02004">
        <ele>629.79998779297</ele>
        <time>2021-05-23T09:53:48Z</time>
      </trkpt>
      <trkpt lat="43.67009" lon="6.02004">
        <ele>629.79998779297</ele>
        <time>2021-05-23T09:53:49Z</time>
      </trkpt>
      <trkpt lat="43.67009" lon="6.02004">
        <ele>629.79998779297</ele>
        <time>2021-05-23T09:53:50Z</time>
      </trkpt>
      <trkpt lat="43.67009" lon="6.02004">
        <ele>629.79998779297</ele>
        <time>2021-05-23T09:53:51Z</time>
      </trkpt>
      <trkpt lat="43.67009" lon="6.02004">
        <ele>629.79998779297</ele>
        <time>2021-05-23T09:53:52Z</time>
      </trkpt>
      <trkpt lat="43.67009" lon="6.02004">
        <ele>629.79998779297</ele>
        <time>2021-05-23T09:53:53Z</time>
      </trkpt>
      <trkpt lat="43.67009" lon="6.02004">
        <ele>629.79998779297</ele>
        <time>2021-05-23T09:53:54Z</time>
      </trkpt>
      <trkpt lat="43.67009" lon="6.02004">
        <ele>629.79998779297</ele>
        <time>2021-05-23T09:53:55Z</time>
      </trkpt>
      <trkpt lat="43.67009" lon="6.02004">
        <ele>629.79998779297</ele>
        <time>2021-05-23T09:53:56Z</time>
      </trkpt>
      <trkpt lat="43.67009" lon="6.02004">
        <ele>629.79998779297</ele>
        <time>2021-05-23T09:53:57Z</time>
      </trkpt>
      <trkpt lat="43.67009" lon="6.02004">
        <ele>629.79998779297</ele>
        <time>2021-05-23T09:53:58Z</time>
      </trkpt>
      <trkpt lat="43.67009" lon="6.02004">
        <ele>629.79998779297</ele>
        <time>2021-05-23T09:53:59Z</time>
      </trkpt>
      <trkpt lat="43.67009" lon="6.02004">
        <ele>629.79998779297</ele>
        <time>2021-05-23T09:54:00Z</time>
      </trkpt>
      <trkpt lat="43.67009" lon="6.02004">
        <ele>629.79998779297</ele>
        <time>2021-05-23T09:54:01Z</time>
      </trkpt>
      <trkpt lat="43.67009" lon="6.02004">
        <ele>629.79998779297</ele>
        <time>2021-05-23T09:54:02Z</time>
      </trkpt>
      <trkpt lat="43.67009" lon="6.02003">
        <ele>629.79998779297</ele>
        <time>2021-05-23T09:54:03Z</time>
      </trkpt>
      <trkpt lat="43.67009" lon="6.02003">
        <ele>630</ele>
        <time>2021-05-23T09:54:04Z</time>
      </trkpt>
      <trkpt lat="43.67009" lon="6.02003">
        <ele>630</ele>
        <time>2021-05-23T09:54:05Z</time>
      </trkpt>
      <trkpt lat="43.67009" lon="6.02003">
        <ele>630</ele>
        <time>2021-05-23T09:54:06Z</time>
      </trkpt>
      <trkpt lat="43.67009" lon="6.02003">
        <ele>630</ele>
        <time>2021-05-23T09:54:07Z</time>
      </trkpt>
      <trkpt lat="43.67009" lon="6.02003">
        <ele>630</ele>
        <time>2021-05-23T09:54:08Z</time>
      </trkpt>
      <trkpt lat="43.67009" lon="6.02003">
        <ele>630</ele>
        <time>2021-05-23T09:54:09Z</time>
      </trkpt>
      <trkpt lat="43.67009" lon="6.02003">
        <ele>630</ele>
        <time>2021-05-23T09:54:10Z</time>
      </trkpt>
      <trkpt lat="43.67009" lon="6.02003">
        <ele>630</ele>
        <time>2021-05-23T09:54:11Z</time>
      </trkpt>
      <trkpt lat="43.67009" lon="6.02003">
        <ele>630</ele>
        <time>2021-05-23T09:54:12Z</time>
      </trkpt>
      <trkpt lat="43.67009" lon="6.02003">
        <ele>630</ele>
        <time>2021-05-23T09:54:13Z</time>
      </trkpt>
      <trkpt lat="43.67009" lon="6.02003">
        <ele>630</ele>
        <time>2021-05-23T09:54:14Z</time>
      </trkpt>
      <trkpt lat="43.67009" lon="6.02003">
        <ele>630</ele>
        <time>2021-05-23T09:54:15Z</time>
      </trkpt>
      <trkpt lat="43.67009" lon="6.02003">
        <ele>630</ele>
        <time>2021-05-23T09:54:16Z</time>
      </trkpt>
      <trkpt lat="43.67009" lon="6.02003">
        <ele>630</ele>
        <time>2021-05-23T09:54:17Z</time>
      </trkpt>
      <trkpt lat="43.67009" lon="6.02003">
        <ele>629.79998779297</ele>
        <time>2021-05-23T09:54:18Z</time>
      </trkpt>
      <trkpt lat="43.67009" lon="6.02003">
        <ele>629.79998779297</ele>
        <time>2021-05-23T09:54:19Z</time>
      </trkpt>
      <trkpt lat="43.67009" lon="6.02003">
        <ele>629.59997558594</ele>
        <time>2021-05-23T09:54:20Z</time>
      </trkpt>
      <trkpt lat="43.67009" lon="6.02003">
        <ele>629.59997558594</ele>
        <time>2021-05-23T09:54:21Z</time>
      </trkpt>
      <trkpt lat="43.67009" lon="6.02003">
        <ele>629.59997558594</ele>
        <time>2021-05-23T09:54:22Z</time>
      </trkpt>
      <trkpt lat="43.67009" lon="6.02003">
        <ele>629.59997558594</ele>
        <time>2021-05-23T09:54:23Z</time>
      </trkpt>
      <trkpt lat="43.67009" lon="6.02003">
        <ele>629.59997558594</ele>
        <time>2021-05-23T09:54:24Z</time>
      </trkpt>
      <trkpt lat="43.67009" lon="6.02003">
        <ele>629.59997558594</ele>
        <time>2021-05-23T09:54:25Z</time>
      </trkpt>
      <trkpt lat="43.67009" lon="6.02003">
        <ele>629.59997558594</ele>
        <time>2021-05-23T09:54:26Z</time>
      </trkpt>
      <trkpt lat="43.67009" lon="6.02003">
        <ele>629.79998779297</ele>
        <time>2021-05-23T09:54:27Z</time>
      </trkpt>
      <trkpt lat="43.67009" lon="6.02003">
        <ele>629.79998779297</ele>
        <time>2021-05-23T09:54:28Z</time>
      </trkpt>
      <trkpt lat="43.67009" lon="6.02003">
        <ele>629.79998779297</ele>
        <time>2021-05-23T09:54:29Z</time>
      </trkpt>
      <trkpt lat="43.67009" lon="6.02003">
        <ele>629.79998779297</ele>
        <time>2021-05-23T09:54:30Z</time>
      </trkpt>
      <trkpt lat="43.67009" lon="6.02003">
        <ele>629.79998779297</ele>
        <time>2021-05-23T09:54:31Z</time>
      </trkpt>
      <trkpt lat="43.67009" lon="6.02003">
        <ele>629.79998779297</ele>
        <time>2021-05-23T09:54:32Z</time>
      </trkpt>
      <trkpt lat="43.67009" lon="6.02003">
        <ele>629.79998779297</ele>
        <time>2021-05-23T09:54:33Z</time>
      </trkpt>
      <trkpt lat="43.67009" lon="6.02003">
        <ele>629.79998779297</ele>
        <time>2021-05-23T09:54:34Z</time>
      </trkpt>
      <trkpt lat="43.67009" lon="6.02003">
        <ele>629.79998779297</ele>
        <time>2021-05-23T09:54:35Z</time>
      </trkpt>
      <trkpt lat="43.67009" lon="6.02003">
        <ele>629.59997558594</ele>
        <time>2021-05-23T09:54:36Z</time>
      </trkpt>
      <trkpt lat="43.67009" lon="6.02003">
        <ele>629.59997558594</ele>
        <time>2021-05-23T09:54:37Z</time>
      </trkpt>
      <trkpt lat="43.67009" lon="6.02003">
        <ele>629.59997558594</ele>
        <time>2021-05-23T09:54:38Z</time>
      </trkpt>
      <trkpt lat="43.67009" lon="6.02003">
        <ele>629.59997558594</ele>
        <time>2021-05-23T09:54:39Z</time>
      </trkpt>
      <trkpt lat="43.67009" lon="6.02003">
        <ele>629.59997558594</ele>
        <time>2021-05-23T09:54:40Z</time>
      </trkpt>
      <trkpt lat="43.67009" lon="6.02003">
        <ele>629.59997558594</ele>
        <time>2021-05-23T09:54:41Z</time>
      </trkpt>
      <trkpt lat="43.67009" lon="6.02003">
        <ele>629.59997558594</ele>
        <time>2021-05-23T09:54:42Z</time>
      </trkpt>
      <trkpt lat="43.67009" lon="6.02003">
        <ele>629.79998779297</ele>
        <time>2021-05-23T09:54:43Z</time>
      </trkpt>
      <trkpt lat="43.67009" lon="6.02003">
        <ele>629.79998779297</ele>
        <time>2021-05-23T09:54:44Z</time>
      </trkpt>
      <trkpt lat="43.67009" lon="6.02003">
        <ele>629.79998779297</ele>
        <time>2021-05-23T09:54:45Z</time>
      </trkpt>
      <trkpt lat="43.67009" lon="6.02003">
        <ele>629.79998779297</ele>
        <time>2021-05-23T09:54:46Z</time>
      </trkpt>
      <trkpt lat="43.67009" lon="6.02003">
        <ele>630</ele>
        <time>2021-05-23T09:54:47Z</time>
      </trkpt>
      <trkpt lat="43.67009" lon="6.02003">
        <ele>630</ele>
        <time>2021-05-23T09:54:48Z</time>
      </trkpt>
      <trkpt lat="43.67009" lon="6.02003">
        <ele>630</ele>
        <time>2021-05-23T09:54:49Z</time>
      </trkpt>
      <trkpt lat="43.67009" lon="6.02003">
        <ele>630</ele>
        <time>2021-05-23T09:54:50Z</time>
      </trkpt>
      <trkpt lat="43.67009" lon="6.02003">
        <ele>630</ele>
        <time>2021-05-23T09:54:51Z</time>
      </trkpt>
      <trkpt lat="43.67009" lon="6.02003">
        <ele>630</ele>
        <time>2021-05-23T09:54:52Z</time>
      </trkpt>
      <trkpt lat="43.67009" lon="6.02003">
        <ele>630</ele>
        <time>2021-05-23T09:54:53Z</time>
      </trkpt>
      <trkpt lat="43.67009" lon="6.02003">
        <ele>630</ele>
        <time>2021-05-23T09:54:54Z</time>
      </trkpt>
      <trkpt lat="43.67009" lon="6.02003">
        <ele>630</ele>
        <time>2021-05-23T09:54:55Z</time>
      </trkpt>
      <trkpt lat="43.67009" lon="6.02003">
        <ele>630</ele>
        <time>2021-05-23T09:54:56Z</time>
      </trkpt>
      <trkpt lat="43.67009" lon="6.02003">
        <ele>630</ele>
        <time>2021-05-23T09:54:57Z</time>
      </trkpt>
      <trkpt lat="43.67009" lon="6.02003">
        <ele>630</ele>
        <time>2021-05-23T09:54:58Z</time>
      </trkpt>
      <trkpt lat="43.67009" lon="6.02003">
        <ele>630</ele>
        <time>2021-05-23T09:54:59Z</time>
      </trkpt>
      <trkpt lat="43.67009" lon="6.02003">
        <ele>630</ele>
        <time>2021-05-23T09:55:00Z</time>
      </trkpt>
      <trkpt lat="43.67009" lon="6.02003">
        <ele>630</ele>
        <time>2021-05-23T09:55:01Z</time>
      </trkpt>
      <trkpt lat="43.67009" lon="6.02003">
        <ele>630</ele>
        <time>2021-05-23T09:55:02Z</time>
      </trkpt>
      <trkpt lat="43.67009" lon="6.02003">
        <ele>630</ele>
        <time>2021-05-23T09:55:03Z</time>
      </trkpt>
      <trkpt lat="43.67009" lon="6.02003">
        <ele>630</ele>
        <time>2021-05-23T09:55:04Z</time>
      </trkpt>
      <trkpt lat="43.67009" lon="6.02003">
        <ele>630</ele>
        <time>2021-05-23T09:55:05Z</time>
      </trkpt>
      <trkpt lat="43.67009" lon="6.02003">
        <ele>630</ele>
        <time>2021-05-23T09:55:06Z</time>
      </trkpt>
      <trkpt lat="43.67009" lon="6.02003">
        <ele>630</ele>
        <time>2021-05-23T09:55:07Z</time>
      </trkpt>
      <trkpt lat="43.67009" lon="6.02003">
        <ele>629.79998779297</ele>
        <time>2021-05-23T09:55:08Z</time>
      </trkpt>
      <trkpt lat="43.67009" lon="6.02003">
        <ele>629.79998779297</ele>
        <time>2021-05-23T09:55:09Z</time>
      </trkpt>
      <trkpt lat="43.67009" lon="6.02002">
        <ele>629.79998779297</ele>
        <time>2021-05-23T09:55:10Z</time>
      </trkpt>
      <trkpt lat="43.67011" lon="6.02001">
        <ele>629.79998779297</ele>
        <time>2021-05-23T09:55:11Z</time>
      </trkpt>
      <trkpt lat="43.67012" lon="6.01999">
        <ele>629.79998779297</ele>
        <time>2021-05-23T09:55:12Z</time>
      </trkpt>
      <trkpt lat="43.67013" lon="6.01998">
        <ele>629.79998779297</ele>
        <time>2021-05-23T09:55:13Z</time>
      </trkpt>
      <trkpt lat="43.67014" lon="6.01996">
        <ele>629.79998779297</ele>
        <time>2021-05-23T09:55:14Z</time>
      </trkpt>
      <trkpt lat="43.67015" lon="6.01994">
        <ele>629.79998779297</ele>
        <time>2021-05-23T09:55:15Z</time>
      </trkpt>
      <trkpt lat="43.67016" lon="6.01992">
        <ele>629.79998779297</ele>
        <time>2021-05-23T09:55:16Z</time>
      </trkpt>
      <trkpt lat="43.67017" lon="6.01991">
        <ele>629.59997558594</ele>
        <time>2021-05-23T09:55:17Z</time>
      </trkpt>
      <trkpt lat="43.67018" lon="6.01989">
        <ele>629.59997558594</ele>
        <time>2021-05-23T09:55:18Z</time>
      </trkpt>
      <trkpt lat="43.67019" lon="6.01987">
        <ele>629.40002441406</ele>
        <time>2021-05-23T09:55:19Z</time>
      </trkpt>
      <trkpt lat="43.67021" lon="6.01985">
        <ele>629.40002441406</ele>
        <time>2021-05-23T09:55:20Z</time>
      </trkpt>
      <trkpt lat="43.67023" lon="6.01983">
        <ele>629.59997558594</ele>
        <time>2021-05-23T09:55:21Z</time>
      </trkpt>
      <trkpt lat="43.67024" lon="6.01982">
        <ele>629.59997558594</ele>
        <time>2021-05-23T09:55:22Z</time>
      </trkpt>
      <trkpt lat="43.67026" lon="6.0198">
        <ele>629.59997558594</ele>
        <time>2021-05-23T09:55:23Z</time>
      </trkpt>
      <trkpt lat="43.67027" lon="6.01977">
        <ele>629.59997558594</ele>
        <time>2021-05-23T09:55:24Z</time>
      </trkpt>
      <trkpt lat="43.67028" lon="6.01974">
        <ele>629.59997558594</ele>
        <time>2021-05-23T09:55:25Z</time>
      </trkpt>
      <trkpt lat="43.67029" lon="6.01971">
        <ele>629.59997558594</ele>
        <time>2021-05-23T09:55:26Z</time>
      </trkpt>
      <trkpt lat="43.6703" lon="6.01967">
        <ele>629.59997558594</ele>
        <time>2021-05-23T09:55:27Z</time>
      </trkpt>
      <trkpt lat="43.67032" lon="6.01965">
        <ele>629.59997558594</ele>
        <time>2021-05-23T09:55:28Z</time>
      </trkpt>
      <trkpt lat="43.67033" lon="6.01962">
        <ele>629.59997558594</ele>
        <time>2021-05-23T09:55:29Z</time>
      </trkpt>
      <trkpt lat="43.67035" lon="6.01959">
        <ele>629.40002441406</ele>
        <time>2021-05-23T09:55:30Z</time>
      </trkpt>
      <trkpt lat="43.67037" lon="6.01956">
        <ele>629.40002441406</ele>
        <time>2021-05-23T09:55:31Z</time>
      </trkpt>
      <trkpt lat="43.67038" lon="6.01953">
        <ele>629.40002441406</ele>
        <time>2021-05-23T09:55:32Z</time>
      </trkpt>
      <trkpt lat="43.6704" lon="6.0195">
        <ele>629.20001220703</ele>
        <time>2021-05-23T09:55:33Z</time>
      </trkpt>
      <trkpt lat="43.67041" lon="6.01947">
        <ele>629.20001220703</ele>
        <time>2021-05-23T09:55:34Z</time>
      </trkpt>
      <trkpt lat="43.67043" lon="6.01943">
        <ele>629.20001220703</ele>
        <time>2021-05-23T09:55:35Z</time>
      </trkpt>
      <trkpt lat="43.67044" lon="6.01941">
        <ele>629.20001220703</ele>
        <time>2021-05-23T09:55:36Z</time>
      </trkpt>
      <trkpt lat="43.67047" lon="6.01939">
        <ele>629.20001220703</ele>
        <time>2021-05-23T09:55:37Z</time>
      </trkpt>
      <trkpt lat="43.67049" lon="6.01937">
        <ele>629.40002441406</ele>
        <time>2021-05-23T09:55:38Z</time>
      </trkpt>
      <trkpt lat="43.67051" lon="6.01934">
        <ele>629.40002441406</ele>
        <time>2021-05-23T09:55:39Z</time>
      </trkpt>
      <trkpt lat="43.67054" lon="6.01931">
        <ele>629.40002441406</ele>
        <time>2021-05-23T09:55:40Z</time>
      </trkpt>
      <trkpt lat="43.67056" lon="6.01928">
        <ele>629.40002441406</ele>
        <time>2021-05-23T09:55:41Z</time>
      </trkpt>
      <trkpt lat="43.67057" lon="6.01925">
        <ele>629.59997558594</ele>
        <time>2021-05-23T09:55:42Z</time>
      </trkpt>
      <trkpt lat="43.67058" lon="6.01922">
        <ele>629.59997558594</ele>
        <time>2021-05-23T09:55:43Z</time>
      </trkpt>
      <trkpt lat="43.67059" lon="6.01918">
        <ele>629.59997558594</ele>
        <time>2021-05-23T09:55:44Z</time>
      </trkpt>
      <trkpt lat="43.67059" lon="6.01914">
        <ele>629.59997558594</ele>
        <time>2021-05-23T09:55:45Z</time>
      </trkpt>
      <trkpt lat="43.67059" lon="6.01911">
        <ele>629.59997558594</ele>
        <time>2021-05-23T09:55:46Z</time>
      </trkpt>
      <trkpt lat="43.67059" lon="6.01908">
        <ele>629.79998779297</ele>
        <time>2021-05-23T09:55:47Z</time>
      </trkpt>
      <trkpt lat="43.67059" lon="6.01905">
        <ele>629.79998779297</ele>
        <time>2021-05-23T09:55:48Z</time>
      </trkpt>
      <trkpt lat="43.67058" lon="6.01902">
        <ele>629.79998779297</ele>
        <time>2021-05-23T09:55:49Z</time>
      </trkpt>
      <trkpt lat="43.67058" lon="6.01898">
        <ele>629.79998779297</ele>
        <time>2021-05-23T09:55:50Z</time>
      </trkpt>
      <trkpt lat="43.67058" lon="6.01895">
        <ele>629.79998779297</ele>
        <time>2021-05-23T09:55:51Z</time>
      </trkpt>
      <trkpt lat="43.67058" lon="6.01891">
        <ele>629.79998779297</ele>
        <time>2021-05-23T09:55:52Z</time>
      </trkpt>
      <trkpt lat="43.67058" lon="6.01887">
        <ele>629.79998779297</ele>
        <time>2021-05-23T09:55:53Z</time>
      </trkpt>
      <trkpt lat="43.67058" lon="6.01884">
        <ele>630</ele>
        <time>2021-05-23T09:55:54Z</time>
      </trkpt>
      <trkpt lat="43.67057" lon="6.0188">
        <ele>630</ele>
        <time>2021-05-23T09:55:55Z</time>
      </trkpt>
      <trkpt lat="43.67058" lon="6.01876">
        <ele>630</ele>
        <time>2021-05-23T09:55:56Z</time>
      </trkpt>
      <trkpt lat="43.67057" lon="6.01872">
        <ele>630</ele>
        <time>2021-05-23T09:55:57Z</time>
      </trkpt>
      <trkpt lat="43.67058" lon="6.01869">
        <ele>630</ele>
        <time>2021-05-23T09:55:58Z</time>
      </trkpt>
      <trkpt lat="43.67058" lon="6.01866">
        <ele>630.20001220703</ele>
        <time>2021-05-23T09:55:59Z</time>
      </trkpt>
      <trkpt lat="43.67058" lon="6.01864">
        <ele>630.20001220703</ele>
        <time>2021-05-23T09:56:00Z</time>
      </trkpt>
      <trkpt lat="43.67059" lon="6.01861">
        <ele>630.20001220703</ele>
        <time>2021-05-23T09:56:01Z</time>
      </trkpt>
      <trkpt lat="43.6706" lon="6.01858">
        <ele>630.40002441406</ele>
        <time>2021-05-23T09:56:02Z</time>
      </trkpt>
      <trkpt lat="43.67061" lon="6.01855">
        <ele>630.40002441406</ele>
        <time>2021-05-23T09:56:03Z</time>
      </trkpt>
      <trkpt lat="43.67062" lon="6.01853">
        <ele>630.59997558594</ele>
        <time>2021-05-23T09:56:04Z</time>
      </trkpt>
      <trkpt lat="43.67063" lon="6.0185">
        <ele>630.59997558594</ele>
        <time>2021-05-23T09:56:05Z</time>
      </trkpt>
      <trkpt lat="43.67064" lon="6.01848">
        <ele>630.59997558594</ele>
        <time>2021-05-23T09:56:06Z</time>
      </trkpt>
      <trkpt lat="43.67065" lon="6.01845">
        <ele>630.59997558594</ele>
        <time>2021-05-23T09:56:07Z</time>
      </trkpt>
      <trkpt lat="43.67066" lon="6.01843">
        <ele>630.59997558594</ele>
        <time>2021-05-23T09:56:08Z</time>
      </trkpt>
      <trkpt lat="43.67067" lon="6.0184">
        <ele>630.59997558594</ele>
        <time>2021-05-23T09:56:09Z</time>
      </trkpt>
      <trkpt lat="43.67068" lon="6.01838">
        <ele>630.40002441406</ele>
        <time>2021-05-23T09:56:10Z</time>
      </trkpt>
      <trkpt lat="43.6707" lon="6.01835">
        <ele>630.40002441406</ele>
        <time>2021-05-23T09:56:11Z</time>
      </trkpt>
      <trkpt lat="43.67071" lon="6.01832">
        <ele>630.40002441406</ele>
        <time>2021-05-23T09:56:12Z</time>
      </trkpt>
      <trkpt lat="43.67072" lon="6.01829">
        <ele>630.20001220703</ele>
        <time>2021-05-23T09:56:13Z</time>
      </trkpt>
      <trkpt lat="43.67074" lon="6.01826">
        <ele>630</ele>
        <time>2021-05-23T09:56:14Z</time>
      </trkpt>
      <trkpt lat="43.67076" lon="6.01824">
        <ele>630</ele>
        <time>2021-05-23T09:56:15Z</time>
      </trkpt>
      <trkpt lat="43.67077" lon="6.01821">
        <ele>630</ele>
        <time>2021-05-23T09:56:16Z</time>
      </trkpt>
      <trkpt lat="43.67079" lon="6.01818">
        <ele>630</ele>
        <time>2021-05-23T09:56:17Z</time>
      </trkpt>
      <trkpt lat="43.67081" lon="6.01815">
        <ele>630</ele>
        <time>2021-05-23T09:56:18Z</time>
      </trkpt>
      <trkpt lat="43.67083" lon="6.01812">
        <ele>630</ele>
        <time>2021-05-23T09:56:19Z</time>
      </trkpt>
      <trkpt lat="43.67084" lon="6.01809">
        <ele>630.20001220703</ele>
        <time>2021-05-23T09:56:20Z</time>
      </trkpt>
      <trkpt lat="43.67086" lon="6.01806">
        <ele>630.20001220703</ele>
        <time>2021-05-23T09:56:21Z</time>
      </trkpt>
      <trkpt lat="43.67089" lon="6.01803">
        <ele>630.20001220703</ele>
        <time>2021-05-23T09:56:22Z</time>
      </trkpt>
      <trkpt lat="43.67091" lon="6.018">
        <ele>630.20001220703</ele>
        <time>2021-05-23T09:56:23Z</time>
      </trkpt>
      <trkpt lat="43.67093" lon="6.01797">
        <ele>630.20001220703</ele>
        <time>2021-05-23T09:56:24Z</time>
      </trkpt>
      <trkpt lat="43.67095" lon="6.01795">
        <ele>630</ele>
        <time>2021-05-23T09:56:25Z</time>
      </trkpt>
      <trkpt lat="43.67098" lon="6.01793">
        <ele>630</ele>
        <time>2021-05-23T09:56:26Z</time>
      </trkpt>
      <trkpt lat="43.671" lon="6.0179">
        <ele>630</ele>
        <time>2021-05-23T09:56:27Z</time>
      </trkpt>
      <trkpt lat="43.67103" lon="6.01788">
        <ele>629.79998779297</ele>
        <time>2021-05-23T09:56:28Z</time>
      </trkpt>
      <trkpt lat="43.67105" lon="6.01785">
        <ele>629.79998779297</ele>
        <time>2021-05-23T09:56:29Z</time>
      </trkpt>
      <trkpt lat="43.67107" lon="6.01782">
        <ele>629.59997558594</ele>
        <time>2021-05-23T09:56:30Z</time>
      </trkpt>
      <trkpt lat="43.67109" lon="6.01779">
        <ele>629.59997558594</ele>
        <time>2021-05-23T09:56:31Z</time>
      </trkpt>
      <trkpt lat="43.6711" lon="6.01775">
        <ele>629.59997558594</ele>
        <time>2021-05-23T09:56:32Z</time>
      </trkpt>
      <trkpt lat="43.67112" lon="6.01772">
        <ele>629.59997558594</ele>
        <time>2021-05-23T09:56:33Z</time>
      </trkpt>
      <trkpt lat="43.67113" lon="6.01768">
        <ele>629.59997558594</ele>
        <time>2021-05-23T09:56:34Z</time>
      </trkpt>
      <trkpt lat="43.67115" lon="6.01765">
        <ele>629.40002441406</ele>
        <time>2021-05-23T09:56:35Z</time>
      </trkpt>
      <trkpt lat="43.67117" lon="6.01762">
        <ele>629.20001220703</ele>
        <time>2021-05-23T09:56:36Z</time>
      </trkpt>
      <trkpt lat="43.67119" lon="6.01759">
        <ele>629.20001220703</ele>
        <time>2021-05-23T09:56:37Z</time>
      </trkpt>
      <trkpt lat="43.67121" lon="6.01756">
        <ele>629.20001220703</ele>
        <time>2021-05-23T09:56:38Z</time>
      </trkpt>
      <trkpt lat="43.67123" lon="6.01753">
        <ele>629.20001220703</ele>
        <time>2021-05-23T09:56:39Z</time>
      </trkpt>
      <trkpt lat="43.67125" lon="6.01751">
        <ele>629.20001220703</ele>
        <time>2021-05-23T09:56:40Z</time>
      </trkpt>
      <trkpt lat="43.67128" lon="6.01749">
        <ele>629.40002441406</ele>
        <time>2021-05-23T09:56:41Z</time>
      </trkpt>
      <trkpt lat="43.67131" lon="6.01748">
        <ele>629.40002441406</ele>
        <time>2021-05-23T09:56:42Z</time>
      </trkpt>
      <trkpt lat="43.67134" lon="6.01747">
        <ele>629.40002441406</ele>
        <time>2021-05-23T09:56:43Z</time>
      </trkpt>
      <trkpt lat="43.67137" lon="6.01746">
        <ele>629.40002441406</ele>
        <time>2021-05-23T09:56:44Z</time>
      </trkpt>
      <trkpt lat="43.6714" lon="6.01745">
        <ele>629.40002441406</ele>
        <time>2021-05-23T09:56:45Z</time>
      </trkpt>
      <trkpt lat="43.67142" lon="6.01742">
        <ele>629.20001220703</ele>
        <time>2021-05-23T09:56:46Z</time>
      </trkpt>
      <trkpt lat="43.67145" lon="6.0174">
        <ele>629</ele>
        <time>2021-05-23T09:56:47Z</time>
      </trkpt>
      <trkpt lat="43.67148" lon="6.01738">
        <ele>628.79998779297</ele>
        <time>2021-05-23T09:56:48Z</time>
      </trkpt>
      <trkpt lat="43.67151" lon="6.01736">
        <ele>628.59997558594</ele>
        <time>2021-05-23T09:56:49Z</time>
      </trkpt>
      <trkpt lat="43.67155" lon="6.01733">
        <ele>628.40002441406</ele>
        <time>2021-05-23T09:56:50Z</time>
      </trkpt>
      <trkpt lat="43.67158" lon="6.01731">
        <ele>628.40002441406</ele>
        <time>2021-05-23T09:56:51Z</time>
      </trkpt>
      <trkpt lat="43.67161" lon="6.01729">
        <ele>628</ele>
        <time>2021-05-23T09:56:52Z</time>
      </trkpt>
      <trkpt lat="43.67164" lon="6.01729">
        <ele>627.79998779297</ele>
        <time>2021-05-23T09:56:53Z</time>
      </trkpt>
      <trkpt lat="43.67167" lon="6.0173">
        <ele>627.59997558594</ele>
        <time>2021-05-23T09:56:54Z</time>
      </trkpt>
      <trkpt lat="43.6717" lon="6.01732">
        <ele>627.40002441406</ele>
        <time>2021-05-23T09:56:55Z</time>
      </trkpt>
      <trkpt lat="43.67172" lon="6.01734">
        <ele>627.20001220703</ele>
        <time>2021-05-23T09:56:56Z</time>
      </trkpt>
      <trkpt lat="43.67175" lon="6.01736">
        <ele>627.20001220703</ele>
        <time>2021-05-23T09:56:57Z</time>
      </trkpt>
      <trkpt lat="43.67178" lon="6.01737">
        <ele>627</ele>
        <time>2021-05-23T09:56:58Z</time>
      </trkpt>
      <trkpt lat="43.6718" lon="6.01738">
        <ele>626.79998779297</ele>
        <time>2021-05-23T09:56:59Z</time>
      </trkpt>
      <trkpt lat="43.67183" lon="6.01737">
        <ele>626.40002441406</ele>
        <time>2021-05-23T09:57:00Z</time>
      </trkpt>
      <trkpt lat="43.67186" lon="6.01736">
        <ele>626.20001220703</ele>
        <time>2021-05-23T09:57:01Z</time>
      </trkpt>
      <trkpt lat="43.67189" lon="6.01733">
        <ele>626</ele>
        <time>2021-05-23T09:57:02Z</time>
      </trkpt>
      <trkpt lat="43.6719" lon="6.0173">
        <ele>625.79998779297</ele>
        <time>2021-05-23T09:57:03Z</time>
      </trkpt>
      <trkpt lat="43.67192" lon="6.01726">
        <ele>625.59997558594</ele>
        <time>2021-05-23T09:57:04Z</time>
      </trkpt>
      <trkpt lat="43.67193" lon="6.01723">
        <ele>625.59997558594</ele>
        <time>2021-05-23T09:57:05Z</time>
      </trkpt>
      <trkpt lat="43.67194" lon="6.0172">
        <ele>625.40002441406</ele>
        <time>2021-05-23T09:57:06Z</time>
      </trkpt>
      <trkpt lat="43.67196" lon="6.01718">
        <ele>625.40002441406</ele>
        <time>2021-05-23T09:57:07Z</time>
      </trkpt>
      <trkpt lat="43.67198" lon="6.01715">
        <ele>625.40002441406</ele>
        <time>2021-05-23T09:57:08Z</time>
      </trkpt>
      <trkpt lat="43.672" lon="6.01713">
        <ele>625.40002441406</ele>
        <time>2021-05-23T09:57:09Z</time>
      </trkpt>
      <trkpt lat="43.67202" lon="6.0171">
        <ele>625.40002441406</ele>
        <time>2021-05-23T09:57:10Z</time>
      </trkpt>
      <trkpt lat="43.67205" lon="6.01706">
        <ele>625.40002441406</ele>
        <time>2021-05-23T09:57:11Z</time>
      </trkpt>
      <trkpt lat="43.67207" lon="6.01703">
        <ele>625.40002441406</ele>
        <time>2021-05-23T09:57:12Z</time>
      </trkpt>
      <trkpt lat="43.6721" lon="6.01699">
        <ele>625.40002441406</ele>
        <time>2021-05-23T09:57:13Z</time>
      </trkpt>
      <trkpt lat="43.67212" lon="6.01696">
        <ele>625.40002441406</ele>
        <time>2021-05-23T09:57:14Z</time>
      </trkpt>
      <trkpt lat="43.67215" lon="6.01692">
        <ele>625.20001220703</ele>
        <time>2021-05-23T09:57:15Z</time>
      </trkpt>
      <trkpt lat="43.67218" lon="6.01689">
        <ele>625.20001220703</ele>
        <time>2021-05-23T09:57:16Z</time>
      </trkpt>
      <trkpt lat="43.67221" lon="6.01686">
        <ele>625</ele>
        <time>2021-05-23T09:57:17Z</time>
      </trkpt>
      <trkpt lat="43.67224" lon="6.01682">
        <ele>625</ele>
        <time>2021-05-23T09:57:18Z</time>
      </trkpt>
      <trkpt lat="43.67227" lon="6.01679">
        <ele>625.20001220703</ele>
        <time>2021-05-23T09:57:19Z</time>
      </trkpt>
      <trkpt lat="43.67231" lon="6.01675">
        <ele>625</ele>
        <time>2021-05-23T09:57:20Z</time>
      </trkpt>
      <trkpt lat="43.67234" lon="6.01672">
        <ele>625.20001220703</ele>
        <time>2021-05-23T09:57:21Z</time>
      </trkpt>
      <trkpt lat="43.67237" lon="6.01669">
        <ele>625.20001220703</ele>
        <time>2021-05-23T09:57:22Z</time>
      </trkpt>
      <trkpt lat="43.6724" lon="6.01665">
        <ele>625.20001220703</ele>
        <time>2021-05-23T09:57:23Z</time>
      </trkpt>
      <trkpt lat="43.67243" lon="6.01662">
        <ele>625.20001220703</ele>
        <time>2021-05-23T09:57:24Z</time>
      </trkpt>
      <trkpt lat="43.67246" lon="6.01659">
        <ele>625</ele>
        <time>2021-05-23T09:57:25Z</time>
      </trkpt>
      <trkpt lat="43.6725" lon="6.01656">
        <ele>625</ele>
        <time>2021-05-23T09:57:26Z</time>
      </trkpt>
      <trkpt lat="43.67253" lon="6.01653">
        <ele>625</ele>
        <time>2021-05-23T09:57:27Z</time>
      </trkpt>
      <trkpt lat="43.67256" lon="6.0165">
        <ele>625</ele>
        <time>2021-05-23T09:57:28Z</time>
      </trkpt>
      <trkpt lat="43.67259" lon="6.01647">
        <ele>625</ele>
        <time>2021-05-23T09:57:29Z</time>
      </trkpt>
      <trkpt lat="43.67262" lon="6.01643">
        <ele>625</ele>
        <time>2021-05-23T09:57:30Z</time>
      </trkpt>
      <trkpt lat="43.67264" lon="6.0164">
        <ele>625</ele>
        <time>2021-05-23T09:57:31Z</time>
      </trkpt>
      <trkpt lat="43.67267" lon="6.01637">
        <ele>625</ele>
        <time>2021-05-23T09:57:32Z</time>
      </trkpt>
      <trkpt lat="43.67269" lon="6.01634">
        <ele>625</ele>
        <time>2021-05-23T09:57:33Z</time>
      </trkpt>
      <trkpt lat="43.67271" lon="6.01632">
        <ele>624.79998779297</ele>
        <time>2021-05-23T09:57:34Z</time>
      </trkpt>
      <trkpt lat="43.67272" lon="6.0163">
        <ele>624.79998779297</ele>
        <time>2021-05-23T09:57:35Z</time>
      </trkpt>
      <trkpt lat="43.67273" lon="6.01628">
        <ele>624.79998779297</ele>
        <time>2021-05-23T09:57:36Z</time>
      </trkpt>
      <trkpt lat="43.67275" lon="6.01626">
        <ele>625</ele>
        <time>2021-05-23T09:57:37Z</time>
      </trkpt>
      <trkpt lat="43.67276" lon="6.01624">
        <ele>625</ele>
        <time>2021-05-23T09:57:38Z</time>
      </trkpt>
      <trkpt lat="43.67277" lon="6.01623">
        <ele>625</ele>
        <time>2021-05-23T09:57:39Z</time>
      </trkpt>
      <trkpt lat="43.67278" lon="6.01621">
        <ele>625</ele>
        <time>2021-05-23T09:57:40Z</time>
      </trkpt>
      <trkpt lat="43.67279" lon="6.0162">
        <ele>625</ele>
        <time>2021-05-23T09:57:41Z</time>
      </trkpt>
      <trkpt lat="43.6728" lon="6.01618">
        <ele>625</ele>
        <time>2021-05-23T09:57:42Z</time>
      </trkpt>
      <trkpt lat="43.6728" lon="6.01616">
        <ele>624.79998779297</ele>
        <time>2021-05-23T09:57:43Z</time>
      </trkpt>
      <trkpt lat="43.67281" lon="6.01614">
        <ele>624.79998779297</ele>
        <time>2021-05-23T09:57:44Z</time>
      </trkpt>
      <trkpt lat="43.67281" lon="6.01612">
        <ele>624.79998779297</ele>
        <time>2021-05-23T09:57:45Z</time>
      </trkpt>
      <trkpt lat="43.67281" lon="6.01609">
        <ele>624.79998779297</ele>
        <time>2021-05-23T09:57:46Z</time>
      </trkpt>
      <trkpt lat="43.67281" lon="6.01606">
        <ele>624.79998779297</ele>
        <time>2021-05-23T09:57:47Z</time>
      </trkpt>
      <trkpt lat="43.67281" lon="6.01603">
        <ele>624.59997558594</ele>
        <time>2021-05-23T09:57:48Z</time>
      </trkpt>
      <trkpt lat="43.67281" lon="6.016">
        <ele>624.59997558594</ele>
        <time>2021-05-23T09:57:49Z</time>
      </trkpt>
      <trkpt lat="43.67281" lon="6.01597">
        <ele>624.59997558594</ele>
        <time>2021-05-23T09:57:50Z</time>
      </trkpt>
      <trkpt lat="43.67282" lon="6.01593">
        <ele>624.40002441406</ele>
        <time>2021-05-23T09:57:51Z</time>
      </trkpt>
      <trkpt lat="43.67282" lon="6.01589">
        <ele>624.40002441406</ele>
        <time>2021-05-23T09:57:52Z</time>
      </trkpt>
      <trkpt lat="43.67282" lon="6.01585">
        <ele>624.40002441406</ele>
        <time>2021-05-23T09:57:53Z</time>
      </trkpt>
      <trkpt lat="43.67282" lon="6.01581">
        <ele>624.20001220703</ele>
        <time>2021-05-23T09:57:54Z</time>
      </trkpt>
      <trkpt lat="43.67282" lon="6.01577">
        <ele>624.20001220703</ele>
        <time>2021-05-23T09:57:55Z</time>
      </trkpt>
      <trkpt lat="43.67282" lon="6.01573">
        <ele>624.20001220703</ele>
        <time>2021-05-23T09:57:56Z</time>
      </trkpt>
      <trkpt lat="43.67283" lon="6.01569">
        <ele>624.20001220703</ele>
        <time>2021-05-23T09:57:57Z</time>
      </trkpt>
      <trkpt lat="43.67283" lon="6.01565">
        <ele>624.20001220703</ele>
        <time>2021-05-23T09:57:58Z</time>
      </trkpt>
      <trkpt lat="43.67283" lon="6.01561">
        <ele>624.20001220703</ele>
        <time>2021-05-23T09:57:59Z</time>
      </trkpt>
      <trkpt lat="43.67283" lon="6.01557">
        <ele>624.20001220703</ele>
        <time>2021-05-23T09:58:00Z</time>
      </trkpt>
      <trkpt lat="43.67284" lon="6.01553">
        <ele>624.20001220703</ele>
        <time>2021-05-23T09:58:01Z</time>
      </trkpt>
      <trkpt lat="43.67285" lon="6.01549">
        <ele>624.20001220703</ele>
        <time>2021-05-23T09:58:02Z</time>
      </trkpt>
      <trkpt lat="43.67285" lon="6.01545">
        <ele>624.20001220703</ele>
        <time>2021-05-23T09:58:03Z</time>
      </trkpt>
      <trkpt lat="43.67286" lon="6.01541">
        <ele>624.20001220703</ele>
        <time>2021-05-23T09:58:04Z</time>
      </trkpt>
      <trkpt lat="43.67286" lon="6.01537">
        <ele>624.20001220703</ele>
        <time>2021-05-23T09:58:05Z</time>
      </trkpt>
      <trkpt lat="43.67287" lon="6.01533">
        <ele>624</ele>
        <time>2021-05-23T09:58:06Z</time>
      </trkpt>
      <trkpt lat="43.67288" lon="6.01528">
        <ele>624</ele>
        <time>2021-05-23T09:58:07Z</time>
      </trkpt>
      <trkpt lat="43.67288" lon="6.01524">
        <ele>624</ele>
        <time>2021-05-23T09:58:08Z</time>
      </trkpt>
      <trkpt lat="43.67289" lon="6.0152">
        <ele>623.79998779297</ele>
        <time>2021-05-23T09:58:09Z</time>
      </trkpt>
      <trkpt lat="43.6729" lon="6.01515">
        <ele>623.79998779297</ele>
        <time>2021-05-23T09:58:10Z</time>
      </trkpt>
      <trkpt lat="43.6729" lon="6.01511">
        <ele>623.79998779297</ele>
        <time>2021-05-23T09:58:11Z</time>
      </trkpt>
      <trkpt lat="43.67291" lon="6.01506">
        <ele>623.59997558594</ele>
        <time>2021-05-23T09:58:12Z</time>
      </trkpt>
      <trkpt lat="43.67292" lon="6.01502">
        <ele>623.40002441406</ele>
        <time>2021-05-23T09:58:13Z</time>
      </trkpt>
      <trkpt lat="43.67292" lon="6.01498">
        <ele>623.40002441406</ele>
        <time>2021-05-23T09:58:14Z</time>
      </trkpt>
      <trkpt lat="43.67293" lon="6.01493">
        <ele>623.40002441406</ele>
        <time>2021-05-23T09:58:15Z</time>
      </trkpt>
      <trkpt lat="43.67294" lon="6.01489">
        <ele>623.20001220703</ele>
        <time>2021-05-23T09:58:16Z</time>
      </trkpt>
      <trkpt lat="43.67295" lon="6.01485">
        <ele>623.20001220703</ele>
        <time>2021-05-23T09:58:17Z</time>
      </trkpt>
      <trkpt lat="43.67296" lon="6.01481">
        <ele>623.20001220703</ele>
        <time>2021-05-23T09:58:18Z</time>
      </trkpt>
      <trkpt lat="43.67297" lon="6.01477">
        <ele>623.20001220703</ele>
        <time>2021-05-23T09:58:19Z</time>
      </trkpt>
      <trkpt lat="43.67298" lon="6.01473">
        <ele>623.20001220703</ele>
        <time>2021-05-23T09:58:20Z</time>
      </trkpt>
      <trkpt lat="43.67299" lon="6.01469">
        <ele>623</ele>
        <time>2021-05-23T09:58:21Z</time>
      </trkpt>
      <trkpt lat="43.67301" lon="6.01465">
        <ele>623</ele>
        <time>2021-05-23T09:58:22Z</time>
      </trkpt>
      <trkpt lat="43.67302" lon="6.01461">
        <ele>623</ele>
        <time>2021-05-23T09:58:23Z</time>
      </trkpt>
      <trkpt lat="43.67303" lon="6.01457">
        <ele>623</ele>
        <time>2021-05-23T09:58:24Z</time>
      </trkpt>
      <trkpt lat="43.67304" lon="6.01453">
        <ele>623</ele>
        <time>2021-05-23T09:58:25Z</time>
      </trkpt>
      <trkpt lat="43.67305" lon="6.01449">
        <ele>623</ele>
        <time>2021-05-23T09:58:26Z</time>
      </trkpt>
      <trkpt lat="43.67307" lon="6.01445">
        <ele>623</ele>
        <time>2021-05-23T09:58:27Z</time>
      </trkpt>
      <trkpt lat="43.67309" lon="6.01442">
        <ele>622.79998779297</ele>
        <time>2021-05-23T09:58:28Z</time>
      </trkpt>
      <trkpt lat="43.6731" lon="6.01438">
        <ele>622.79998779297</ele>
        <time>2021-05-23T09:58:29Z</time>
      </trkpt>
      <trkpt lat="43.67312" lon="6.01435">
        <ele>622.79998779297</ele>
        <time>2021-05-23T09:58:30Z</time>
      </trkpt>
      <trkpt lat="43.67314" lon="6.01431">
        <ele>622.79998779297</ele>
        <time>2021-05-23T09:58:31Z</time>
      </trkpt>
      <trkpt lat="43.67317" lon="6.01428">
        <ele>622.79998779297</ele>
        <time>2021-05-23T09:58:32Z</time>
      </trkpt>
      <trkpt lat="43.67319" lon="6.01425">
        <ele>623</ele>
        <time>2021-05-23T09:58:33Z</time>
      </trkpt>
      <trkpt lat="43.67321" lon="6.01421">
        <ele>623</ele>
        <time>2021-05-23T09:58:34Z</time>
      </trkpt>
      <trkpt lat="43.67323" lon="6.01418">
        <ele>623</ele>
        <time>2021-05-23T09:58:35Z</time>
      </trkpt>
      <trkpt lat="43.67325" lon="6.01415">
        <ele>623</ele>
        <time>2021-05-23T09:58:36Z</time>
      </trkpt>
      <trkpt lat="43.67328" lon="6.01412">
        <ele>623</ele>
        <time>2021-05-23T09:58:37Z</time>
      </trkpt>
      <trkpt lat="43.6733" lon="6.01408">
        <ele>623</ele>
        <time>2021-05-23T09:58:38Z</time>
      </trkpt>
      <trkpt lat="43.67332" lon="6.01406">
        <ele>622.79998779297</ele>
        <time>2021-05-23T09:58:39Z</time>
      </trkpt>
      <trkpt lat="43.67335" lon="6.01403">
        <ele>622.79998779297</ele>
        <time>2021-05-23T09:58:40Z</time>
      </trkpt>
      <trkpt lat="43.67338" lon="6.014">
        <ele>622.59997558594</ele>
        <time>2021-05-23T09:58:41Z</time>
      </trkpt>
      <trkpt lat="43.67341" lon="6.01397">
        <ele>622.59997558594</ele>
        <time>2021-05-23T09:58:42Z</time>
      </trkpt>
      <trkpt lat="43.67343" lon="6.01394">
        <ele>622.59997558594</ele>
        <time>2021-05-23T09:58:43Z</time>
      </trkpt>
      <trkpt lat="43.67346" lon="6.0139">
        <ele>622.59997558594</ele>
        <time>2021-05-23T09:58:44Z</time>
      </trkpt>
      <trkpt lat="43.67348" lon="6.01387">
        <ele>622.40002441406</ele>
        <time>2021-05-23T09:58:45Z</time>
      </trkpt>
      <trkpt lat="43.67351" lon="6.01383">
        <ele>622.40002441406</ele>
        <time>2021-05-23T09:58:46Z</time>
      </trkpt>
      <trkpt lat="43.67353" lon="6.01379">
        <ele>622.40002441406</ele>
        <time>2021-05-23T09:58:47Z</time>
      </trkpt>
      <trkpt lat="43.67354" lon="6.01375">
        <ele>622.20001220703</ele>
        <time>2021-05-23T09:58:48Z</time>
      </trkpt>
      <trkpt lat="43.67356" lon="6.0137">
        <ele>622.20001220703</ele>
        <time>2021-05-23T09:58:49Z</time>
      </trkpt>
      <trkpt lat="43.67357" lon="6.01366">
        <ele>622.20001220703</ele>
        <time>2021-05-23T09:58:50Z</time>
      </trkpt>
      <trkpt lat="43.67358" lon="6.01362">
        <ele>622.20001220703</ele>
        <time>2021-05-23T09:58:51Z</time>
      </trkpt>
      <trkpt lat="43.6736" lon="6.01357">
        <ele>622.20001220703</ele>
        <time>2021-05-23T09:58:52Z</time>
      </trkpt>
      <trkpt lat="43.67361" lon="6.01353">
        <ele>622.20001220703</ele>
        <time>2021-05-23T09:58:53Z</time>
      </trkpt>
      <trkpt lat="43.67362" lon="6.01349">
        <ele>622.20001220703</ele>
        <time>2021-05-23T09:58:54Z</time>
      </trkpt>
      <trkpt lat="43.67363" lon="6.01345">
        <ele>622</ele>
        <time>2021-05-23T09:58:55Z</time>
      </trkpt>
      <trkpt lat="43.67365" lon="6.01341">
        <ele>622</ele>
        <time>2021-05-23T09:58:56Z</time>
      </trkpt>
      <trkpt lat="43.67366" lon="6.01337">
        <ele>622</ele>
        <time>2021-05-23T09:58:57Z</time>
      </trkpt>
      <trkpt lat="43.67369" lon="6.01334">
        <ele>621.79998779297</ele>
        <time>2021-05-23T09:58:58Z</time>
      </trkpt>
      <trkpt lat="43.67371" lon="6.01331">
        <ele>621.79998779297</ele>
        <time>2021-05-23T09:58:59Z</time>
      </trkpt>
      <trkpt lat="43.67373" lon="6.01327">
        <ele>621.79998779297</ele>
        <time>2021-05-23T09:59:00Z</time>
      </trkpt>
      <trkpt lat="43.67375" lon="6.01323">
        <ele>621.79998779297</ele>
        <time>2021-05-23T09:59:01Z</time>
      </trkpt>
      <trkpt lat="43.67376" lon="6.01319">
        <ele>621.79998779297</ele>
        <time>2021-05-23T09:59:02Z</time>
      </trkpt>
      <trkpt lat="43.67376" lon="6.01315">
        <ele>621.79998779297</ele>
        <time>2021-05-23T09:59:03Z</time>
      </trkpt>
      <trkpt lat="43.67377" lon="6.0131">
        <ele>621.79998779297</ele>
        <time>2021-05-23T09:59:04Z</time>
      </trkpt>
      <trkpt lat="43.67376" lon="6.01306">
        <ele>621.79998779297</ele>
        <time>2021-05-23T09:59:05Z</time>
      </trkpt>
      <trkpt lat="43.67377" lon="6.01301">
        <ele>621.59997558594</ele>
        <time>2021-05-23T09:59:06Z</time>
      </trkpt>
      <trkpt lat="43.67377" lon="6.01297">
        <ele>621.59997558594</ele>
        <time>2021-05-23T09:59:07Z</time>
      </trkpt>
      <trkpt lat="43.67378" lon="6.01292">
        <ele>621.59997558594</ele>
        <time>2021-05-23T09:59:08Z</time>
      </trkpt>
      <trkpt lat="43.67379" lon="6.01288">
        <ele>621.59997558594</ele>
        <time>2021-05-23T09:59:09Z</time>
      </trkpt>
      <trkpt lat="43.6738" lon="6.01284">
        <ele>621.59997558594</ele>
        <time>2021-05-23T09:59:10Z</time>
      </trkpt>
      <trkpt lat="43.67381" lon="6.0128">
        <ele>621.59997558594</ele>
        <time>2021-05-23T09:59:11Z</time>
      </trkpt>
      <trkpt lat="43.67382" lon="6.01276">
        <ele>621.40002441406</ele>
        <time>2021-05-23T09:59:12Z</time>
      </trkpt>
      <trkpt lat="43.67383" lon="6.01272">
        <ele>621.40002441406</ele>
        <time>2021-05-23T09:59:13Z</time>
      </trkpt>
      <trkpt lat="43.67385" lon="6.01268">
        <ele>621.20001220703</ele>
        <time>2021-05-23T09:59:14Z</time>
      </trkpt>
      <trkpt lat="43.67386" lon="6.01265">
        <ele>621.20001220703</ele>
        <time>2021-05-23T09:59:15Z</time>
      </trkpt>
      <trkpt lat="43.67388" lon="6.01261">
        <ele>621</ele>
        <time>2021-05-23T09:59:16Z</time>
      </trkpt>
      <trkpt lat="43.67389" lon="6.01256">
        <ele>620.79998779297</ele>
        <time>2021-05-23T09:59:17Z</time>
      </trkpt>
      <trkpt lat="43.67389" lon="6.01251">
        <ele>620.79998779297</ele>
        <time>2021-05-23T09:59:18Z</time>
      </trkpt>
      <trkpt lat="43.6739" lon="6.01247">
        <ele>620.59997558594</ele>
        <time>2021-05-23T09:59:19Z</time>
      </trkpt>
      <trkpt lat="43.67391" lon="6.01243">
        <ele>620.59997558594</ele>
        <time>2021-05-23T09:59:20Z</time>
      </trkpt>
      <trkpt lat="43.67392" lon="6.01239">
        <ele>620.59997558594</ele>
        <time>2021-05-23T09:59:21Z</time>
      </trkpt>
      <trkpt lat="43.67394" lon="6.01235">
        <ele>620.40002441406</ele>
        <time>2021-05-23T09:59:22Z</time>
      </trkpt>
      <trkpt lat="43.67396" lon="6.01232">
        <ele>620.40002441406</ele>
        <time>2021-05-23T09:59:23Z</time>
      </trkpt>
      <trkpt lat="43.67398" lon="6.01228">
        <ele>620.40002441406</ele>
        <time>2021-05-23T09:59:24Z</time>
      </trkpt>
      <trkpt lat="43.67399" lon="6.01225">
        <ele>620.40002441406</ele>
        <time>2021-05-23T09:59:25Z</time>
      </trkpt>
      <trkpt lat="43.67401" lon="6.01221">
        <ele>620.40002441406</ele>
        <time>2021-05-23T09:59:26Z</time>
      </trkpt>
      <trkpt lat="43.67403" lon="6.01217">
        <ele>620.40002441406</ele>
        <time>2021-05-23T09:59:27Z</time>
      </trkpt>
      <trkpt lat="43.67404" lon="6.01214">
        <ele>620.40002441406</ele>
        <time>2021-05-23T09:59:28Z</time>
      </trkpt>
      <trkpt lat="43.67406" lon="6.01209">
        <ele>620.79998779297</ele>
        <time>2021-05-23T09:59:29Z</time>
      </trkpt>
      <trkpt lat="43.67408" lon="6.01205">
        <ele>620.59997558594</ele>
        <time>2021-05-23T09:59:30Z</time>
      </trkpt>
      <trkpt lat="43.67409" lon="6.01201">
        <ele>620.59997558594</ele>
        <time>2021-05-23T09:59:31Z</time>
      </trkpt>
      <trkpt lat="43.67411" lon="6.01197">
        <ele>620.59997558594</ele>
        <time>2021-05-23T09:59:32Z</time>
      </trkpt>
      <trkpt lat="43.67412" lon="6.01192">
        <ele>620.40002441406</ele>
        <time>2021-05-23T09:59:33Z</time>
      </trkpt>
      <trkpt lat="43.67414" lon="6.01188">
        <ele>620.40002441406</ele>
        <time>2021-05-23T09:59:34Z</time>
      </trkpt>
      <trkpt lat="43.67415" lon="6.01183">
        <ele>620.20001220703</ele>
        <time>2021-05-23T09:59:35Z</time>
      </trkpt>
      <trkpt lat="43.67417" lon="6.01179">
        <ele>620.20001220703</ele>
        <time>2021-05-23T09:59:36Z</time>
      </trkpt>
      <trkpt lat="43.67419" lon="6.01175">
        <ele>620</ele>
        <time>2021-05-23T09:59:37Z</time>
      </trkpt>
      <trkpt lat="43.67421" lon="6.01171">
        <ele>620</ele>
        <time>2021-05-23T09:59:38Z</time>
      </trkpt>
      <trkpt lat="43.67423" lon="6.01167">
        <ele>620</ele>
        <time>2021-05-23T09:59:39Z</time>
      </trkpt>
      <trkpt lat="43.67425" lon="6.01163">
        <ele>620</ele>
        <time>2021-05-23T09:59:40Z</time>
      </trkpt>
      <trkpt lat="43.67427" lon="6.01159">
        <ele>620</ele>
        <time>2021-05-23T09:59:41Z</time>
      </trkpt>
      <trkpt lat="43.67428" lon="6.01155">
        <ele>620</ele>
        <time>2021-05-23T09:59:42Z</time>
      </trkpt>
      <trkpt lat="43.6743" lon="6.01151">
        <ele>619.79998779297</ele>
        <time>2021-05-23T09:59:43Z</time>
      </trkpt>
      <trkpt lat="43.67432" lon="6.01148">
        <ele>619.79998779297</ele>
        <time>2021-05-23T09:59:44Z</time>
      </trkpt>
      <trkpt lat="43.67435" lon="6.01146">
        <ele>619.59997558594</ele>
        <time>2021-05-23T09:59:45Z</time>
      </trkpt>
      <trkpt lat="43.67437" lon="6.01144">
        <ele>619.59997558594</ele>
        <time>2021-05-23T09:59:46Z</time>
      </trkpt>
      <trkpt lat="43.67439" lon="6.01141">
        <ele>619.59997558594</ele>
        <time>2021-05-23T09:59:47Z</time>
      </trkpt>
      <trkpt lat="43.67442" lon="6.01139">
        <ele>619.40002441406</ele>
        <time>2021-05-23T09:59:48Z</time>
      </trkpt>
      <trkpt lat="43.67445" lon="6.01138">
        <ele>619.40002441406</ele>
        <time>2021-05-23T09:59:49Z</time>
      </trkpt>
      <trkpt lat="43.67448" lon="6.01137">
        <ele>619.40002441406</ele>
        <time>2021-05-23T09:59:50Z</time>
      </trkpt>
      <trkpt lat="43.67451" lon="6.01137">
        <ele>619.40002441406</ele>
        <time>2021-05-23T09:59:51Z</time>
      </trkpt>
      <trkpt lat="43.67455" lon="6.01138">
        <ele>619.40002441406</ele>
        <time>2021-05-23T09:59:52Z</time>
      </trkpt>
      <trkpt lat="43.67458" lon="6.01139">
        <ele>619.40002441406</ele>
        <time>2021-05-23T09:59:53Z</time>
      </trkpt>
      <trkpt lat="43.67461" lon="6.01139">
        <ele>619.40002441406</ele>
        <time>2021-05-23T09:59:54Z</time>
      </trkpt>
      <trkpt lat="43.67465" lon="6.0114">
        <ele>619.20001220703</ele>
        <time>2021-05-23T09:59:55Z</time>
      </trkpt>
      <trkpt lat="43.67468" lon="6.01141">
        <ele>619.20001220703</ele>
        <time>2021-05-23T09:59:56Z</time>
      </trkpt>
      <trkpt lat="43.67471" lon="6.01141">
        <ele>619.20001220703</ele>
        <time>2021-05-23T09:59:57Z</time>
      </trkpt>
      <trkpt lat="43.67475" lon="6.01141">
        <ele>619</ele>
        <time>2021-05-23T09:59:58Z</time>
      </trkpt>
      <trkpt lat="43.67478" lon="6.01141">
        <ele>619</ele>
        <time>2021-05-23T09:59:59Z</time>
      </trkpt>
      <trkpt lat="43.67481" lon="6.01141">
        <ele>619</ele>
        <time>2021-05-23T10:00:00Z</time>
      </trkpt>
      <trkpt lat="43.67484" lon="6.01141">
        <ele>619</ele>
        <time>2021-05-23T10:00:01Z</time>
      </trkpt>
      <trkpt lat="43.67487" lon="6.01142">
        <ele>619</ele>
        <time>2021-05-23T10:00:02Z</time>
      </trkpt>
      <trkpt lat="43.6749" lon="6.01142">
        <ele>619</ele>
        <time>2021-05-23T10:00:03Z</time>
      </trkpt>
      <trkpt lat="43.67493" lon="6.01142">
        <ele>619</ele>
        <time>2021-05-23T10:00:04Z</time>
      </trkpt>
      <trkpt lat="43.67495" lon="6.01143">
        <ele>619.20001220703</ele>
        <time>2021-05-23T10:00:05Z</time>
      </trkpt>
      <trkpt lat="43.67498" lon="6.01143">
        <ele>619</ele>
        <time>2021-05-23T10:00:06Z</time>
      </trkpt>
      <trkpt lat="43.67501" lon="6.01144">
        <ele>619</ele>
        <time>2021-05-23T10:00:07Z</time>
      </trkpt>
      <trkpt lat="43.67504" lon="6.01144">
        <ele>619</ele>
        <time>2021-05-23T10:00:08Z</time>
      </trkpt>
      <trkpt lat="43.67506" lon="6.01145">
        <ele>618.79998779297</ele>
        <time>2021-05-23T10:00:09Z</time>
      </trkpt>
      <trkpt lat="43.67508" lon="6.01144">
        <ele>618.59997558594</ele>
        <time>2021-05-23T10:00:10Z</time>
      </trkpt>
      <trkpt lat="43.6751" lon="6.01143">
        <ele>618.40002441406</ele>
        <time>2021-05-23T10:00:11Z</time>
      </trkpt>
      <trkpt lat="43.67512" lon="6.01142">
        <ele>618.40002441406</ele>
        <time>2021-05-23T10:00:12Z</time>
      </trkpt>
      <trkpt lat="43.67514" lon="6.01142">
        <ele>618.40002441406</ele>
        <time>2021-05-23T10:00:13Z</time>
      </trkpt>
      <trkpt lat="43.67516" lon="6.01141">
        <ele>618.40002441406</ele>
        <time>2021-05-23T10:00:14Z</time>
      </trkpt>
      <trkpt lat="43.67519" lon="6.0114">
        <ele>618.40002441406</ele>
        <time>2021-05-23T10:00:15Z</time>
      </trkpt>
      <trkpt lat="43.67521" lon="6.0114">
        <ele>618.20001220703</ele>
        <time>2021-05-23T10:00:16Z</time>
      </trkpt>
      <trkpt lat="43.67523" lon="6.01139">
        <ele>618.20001220703</ele>
        <time>2021-05-23T10:00:17Z</time>
      </trkpt>
      <trkpt lat="43.67525" lon="6.01139">
        <ele>618.20001220703</ele>
        <time>2021-05-23T10:00:18Z</time>
      </trkpt>
      <trkpt lat="43.67528" lon="6.01138">
        <ele>618</ele>
        <time>2021-05-23T10:00:19Z</time>
      </trkpt>
      <trkpt lat="43.67531" lon="6.01137">
        <ele>618</ele>
        <time>2021-05-23T10:00:20Z</time>
      </trkpt>
      <trkpt lat="43.67534" lon="6.01137">
        <ele>618</ele>
        <time>2021-05-23T10:00:21Z</time>
      </trkpt>
      <trkpt lat="43.67537" lon="6.01136">
        <ele>618</ele>
        <time>2021-05-23T10:00:22Z</time>
      </trkpt>
      <trkpt lat="43.6754" lon="6.01136">
        <ele>617.79998779297</ele>
        <time>2021-05-23T10:00:23Z</time>
      </trkpt>
      <trkpt lat="43.67543" lon="6.01136">
        <ele>617.59997558594</ele>
        <time>2021-05-23T10:00:24Z</time>
      </trkpt>
      <trkpt lat="43.67545" lon="6.01136">
        <ele>617.59997558594</ele>
        <time>2021-05-23T10:00:25Z</time>
      </trkpt>
      <trkpt lat="43.67548" lon="6.01136">
        <ele>617.59997558594</ele>
        <time>2021-05-23T10:00:26Z</time>
      </trkpt>
      <trkpt lat="43.67551" lon="6.01137">
        <ele>617.59997558594</ele>
        <time>2021-05-23T10:00:27Z</time>
      </trkpt>
      <trkpt lat="43.67554" lon="6.01137">
        <ele>617.59997558594</ele>
        <time>2021-05-23T10:00:28Z</time>
      </trkpt>
      <trkpt lat="43.67557" lon="6.01138">
        <ele>617.59997558594</ele>
        <time>2021-05-23T10:00:29Z</time>
      </trkpt>
      <trkpt lat="43.6756" lon="6.01139">
        <ele>617.40002441406</ele>
        <time>2021-05-23T10:00:30Z</time>
      </trkpt>
      <trkpt lat="43.67563" lon="6.0114">
        <ele>617.20001220703</ele>
        <time>2021-05-23T10:00:31Z</time>
      </trkpt>
      <trkpt lat="43.67566" lon="6.0114">
        <ele>617.40002441406</ele>
        <time>2021-05-23T10:00:32Z</time>
      </trkpt>
      <trkpt lat="43.6757" lon="6.01141">
        <ele>617.20001220703</ele>
        <time>2021-05-23T10:00:33Z</time>
      </trkpt>
      <trkpt lat="43.67573" lon="6.01141">
        <ele>617</ele>
        <time>2021-05-23T10:00:34Z</time>
      </trkpt>
      <trkpt lat="43.67577" lon="6.01141">
        <ele>617</ele>
        <time>2021-05-23T10:00:35Z</time>
      </trkpt>
      <trkpt lat="43.6758" lon="6.01141">
        <ele>617</ele>
        <time>2021-05-23T10:00:36Z</time>
      </trkpt>
      <trkpt lat="43.67583" lon="6.01142">
        <ele>616.79998779297</ele>
        <time>2021-05-23T10:00:37Z</time>
      </trkpt>
      <trkpt lat="43.67586" lon="6.01142">
        <ele>616.79998779297</ele>
        <time>2021-05-23T10:00:38Z</time>
      </trkpt>
      <trkpt lat="43.67589" lon="6.01142">
        <ele>616.59997558594</ele>
        <time>2021-05-23T10:00:39Z</time>
      </trkpt>
      <trkpt lat="43.67592" lon="6.01142">
        <ele>616.59997558594</ele>
        <time>2021-05-23T10:00:40Z</time>
      </trkpt>
      <trkpt lat="43.67595" lon="6.01142">
        <ele>616.40002441406</ele>
        <time>2021-05-23T10:00:41Z</time>
      </trkpt>
      <trkpt lat="43.67599" lon="6.01141">
        <ele>616.40002441406</ele>
        <time>2021-05-23T10:00:42Z</time>
      </trkpt>
      <trkpt lat="43.67602" lon="6.01141">
        <ele>616.40002441406</ele>
        <time>2021-05-23T10:00:43Z</time>
      </trkpt>
      <trkpt lat="43.67605" lon="6.01142">
        <ele>616.40002441406</ele>
        <time>2021-05-23T10:00:44Z</time>
      </trkpt>
      <trkpt lat="43.67609" lon="6.01142">
        <ele>616.40002441406</ele>
        <time>2021-05-23T10:00:45Z</time>
      </trkpt>
      <trkpt lat="43.67612" lon="6.01143">
        <ele>616.20001220703</ele>
        <time>2021-05-23T10:00:46Z</time>
      </trkpt>
      <trkpt lat="43.67615" lon="6.01144">
        <ele>616.20001220703</ele>
        <time>2021-05-23T10:00:47Z</time>
      </trkpt>
      <trkpt lat="43.67618" lon="6.01145">
        <ele>616.20001220703</ele>
        <time>2021-05-23T10:00:48Z</time>
      </trkpt>
      <trkpt lat="43.67622" lon="6.01146">
        <ele>616</ele>
        <time>2021-05-23T10:00:49Z</time>
      </trkpt>
      <trkpt lat="43.67625" lon="6.01148">
        <ele>616</ele>
        <time>2021-05-23T10:00:50Z</time>
      </trkpt>
      <trkpt lat="43.67629" lon="6.01149">
        <ele>616</ele>
        <time>2021-05-23T10:00:51Z</time>
      </trkpt>
      <trkpt lat="43.67632" lon="6.01151">
        <ele>616</ele>
        <time>2021-05-23T10:00:52Z</time>
      </trkpt>
      <trkpt lat="43.67635" lon="6.01152">
        <ele>616</ele>
        <time>2021-05-23T10:00:53Z</time>
      </trkpt>
      <trkpt lat="43.67639" lon="6.01153">
        <ele>616</ele>
        <time>2021-05-23T10:00:54Z</time>
      </trkpt>
      <trkpt lat="43.67642" lon="6.01154">
        <ele>615.79998779297</ele>
        <time>2021-05-23T10:00:55Z</time>
      </trkpt>
      <trkpt lat="43.67645" lon="6.01154">
        <ele>616</ele>
        <time>2021-05-23T10:00:56Z</time>
      </trkpt>
      <trkpt lat="43.67649" lon="6.01154">
        <ele>616</ele>
        <time>2021-05-23T10:00:57Z</time>
      </trkpt>
      <trkpt lat="43.67652" lon="6.01154">
        <ele>616</ele>
        <time>2021-05-23T10:00:58Z</time>
      </trkpt>
      <trkpt lat="43.67656" lon="6.01154">
        <ele>616</ele>
        <time>2021-05-23T10:00:59Z</time>
      </trkpt>
      <trkpt lat="43.67659" lon="6.01153">
        <ele>615.59997558594</ele>
        <time>2021-05-23T10:01:00Z</time>
      </trkpt>
      <trkpt lat="43.67662" lon="6.01151">
        <ele>615.59997558594</ele>
        <time>2021-05-23T10:01:01Z</time>
      </trkpt>
      <trkpt lat="43.67665" lon="6.01149">
        <ele>615.40002441406</ele>
        <time>2021-05-23T10:01:02Z</time>
      </trkpt>
      <trkpt lat="43.67668" lon="6.01147">
        <ele>615.40002441406</ele>
        <time>2021-05-23T10:01:03Z</time>
      </trkpt>
      <trkpt lat="43.67671" lon="6.01146">
        <ele>615.40002441406</ele>
        <time>2021-05-23T10:01:04Z</time>
      </trkpt>
      <trkpt lat="43.67674" lon="6.01144">
        <ele>615.59997558594</ele>
        <time>2021-05-23T10:01:05Z</time>
      </trkpt>
      <trkpt lat="43.67677" lon="6.01143">
        <ele>615.79998779297</ele>
        <time>2021-05-23T10:01:06Z</time>
      </trkpt>
      <trkpt lat="43.6768" lon="6.01141">
        <ele>616</ele>
        <time>2021-05-23T10:01:07Z</time>
      </trkpt>
      <trkpt lat="43.67683" lon="6.0114">
        <ele>616.20001220703</ele>
        <time>2021-05-23T10:01:08Z</time>
      </trkpt>
      <trkpt lat="43.67686" lon="6.0114">
        <ele>616.20001220703</ele>
        <time>2021-05-23T10:01:09Z</time>
      </trkpt>
      <trkpt lat="43.6769" lon="6.0114">
        <ele>616.20001220703</ele>
        <time>2021-05-23T10:01:10Z</time>
      </trkpt>
      <trkpt lat="43.67694" lon="6.0114">
        <ele>616.20001220703</ele>
        <time>2021-05-23T10:01:11Z</time>
      </trkpt>
      <trkpt lat="43.67697" lon="6.0114">
        <ele>616.20001220703</ele>
        <time>2021-05-23T10:01:12Z</time>
      </trkpt>
      <trkpt lat="43.67701" lon="6.0114">
        <ele>616</ele>
        <time>2021-05-23T10:01:13Z</time>
      </trkpt>
      <trkpt lat="43.67705" lon="6.0114">
        <ele>615.79998779297</ele>
        <time>2021-05-23T10:01:14Z</time>
      </trkpt>
      <trkpt lat="43.67708" lon="6.0114">
        <ele>615.59997558594</ele>
        <time>2021-05-23T10:01:15Z</time>
      </trkpt>
      <trkpt lat="43.67712" lon="6.0114">
        <ele>615.59997558594</ele>
        <time>2021-05-23T10:01:16Z</time>
      </trkpt>
      <trkpt lat="43.67716" lon="6.01139">
        <ele>615.40002441406</ele>
        <time>2021-05-23T10:01:17Z</time>
      </trkpt>
      <trkpt lat="43.67721" lon="6.01139">
        <ele>615.40002441406</ele>
        <time>2021-05-23T10:01:18Z</time>
      </trkpt>
      <trkpt lat="43.67725" lon="6.01138">
        <ele>615.40002441406</ele>
        <time>2021-05-23T10:01:19Z</time>
      </trkpt>
      <trkpt lat="43.67728" lon="6.01137">
        <ele>615.40002441406</ele>
        <time>2021-05-23T10:01:20Z</time>
      </trkpt>
      <trkpt lat="43.67732" lon="6.01135">
        <ele>615.20001220703</ele>
        <time>2021-05-23T10:01:21Z</time>
      </trkpt>
      <trkpt lat="43.67735" lon="6.01132">
        <ele>615.20001220703</ele>
        <time>2021-05-23T10:01:22Z</time>
      </trkpt>
      <trkpt lat="43.67737" lon="6.01129">
        <ele>615</ele>
        <time>2021-05-23T10:01:23Z</time>
      </trkpt>
      <trkpt lat="43.67739" lon="6.01125">
        <ele>615</ele>
        <time>2021-05-23T10:01:24Z</time>
      </trkpt>
      <trkpt lat="43.67741" lon="6.01122">
        <ele>615</ele>
        <time>2021-05-23T10:01:25Z</time>
      </trkpt>
      <trkpt lat="43.67742" lon="6.01118">
        <ele>615.20001220703</ele>
        <time>2021-05-23T10:01:26Z</time>
      </trkpt>
      <trkpt lat="43.67743" lon="6.01114">
        <ele>615.20001220703</ele>
        <time>2021-05-23T10:01:27Z</time>
      </trkpt>
      <trkpt lat="43.67744" lon="6.0111">
        <ele>615.20001220703</ele>
        <time>2021-05-23T10:01:28Z</time>
      </trkpt>
      <trkpt lat="43.67746" lon="6.01106">
        <ele>615.20001220703</ele>
        <time>2021-05-23T10:01:29Z</time>
      </trkpt>
      <trkpt lat="43.67747" lon="6.01102">
        <ele>615</ele>
        <time>2021-05-23T10:01:30Z</time>
      </trkpt>
      <trkpt lat="43.67749" lon="6.01098">
        <ele>615</ele>
        <time>2021-05-23T10:01:31Z</time>
      </trkpt>
      <trkpt lat="43.6775" lon="6.01094">
        <ele>615</ele>
        <time>2021-05-23T10:01:32Z</time>
      </trkpt>
      <trkpt lat="43.67752" lon="6.0109">
        <ele>615.20001220703</ele>
        <time>2021-05-23T10:01:33Z</time>
      </trkpt>
      <trkpt lat="43.67753" lon="6.01085">
        <ele>615.20001220703</ele>
        <time>2021-05-23T10:01:34Z</time>
      </trkpt>
      <trkpt lat="43.67754" lon="6.01081">
        <ele>615.20001220703</ele>
        <time>2021-05-23T10:01:35Z</time>
      </trkpt>
      <trkpt lat="43.67755" lon="6.01077">
        <ele>615</ele>
        <time>2021-05-23T10:01:36Z</time>
      </trkpt>
      <trkpt lat="43.67756" lon="6.01072">
        <ele>614.79998779297</ele>
        <time>2021-05-23T10:01:37Z</time>
      </trkpt>
      <trkpt lat="43.67757" lon="6.01067">
        <ele>614.59997558594</ele>
        <time>2021-05-23T10:01:38Z</time>
      </trkpt>
      <trkpt lat="43.67759" lon="6.01061">
        <ele>614.59997558594</ele>
        <time>2021-05-23T10:01:39Z</time>
      </trkpt>
      <trkpt lat="43.6776" lon="6.01056">
        <ele>614.40002441406</ele>
        <time>2021-05-23T10:01:40Z</time>
      </trkpt>
      <trkpt lat="43.67761" lon="6.0105">
        <ele>614.40002441406</ele>
        <time>2021-05-23T10:01:41Z</time>
      </trkpt>
      <trkpt lat="43.67762" lon="6.01044">
        <ele>614.40002441406</ele>
        <time>2021-05-23T10:01:42Z</time>
      </trkpt>
      <trkpt lat="43.67762" lon="6.01039">
        <ele>614.20001220703</ele>
        <time>2021-05-23T10:01:43Z</time>
      </trkpt>
      <trkpt lat="43.67763" lon="6.01035">
        <ele>614.20001220703</ele>
        <time>2021-05-23T10:01:44Z</time>
      </trkpt>
      <trkpt lat="43.67763" lon="6.01031">
        <ele>614.20001220703</ele>
        <time>2021-05-23T10:01:45Z</time>
      </trkpt>
      <trkpt lat="43.67764" lon="6.01027">
        <ele>614.20001220703</ele>
        <time>2021-05-23T10:01:46Z</time>
      </trkpt>
      <trkpt lat="43.67765" lon="6.01023">
        <ele>614.20001220703</ele>
        <time>2021-05-23T10:01:47Z</time>
      </trkpt>
      <trkpt lat="43.67766" lon="6.01018">
        <ele>614</ele>
        <time>2021-05-23T10:01:48Z</time>
      </trkpt>
      <trkpt lat="43.67767" lon="6.01014">
        <ele>614</ele>
        <time>2021-05-23T10:01:49Z</time>
      </trkpt>
      <trkpt lat="43.67769" lon="6.0101">
        <ele>613.59997558594</ele>
        <time>2021-05-23T10:01:50Z</time>
      </trkpt>
      <trkpt lat="43.6777" lon="6.01006">
        <ele>613.59997558594</ele>
        <time>2021-05-23T10:01:51Z</time>
      </trkpt>
      <trkpt lat="43.67772" lon="6.01003">
        <ele>613.59997558594</ele>
        <time>2021-05-23T10:01:52Z</time>
      </trkpt>
      <trkpt lat="43.67773" lon="6.00999">
        <ele>613.40002441406</ele>
        <time>2021-05-23T10:01:53Z</time>
      </trkpt>
      <trkpt lat="43.67775" lon="6.00995">
        <ele>613.40002441406</ele>
        <time>2021-05-23T10:01:54Z</time>
      </trkpt>
      <trkpt lat="43.67777" lon="6.00991">
        <ele>613.40002441406</ele>
        <time>2021-05-23T10:01:55Z</time>
      </trkpt>
      <trkpt lat="43.67778" lon="6.00987">
        <ele>613.40002441406</ele>
        <time>2021-05-23T10:01:56Z</time>
      </trkpt>
      <trkpt lat="43.6778" lon="6.00982">
        <ele>613.40002441406</ele>
        <time>2021-05-23T10:01:57Z</time>
      </trkpt>
      <trkpt lat="43.67782" lon="6.00978">
        <ele>613.20001220703</ele>
        <time>2021-05-23T10:01:58Z</time>
      </trkpt>
      <trkpt lat="43.67785" lon="6.00974">
        <ele>613</ele>
        <time>2021-05-23T10:01:59Z</time>
      </trkpt>
      <trkpt lat="43.67787" lon="6.0097">
        <ele>612.79998779297</ele>
        <time>2021-05-23T10:02:00Z</time>
      </trkpt>
      <trkpt lat="43.67789" lon="6.00966">
        <ele>612.59997558594</ele>
        <time>2021-05-23T10:02:01Z</time>
      </trkpt>
      <trkpt lat="43.67791" lon="6.00962">
        <ele>612.59997558594</ele>
        <time>2021-05-23T10:02:02Z</time>
      </trkpt>
      <trkpt lat="43.67793" lon="6.00958">
        <ele>612.59997558594</ele>
        <time>2021-05-23T10:02:03Z</time>
      </trkpt>
      <trkpt lat="43.67795" lon="6.00954">
        <ele>612.59997558594</ele>
        <time>2021-05-23T10:02:04Z</time>
      </trkpt>
      <trkpt lat="43.67798" lon="6.00951">
        <ele>612.59997558594</ele>
        <time>2021-05-23T10:02:05Z</time>
      </trkpt>
      <trkpt lat="43.678" lon="6.00948">
        <ele>612.79998779297</ele>
        <time>2021-05-23T10:02:06Z</time>
      </trkpt>
      <trkpt lat="43.67802" lon="6.00945">
        <ele>612.79998779297</ele>
        <time>2021-05-23T10:02:07Z</time>
      </trkpt>
      <trkpt lat="43.67805" lon="6.00942">
        <ele>612.79998779297</ele>
        <time>2021-05-23T10:02:08Z</time>
      </trkpt>
      <trkpt lat="43.67807" lon="6.00939">
        <ele>612.79998779297</ele>
        <time>2021-05-23T10:02:09Z</time>
      </trkpt>
      <trkpt lat="43.6781" lon="6.00936">
        <ele>612.79998779297</ele>
        <time>2021-05-23T10:02:10Z</time>
      </trkpt>
      <trkpt lat="43.67812" lon="6.00933">
        <ele>612.79998779297</ele>
        <time>2021-05-23T10:02:11Z</time>
      </trkpt>
      <trkpt lat="43.67815" lon="6.00931">
        <ele>612.59997558594</ele>
        <time>2021-05-23T10:02:12Z</time>
      </trkpt>
      <trkpt lat="43.67818" lon="6.00928">
        <ele>612.40002441406</ele>
        <time>2021-05-23T10:02:13Z</time>
      </trkpt>
      <trkpt lat="43.67821" lon="6.00926">
        <ele>612.20001220703</ele>
        <time>2021-05-23T10:02:14Z</time>
      </trkpt>
      <trkpt lat="43.67824" lon="6.00924">
        <ele>612.20001220703</ele>
        <time>2021-05-23T10:02:15Z</time>
      </trkpt>
      <trkpt lat="43.67826" lon="6.00921">
        <ele>612</ele>
        <time>2021-05-23T10:02:16Z</time>
      </trkpt>
      <trkpt lat="43.67829" lon="6.00918">
        <ele>612.20001220703</ele>
        <time>2021-05-23T10:02:17Z</time>
      </trkpt>
      <trkpt lat="43.67832" lon="6.00915">
        <ele>612.20001220703</ele>
        <time>2021-05-23T10:02:18Z</time>
      </trkpt>
      <trkpt lat="43.67835" lon="6.00912">
        <ele>612.20001220703</ele>
        <time>2021-05-23T10:02:19Z</time>
      </trkpt>
      <trkpt lat="43.67838" lon="6.00909">
        <ele>612.20001220703</ele>
        <time>2021-05-23T10:02:20Z</time>
      </trkpt>
      <trkpt lat="43.67841" lon="6.00906">
        <ele>612.40002441406</ele>
        <time>2021-05-23T10:02:21Z</time>
      </trkpt>
      <trkpt lat="43.67843" lon="6.00903">
        <ele>612.59997558594</ele>
        <time>2021-05-23T10:02:22Z</time>
      </trkpt>
      <trkpt lat="43.67846" lon="6.009">
        <ele>612.40002441406</ele>
        <time>2021-05-23T10:02:23Z</time>
      </trkpt>
      <trkpt lat="43.67849" lon="6.00897">
        <ele>612.40002441406</ele>
        <time>2021-05-23T10:02:24Z</time>
      </trkpt>
      <trkpt lat="43.67852" lon="6.00894">
        <ele>612.40002441406</ele>
        <time>2021-05-23T10:02:25Z</time>
      </trkpt>
      <trkpt lat="43.67854" lon="6.0089">
        <ele>612.40002441406</ele>
        <time>2021-05-23T10:02:26Z</time>
      </trkpt>
      <trkpt lat="43.67856" lon="6.00886">
        <ele>612.40002441406</ele>
        <time>2021-05-23T10:02:27Z</time>
      </trkpt>
      <trkpt lat="43.67858" lon="6.00882">
        <ele>612.20001220703</ele>
        <time>2021-05-23T10:02:28Z</time>
      </trkpt>
      <trkpt lat="43.6786" lon="6.00879">
        <ele>612.20001220703</ele>
        <time>2021-05-23T10:02:29Z</time>
      </trkpt>
      <trkpt lat="43.67863" lon="6.00876">
        <ele>612.20001220703</ele>
        <time>2021-05-23T10:02:30Z</time>
      </trkpt>
      <trkpt lat="43.67865" lon="6.00873">
        <ele>612</ele>
        <time>2021-05-23T10:02:31Z</time>
      </trkpt>
      <trkpt lat="43.67868" lon="6.0087">
        <ele>612</ele>
        <time>2021-05-23T10:02:32Z</time>
      </trkpt>
      <trkpt lat="43.6787" lon="6.00867">
        <ele>612</ele>
        <time>2021-05-23T10:02:33Z</time>
      </trkpt>
      <trkpt lat="43.67872" lon="6.00864">
        <ele>612</ele>
        <time>2021-05-23T10:02:34Z</time>
      </trkpt>
      <trkpt lat="43.67874" lon="6.00861">
        <ele>612</ele>
        <time>2021-05-23T10:02:35Z</time>
      </trkpt>
      <trkpt lat="43.67876" lon="6.00857">
        <ele>612</ele>
        <time>2021-05-23T10:02:36Z</time>
      </trkpt>
      <trkpt lat="43.67878" lon="6.00854">
        <ele>612</ele>
        <time>2021-05-23T10:02:37Z</time>
      </trkpt>
      <trkpt lat="43.6788" lon="6.00851">
        <ele>612</ele>
        <time>2021-05-23T10:02:38Z</time>
      </trkpt>
      <trkpt lat="43.67882" lon="6.00847">
        <ele>612</ele>
        <time>2021-05-23T10:02:39Z</time>
      </trkpt>
      <trkpt lat="43.67884" lon="6.00844">
        <ele>611.79998779297</ele>
        <time>2021-05-23T10:02:40Z</time>
      </trkpt>
      <trkpt lat="43.67886" lon="6.0084">
        <ele>611.79998779297</ele>
        <time>2021-05-23T10:02:41Z</time>
      </trkpt>
      <trkpt lat="43.67887" lon="6.00836">
        <ele>611.59997558594</ele>
        <time>2021-05-23T10:02:42Z</time>
      </trkpt>
      <trkpt lat="43.6789" lon="6.00833">
        <ele>611.59997558594</ele>
        <time>2021-05-23T10:02:43Z</time>
      </trkpt>
      <trkpt lat="43.67892" lon="6.0083">
        <ele>611.59997558594</ele>
        <time>2021-05-23T10:02:44Z</time>
      </trkpt>
      <trkpt lat="43.67894" lon="6.00826">
        <ele>611.59997558594</ele>
        <time>2021-05-23T10:02:45Z</time>
      </trkpt>
      <trkpt lat="43.67896" lon="6.00823">
        <ele>611.40002441406</ele>
        <time>2021-05-23T10:02:46Z</time>
      </trkpt>
      <trkpt lat="43.67898" lon="6.00819">
        <ele>611.20001220703</ele>
        <time>2021-05-23T10:02:47Z</time>
      </trkpt>
      <trkpt lat="43.679" lon="6.00816">
        <ele>611.20001220703</ele>
        <time>2021-05-23T10:02:48Z</time>
      </trkpt>
      <trkpt lat="43.67901" lon="6.00814">
        <ele>611.20001220703</ele>
        <time>2021-05-23T10:02:49Z</time>
      </trkpt>
      <trkpt lat="43.67903" lon="6.00812">
        <ele>611</ele>
        <time>2021-05-23T10:02:50Z</time>
      </trkpt>
      <trkpt lat="43.67906" lon="6.00809">
        <ele>611</ele>
        <time>2021-05-23T10:02:51Z</time>
      </trkpt>
      <trkpt lat="43.67907" lon="6.00807">
        <ele>611</ele>
        <time>2021-05-23T10:02:52Z</time>
      </trkpt>
      <trkpt lat="43.67909" lon="6.00804">
        <ele>611.20001220703</ele>
        <time>2021-05-23T10:02:53Z</time>
      </trkpt>
      <trkpt lat="43.67911" lon="6.00802">
        <ele>611.20001220703</ele>
        <time>2021-05-23T10:02:54Z</time>
      </trkpt>
      <trkpt lat="43.67913" lon="6.008">
        <ele>611</ele>
        <time>2021-05-23T10:02:55Z</time>
      </trkpt>
      <trkpt lat="43.67916" lon="6.00799">
        <ele>611</ele>
        <time>2021-05-23T10:02:56Z</time>
      </trkpt>
      <trkpt lat="43.67918" lon="6.00799">
        <ele>611</ele>
        <time>2021-05-23T10:02:57Z</time>
      </trkpt>
      <trkpt lat="43.67921" lon="6.00798">
        <ele>610.79998779297</ele>
        <time>2021-05-23T10:02:58Z</time>
      </trkpt>
      <trkpt lat="43.67923" lon="6.00796">
        <ele>610.79998779297</ele>
        <time>2021-05-23T10:02:59Z</time>
      </trkpt>
      <trkpt lat="43.67926" lon="6.00795">
        <ele>610.79998779297</ele>
        <time>2021-05-23T10:03:00Z</time>
      </trkpt>
      <trkpt lat="43.67929" lon="6.00793">
        <ele>610.79998779297</ele>
        <time>2021-05-23T10:03:01Z</time>
      </trkpt>
      <trkpt lat="43.67932" lon="6.00792">
        <ele>610.79998779297</ele>
        <time>2021-05-23T10:03:02Z</time>
      </trkpt>
      <trkpt lat="43.67935" lon="6.00793">
        <ele>610.79998779297</ele>
        <time>2021-05-23T10:03:03Z</time>
      </trkpt>
      <trkpt lat="43.67938" lon="6.00794">
        <ele>610.79998779297</ele>
        <time>2021-05-23T10:03:04Z</time>
      </trkpt>
      <trkpt lat="43.67941" lon="6.00794">
        <ele>610.79998779297</ele>
        <time>2021-05-23T10:03:05Z</time>
      </trkpt>
      <trkpt lat="43.67944" lon="6.00794">
        <ele>611</ele>
        <time>2021-05-23T10:03:06Z</time>
      </trkpt>
      <trkpt lat="43.67947" lon="6.00794">
        <ele>611</ele>
        <time>2021-05-23T10:03:07Z</time>
      </trkpt>
      <trkpt lat="43.67951" lon="6.00794">
        <ele>611.20001220703</ele>
        <time>2021-05-23T10:03:08Z</time>
      </trkpt>
      <trkpt lat="43.67954" lon="6.00795">
        <ele>611.20001220703</ele>
        <time>2021-05-23T10:03:09Z</time>
      </trkpt>
      <trkpt lat="43.67957" lon="6.00796">
        <ele>611.20001220703</ele>
        <time>2021-05-23T10:03:10Z</time>
      </trkpt>
      <trkpt lat="43.6796" lon="6.00797">
        <ele>611.20001220703</ele>
        <time>2021-05-23T10:03:11Z</time>
      </trkpt>
      <trkpt lat="43.67963" lon="6.00799">
        <ele>611.20001220703</ele>
        <time>2021-05-23T10:03:12Z</time>
      </trkpt>
      <trkpt lat="43.67966" lon="6.00801">
        <ele>611</ele>
        <time>2021-05-23T10:03:13Z</time>
      </trkpt>
      <trkpt lat="43.67969" lon="6.00804">
        <ele>611</ele>
        <time>2021-05-23T10:03:14Z</time>
      </trkpt>
      <trkpt lat="43.67972" lon="6.00806">
        <ele>610.79998779297</ele>
        <time>2021-05-23T10:03:15Z</time>
      </trkpt>
      <trkpt lat="43.67975" lon="6.00808">
        <ele>610.79998779297</ele>
        <time>2021-05-23T10:03:16Z</time>
      </trkpt>
      <trkpt lat="43.67979" lon="6.0081">
        <ele>610.79998779297</ele>
        <time>2021-05-23T10:03:17Z</time>
      </trkpt>
      <trkpt lat="43.67982" lon="6.00813">
        <ele>610.79998779297</ele>
        <time>2021-05-23T10:03:18Z</time>
      </trkpt>
      <trkpt lat="43.67985" lon="6.00814">
        <ele>610.79998779297</ele>
        <time>2021-05-23T10:03:19Z</time>
      </trkpt>
      <trkpt lat="43.67989" lon="6.00815">
        <ele>610.79998779297</ele>
        <time>2021-05-23T10:03:20Z</time>
      </trkpt>
      <trkpt lat="43.67992" lon="6.00816">
        <ele>610.79998779297</ele>
        <time>2021-05-23T10:03:21Z</time>
      </trkpt>
      <trkpt lat="43.67996" lon="6.00816">
        <ele>610.79998779297</ele>
        <time>2021-05-23T10:03:22Z</time>
      </trkpt>
      <trkpt lat="43.67999" lon="6.00815">
        <ele>610.79998779297</ele>
        <time>2021-05-23T10:03:23Z</time>
      </trkpt>
      <trkpt lat="43.68003" lon="6.00815">
        <ele>610.79998779297</ele>
        <time>2021-05-23T10:03:24Z</time>
      </trkpt>
      <trkpt lat="43.68007" lon="6.00815">
        <ele>610.79998779297</ele>
        <time>2021-05-23T10:03:25Z</time>
      </trkpt>
      <trkpt lat="43.68011" lon="6.00815">
        <ele>610.79998779297</ele>
        <time>2021-05-23T10:03:26Z</time>
      </trkpt>
      <trkpt lat="43.68014" lon="6.00816">
        <ele>610.79998779297</ele>
        <time>2021-05-23T10:03:27Z</time>
      </trkpt>
      <trkpt lat="43.68018" lon="6.00817">
        <ele>610.59997558594</ele>
        <time>2021-05-23T10:03:28Z</time>
      </trkpt>
      <trkpt lat="43.68021" lon="6.00819">
        <ele>610.59997558594</ele>
        <time>2021-05-23T10:03:29Z</time>
      </trkpt>
      <trkpt lat="43.68025" lon="6.0082">
        <ele>610.59997558594</ele>
        <time>2021-05-23T10:03:30Z</time>
      </trkpt>
      <trkpt lat="43.68028" lon="6.00821">
        <ele>610.59997558594</ele>
        <time>2021-05-23T10:03:31Z</time>
      </trkpt>
      <trkpt lat="43.68032" lon="6.00821">
        <ele>610.59997558594</ele>
        <time>2021-05-23T10:03:32Z</time>
      </trkpt>
      <trkpt lat="43.68036" lon="6.00821">
        <ele>610.59997558594</ele>
        <time>2021-05-23T10:03:33Z</time>
      </trkpt>
      <trkpt lat="43.68039" lon="6.00821">
        <ele>610.40002441406</ele>
        <time>2021-05-23T10:03:34Z</time>
      </trkpt>
      <trkpt lat="43.68043" lon="6.00821">
        <ele>610.40002441406</ele>
        <time>2021-05-23T10:03:35Z</time>
      </trkpt>
      <trkpt lat="43.68046" lon="6.0082">
        <ele>610.40002441406</ele>
        <time>2021-05-23T10:03:36Z</time>
      </trkpt>
      <trkpt lat="43.6805" lon="6.00819">
        <ele>610.59997558594</ele>
        <time>2021-05-23T10:03:37Z</time>
      </trkpt>
      <trkpt lat="43.68054" lon="6.00819">
        <ele>610.40002441406</ele>
        <time>2021-05-23T10:03:38Z</time>
      </trkpt>
      <trkpt lat="43.68057" lon="6.00819">
        <ele>610.20001220703</ele>
        <time>2021-05-23T10:03:39Z</time>
      </trkpt>
      <trkpt lat="43.6806" lon="6.00819">
        <ele>610.20001220703</ele>
        <time>2021-05-23T10:03:40Z</time>
      </trkpt>
      <trkpt lat="43.68064" lon="6.00819">
        <ele>610.20001220703</ele>
        <time>2021-05-23T10:03:41Z</time>
      </trkpt>
      <trkpt lat="43.68067" lon="6.00819">
        <ele>610</ele>
        <time>2021-05-23T10:03:42Z</time>
      </trkpt>
      <trkpt lat="43.68071" lon="6.00818">
        <ele>610</ele>
        <time>2021-05-23T10:03:43Z</time>
      </trkpt>
      <trkpt lat="43.68074" lon="6.00817">
        <ele>610</ele>
        <time>2021-05-23T10:03:44Z</time>
      </trkpt>
      <trkpt lat="43.68077" lon="6.00817">
        <ele>610</ele>
        <time>2021-05-23T10:03:45Z</time>
      </trkpt>
      <trkpt lat="43.68081" lon="6.00817">
        <ele>610</ele>
        <time>2021-05-23T10:03:46Z</time>
      </trkpt>
      <trkpt lat="43.68084" lon="6.00818">
        <ele>610</ele>
        <time>2021-05-23T10:03:47Z</time>
      </trkpt>
      <trkpt lat="43.68087" lon="6.00818">
        <ele>609.79998779297</ele>
        <time>2021-05-23T10:03:48Z</time>
      </trkpt>
      <trkpt lat="43.6809" lon="6.00817">
        <ele>609.79998779297</ele>
        <time>2021-05-23T10:03:49Z</time>
      </trkpt>
      <trkpt lat="43.68093" lon="6.00815">
        <ele>610</ele>
        <time>2021-05-23T10:03:50Z</time>
      </trkpt>
      <trkpt lat="43.68096" lon="6.00814">
        <ele>610</ele>
        <time>2021-05-23T10:03:51Z</time>
      </trkpt>
      <trkpt lat="43.681" lon="6.00813">
        <ele>609.79998779297</ele>
        <time>2021-05-23T10:03:52Z</time>
      </trkpt>
      <trkpt lat="43.68103" lon="6.00812">
        <ele>609.59997558594</ele>
        <time>2021-05-23T10:03:53Z</time>
      </trkpt>
      <trkpt lat="43.68106" lon="6.00811">
        <ele>609.79998779297</ele>
        <time>2021-05-23T10:03:54Z</time>
      </trkpt>
      <trkpt lat="43.6811" lon="6.00811">
        <ele>609.79998779297</ele>
        <time>2021-05-23T10:03:55Z</time>
      </trkpt>
      <trkpt lat="43.68113" lon="6.00811">
        <ele>609.59997558594</ele>
        <time>2021-05-23T10:03:56Z</time>
      </trkpt>
      <trkpt lat="43.68117" lon="6.0081">
        <ele>609.59997558594</ele>
        <time>2021-05-23T10:03:57Z</time>
      </trkpt>
      <trkpt lat="43.68121" lon="6.0081">
        <ele>609.59997558594</ele>
        <time>2021-05-23T10:03:58Z</time>
      </trkpt>
      <trkpt lat="43.68125" lon="6.0081">
        <ele>609.40002441406</ele>
        <time>2021-05-23T10:03:59Z</time>
      </trkpt>
      <trkpt lat="43.68128" lon="6.00811">
        <ele>609.40002441406</ele>
        <time>2021-05-23T10:04:00Z</time>
      </trkpt>
      <trkpt lat="43.68131" lon="6.00811">
        <ele>609.40002441406</ele>
        <time>2021-05-23T10:04:01Z</time>
      </trkpt>
      <trkpt lat="43.68135" lon="6.00811">
        <ele>609.20001220703</ele>
        <time>2021-05-23T10:04:02Z</time>
      </trkpt>
      <trkpt lat="43.68139" lon="6.0081">
        <ele>609.20001220703</ele>
        <time>2021-05-23T10:04:03Z</time>
      </trkpt>
      <trkpt lat="43.68142" lon="6.0081">
        <ele>609</ele>
        <time>2021-05-23T10:04:04Z</time>
      </trkpt>
      <trkpt lat="43.68145" lon="6.00808">
        <ele>609</ele>
        <time>2021-05-23T10:04:05Z</time>
      </trkpt>
      <trkpt lat="43.68149" lon="6.00807">
        <ele>609</ele>
        <time>2021-05-23T10:04:06Z</time>
      </trkpt>
      <trkpt lat="43.68152" lon="6.00806">
        <ele>609</ele>
        <time>2021-05-23T10:04:07Z</time>
      </trkpt>
      <trkpt lat="43.68156" lon="6.00806">
        <ele>609</ele>
        <time>2021-05-23T10:04:08Z</time>
      </trkpt>
      <trkpt lat="43.68159" lon="6.00806">
        <ele>609</ele>
        <time>2021-05-23T10:04:09Z</time>
      </trkpt>
      <trkpt lat="43.68163" lon="6.00806">
        <ele>609</ele>
        <time>2021-05-23T10:04:10Z</time>
      </trkpt>
      <trkpt lat="43.68167" lon="6.00805">
        <ele>609.20001220703</ele>
        <time>2021-05-23T10:04:11Z</time>
      </trkpt>
      <trkpt lat="43.6817" lon="6.00803">
        <ele>609.20001220703</ele>
        <time>2021-05-23T10:04:12Z</time>
      </trkpt>
      <trkpt lat="43.68173" lon="6.00801">
        <ele>609.20001220703</ele>
        <time>2021-05-23T10:04:13Z</time>
      </trkpt>
      <trkpt lat="43.68177" lon="6.008">
        <ele>609.20001220703</ele>
        <time>2021-05-23T10:04:14Z</time>
      </trkpt>
      <trkpt lat="43.6818" lon="6.008">
        <ele>609.20001220703</ele>
        <time>2021-05-23T10:04:15Z</time>
      </trkpt>
      <trkpt lat="43.68184" lon="6.00801">
        <ele>609.20001220703</ele>
        <time>2021-05-23T10:04:16Z</time>
      </trkpt>
      <trkpt lat="43.68188" lon="6.00802">
        <ele>609</ele>
        <time>2021-05-23T10:04:17Z</time>
      </trkpt>
      <trkpt lat="43.68191" lon="6.00803">
        <ele>609</ele>
        <time>2021-05-23T10:04:18Z</time>
      </trkpt>
      <trkpt lat="43.68194" lon="6.00804">
        <ele>608.79998779297</ele>
        <time>2021-05-23T10:04:19Z</time>
      </trkpt>
      <trkpt lat="43.68198" lon="6.00804">
        <ele>608.79998779297</ele>
        <time>2021-05-23T10:04:20Z</time>
      </trkpt>
      <trkpt lat="43.68202" lon="6.00804">
        <ele>608.59997558594</ele>
        <time>2021-05-23T10:04:21Z</time>
      </trkpt>
      <trkpt lat="43.68206" lon="6.00803">
        <ele>608.59997558594</ele>
        <time>2021-05-23T10:04:22Z</time>
      </trkpt>
      <trkpt lat="43.68209" lon="6.00801">
        <ele>608.59997558594</ele>
        <time>2021-05-23T10:04:23Z</time>
      </trkpt>
      <trkpt lat="43.68213" lon="6.00799">
        <ele>608.59997558594</ele>
        <time>2021-05-23T10:04:24Z</time>
      </trkpt>
      <trkpt lat="43.68216" lon="6.00798">
        <ele>608.59997558594</ele>
        <time>2021-05-23T10:04:25Z</time>
      </trkpt>
      <trkpt lat="43.6822" lon="6.00797">
        <ele>608.59997558594</ele>
        <time>2021-05-23T10:04:26Z</time>
      </trkpt>
      <trkpt lat="43.68223" lon="6.00796">
        <ele>608.59997558594</ele>
        <time>2021-05-23T10:04:27Z</time>
      </trkpt>
      <trkpt lat="43.68227" lon="6.00796">
        <ele>608.59997558594</ele>
        <time>2021-05-23T10:04:28Z</time>
      </trkpt>
      <trkpt lat="43.6823" lon="6.00797">
        <ele>608.40002441406</ele>
        <time>2021-05-23T10:04:29Z</time>
      </trkpt>
      <trkpt lat="43.68234" lon="6.00797">
        <ele>608.40002441406</ele>
        <time>2021-05-23T10:04:30Z</time>
      </trkpt>
      <trkpt lat="43.68237" lon="6.00796">
        <ele>608.40002441406</ele>
        <time>2021-05-23T10:04:31Z</time>
      </trkpt>
      <trkpt lat="43.6824" lon="6.00795">
        <ele>608.40002441406</ele>
        <time>2021-05-23T10:04:32Z</time>
      </trkpt>
      <trkpt lat="43.68243" lon="6.00793">
        <ele>608.40002441406</ele>
        <time>2021-05-23T10:04:33Z</time>
      </trkpt>
      <trkpt lat="43.68247" lon="6.00793">
        <ele>608.59997558594</ele>
        <time>2021-05-23T10:04:34Z</time>
      </trkpt>
      <trkpt lat="43.6825" lon="6.00792">
        <ele>608.59997558594</ele>
        <time>2021-05-23T10:04:35Z</time>
      </trkpt>
      <trkpt lat="43.68253" lon="6.00791">
        <ele>608.79998779297</ele>
        <time>2021-05-23T10:04:36Z</time>
      </trkpt>
      <trkpt lat="43.68257" lon="6.0079">
        <ele>608.79998779297</ele>
        <time>2021-05-23T10:04:37Z</time>
      </trkpt>
      <trkpt lat="43.6826" lon="6.0079">
        <ele>608.79998779297</ele>
        <time>2021-05-23T10:04:38Z</time>
      </trkpt>
      <trkpt lat="43.68264" lon="6.0079">
        <ele>608.79998779297</ele>
        <time>2021-05-23T10:04:39Z</time>
      </trkpt>
      <trkpt lat="43.68268" lon="6.00789">
        <ele>609</ele>
        <time>2021-05-23T10:04:40Z</time>
      </trkpt>
      <trkpt lat="43.68271" lon="6.00788">
        <ele>609</ele>
        <time>2021-05-23T10:04:41Z</time>
      </trkpt>
      <trkpt lat="43.68275" lon="6.00787">
        <ele>608.79998779297</ele>
        <time>2021-05-23T10:04:42Z</time>
      </trkpt>
      <trkpt lat="43.68278" lon="6.00786">
        <ele>608.59997558594</ele>
        <time>2021-05-23T10:04:43Z</time>
      </trkpt>
      <trkpt lat="43.68282" lon="6.00784">
        <ele>608.40002441406</ele>
        <time>2021-05-23T10:04:44Z</time>
      </trkpt>
      <trkpt lat="43.68285" lon="6.00783">
        <ele>608.20001220703</ele>
        <time>2021-05-23T10:04:45Z</time>
      </trkpt>
      <trkpt lat="43.68288" lon="6.00782">
        <ele>608.20001220703</ele>
        <time>2021-05-23T10:04:46Z</time>
      </trkpt>
      <trkpt lat="43.68291" lon="6.00781">
        <ele>608</ele>
        <time>2021-05-23T10:04:47Z</time>
      </trkpt>
      <trkpt lat="43.68294" lon="6.0078">
        <ele>607.79998779297</ele>
        <time>2021-05-23T10:04:48Z</time>
      </trkpt>
      <trkpt lat="43.68297" lon="6.00778">
        <ele>607.59997558594</ele>
        <time>2021-05-23T10:04:49Z</time>
      </trkpt>
      <trkpt lat="43.68299" lon="6.00776">
        <ele>607.59997558594</ele>
        <time>2021-05-23T10:04:50Z</time>
      </trkpt>
      <trkpt lat="43.68301" lon="6.00775">
        <ele>607.59997558594</ele>
        <time>2021-05-23T10:04:51Z</time>
      </trkpt>
      <trkpt lat="43.68303" lon="6.00774">
        <ele>607.40002441406</ele>
        <time>2021-05-23T10:04:52Z</time>
      </trkpt>
      <trkpt lat="43.68305" lon="6.00773">
        <ele>607</ele>
        <time>2021-05-23T10:04:53Z</time>
      </trkpt>
      <trkpt lat="43.68308" lon="6.00772">
        <ele>607</ele>
        <time>2021-05-23T10:04:54Z</time>
      </trkpt>
      <trkpt lat="43.6831" lon="6.00772">
        <ele>606.79998779297</ele>
        <time>2021-05-23T10:04:55Z</time>
      </trkpt>
      <trkpt lat="43.68312" lon="6.00772">
        <ele>606.59997558594</ele>
        <time>2021-05-23T10:04:56Z</time>
      </trkpt>
      <trkpt lat="43.68315" lon="6.00771">
        <ele>606.59997558594</ele>
        <time>2021-05-23T10:04:57Z</time>
      </trkpt>
      <trkpt lat="43.68319" lon="6.00771">
        <ele>606.40002441406</ele>
        <time>2021-05-23T10:04:58Z</time>
      </trkpt>
      <trkpt lat="43.68322" lon="6.0077">
        <ele>606.20001220703</ele>
        <time>2021-05-23T10:04:59Z</time>
      </trkpt>
      <trkpt lat="43.68325" lon="6.0077">
        <ele>605.79998779297</ele>
        <time>2021-05-23T10:05:00Z</time>
      </trkpt>
      <trkpt lat="43.68328" lon="6.0077">
        <ele>605.59997558594</ele>
        <time>2021-05-23T10:05:01Z</time>
      </trkpt>
      <trkpt lat="43.68331" lon="6.0077">
        <ele>605.40002441406</ele>
        <time>2021-05-23T10:05:02Z</time>
      </trkpt>
      <trkpt lat="43.68334" lon="6.0077">
        <ele>605.40002441406</ele>
        <time>2021-05-23T10:05:03Z</time>
      </trkpt>
      <trkpt lat="43.68337" lon="6.0077">
        <ele>605.40002441406</ele>
        <time>2021-05-23T10:05:04Z</time>
      </trkpt>
      <trkpt lat="43.68339" lon="6.00769">
        <ele>605.40002441406</ele>
        <time>2021-05-23T10:05:05Z</time>
      </trkpt>
      <trkpt lat="43.68342" lon="6.00768">
        <ele>605.40002441406</ele>
        <time>2021-05-23T10:05:06Z</time>
      </trkpt>
      <trkpt lat="43.68345" lon="6.00767">
        <ele>605.59997558594</ele>
        <time>2021-05-23T10:05:07Z</time>
      </trkpt>
      <trkpt lat="43.68348" lon="6.00766">
        <ele>605.59997558594</ele>
        <time>2021-05-23T10:05:08Z</time>
      </trkpt>
      <trkpt lat="43.68351" lon="6.00765">
        <ele>605.59997558594</ele>
        <time>2021-05-23T10:05:09Z</time>
      </trkpt>
      <trkpt lat="43.68354" lon="6.00764">
        <ele>605.79998779297</ele>
        <time>2021-05-23T10:05:10Z</time>
      </trkpt>
      <trkpt lat="43.68357" lon="6.00764">
        <ele>605.79998779297</ele>
        <time>2021-05-23T10:05:11Z</time>
      </trkpt>
      <trkpt lat="43.6836" lon="6.00764">
        <ele>606</ele>
        <time>2021-05-23T10:05:12Z</time>
      </trkpt>
      <trkpt lat="43.68363" lon="6.00763">
        <ele>606.20001220703</ele>
        <time>2021-05-23T10:05:13Z</time>
      </trkpt>
      <trkpt lat="43.68365" lon="6.0076">
        <ele>606.20001220703</ele>
        <time>2021-05-23T10:05:14Z</time>
      </trkpt>
      <trkpt lat="43.68368" lon="6.00758">
        <ele>606.40002441406</ele>
        <time>2021-05-23T10:05:15Z</time>
      </trkpt>
      <trkpt lat="43.6837" lon="6.00755">
        <ele>606.40002441406</ele>
        <time>2021-05-23T10:05:16Z</time>
      </trkpt>
      <trkpt lat="43.68373" lon="6.00753">
        <ele>606.40002441406</ele>
        <time>2021-05-23T10:05:17Z</time>
      </trkpt>
      <trkpt lat="43.68376" lon="6.00752">
        <ele>606.40002441406</ele>
        <time>2021-05-23T10:05:18Z</time>
      </trkpt>
      <trkpt lat="43.68379" lon="6.00752">
        <ele>606.40002441406</ele>
        <time>2021-05-23T10:05:19Z</time>
      </trkpt>
      <trkpt lat="43.68382" lon="6.00753">
        <ele>606.40002441406</ele>
        <time>2021-05-23T10:05:20Z</time>
      </trkpt>
      <trkpt lat="43.68386" lon="6.00753">
        <ele>606.20001220703</ele>
        <time>2021-05-23T10:05:21Z</time>
      </trkpt>
      <trkpt lat="43.68389" lon="6.00753">
        <ele>606.20001220703</ele>
        <time>2021-05-23T10:05:22Z</time>
      </trkpt>
      <trkpt lat="43.68392" lon="6.00752">
        <ele>606.40002441406</ele>
        <time>2021-05-23T10:05:23Z</time>
      </trkpt>
      <trkpt lat="43.68395" lon="6.00751">
        <ele>606.40002441406</ele>
        <time>2021-05-23T10:05:24Z</time>
      </trkpt>
      <trkpt lat="43.68398" lon="6.0075">
        <ele>606.20001220703</ele>
        <time>2021-05-23T10:05:25Z</time>
      </trkpt>
      <trkpt lat="43.68401" lon="6.00749">
        <ele>606.20001220703</ele>
        <time>2021-05-23T10:05:26Z</time>
      </trkpt>
      <trkpt lat="43.68404" lon="6.00747">
        <ele>606.20001220703</ele>
        <time>2021-05-23T10:05:27Z</time>
      </trkpt>
      <trkpt lat="43.68407" lon="6.00745">
        <ele>606.40002441406</ele>
        <time>2021-05-23T10:05:28Z</time>
      </trkpt>
      <trkpt lat="43.68411" lon="6.00743">
        <ele>606.40002441406</ele>
        <time>2021-05-23T10:05:29Z</time>
      </trkpt>
      <trkpt lat="43.68414" lon="6.00742">
        <ele>606.40002441406</ele>
        <time>2021-05-23T10:05:30Z</time>
      </trkpt>
      <trkpt lat="43.68417" lon="6.0074">
        <ele>606.40002441406</ele>
        <time>2021-05-23T10:05:31Z</time>
      </trkpt>
      <trkpt lat="43.6842" lon="6.00739">
        <ele>606.40002441406</ele>
        <time>2021-05-23T10:05:32Z</time>
      </trkpt>
      <trkpt lat="43.68424" lon="6.00737">
        <ele>606.40002441406</ele>
        <time>2021-05-23T10:05:33Z</time>
      </trkpt>
      <trkpt lat="43.68427" lon="6.00736">
        <ele>606.40002441406</ele>
        <time>2021-05-23T10:05:34Z</time>
      </trkpt>
      <trkpt lat="43.68431" lon="6.00734">
        <ele>606.40002441406</ele>
        <time>2021-05-23T10:05:35Z</time>
      </trkpt>
      <trkpt lat="43.68434" lon="6.00732">
        <ele>606.20001220703</ele>
        <time>2021-05-23T10:05:36Z</time>
      </trkpt>
      <trkpt lat="43.68438" lon="6.00731">
        <ele>606.20001220703</ele>
        <time>2021-05-23T10:05:37Z</time>
      </trkpt>
      <trkpt lat="43.68442" lon="6.00729">
        <ele>606.20001220703</ele>
        <time>2021-05-23T10:05:38Z</time>
      </trkpt>
      <trkpt lat="43.68445" lon="6.00727">
        <ele>606.20001220703</ele>
        <time>2021-05-23T10:05:39Z</time>
      </trkpt>
      <trkpt lat="43.68449" lon="6.00725">
        <ele>606</ele>
        <time>2021-05-23T10:05:40Z</time>
      </trkpt>
      <trkpt lat="43.68452" lon="6.00723">
        <ele>605.79998779297</ele>
        <time>2021-05-23T10:05:41Z</time>
      </trkpt>
      <trkpt lat="43.68455" lon="6.00721">
        <ele>605.79998779297</ele>
        <time>2021-05-23T10:05:42Z</time>
      </trkpt>
      <trkpt lat="43.68458" lon="6.00718">
        <ele>605.79998779297</ele>
        <time>2021-05-23T10:05:43Z</time>
      </trkpt>
      <trkpt lat="43.68461" lon="6.00715">
        <ele>605.59997558594</ele>
        <time>2021-05-23T10:05:44Z</time>
      </trkpt>
      <trkpt lat="43.68464" lon="6.00712">
        <ele>605.59997558594</ele>
        <time>2021-05-23T10:05:45Z</time>
      </trkpt>
      <trkpt lat="43.68467" lon="6.00709">
        <ele>606</ele>
        <time>2021-05-23T10:05:46Z</time>
      </trkpt>
      <trkpt lat="43.6847" lon="6.00705">
        <ele>605.59997558594</ele>
        <time>2021-05-23T10:05:47Z</time>
      </trkpt>
      <trkpt lat="43.68473" lon="6.00703">
        <ele>605.59997558594</ele>
        <time>2021-05-23T10:05:48Z</time>
      </trkpt>
      <trkpt lat="43.68476" lon="6.00701">
        <ele>605.59997558594</ele>
        <time>2021-05-23T10:05:49Z</time>
      </trkpt>
      <trkpt lat="43.6848" lon="6.00699">
        <ele>605.59997558594</ele>
        <time>2021-05-23T10:05:50Z</time>
      </trkpt>
      <trkpt lat="43.68483" lon="6.00697">
        <ele>605.40002441406</ele>
        <time>2021-05-23T10:05:51Z</time>
      </trkpt>
      <trkpt lat="43.68486" lon="6.00695">
        <ele>605.20001220703</ele>
        <time>2021-05-23T10:05:52Z</time>
      </trkpt>
      <trkpt lat="43.6849" lon="6.00694">
        <ele>605.20001220703</ele>
        <time>2021-05-23T10:05:53Z</time>
      </trkpt>
      <trkpt lat="43.68493" lon="6.00692">
        <ele>605.40002441406</ele>
        <time>2021-05-23T10:05:54Z</time>
      </trkpt>
      <trkpt lat="43.68496" lon="6.00691">
        <ele>605.40002441406</ele>
        <time>2021-05-23T10:05:55Z</time>
      </trkpt>
      <trkpt lat="43.685" lon="6.00689">
        <ele>605.40002441406</ele>
        <time>2021-05-23T10:05:56Z</time>
      </trkpt>
      <trkpt lat="43.68503" lon="6.00687">
        <ele>605.40002441406</ele>
        <time>2021-05-23T10:05:57Z</time>
      </trkpt>
      <trkpt lat="43.68506" lon="6.00686">
        <ele>605.59997558594</ele>
        <time>2021-05-23T10:05:58Z</time>
      </trkpt>
      <trkpt lat="43.68509" lon="6.00684">
        <ele>605.59997558594</ele>
        <time>2021-05-23T10:05:59Z</time>
      </trkpt>
      <trkpt lat="43.68512" lon="6.00682">
        <ele>605.59997558594</ele>
        <time>2021-05-23T10:06:00Z</time>
      </trkpt>
      <trkpt lat="43.68515" lon="6.0068">
        <ele>605.59997558594</ele>
        <time>2021-05-23T10:06:01Z</time>
      </trkpt>
      <trkpt lat="43.68518" lon="6.00677">
        <ele>605.59997558594</ele>
        <time>2021-05-23T10:06:02Z</time>
      </trkpt>
      <trkpt lat="43.6852" lon="6.00673">
        <ele>605.59997558594</ele>
        <time>2021-05-23T10:06:03Z</time>
      </trkpt>
      <trkpt lat="43.68523" lon="6.00669">
        <ele>605.59997558594</ele>
        <time>2021-05-23T10:06:04Z</time>
      </trkpt>
      <trkpt lat="43.68525" lon="6.00665">
        <ele>605.59997558594</ele>
        <time>2021-05-23T10:06:05Z</time>
      </trkpt>
      <trkpt lat="43.68528" lon="6.00662">
        <ele>605.59997558594</ele>
        <time>2021-05-23T10:06:06Z</time>
      </trkpt>
      <trkpt lat="43.6853" lon="6.00658">
        <ele>605.40002441406</ele>
        <time>2021-05-23T10:06:07Z</time>
      </trkpt>
      <trkpt lat="43.68532" lon="6.00654">
        <ele>605.40002441406</ele>
        <time>2021-05-23T10:06:08Z</time>
      </trkpt>
      <trkpt lat="43.68534" lon="6.0065">
        <ele>605.40002441406</ele>
        <time>2021-05-23T10:06:09Z</time>
      </trkpt>
      <trkpt lat="43.68536" lon="6.00647">
        <ele>605.40002441406</ele>
        <time>2021-05-23T10:06:10Z</time>
      </trkpt>
      <trkpt lat="43.68539" lon="6.00644">
        <ele>605.40002441406</ele>
        <time>2021-05-23T10:06:11Z</time>
      </trkpt>
      <trkpt lat="43.68542" lon="6.00642">
        <ele>605.20001220703</ele>
        <time>2021-05-23T10:06:12Z</time>
      </trkpt>
      <trkpt lat="43.68544" lon="6.00639">
        <ele>605.20001220703</ele>
        <time>2021-05-23T10:06:13Z</time>
      </trkpt>
      <trkpt lat="43.68547" lon="6.00635">
        <ele>605.20001220703</ele>
        <time>2021-05-23T10:06:14Z</time>
      </trkpt>
      <trkpt lat="43.6855" lon="6.00632">
        <ele>605.20001220703</ele>
        <time>2021-05-23T10:06:15Z</time>
      </trkpt>
      <trkpt lat="43.68553" lon="6.00629">
        <ele>605.20001220703</ele>
        <time>2021-05-23T10:06:16Z</time>
      </trkpt>
      <trkpt lat="43.68556" lon="6.00626">
        <ele>605.20001220703</ele>
        <time>2021-05-23T10:06:17Z</time>
      </trkpt>
      <trkpt lat="43.68559" lon="6.00624">
        <ele>605</ele>
        <time>2021-05-23T10:06:18Z</time>
      </trkpt>
      <trkpt lat="43.68562" lon="6.00622">
        <ele>604.79998779297</ele>
        <time>2021-05-23T10:06:19Z</time>
      </trkpt>
      <trkpt lat="43.68565" lon="6.00619">
        <ele>604.79998779297</ele>
        <time>2021-05-23T10:06:20Z</time>
      </trkpt>
      <trkpt lat="43.68569" lon="6.00617">
        <ele>604.40002441406</ele>
        <time>2021-05-23T10:06:21Z</time>
      </trkpt>
      <trkpt lat="43.68572" lon="6.00616">
        <ele>604.40002441406</ele>
        <time>2021-05-23T10:06:22Z</time>
      </trkpt>
      <trkpt lat="43.68575" lon="6.00614">
        <ele>604.20001220703</ele>
        <time>2021-05-23T10:06:23Z</time>
      </trkpt>
      <trkpt lat="43.68578" lon="6.00612">
        <ele>604.40002441406</ele>
        <time>2021-05-23T10:06:24Z</time>
      </trkpt>
      <trkpt lat="43.68581" lon="6.00611">
        <ele>604.40002441406</ele>
        <time>2021-05-23T10:06:25Z</time>
      </trkpt>
      <trkpt lat="43.68583" lon="6.0061">
        <ele>604.20001220703</ele>
        <time>2021-05-23T10:06:26Z</time>
      </trkpt>
      <trkpt lat="43.68585" lon="6.00609">
        <ele>604.59997558594</ele>
        <time>2021-05-23T10:06:27Z</time>
      </trkpt>
      <trkpt lat="43.68587" lon="6.00608">
        <ele>604.59997558594</ele>
        <time>2021-05-23T10:06:28Z</time>
      </trkpt>
      <trkpt lat="43.68589" lon="6.00608">
        <ele>604.79998779297</ele>
        <time>2021-05-23T10:06:29Z</time>
      </trkpt>
      <trkpt lat="43.68591" lon="6.00609">
        <ele>604.79998779297</ele>
        <time>2021-05-23T10:06:30Z</time>
      </trkpt>
      <trkpt lat="43.68592" lon="6.00611">
        <ele>604.79998779297</ele>
        <time>2021-05-23T10:06:31Z</time>
      </trkpt>
      <trkpt lat="43.68594" lon="6.00613">
        <ele>605</ele>
        <time>2021-05-23T10:06:32Z</time>
      </trkpt>
      <trkpt lat="43.68596" lon="6.00614">
        <ele>604.79998779297</ele>
        <time>2021-05-23T10:06:33Z</time>
      </trkpt>
      <trkpt lat="43.68598" lon="6.00615">
        <ele>604.79998779297</ele>
        <time>2021-05-23T10:06:34Z</time>
      </trkpt>
      <trkpt lat="43.686" lon="6.00616">
        <ele>604.59997558594</ele>
        <time>2021-05-23T10:06:35Z</time>
      </trkpt>
      <trkpt lat="43.68602" lon="6.00617">
        <ele>604.59997558594</ele>
        <time>2021-05-23T10:06:36Z</time>
      </trkpt>
      <trkpt lat="43.68604" lon="6.00619">
        <ele>604.79998779297</ele>
        <time>2021-05-23T10:06:37Z</time>
      </trkpt>
      <trkpt lat="43.68607" lon="6.0062">
        <ele>604.79998779297</ele>
        <time>2021-05-23T10:06:38Z</time>
      </trkpt>
      <trkpt lat="43.68609" lon="6.00622">
        <ele>604.79998779297</ele>
        <time>2021-05-23T10:06:39Z</time>
      </trkpt>
      <trkpt lat="43.68611" lon="6.00624">
        <ele>604.79998779297</ele>
        <time>2021-05-23T10:06:40Z</time>
      </trkpt>
      <trkpt lat="43.68614" lon="6.00625">
        <ele>604.79998779297</ele>
        <time>2021-05-23T10:06:41Z</time>
      </trkpt>
      <trkpt lat="43.68616" lon="6.00626">
        <ele>604.79998779297</ele>
        <time>2021-05-23T10:06:42Z</time>
      </trkpt>
      <trkpt lat="43.68619" lon="6.00628">
        <ele>604.59997558594</ele>
        <time>2021-05-23T10:06:43Z</time>
      </trkpt>
      <trkpt lat="43.68621" lon="6.00629">
        <ele>604.59997558594</ele>
        <time>2021-05-23T10:06:44Z</time>
      </trkpt>
      <trkpt lat="43.68624" lon="6.00629">
        <ele>604.59997558594</ele>
        <time>2021-05-23T10:06:45Z</time>
      </trkpt>
      <trkpt lat="43.68627" lon="6.00628">
        <ele>604.40002441406</ele>
        <time>2021-05-23T10:06:46Z</time>
      </trkpt>
      <trkpt lat="43.68631" lon="6.00627">
        <ele>604.59997558594</ele>
        <time>2021-05-23T10:06:47Z</time>
      </trkpt>
      <trkpt lat="43.68634" lon="6.00626">
        <ele>604.40002441406</ele>
        <time>2021-05-23T10:06:48Z</time>
      </trkpt>
      <trkpt lat="43.68637" lon="6.00626">
        <ele>604.20001220703</ele>
        <time>2021-05-23T10:06:49Z</time>
      </trkpt>
      <trkpt lat="43.6864" lon="6.00627">
        <ele>604.20001220703</ele>
        <time>2021-05-23T10:06:50Z</time>
      </trkpt>
      <trkpt lat="43.68643" lon="6.00627">
        <ele>604.20001220703</ele>
        <time>2021-05-23T10:06:51Z</time>
      </trkpt>
      <trkpt lat="43.68645" lon="6.00628">
        <ele>604</ele>
        <time>2021-05-23T10:06:52Z</time>
      </trkpt>
      <trkpt lat="43.68648" lon="6.00628">
        <ele>604</ele>
        <time>2021-05-23T10:06:53Z</time>
      </trkpt>
      <trkpt lat="43.68651" lon="6.00629">
        <ele>604</ele>
        <time>2021-05-23T10:06:54Z</time>
      </trkpt>
      <trkpt lat="43.68654" lon="6.0063">
        <ele>604</ele>
        <time>2021-05-23T10:06:55Z</time>
      </trkpt>
      <trkpt lat="43.68657" lon="6.00631">
        <ele>604</ele>
        <time>2021-05-23T10:06:56Z</time>
      </trkpt>
      <trkpt lat="43.6866" lon="6.00631">
        <ele>603.79998779297</ele>
        <time>2021-05-23T10:06:57Z</time>
      </trkpt>
      <trkpt lat="43.68663" lon="6.00632">
        <ele>603.59997558594</ele>
        <time>2021-05-23T10:06:58Z</time>
      </trkpt>
      <trkpt lat="43.68666" lon="6.00632">
        <ele>603.59997558594</ele>
        <time>2021-05-23T10:06:59Z</time>
      </trkpt>
      <trkpt lat="43.68669" lon="6.00631">
        <ele>603.59997558594</ele>
        <time>2021-05-23T10:07:00Z</time>
      </trkpt>
      <trkpt lat="43.68673" lon="6.00631">
        <ele>603.59997558594</ele>
        <time>2021-05-23T10:07:01Z</time>
      </trkpt>
      <trkpt lat="43.68676" lon="6.0063">
        <ele>603.40002441406</ele>
        <time>2021-05-23T10:07:02Z</time>
      </trkpt>
      <trkpt lat="43.68679" lon="6.00629">
        <ele>603.40002441406</ele>
        <time>2021-05-23T10:07:03Z</time>
      </trkpt>
      <trkpt lat="43.68682" lon="6.00627">
        <ele>603.59997558594</ele>
        <time>2021-05-23T10:07:04Z</time>
      </trkpt>
      <trkpt lat="43.68685" lon="6.00625">
        <ele>603.59997558594</ele>
        <time>2021-05-23T10:07:05Z</time>
      </trkpt>
      <trkpt lat="43.68688" lon="6.00622">
        <ele>603.59997558594</ele>
        <time>2021-05-23T10:07:06Z</time>
      </trkpt>
      <trkpt lat="43.68691" lon="6.0062">
        <ele>603.79998779297</ele>
        <time>2021-05-23T10:07:07Z</time>
      </trkpt>
      <trkpt lat="43.68694" lon="6.00619">
        <ele>603.79998779297</ele>
        <time>2021-05-23T10:07:08Z</time>
      </trkpt>
      <trkpt lat="43.68697" lon="6.00617">
        <ele>603.79998779297</ele>
        <time>2021-05-23T10:07:09Z</time>
      </trkpt>
      <trkpt lat="43.687" lon="6.00616">
        <ele>603.79998779297</ele>
        <time>2021-05-23T10:07:10Z</time>
      </trkpt>
      <trkpt lat="43.68703" lon="6.00614">
        <ele>604</ele>
        <time>2021-05-23T10:07:11Z</time>
      </trkpt>
      <trkpt lat="43.68706" lon="6.00613">
        <ele>603.79998779297</ele>
        <time>2021-05-23T10:07:12Z</time>
      </trkpt>
      <trkpt lat="43.68709" lon="6.00611">
        <ele>603.79998779297</ele>
        <time>2021-05-23T10:07:13Z</time>
      </trkpt>
      <trkpt lat="43.68711" lon="6.00609">
        <ele>603.79998779297</ele>
        <time>2021-05-23T10:07:14Z</time>
      </trkpt>
      <trkpt lat="43.68714" lon="6.00606">
        <ele>603.79998779297</ele>
        <time>2021-05-23T10:07:15Z</time>
      </trkpt>
      <trkpt lat="43.68716" lon="6.00603">
        <ele>603.79998779297</ele>
        <time>2021-05-23T10:07:16Z</time>
      </trkpt>
      <trkpt lat="43.68719" lon="6.00601">
        <ele>603.79998779297</ele>
        <time>2021-05-23T10:07:17Z</time>
      </trkpt>
      <trkpt lat="43.68722" lon="6.00598">
        <ele>603.79998779297</ele>
        <time>2021-05-23T10:07:18Z</time>
      </trkpt>
      <trkpt lat="43.68724" lon="6.00596">
        <ele>603.79998779297</ele>
        <time>2021-05-23T10:07:19Z</time>
      </trkpt>
      <trkpt lat="43.68727" lon="6.00594">
        <ele>603.79998779297</ele>
        <time>2021-05-23T10:07:20Z</time>
      </trkpt>
      <trkpt lat="43.6873" lon="6.00592">
        <ele>603.79998779297</ele>
        <time>2021-05-23T10:07:21Z</time>
      </trkpt>
      <trkpt lat="43.68733" lon="6.0059">
        <ele>603.79998779297</ele>
        <time>2021-05-23T10:07:22Z</time>
      </trkpt>
      <trkpt lat="43.68736" lon="6.00587">
        <ele>603.40002441406</ele>
        <time>2021-05-23T10:07:23Z</time>
      </trkpt>
      <trkpt lat="43.68739" lon="6.00585">
        <ele>603.20001220703</ele>
        <time>2021-05-23T10:07:24Z</time>
      </trkpt>
      <trkpt lat="43.68743" lon="6.00582">
        <ele>603</ele>
        <time>2021-05-23T10:07:25Z</time>
      </trkpt>
      <trkpt lat="43.68746" lon="6.0058">
        <ele>603</ele>
        <time>2021-05-23T10:07:26Z</time>
      </trkpt>
      <trkpt lat="43.68749" lon="6.00577">
        <ele>603</ele>
        <time>2021-05-23T10:07:27Z</time>
      </trkpt>
      <trkpt lat="43.68751" lon="6.00575">
        <ele>603</ele>
        <time>2021-05-23T10:07:28Z</time>
      </trkpt>
      <trkpt lat="43.68754" lon="6.00574">
        <ele>603.20001220703</ele>
        <time>2021-05-23T10:07:29Z</time>
      </trkpt>
      <trkpt lat="43.68757" lon="6.00573">
        <ele>603.20001220703</ele>
        <time>2021-05-23T10:07:30Z</time>
      </trkpt>
      <trkpt lat="43.68761" lon="6.00572">
        <ele>603.20001220703</ele>
        <time>2021-05-23T10:07:31Z</time>
      </trkpt>
      <trkpt lat="43.68764" lon="6.00572">
        <ele>603.40002441406</ele>
        <time>2021-05-23T10:07:32Z</time>
      </trkpt>
      <trkpt lat="43.68767" lon="6.00571">
        <ele>603.40002441406</ele>
        <time>2021-05-23T10:07:33Z</time>
      </trkpt>
      <trkpt lat="43.68769" lon="6.00571">
        <ele>603.59997558594</ele>
        <time>2021-05-23T10:07:34Z</time>
      </trkpt>
      <trkpt lat="43.68773" lon="6.00572">
        <ele>603.79998779297</ele>
        <time>2021-05-23T10:07:35Z</time>
      </trkpt>
      <trkpt lat="43.68776" lon="6.00572">
        <ele>603.79998779297</ele>
        <time>2021-05-23T10:07:36Z</time>
      </trkpt>
      <trkpt lat="43.68779" lon="6.00572">
        <ele>603.79998779297</ele>
        <time>2021-05-23T10:07:37Z</time>
      </trkpt>
      <trkpt lat="43.68782" lon="6.00572">
        <ele>603.79998779297</ele>
        <time>2021-05-23T10:07:38Z</time>
      </trkpt>
      <trkpt lat="43.68785" lon="6.00572">
        <ele>603.79998779297</ele>
        <time>2021-05-23T10:07:39Z</time>
      </trkpt>
      <trkpt lat="43.68788" lon="6.00573">
        <ele>603.59997558594</ele>
        <time>2021-05-23T10:07:40Z</time>
      </trkpt>
      <trkpt lat="43.68791" lon="6.00574">
        <ele>603.59997558594</ele>
        <time>2021-05-23T10:07:41Z</time>
      </trkpt>
      <trkpt lat="43.68794" lon="6.00576">
        <ele>603.40002441406</ele>
        <time>2021-05-23T10:07:42Z</time>
      </trkpt>
      <trkpt lat="43.68796" lon="6.00579">
        <ele>603.40002441406</ele>
        <time>2021-05-23T10:07:43Z</time>
      </trkpt>
      <trkpt lat="43.68799" lon="6.00582">
        <ele>603.40002441406</ele>
        <time>2021-05-23T10:07:44Z</time>
      </trkpt>
      <trkpt lat="43.68801" lon="6.00585">
        <ele>603.40002441406</ele>
        <time>2021-05-23T10:07:45Z</time>
      </trkpt>
      <trkpt lat="43.68804" lon="6.00589">
        <ele>603.40002441406</ele>
        <time>2021-05-23T10:07:46Z</time>
      </trkpt>
      <trkpt lat="43.68806" lon="6.00592">
        <ele>603.40002441406</ele>
        <time>2021-05-23T10:07:47Z</time>
      </trkpt>
      <trkpt lat="43.68808" lon="6.00595">
        <ele>603.40002441406</ele>
        <time>2021-05-23T10:07:48Z</time>
      </trkpt>
      <trkpt lat="43.6881" lon="6.00598">
        <ele>603.20001220703</ele>
        <time>2021-05-23T10:07:49Z</time>
      </trkpt>
      <trkpt lat="43.68813" lon="6.00601">
        <ele>603</ele>
        <time>2021-05-23T10:07:50Z</time>
      </trkpt>
      <trkpt lat="43.68815" lon="6.00604">
        <ele>603</ele>
        <time>2021-05-23T10:07:51Z</time>
      </trkpt>
      <trkpt lat="43.68817" lon="6.00607">
        <ele>602.79998779297</ele>
        <time>2021-05-23T10:07:52Z</time>
      </trkpt>
      <trkpt lat="43.68819" lon="6.00611">
        <ele>602.59997558594</ele>
        <time>2021-05-23T10:07:53Z</time>
      </trkpt>
      <trkpt lat="43.68821" lon="6.00615">
        <ele>602.59997558594</ele>
        <time>2021-05-23T10:07:54Z</time>
      </trkpt>
      <trkpt lat="43.68822" lon="6.00619">
        <ele>602.59997558594</ele>
        <time>2021-05-23T10:07:55Z</time>
      </trkpt>
      <trkpt lat="43.68823" lon="6.00623">
        <ele>602.79998779297</ele>
        <time>2021-05-23T10:07:56Z</time>
      </trkpt>
      <trkpt lat="43.68824" lon="6.00627">
        <ele>602.79998779297</ele>
        <time>2021-05-23T10:07:57Z</time>
      </trkpt>
      <trkpt lat="43.68825" lon="6.00631">
        <ele>603</ele>
        <time>2021-05-23T10:07:58Z</time>
      </trkpt>
      <trkpt lat="43.68826" lon="6.00635">
        <ele>603</ele>
        <time>2021-05-23T10:07:59Z</time>
      </trkpt>
      <trkpt lat="43.68826" lon="6.0064">
        <ele>603</ele>
        <time>2021-05-23T10:08:00Z</time>
      </trkpt>
      <trkpt lat="43.68826" lon="6.00644">
        <ele>603</ele>
        <time>2021-05-23T10:08:01Z</time>
      </trkpt>
      <trkpt lat="43.68826" lon="6.00648">
        <ele>603</ele>
        <time>2021-05-23T10:08:02Z</time>
      </trkpt>
      <trkpt lat="43.68826" lon="6.00653">
        <ele>603</ele>
        <time>2021-05-23T10:08:03Z</time>
      </trkpt>
      <trkpt lat="43.68827" lon="6.00657">
        <ele>603</ele>
        <time>2021-05-23T10:08:04Z</time>
      </trkpt>
      <trkpt lat="43.68827" lon="6.00661">
        <ele>603</ele>
        <time>2021-05-23T10:08:05Z</time>
      </trkpt>
      <trkpt lat="43.68828" lon="6.00665">
        <ele>603</ele>
        <time>2021-05-23T10:08:06Z</time>
      </trkpt>
      <trkpt lat="43.6883" lon="6.00669">
        <ele>602.79998779297</ele>
        <time>2021-05-23T10:08:07Z</time>
      </trkpt>
      <trkpt lat="43.68831" lon="6.00673">
        <ele>602.59997558594</ele>
        <time>2021-05-23T10:08:08Z</time>
      </trkpt>
      <trkpt lat="43.68833" lon="6.00677">
        <ele>602.40002441406</ele>
        <time>2021-05-23T10:08:09Z</time>
      </trkpt>
      <trkpt lat="43.68834" lon="6.00681">
        <ele>602.20001220703</ele>
        <time>2021-05-23T10:08:10Z</time>
      </trkpt>
      <trkpt lat="43.68835" lon="6.00685">
        <ele>602.20001220703</ele>
        <time>2021-05-23T10:08:11Z</time>
      </trkpt>
      <trkpt lat="43.68835" lon="6.00689">
        <ele>602</ele>
        <time>2021-05-23T10:08:12Z</time>
      </trkpt>
      <trkpt lat="43.68836" lon="6.00693">
        <ele>602</ele>
        <time>2021-05-23T10:08:13Z</time>
      </trkpt>
      <trkpt lat="43.68837" lon="6.00697">
        <ele>601.79998779297</ele>
        <time>2021-05-23T10:08:14Z</time>
      </trkpt>
      <trkpt lat="43.68838" lon="6.00701">
        <ele>601.79998779297</ele>
        <time>2021-05-23T10:08:15Z</time>
      </trkpt>
      <trkpt lat="43.68838" lon="6.00705">
        <ele>601.59997558594</ele>
        <time>2021-05-23T10:08:16Z</time>
      </trkpt>
      <trkpt lat="43.68839" lon="6.00709">
        <ele>601.59997558594</ele>
        <time>2021-05-23T10:08:17Z</time>
      </trkpt>
      <trkpt lat="43.6884" lon="6.00712">
        <ele>601.59997558594</ele>
        <time>2021-05-23T10:08:18Z</time>
      </trkpt>
      <trkpt lat="43.68841" lon="6.00715">
        <ele>601.59997558594</ele>
        <time>2021-05-23T10:08:19Z</time>
      </trkpt>
      <trkpt lat="43.68842" lon="6.00718">
        <ele>601.40002441406</ele>
        <time>2021-05-23T10:08:20Z</time>
      </trkpt>
      <trkpt lat="43.68843" lon="6.00721">
        <ele>601.40002441406</ele>
        <time>2021-05-23T10:08:21Z</time>
      </trkpt>
      <trkpt lat="43.68844" lon="6.00724">
        <ele>601.40002441406</ele>
        <time>2021-05-23T10:08:22Z</time>
      </trkpt>
      <trkpt lat="43.68845" lon="6.00727">
        <ele>601.40002441406</ele>
        <time>2021-05-23T10:08:23Z</time>
      </trkpt>
      <trkpt lat="43.68846" lon="6.0073">
        <ele>601.40002441406</ele>
        <time>2021-05-23T10:08:24Z</time>
      </trkpt>
      <trkpt lat="43.68847" lon="6.00733">
        <ele>601.40002441406</ele>
        <time>2021-05-23T10:08:25Z</time>
      </trkpt>
      <trkpt lat="43.68847" lon="6.00735">
        <ele>601.40002441406</ele>
        <time>2021-05-23T10:08:26Z</time>
      </trkpt>
      <trkpt lat="43.68847" lon="6.00738">
        <ele>601.20001220703</ele>
        <time>2021-05-23T10:08:27Z</time>
      </trkpt>
      <trkpt lat="43.68847" lon="6.00742">
        <ele>601.20001220703</ele>
        <time>2021-05-23T10:08:28Z</time>
      </trkpt>
      <trkpt lat="43.68847" lon="6.00746">
        <ele>601.20001220703</ele>
        <time>2021-05-23T10:08:29Z</time>
      </trkpt>
      <trkpt lat="43.68848" lon="6.00749">
        <ele>601.20001220703</ele>
        <time>2021-05-23T10:08:30Z</time>
      </trkpt>
      <trkpt lat="43.68848" lon="6.00751">
        <ele>601.20001220703</ele>
        <time>2021-05-23T10:08:31Z</time>
      </trkpt>
      <trkpt lat="43.6885" lon="6.00754">
        <ele>601.20001220703</ele>
        <time>2021-05-23T10:08:32Z</time>
      </trkpt>
      <trkpt lat="43.68851" lon="6.00757">
        <ele>601.20001220703</ele>
        <time>2021-05-23T10:08:33Z</time>
      </trkpt>
      <trkpt lat="43.68853" lon="6.00761">
        <ele>601.20001220703</ele>
        <time>2021-05-23T10:08:34Z</time>
      </trkpt>
      <trkpt lat="43.68855" lon="6.00764">
        <ele>601.40002441406</ele>
        <time>2021-05-23T10:08:35Z</time>
      </trkpt>
      <trkpt lat="43.68857" lon="6.00768">
        <ele>601.20001220703</ele>
        <time>2021-05-23T10:08:36Z</time>
      </trkpt>
      <trkpt lat="43.68859" lon="6.00771">
        <ele>601.20001220703</ele>
        <time>2021-05-23T10:08:37Z</time>
      </trkpt>
      <trkpt lat="43.6886" lon="6.00774">
        <ele>601</ele>
        <time>2021-05-23T10:08:38Z</time>
      </trkpt>
      <trkpt lat="43.68861" lon="6.00777">
        <ele>600.79998779297</ele>
        <time>2021-05-23T10:08:39Z</time>
      </trkpt>
      <trkpt lat="43.68862" lon="6.0078">
        <ele>600.79998779297</ele>
        <time>2021-05-23T10:08:40Z</time>
      </trkpt>
      <trkpt lat="43.68863" lon="6.00783">
        <ele>600.79998779297</ele>
        <time>2021-05-23T10:08:41Z</time>
      </trkpt>
      <trkpt lat="43.68864" lon="6.00786">
        <ele>600.79998779297</ele>
        <time>2021-05-23T10:08:42Z</time>
      </trkpt>
      <trkpt lat="43.68865" lon="6.0079">
        <ele>600.79998779297</ele>
        <time>2021-05-23T10:08:43Z</time>
      </trkpt>
      <trkpt lat="43.68867" lon="6.00794">
        <ele>600.79998779297</ele>
        <time>2021-05-23T10:08:44Z</time>
      </trkpt>
      <trkpt lat="43.68869" lon="6.00797">
        <ele>600.79998779297</ele>
        <time>2021-05-23T10:08:45Z</time>
      </trkpt>
      <trkpt lat="43.68872" lon="6.00801">
        <ele>600.79998779297</ele>
        <time>2021-05-23T10:08:46Z</time>
      </trkpt>
      <trkpt lat="43.68875" lon="6.00804">
        <ele>600.79998779297</ele>
        <time>2021-05-23T10:08:47Z</time>
      </trkpt>
      <trkpt lat="43.68878" lon="6.00808">
        <ele>600.79998779297</ele>
        <time>2021-05-23T10:08:48Z</time>
      </trkpt>
      <trkpt lat="43.6888" lon="6.00811">
        <ele>600.79998779297</ele>
        <time>2021-05-23T10:08:49Z</time>
      </trkpt>
      <trkpt lat="43.68882" lon="6.00815">
        <ele>600.59997558594</ele>
        <time>2021-05-23T10:08:50Z</time>
      </trkpt>
      <trkpt lat="43.68885" lon="6.00819">
        <ele>600.59997558594</ele>
        <time>2021-05-23T10:08:51Z</time>
      </trkpt>
      <trkpt lat="43.68887" lon="6.00823">
        <ele>600.40002441406</ele>
        <time>2021-05-23T10:08:52Z</time>
      </trkpt>
      <trkpt lat="43.68889" lon="6.00826">
        <ele>600.40002441406</ele>
        <time>2021-05-23T10:08:53Z</time>
      </trkpt>
      <trkpt lat="43.68892" lon="6.00828">
        <ele>600.40002441406</ele>
        <time>2021-05-23T10:08:54Z</time>
      </trkpt>
      <trkpt lat="43.68894" lon="6.00831">
        <ele>600.40002441406</ele>
        <time>2021-05-23T10:08:55Z</time>
      </trkpt>
      <trkpt lat="43.68896" lon="6.00835">
        <ele>600.20001220703</ele>
        <time>2021-05-23T10:08:56Z</time>
      </trkpt>
      <trkpt lat="43.68898" lon="6.00838">
        <ele>600.20001220703</ele>
        <time>2021-05-23T10:08:57Z</time>
      </trkpt>
      <trkpt lat="43.68899" lon="6.00841">
        <ele>600.20001220703</ele>
        <time>2021-05-23T10:08:58Z</time>
      </trkpt>
      <trkpt lat="43.68901" lon="6.00844">
        <ele>600</ele>
        <time>2021-05-23T10:08:59Z</time>
      </trkpt>
      <trkpt lat="43.68903" lon="6.00848">
        <ele>600</ele>
        <time>2021-05-23T10:09:00Z</time>
      </trkpt>
      <trkpt lat="43.68905" lon="6.00851">
        <ele>600</ele>
        <time>2021-05-23T10:09:01Z</time>
      </trkpt>
      <trkpt lat="43.68908" lon="6.00855">
        <ele>600</ele>
        <time>2021-05-23T10:09:02Z</time>
      </trkpt>
      <trkpt lat="43.6891" lon="6.00858">
        <ele>599.59997558594</ele>
        <time>2021-05-23T10:09:03Z</time>
      </trkpt>
      <trkpt lat="43.68911" lon="6.00862">
        <ele>599.59997558594</ele>
        <time>2021-05-23T10:09:04Z</time>
      </trkpt>
      <trkpt lat="43.68912" lon="6.00865">
        <ele>599.59997558594</ele>
        <time>2021-05-23T10:09:05Z</time>
      </trkpt>
      <trkpt lat="43.68913" lon="6.0087">
        <ele>599.59997558594</ele>
        <time>2021-05-23T10:09:06Z</time>
      </trkpt>
      <trkpt lat="43.68913" lon="6.00875">
        <ele>599.59997558594</ele>
        <time>2021-05-23T10:09:07Z</time>
      </trkpt>
      <trkpt lat="43.68913" lon="6.00879">
        <ele>599.59997558594</ele>
        <time>2021-05-23T10:09:08Z</time>
      </trkpt>
      <trkpt lat="43.68913" lon="6.00883">
        <ele>599.59997558594</ele>
        <time>2021-05-23T10:09:09Z</time>
      </trkpt>
      <trkpt lat="43.68912" lon="6.00889">
        <ele>599.79998779297</ele>
        <time>2021-05-23T10:09:10Z</time>
      </trkpt>
      <trkpt lat="43.68912" lon="6.00894">
        <ele>599.79998779297</ele>
        <time>2021-05-23T10:09:11Z</time>
      </trkpt>
      <trkpt lat="43.68911" lon="6.00899">
        <ele>599.79998779297</ele>
        <time>2021-05-23T10:09:12Z</time>
      </trkpt>
      <trkpt lat="43.68911" lon="6.00904">
        <ele>599.79998779297</ele>
        <time>2021-05-23T10:09:13Z</time>
      </trkpt>
      <trkpt lat="43.6891" lon="6.00909">
        <ele>599.79998779297</ele>
        <time>2021-05-23T10:09:14Z</time>
      </trkpt>
      <trkpt lat="43.6891" lon="6.00914">
        <ele>599.59997558594</ele>
        <time>2021-05-23T10:09:15Z</time>
      </trkpt>
      <trkpt lat="43.6891" lon="6.00918">
        <ele>599.59997558594</ele>
        <time>2021-05-23T10:09:16Z</time>
      </trkpt>
      <trkpt lat="43.6891" lon="6.00922">
        <ele>599.59997558594</ele>
        <time>2021-05-23T10:09:17Z</time>
      </trkpt>
      <trkpt lat="43.6891" lon="6.00926">
        <ele>599.59997558594</ele>
        <time>2021-05-23T10:09:18Z</time>
      </trkpt>
      <trkpt lat="43.68911" lon="6.0093">
        <ele>599.40002441406</ele>
        <time>2021-05-23T10:09:19Z</time>
      </trkpt>
      <trkpt lat="43.68912" lon="6.00934">
        <ele>599.40002441406</ele>
        <time>2021-05-23T10:09:20Z</time>
      </trkpt>
      <trkpt lat="43.68913" lon="6.00938">
        <ele>599.40002441406</ele>
        <time>2021-05-23T10:09:21Z</time>
      </trkpt>
      <trkpt lat="43.68913" lon="6.00942">
        <ele>599.20001220703</ele>
        <time>2021-05-23T10:09:22Z</time>
      </trkpt>
      <trkpt lat="43.68913" lon="6.00946">
        <ele>599.20001220703</ele>
        <time>2021-05-23T10:09:23Z</time>
      </trkpt>
      <trkpt lat="43.68914" lon="6.00949">
        <ele>599.20001220703</ele>
        <time>2021-05-23T10:09:24Z</time>
      </trkpt>
      <trkpt lat="43.68914" lon="6.00951">
        <ele>599</ele>
        <time>2021-05-23T10:09:25Z</time>
      </trkpt>
      <trkpt lat="43.68915" lon="6.00954">
        <ele>599</ele>
        <time>2021-05-23T10:09:26Z</time>
      </trkpt>
      <trkpt lat="43.68916" lon="6.00957">
        <ele>599</ele>
        <time>2021-05-23T10:09:27Z</time>
      </trkpt>
      <trkpt lat="43.68918" lon="6.00961">
        <ele>598.79998779297</ele>
        <time>2021-05-23T10:09:28Z</time>
      </trkpt>
      <trkpt lat="43.6892" lon="6.00965">
        <ele>598.59997558594</ele>
        <time>2021-05-23T10:09:29Z</time>
      </trkpt>
      <trkpt lat="43.68922" lon="6.0097">
        <ele>598.20001220703</ele>
        <time>2021-05-23T10:09:30Z</time>
      </trkpt>
      <trkpt lat="43.68923" lon="6.00974">
        <ele>598</ele>
        <time>2021-05-23T10:09:31Z</time>
      </trkpt>
      <trkpt lat="43.68924" lon="6.00977">
        <ele>597.79998779297</ele>
        <time>2021-05-23T10:09:32Z</time>
      </trkpt>
      <trkpt lat="43.68925" lon="6.00981">
        <ele>598</ele>
        <time>2021-05-23T10:09:33Z</time>
      </trkpt>
      <trkpt lat="43.68926" lon="6.00985">
        <ele>598</ele>
        <time>2021-05-23T10:09:34Z</time>
      </trkpt>
      <trkpt lat="43.68927" lon="6.00989">
        <ele>598.20001220703</ele>
        <time>2021-05-23T10:09:35Z</time>
      </trkpt>
      <trkpt lat="43.68928" lon="6.00992">
        <ele>598.20001220703</ele>
        <time>2021-05-23T10:09:36Z</time>
      </trkpt>
      <trkpt lat="43.68929" lon="6.00997">
        <ele>598.20001220703</ele>
        <time>2021-05-23T10:09:37Z</time>
      </trkpt>
      <trkpt lat="43.6893" lon="6.01">
        <ele>598.40002441406</ele>
        <time>2021-05-23T10:09:38Z</time>
      </trkpt>
      <trkpt lat="43.68932" lon="6.01003">
        <ele>598.40002441406</ele>
        <time>2021-05-23T10:09:39Z</time>
      </trkpt>
      <trkpt lat="43.68933" lon="6.01005">
        <ele>598.20001220703</ele>
        <time>2021-05-23T10:09:40Z</time>
      </trkpt>
      <trkpt lat="43.68934" lon="6.01008">
        <ele>598</ele>
        <time>2021-05-23T10:09:41Z</time>
      </trkpt>
      <trkpt lat="43.68935" lon="6.01009">
        <ele>598</ele>
        <time>2021-05-23T10:09:42Z</time>
      </trkpt>
      <trkpt lat="43.68935" lon="6.01009">
        <ele>598</ele>
        <time>2021-05-23T10:09:43Z</time>
      </trkpt>
      <trkpt lat="43.68935" lon="6.01009">
        <ele>597.79998779297</ele>
        <time>2021-05-23T10:09:44Z</time>
      </trkpt>
      <trkpt lat="43.68935" lon="6.0101">
        <ele>597.79998779297</ele>
        <time>2021-05-23T10:09:45Z</time>
      </trkpt>
      <trkpt lat="43.68935" lon="6.0101">
        <ele>597.79998779297</ele>
        <time>2021-05-23T10:09:46Z</time>
      </trkpt>
      <trkpt lat="43.68935" lon="6.0101">
        <ele>597.79998779297</ele>
        <time>2021-05-23T10:09:47Z</time>
      </trkpt>
      <trkpt lat="43.68935" lon="6.0101">
        <ele>597.79998779297</ele>
        <time>2021-05-23T10:09:48Z</time>
      </trkpt>
      <trkpt lat="43.68935" lon="6.0101">
        <ele>598</ele>
        <time>2021-05-23T10:09:49Z</time>
      </trkpt>
      <trkpt lat="43.68935" lon="6.0101">
        <ele>598</ele>
        <time>2021-05-23T10:09:50Z</time>
      </trkpt>
      <trkpt lat="43.68935" lon="6.0101">
        <ele>598</ele>
        <time>2021-05-23T10:09:51Z</time>
      </trkpt>
      <trkpt lat="43.68935" lon="6.0101">
        <ele>598</ele>
        <time>2021-05-23T10:09:52Z</time>
      </trkpt>
      <trkpt lat="43.68935" lon="6.0101">
        <ele>598</ele>
        <time>2021-05-23T10:09:53Z</time>
      </trkpt>
      <trkpt lat="43.68935" lon="6.0101">
        <ele>598</ele>
        <time>2021-05-23T10:09:54Z</time>
      </trkpt>
      <trkpt lat="43.68935" lon="6.0101">
        <ele>597.79998779297</ele>
        <time>2021-05-23T10:09:55Z</time>
      </trkpt>
      <trkpt lat="43.68935" lon="6.0101">
        <ele>597.79998779297</ele>
        <time>2021-05-23T10:09:56Z</time>
      </trkpt>
      <trkpt lat="43.68935" lon="6.0101">
        <ele>597.79998779297</ele>
        <time>2021-05-23T10:09:57Z</time>
      </trkpt>
      <trkpt lat="43.68935" lon="6.0101">
        <ele>597.79998779297</ele>
        <time>2021-05-23T10:09:58Z</time>
      </trkpt>
      <trkpt lat="43.68935" lon="6.0101">
        <ele>597.79998779297</ele>
        <time>2021-05-23T10:09:59Z</time>
      </trkpt>
      <trkpt lat="43.68935" lon="6.0101">
        <ele>597.79998779297</ele>
        <time>2021-05-23T10:10:00Z</time>
      </trkpt>
      <trkpt lat="43.68935" lon="6.0101">
        <ele>598</ele>
        <time>2021-05-23T10:10:01Z</time>
      </trkpt>
      <trkpt lat="43.68935" lon="6.0101">
        <ele>598</ele>
        <time>2021-05-23T10:10:02Z</time>
      </trkpt>
      <trkpt lat="43.68935" lon="6.0101">
        <ele>598</ele>
        <time>2021-05-23T10:10:03Z</time>
      </trkpt>
      <trkpt lat="43.68935" lon="6.0101">
        <ele>598.20001220703</ele>
        <time>2021-05-23T10:10:04Z</time>
      </trkpt>
      <trkpt lat="43.68935" lon="6.0101">
        <ele>598.20001220703</ele>
        <time>2021-05-23T10:10:05Z</time>
      </trkpt>
      <trkpt lat="43.68935" lon="6.0101">
        <ele>598</ele>
        <time>2021-05-23T10:10:06Z</time>
      </trkpt>
      <trkpt lat="43.68935" lon="6.0101">
        <ele>598</ele>
        <time>2021-05-23T10:10:07Z</time>
      </trkpt>
      <trkpt lat="43.68935" lon="6.0101">
        <ele>598</ele>
        <time>2021-05-23T10:10:08Z</time>
      </trkpt>
      <trkpt lat="43.68935" lon="6.0101">
        <ele>598</ele>
        <time>2021-05-23T10:10:09Z</time>
      </trkpt>
      <trkpt lat="43.68936" lon="6.0101">
        <ele>598</ele>
        <time>2021-05-23T10:10:10Z</time>
      </trkpt>
      <trkpt lat="43.68936" lon="6.01011">
        <ele>598</ele>
        <time>2021-05-23T10:10:11Z</time>
      </trkpt>
      <trkpt lat="43.68936" lon="6.0101">
        <ele>597.79998779297</ele>
        <time>2021-05-23T10:10:12Z</time>
      </trkpt>
      <trkpt lat="43.68936" lon="6.0101">
        <ele>597.79998779297</ele>
        <time>2021-05-23T10:10:13Z</time>
      </trkpt>
      <trkpt lat="43.68936" lon="6.01011">
        <ele>597.79998779297</ele>
        <time>2021-05-23T10:10:14Z</time>
      </trkpt>
      <trkpt lat="43.68936" lon="6.01011">
        <ele>597.79998779297</ele>
        <time>2021-05-23T10:10:15Z</time>
      </trkpt>
      <trkpt lat="43.68936" lon="6.01011">
        <ele>597.79998779297</ele>
        <time>2021-05-23T10:10:16Z</time>
      </trkpt>
      <trkpt lat="43.68936" lon="6.01011">
        <ele>598</ele>
        <time>2021-05-23T10:10:17Z</time>
      </trkpt>
      <trkpt lat="43.68936" lon="6.01011">
        <ele>598</ele>
        <time>2021-05-23T10:10:18Z</time>
      </trkpt>
      <trkpt lat="43.68936" lon="6.01011">
        <ele>598</ele>
        <time>2021-05-23T10:10:19Z</time>
      </trkpt>
      <trkpt lat="43.68936" lon="6.01011">
        <ele>598</ele>
        <time>2021-05-23T10:10:20Z</time>
      </trkpt>
      <trkpt lat="43.68936" lon="6.01011">
        <ele>598</ele>
        <time>2021-05-23T10:10:21Z</time>
      </trkpt>
      <trkpt lat="43.68936" lon="6.01011">
        <ele>598</ele>
        <time>2021-05-23T10:10:22Z</time>
      </trkpt>
      <trkpt lat="43.68936" lon="6.01011">
        <ele>598</ele>
        <time>2021-05-23T10:10:23Z</time>
      </trkpt>
      <trkpt lat="43.68936" lon="6.01011">
        <ele>598</ele>
        <time>2021-05-23T10:10:24Z</time>
      </trkpt>
      <trkpt lat="43.68936" lon="6.01011">
        <ele>598</ele>
        <time>2021-05-23T10:10:25Z</time>
      </trkpt>
      <trkpt lat="43.68936" lon="6.01011">
        <ele>598</ele>
        <time>2021-05-23T10:10:26Z</time>
      </trkpt>
      <trkpt lat="43.68936" lon="6.01011">
        <ele>598</ele>
        <time>2021-05-23T10:10:27Z</time>
      </trkpt>
      <trkpt lat="43.68936" lon="6.01011">
        <ele>597.79998779297</ele>
        <time>2021-05-23T10:10:28Z</time>
      </trkpt>
      <trkpt lat="43.68936" lon="6.01011">
        <ele>597.79998779297</ele>
        <time>2021-05-23T10:10:29Z</time>
      </trkpt>
      <trkpt lat="43.68936" lon="6.01011">
        <ele>597.79998779297</ele>
        <time>2021-05-23T10:10:30Z</time>
      </trkpt>
      <trkpt lat="43.68936" lon="6.01011">
        <ele>597.79998779297</ele>
        <time>2021-05-23T10:10:31Z</time>
      </trkpt>
      <trkpt lat="43.68936" lon="6.01011">
        <ele>598</ele>
        <time>2021-05-23T10:10:32Z</time>
      </trkpt>
      <trkpt lat="43.68936" lon="6.01011">
        <ele>598</ele>
        <time>2021-05-23T10:10:33Z</time>
      </trkpt>
      <trkpt lat="43.68936" lon="6.01011">
        <ele>598</ele>
        <time>2021-05-23T10:10:34Z</time>
      </trkpt>
      <trkpt lat="43.68936" lon="6.01011">
        <ele>598</ele>
        <time>2021-05-23T10:10:35Z</time>
      </trkpt>
      <trkpt lat="43.68936" lon="6.01011">
        <ele>598</ele>
        <time>2021-05-23T10:10:36Z</time>
      </trkpt>
      <trkpt lat="43.68936" lon="6.01011">
        <ele>598</ele>
        <time>2021-05-23T10:10:37Z</time>
      </trkpt>
      <trkpt lat="43.68936" lon="6.01011">
        <ele>597.79998779297</ele>
        <time>2021-05-23T10:10:38Z</time>
      </trkpt>
      <trkpt lat="43.68937" lon="6.01011">
        <ele>597.79998779297</ele>
        <time>2021-05-23T10:10:39Z</time>
      </trkpt>
      <trkpt lat="43.68938" lon="6.01012">
        <ele>597.79998779297</ele>
        <time>2021-05-23T10:10:40Z</time>
      </trkpt>
      <trkpt lat="43.68939" lon="6.01014">
        <ele>597.79998779297</ele>
        <time>2021-05-23T10:10:41Z</time>
      </trkpt>
      <trkpt lat="43.68941" lon="6.01016">
        <ele>598</ele>
        <time>2021-05-23T10:10:42Z</time>
      </trkpt>
      <trkpt lat="43.68943" lon="6.01018">
        <ele>598</ele>
        <time>2021-05-23T10:10:43Z</time>
      </trkpt>
      <trkpt lat="43.68945" lon="6.01021">
        <ele>598</ele>
        <time>2021-05-23T10:10:44Z</time>
      </trkpt>
      <trkpt lat="43.68946" lon="6.01024">
        <ele>598</ele>
        <time>2021-05-23T10:10:45Z</time>
      </trkpt>
      <trkpt lat="43.68947" lon="6.01027">
        <ele>598</ele>
        <time>2021-05-23T10:10:46Z</time>
      </trkpt>
      <trkpt lat="43.68948" lon="6.0103">
        <ele>597.79998779297</ele>
        <time>2021-05-23T10:10:47Z</time>
      </trkpt>
      <trkpt lat="43.68949" lon="6.01033">
        <ele>597.79998779297</ele>
        <time>2021-05-23T10:10:48Z</time>
      </trkpt>
      <trkpt lat="43.6895" lon="6.01036">
        <ele>597.59997558594</ele>
        <time>2021-05-23T10:10:49Z</time>
      </trkpt>
      <trkpt lat="43.68952" lon="6.0104">
        <ele>597.59997558594</ele>
        <time>2021-05-23T10:10:50Z</time>
      </trkpt>
      <trkpt lat="43.68954" lon="6.01043">
        <ele>597.40002441406</ele>
        <time>2021-05-23T10:10:51Z</time>
      </trkpt>
      <trkpt lat="43.68955" lon="6.01046">
        <ele>597.20001220703</ele>
        <time>2021-05-23T10:10:52Z</time>
      </trkpt>
      <trkpt lat="43.68957" lon="6.01049">
        <ele>597.20001220703</ele>
        <time>2021-05-23T10:10:53Z</time>
      </trkpt>
      <trkpt lat="43.68959" lon="6.01051">
        <ele>597.20001220703</ele>
        <time>2021-05-23T10:10:54Z</time>
      </trkpt>
      <trkpt lat="43.68962" lon="6.01055">
        <ele>597.20001220703</ele>
        <time>2021-05-23T10:10:55Z</time>
      </trkpt>
      <trkpt lat="43.68964" lon="6.01058">
        <ele>597.20001220703</ele>
        <time>2021-05-23T10:10:56Z</time>
      </trkpt>
      <trkpt lat="43.68967" lon="6.01061">
        <ele>597.20001220703</ele>
        <time>2021-05-23T10:10:57Z</time>
      </trkpt>
      <trkpt lat="43.68969" lon="6.01064">
        <ele>597.20001220703</ele>
        <time>2021-05-23T10:10:58Z</time>
      </trkpt>
      <trkpt lat="43.68972" lon="6.01066">
        <ele>597.20001220703</ele>
        <time>2021-05-23T10:10:59Z</time>
      </trkpt>
      <trkpt lat="43.68975" lon="6.01068">
        <ele>597.20001220703</ele>
        <time>2021-05-23T10:11:00Z</time>
      </trkpt>
      <trkpt lat="43.68977" lon="6.01069">
        <ele>597</ele>
        <time>2021-05-23T10:11:01Z</time>
      </trkpt>
      <trkpt lat="43.6898" lon="6.01071">
        <ele>597</ele>
        <time>2021-05-23T10:11:02Z</time>
      </trkpt>
      <trkpt lat="43.68983" lon="6.01072">
        <ele>596.79998779297</ele>
        <time>2021-05-23T10:11:03Z</time>
      </trkpt>
      <trkpt lat="43.68986" lon="6.01074">
        <ele>596.79998779297</ele>
        <time>2021-05-23T10:11:04Z</time>
      </trkpt>
      <trkpt lat="43.68989" lon="6.01077">
        <ele>596.79998779297</ele>
        <time>2021-05-23T10:11:05Z</time>
      </trkpt>
      <trkpt lat="43.68991" lon="6.01079">
        <ele>596.79998779297</ele>
        <time>2021-05-23T10:11:06Z</time>
      </trkpt>
      <trkpt lat="43.68994" lon="6.01081">
        <ele>596.79998779297</ele>
        <time>2021-05-23T10:11:07Z</time>
      </trkpt>
      <trkpt lat="43.68997" lon="6.01083">
        <ele>596.79998779297</ele>
        <time>2021-05-23T10:11:08Z</time>
      </trkpt>
      <trkpt lat="43.69" lon="6.01085">
        <ele>596.79998779297</ele>
        <time>2021-05-23T10:11:09Z</time>
      </trkpt>
      <trkpt lat="43.69003" lon="6.01087">
        <ele>596.59997558594</ele>
        <time>2021-05-23T10:11:10Z</time>
      </trkpt>
      <trkpt lat="43.69006" lon="6.01089">
        <ele>596.59997558594</ele>
        <time>2021-05-23T10:11:11Z</time>
      </trkpt>
      <trkpt lat="43.69009" lon="6.01091">
        <ele>596.59997558594</ele>
        <time>2021-05-23T10:11:12Z</time>
      </trkpt>
      <trkpt lat="43.69012" lon="6.01094">
        <ele>596.59997558594</ele>
        <time>2021-05-23T10:11:13Z</time>
      </trkpt>
      <trkpt lat="43.69015" lon="6.01096">
        <ele>596.59997558594</ele>
        <time>2021-05-23T10:11:14Z</time>
      </trkpt>
      <trkpt lat="43.69018" lon="6.01098">
        <ele>596.40002441406</ele>
        <time>2021-05-23T10:11:15Z</time>
      </trkpt>
      <trkpt lat="43.69022" lon="6.011">
        <ele>596.40002441406</ele>
        <time>2021-05-23T10:11:16Z</time>
      </trkpt>
      <trkpt lat="43.69025" lon="6.01102">
        <ele>596.40002441406</ele>
        <time>2021-05-23T10:11:17Z</time>
      </trkpt>
      <trkpt lat="43.69028" lon="6.01104">
        <ele>596.40002441406</ele>
        <time>2021-05-23T10:11:18Z</time>
      </trkpt>
      <trkpt lat="43.6903" lon="6.01107">
        <ele>596.20001220703</ele>
        <time>2021-05-23T10:11:19Z</time>
      </trkpt>
      <trkpt lat="43.69034" lon="6.01109">
        <ele>596.20001220703</ele>
        <time>2021-05-23T10:11:20Z</time>
      </trkpt>
      <trkpt lat="43.69036" lon="6.01111">
        <ele>596</ele>
        <time>2021-05-23T10:11:21Z</time>
      </trkpt>
      <trkpt lat="43.6904" lon="6.01113">
        <ele>596</ele>
        <time>2021-05-23T10:11:22Z</time>
      </trkpt>
      <trkpt lat="43.69043" lon="6.01114">
        <ele>595.79998779297</ele>
        <time>2021-05-23T10:11:23Z</time>
      </trkpt>
      <trkpt lat="43.69046" lon="6.01116">
        <ele>595.79998779297</ele>
        <time>2021-05-23T10:11:24Z</time>
      </trkpt>
      <trkpt lat="43.6905" lon="6.01118">
        <ele>595.79998779297</ele>
        <time>2021-05-23T10:11:25Z</time>
      </trkpt>
      <trkpt lat="43.69053" lon="6.01119">
        <ele>595.79998779297</ele>
        <time>2021-05-23T10:11:26Z</time>
      </trkpt>
      <trkpt lat="43.69056" lon="6.01121">
        <ele>595.79998779297</ele>
        <time>2021-05-23T10:11:27Z</time>
      </trkpt>
      <trkpt lat="43.69059" lon="6.01122">
        <ele>595.59997558594</ele>
        <time>2021-05-23T10:11:28Z</time>
      </trkpt>
      <trkpt lat="43.69063" lon="6.01123">
        <ele>595.59997558594</ele>
        <time>2021-05-23T10:11:29Z</time>
      </trkpt>
      <trkpt lat="43.69066" lon="6.01124">
        <ele>595.59997558594</ele>
        <time>2021-05-23T10:11:30Z</time>
      </trkpt>
      <trkpt lat="43.69069" lon="6.01125">
        <ele>595.40002441406</ele>
        <time>2021-05-23T10:11:31Z</time>
      </trkpt>
      <trkpt lat="43.69072" lon="6.01125">
        <ele>595.40002441406</ele>
        <time>2021-05-23T10:11:32Z</time>
      </trkpt>
      <trkpt lat="43.69075" lon="6.01125">
        <ele>595.40002441406</ele>
        <time>2021-05-23T10:11:33Z</time>
      </trkpt>
      <trkpt lat="43.69079" lon="6.01125">
        <ele>595.40002441406</ele>
        <time>2021-05-23T10:11:34Z</time>
      </trkpt>
      <trkpt lat="43.69082" lon="6.01125">
        <ele>595.40002441406</ele>
        <time>2021-05-23T10:11:35Z</time>
      </trkpt>
      <trkpt lat="43.69085" lon="6.01125">
        <ele>595.40002441406</ele>
        <time>2021-05-23T10:11:36Z</time>
      </trkpt>
      <trkpt lat="43.69088" lon="6.01124">
        <ele>595.59997558594</ele>
        <time>2021-05-23T10:11:37Z</time>
      </trkpt>
      <trkpt lat="43.69091" lon="6.01123">
        <ele>595.59997558594</ele>
        <time>2021-05-23T10:11:38Z</time>
      </trkpt>
      <trkpt lat="43.69094" lon="6.01122">
        <ele>595.20001220703</ele>
        <time>2021-05-23T10:11:39Z</time>
      </trkpt>
      <trkpt lat="43.69097" lon="6.01121">
        <ele>595</ele>
        <time>2021-05-23T10:11:40Z</time>
      </trkpt>
      <trkpt lat="43.691" lon="6.01119">
        <ele>595</ele>
        <time>2021-05-23T10:11:41Z</time>
      </trkpt>
      <trkpt lat="43.69103" lon="6.01118">
        <ele>595</ele>
        <time>2021-05-23T10:11:42Z</time>
      </trkpt>
      <trkpt lat="43.69106" lon="6.01116">
        <ele>595.20001220703</ele>
        <time>2021-05-23T10:11:43Z</time>
      </trkpt>
      <trkpt lat="43.69109" lon="6.01115">
        <ele>595.20001220703</ele>
        <time>2021-05-23T10:11:44Z</time>
      </trkpt>
      <trkpt lat="43.69111" lon="6.01112">
        <ele>595.40002441406</ele>
        <time>2021-05-23T10:11:45Z</time>
      </trkpt>
      <trkpt lat="43.69113" lon="6.0111">
        <ele>595.59997558594</ele>
        <time>2021-05-23T10:11:46Z</time>
      </trkpt>
      <trkpt lat="43.69115" lon="6.01107">
        <ele>595.59997558594</ele>
        <time>2021-05-23T10:11:47Z</time>
      </trkpt>
      <trkpt lat="43.69116" lon="6.01103">
        <ele>595.79998779297</ele>
        <time>2021-05-23T10:11:48Z</time>
      </trkpt>
      <trkpt lat="43.69117" lon="6.011">
        <ele>596</ele>
        <time>2021-05-23T10:11:49Z</time>
      </trkpt>
      <trkpt lat="43.69118" lon="6.01096">
        <ele>596</ele>
        <time>2021-05-23T10:11:50Z</time>
      </trkpt>
      <trkpt lat="43.69119" lon="6.01092">
        <ele>596.20001220703</ele>
        <time>2021-05-23T10:11:51Z</time>
      </trkpt>
      <trkpt lat="43.6912" lon="6.01089">
        <ele>596.20001220703</ele>
        <time>2021-05-23T10:11:52Z</time>
      </trkpt>
      <trkpt lat="43.69122" lon="6.01087">
        <ele>596.59997558594</ele>
        <time>2021-05-23T10:11:53Z</time>
      </trkpt>
      <trkpt lat="43.69124" lon="6.01084">
        <ele>596.59997558594</ele>
        <time>2021-05-23T10:11:54Z</time>
      </trkpt>
      <trkpt lat="43.69126" lon="6.01082">
        <ele>596.79998779297</ele>
        <time>2021-05-23T10:11:55Z</time>
      </trkpt>
      <trkpt lat="43.69128" lon="6.0108">
        <ele>596.79998779297</ele>
        <time>2021-05-23T10:11:56Z</time>
      </trkpt>
      <trkpt lat="43.6913" lon="6.01077">
        <ele>596.40002441406</ele>
        <time>2021-05-23T10:11:57Z</time>
      </trkpt>
      <trkpt lat="43.69132" lon="6.01074">
        <ele>596.20001220703</ele>
        <time>2021-05-23T10:11:58Z</time>
      </trkpt>
      <trkpt lat="43.69132" lon="6.01071">
        <ele>595.79998779297</ele>
        <time>2021-05-23T10:11:59Z</time>
      </trkpt>
      <trkpt lat="43.69132" lon="6.01067">
        <ele>595.59997558594</ele>
        <time>2021-05-23T10:12:00Z</time>
      </trkpt>
      <trkpt lat="43.69132" lon="6.01064">
        <ele>595.40002441406</ele>
        <time>2021-05-23T10:12:01Z</time>
      </trkpt>
      <trkpt lat="43.69131" lon="6.01061">
        <ele>595.40002441406</ele>
        <time>2021-05-23T10:12:02Z</time>
      </trkpt>
      <trkpt lat="43.69131" lon="6.01057">
        <ele>595.40002441406</ele>
        <time>2021-05-23T10:12:03Z</time>
      </trkpt>
      <trkpt lat="43.6913" lon="6.01053">
        <ele>595.40002441406</ele>
        <time>2021-05-23T10:12:04Z</time>
      </trkpt>
      <trkpt lat="43.69129" lon="6.01049">
        <ele>595.20001220703</ele>
        <time>2021-05-23T10:12:05Z</time>
      </trkpt>
      <trkpt lat="43.69128" lon="6.01045">
        <ele>595.20001220703</ele>
        <time>2021-05-23T10:12:06Z</time>
      </trkpt>
      <trkpt lat="43.69127" lon="6.01042">
        <ele>595.40002441406</ele>
        <time>2021-05-23T10:12:07Z</time>
      </trkpt>
      <trkpt lat="43.69127" lon="6.01038">
        <ele>595.20001220703</ele>
        <time>2021-05-23T10:12:08Z</time>
      </trkpt>
      <trkpt lat="43.69126" lon="6.01034">
        <ele>595.20001220703</ele>
        <time>2021-05-23T10:12:09Z</time>
      </trkpt>
      <trkpt lat="43.69126" lon="6.0103">
        <ele>595</ele>
        <time>2021-05-23T10:12:10Z</time>
      </trkpt>
      <trkpt lat="43.69125" lon="6.01026">
        <ele>594.79998779297</ele>
        <time>2021-05-23T10:12:11Z</time>
      </trkpt>
      <trkpt lat="43.69124" lon="6.01022">
        <ele>594.59997558594</ele>
        <time>2021-05-23T10:12:12Z</time>
      </trkpt>
      <trkpt lat="43.69123" lon="6.01018">
        <ele>594.40002441406</ele>
        <time>2021-05-23T10:12:13Z</time>
      </trkpt>
      <trkpt lat="43.69122" lon="6.01014">
        <ele>594.20001220703</ele>
        <time>2021-05-23T10:12:14Z</time>
      </trkpt>
      <trkpt lat="43.69122" lon="6.0101">
        <ele>594</ele>
        <time>2021-05-23T10:12:15Z</time>
      </trkpt>
      <trkpt lat="43.69121" lon="6.01007">
        <ele>593.79998779297</ele>
        <time>2021-05-23T10:12:16Z</time>
      </trkpt>
      <trkpt lat="43.69121" lon="6.01004">
        <ele>593.79998779297</ele>
        <time>2021-05-23T10:12:17Z</time>
      </trkpt>
      <trkpt lat="43.6912" lon="6.01002">
        <ele>593.79998779297</ele>
        <time>2021-05-23T10:12:18Z</time>
      </trkpt>
      <trkpt lat="43.69119" lon="6.01">
        <ele>593.79998779297</ele>
        <time>2021-05-23T10:12:19Z</time>
      </trkpt>
      <trkpt lat="43.69119" lon="6.01">
        <ele>594</ele>
        <time>2021-05-23T10:12:20Z</time>
      </trkpt>
      <trkpt lat="43.69119" lon="6.01">
        <ele>594</ele>
        <time>2021-05-23T10:12:21Z</time>
      </trkpt>
      <trkpt lat="43.69119" lon="6.01">
        <ele>594.20001220703</ele>
        <time>2021-05-23T10:12:22Z</time>
      </trkpt>
      <trkpt lat="43.69119" lon="6.01">
        <ele>594.20001220703</ele>
        <time>2021-05-23T10:12:23Z</time>
      </trkpt>
      <trkpt lat="43.69119" lon="6.01">
        <ele>594.20001220703</ele>
        <time>2021-05-23T10:12:24Z</time>
      </trkpt>
      <trkpt lat="43.69119" lon="6.01">
        <ele>594.20001220703</ele>
        <time>2021-05-23T10:12:25Z</time>
      </trkpt>
      <trkpt lat="43.69119" lon="6.01">
        <ele>594.20001220703</ele>
        <time>2021-05-23T10:12:26Z</time>
      </trkpt>
      <trkpt lat="43.69119" lon="6.01">
        <ele>594.20001220703</ele>
        <time>2021-05-23T10:12:27Z</time>
      </trkpt>
      <trkpt lat="43.69119" lon="6.01">
        <ele>594.40002441406</ele>
        <time>2021-05-23T10:12:28Z</time>
      </trkpt>
      <trkpt lat="43.69119" lon="6.01">
        <ele>594.40002441406</ele>
        <time>2021-05-23T10:12:29Z</time>
      </trkpt>
      <trkpt lat="43.69119" lon="6.01">
        <ele>594.40002441406</ele>
        <time>2021-05-23T10:12:30Z</time>
      </trkpt>
      <trkpt lat="43.69119" lon="6.01">
        <ele>594.40002441406</ele>
        <time>2021-05-23T10:12:31Z</time>
      </trkpt>
      <trkpt lat="43.69119" lon="6.01">
        <ele>594.40002441406</ele>
        <time>2021-05-23T10:12:32Z</time>
      </trkpt>
      <trkpt lat="43.69119" lon="6.01">
        <ele>594.40002441406</ele>
        <time>2021-05-23T10:12:33Z</time>
      </trkpt>
      <trkpt lat="43.69119" lon="6.01">
        <ele>594.40002441406</ele>
        <time>2021-05-23T10:12:34Z</time>
      </trkpt>
      <trkpt lat="43.69119" lon="6.01">
        <ele>594.40002441406</ele>
        <time>2021-05-23T10:12:35Z</time>
      </trkpt>
      <trkpt lat="43.69119" lon="6.01">
        <ele>594.40002441406</ele>
        <time>2021-05-23T10:12:36Z</time>
      </trkpt>
      <trkpt lat="43.69119" lon="6.01">
        <ele>594.40002441406</ele>
        <time>2021-05-23T10:12:37Z</time>
      </trkpt>
      <trkpt lat="43.69119" lon="6.01">
        <ele>594.40002441406</ele>
        <time>2021-05-23T10:12:38Z</time>
      </trkpt>
      <trkpt lat="43.69119" lon="6.01">
        <ele>594.40002441406</ele>
        <time>2021-05-23T10:12:39Z</time>
      </trkpt>
      <trkpt lat="43.69119" lon="6.01">
        <ele>594.40002441406</ele>
        <time>2021-05-23T10:12:40Z</time>
      </trkpt>
      <trkpt lat="43.69119" lon="6.01">
        <ele>594.40002441406</ele>
        <time>2021-05-23T10:12:41Z</time>
      </trkpt>
      <trkpt lat="43.69119" lon="6.01">
        <ele>594.40002441406</ele>
        <time>2021-05-23T10:12:42Z</time>
      </trkpt>
      <trkpt lat="43.69119" lon="6.01">
        <ele>594.40002441406</ele>
        <time>2021-05-23T10:12:43Z</time>
      </trkpt>
      <trkpt lat="43.69119" lon="6.01">
        <ele>594.59997558594</ele>
        <time>2021-05-23T10:12:44Z</time>
      </trkpt>
      <trkpt lat="43.69119" lon="6.01">
        <ele>594.59997558594</ele>
        <time>2021-05-23T10:12:45Z</time>
      </trkpt>
      <trkpt lat="43.69119" lon="6.01">
        <ele>594.59997558594</ele>
        <time>2021-05-23T10:12:46Z</time>
      </trkpt>
      <trkpt lat="43.69119" lon="6.01">
        <ele>594.79998779297</ele>
        <time>2021-05-23T10:12:47Z</time>
      </trkpt>
      <trkpt lat="43.69119" lon="6.01">
        <ele>594.79998779297</ele>
        <time>2021-05-23T10:12:48Z</time>
      </trkpt>
      <trkpt lat="43.69119" lon="6.01">
        <ele>594.79998779297</ele>
        <time>2021-05-23T10:12:49Z</time>
      </trkpt>
      <trkpt lat="43.69119" lon="6.01">
        <ele>594.79998779297</ele>
        <time>2021-05-23T10:12:50Z</time>
      </trkpt>
      <trkpt lat="43.69119" lon="6.01">
        <ele>595</ele>
        <time>2021-05-23T10:12:51Z</time>
      </trkpt>
      <trkpt lat="43.69119" lon="6.01">
        <ele>594.79998779297</ele>
        <time>2021-05-23T10:12:52Z</time>
      </trkpt>
      <trkpt lat="43.69119" lon="6.01">
        <ele>594.59997558594</ele>
        <time>2021-05-23T10:12:53Z</time>
      </trkpt>
      <trkpt lat="43.69119" lon="6.01">
        <ele>594.59997558594</ele>
        <time>2021-05-23T10:12:54Z</time>
      </trkpt>
      <trkpt lat="43.69119" lon="6.01">
        <ele>594.59997558594</ele>
        <time>2021-05-23T10:12:55Z</time>
      </trkpt>
      <trkpt lat="43.69119" lon="6.01">
        <ele>594.59997558594</ele>
        <time>2021-05-23T10:12:56Z</time>
      </trkpt>
      <trkpt lat="43.69119" lon="6.01">
        <ele>594.59997558594</ele>
        <time>2021-05-23T10:12:57Z</time>
      </trkpt>
      <trkpt lat="43.69119" lon="6.01">
        <ele>594.59997558594</ele>
        <time>2021-05-23T10:12:58Z</time>
      </trkpt>
      <trkpt lat="43.69119" lon="6.01">
        <ele>594.59997558594</ele>
        <time>2021-05-23T10:12:59Z</time>
      </trkpt>
      <trkpt lat="43.69119" lon="6.01">
        <ele>595</ele>
        <time>2021-05-23T10:13:00Z</time>
      </trkpt>
      <trkpt lat="43.69119" lon="6.01">
        <ele>594.79998779297</ele>
        <time>2021-05-23T10:13:01Z</time>
      </trkpt>
      <trkpt lat="43.69118" lon="6.00999">
        <ele>594.79998779297</ele>
        <time>2021-05-23T10:13:02Z</time>
      </trkpt>
      <trkpt lat="43.69117" lon="6.00998">
        <ele>594.79998779297</ele>
        <time>2021-05-23T10:13:03Z</time>
      </trkpt>
      <trkpt lat="43.69116" lon="6.00997">
        <ele>594.59997558594</ele>
        <time>2021-05-23T10:13:04Z</time>
      </trkpt>
      <trkpt lat="43.69115" lon="6.00996">
        <ele>594.59997558594</ele>
        <time>2021-05-23T10:13:05Z</time>
      </trkpt>
      <trkpt lat="43.69113" lon="6.00995">
        <ele>594.79998779297</ele>
        <time>2021-05-23T10:13:06Z</time>
      </trkpt>
      <trkpt lat="43.69111" lon="6.00994">
        <ele>594.79998779297</ele>
        <time>2021-05-23T10:13:07Z</time>
      </trkpt>
      <trkpt lat="43.69109" lon="6.00993">
        <ele>594.79998779297</ele>
        <time>2021-05-23T10:13:08Z</time>
      </trkpt>
      <trkpt lat="43.69106" lon="6.00991">
        <ele>594.79998779297</ele>
        <time>2021-05-23T10:13:09Z</time>
      </trkpt>
      <trkpt lat="43.69104" lon="6.0099">
        <ele>594.79998779297</ele>
        <time>2021-05-23T10:13:10Z</time>
      </trkpt>
      <trkpt lat="43.69102" lon="6.00988">
        <ele>595</ele>
        <time>2021-05-23T10:13:11Z</time>
      </trkpt>
      <trkpt lat="43.691" lon="6.00985">
        <ele>595.20001220703</ele>
        <time>2021-05-23T10:13:12Z</time>
      </trkpt>
      <trkpt lat="43.69098" lon="6.00982">
        <ele>595.40002441406</ele>
        <time>2021-05-23T10:13:13Z</time>
      </trkpt>
      <trkpt lat="43.69096" lon="6.00978">
        <ele>595.79998779297</ele>
        <time>2021-05-23T10:13:14Z</time>
      </trkpt>
      <trkpt lat="43.69094" lon="6.00974">
        <ele>596</ele>
        <time>2021-05-23T10:13:15Z</time>
      </trkpt>
      <trkpt lat="43.69093" lon="6.00971">
        <ele>596.20001220703</ele>
        <time>2021-05-23T10:13:16Z</time>
      </trkpt>
      <trkpt lat="43.69091" lon="6.00967">
        <ele>596.20001220703</ele>
        <time>2021-05-23T10:13:17Z</time>
      </trkpt>
      <trkpt lat="43.6909" lon="6.00963">
        <ele>596.40002441406</ele>
        <time>2021-05-23T10:13:18Z</time>
      </trkpt>
      <trkpt lat="43.69088" lon="6.0096">
        <ele>596.59997558594</ele>
        <time>2021-05-23T10:13:19Z</time>
      </trkpt>
      <trkpt lat="43.69086" lon="6.00956">
        <ele>596.59997558594</ele>
        <time>2021-05-23T10:13:20Z</time>
      </trkpt>
      <trkpt lat="43.69083" lon="6.00953">
        <ele>596.79998779297</ele>
        <time>2021-05-23T10:13:21Z</time>
      </trkpt>
      <trkpt lat="43.69081" lon="6.0095">
        <ele>597</ele>
        <time>2021-05-23T10:13:22Z</time>
      </trkpt>
      <trkpt lat="43.69079" lon="6.00947">
        <ele>597.20001220703</ele>
        <time>2021-05-23T10:13:23Z</time>
      </trkpt>
      <trkpt lat="43.69077" lon="6.00944">
        <ele>597.79998779297</ele>
        <time>2021-05-23T10:13:24Z</time>
      </trkpt>
      <trkpt lat="43.69075" lon="6.00941">
        <ele>598.40002441406</ele>
        <time>2021-05-23T10:13:25Z</time>
      </trkpt>
      <trkpt lat="43.69072" lon="6.00938">
        <ele>598.79998779297</ele>
        <time>2021-05-23T10:13:26Z</time>
      </trkpt>
      <trkpt lat="43.6907" lon="6.00935">
        <ele>599.20001220703</ele>
        <time>2021-05-23T10:13:27Z</time>
      </trkpt>
      <trkpt lat="43.69068" lon="6.00931">
        <ele>599.40002441406</ele>
        <time>2021-05-23T10:13:28Z</time>
      </trkpt>
      <trkpt lat="43.69067" lon="6.00928">
        <ele>599.79998779297</ele>
        <time>2021-05-23T10:13:29Z</time>
      </trkpt>
      <trkpt lat="43.69065" lon="6.00924">
        <ele>600</ele>
        <time>2021-05-23T10:13:30Z</time>
      </trkpt>
      <trkpt lat="43.69065" lon="6.0092">
        <ele>600.40002441406</ele>
        <time>2021-05-23T10:13:31Z</time>
      </trkpt>
      <trkpt lat="43.69064" lon="6.00916">
        <ele>601</ele>
        <time>2021-05-23T10:13:32Z</time>
      </trkpt>
      <trkpt lat="43.69064" lon="6.00912">
        <ele>601.40002441406</ele>
        <time>2021-05-23T10:13:33Z</time>
      </trkpt>
      <trkpt lat="43.69064" lon="6.00908">
        <ele>601.59997558594</ele>
        <time>2021-05-23T10:13:34Z</time>
      </trkpt>
      <trkpt lat="43.69064" lon="6.00904">
        <ele>602</ele>
        <time>2021-05-23T10:13:35Z</time>
      </trkpt>
      <trkpt lat="43.69065" lon="6.009">
        <ele>602</ele>
        <time>2021-05-23T10:13:36Z</time>
      </trkpt>
      <trkpt lat="43.69066" lon="6.00896">
        <ele>602.40002441406</ele>
        <time>2021-05-23T10:13:37Z</time>
      </trkpt>
      <trkpt lat="43.69067" lon="6.00893">
        <ele>602.79998779297</ele>
        <time>2021-05-23T10:13:38Z</time>
      </trkpt>
      <trkpt lat="43.69067" lon="6.00889">
        <ele>603.40002441406</ele>
        <time>2021-05-23T10:13:39Z</time>
      </trkpt>
      <trkpt lat="43.69067" lon="6.00886">
        <ele>604.40002441406</ele>
        <time>2021-05-23T10:13:40Z</time>
      </trkpt>
      <trkpt lat="43.69068" lon="6.00881">
        <ele>605</ele>
        <time>2021-05-23T10:13:41Z</time>
      </trkpt>
      <trkpt lat="43.69069" lon="6.00878">
        <ele>605.20001220703</ele>
        <time>2021-05-23T10:13:42Z</time>
      </trkpt>
      <trkpt lat="43.69069" lon="6.00874">
        <ele>605.40002441406</ele>
        <time>2021-05-23T10:13:43Z</time>
      </trkpt>
      <trkpt lat="43.6907" lon="6.0087">
        <ele>605.59997558594</ele>
        <time>2021-05-23T10:13:44Z</time>
      </trkpt>
      <trkpt lat="43.69071" lon="6.00867">
        <ele>606</ele>
        <time>2021-05-23T10:13:45Z</time>
      </trkpt>
      <trkpt lat="43.69071" lon="6.00863">
        <ele>606</ele>
        <time>2021-05-23T10:13:46Z</time>
      </trkpt>
      <trkpt lat="43.69072" lon="6.00859">
        <ele>606.20001220703</ele>
        <time>2021-05-23T10:13:47Z</time>
      </trkpt>
      <trkpt lat="43.69073" lon="6.00855">
        <ele>606.79998779297</ele>
        <time>2021-05-23T10:13:48Z</time>
      </trkpt>
      <trkpt lat="43.69073" lon="6.00851">
        <ele>607.20001220703</ele>
        <time>2021-05-23T10:13:49Z</time>
      </trkpt>
      <trkpt lat="43.69074" lon="6.00847">
        <ele>608</ele>
        <time>2021-05-23T10:13:50Z</time>
      </trkpt>
      <trkpt lat="43.69074" lon="6.00843">
        <ele>608.40002441406</ele>
        <time>2021-05-23T10:13:51Z</time>
      </trkpt>
      <trkpt lat="43.69075" lon="6.0084">
        <ele>608.79998779297</ele>
        <time>2021-05-23T10:13:52Z</time>
      </trkpt>
      <trkpt lat="43.69076" lon="6.00836">
        <ele>609</ele>
        <time>2021-05-23T10:13:53Z</time>
      </trkpt>
      <trkpt lat="43.69077" lon="6.00832">
        <ele>609.20001220703</ele>
        <time>2021-05-23T10:13:54Z</time>
      </trkpt>
      <trkpt lat="43.69078" lon="6.00828">
        <ele>609.40002441406</ele>
        <time>2021-05-23T10:13:55Z</time>
      </trkpt>
      <trkpt lat="43.69079" lon="6.00824">
        <ele>609.59997558594</ele>
        <time>2021-05-23T10:13:56Z</time>
      </trkpt>
      <trkpt lat="43.69079" lon="6.0082">
        <ele>609.79998779297</ele>
        <time>2021-05-23T10:13:57Z</time>
      </trkpt>
      <trkpt lat="43.6908" lon="6.00816">
        <ele>610</ele>
        <time>2021-05-23T10:13:58Z</time>
      </trkpt>
      <trkpt lat="43.69081" lon="6.00812">
        <ele>610.20001220703</ele>
        <time>2021-05-23T10:13:59Z</time>
      </trkpt>
      <trkpt lat="43.69081" lon="6.00809">
        <ele>610.40002441406</ele>
        <time>2021-05-23T10:14:00Z</time>
      </trkpt>
      <trkpt lat="43.69082" lon="6.00805">
        <ele>610.59997558594</ele>
        <time>2021-05-23T10:14:01Z</time>
      </trkpt>
      <trkpt lat="43.69082" lon="6.00801">
        <ele>611</ele>
        <time>2021-05-23T10:14:02Z</time>
      </trkpt>
      <trkpt lat="43.69082" lon="6.00797">
        <ele>611.20001220703</ele>
        <time>2021-05-23T10:14:03Z</time>
      </trkpt>
      <trkpt lat="43.69082" lon="6.00793">
        <ele>611.40002441406</ele>
        <time>2021-05-23T10:14:04Z</time>
      </trkpt>
      <trkpt lat="43.69082" lon="6.00789">
        <ele>611.59997558594</ele>
        <time>2021-05-23T10:14:05Z</time>
      </trkpt>
      <trkpt lat="43.69082" lon="6.00786">
        <ele>612</ele>
        <time>2021-05-23T10:14:06Z</time>
      </trkpt>
      <trkpt lat="43.69082" lon="6.00782">
        <ele>612.40002441406</ele>
        <time>2021-05-23T10:14:07Z</time>
      </trkpt>
      <trkpt lat="43.69082" lon="6.00779">
        <ele>612.59997558594</ele>
        <time>2021-05-23T10:14:08Z</time>
      </trkpt>
      <trkpt lat="43.69081" lon="6.00775">
        <ele>613</ele>
        <time>2021-05-23T10:14:09Z</time>
      </trkpt>
      <trkpt lat="43.6908" lon="6.00771">
        <ele>613.20001220703</ele>
        <time>2021-05-23T10:14:10Z</time>
      </trkpt>
      <trkpt lat="43.69079" lon="6.00768">
        <ele>613.20001220703</ele>
        <time>2021-05-23T10:14:11Z</time>
      </trkpt>
      <trkpt lat="43.69078" lon="6.00764">
        <ele>613.59997558594</ele>
        <time>2021-05-23T10:14:12Z</time>
      </trkpt>
      <trkpt lat="43.69076" lon="6.00761">
        <ele>613.79998779297</ele>
        <time>2021-05-23T10:14:13Z</time>
      </trkpt>
      <trkpt lat="43.69075" lon="6.00757">
        <ele>613.79998779297</ele>
        <time>2021-05-23T10:14:14Z</time>
      </trkpt>
      <trkpt lat="43.69074" lon="6.00754">
        <ele>613.79998779297</ele>
        <time>2021-05-23T10:14:15Z</time>
      </trkpt>
      <trkpt lat="43.69073" lon="6.0075">
        <ele>613.79998779297</ele>
        <time>2021-05-23T10:14:16Z</time>
      </trkpt>
      <trkpt lat="43.69071" lon="6.00746">
        <ele>613.79998779297</ele>
        <time>2021-05-23T10:14:17Z</time>
      </trkpt>
      <trkpt lat="43.6907" lon="6.00743">
        <ele>614</ele>
        <time>2021-05-23T10:14:18Z</time>
      </trkpt>
      <trkpt lat="43.69068" lon="6.00739">
        <ele>614</ele>
        <time>2021-05-23T10:14:19Z</time>
      </trkpt>
      <trkpt lat="43.69067" lon="6.00736">
        <ele>614.20001220703</ele>
        <time>2021-05-23T10:14:20Z</time>
      </trkpt>
      <trkpt lat="43.69065" lon="6.00732">
        <ele>614.40002441406</ele>
        <time>2021-05-23T10:14:21Z</time>
      </trkpt>
      <trkpt lat="43.69063" lon="6.00729">
        <ele>614.59997558594</ele>
        <time>2021-05-23T10:14:22Z</time>
      </trkpt>
      <trkpt lat="43.69061" lon="6.00726">
        <ele>614.59997558594</ele>
        <time>2021-05-23T10:14:23Z</time>
      </trkpt>
      <trkpt lat="43.69059" lon="6.00723">
        <ele>614.79998779297</ele>
        <time>2021-05-23T10:14:24Z</time>
      </trkpt>
      <trkpt lat="43.69057" lon="6.0072">
        <ele>615</ele>
        <time>2021-05-23T10:14:25Z</time>
      </trkpt>
      <trkpt lat="43.69056" lon="6.00717">
        <ele>615.20001220703</ele>
        <time>2021-05-23T10:14:26Z</time>
      </trkpt>
      <trkpt lat="43.69054" lon="6.00714">
        <ele>615.40002441406</ele>
        <time>2021-05-23T10:14:27Z</time>
      </trkpt>
      <trkpt lat="43.69052" lon="6.00711">
        <ele>615.79998779297</ele>
        <time>2021-05-23T10:14:28Z</time>
      </trkpt>
      <trkpt lat="43.6905" lon="6.00708">
        <ele>616</ele>
        <time>2021-05-23T10:14:29Z</time>
      </trkpt>
      <trkpt lat="43.69048" lon="6.00705">
        <ele>616</ele>
        <time>2021-05-23T10:14:30Z</time>
      </trkpt>
      <trkpt lat="43.69047" lon="6.00701">
        <ele>616.20001220703</ele>
        <time>2021-05-23T10:14:31Z</time>
      </trkpt>
      <trkpt lat="43.69045" lon="6.00698">
        <ele>616.20001220703</ele>
        <time>2021-05-23T10:14:32Z</time>
      </trkpt>
      <trkpt lat="43.69044" lon="6.00694">
        <ele>616.40002441406</ele>
        <time>2021-05-23T10:14:33Z</time>
      </trkpt>
      <trkpt lat="43.69042" lon="6.00691">
        <ele>616.40002441406</ele>
        <time>2021-05-23T10:14:34Z</time>
      </trkpt>
      <trkpt lat="43.69041" lon="6.00687">
        <ele>616.40002441406</ele>
        <time>2021-05-23T10:14:35Z</time>
      </trkpt>
      <trkpt lat="43.6904" lon="6.00683">
        <ele>616.79998779297</ele>
        <time>2021-05-23T10:14:36Z</time>
      </trkpt>
      <trkpt lat="43.69038" lon="6.00679">
        <ele>616.79998779297</ele>
        <time>2021-05-23T10:14:37Z</time>
      </trkpt>
      <trkpt lat="43.69037" lon="6.00675">
        <ele>617</ele>
        <time>2021-05-23T10:14:38Z</time>
      </trkpt>
      <trkpt lat="43.69037" lon="6.00671">
        <ele>617</ele>
        <time>2021-05-23T10:14:39Z</time>
      </trkpt>
      <trkpt lat="43.69036" lon="6.00667">
        <ele>617.20001220703</ele>
        <time>2021-05-23T10:14:40Z</time>
      </trkpt>
      <trkpt lat="43.69036" lon="6.00663">
        <ele>617.20001220703</ele>
        <time>2021-05-23T10:14:41Z</time>
      </trkpt>
      <trkpt lat="43.69037" lon="6.00659">
        <ele>617.40002441406</ele>
        <time>2021-05-23T10:14:42Z</time>
      </trkpt>
      <trkpt lat="43.69038" lon="6.00655">
        <ele>617.59997558594</ele>
        <time>2021-05-23T10:14:43Z</time>
      </trkpt>
      <trkpt lat="43.69038" lon="6.00651">
        <ele>618</ele>
        <time>2021-05-23T10:14:44Z</time>
      </trkpt>
      <trkpt lat="43.69039" lon="6.00646">
        <ele>618</ele>
        <time>2021-05-23T10:14:45Z</time>
      </trkpt>
      <trkpt lat="43.6904" lon="6.00642">
        <ele>618.20001220703</ele>
        <time>2021-05-23T10:14:46Z</time>
      </trkpt>
      <trkpt lat="43.69041" lon="6.00638">
        <ele>618.20001220703</ele>
        <time>2021-05-23T10:14:47Z</time>
      </trkpt>
      <trkpt lat="43.69042" lon="6.00634">
        <ele>618.40002441406</ele>
        <time>2021-05-23T10:14:48Z</time>
      </trkpt>
      <trkpt lat="43.69043" lon="6.0063">
        <ele>618.40002441406</ele>
        <time>2021-05-23T10:14:49Z</time>
      </trkpt>
      <trkpt lat="43.69044" lon="6.00625">
        <ele>618.40002441406</ele>
        <time>2021-05-23T10:14:50Z</time>
      </trkpt>
      <trkpt lat="43.69045" lon="6.00621">
        <ele>618.59997558594</ele>
        <time>2021-05-23T10:14:51Z</time>
      </trkpt>
      <trkpt lat="43.69045" lon="6.00617">
        <ele>618.79998779297</ele>
        <time>2021-05-23T10:14:52Z</time>
      </trkpt>
      <trkpt lat="43.69046" lon="6.00613">
        <ele>618.79998779297</ele>
        <time>2021-05-23T10:14:53Z</time>
      </trkpt>
      <trkpt lat="43.69047" lon="6.00609">
        <ele>619</ele>
        <time>2021-05-23T10:14:54Z</time>
      </trkpt>
      <trkpt lat="43.69048" lon="6.00604">
        <ele>619</ele>
        <time>2021-05-23T10:14:55Z</time>
      </trkpt>
      <trkpt lat="43.69049" lon="6.006">
        <ele>619.20001220703</ele>
        <time>2021-05-23T10:14:56Z</time>
      </trkpt>
      <trkpt lat="43.6905" lon="6.00596">
        <ele>619.40002441406</ele>
        <time>2021-05-23T10:14:57Z</time>
      </trkpt>
      <trkpt lat="43.69051" lon="6.00592">
        <ele>619.40002441406</ele>
        <time>2021-05-23T10:14:58Z</time>
      </trkpt>
      <trkpt lat="43.69052" lon="6.00588">
        <ele>619.59997558594</ele>
        <time>2021-05-23T10:14:59Z</time>
      </trkpt>
      <trkpt lat="43.69053" lon="6.00584">
        <ele>619.79998779297</ele>
        <time>2021-05-23T10:15:00Z</time>
      </trkpt>
      <trkpt lat="43.69055" lon="6.0058">
        <ele>620</ele>
        <time>2021-05-23T10:15:01Z</time>
      </trkpt>
      <trkpt lat="43.69056" lon="6.00576">
        <ele>620</ele>
        <time>2021-05-23T10:15:02Z</time>
      </trkpt>
      <trkpt lat="43.69058" lon="6.00573">
        <ele>620</ele>
        <time>2021-05-23T10:15:03Z</time>
      </trkpt>
      <trkpt lat="43.6906" lon="6.00569">
        <ele>620.40002441406</ele>
        <time>2021-05-23T10:15:04Z</time>
      </trkpt>
      <trkpt lat="43.69061" lon="6.00566">
        <ele>620.59997558594</ele>
        <time>2021-05-23T10:15:05Z</time>
      </trkpt>
      <trkpt lat="43.69063" lon="6.00562">
        <ele>620.59997558594</ele>
        <time>2021-05-23T10:15:06Z</time>
      </trkpt>
      <trkpt lat="43.69065" lon="6.00559">
        <ele>621</ele>
        <time>2021-05-23T10:15:07Z</time>
      </trkpt>
      <trkpt lat="43.69068" lon="6.00556">
        <ele>621</ele>
        <time>2021-05-23T10:15:08Z</time>
      </trkpt>
      <trkpt lat="43.6907" lon="6.00553">
        <ele>621</ele>
        <time>2021-05-23T10:15:09Z</time>
      </trkpt>
      <trkpt lat="43.69073" lon="6.0055">
        <ele>621.20001220703</ele>
        <time>2021-05-23T10:15:10Z</time>
      </trkpt>
      <trkpt lat="43.69075" lon="6.00548">
        <ele>621.40002441406</ele>
        <time>2021-05-23T10:15:11Z</time>
      </trkpt>
      <trkpt lat="43.69077" lon="6.00545">
        <ele>621.79998779297</ele>
        <time>2021-05-23T10:15:12Z</time>
      </trkpt>
      <trkpt lat="43.6908" lon="6.00542">
        <ele>622.20001220703</ele>
        <time>2021-05-23T10:15:13Z</time>
      </trkpt>
      <trkpt lat="43.69083" lon="6.0054">
        <ele>622.40002441406</ele>
        <time>2021-05-23T10:15:14Z</time>
      </trkpt>
      <trkpt lat="43.69085" lon="6.00537">
        <ele>622.59997558594</ele>
        <time>2021-05-23T10:15:15Z</time>
      </trkpt>
      <trkpt lat="43.69087" lon="6.00534">
        <ele>622.79998779297</ele>
        <time>2021-05-23T10:15:16Z</time>
      </trkpt>
      <trkpt lat="43.6909" lon="6.0053">
        <ele>623</ele>
        <time>2021-05-23T10:15:17Z</time>
      </trkpt>
      <trkpt lat="43.69092" lon="6.00527">
        <ele>623</ele>
        <time>2021-05-23T10:15:18Z</time>
      </trkpt>
      <trkpt lat="43.69094" lon="6.00523">
        <ele>623.20001220703</ele>
        <time>2021-05-23T10:15:19Z</time>
      </trkpt>
      <trkpt lat="43.69097" lon="6.0052">
        <ele>623.40002441406</ele>
        <time>2021-05-23T10:15:20Z</time>
      </trkpt>
      <trkpt lat="43.69099" lon="6.00517">
        <ele>623.40002441406</ele>
        <time>2021-05-23T10:15:21Z</time>
      </trkpt>
      <trkpt lat="43.69101" lon="6.00514">
        <ele>623.40002441406</ele>
        <time>2021-05-23T10:15:22Z</time>
      </trkpt>
      <trkpt lat="43.69104" lon="6.00511">
        <ele>623.59997558594</ele>
        <time>2021-05-23T10:15:23Z</time>
      </trkpt>
      <trkpt lat="43.69106" lon="6.00508">
        <ele>623.79998779297</ele>
        <time>2021-05-23T10:15:24Z</time>
      </trkpt>
      <trkpt lat="43.69108" lon="6.00505">
        <ele>624</ele>
        <time>2021-05-23T10:15:25Z</time>
      </trkpt>
      <trkpt lat="43.6911" lon="6.00501">
        <ele>624</ele>
        <time>2021-05-23T10:15:26Z</time>
      </trkpt>
      <trkpt lat="43.69112" lon="6.00497">
        <ele>624</ele>
        <time>2021-05-23T10:15:27Z</time>
      </trkpt>
      <trkpt lat="43.69114" lon="6.00494">
        <ele>624.20001220703</ele>
        <time>2021-05-23T10:15:28Z</time>
      </trkpt>
      <trkpt lat="43.69116" lon="6.00493">
        <ele>624.20001220703</ele>
        <time>2021-05-23T10:15:29Z</time>
      </trkpt>
      <trkpt lat="43.69119" lon="6.00491">
        <ele>624.20001220703</ele>
        <time>2021-05-23T10:15:30Z</time>
      </trkpt>
      <trkpt lat="43.69122" lon="6.0049">
        <ele>624.40002441406</ele>
        <time>2021-05-23T10:15:31Z</time>
      </trkpt>
      <trkpt lat="43.69125" lon="6.00488">
        <ele>624.59997558594</ele>
        <time>2021-05-23T10:15:32Z</time>
      </trkpt>
      <trkpt lat="43.69128" lon="6.00487">
        <ele>624.79998779297</ele>
        <time>2021-05-23T10:15:33Z</time>
      </trkpt>
      <trkpt lat="43.69131" lon="6.00485">
        <ele>625</ele>
        <time>2021-05-23T10:15:34Z</time>
      </trkpt>
      <trkpt lat="43.69134" lon="6.00484">
        <ele>625</ele>
        <time>2021-05-23T10:15:35Z</time>
      </trkpt>
      <trkpt lat="43.69138" lon="6.00483">
        <ele>625</ele>
        <time>2021-05-23T10:15:36Z</time>
      </trkpt>
      <trkpt lat="43.69141" lon="6.00481">
        <ele>625</ele>
        <time>2021-05-23T10:15:37Z</time>
      </trkpt>
      <trkpt lat="43.69144" lon="6.00479">
        <ele>625</ele>
        <time>2021-05-23T10:15:38Z</time>
      </trkpt>
      <trkpt lat="43.69147" lon="6.00476">
        <ele>625</ele>
        <time>2021-05-23T10:15:39Z</time>
      </trkpt>
      <trkpt lat="43.6915" lon="6.00474">
        <ele>625</ele>
        <time>2021-05-23T10:15:40Z</time>
      </trkpt>
      <trkpt lat="43.69152" lon="6.00471">
        <ele>624.79998779297</ele>
        <time>2021-05-23T10:15:41Z</time>
      </trkpt>
      <trkpt lat="43.69155" lon="6.00469">
        <ele>624.79998779297</ele>
        <time>2021-05-23T10:15:42Z</time>
      </trkpt>
      <trkpt lat="43.69158" lon="6.00466">
        <ele>624.79998779297</ele>
        <time>2021-05-23T10:15:43Z</time>
      </trkpt>
      <trkpt lat="43.69161" lon="6.00464">
        <ele>624.79998779297</ele>
        <time>2021-05-23T10:15:44Z</time>
      </trkpt>
      <trkpt lat="43.69164" lon="6.00462">
        <ele>624.79998779297</ele>
        <time>2021-05-23T10:15:45Z</time>
      </trkpt>
      <trkpt lat="43.69167" lon="6.0046">
        <ele>625.20001220703</ele>
        <time>2021-05-23T10:15:46Z</time>
      </trkpt>
      <trkpt lat="43.6917" lon="6.00458">
        <ele>625.40002441406</ele>
        <time>2021-05-23T10:15:47Z</time>
      </trkpt>
      <trkpt lat="43.69173" lon="6.00456">
        <ele>625.59997558594</ele>
        <time>2021-05-23T10:15:48Z</time>
      </trkpt>
      <trkpt lat="43.69177" lon="6.00453">
        <ele>625.79998779297</ele>
        <time>2021-05-23T10:15:49Z</time>
      </trkpt>
      <trkpt lat="43.6918" lon="6.00451">
        <ele>626</ele>
        <time>2021-05-23T10:15:50Z</time>
      </trkpt>
      <trkpt lat="43.69183" lon="6.00448">
        <ele>626</ele>
        <time>2021-05-23T10:15:51Z</time>
      </trkpt>
      <trkpt lat="43.69186" lon="6.00446">
        <ele>626</ele>
        <time>2021-05-23T10:15:52Z</time>
      </trkpt>
      <trkpt lat="43.69189" lon="6.00443">
        <ele>626.20001220703</ele>
        <time>2021-05-23T10:15:53Z</time>
      </trkpt>
      <trkpt lat="43.69191" lon="6.0044">
        <ele>626.40002441406</ele>
        <time>2021-05-23T10:15:54Z</time>
      </trkpt>
      <trkpt lat="43.69194" lon="6.00437">
        <ele>626.59997558594</ele>
        <time>2021-05-23T10:15:55Z</time>
      </trkpt>
      <trkpt lat="43.69197" lon="6.00434">
        <ele>626.59997558594</ele>
        <time>2021-05-23T10:15:56Z</time>
      </trkpt>
      <trkpt lat="43.69199" lon="6.00431">
        <ele>626.79998779297</ele>
        <time>2021-05-23T10:15:57Z</time>
      </trkpt>
      <trkpt lat="43.69202" lon="6.00427">
        <ele>627</ele>
        <time>2021-05-23T10:15:58Z</time>
      </trkpt>
      <trkpt lat="43.69204" lon="6.00423">
        <ele>627</ele>
        <time>2021-05-23T10:15:59Z</time>
      </trkpt>
      <trkpt lat="43.69206" lon="6.00418">
        <ele>627.20001220703</ele>
        <time>2021-05-23T10:16:00Z</time>
      </trkpt>
      <trkpt lat="43.69208" lon="6.00414">
        <ele>627.20001220703</ele>
        <time>2021-05-23T10:16:01Z</time>
      </trkpt>
      <trkpt lat="43.6921" lon="6.0041">
        <ele>627.40002441406</ele>
        <time>2021-05-23T10:16:02Z</time>
      </trkpt>
      <trkpt lat="43.69212" lon="6.00405">
        <ele>627.40002441406</ele>
        <time>2021-05-23T10:16:03Z</time>
      </trkpt>
      <trkpt lat="43.69213" lon="6.00401">
        <ele>627.40002441406</ele>
        <time>2021-05-23T10:16:04Z</time>
      </trkpt>
      <trkpt lat="43.69215" lon="6.00396">
        <ele>627.40002441406</ele>
        <time>2021-05-23T10:16:05Z</time>
      </trkpt>
      <trkpt lat="43.69217" lon="6.00393">
        <ele>627.59997558594</ele>
        <time>2021-05-23T10:16:06Z</time>
      </trkpt>
      <trkpt lat="43.69219" lon="6.00389">
        <ele>627.40002441406</ele>
        <time>2021-05-23T10:16:07Z</time>
      </trkpt>
      <trkpt lat="43.69221" lon="6.00385">
        <ele>627.40002441406</ele>
        <time>2021-05-23T10:16:08Z</time>
      </trkpt>
      <trkpt lat="43.69223" lon="6.0038">
        <ele>627.59997558594</ele>
        <time>2021-05-23T10:16:09Z</time>
      </trkpt>
      <trkpt lat="43.69225" lon="6.00376">
        <ele>627.59997558594</ele>
        <time>2021-05-23T10:16:10Z</time>
      </trkpt>
      <trkpt lat="43.69227" lon="6.00372">
        <ele>627.79998779297</ele>
        <time>2021-05-23T10:16:11Z</time>
      </trkpt>
      <trkpt lat="43.69229" lon="6.00367">
        <ele>628.20001220703</ele>
        <time>2021-05-23T10:16:12Z</time>
      </trkpt>
      <trkpt lat="43.69231" lon="6.00362">
        <ele>628.59997558594</ele>
        <time>2021-05-23T10:16:13Z</time>
      </trkpt>
      <trkpt lat="43.69233" lon="6.00358">
        <ele>629</ele>
        <time>2021-05-23T10:16:14Z</time>
      </trkpt>
      <trkpt lat="43.69235" lon="6.00354">
        <ele>629.20001220703</ele>
        <time>2021-05-23T10:16:15Z</time>
      </trkpt>
      <trkpt lat="43.69237" lon="6.0035">
        <ele>629.20001220703</ele>
        <time>2021-05-23T10:16:16Z</time>
      </trkpt>
      <trkpt lat="43.6924" lon="6.00346">
        <ele>629.20001220703</ele>
        <time>2021-05-23T10:16:17Z</time>
      </trkpt>
      <trkpt lat="43.69242" lon="6.00341">
        <ele>629.20001220703</ele>
        <time>2021-05-23T10:16:18Z</time>
      </trkpt>
      <trkpt lat="43.69244" lon="6.00337">
        <ele>629.20001220703</ele>
        <time>2021-05-23T10:16:19Z</time>
      </trkpt>
      <trkpt lat="43.69246" lon="6.00333">
        <ele>629</ele>
        <time>2021-05-23T10:16:20Z</time>
      </trkpt>
      <trkpt lat="43.69248" lon="6.00329">
        <ele>629</ele>
        <time>2021-05-23T10:16:21Z</time>
      </trkpt>
      <trkpt lat="43.6925" lon="6.00325">
        <ele>629</ele>
        <time>2021-05-23T10:16:22Z</time>
      </trkpt>
      <trkpt lat="43.69253" lon="6.00321">
        <ele>629</ele>
        <time>2021-05-23T10:16:23Z</time>
      </trkpt>
      <trkpt lat="43.69256" lon="6.00318">
        <ele>629.40002441406</ele>
        <time>2021-05-23T10:16:24Z</time>
      </trkpt>
      <trkpt lat="43.69258" lon="6.00314">
        <ele>629.59997558594</ele>
        <time>2021-05-23T10:16:25Z</time>
      </trkpt>
      <trkpt lat="43.69261" lon="6.0031">
        <ele>629.79998779297</ele>
        <time>2021-05-23T10:16:26Z</time>
      </trkpt>
      <trkpt lat="43.69263" lon="6.00306">
        <ele>630</ele>
        <time>2021-05-23T10:16:27Z</time>
      </trkpt>
      <trkpt lat="43.69265" lon="6.00301">
        <ele>630.40002441406</ele>
        <time>2021-05-23T10:16:28Z</time>
      </trkpt>
      <trkpt lat="43.69267" lon="6.00296">
        <ele>630.59997558594</ele>
        <time>2021-05-23T10:16:29Z</time>
      </trkpt>
      <trkpt lat="43.69268" lon="6.00291">
        <ele>631</ele>
        <time>2021-05-23T10:16:30Z</time>
      </trkpt>
      <trkpt lat="43.69269" lon="6.00286">
        <ele>631</ele>
        <time>2021-05-23T10:16:31Z</time>
      </trkpt>
      <trkpt lat="43.69271" lon="6.00281">
        <ele>631.40002441406</ele>
        <time>2021-05-23T10:16:32Z</time>
      </trkpt>
      <trkpt lat="43.69272" lon="6.00276">
        <ele>631.59997558594</ele>
        <time>2021-05-23T10:16:33Z</time>
      </trkpt>
      <trkpt lat="43.69273" lon="6.00271">
        <ele>631.59997558594</ele>
        <time>2021-05-23T10:16:34Z</time>
      </trkpt>
      <trkpt lat="43.69274" lon="6.00266">
        <ele>631.79998779297</ele>
        <time>2021-05-23T10:16:35Z</time>
      </trkpt>
      <trkpt lat="43.69276" lon="6.00262">
        <ele>632</ele>
        <time>2021-05-23T10:16:36Z</time>
      </trkpt>
      <trkpt lat="43.69277" lon="6.00257">
        <ele>632</ele>
        <time>2021-05-23T10:16:37Z</time>
      </trkpt>
      <trkpt lat="43.69279" lon="6.00252">
        <ele>632</ele>
        <time>2021-05-23T10:16:38Z</time>
      </trkpt>
      <trkpt lat="43.6928" lon="6.00247">
        <ele>632.20001220703</ele>
        <time>2021-05-23T10:16:39Z</time>
      </trkpt>
      <trkpt lat="43.69282" lon="6.00243">
        <ele>632.20001220703</ele>
        <time>2021-05-23T10:16:40Z</time>
      </trkpt>
      <trkpt lat="43.69284" lon="6.00239">
        <ele>632.40002441406</ele>
        <time>2021-05-23T10:16:41Z</time>
      </trkpt>
      <trkpt lat="43.69285" lon="6.00235">
        <ele>632.40002441406</ele>
        <time>2021-05-23T10:16:42Z</time>
      </trkpt>
      <trkpt lat="43.69287" lon="6.0023">
        <ele>632.59997558594</ele>
        <time>2021-05-23T10:16:43Z</time>
      </trkpt>
      <trkpt lat="43.69289" lon="6.00226">
        <ele>632.79998779297</ele>
        <time>2021-05-23T10:16:44Z</time>
      </trkpt>
      <trkpt lat="43.69291" lon="6.00222">
        <ele>632.79998779297</ele>
        <time>2021-05-23T10:16:45Z</time>
      </trkpt>
      <trkpt lat="43.69293" lon="6.00218">
        <ele>632.79998779297</ele>
        <time>2021-05-23T10:16:46Z</time>
      </trkpt>
      <trkpt lat="43.69295" lon="6.00213">
        <ele>633</ele>
        <time>2021-05-23T10:16:47Z</time>
      </trkpt>
      <trkpt lat="43.69296" lon="6.00209">
        <ele>632.79998779297</ele>
        <time>2021-05-23T10:16:48Z</time>
      </trkpt>
      <trkpt lat="43.69298" lon="6.00205">
        <ele>633</ele>
        <time>2021-05-23T10:16:49Z</time>
      </trkpt>
      <trkpt lat="43.69299" lon="6.002">
        <ele>633.20001220703</ele>
        <time>2021-05-23T10:16:50Z</time>
      </trkpt>
      <trkpt lat="43.693" lon="6.00195">
        <ele>633.40002441406</ele>
        <time>2021-05-23T10:16:51Z</time>
      </trkpt>
      <trkpt lat="43.69301" lon="6.0019">
        <ele>633.40002441406</ele>
        <time>2021-05-23T10:16:52Z</time>
      </trkpt>
      <trkpt lat="43.69302" lon="6.00186">
        <ele>633.59997558594</ele>
        <time>2021-05-23T10:16:53Z</time>
      </trkpt>
      <trkpt lat="43.69302" lon="6.00181">
        <ele>633.79998779297</ele>
        <time>2021-05-23T10:16:54Z</time>
      </trkpt>
      <trkpt lat="43.69303" lon="6.00177">
        <ele>634</ele>
        <time>2021-05-23T10:16:55Z</time>
      </trkpt>
      <trkpt lat="43.69304" lon="6.00172">
        <ele>634</ele>
        <time>2021-05-23T10:16:56Z</time>
      </trkpt>
      <trkpt lat="43.69305" lon="6.00167">
        <ele>634.20001220703</ele>
        <time>2021-05-23T10:16:57Z</time>
      </trkpt>
      <trkpt lat="43.69306" lon="6.00162">
        <ele>634.20001220703</ele>
        <time>2021-05-23T10:16:58Z</time>
      </trkpt>
      <trkpt lat="43.69308" lon="6.00157">
        <ele>634.40002441406</ele>
        <time>2021-05-23T10:16:59Z</time>
      </trkpt>
      <trkpt lat="43.69309" lon="6.00152">
        <ele>634.40002441406</ele>
        <time>2021-05-23T10:17:00Z</time>
      </trkpt>
      <trkpt lat="43.69311" lon="6.00147">
        <ele>634.59997558594</ele>
        <time>2021-05-23T10:17:01Z</time>
      </trkpt>
      <trkpt lat="43.69312" lon="6.00143">
        <ele>634.79998779297</ele>
        <time>2021-05-23T10:17:02Z</time>
      </trkpt>
      <trkpt lat="43.69314" lon="6.00139">
        <ele>634.59997558594</ele>
        <time>2021-05-23T10:17:03Z</time>
      </trkpt>
      <trkpt lat="43.69316" lon="6.00134">
        <ele>634.59997558594</ele>
        <time>2021-05-23T10:17:04Z</time>
      </trkpt>
      <trkpt lat="43.69318" lon="6.0013">
        <ele>634.59997558594</ele>
        <time>2021-05-23T10:17:05Z</time>
      </trkpt>
      <trkpt lat="43.6932" lon="6.00125">
        <ele>634.59997558594</ele>
        <time>2021-05-23T10:17:06Z</time>
      </trkpt>
      <trkpt lat="43.69323" lon="6.00121">
        <ele>635</ele>
        <time>2021-05-23T10:17:07Z</time>
      </trkpt>
      <trkpt lat="43.69325" lon="6.00117">
        <ele>635.20001220703</ele>
        <time>2021-05-23T10:17:08Z</time>
      </trkpt>
      <trkpt lat="43.69327" lon="6.00113">
        <ele>635.40002441406</ele>
        <time>2021-05-23T10:17:09Z</time>
      </trkpt>
      <trkpt lat="43.69329" lon="6.00109">
        <ele>635.40002441406</ele>
        <time>2021-05-23T10:17:10Z</time>
      </trkpt>
      <trkpt lat="43.69331" lon="6.00105">
        <ele>635.40002441406</ele>
        <time>2021-05-23T10:17:11Z</time>
      </trkpt>
      <trkpt lat="43.69333" lon="6.00101">
        <ele>635.40002441406</ele>
        <time>2021-05-23T10:17:12Z</time>
      </trkpt>
      <trkpt lat="43.69336" lon="6.00097">
        <ele>635.40002441406</ele>
        <time>2021-05-23T10:17:13Z</time>
      </trkpt>
      <trkpt lat="43.69338" lon="6.00093">
        <ele>635.59997558594</ele>
        <time>2021-05-23T10:17:14Z</time>
      </trkpt>
      <trkpt lat="43.69339" lon="6.00088">
        <ele>635.59997558594</ele>
        <time>2021-05-23T10:17:15Z</time>
      </trkpt>
      <trkpt lat="43.6934" lon="6.00083">
        <ele>635.79998779297</ele>
        <time>2021-05-23T10:17:16Z</time>
      </trkpt>
      <trkpt lat="43.69341" lon="6.00079">
        <ele>636</ele>
        <time>2021-05-23T10:17:17Z</time>
      </trkpt>
      <trkpt lat="43.69343" lon="6.00075">
        <ele>636.20001220703</ele>
        <time>2021-05-23T10:17:18Z</time>
      </trkpt>
      <trkpt lat="43.69344" lon="6.0007">
        <ele>636.40002441406</ele>
        <time>2021-05-23T10:17:19Z</time>
      </trkpt>
      <trkpt lat="43.69346" lon="6.00066">
        <ele>636.40002441406</ele>
        <time>2021-05-23T10:17:20Z</time>
      </trkpt>
      <trkpt lat="43.69348" lon="6.00062">
        <ele>636.40002441406</ele>
        <time>2021-05-23T10:17:21Z</time>
      </trkpt>
      <trkpt lat="43.6935" lon="6.00057">
        <ele>636.40002441406</ele>
        <time>2021-05-23T10:17:22Z</time>
      </trkpt>
      <trkpt lat="43.69352" lon="6.00053">
        <ele>636.40002441406</ele>
        <time>2021-05-23T10:17:23Z</time>
      </trkpt>
      <trkpt lat="43.69354" lon="6.00049">
        <ele>636.40002441406</ele>
        <time>2021-05-23T10:17:24Z</time>
      </trkpt>
      <trkpt lat="43.69356" lon="6.00045">
        <ele>636.40002441406</ele>
        <time>2021-05-23T10:17:25Z</time>
      </trkpt>
      <trkpt lat="43.69358" lon="6.0004">
        <ele>636.59997558594</ele>
        <time>2021-05-23T10:17:26Z</time>
      </trkpt>
      <trkpt lat="43.6936" lon="6.00036">
        <ele>637.20001220703</ele>
        <time>2021-05-23T10:17:27Z</time>
      </trkpt>
      <trkpt lat="43.69362" lon="6.00033">
        <ele>637.59997558594</ele>
        <time>2021-05-23T10:17:28Z</time>
      </trkpt>
      <trkpt lat="43.69365" lon="6.00029">
        <ele>637.59997558594</ele>
        <time>2021-05-23T10:17:29Z</time>
      </trkpt>
      <trkpt lat="43.69367" lon="6.00025">
        <ele>637.59997558594</ele>
        <time>2021-05-23T10:17:30Z</time>
      </trkpt>
      <trkpt lat="43.6937" lon="6.00021">
        <ele>637.79998779297</ele>
        <time>2021-05-23T10:17:31Z</time>
      </trkpt>
      <trkpt lat="43.69373" lon="6.00017">
        <ele>637.79998779297</ele>
        <time>2021-05-23T10:17:32Z</time>
      </trkpt>
      <trkpt lat="43.69376" lon="6.00014">
        <ele>637.79998779297</ele>
        <time>2021-05-23T10:17:33Z</time>
      </trkpt>
      <trkpt lat="43.69379" lon="6.0001">
        <ele>637.79998779297</ele>
        <time>2021-05-23T10:17:34Z</time>
      </trkpt>
      <trkpt lat="43.69382" lon="6.00007">
        <ele>638</ele>
        <time>2021-05-23T10:17:35Z</time>
      </trkpt>
      <trkpt lat="43.69385" lon="6.00004">
        <ele>638.20001220703</ele>
        <time>2021-05-23T10:17:36Z</time>
      </trkpt>
      <trkpt lat="43.69389" lon="6.00002">
        <ele>638.20001220703</ele>
        <time>2021-05-23T10:17:37Z</time>
      </trkpt>
      <trkpt lat="43.69392" lon="5.99999">
        <ele>638.20001220703</ele>
        <time>2021-05-23T10:17:38Z</time>
      </trkpt>
      <trkpt lat="43.69395" lon="5.99996">
        <ele>638.40002441406</ele>
        <time>2021-05-23T10:17:39Z</time>
      </trkpt>
      <trkpt lat="43.69398" lon="5.99993">
        <ele>639</ele>
        <time>2021-05-23T10:17:40Z</time>
      </trkpt>
      <trkpt lat="43.69402" lon="5.9999">
        <ele>639.20001220703</ele>
        <time>2021-05-23T10:17:41Z</time>
      </trkpt>
      <trkpt lat="43.69405" lon="5.99988">
        <ele>639.20001220703</ele>
        <time>2021-05-23T10:17:42Z</time>
      </trkpt>
      <trkpt lat="43.69408" lon="5.99985">
        <ele>639.40002441406</ele>
        <time>2021-05-23T10:17:43Z</time>
      </trkpt>
      <trkpt lat="43.69412" lon="5.99983">
        <ele>639.59997558594</ele>
        <time>2021-05-23T10:17:44Z</time>
      </trkpt>
      <trkpt lat="43.69415" lon="5.9998">
        <ele>639.59997558594</ele>
        <time>2021-05-23T10:17:45Z</time>
      </trkpt>
      <trkpt lat="43.69419" lon="5.99977">
        <ele>639.79998779297</ele>
        <time>2021-05-23T10:17:46Z</time>
      </trkpt>
      <trkpt lat="43.69422" lon="5.99975">
        <ele>639.79998779297</ele>
        <time>2021-05-23T10:17:47Z</time>
      </trkpt>
      <trkpt lat="43.69425" lon="5.99972">
        <ele>640</ele>
        <time>2021-05-23T10:17:48Z</time>
      </trkpt>
      <trkpt lat="43.69429" lon="5.9997">
        <ele>640</ele>
        <time>2021-05-23T10:17:49Z</time>
      </trkpt>
      <trkpt lat="43.69432" lon="5.99967">
        <ele>640.20001220703</ele>
        <time>2021-05-23T10:17:50Z</time>
      </trkpt>
      <trkpt lat="43.69444" lon="5.99961">
        <ele>640</ele>
        <time>2021-05-23T10:20:29Z</time>
      </trkpt>
      <trkpt lat="43.69446" lon="5.99963">
        <ele>640</ele>
        <time>2021-05-23T10:20:30Z</time>
      </trkpt>
      <trkpt lat="43.69448" lon="5.99963">
        <ele>640</ele>
        <time>2021-05-23T10:20:31Z</time>
      </trkpt>
      <trkpt lat="43.6945" lon="5.99963">
        <ele>640</ele>
        <time>2021-05-23T10:20:32Z</time>
      </trkpt>
      <trkpt lat="43.69452" lon="5.99963">
        <ele>640</ele>
        <time>2021-05-23T10:20:33Z</time>
      </trkpt>
      <trkpt lat="43.69453" lon="5.99962">
        <ele>640</ele>
        <time>2021-05-23T10:20:34Z</time>
      </trkpt>
      <trkpt lat="43.69455" lon="5.99961">
        <ele>640</ele>
        <time>2021-05-23T10:20:35Z</time>
      </trkpt>
      <trkpt lat="43.69457" lon="5.9996">
        <ele>640.40002441406</ele>
        <time>2021-05-23T10:20:36Z</time>
      </trkpt>
      <trkpt lat="43.69459" lon="5.99959">
        <ele>640.79998779297</ele>
        <time>2021-05-23T10:20:37Z</time>
      </trkpt>
      <trkpt lat="43.69462" lon="5.99958">
        <ele>640.79998779297</ele>
        <time>2021-05-23T10:20:38Z</time>
      </trkpt>
      <trkpt lat="43.69465" lon="5.99959">
        <ele>640.79998779297</ele>
        <time>2021-05-23T10:20:39Z</time>
      </trkpt>
      <trkpt lat="43.69468" lon="5.99959">
        <ele>640.79998779297</ele>
        <time>2021-05-23T10:20:40Z</time>
      </trkpt>
      <trkpt lat="43.69471" lon="5.99959">
        <ele>640.79998779297</ele>
        <time>2021-05-23T10:20:41Z</time>
      </trkpt>
      <trkpt lat="43.69473" lon="5.9996">
        <ele>640.79998779297</ele>
        <time>2021-05-23T10:20:42Z</time>
      </trkpt>
      <trkpt lat="43.69476" lon="5.9996">
        <ele>641</ele>
        <time>2021-05-23T10:20:43Z</time>
      </trkpt>
      <trkpt lat="43.69479" lon="5.9996">
        <ele>641</ele>
        <time>2021-05-23T10:20:44Z</time>
      </trkpt>
      <trkpt lat="43.69482" lon="5.9996">
        <ele>641</ele>
        <time>2021-05-23T10:20:45Z</time>
      </trkpt>
      <trkpt lat="43.69485" lon="5.9996">
        <ele>641.40002441406</ele>
        <time>2021-05-23T10:20:46Z</time>
      </trkpt>
      <trkpt lat="43.69487" lon="5.99959">
        <ele>641.59997558594</ele>
        <time>2021-05-23T10:20:47Z</time>
      </trkpt>
      <trkpt lat="43.6949" lon="5.99958">
        <ele>641.59997558594</ele>
        <time>2021-05-23T10:20:48Z</time>
      </trkpt>
      <trkpt lat="43.69493" lon="5.99957">
        <ele>641.59997558594</ele>
        <time>2021-05-23T10:20:49Z</time>
      </trkpt>
      <trkpt lat="43.69495" lon="5.99956">
        <ele>641.59997558594</ele>
        <time>2021-05-23T10:20:50Z</time>
      </trkpt>
      <trkpt lat="43.69497" lon="5.99953">
        <ele>642.20001220703</ele>
        <time>2021-05-23T10:20:51Z</time>
      </trkpt>
      <trkpt lat="43.69499" lon="5.9995">
        <ele>642.40002441406</ele>
        <time>2021-05-23T10:20:52Z</time>
      </trkpt>
      <trkpt lat="43.69502" lon="5.99947">
        <ele>642.40002441406</ele>
        <time>2021-05-23T10:20:53Z</time>
      </trkpt>
      <trkpt lat="43.69504" lon="5.99945">
        <ele>642.59997558594</ele>
        <time>2021-05-23T10:20:54Z</time>
      </trkpt>
      <trkpt lat="43.69507" lon="5.99943">
        <ele>642.59997558594</ele>
        <time>2021-05-23T10:20:55Z</time>
      </trkpt>
      <trkpt lat="43.6951" lon="5.99942">
        <ele>642.59997558594</ele>
        <time>2021-05-23T10:20:56Z</time>
      </trkpt>
      <trkpt lat="43.69512" lon="5.99939">
        <ele>642.40002441406</ele>
        <time>2021-05-23T10:20:57Z</time>
      </trkpt>
      <trkpt lat="43.69513" lon="5.99936">
        <ele>642.40002441406</ele>
        <time>2021-05-23T10:20:58Z</time>
      </trkpt>
      <trkpt lat="43.69515" lon="5.99933">
        <ele>642.40002441406</ele>
        <time>2021-05-23T10:20:59Z</time>
      </trkpt>
      <trkpt lat="43.69518" lon="5.99931">
        <ele>642.40002441406</ele>
        <time>2021-05-23T10:21:00Z</time>
      </trkpt>
      <trkpt lat="43.69521" lon="5.9993">
        <ele>642.40002441406</ele>
        <time>2021-05-23T10:21:01Z</time>
      </trkpt>
      <trkpt lat="43.69524" lon="5.9993">
        <ele>642.59997558594</ele>
        <time>2021-05-23T10:21:02Z</time>
      </trkpt>
      <trkpt lat="43.69526" lon="5.9993">
        <ele>642.59997558594</ele>
        <time>2021-05-23T10:21:03Z</time>
      </trkpt>
      <trkpt lat="43.69529" lon="5.99929">
        <ele>642.79998779297</ele>
        <time>2021-05-23T10:21:04Z</time>
      </trkpt>
      <trkpt lat="43.69532" lon="5.99928">
        <ele>643</ele>
        <time>2021-05-23T10:21:05Z</time>
      </trkpt>
      <trkpt lat="43.69534" lon="5.99927">
        <ele>643</ele>
        <time>2021-05-23T10:21:06Z</time>
      </trkpt>
      <trkpt lat="43.69537" lon="5.99926">
        <ele>643.20001220703</ele>
        <time>2021-05-23T10:21:07Z</time>
      </trkpt>
      <trkpt lat="43.69539" lon="5.99927">
        <ele>643.20001220703</ele>
        <time>2021-05-23T10:21:08Z</time>
      </trkpt>
      <trkpt lat="43.69541" lon="5.99927">
        <ele>643.20001220703</ele>
        <time>2021-05-23T10:21:09Z</time>
      </trkpt>
      <trkpt lat="43.69544" lon="5.99927">
        <ele>643.40002441406</ele>
        <time>2021-05-23T10:21:10Z</time>
      </trkpt>
      <trkpt lat="43.69546" lon="5.99928">
        <ele>643.40002441406</ele>
        <time>2021-05-23T10:21:11Z</time>
      </trkpt>
      <trkpt lat="43.69548" lon="5.99929">
        <ele>643.40002441406</ele>
        <time>2021-05-23T10:21:12Z</time>
      </trkpt>
      <trkpt lat="43.69551" lon="5.9993">
        <ele>643.59997558594</ele>
        <time>2021-05-23T10:21:13Z</time>
      </trkpt>
      <trkpt lat="43.69553" lon="5.9993">
        <ele>643.79998779297</ele>
        <time>2021-05-23T10:21:14Z</time>
      </trkpt>
      <trkpt lat="43.69555" lon="5.9993">
        <ele>643.79998779297</ele>
        <time>2021-05-23T10:21:15Z</time>
      </trkpt>
      <trkpt lat="43.69557" lon="5.99929">
        <ele>644</ele>
        <time>2021-05-23T10:21:16Z</time>
      </trkpt>
      <trkpt lat="43.69559" lon="5.99927">
        <ele>644</ele>
        <time>2021-05-23T10:21:17Z</time>
      </trkpt>
      <trkpt lat="43.69561" lon="5.99925">
        <ele>644.20001220703</ele>
        <time>2021-05-23T10:21:18Z</time>
      </trkpt>
      <trkpt lat="43.69564" lon="5.99923">
        <ele>644.20001220703</ele>
        <time>2021-05-23T10:21:19Z</time>
      </trkpt>
      <trkpt lat="43.69566" lon="5.99922">
        <ele>644.20001220703</ele>
        <time>2021-05-23T10:21:20Z</time>
      </trkpt>
      <trkpt lat="43.69569" lon="5.9992">
        <ele>644.40002441406</ele>
        <time>2021-05-23T10:21:21Z</time>
      </trkpt>
      <trkpt lat="43.69571" lon="5.99919">
        <ele>644.59997558594</ele>
        <time>2021-05-23T10:21:22Z</time>
      </trkpt>
      <trkpt lat="43.69574" lon="5.99917">
        <ele>644.59997558594</ele>
        <time>2021-05-23T10:21:23Z</time>
      </trkpt>
      <trkpt lat="43.69577" lon="5.99915">
        <ele>644.79998779297</ele>
        <time>2021-05-23T10:21:24Z</time>
      </trkpt>
      <trkpt lat="43.69579" lon="5.99912">
        <ele>645</ele>
        <time>2021-05-23T10:21:25Z</time>
      </trkpt>
      <trkpt lat="43.69581" lon="5.99909">
        <ele>645</ele>
        <time>2021-05-23T10:21:26Z</time>
      </trkpt>
      <trkpt lat="43.69583" lon="5.99906">
        <ele>645</ele>
        <time>2021-05-23T10:21:27Z</time>
      </trkpt>
      <trkpt lat="43.69584" lon="5.99902">
        <ele>645.20001220703</ele>
        <time>2021-05-23T10:21:28Z</time>
      </trkpt>
      <trkpt lat="43.69585" lon="5.99898">
        <ele>645.20001220703</ele>
        <time>2021-05-23T10:21:29Z</time>
      </trkpt>
      <trkpt lat="43.69586" lon="5.99894">
        <ele>645.40002441406</ele>
        <time>2021-05-23T10:21:30Z</time>
      </trkpt>
      <trkpt lat="43.69587" lon="5.99891">
        <ele>645.59997558594</ele>
        <time>2021-05-23T10:21:31Z</time>
      </trkpt>
      <trkpt lat="43.69589" lon="5.99888">
        <ele>645.59997558594</ele>
        <time>2021-05-23T10:21:32Z</time>
      </trkpt>
      <trkpt lat="43.69592" lon="5.99886">
        <ele>645.79998779297</ele>
        <time>2021-05-23T10:21:33Z</time>
      </trkpt>
      <trkpt lat="43.69595" lon="5.99885">
        <ele>645.79998779297</ele>
        <time>2021-05-23T10:21:34Z</time>
      </trkpt>
      <trkpt lat="43.69598" lon="5.99885">
        <ele>646</ele>
        <time>2021-05-23T10:21:35Z</time>
      </trkpt>
      <trkpt lat="43.69601" lon="5.99885">
        <ele>646</ele>
        <time>2021-05-23T10:21:36Z</time>
      </trkpt>
      <trkpt lat="43.69604" lon="5.99886">
        <ele>646.20001220703</ele>
        <time>2021-05-23T10:21:37Z</time>
      </trkpt>
      <trkpt lat="43.69607" lon="5.99887">
        <ele>646.40002441406</ele>
        <time>2021-05-23T10:21:38Z</time>
      </trkpt>
      <trkpt lat="43.6961" lon="5.99889">
        <ele>646.40002441406</ele>
        <time>2021-05-23T10:21:39Z</time>
      </trkpt>
      <trkpt lat="43.69613" lon="5.99889">
        <ele>646.59997558594</ele>
        <time>2021-05-23T10:21:40Z</time>
      </trkpt>
      <trkpt lat="43.69616" lon="5.9989">
        <ele>646.79998779297</ele>
        <time>2021-05-23T10:21:41Z</time>
      </trkpt>
      <trkpt lat="43.6962" lon="5.99891">
        <ele>646.79998779297</ele>
        <time>2021-05-23T10:21:42Z</time>
      </trkpt>
      <trkpt lat="43.69623" lon="5.99891">
        <ele>647</ele>
        <time>2021-05-23T10:21:43Z</time>
      </trkpt>
      <trkpt lat="43.69626" lon="5.99891">
        <ele>647</ele>
        <time>2021-05-23T10:21:44Z</time>
      </trkpt>
      <trkpt lat="43.69629" lon="5.99892">
        <ele>647.20001220703</ele>
        <time>2021-05-23T10:21:45Z</time>
      </trkpt>
      <trkpt lat="43.69632" lon="5.99892">
        <ele>647.40002441406</ele>
        <time>2021-05-23T10:21:46Z</time>
      </trkpt>
      <trkpt lat="43.69635" lon="5.99893">
        <ele>647.59997558594</ele>
        <time>2021-05-23T10:21:47Z</time>
      </trkpt>
      <trkpt lat="43.69638" lon="5.99894">
        <ele>647.79998779297</ele>
        <time>2021-05-23T10:21:48Z</time>
      </trkpt>
      <trkpt lat="43.69642" lon="5.99894">
        <ele>648</ele>
        <time>2021-05-23T10:21:49Z</time>
      </trkpt>
      <trkpt lat="43.69645" lon="5.99895">
        <ele>648.40002441406</ele>
        <time>2021-05-23T10:21:50Z</time>
      </trkpt>
      <trkpt lat="43.69648" lon="5.99895">
        <ele>648.40002441406</ele>
        <time>2021-05-23T10:21:51Z</time>
      </trkpt>
      <trkpt lat="43.69651" lon="5.99894">
        <ele>648.59997558594</ele>
        <time>2021-05-23T10:21:52Z</time>
      </trkpt>
      <trkpt lat="43.69654" lon="5.99893">
        <ele>648.79998779297</ele>
        <time>2021-05-23T10:21:53Z</time>
      </trkpt>
      <trkpt lat="43.69658" lon="5.99893">
        <ele>649</ele>
        <time>2021-05-23T10:21:54Z</time>
      </trkpt>
      <trkpt lat="43.69661" lon="5.99892">
        <ele>649.40002441406</ele>
        <time>2021-05-23T10:21:55Z</time>
      </trkpt>
      <trkpt lat="43.69664" lon="5.99891">
        <ele>649.59997558594</ele>
        <time>2021-05-23T10:21:56Z</time>
      </trkpt>
      <trkpt lat="43.69667" lon="5.9989">
        <ele>649.59997558594</ele>
        <time>2021-05-23T10:21:57Z</time>
      </trkpt>
      <trkpt lat="43.69671" lon="5.9989">
        <ele>649.79998779297</ele>
        <time>2021-05-23T10:21:58Z</time>
      </trkpt>
      <trkpt lat="43.69674" lon="5.99889">
        <ele>650</ele>
        <time>2021-05-23T10:21:59Z</time>
      </trkpt>
      <trkpt lat="43.69677" lon="5.99887">
        <ele>650.40002441406</ele>
        <time>2021-05-23T10:22:00Z</time>
      </trkpt>
      <trkpt lat="43.6968" lon="5.99885">
        <ele>650.59997558594</ele>
        <time>2021-05-23T10:22:01Z</time>
      </trkpt>
      <trkpt lat="43.69682" lon="5.99883">
        <ele>650.59997558594</ele>
        <time>2021-05-23T10:22:02Z</time>
      </trkpt>
      <trkpt lat="43.69685" lon="5.9988">
        <ele>650.79998779297</ele>
        <time>2021-05-23T10:22:03Z</time>
      </trkpt>
      <trkpt lat="43.69688" lon="5.99878">
        <ele>651</ele>
        <time>2021-05-23T10:22:04Z</time>
      </trkpt>
      <trkpt lat="43.69691" lon="5.99876">
        <ele>651.20001220703</ele>
        <time>2021-05-23T10:22:05Z</time>
      </trkpt>
      <trkpt lat="43.69694" lon="5.99874">
        <ele>651.20001220703</ele>
        <time>2021-05-23T10:22:06Z</time>
      </trkpt>
      <trkpt lat="43.69697" lon="5.99872">
        <ele>651.40002441406</ele>
        <time>2021-05-23T10:22:07Z</time>
      </trkpt>
      <trkpt lat="43.697" lon="5.9987">
        <ele>651.40002441406</ele>
        <time>2021-05-23T10:22:08Z</time>
      </trkpt>
      <trkpt lat="43.69702" lon="5.99869">
        <ele>651.59997558594</ele>
        <time>2021-05-23T10:22:09Z</time>
      </trkpt>
      <trkpt lat="43.69705" lon="5.99866">
        <ele>651.79998779297</ele>
        <time>2021-05-23T10:22:10Z</time>
      </trkpt>
      <trkpt lat="43.69708" lon="5.99865">
        <ele>651.79998779297</ele>
        <time>2021-05-23T10:22:11Z</time>
      </trkpt>
      <trkpt lat="43.69711" lon="5.99864">
        <ele>652</ele>
        <time>2021-05-23T10:22:12Z</time>
      </trkpt>
      <trkpt lat="43.69714" lon="5.99864">
        <ele>652.20001220703</ele>
        <time>2021-05-23T10:22:13Z</time>
      </trkpt>
      <trkpt lat="43.69716" lon="5.99865">
        <ele>652.20001220703</ele>
        <time>2021-05-23T10:22:14Z</time>
      </trkpt>
      <trkpt lat="43.69718" lon="5.99866">
        <ele>652.40002441406</ele>
        <time>2021-05-23T10:22:15Z</time>
      </trkpt>
      <trkpt lat="43.6972" lon="5.99868">
        <ele>652.59997558594</ele>
        <time>2021-05-23T10:22:16Z</time>
      </trkpt>
      <trkpt lat="43.69721" lon="5.9987">
        <ele>652.59997558594</ele>
        <time>2021-05-23T10:22:17Z</time>
      </trkpt>
      <trkpt lat="43.69722" lon="5.99873">
        <ele>652.79998779297</ele>
        <time>2021-05-23T10:22:18Z</time>
      </trkpt>
      <trkpt lat="43.69724" lon="5.99876">
        <ele>652.79998779297</ele>
        <time>2021-05-23T10:22:19Z</time>
      </trkpt>
      <trkpt lat="43.69725" lon="5.99879">
        <ele>652.79998779297</ele>
        <time>2021-05-23T10:22:20Z</time>
      </trkpt>
      <trkpt lat="43.69727" lon="5.99882">
        <ele>653</ele>
        <time>2021-05-23T10:22:21Z</time>
      </trkpt>
      <trkpt lat="43.6973" lon="5.99885">
        <ele>653</ele>
        <time>2021-05-23T10:22:22Z</time>
      </trkpt>
      <trkpt lat="43.69732" lon="5.99887">
        <ele>653</ele>
        <time>2021-05-23T10:22:23Z</time>
      </trkpt>
      <trkpt lat="43.69734" lon="5.9989">
        <ele>653</ele>
        <time>2021-05-23T10:22:24Z</time>
      </trkpt>
      <trkpt lat="43.69737" lon="5.99892">
        <ele>653</ele>
        <time>2021-05-23T10:22:25Z</time>
      </trkpt>
      <trkpt lat="43.69739" lon="5.99894">
        <ele>653</ele>
        <time>2021-05-23T10:22:26Z</time>
      </trkpt>
      <trkpt lat="43.69766" lon="5.9989">
        <ele>555</ele>
      </trkpt>
      <trkpt lat="43.6976" lon="5.99955">
        <ele>555</ele>
      </trkpt>
      <trkpt lat="43.69755" lon="5.99985">
        <ele>554.9</ele>
      </trkpt>
      <trkpt lat="43.69728" lon="6.0008">
        <ele>554.8</ele>
      </trkpt>
      <trkpt lat="43.69719" lon="6.00146">
        <ele>554</ele>
      </trkpt>
      <trkpt lat="43.69713" lon="6.00202">
        <ele>554</ele>
      </trkpt>
      <trkpt lat="43.69694" lon="6.00245">
        <ele>554</ele>
      </trkpt>
      <trkpt lat="43.69688" lon="6.00307">
        <ele>554</ele>
      </trkpt>
      <trkpt lat="43.69671" lon="6.00406">
        <ele>552.3</ele>
      </trkpt>
      <trkpt lat="43.69654" lon="6.00434">
        <ele>551.4</ele>
      </trkpt>
      <trkpt lat="43.6964" lon="6.00515">
        <ele>548.5</ele>
      </trkpt>
      <trkpt lat="43.69611" lon="6.00582">
        <ele>546</ele>
      </trkpt>
      <trkpt lat="43.69587" lon="6.00663">
        <ele>541.4</ele>
      </trkpt>
      <trkpt lat="43.6958" lon="6.00709">
        <ele>539.6</ele>
      </trkpt>
      <trkpt lat="43.6958" lon="6.0076">
        <ele>537.6</ele>
      </trkpt>
      <trkpt lat="43.69573" lon="6.00809">
        <ele>535.9</ele>
      </trkpt>
      <trkpt lat="43.69564" lon="6.0084">
        <ele>534.7</ele>
      </trkpt>
      <trkpt lat="43.69538" lon="6.00936">
        <ele>530.1</ele>
      </trkpt>
      <trkpt lat="43.69508" lon="6.00967">
        <ele>528.1</ele>
      </trkpt>
      <trkpt lat="43.69472" lon="6.01018">
        <ele>523.3</ele>
      </trkpt>
      <trkpt lat="43.69471" lon="6.0103">
        <ele>522.4</ele>
      </trkpt>
      <trkpt lat="43.69467" lon="6.0103">
        <ele>521.9</ele>
      </trkpt>
      <trkpt lat="43.69454" lon="6.01033">
        <ele>519.8</ele>
      </trkpt>
      <trkpt lat="43.69437" lon="6.01025">
        <ele>516.4</ele>
      </trkpt>
      <trkpt lat="43.69436" lon="6.01025">
        <ele>515.9</ele>
      </trkpt>
      <trkpt lat="43.69426" lon="6.01041">
        <ele>512.8</ele>
      </trkpt>
      <trkpt lat="43.69423" lon="6.01044">
        <ele>511.9</ele>
      </trkpt>
      <trkpt lat="43.69417" lon="6.01066">
        <ele>509.6</ele>
      </trkpt>
      <trkpt lat="43.69415" lon="6.01066">
        <ele>509.3</ele>
      </trkpt>
      <trkpt lat="43.69384" lon="6.01102">
        <ele>504.2</ele>
      </trkpt>
      <trkpt lat="43.69383" lon="6.01102">
        <ele>503.9</ele>
      </trkpt>
      <trkpt lat="43.69357" lon="6.01123">
        <ele>500</ele>
      </trkpt>
      <trkpt lat="43.69355" lon="6.01123">
        <ele>498.9</ele>
      </trkpt>
      <trkpt lat="43.69332" lon="6.01169">
        <ele>494.1</ele>
      </trkpt>
      <trkpt lat="43.69298" lon="6.01204">
        <ele>487.5</ele>
      </trkpt>
      <trkpt lat="43.69271" lon="6.01227">
        <ele>489.3</ele>
      </trkpt>
      <trkpt lat="43.6925" lon="6.01278">
        <ele>489.1</ele>
      </trkpt>
      <trkpt lat="43.69239" lon="6.01317">
        <ele>492.7</ele>
      </trkpt>
      <trkpt lat="43.69224" lon="6.01345">
        <ele>491.6</ele>
      </trkpt>
      <trkpt lat="43.69211" lon="6.01354">
        <ele>491</ele>
      </trkpt>
      <trkpt lat="43.69188" lon="6.01344">
        <ele>492.4</ele>
      </trkpt>
      <trkpt lat="43.69166" lon="6.01327">
        <ele>494</ele>
      </trkpt>
      <trkpt lat="43.69163" lon="6.01327">
        <ele>494.1</ele>
      </trkpt>
      <trkpt lat="43.69092" lon="6.01332">
        <ele>495.3</ele>
      </trkpt>
      <trkpt lat="43.69081" lon="6.01349">
        <ele>496.6</ele>
      </trkpt>
      <trkpt lat="43.69084" lon="6.01365">
        <ele>496.4</ele>
      </trkpt>
      <trkpt lat="43.69085" lon="6.01367">
        <ele>496.7</ele>
      </trkpt>
      <trkpt lat="43.69116" lon="6.01403">
        <ele>499</ele>
      </trkpt>
      <trkpt lat="43.69143" lon="6.01442">
        <ele>499.2</ele>
      </trkpt>
      <trkpt lat="43.69147" lon="6.0148">
        <ele>502.4</ele>
      </trkpt>
      <trkpt lat="43.69146" lon="6.0148">
        <ele>501.9</ele>
      </trkpt>
      <trkpt lat="43.69123" lon="6.01505">
        <ele>501.1</ele>
      </trkpt>
      <trkpt lat="43.6912" lon="6.01543">
        <ele>505.5</ele>
      </trkpt>
      <trkpt lat="43.69105" lon="6.01584">
        <ele>511.1</ele>
      </trkpt>
      <trkpt lat="43.69104" lon="6.01584">
        <ele>511.1</ele>
      </trkpt>
      <trkpt lat="43.69091" lon="6.01612">
        <ele>512.4</ele>
      </trkpt>
      <trkpt lat="43.69089" lon="6.01617">
        <ele>512.6</ele>
      </trkpt>
      <trkpt lat="43.691" lon="6.01656">
        <ele>517.4</ele>
      </trkpt>
      <trkpt lat="43.69107" lon="6.01684">
        <ele>518.5</ele>
      </trkpt>
      <trkpt lat="43.69128" lon="6.01712">
        <ele>522.6</ele>
      </trkpt>
      <trkpt lat="43.69166" lon="6.01778">
        <ele>528.1</ele>
      </trkpt>
      <trkpt lat="43.69196" lon="6.01808">
        <ele>531.4</ele>
      </trkpt>
      <trkpt lat="43.69217" lon="6.01806">
        <ele>534.3</ele>
      </trkpt>
      <trkpt lat="43.69235" lon="6.01799">
        <ele>536.6</ele>
      </trkpt>
      <trkpt lat="43.69255" lon="6.01832">
        <ele>539.5</ele>
      </trkpt>
      <trkpt lat="43.6925" lon="6.01872">
        <ele>541.4</ele>
      </trkpt>
      <trkpt lat="43.69251" lon="6.01873">
        <ele>541.5</ele>
      </trkpt>
      <trkpt lat="43.69258" lon="6.01911">
        <ele>543.1</ele>
      </trkpt>
      <trkpt lat="43.69264" lon="6.01982">
        <ele>545.9</ele>
      </trkpt>
      <trkpt lat="43.69266" lon="6.02017">
        <ele>547.4</ele>
      </trkpt>
      <trkpt lat="43.6926" lon="6.0204">
        <ele>548.2</ele>
      </trkpt>
      <trkpt lat="43.69254" lon="6.02063">
        <ele>548.4</ele>
      </trkpt>
      <trkpt lat="43.69254" lon="6.02068">
        <ele>548.6</ele>
      </trkpt>
      <trkpt lat="43.69255" lon="6.02092">
        <ele>549.2</ele>
      </trkpt>
      <trkpt lat="43.69242" lon="6.02119">
        <ele>549</ele>
      </trkpt>
      <trkpt lat="43.69221" lon="6.02201">
        <ele>550.2</ele>
      </trkpt>
      <trkpt lat="43.69219" lon="6.02204">
        <ele>550.2</ele>
      </trkpt>
      <trkpt lat="43.69202" lon="6.02239">
        <ele>550.5</ele>
      </trkpt>
      <trkpt lat="43.69201" lon="6.0227">
        <ele>551</ele>
      </trkpt>
      <trkpt lat="43.692" lon="6.02275">
        <ele>551.1</ele>
      </trkpt>
      <trkpt lat="43.6918" lon="6.02295">
        <ele>550.5</ele>
      </trkpt>
      <trkpt lat="43.69176" lon="6.02301">
        <ele>550.3</ele>
      </trkpt>
      <trkpt lat="43.69141" lon="6.02339">
        <ele>550.1</ele>
      </trkpt>
      <trkpt lat="43.69136" lon="6.02344">
        <ele>549.9</ele>
      </trkpt>
      <trkpt lat="43.69128" lon="6.02352">
        <ele>549.5</ele>
      </trkpt>
      <trkpt lat="43.69124" lon="6.02426">
        <ele>550.8</ele>
      </trkpt>
      <trkpt lat="43.6911" lon="6.02461">
        <ele>550.9</ele>
      </trkpt>
      <trkpt lat="43.69108" lon="6.02462">
        <ele>550.9</ele>
      </trkpt>
      <trkpt lat="43.69095" lon="6.02503">
        <ele>551.4</ele>
      </trkpt>
      <trkpt lat="43.69089" lon="6.02576">
        <ele>552</ele>
      </trkpt>
      <trkpt lat="43.69095" lon="6.02635">
        <ele>551.6</ele>
      </trkpt>
      <trkpt lat="43.69095" lon="6.02706">
        <ele>550.2</ele>
      </trkpt>
      <trkpt lat="43.69092" lon="6.0276">
        <ele>548.3</ele>
      </trkpt>
      <trkpt lat="43.69091" lon="6.02762">
        <ele>548.3</ele>
      </trkpt>
      <trkpt lat="43.69079" lon="6.02778">
        <ele>548.2</ele>
      </trkpt>
      <trkpt lat="43.69076" lon="6.02778">
        <ele>548.3</ele>
      </trkpt>
      <trkpt lat="43.69023" lon="6.02839">
        <ele>547</ele>
      </trkpt>
      <trkpt lat="43.69012" lon="6.02859">
        <ele>546.6</ele>
      </trkpt>
      <trkpt lat="43.69012" lon="6.029">
        <ele>544.9</ele>
      </trkpt>
      <trkpt lat="43.69011" lon="6.02928">
        <ele>543.4</ele>
      </trkpt>
      <trkpt lat="43.69008" lon="6.02928">
        <ele>543.5</ele>
      </trkpt>
      <trkpt lat="43.68995" lon="6.02946">
        <ele>543.1</ele>
      </trkpt>
      <trkpt lat="43.68982" lon="6.02966">
        <ele>542.1</ele>
      </trkpt>
      <trkpt lat="43.68982" lon="6.02974">
        <ele>541.6</ele>
      </trkpt>
      <trkpt lat="43.68979" lon="6.03">
        <ele>540</ele>
      </trkpt>
      <trkpt lat="43.6894" lon="6.03063">
        <ele>540.6</ele>
      </trkpt>
      <trkpt lat="43.68934" lon="6.03104">
        <ele>541.4</ele>
      </trkpt>
      <trkpt lat="43.68918" lon="6.03138">
        <ele>541.9</ele>
      </trkpt>
      <trkpt lat="43.68909" lon="6.03183">
        <ele>542.4</ele>
      </trkpt>
      <trkpt lat="43.68898" lon="6.03224">
        <ele>541.7</ele>
      </trkpt>
      <trkpt lat="43.68898" lon="6.03227">
        <ele>541.6</ele>
      </trkpt>
      <trkpt lat="43.68899" lon="6.03249">
        <ele>541.3</ele>
      </trkpt>
      <trkpt lat="43.68886" lon="6.03298">
        <ele>540</ele>
      </trkpt>
      <trkpt lat="43.68878" lon="6.03329">
        <ele>538.3</ele>
      </trkpt>
      <trkpt lat="43.68875" lon="6.03329">
        <ele>538.3</ele>
      </trkpt>
      <trkpt lat="43.6885" lon="6.03347">
        <ele>537.2</ele>
      </trkpt>
      <trkpt lat="43.68847" lon="6.03347">
        <ele>537.3</ele>
      </trkpt>
      <trkpt lat="43.6882" lon="6.03354">
        <ele>537.7</ele>
      </trkpt>
      <trkpt lat="43.68781" lon="6.03382">
        <ele>536.4</ele>
      </trkpt>
      <trkpt lat="43.68728" lon="6.03416">
        <ele>533.8</ele>
      </trkpt>
      <trkpt lat="43.687" lon="6.03436">
        <ele>533.6</ele>
      </trkpt>
      <trkpt lat="43.68695" lon="6.03438">
        <ele>533.7</ele>
      </trkpt>
      <trkpt lat="43.68673" lon="6.03462">
        <ele>532.6</ele>
      </trkpt>
      <trkpt lat="43.68668" lon="6.03472">
        <ele>532</ele>
      </trkpt>
      <trkpt lat="43.68674" lon="6.03512">
        <ele>529.6</ele>
      </trkpt>
      <trkpt lat="43.6867" lon="6.03512">
        <ele>529.6</ele>
      </trkpt>
      <trkpt lat="43.68672" lon="6.03555">
        <ele>527.1</ele>
      </trkpt>
      <trkpt lat="43.68672" lon="6.03574">
        <ele>525</ele>
      </trkpt>
      <trkpt lat="43.68692" lon="6.03591">
        <ele>522.9</ele>
      </trkpt>
      <trkpt lat="43.68704" lon="6.03596">
        <ele>521.1</ele>
      </trkpt>
      <trkpt lat="43.68716" lon="6.03599">
        <ele>519.4</ele>
      </trkpt>
      <trkpt lat="43.68714" lon="6.0361">
        <ele>518.1</ele>
      </trkpt>
      <trkpt lat="43.68711" lon="6.03617">
        <ele>517.2</ele>
      </trkpt>
      <trkpt lat="43.68701" lon="6.0363">
        <ele>515.8</ele>
      </trkpt>
      <trkpt lat="43.68689" lon="6.0364">
        <ele>514.7</ele>
      </trkpt>
      <trkpt lat="43.68679" lon="6.03647">
        <ele>512.9</ele>
      </trkpt>
      <trkpt lat="43.68668" lon="6.0365">
        <ele>512.1</ele>
      </trkpt>
      <trkpt lat="43.68663" lon="6.03658">
        <ele>510</ele>
      </trkpt>
      <trkpt lat="43.68676" lon="6.03662">
        <ele>509.2</ele>
      </trkpt>
      <trkpt lat="43.68683" lon="6.03672">
        <ele>506.9</ele>
      </trkpt>
      <trkpt lat="43.68684" lon="6.03672">
        <ele>507</ele>
      </trkpt>
      <trkpt lat="43.68691" lon="6.03679">
        <ele>505.6</ele>
      </trkpt>
      <trkpt lat="43.68701" lon="6.03688">
        <ele>503.6</ele>
      </trkpt>
      <trkpt lat="43.68709" lon="6.0369">
        <ele>502.2</ele>
      </trkpt>
      <trkpt lat="43.68716" lon="6.03695">
        <ele>500.7</ele>
      </trkpt>
      <trkpt lat="43.68724" lon="6.03696">
        <ele>498.9</ele>
      </trkpt>
      <trkpt lat="43.68723" lon="6.03707">
        <ele>498.1</ele>
      </trkpt>
      <trkpt lat="43.68716" lon="6.03719">
        <ele>496.6</ele>
      </trkpt>
      <trkpt lat="43.68707" lon="6.03724">
        <ele>495.6</ele>
      </trkpt>
      <trkpt lat="43.68707" lon="6.03724">
        <ele>495.6</ele>
      </trkpt>
      <trkpt lat="43.68695" lon="6.03733">
        <ele>493.6</ele>
      </trkpt>
      <trkpt lat="43.68695" lon="6.03735">
        <ele>493.3</ele>
      </trkpt>
      <trkpt lat="43.68684" lon="6.03747">
        <ele>489.9</ele>
      </trkpt>
      <trkpt lat="43.68669" lon="6.03754">
        <ele>487.2</ele>
      </trkpt>
      <trkpt lat="43.68667" lon="6.03754">
        <ele>487</ele>
      </trkpt>
      <trkpt lat="43.68653" lon="6.03751">
        <ele>484.9</ele>
      </trkpt>
      <trkpt lat="43.68652" lon="6.03751">
        <ele>484.5</ele>
      </trkpt>
      <trkpt lat="43.68638" lon="6.03745">
        <ele>483.4</ele>
      </trkpt>
      <trkpt lat="43.68631" lon="6.03745">
        <ele>484.1</ele>
      </trkpt>
      <trkpt lat="43.6863" lon="6.03745">
        <ele>483.9</ele>
      </trkpt>
      <trkpt lat="43.68619" lon="6.03758">
        <ele>481.1</ele>
      </trkpt>
      <trkpt lat="43.68618" lon="6.03758">
        <ele>481.2</ele>
      </trkpt>
      <trkpt lat="43.68607" lon="6.03772">
        <ele>478.9</ele>
      </trkpt>
      <trkpt lat="43.68606" lon="6.03772">
        <ele>478.9</ele>
      </trkpt>
      <trkpt lat="43.68592" lon="6.03786">
        <ele>476.4</ele>
      </trkpt>
      <trkpt lat="43.68587" lon="6.03796">
        <ele>474.6</ele>
      </trkpt>
      <trkpt lat="43.68587" lon="6.03796">
        <ele>474.6</ele>
      </trkpt>
      <trkpt lat="43.68583" lon="6.03805">
        <ele>473.2</ele>
      </trkpt>
      <trkpt lat="43.68595" lon="6.03818">
        <ele>468.4</ele>
      </trkpt>
      <trkpt lat="43.68604" lon="6.03818">
        <ele>467.3</ele>
      </trkpt>
      <trkpt lat="43.68616" lon="6.03812">
        <ele>466.9</ele>
      </trkpt>
      <trkpt lat="43.68624" lon="6.03809">
        <ele>465.8</ele>
      </trkpt>
      <trkpt lat="43.6863" lon="6.03809">
        <ele>464.8</ele>
      </trkpt>
      <trkpt lat="43.68641" lon="6.03821">
        <ele>460.5</ele>
      </trkpt>
      <trkpt lat="43.68652" lon="6.03833">
        <ele>459</ele>
      </trkpt>
      <trkpt lat="43.68664" lon="6.03842">
        <ele>457.7</ele>
      </trkpt>
      <trkpt lat="43.68682" lon="6.03843">
        <ele>457.9</ele>
      </trkpt>
      <trkpt lat="43.68694" lon="6.03844">
        <ele>457.7</ele>
      </trkpt>
      <trkpt lat="43.68708" lon="6.03843">
        <ele>455.4</ele>
      </trkpt>
      <trkpt lat="43.68722" lon="6.03842">
        <ele>453.2</ele>
      </trkpt>
      <trkpt lat="43.68729" lon="6.03835">
        <ele>453.9</ele>
      </trkpt>
      <trkpt lat="43.68739" lon="6.03831">
        <ele>452.6</ele>
      </trkpt>
      <trkpt lat="43.6874" lon="6.0384">
        <ele>448.8</ele>
      </trkpt>
      <trkpt lat="43.68733" lon="6.0385">
        <ele>447.2</ele>
      </trkpt>
      <trkpt lat="43.68724" lon="6.03856">
        <ele>446.7</ele>
      </trkpt>
      <trkpt lat="43.68724" lon="6.03864">
        <ele>443.7</ele>
      </trkpt>
      <trkpt lat="43.68729" lon="6.03867">
        <ele>441.7</ele>
      </trkpt>
      <trkpt lat="43.68746" lon="6.03861">
        <ele>439.7</ele>
      </trkpt>
      <trkpt lat="43.68768" lon="6.03861">
        <ele>435.7</ele>
      </trkpt>
      <trkpt lat="43.68784" lon="6.03854">
        <ele>435.1</ele>
      </trkpt>
      <trkpt lat="43.68796" lon="6.03852">
        <ele>432.8</ele>
      </trkpt>
      <trkpt lat="43.68823" lon="6.03843">
        <ele>430.8</ele>
      </trkpt>
      <trkpt lat="43.68831" lon="6.03841">
        <ele>430</ele>
      </trkpt>
      <trkpt lat="43.68849" lon="6.03849">
        <ele>426.8</ele>
      </trkpt>
      <trkpt lat="43.68868" lon="6.03851">
        <ele>423.9</ele>
      </trkpt>
      <trkpt lat="43.68885" lon="6.03852">
        <ele>420</ele>
      </trkpt>
      <trkpt lat="43.68903" lon="6.03841">
        <ele>417.8</ele>
      </trkpt>
      <trkpt lat="43.68923" lon="6.03835">
        <ele>413.5</ele>
      </trkpt>
      <trkpt lat="43.68941" lon="6.03832">
        <ele>410.8</ele>
      </trkpt>
      <trkpt lat="43.68989" lon="6.03829">
        <ele>405.7</ele>
      </trkpt>
      <trkpt lat="43.69005" lon="6.03827">
        <ele>404.4</ele>
      </trkpt>
      <trkpt lat="43.69025" lon="6.03811">
        <ele>401.7</ele>
      </trkpt>
      <trkpt lat="43.69041" lon="6.03789">
        <ele>400.3</ele>
      </trkpt>
      <trkpt lat="43.6906" lon="6.03775">
        <ele>396.5</ele>
      </trkpt>
      <trkpt lat="43.69094" lon="6.0378">
        <ele>391.5</ele>
      </trkpt>
      <trkpt lat="43.69118" lon="6.03785">
        <ele>389.5</ele>
      </trkpt>
      <trkpt lat="43.69129" lon="6.03801">
        <ele>387.2</ele>
      </trkpt>
      <trkpt lat="43.69151" lon="6.03805">
        <ele>385</ele>
      </trkpt>
      <trkpt lat="43.69163" lon="6.03804">
        <ele>383.8</ele>
      </trkpt>
      <trkpt lat="43.69184" lon="6.03801">
        <ele>381.5</ele>
      </trkpt>
      <trkpt lat="43.69197" lon="6.03805">
        <ele>379.5</ele>
      </trkpt>
      <trkpt lat="43.69211" lon="6.03811">
        <ele>377.4</ele>
      </trkpt>
      <trkpt lat="43.69248" lon="6.03773">
        <ele>373.1</ele>
      </trkpt>
      <trkpt lat="43.69275" lon="6.03737">
        <ele>371.8</ele>
      </trkpt>
      <trkpt lat="43.6928" lon="6.03752">
        <ele>370.5</ele>
      </trkpt>
      <trkpt lat="43.69289" lon="6.03787">
        <ele>369</ele>
      </trkpt>
      <trkpt lat="43.69304" lon="6.0384">
        <ele>368.9</ele>
      </trkpt>
      <trkpt lat="43.69311" lon="6.03869">
        <ele>366.9</ele>
      </trkpt>
      <trkpt lat="43.69329" lon="6.03912">
        <ele>365.1</ele>
      </trkpt>
      <trkpt lat="43.69358" lon="6.03946">
        <ele>365.3</ele>
      </trkpt>
      <trkpt lat="43.69383" lon="6.03979">
        <ele>365.9</ele>
      </trkpt>
      <trkpt lat="43.69385" lon="6.03989">
        <ele>366.5</ele>
      </trkpt>
      <trkpt lat="43.69379" lon="6.04002">
        <ele>367.7</ele>
      </trkpt>
      <trkpt lat="43.69373" lon="6.04012">
        <ele>367.9</ele>
      </trkpt>
      <trkpt lat="43.69367" lon="6.04028">
        <ele>367.8</ele>
      </trkpt>
      <trkpt lat="43.69364" lon="6.04059">
        <ele>366.8</ele>
      </trkpt>
      <trkpt lat="43.69353" lon="6.04174">
        <ele>363.9</ele>
      </trkpt>
      <trkpt lat="43.69348" lon="6.04236">
        <ele>360.5</ele>
      </trkpt>
      <trkpt lat="43.69341" lon="6.04254">
        <ele>359.5</ele>
      </trkpt>
      <trkpt lat="43.69332" lon="6.04268">
        <ele>360.4</ele>
      </trkpt>
      <trkpt lat="43.69331" lon="6.04299">
        <ele>361.2</ele>
      </trkpt>
      <trkpt lat="43.69333" lon="6.04311">
        <ele>361.2</ele>
      </trkpt>
      <trkpt lat="43.69326" lon="6.04338">
        <ele>363.1</ele>
      </trkpt>
      <trkpt lat="43.69307" lon="6.04386">
        <ele>368.5</ele>
      </trkpt>
      <trkpt lat="43.69293" lon="6.04421">
        <ele>372</ele>
      </trkpt>
      <trkpt lat="43.69272" lon="6.04455">
        <ele>375.4</ele>
      </trkpt>
      <trkpt lat="43.6926" lon="6.04478">
        <ele>376.2</ele>
      </trkpt>
      <trkpt lat="43.69227" lon="6.045">
        <ele>376.8</ele>
      </trkpt>
      <trkpt lat="43.69209" lon="6.04517">
        <ele>376.7</ele>
      </trkpt>
      <trkpt lat="43.69184" lon="6.04549">
        <ele>378.2</ele>
      </trkpt>
      <trkpt lat="43.69165" lon="6.04567">
        <ele>379.6</ele>
      </trkpt>
      <trkpt lat="43.69165" lon="6.04568">
        <ele>379.6</ele>
      </trkpt>
      <trkpt lat="43.69144" lon="6.04599">
        <ele>381.8</ele>
      </trkpt>
      <trkpt lat="43.69144" lon="6.046">
        <ele>381.8</ele>
      </trkpt>
      <trkpt lat="43.6914" lon="6.04611">
        <ele>382</ele>
      </trkpt>
      <trkpt lat="43.69144" lon="6.04625">
        <ele>384.1</ele>
      </trkpt>
      <trkpt lat="43.69153" lon="6.04658">
        <ele>388.2</ele>
      </trkpt>
      <trkpt lat="43.6916" lon="6.047">
        <ele>391.6</ele>
      </trkpt>
      <trkpt lat="43.69163" lon="6.04713">
        <ele>391.4</ele>
      </trkpt>
      <trkpt lat="43.69162" lon="6.04734">
        <ele>391.8</ele>
      </trkpt>
      <trkpt lat="43.69162" lon="6.04735">
        <ele>391.8</ele>
      </trkpt>
      <trkpt lat="43.69156" lon="6.04759">
        <ele>393.1</ele>
      </trkpt>
      <trkpt lat="43.69149" lon="6.04772">
        <ele>394.3</ele>
      </trkpt>
      <trkpt lat="43.69131" lon="6.04794">
        <ele>397.5</ele>
      </trkpt>
      <trkpt lat="43.69117" lon="6.04819">
        <ele>399.7</ele>
      </trkpt>
      <trkpt lat="43.69116" lon="6.0482">
        <ele>399.8</ele>
      </trkpt>
      <trkpt lat="43.69105" lon="6.04848">
        <ele>401.7</ele>
      </trkpt>
      <trkpt lat="43.69092" lon="6.04873">
        <ele>404.3</ele>
      </trkpt>
      <trkpt lat="43.69088" lon="6.04897">
        <ele>406</ele>
      </trkpt>
      <trkpt lat="43.69084" lon="6.04931">
        <ele>408</ele>
      </trkpt>
      <trkpt lat="43.6908" lon="6.05028">
        <ele>411</ele>
      </trkpt>
      <trkpt lat="43.69065" lon="6.05158">
        <ele>413.3</ele>
      </trkpt>
      <trkpt lat="43.69049" lon="6.05297">
        <ele>419.4</ele>
      </trkpt>
      <trkpt lat="43.69043" lon="6.05318">
        <ele>420.5</ele>
      </trkpt>
      <trkpt lat="43.6903" lon="6.05383">
        <ele>423.8</ele>
      </trkpt>
      <trkpt lat="43.69018" lon="6.05453">
        <ele>427.5</ele>
      </trkpt>
      <trkpt lat="43.69011" lon="6.05492">
        <ele>429.8</ele>
      </trkpt>
      <trkpt lat="43.68983" lon="6.05583">
        <ele>435</ele>
      </trkpt>
      <trkpt lat="43.68958" lon="6.05618">
        <ele>438.3</ele>
      </trkpt>
      <trkpt lat="43.68958" lon="6.05619">
        <ele>438.5</ele>
      </trkpt>
      <trkpt lat="43.68935" lon="6.05705">
        <ele>450.3</ele>
      </trkpt>
      <trkpt lat="43.68919" lon="6.0573">
        <ele>454.7</ele>
      </trkpt>
      <trkpt lat="43.68905" lon="6.05739">
        <ele>455.1</ele>
      </trkpt>
      <trkpt lat="43.68902" lon="6.05739">
        <ele>454.6</ele>
      </trkpt>
      <trkpt lat="43.68887" lon="6.05758">
        <ele>457.9</ele>
      </trkpt>
      <trkpt lat="43.68921" lon="6.05758">
        <ele>463.6</ele>
      </trkpt>
      <trkpt lat="43.68954" lon="6.05759">
        <ele>468.2</ele>
      </trkpt>
      <trkpt lat="43.68953" lon="6.05776">
        <ele>472.3</ele>
      </trkpt>
      <trkpt lat="43.68925" lon="6.05802">
        <ele>476.7</ele>
      </trkpt>
      <trkpt lat="43.68896" lon="6.05822">
        <ele>476.5</ele>
      </trkpt>
      <trkpt lat="43.68896" lon="6.05823">
        <ele>476.8</ele>
      </trkpt>
      <trkpt lat="43.68894" lon="6.05853">
        <ele>478.8</ele>
      </trkpt>
      <trkpt lat="43.68894" lon="6.05856">
        <ele>478.9</ele>
      </trkpt>
      <trkpt lat="43.68896" lon="6.05904">
        <ele>478.4</ele>
      </trkpt>
      <trkpt lat="43.68915" lon="6.05934">
        <ele>482.6</ele>
      </trkpt>
      <trkpt lat="43.68914" lon="6.05934">
        <ele>482.3</ele>
      </trkpt>
      <trkpt lat="43.68906" lon="6.05975">
        <ele>479.4</ele>
      </trkpt>
      <trkpt lat="43.68906" lon="6.05978">
        <ele>479.7</ele>
      </trkpt>
      <trkpt lat="43.68909" lon="6.06016">
        <ele>482.6</ele>
      </trkpt>
      <trkpt lat="43.68918" lon="6.06029">
        <ele>483.1</ele>
      </trkpt>
      <trkpt lat="43.6889" lon="6.0604">
        <ele>482.5</ele>
      </trkpt>
      <trkpt lat="43.68882" lon="6.06073">
        <ele>483.7</ele>
      </trkpt>
      <trkpt lat="43.68855" lon="6.06137">
        <ele>485.2</ele>
      </trkpt>
      <trkpt lat="43.68763" lon="6.06261">
        <ele>488.2</ele>
      </trkpt>
      <trkpt lat="43.68669" lon="6.06374">
        <ele>485.1</ele>
      </trkpt>
      <trkpt lat="43.68592" lon="6.06501">
        <ele>483.3</ele>
      </trkpt>
      <trkpt lat="43.68549" lon="6.06601">
        <ele>483</ele>
      </trkpt>
      <trkpt lat="43.6852" lon="6.0669">
        <ele>482.1</ele>
      </trkpt>
      <trkpt lat="43.68504" lon="6.06713">
        <ele>482</ele>
      </trkpt>
      <trkpt lat="43.68453" lon="6.06856">
        <ele>480.9</ele>
      </trkpt>
      <trkpt lat="43.68336" lon="6.07157">
        <ele>482</ele>
      </trkpt>
      <trkpt lat="43.68305" lon="6.07144">
        <ele>481.2</ele>
      </trkpt>
      <trkpt lat="43.68219" lon="6.07157">
        <ele>482.1</ele>
      </trkpt>
      <trkpt lat="43.68151" lon="6.07177">
        <ele>483.2</ele>
      </trkpt>
      <trkpt lat="43.68143" lon="6.0718">
        <ele>483.4</ele>
      </trkpt>
      <trkpt lat="43.68035" lon="6.07253">
        <ele>485.7</ele>
      </trkpt>
      <trkpt lat="43.67968" lon="6.07259">
        <ele>487.1</ele>
      </trkpt>
      <trkpt lat="43.67639" lon="6.07236">
        <ele>495</ele>
      </trkpt>
      <trkpt lat="43.67612" lon="6.07212">
        <ele>495</ele>
      </trkpt>
      <trkpt lat="43.67576" lon="6.07207">
        <ele>495.3</ele>
      </trkpt>
      <trkpt lat="43.67545" lon="6.07212">
        <ele>496.1</ele>
      </trkpt>
      <trkpt lat="43.67491" lon="6.07197">
        <ele>497</ele>
      </trkpt>
      <trkpt lat="43.67461" lon="6.07203">
        <ele>497.2</ele>
      </trkpt>
      <trkpt lat="43.6746" lon="6.07203">
        <ele>497.2</ele>
      </trkpt>
      <trkpt lat="43.67441" lon="6.07202">
        <ele>497</ele>
      </trkpt>
      <trkpt lat="43.67425" lon="6.07213">
        <ele>497</ele>
      </trkpt>
      <trkpt lat="43.67401" lon="6.07218">
        <ele>497</ele>
      </trkpt>
      <trkpt lat="43.67394" lon="6.07235">
        <ele>497.4</ele>
      </trkpt>
      <trkpt lat="43.67394" lon="6.07296">
        <ele>498.6</ele>
      </trkpt>
      <trkpt lat="43.67381" lon="6.07333">
        <ele>500</ele>
      </trkpt>
      <trkpt lat="43.67312" lon="6.07439">
        <ele>501.8</ele>
      </trkpt>
      <trkpt lat="43.67305" lon="6.07481">
        <ele>503</ele>
      </trkpt>
      <trkpt lat="43.67266" lon="6.0757">
        <ele>504</ele>
      </trkpt>
      <trkpt lat="43.67265" lon="6.07588">
        <ele>504.1</ele>
      </trkpt>
      <trkpt lat="43.67236" lon="6.0761">
        <ele>504.5</ele>
      </trkpt>
      <trkpt lat="43.67192" lon="6.07764">
        <ele>506</ele>
      </trkpt>
      <trkpt lat="43.67166" lon="6.0781">
        <ele>507</ele>
      </trkpt>
      <trkpt lat="43.67122" lon="6.07825">
        <ele>507</ele>
      </trkpt>
      <trkpt lat="43.67091" lon="6.0785">
        <ele>507</ele>
      </trkpt>
      <trkpt lat="43.67088" lon="6.0785">
        <ele>507</ele>
      </trkpt>
      <trkpt lat="43.67001" lon="6.07927">
        <ele>507</ele>
      </trkpt>
      <trkpt lat="43.66975" lon="6.07968">
        <ele>507</ele>
      </trkpt>
      <trkpt lat="43.66933" lon="6.08034">
        <ele>507</ele>
      </trkpt>
      <trkpt lat="43.66916" lon="6.0808">
        <ele>507</ele>
      </trkpt>
      <trkpt lat="43.66933" lon="6.08133">
        <ele>507</ele>
      </trkpt>
      <trkpt lat="43.66943" lon="6.08169">
        <ele>507</ele>
      </trkpt>
      <trkpt lat="43.66936" lon="6.08215">
        <ele>506.9</ele>
      </trkpt>
      <trkpt lat="43.66932" lon="6.08217">
        <ele>506.9</ele>
      </trkpt>
      <trkpt lat="43.66909" lon="6.08251">
        <ele>507</ele>
      </trkpt>
      <trkpt lat="43.66879" lon="6.08302">
        <ele>508</ele>
      </trkpt>
      <trkpt lat="43.66875" lon="6.08306">
        <ele>508</ele>
      </trkpt>
      <trkpt lat="43.6685" lon="6.08314">
        <ele>508.6</ele>
      </trkpt>
      <trkpt lat="43.66848" lon="6.08319">
        <ele>508.7</ele>
      </trkpt>
      <trkpt lat="43.66854" lon="6.08358">
        <ele>509</ele>
      </trkpt>
      <trkpt lat="43.66844" lon="6.08404">
        <ele>509.7</ele>
      </trkpt>
      <trkpt lat="43.6686" lon="6.08426">
        <ele>510.3</ele>
      </trkpt>
      <trkpt lat="43.66935" lon="6.08467">
        <ele>511</ele>
      </trkpt>
      <trkpt lat="43.66959" lon="6.08534">
        <ele>512.2</ele>
      </trkpt>
      <trkpt lat="43.66972" lon="6.08574">
        <ele>513</ele>
      </trkpt>
      <trkpt lat="43.66984" lon="6.08605">
        <ele>513.9</ele>
      </trkpt>
      <trkpt lat="43.66979" lon="6.08649">
        <ele>514.5</ele>
      </trkpt>
      <trkpt lat="43.66986" lon="6.08691">
        <ele>515.4</ele>
      </trkpt>
      <trkpt lat="43.66968" lon="6.08745">
        <ele>516.1</ele>
      </trkpt>
      <trkpt lat="43.66967" lon="6.08761">
        <ele>516.5</ele>
      </trkpt>
      <trkpt lat="43.66944" lon="6.08839">
        <ele>518.2</ele>
      </trkpt>
      <trkpt lat="43.66922" lon="6.08929">
        <ele>520.4</ele>
      </trkpt>
      <trkpt lat="43.66931" lon="6.08945">
        <ele>521</ele>
      </trkpt>
      <trkpt lat="43.66913" lon="6.08945">
        <ele>521</ele>
      </trkpt>
      <trkpt lat="43.66874" lon="6.09006">
        <ele>522.6</ele>
      </trkpt>
      <trkpt lat="43.66827" lon="6.09023">
        <ele>522.6</ele>
      </trkpt>
      <trkpt lat="43.66792" lon="6.09041">
        <ele>522.5</ele>
      </trkpt>
      <trkpt lat="43.66792" lon="6.09051">
        <ele>522.8</ele>
      </trkpt>
      <trkpt lat="43.66792" lon="6.09072">
        <ele>523.3</ele>
      </trkpt>
      <trkpt lat="43.6678" lon="6.09113">
        <ele>524.1</ele>
      </trkpt>
      <trkpt lat="43.66755" lon="6.09189">
        <ele>526</ele>
      </trkpt>
      <trkpt lat="43.66753" lon="6.09192">
        <ele>526</ele>
      </trkpt>
      <trkpt lat="43.66739" lon="6.09243">
        <ele>527.8</ele>
      </trkpt>
      <trkpt lat="43.66722" lon="6.09279">
        <ele>528.1</ele>
      </trkpt>
      <trkpt lat="43.6672" lon="6.09279">
        <ele>528.1</ele>
      </trkpt>
      <trkpt lat="43.66696" lon="6.09337">
        <ele>529.1</ele>
      </trkpt>
      <trkpt lat="43.66684" lon="6.0939">
        <ele>530</ele>
      </trkpt>
      <trkpt lat="43.66658" lon="6.09446">
        <ele>531</ele>
      </trkpt>
      <trkpt lat="43.66621" lon="6.09521">
        <ele>532.8</ele>
      </trkpt>
      <trkpt lat="43.66619" lon="6.09526">
        <ele>532.9</ele>
      </trkpt>
      <trkpt lat="43.66579" lon="6.09608">
        <ele>533</ele>
      </trkpt>
      <trkpt lat="43.66575" lon="6.09613">
        <ele>533.1</ele>
      </trkpt>
      <trkpt lat="43.66573" lon="6.09613">
        <ele>533.1</ele>
      </trkpt>
      <trkpt lat="43.66541" lon="6.09686">
        <ele>534</ele>
      </trkpt>
      <trkpt lat="43.66538" lon="6.09691">
        <ele>534</ele>
      </trkpt>
      <trkpt lat="43.66521" lon="6.0975">
        <ele>535</ele>
      </trkpt>
      <trkpt lat="43.66521" lon="6.09753">
        <ele>535</ele>
      </trkpt>
      <trkpt lat="43.66516" lon="6.09809">
        <ele>535.1</ele>
      </trkpt>
      <trkpt lat="43.6651" lon="6.09817">
        <ele>535.4</ele>
      </trkpt>
      <trkpt lat="43.66482" lon="6.09911">
        <ele>536.9</ele>
      </trkpt>
      <trkpt lat="43.66456" lon="6.09951">
        <ele>537.1</ele>
      </trkpt>
      <trkpt lat="43.66476" lon="6.09965">
        <ele>537.9</ele>
      </trkpt>
      <trkpt lat="43.66474" lon="6.09964">
        <ele>537.7</ele>
      </trkpt>
      <trkpt lat="43.66458" lon="6.10015">
        <ele>538.3</ele>
      </trkpt>
      <trkpt lat="43.66456" lon="6.10015">
        <ele>538.2</ele>
      </trkpt>
      <trkpt lat="43.66437" lon="6.10049">
        <ele>537.7</ele>
      </trkpt>
      <trkpt lat="43.66432" lon="6.10085">
        <ele>538</ele>
      </trkpt>
      <trkpt lat="43.66429" lon="6.10089">
        <ele>538.1</ele>
      </trkpt>
      <trkpt lat="43.66388" lon="6.10214">
        <ele>539.6</ele>
      </trkpt>
      <trkpt lat="43.66404" lon="6.10247">
        <ele>540.5</ele>
      </trkpt>
      <trkpt lat="43.66401" lon="6.10293">
        <ele>540.9</ele>
      </trkpt>
      <trkpt lat="43.66378" lon="6.10339">
        <ele>540.3</ele>
      </trkpt>
      <trkpt lat="43.66347" lon="6.10401">
        <ele>540.7</ele>
      </trkpt>
      <trkpt lat="43.66347" lon="6.10403">
        <ele>540.7</ele>
      </trkpt>
      <trkpt lat="43.66338" lon="6.10428">
        <ele>540.8</ele>
      </trkpt>
      <trkpt lat="43.66334" lon="6.10433">
        <ele>540.6</ele>
      </trkpt>
      <trkpt lat="43.66326" lon="6.10456">
        <ele>541</ele>
      </trkpt>
      <trkpt lat="43.6632" lon="6.10462">
        <ele>540.9</ele>
      </trkpt>
      <trkpt lat="43.6632" lon="6.10475">
        <ele>541.1</ele>
      </trkpt>
      <trkpt lat="43.66317" lon="6.10558">
        <ele>541.4</ele>
      </trkpt>
      <trkpt lat="43.66316" lon="6.10562">
        <ele>541.4</ele>
      </trkpt>
      <trkpt lat="43.66313" lon="6.10632">
        <ele>542.3</ele>
      </trkpt>
      <trkpt lat="43.66305" lon="6.10691">
        <ele>543.9</ele>
      </trkpt>
      <trkpt lat="43.66305" lon="6.10692">
        <ele>543.9</ele>
      </trkpt>
      <trkpt lat="43.66295" lon="6.10745">
        <ele>546.4</ele>
      </trkpt>
      <trkpt lat="43.66258" lon="6.10704">
        <ele>545.1</ele>
      </trkpt>
      <trkpt lat="43.66218" lon="6.10684">
        <ele>542.5</ele>
      </trkpt>
      <trkpt lat="43.66182" lon="6.10645">
        <ele>540.1</ele>
      </trkpt>
      <trkpt lat="43.66189" lon="6.10583">
        <ele>539</ele>
      </trkpt>
      <trkpt lat="43.66067" lon="6.10463">
        <ele>532.8</ele>
      </trkpt>
      <trkpt lat="43.66056" lon="6.10518">
        <ele>533</ele>
      </trkpt>
      <trkpt lat="43.66051" lon="6.1055">
        <ele>533.8</ele>
      </trkpt>
      <trkpt lat="43.66049" lon="6.10564">
        <ele>534</ele>
      </trkpt>
      <trkpt lat="43.66037" lon="6.10586">
        <ele>534.1</ele>
      </trkpt>
      <trkpt lat="43.66019" lon="6.10638">
        <ele>535</ele>
      </trkpt>
      <trkpt lat="43.65988" lon="6.10697">
        <ele>535.1</ele>
      </trkpt>
      <trkpt lat="43.65977" lon="6.10704">
        <ele>535.1</ele>
      </trkpt>
      <trkpt lat="43.65909" lon="6.10774">
        <ele>534.7</ele>
      </trkpt>
      <trkpt lat="43.65862" lon="6.10831">
        <ele>534.9</ele>
      </trkpt>
      <trkpt lat="43.65823" lon="6.10868">
        <ele>535</ele>
      </trkpt>
      <trkpt lat="43.65782" lon="6.1082">
        <ele>534</ele>
      </trkpt>
      <trkpt lat="43.65758" lon="6.10805">
        <ele>534</ele>
      </trkpt>
      <trkpt lat="43.65733" lon="6.10761">
        <ele>533</ele>
      </trkpt>
      <trkpt lat="43.65699" lon="6.10717">
        <ele>533</ele>
      </trkpt>
      <trkpt lat="43.65694" lon="6.10684">
        <ele>533</ele>
      </trkpt>
      <trkpt lat="43.65663" lon="6.10658">
        <ele>534</ele>
      </trkpt>
      <trkpt lat="43.65629" lon="6.10625">
        <ele>534</ele>
      </trkpt>
      <trkpt lat="43.65593" lon="6.10603">
        <ele>534</ele>
      </trkpt>
      <trkpt lat="43.65561" lon="6.10601">
        <ele>534</ele>
      </trkpt>
      <trkpt lat="43.65517" lon="6.10647">
        <ele>534</ele>
      </trkpt>
      <trkpt lat="43.65512" lon="6.10647">
        <ele>534</ele>
      </trkpt>
      <trkpt lat="43.65485" lon="6.1068">
        <ele>533.5</ele>
      </trkpt>
      <trkpt lat="43.6548" lon="6.1068">
        <ele>533.3</ele>
      </trkpt>
      <trkpt lat="43.65419" lon="6.10682">
        <ele>532.6</ele>
      </trkpt>
      <trkpt lat="43.65365" lon="6.10697">
        <ele>532</ele>
      </trkpt>
      <trkpt lat="43.65341" lon="6.107">
        <ele>531.4</ele>
      </trkpt>
      <trkpt lat="43.6532" lon="6.10733">
        <ele>531.7</ele>
      </trkpt>
      <trkpt lat="43.65286" lon="6.10629">
        <ele>530</ele>
      </trkpt>
      <trkpt lat="43.65232" lon="6.10605">
        <ele>529</ele>
      </trkpt>
      <trkpt lat="43.65191" lon="6.10592">
        <ele>528</ele>
      </trkpt>
      <trkpt lat="43.65164" lon="6.10559">
        <ele>527.9</ele>
      </trkpt>
      <trkpt lat="43.6514" lon="6.10522">
        <ele>526.8</ele>
      </trkpt>
      <trkpt lat="43.65092" lon="6.10511">
        <ele>526</ele>
      </trkpt>
      <trkpt lat="43.65043" lon="6.10511">
        <ele>525.7</ele>
      </trkpt>
      <trkpt lat="43.65023" lon="6.10513">
        <ele>525.6</ele>
      </trkpt>
      <trkpt lat="43.64966" lon="6.10526">
        <ele>526</ele>
      </trkpt>
      <trkpt lat="43.6488" lon="6.10526">
        <ele>528</ele>
      </trkpt>
      <trkpt lat="43.64855" lon="6.1057">
        <ele>528.6</ele>
      </trkpt>
      <trkpt lat="43.64826" lon="6.10577">
        <ele>529.3</ele>
      </trkpt>
      <trkpt lat="43.64797" lon="6.10579">
        <ele>530.3</ele>
      </trkpt>
      <trkpt lat="43.64759" lon="6.10612">
        <ele>531.6</ele>
      </trkpt>
      <trkpt lat="43.6474" lon="6.10603">
        <ele>532.1</ele>
      </trkpt>
      <trkpt lat="43.64705" lon="6.10638">
        <ele>532</ele>
      </trkpt>
      <trkpt lat="43.64643" lon="6.10612">
        <ele>533</ele>
      </trkpt>
      <trkpt lat="43.64616" lon="6.10643">
        <ele>533</ele>
      </trkpt>
      <trkpt lat="43.64583" lon="6.10643">
        <ele>533</ele>
      </trkpt>
      <trkpt lat="43.64563" lon="6.10629">
        <ele>533</ele>
      </trkpt>
      <trkpt lat="43.64535" lon="6.1064">
        <ele>533</ele>
      </trkpt>
      <trkpt lat="43.64513" lon="6.10638">
        <ele>533</ele>
      </trkpt>
      <trkpt lat="43.6447" lon="6.10643">
        <ele>532</ele>
      </trkpt>
      <trkpt lat="43.64456" lon="6.1061">
        <ele>532.4</ele>
      </trkpt>
      <trkpt lat="43.64384" lon="6.10564">
        <ele>531.9</ele>
      </trkpt>
      <trkpt lat="43.64323" lon="6.10583">
        <ele>532</ele>
      </trkpt>
      <trkpt lat="43.64278" lon="6.10579">
        <ele>532</ele>
      </trkpt>
      <trkpt lat="43.64245" lon="6.10579">
        <ele>532</ele>
      </trkpt>
      <trkpt lat="43.64188" lon="6.1059">
        <ele>532.2</ele>
      </trkpt>
      <trkpt lat="43.64143" lon="6.10638">
        <ele>532.9</ele>
      </trkpt>
      <trkpt lat="43.641" lon="6.10634">
        <ele>533.5</ele>
      </trkpt>
      <trkpt lat="43.64046" lon="6.10684">
        <ele>533.1</ele>
      </trkpt>
      <trkpt lat="43.64007" lon="6.10702">
        <ele>533</ele>
      </trkpt>
      <trkpt lat="43.63965" lon="6.10726">
        <ele>533</ele>
      </trkpt>
      <trkpt lat="43.6394" lon="6.1077">
        <ele>533</ele>
      </trkpt>
      <trkpt lat="43.63897" lon="6.10796">
        <ele>533</ele>
      </trkpt>
      <trkpt lat="43.63893" lon="6.10803">
        <ele>533</ele>
      </trkpt>
      <trkpt lat="43.63857" lon="6.1082">
        <ele>533</ele>
      </trkpt>
      <trkpt lat="43.63813" lon="6.10829">
        <ele>532.9</ele>
      </trkpt>
      <trkpt lat="43.6378" lon="6.10855">
        <ele>532.8</ele>
      </trkpt>
      <trkpt lat="43.63708" lon="6.10919">
        <ele>532.5</ele>
      </trkpt>
      <trkpt lat="43.63653" lon="6.10956">
        <ele>532.2</ele>
      </trkpt>
      <trkpt lat="43.63629" lon="6.10965">
        <ele>532</ele>
      </trkpt>
      <trkpt lat="43.63563" lon="6.10963">
        <ele>531.2</ele>
      </trkpt>
      <trkpt lat="43.63512" lon="6.10972">
        <ele>530</ele>
      </trkpt>
      <trkpt lat="43.6348" lon="6.10998">
        <ele>529.3</ele>
      </trkpt>
      <trkpt lat="43.63477" lon="6.11002">
        <ele>529.2</ele>
      </trkpt>
      <trkpt lat="43.63455" lon="6.11024">
        <ele>529.3</ele>
      </trkpt>
      <trkpt lat="43.63401" lon="6.11112">
        <ele>527.4</ele>
      </trkpt>
      <trkpt lat="43.63381" lon="6.11114">
        <ele>526.5</ele>
      </trkpt>
      <trkpt lat="43.63333" lon="6.11145">
        <ele>524.2</ele>
      </trkpt>
      <trkpt lat="43.63291" lon="6.11176">
        <ele>522.8</ele>
      </trkpt>
      <trkpt lat="43.63256" lon="6.1116">
        <ele>521.2</ele>
      </trkpt>
      <trkpt lat="43.63218" lon="6.11154">
        <ele>519.9</ele>
      </trkpt>
      <trkpt lat="43.63187" lon="6.11119">
        <ele>518.8</ele>
      </trkpt>
      <trkpt lat="43.63248" lon="6.10995">
        <ele>520.2</ele>
      </trkpt>
      <trkpt lat="43.63316" lon="6.1077">
        <ele>522.4</ele>
      </trkpt>
      <trkpt lat="43.631" lon="6.10803">
        <ele>523</ele>
      </trkpt>
      <trkpt lat="43.63063" lon="6.10792">
        <ele>523.9</ele>
      </trkpt>
      <trkpt lat="43.63051" lon="6.10792">
        <ele>524.1</ele>
      </trkpt>
      <trkpt lat="43.63028" lon="6.10744">
        <ele>525.2</ele>
      </trkpt>
      <trkpt lat="43.63005" lon="6.10688">
        <ele>528</ele>
      </trkpt>
      <trkpt lat="43.63005" lon="6.1064">
        <ele>529</ele>
      </trkpt>
      <trkpt lat="43.62985" lon="6.10627">
        <ele>530</ele>
      </trkpt>
      <trkpt lat="43.62955" lon="6.1057">
        <ele>532.2</ele>
      </trkpt>
      <trkpt lat="43.62904" lon="6.10515">
        <ele>535.2</ele>
      </trkpt>
      <trkpt lat="43.62886" lon="6.10499">
        <ele>536.2</ele>
      </trkpt>
      <trkpt lat="43.62876" lon="6.10474">
        <ele>536.5</ele>
      </trkpt>
      <trkpt lat="43.62849" lon="6.10443">
        <ele>539.8</ele>
      </trkpt>
      <trkpt lat="43.62773" lon="6.10377">
        <ele>551.5</ele>
      </trkpt>
      <trkpt lat="43.62742" lon="6.10354">
        <ele>554.8</ele>
      </trkpt>
      <trkpt lat="43.62718" lon="6.10357">
        <ele>556.3</ele>
      </trkpt>
      <trkpt lat="43.62729" lon="6.10311">
        <ele>555.9</ele>
      </trkpt>
      <trkpt lat="43.62749" lon="6.1028">
        <ele>555</ele>
      </trkpt>
      <trkpt lat="43.62737" lon="6.10249">
        <ele>554.5</ele>
      </trkpt>
      <trkpt lat="43.62699" lon="6.10262">
        <ele>554</ele>
      </trkpt>
      <trkpt lat="43.62682" lon="6.10251">
        <ele>552.6</ele>
      </trkpt>
      <trkpt lat="43.6269" lon="6.10226">
        <ele>551.8</ele>
      </trkpt>
      <trkpt lat="43.62733" lon="6.1017">
        <ele>549.6</ele>
      </trkpt>
      <trkpt lat="43.62745" lon="6.10132">
        <ele>546.3</ele>
      </trkpt>
      <trkpt lat="43.62735" lon="6.10107">
        <ele>544.1</ele>
      </trkpt>
      <trkpt lat="43.62735" lon="6.10106">
        <ele>543.9</ele>
      </trkpt>
      <trkpt lat="43.62731" lon="6.10052">
        <ele>537.6</ele>
      </trkpt>
      <trkpt lat="43.62734" lon="6.10027">
        <ele>534.9</ele>
      </trkpt>
      <trkpt lat="43.6266" lon="6.09915">
        <ele>522.6</ele>
      </trkpt>
      <trkpt lat="43.62665" lon="6.09872">
        <ele>518.2</ele>
      </trkpt>
      <trkpt lat="43.62664" lon="6.09872">
        <ele>518.2</ele>
      </trkpt>
      <trkpt lat="43.62648" lon="6.09834">
        <ele>514.4</ele>
      </trkpt>
      <trkpt lat="43.62634" lon="6.09793">
        <ele>509.4</ele>
      </trkpt>
      <trkpt lat="43.62641" lon="6.09741">
        <ele>504.5</ele>
      </trkpt>
      <trkpt lat="43.62641" lon="6.09732">
        <ele>503.8</ele>
      </trkpt>
      <trkpt lat="43.62655" lon="6.09706">
        <ele>501.8</ele>
      </trkpt>
      <trkpt lat="43.62651" lon="6.09685">
        <ele>499.5</ele>
      </trkpt>
      <trkpt lat="43.62648" lon="6.09662">
        <ele>497.2</ele>
      </trkpt>
      <trkpt lat="43.62663" lon="6.09614">
        <ele>493</ele>
      </trkpt>
      <trkpt lat="43.62675" lon="6.09573">
        <ele>490</ele>
      </trkpt>
      <trkpt lat="43.627" lon="6.0955">
        <ele>489.8</ele>
      </trkpt>
      <trkpt lat="43.62715" lon="6.09502">
        <ele>486.9</ele>
      </trkpt>
      <trkpt lat="43.6271" lon="6.09479">
        <ele>590.20001220703</ele>
        <time>2021-05-23T08:52:16Z</time>
      </trkpt>
      <trkpt lat="43.62705" lon="6.09478">
        <ele>590.59997558594</ele>
        <time>2021-05-23T08:52:15Z</time>
      </trkpt>
      <trkpt lat="43.627" lon="6.09476">
        <ele>591.20001220703</ele>
        <time>2021-05-23T08:52:14Z</time>
      </trkpt>
      <trkpt lat="43.62694" lon="6.09474">
        <ele>591.79998779297</ele>
        <time>2021-05-23T08:52:13Z</time>
      </trkpt>
      <trkpt lat="43.62688" lon="6.09472">
        <ele>592.20001220703</ele>
        <time>2021-05-23T08:52:12Z</time>
      </trkpt>
      <trkpt lat="43.62683" lon="6.09469">
        <ele>593.20001220703</ele>
        <time>2021-05-23T08:52:11Z</time>
      </trkpt>
      <trkpt lat="43.62677" lon="6.09464">
        <ele>593.59997558594</ele>
        <time>2021-05-23T08:52:10Z</time>
      </trkpt>
      <trkpt lat="43.62672" lon="6.09459">
        <ele>594.40002441406</ele>
        <time>2021-05-23T08:52:09Z</time>
      </trkpt>
      <trkpt lat="43.62667" lon="6.09453">
        <ele>595</ele>
        <time>2021-05-23T08:52:08Z</time>
      </trkpt>
      <trkpt lat="43.62662" lon="6.09449">
        <ele>595.59997558594</ele>
        <time>2021-05-23T08:52:07Z</time>
      </trkpt>
      <trkpt lat="43.62656" lon="6.09446">
        <ele>596.40002441406</ele>
        <time>2021-05-23T08:52:06Z</time>
      </trkpt>
      <trkpt lat="43.62651" lon="6.09443">
        <ele>596.79998779297</ele>
        <time>2021-05-23T08:52:05Z</time>
      </trkpt>
      <trkpt lat="43.62646" lon="6.0944">
        <ele>597.20001220703</ele>
        <time>2021-05-23T08:52:04Z</time>
      </trkpt>
      <trkpt lat="43.62642" lon="6.09437">
        <ele>597.59997558594</ele>
        <time>2021-05-23T08:52:03Z</time>
      </trkpt>
      <trkpt lat="43.62637" lon="6.09433">
        <ele>597.79998779297</ele>
        <time>2021-05-23T08:52:02Z</time>
      </trkpt>
      <trkpt lat="43.62633" lon="6.0943">
        <ele>597.59997558594</ele>
        <time>2021-05-23T08:52:01Z</time>
      </trkpt>
      <trkpt lat="43.62629" lon="6.09428">
        <ele>598</ele>
        <time>2021-05-23T08:52:00Z</time>
      </trkpt>
      <trkpt lat="43.62625" lon="6.09426">
        <ele>598.20001220703</ele>
        <time>2021-05-23T08:51:59Z</time>
      </trkpt>
      <trkpt lat="43.62621" lon="6.09424">
        <ele>598.20001220703</ele>
        <time>2021-05-23T08:51:58Z</time>
      </trkpt>
      <trkpt lat="43.62616" lon="6.09422">
        <ele>598.40002441406</ele>
        <time>2021-05-23T08:51:57Z</time>
      </trkpt>
      <trkpt lat="43.62612" lon="6.09421">
        <ele>598.40002441406</ele>
        <time>2021-05-23T08:51:56Z</time>
      </trkpt>
      <trkpt lat="43.62608" lon="6.0942">
        <ele>598.79998779297</ele>
        <time>2021-05-23T08:51:55Z</time>
      </trkpt>
      <trkpt lat="43.62605" lon="6.09419">
        <ele>598.79998779297</ele>
        <time>2021-05-23T08:51:54Z</time>
      </trkpt>
      <trkpt lat="43.62602" lon="6.09419">
        <ele>598.79998779297</ele>
        <time>2021-05-23T08:51:53Z</time>
      </trkpt>
      <trkpt lat="43.62598" lon="6.0942">
        <ele>598.79998779297</ele>
        <time>2021-05-23T08:51:52Z</time>
      </trkpt>
      <trkpt lat="43.62595" lon="6.0942">
        <ele>599</ele>
        <time>2021-05-23T08:51:51Z</time>
      </trkpt>
      <trkpt lat="43.62591" lon="6.09418">
        <ele>599.20001220703</ele>
        <time>2021-05-23T08:51:50Z</time>
      </trkpt>
      <trkpt lat="43.62587" lon="6.09417">
        <ele>599.40002441406</ele>
        <time>2021-05-23T08:51:49Z</time>
      </trkpt>
      <trkpt lat="43.62583" lon="6.09415">
        <ele>599.59997558594</ele>
        <time>2021-05-23T08:51:48Z</time>
      </trkpt>
      <trkpt lat="43.6258" lon="6.09413">
        <ele>600</ele>
        <time>2021-05-23T08:51:47Z</time>
      </trkpt>
      <trkpt lat="43.62576" lon="6.09412">
        <ele>600.20001220703</ele>
        <time>2021-05-23T08:51:46Z</time>
      </trkpt>
      <trkpt lat="43.62573" lon="6.0941">
        <ele>600.20001220703</ele>
        <time>2021-05-23T08:51:45Z</time>
      </trkpt>
      <trkpt lat="43.62569" lon="6.0941">
        <ele>600.20001220703</ele>
        <time>2021-05-23T08:51:44Z</time>
      </trkpt>
      <trkpt lat="43.62565" lon="6.0941">
        <ele>600.20001220703</ele>
        <time>2021-05-23T08:51:43Z</time>
      </trkpt>
      <trkpt lat="43.62562" lon="6.09411">
        <ele>600.20001220703</ele>
        <time>2021-05-23T08:51:42Z</time>
      </trkpt>
      <trkpt lat="43.62559" lon="6.09412">
        <ele>600.20001220703</ele>
        <time>2021-05-23T08:51:41Z</time>
      </trkpt>
      <trkpt lat="43.62556" lon="6.09413">
        <ele>600</ele>
        <time>2021-05-23T08:51:40Z</time>
      </trkpt>
      <trkpt lat="43.62552" lon="6.09414">
        <ele>600</ele>
        <time>2021-05-23T08:51:39Z</time>
      </trkpt>
      <trkpt lat="43.62548" lon="6.09413">
        <ele>600.20001220703</ele>
        <time>2021-05-23T08:51:38Z</time>
      </trkpt>
      <trkpt lat="43.62544" lon="6.09413">
        <ele>600.40002441406</ele>
        <time>2021-05-23T08:51:37Z</time>
      </trkpt>
      <trkpt lat="43.6254" lon="6.09412">
        <ele>600.59997558594</ele>
        <time>2021-05-23T08:51:36Z</time>
      </trkpt>
      <trkpt lat="43.62536" lon="6.09411">
        <ele>601</ele>
        <time>2021-05-23T08:51:35Z</time>
      </trkpt>
      <trkpt lat="43.62531" lon="6.0941">
        <ele>601.20001220703</ele>
        <time>2021-05-23T08:51:34Z</time>
      </trkpt>
      <trkpt lat="43.62527" lon="6.09408">
        <ele>601.40002441406</ele>
        <time>2021-05-23T08:51:33Z</time>
      </trkpt>
      <trkpt lat="43.62523" lon="6.09406">
        <ele>601.59997558594</ele>
        <time>2021-05-23T08:51:32Z</time>
      </trkpt>
      <trkpt lat="43.6252" lon="6.09405">
        <ele>601.59997558594</ele>
        <time>2021-05-23T08:51:31Z</time>
      </trkpt>
      <trkpt lat="43.62516" lon="6.09403">
        <ele>601.79998779297</ele>
        <time>2021-05-23T08:51:30Z</time>
      </trkpt>
      <trkpt lat="43.62513" lon="6.094">
        <ele>601.79998779297</ele>
        <time>2021-05-23T08:51:29Z</time>
      </trkpt>
      <trkpt lat="43.6251" lon="6.09398">
        <ele>601.79998779297</ele>
        <time>2021-05-23T08:51:28Z</time>
      </trkpt>
      <trkpt lat="43.62507" lon="6.09396">
        <ele>602</ele>
        <time>2021-05-23T08:51:27Z</time>
      </trkpt>
      <trkpt lat="43.62503" lon="6.09395">
        <ele>602</ele>
        <time>2021-05-23T08:51:26Z</time>
      </trkpt>
      <trkpt lat="43.625" lon="6.09394">
        <ele>602</ele>
        <time>2021-05-23T08:51:25Z</time>
      </trkpt>
      <trkpt lat="43.62497" lon="6.09393">
        <ele>601.79998779297</ele>
        <time>2021-05-23T08:51:24Z</time>
      </trkpt>
      <trkpt lat="43.62494" lon="6.09391">
        <ele>601.79998779297</ele>
        <time>2021-05-23T08:51:23Z</time>
      </trkpt>
      <trkpt lat="43.62492" lon="6.09389">
        <ele>601.79998779297</ele>
        <time>2021-05-23T08:51:22Z</time>
      </trkpt>
      <trkpt lat="43.62489" lon="6.09388">
        <ele>601.79998779297</ele>
        <time>2021-05-23T08:51:21Z</time>
      </trkpt>
      <trkpt lat="43.62486" lon="6.09386">
        <ele>601.79998779297</ele>
        <time>2021-05-23T08:51:20Z</time>
      </trkpt>
      <trkpt lat="43.62483" lon="6.09384">
        <ele>601.79998779297</ele>
        <time>2021-05-23T08:51:19Z</time>
      </trkpt>
      <trkpt lat="43.62481" lon="6.09383">
        <ele>601.40002441406</ele>
        <time>2021-05-23T08:51:18Z</time>
      </trkpt>
      <trkpt lat="43.62478" lon="6.09381">
        <ele>601.40002441406</ele>
        <time>2021-05-23T08:51:17Z</time>
      </trkpt>
      <trkpt lat="43.62475" lon="6.0938">
        <ele>601.20001220703</ele>
        <time>2021-05-23T08:51:16Z</time>
      </trkpt>
      <trkpt lat="43.62472" lon="6.09379">
        <ele>601</ele>
        <time>2021-05-23T08:51:15Z</time>
      </trkpt>
      <trkpt lat="43.62469" lon="6.09378">
        <ele>600.79998779297</ele>
        <time>2021-05-23T08:51:14Z</time>
      </trkpt>
      <trkpt lat="43.62466" lon="6.09377">
        <ele>600.59997558594</ele>
        <time>2021-05-23T08:51:13Z</time>
      </trkpt>
      <trkpt lat="43.62463" lon="6.09376">
        <ele>600.59997558594</ele>
        <time>2021-05-23T08:51:12Z</time>
      </trkpt>
      <trkpt lat="43.62461" lon="6.09375">
        <ele>600.59997558594</ele>
        <time>2021-05-23T08:51:11Z</time>
      </trkpt>
      <trkpt lat="43.62458" lon="6.09375">
        <ele>600.40002441406</ele>
        <time>2021-05-23T08:51:10Z</time>
      </trkpt>
      <trkpt lat="43.62456" lon="6.09375">
        <ele>600.20001220703</ele>
        <time>2021-05-23T08:51:09Z</time>
      </trkpt>
      <trkpt lat="43.62453" lon="6.09374">
        <ele>599.79998779297</ele>
        <time>2021-05-23T08:51:08Z</time>
      </trkpt>
      <trkpt lat="43.62449" lon="6.09374">
        <ele>599.59997558594</ele>
        <time>2021-05-23T08:51:07Z</time>
      </trkpt>
      <trkpt lat="43.62446" lon="6.09373">
        <ele>599.40002441406</ele>
        <time>2021-05-23T08:51:06Z</time>
      </trkpt>
      <trkpt lat="43.62442" lon="6.09373">
        <ele>599.20001220703</ele>
        <time>2021-05-23T08:51:05Z</time>
      </trkpt>
      <trkpt lat="43.62439" lon="6.09373">
        <ele>599</ele>
        <time>2021-05-23T08:51:04Z</time>
      </trkpt>
      <trkpt lat="43.62436" lon="6.09373">
        <ele>598.79998779297</ele>
        <time>2021-05-23T08:51:03Z</time>
      </trkpt>
      <trkpt lat="43.62433" lon="6.09373">
        <ele>598.59997558594</ele>
        <time>2021-05-23T08:51:02Z</time>
      </trkpt>
      <trkpt lat="43.6243" lon="6.09373">
        <ele>598.40002441406</ele>
        <time>2021-05-23T08:51:01Z</time>
      </trkpt>
      <trkpt lat="43.62427" lon="6.09373">
        <ele>598.20001220703</ele>
        <time>2021-05-23T08:51:00Z</time>
      </trkpt>
      <trkpt lat="43.62424" lon="6.09373">
        <ele>598</ele>
        <time>2021-05-23T08:50:59Z</time>
      </trkpt>
      <trkpt lat="43.62421" lon="6.09373">
        <ele>598</ele>
        <time>2021-05-23T08:50:58Z</time>
      </trkpt>
      <trkpt lat="43.62418" lon="6.09374">
        <ele>598</ele>
        <time>2021-05-23T08:50:57Z</time>
      </trkpt>
      <trkpt lat="43.62414" lon="6.09374">
        <ele>597.79998779297</ele>
        <time>2021-05-23T08:50:56Z</time>
      </trkpt>
      <trkpt lat="43.62411" lon="6.09374">
        <ele>597.40002441406</ele>
        <time>2021-05-23T08:50:55Z</time>
      </trkpt>
      <trkpt lat="43.62408" lon="6.09374">
        <ele>597.20001220703</ele>
        <time>2021-05-23T08:50:54Z</time>
      </trkpt>
      <trkpt lat="43.62404" lon="6.09374">
        <ele>597</ele>
        <time>2021-05-23T08:50:53Z</time>
      </trkpt>
      <trkpt lat="43.62401" lon="6.09374">
        <ele>596.59997558594</ele>
        <time>2021-05-23T08:50:52Z</time>
      </trkpt>
      <trkpt lat="43.62397" lon="6.09375">
        <ele>596</ele>
        <time>2021-05-23T08:50:51Z</time>
      </trkpt>
      <trkpt lat="43.62394" lon="6.09375">
        <ele>595.79998779297</ele>
        <time>2021-05-23T08:50:50Z</time>
      </trkpt>
      <trkpt lat="43.6239" lon="6.09376">
        <ele>595.59997558594</ele>
        <time>2021-05-23T08:50:49Z</time>
      </trkpt>
      <trkpt lat="43.62387" lon="6.09376">
        <ele>595.20001220703</ele>
        <time>2021-05-23T08:50:48Z</time>
      </trkpt>
      <trkpt lat="43.62384" lon="6.09376">
        <ele>595</ele>
        <time>2021-05-23T08:50:47Z</time>
      </trkpt>
      <trkpt lat="43.6238" lon="6.09376">
        <ele>594.40002441406</ele>
        <time>2021-05-23T08:50:46Z</time>
      </trkpt>
      <trkpt lat="43.62377" lon="6.09376">
        <ele>594.20001220703</ele>
        <time>2021-05-23T08:50:45Z</time>
      </trkpt>
      <trkpt lat="43.62374" lon="6.09377">
        <ele>594.20001220703</ele>
        <time>2021-05-23T08:50:44Z</time>
      </trkpt>
      <trkpt lat="43.6237" lon="6.09377">
        <ele>593.79998779297</ele>
        <time>2021-05-23T08:50:43Z</time>
      </trkpt>
      <trkpt lat="43.62367" lon="6.09377">
        <ele>593</ele>
        <time>2021-05-23T08:50:42Z</time>
      </trkpt>
      <trkpt lat="43.62364" lon="6.09378">
        <ele>592.59997558594</ele>
        <time>2021-05-23T08:50:41Z</time>
      </trkpt>
      <trkpt lat="43.6236" lon="6.09378">
        <ele>592.59997558594</ele>
        <time>2021-05-23T08:50:40Z</time>
      </trkpt>
      <trkpt lat="43.62357" lon="6.09378">
        <ele>592.40002441406</ele>
        <time>2021-05-23T08:50:39Z</time>
      </trkpt>
      <trkpt lat="43.62354" lon="6.09378">
        <ele>592</ele>
        <time>2021-05-23T08:50:38Z</time>
      </trkpt>
      <trkpt lat="43.62351" lon="6.09379">
        <ele>591.79998779297</ele>
        <time>2021-05-23T08:50:37Z</time>
      </trkpt>
      <trkpt lat="43.62347" lon="6.09379">
        <ele>591.40002441406</ele>
        <time>2021-05-23T08:50:36Z</time>
      </trkpt>
      <trkpt lat="43.62344" lon="6.0938">
        <ele>591.20001220703</ele>
        <time>2021-05-23T08:50:35Z</time>
      </trkpt>
      <trkpt lat="43.6234" lon="6.0938">
        <ele>591</ele>
        <time>2021-05-23T08:50:34Z</time>
      </trkpt>
      <trkpt lat="43.62336" lon="6.0938">
        <ele>590.79998779297</ele>
        <time>2021-05-23T08:50:33Z</time>
      </trkpt>
      <trkpt lat="43.62333" lon="6.0938">
        <ele>590.59997558594</ele>
        <time>2021-05-23T08:50:32Z</time>
      </trkpt>
      <trkpt lat="43.62329" lon="6.0938">
        <ele>590.20001220703</ele>
        <time>2021-05-23T08:50:31Z</time>
      </trkpt>
      <trkpt lat="43.62326" lon="6.0938">
        <ele>589.79998779297</ele>
        <time>2021-05-23T08:50:30Z</time>
      </trkpt>
      <trkpt lat="43.62323" lon="6.0938">
        <ele>589.20001220703</ele>
        <time>2021-05-23T08:50:29Z</time>
      </trkpt>
      <trkpt lat="43.6232" lon="6.0938">
        <ele>588.79998779297</ele>
        <time>2021-05-23T08:50:28Z</time>
      </trkpt>
      <trkpt lat="43.62317" lon="6.09379">
        <ele>588.40002441406</ele>
        <time>2021-05-23T08:50:27Z</time>
      </trkpt>
      <trkpt lat="43.62314" lon="6.09378">
        <ele>588.20001220703</ele>
        <time>2021-05-23T08:50:26Z</time>
      </trkpt>
      <trkpt lat="43.62311" lon="6.09378">
        <ele>588</ele>
        <time>2021-05-23T08:50:25Z</time>
      </trkpt>
      <trkpt lat="43.62308" lon="6.09378">
        <ele>588</ele>
        <time>2021-05-23T08:50:24Z</time>
      </trkpt>
      <trkpt lat="43.62305" lon="6.09379">
        <ele>588</ele>
        <time>2021-05-23T08:50:23Z</time>
      </trkpt>
      <trkpt lat="43.62302" lon="6.09381">
        <ele>587.79998779297</ele>
        <time>2021-05-23T08:50:22Z</time>
      </trkpt>
      <trkpt lat="43.62298" lon="6.09383">
        <ele>587.79998779297</ele>
        <time>2021-05-23T08:50:21Z</time>
      </trkpt>
      <trkpt lat="43.62296" lon="6.09385">
        <ele>587.59997558594</ele>
        <time>2021-05-23T08:50:20Z</time>
      </trkpt>
      <trkpt lat="43.62293" lon="6.09388">
        <ele>587.59997558594</ele>
        <time>2021-05-23T08:50:19Z</time>
      </trkpt>
      <trkpt lat="43.6229" lon="6.09391">
        <ele>587.40002441406</ele>
        <time>2021-05-23T08:50:18Z</time>
      </trkpt>
      <trkpt lat="43.62288" lon="6.09394">
        <ele>587.40002441406</ele>
        <time>2021-05-23T08:50:17Z</time>
      </trkpt>
      <trkpt lat="43.62285" lon="6.09397">
        <ele>587.20001220703</ele>
        <time>2021-05-23T08:50:16Z</time>
      </trkpt>
      <trkpt lat="43.62282" lon="6.094">
        <ele>587</ele>
        <time>2021-05-23T08:50:15Z</time>
      </trkpt>
      <trkpt lat="43.6228" lon="6.09403">
        <ele>587</ele>
        <time>2021-05-23T08:50:14Z</time>
      </trkpt>
      <trkpt lat="43.62277" lon="6.09406">
        <ele>586.79998779297</ele>
        <time>2021-05-23T08:50:13Z</time>
      </trkpt>
      <trkpt lat="43.62275" lon="6.09408">
        <ele>586.79998779297</ele>
        <time>2021-05-23T08:50:12Z</time>
      </trkpt>
      <trkpt lat="43.62273" lon="6.0941">
        <ele>586.40002441406</ele>
        <time>2021-05-23T08:50:11Z</time>
      </trkpt>
      <trkpt lat="43.6227" lon="6.09413">
        <ele>586.40002441406</ele>
        <time>2021-05-23T08:50:10Z</time>
      </trkpt>
      <trkpt lat="43.62267" lon="6.09415">
        <ele>586.40002441406</ele>
        <time>2021-05-23T08:50:09Z</time>
      </trkpt>
      <trkpt lat="43.62265" lon="6.09418">
        <ele>586.40002441406</ele>
        <time>2021-05-23T08:50:08Z</time>
      </trkpt>
      <trkpt lat="43.62262" lon="6.09421">
        <ele>586.40002441406</ele>
        <time>2021-05-23T08:50:07Z</time>
      </trkpt>
      <trkpt lat="43.62259" lon="6.09424">
        <ele>586.40002441406</ele>
        <time>2021-05-23T08:50:06Z</time>
      </trkpt>
      <trkpt lat="43.62257" lon="6.09427">
        <ele>586.20001220703</ele>
        <time>2021-05-23T08:50:05Z</time>
      </trkpt>
      <trkpt lat="43.62254" lon="6.09431">
        <ele>586.20001220703</ele>
        <time>2021-05-23T08:50:04Z</time>
      </trkpt>
      <trkpt lat="43.62251" lon="6.09434">
        <ele>585.59997558594</ele>
        <time>2021-05-23T08:50:03Z</time>
      </trkpt>
      <trkpt lat="43.62249" lon="6.09437">
        <ele>585.59997558594</ele>
        <time>2021-05-23T08:50:02Z</time>
      </trkpt>
      <trkpt lat="43.62246" lon="6.0944">
        <ele>585.40002441406</ele>
        <time>2021-05-23T08:50:01Z</time>
      </trkpt>
      <trkpt lat="43.62244" lon="6.09443">
        <ele>585.59997558594</ele>
        <time>2021-05-23T08:50:00Z</time>
      </trkpt>
      <trkpt lat="43.62241" lon="6.09447">
        <ele>585.40002441406</ele>
        <time>2021-05-23T08:49:59Z</time>
      </trkpt>
      <trkpt lat="43.62238" lon="6.0945">
        <ele>585.40002441406</ele>
        <time>2021-05-23T08:49:58Z</time>
      </trkpt>
      <trkpt lat="43.62236" lon="6.09453">
        <ele>585.20001220703</ele>
        <time>2021-05-23T08:49:57Z</time>
      </trkpt>
      <trkpt lat="43.62233" lon="6.09457">
        <ele>585.20001220703</ele>
        <time>2021-05-23T08:49:56Z</time>
      </trkpt>
      <trkpt lat="43.6223" lon="6.0946">
        <ele>585</ele>
        <time>2021-05-23T08:49:55Z</time>
      </trkpt>
      <trkpt lat="43.62228" lon="6.09463">
        <ele>584.59997558594</ele>
        <time>2021-05-23T08:49:54Z</time>
      </trkpt>
      <trkpt lat="43.62225" lon="6.09466">
        <ele>584.40002441406</ele>
        <time>2021-05-23T08:49:53Z</time>
      </trkpt>
      <trkpt lat="43.62222" lon="6.0947">
        <ele>584.40002441406</ele>
        <time>2021-05-23T08:49:52Z</time>
      </trkpt>
      <trkpt lat="43.62219" lon="6.09473">
        <ele>584.20001220703</ele>
        <time>2021-05-23T08:49:51Z</time>
      </trkpt>
      <trkpt lat="43.62217" lon="6.09476">
        <ele>584</ele>
        <time>2021-05-23T08:49:50Z</time>
      </trkpt>
      <trkpt lat="43.62214" lon="6.09479">
        <ele>583.79998779297</ele>
        <time>2021-05-23T08:49:49Z</time>
      </trkpt>
      <trkpt lat="43.62212" lon="6.09482">
        <ele>583.59997558594</ele>
        <time>2021-05-23T08:49:48Z</time>
      </trkpt>
      <trkpt lat="43.62209" lon="6.09485">
        <ele>583.40002441406</ele>
        <time>2021-05-23T08:49:47Z</time>
      </trkpt>
      <trkpt lat="43.62206" lon="6.09488">
        <ele>583.20001220703</ele>
        <time>2021-05-23T08:49:46Z</time>
      </trkpt>
      <trkpt lat="43.62204" lon="6.09491">
        <ele>583</ele>
        <time>2021-05-23T08:49:45Z</time>
      </trkpt>
      <trkpt lat="43.62201" lon="6.09493">
        <ele>582.59997558594</ele>
        <time>2021-05-23T08:49:44Z</time>
      </trkpt>
      <trkpt lat="43.62199" lon="6.09496">
        <ele>582.40002441406</ele>
        <time>2021-05-23T08:49:43Z</time>
      </trkpt>
      <trkpt lat="43.62196" lon="6.09498">
        <ele>582.20001220703</ele>
        <time>2021-05-23T08:49:42Z</time>
      </trkpt>
      <trkpt lat="43.62193" lon="6.09501">
        <ele>582</ele>
        <time>2021-05-23T08:49:41Z</time>
      </trkpt>
      <trkpt lat="43.6219" lon="6.09503">
        <ele>582.20001220703</ele>
        <time>2021-05-23T08:49:40Z</time>
      </trkpt>
      <trkpt lat="43.62187" lon="6.09506">
        <ele>582.40002441406</ele>
        <time>2021-05-23T08:49:39Z</time>
      </trkpt>
      <trkpt lat="43.62183" lon="6.09508">
        <ele>582.20001220703</ele>
        <time>2021-05-23T08:49:38Z</time>
      </trkpt>
      <trkpt lat="43.62181" lon="6.0951">
        <ele>582.20001220703</ele>
        <time>2021-05-23T08:49:37Z</time>
      </trkpt>
      <trkpt lat="43.62178" lon="6.09512">
        <ele>582.20001220703</ele>
        <time>2021-05-23T08:49:36Z</time>
      </trkpt>
      <trkpt lat="43.62175" lon="6.09514">
        <ele>582.40002441406</ele>
        <time>2021-05-23T08:49:35Z</time>
      </trkpt>
      <trkpt lat="43.62173" lon="6.09517">
        <ele>582.40002441406</ele>
        <time>2021-05-23T08:49:34Z</time>
      </trkpt>
      <trkpt lat="43.6217" lon="6.09519">
        <ele>582.40002441406</ele>
        <time>2021-05-23T08:49:33Z</time>
      </trkpt>
      <trkpt lat="43.62167" lon="6.09521">
        <ele>582.40002441406</ele>
        <time>2021-05-23T08:49:32Z</time>
      </trkpt>
      <trkpt lat="43.62165" lon="6.09524">
        <ele>582.59997558594</ele>
        <time>2021-05-23T08:49:31Z</time>
      </trkpt>
      <trkpt lat="43.62162" lon="6.09528">
        <ele>582.59997558594</ele>
        <time>2021-05-23T08:49:30Z</time>
      </trkpt>
      <trkpt lat="43.6216" lon="6.09531">
        <ele>582.59997558594</ele>
        <time>2021-05-23T08:49:29Z</time>
      </trkpt>
      <trkpt lat="43.62157" lon="6.09534">
        <ele>582.59997558594</ele>
        <time>2021-05-23T08:49:28Z</time>
      </trkpt>
      <trkpt lat="43.62155" lon="6.09537">
        <ele>582.40002441406</ele>
        <time>2021-05-23T08:49:27Z</time>
      </trkpt>
      <trkpt lat="43.62152" lon="6.0954">
        <ele>582.40002441406</ele>
        <time>2021-05-23T08:49:26Z</time>
      </trkpt>
      <trkpt lat="43.62149" lon="6.09543">
        <ele>582.40002441406</ele>
        <time>2021-05-23T08:49:25Z</time>
      </trkpt>
      <trkpt lat="43.62146" lon="6.09546">
        <ele>582.40002441406</ele>
        <time>2021-05-23T08:49:24Z</time>
      </trkpt>
      <trkpt lat="43.62144" lon="6.09549">
        <ele>582.40002441406</ele>
        <time>2021-05-23T08:49:23Z</time>
      </trkpt>
      <trkpt lat="43.62141" lon="6.09553">
        <ele>582.40002441406</ele>
        <time>2021-05-23T08:49:22Z</time>
      </trkpt>
      <trkpt lat="43.62138" lon="6.09556">
        <ele>582.40002441406</ele>
        <time>2021-05-23T08:49:21Z</time>
      </trkpt>
      <trkpt lat="43.62135" lon="6.09559">
        <ele>582.40002441406</ele>
        <time>2021-05-23T08:49:20Z</time>
      </trkpt>
      <trkpt lat="43.62132" lon="6.09562">
        <ele>582.20001220703</ele>
        <time>2021-05-23T08:49:19Z</time>
      </trkpt>
      <trkpt lat="43.62129" lon="6.09565">
        <ele>582.20001220703</ele>
        <time>2021-05-23T08:49:18Z</time>
      </trkpt>
      <trkpt lat="43.62126" lon="6.09567">
        <ele>582.20001220703</ele>
        <time>2021-05-23T08:49:17Z</time>
      </trkpt>
      <trkpt lat="43.62124" lon="6.0957">
        <ele>582.20001220703</ele>
        <time>2021-05-23T08:49:16Z</time>
      </trkpt>
      <trkpt lat="43.62121" lon="6.09573">
        <ele>582.40002441406</ele>
        <time>2021-05-23T08:49:15Z</time>
      </trkpt>
      <trkpt lat="43.62118" lon="6.09576">
        <ele>582.40002441406</ele>
        <time>2021-05-23T08:49:14Z</time>
      </trkpt>
      <trkpt lat="43.62115" lon="6.09579">
        <ele>582.40002441406</ele>
        <time>2021-05-23T08:49:13Z</time>
      </trkpt>
      <trkpt lat="43.62112" lon="6.09582">
        <ele>582.40002441406</ele>
        <time>2021-05-23T08:49:12Z</time>
      </trkpt>
      <trkpt lat="43.6211" lon="6.09585">
        <ele>582.40002441406</ele>
        <time>2021-05-23T08:49:11Z</time>
      </trkpt>
      <trkpt lat="43.62107" lon="6.09589">
        <ele>582.40002441406</ele>
        <time>2021-05-23T08:49:10Z</time>
      </trkpt>
      <trkpt lat="43.62105" lon="6.09592">
        <ele>582.40002441406</ele>
        <time>2021-05-23T08:49:09Z</time>
      </trkpt>
      <trkpt lat="43.62102" lon="6.09594">
        <ele>582.59997558594</ele>
        <time>2021-05-23T08:49:08Z</time>
      </trkpt>
      <trkpt lat="43.62099" lon="6.09598">
        <ele>582.59997558594</ele>
        <time>2021-05-23T08:49:07Z</time>
      </trkpt>
      <trkpt lat="43.62097" lon="6.09601">
        <ele>582.59997558594</ele>
        <time>2021-05-23T08:49:06Z</time>
      </trkpt>
      <trkpt lat="43.62094" lon="6.09604">
        <ele>582.79998779297</ele>
        <time>2021-05-23T08:49:05Z</time>
      </trkpt>
      <trkpt lat="43.62092" lon="6.09608">
        <ele>582.40002441406</ele>
        <time>2021-05-23T08:49:04Z</time>
      </trkpt>
      <trkpt lat="43.62089" lon="6.09612">
        <ele>582.40002441406</ele>
        <time>2021-05-23T08:49:03Z</time>
      </trkpt>
      <trkpt lat="43.62088" lon="6.09616">
        <ele>582.59997558594</ele>
        <time>2021-05-23T08:49:02Z</time>
      </trkpt>
      <trkpt lat="43.62086" lon="6.09621">
        <ele>582.59997558594</ele>
        <time>2021-05-23T08:49:01Z</time>
      </trkpt>
      <trkpt lat="43.62084" lon="6.09625">
        <ele>582.59997558594</ele>
        <time>2021-05-23T08:49:00Z</time>
      </trkpt>
      <trkpt lat="43.62082" lon="6.09629">
        <ele>582.79998779297</ele>
        <time>2021-05-23T08:48:59Z</time>
      </trkpt>
      <trkpt lat="43.6208" lon="6.09632">
        <ele>582.79998779297</ele>
        <time>2021-05-23T08:48:58Z</time>
      </trkpt>
      <trkpt lat="43.62078" lon="6.09636">
        <ele>582.79998779297</ele>
        <time>2021-05-23T08:48:57Z</time>
      </trkpt>
      <trkpt lat="43.62077" lon="6.09639">
        <ele>582.79998779297</ele>
        <time>2021-05-23T08:48:56Z</time>
      </trkpt>
      <trkpt lat="43.62076" lon="6.09642">
        <ele>582.79998779297</ele>
        <time>2021-05-23T08:48:55Z</time>
      </trkpt>
      <trkpt lat="43.62074" lon="6.09645">
        <ele>582.79998779297</ele>
        <time>2021-05-23T08:48:54Z</time>
      </trkpt>
      <trkpt lat="43.62072" lon="6.09647">
        <ele>583</ele>
        <time>2021-05-23T08:48:53Z</time>
      </trkpt>
      <trkpt lat="43.62069" lon="6.09649">
        <ele>583</ele>
        <time>2021-05-23T08:48:52Z</time>
      </trkpt>
      <trkpt lat="43.62067" lon="6.09653">
        <ele>582.79998779297</ele>
        <time>2021-05-23T08:48:51Z</time>
      </trkpt>
      <trkpt lat="43.62066" lon="6.09657">
        <ele>582.59997558594</ele>
        <time>2021-05-23T08:48:50Z</time>
      </trkpt>
      <trkpt lat="43.62065" lon="6.09661">
        <ele>582.59997558594</ele>
        <time>2021-05-23T08:48:49Z</time>
      </trkpt>
      <trkpt lat="43.62063" lon="6.09664">
        <ele>582.59997558594</ele>
        <time>2021-05-23T08:48:48Z</time>
      </trkpt>
      <trkpt lat="43.62061" lon="6.09667">
        <ele>582.59997558594</ele>
        <time>2021-05-23T08:48:47Z</time>
      </trkpt>
      <trkpt lat="43.62059" lon="6.09669">
        <ele>582.79998779297</ele>
        <time>2021-05-23T08:48:46Z</time>
      </trkpt>
      <trkpt lat="43.62057" lon="6.09671">
        <ele>582.79998779297</ele>
        <time>2021-05-23T08:48:45Z</time>
      </trkpt>
      <trkpt lat="43.62056" lon="6.09674">
        <ele>582.79998779297</ele>
        <time>2021-05-23T08:48:44Z</time>
      </trkpt>
      <trkpt lat="43.62054" lon="6.09677">
        <ele>582.79998779297</ele>
        <time>2021-05-23T08:48:43Z</time>
      </trkpt>
      <trkpt lat="43.62053" lon="6.0968">
        <ele>582.79998779297</ele>
        <time>2021-05-23T08:48:42Z</time>
      </trkpt>
      <trkpt lat="43.62052" lon="6.09683">
        <ele>582.59997558594</ele>
        <time>2021-05-23T08:48:41Z</time>
      </trkpt>
      <trkpt lat="43.62051" lon="6.09685">
        <ele>582.59997558594</ele>
        <time>2021-05-23T08:48:40Z</time>
      </trkpt>
      <trkpt lat="43.6205" lon="6.09688">
        <ele>582.59997558594</ele>
        <time>2021-05-23T08:48:39Z</time>
      </trkpt>
      <trkpt lat="43.62049" lon="6.0969">
        <ele>582.59997558594</ele>
        <time>2021-05-23T08:48:38Z</time>
      </trkpt>
      <trkpt lat="43.62047" lon="6.09691">
        <ele>582.59997558594</ele>
        <time>2021-05-23T08:48:37Z</time>
      </trkpt>
      <trkpt lat="43.62045" lon="6.09693">
        <ele>582.40002441406</ele>
        <time>2021-05-23T08:48:36Z</time>
      </trkpt>
      <trkpt lat="43.62044" lon="6.09695">
        <ele>582.40002441406</ele>
        <time>2021-05-23T08:48:35Z</time>
      </trkpt>
      <trkpt lat="43.62043" lon="6.09698">
        <ele>582.20001220703</ele>
        <time>2021-05-23T08:48:34Z</time>
      </trkpt>
      <trkpt lat="43.62042" lon="6.09701">
        <ele>582.20001220703</ele>
        <time>2021-05-23T08:48:33Z</time>
      </trkpt>
      <trkpt lat="43.62041" lon="6.09704">
        <ele>582.40002441406</ele>
        <time>2021-05-23T08:48:32Z</time>
      </trkpt>
      <trkpt lat="43.62039" lon="6.09707">
        <ele>582.40002441406</ele>
        <time>2021-05-23T08:48:31Z</time>
      </trkpt>
      <trkpt lat="43.62038" lon="6.0971">
        <ele>582.40002441406</ele>
        <time>2021-05-23T08:48:30Z</time>
      </trkpt>
      <trkpt lat="43.62036" lon="6.09713">
        <ele>582.40002441406</ele>
        <time>2021-05-23T08:48:29Z</time>
      </trkpt>
      <trkpt lat="43.62035" lon="6.09716">
        <ele>582.40002441406</ele>
        <time>2021-05-23T08:48:28Z</time>
      </trkpt>
      <trkpt lat="43.62033" lon="6.09719">
        <ele>582.40002441406</ele>
        <time>2021-05-23T08:48:27Z</time>
      </trkpt>
      <trkpt lat="43.62031" lon="6.09721">
        <ele>582.40002441406</ele>
        <time>2021-05-23T08:48:26Z</time>
      </trkpt>
      <trkpt lat="43.6203" lon="6.09723">
        <ele>582.40002441406</ele>
        <time>2021-05-23T08:48:25Z</time>
      </trkpt>
      <trkpt lat="43.62028" lon="6.09726">
        <ele>582.20001220703</ele>
        <time>2021-05-23T08:48:24Z</time>
      </trkpt>
      <trkpt lat="43.62028" lon="6.09729">
        <ele>582.20001220703</ele>
        <time>2021-05-23T08:48:23Z</time>
      </trkpt>
      <trkpt lat="43.62027" lon="6.09731">
        <ele>582.40002441406</ele>
        <time>2021-05-23T08:48:22Z</time>
      </trkpt>
      <trkpt lat="43.62026" lon="6.09734">
        <ele>582.40002441406</ele>
        <time>2021-05-23T08:48:21Z</time>
      </trkpt>
      <trkpt lat="43.62024" lon="6.09737">
        <ele>582.59997558594</ele>
        <time>2021-05-23T08:48:20Z</time>
      </trkpt>
      <trkpt lat="43.62022" lon="6.0974">
        <ele>582.40002441406</ele>
        <time>2021-05-23T08:48:19Z</time>
      </trkpt>
      <trkpt lat="43.62021" lon="6.09743">
        <ele>582.59997558594</ele>
        <time>2021-05-23T08:48:18Z</time>
      </trkpt>
      <trkpt lat="43.6202" lon="6.09746">
        <ele>582.79998779297</ele>
        <time>2021-05-23T08:48:17Z</time>
      </trkpt>
      <trkpt lat="43.62019" lon="6.09749">
        <ele>583</ele>
        <time>2021-05-23T08:48:16Z</time>
      </trkpt>
      <trkpt lat="43.62018" lon="6.09752">
        <ele>583.20001220703</ele>
        <time>2021-05-23T08:48:15Z</time>
      </trkpt>
      <trkpt lat="43.62018" lon="6.09754">
        <ele>583.20001220703</ele>
        <time>2021-05-23T08:48:14Z</time>
      </trkpt>
      <trkpt lat="43.62018" lon="6.09757">
        <ele>583.40002441406</ele>
        <time>2021-05-23T08:48:13Z</time>
      </trkpt>
      <trkpt lat="43.62018" lon="6.0976">
        <ele>583.40002441406</ele>
        <time>2021-05-23T08:48:12Z</time>
      </trkpt>
      <trkpt lat="43.62019" lon="6.09763">
        <ele>583.40002441406</ele>
        <time>2021-05-23T08:48:11Z</time>
      </trkpt>
      <trkpt lat="43.62019" lon="6.09765">
        <ele>583.20001220703</ele>
        <time>2021-05-23T08:48:10Z</time>
      </trkpt>
      <trkpt lat="43.62018" lon="6.09767">
        <ele>583</ele>
        <time>2021-05-23T08:48:09Z</time>
      </trkpt>
      <trkpt lat="43.62018" lon="6.09769">
        <ele>583</ele>
        <time>2021-05-23T08:48:08Z</time>
      </trkpt>
      <trkpt lat="43.62017" lon="6.09771">
        <ele>582.79998779297</ele>
        <time>2021-05-23T08:48:07Z</time>
      </trkpt>
      <trkpt lat="43.62016" lon="6.09773">
        <ele>582.59997558594</ele>
        <time>2021-05-23T08:48:06Z</time>
      </trkpt>
      <trkpt lat="43.62014" lon="6.09774">
        <ele>582.20001220703</ele>
        <time>2021-05-23T08:48:05Z</time>
      </trkpt>
      <trkpt lat="43.62011" lon="6.09775">
        <ele>582</ele>
        <time>2021-05-23T08:48:04Z</time>
      </trkpt>
      <trkpt lat="43.62009" lon="6.09776">
        <ele>581.40002441406</ele>
        <time>2021-05-23T08:48:03Z</time>
      </trkpt>
      <trkpt lat="43.62006" lon="6.09778">
        <ele>581</ele>
        <time>2021-05-23T08:48:02Z</time>
      </trkpt>
      <trkpt lat="43.62002" lon="6.09778">
        <ele>580.79998779297</ele>
        <time>2021-05-23T08:48:01Z</time>
      </trkpt>
      <trkpt lat="43.61999" lon="6.09778">
        <ele>580.59997558594</ele>
        <time>2021-05-23T08:48:00Z</time>
      </trkpt>
      <trkpt lat="43.61996" lon="6.09778">
        <ele>580.40002441406</ele>
        <time>2021-05-23T08:47:59Z</time>
      </trkpt>
      <trkpt lat="43.61993" lon="6.09779">
        <ele>580.20001220703</ele>
        <time>2021-05-23T08:47:58Z</time>
      </trkpt>
      <trkpt lat="43.6199" lon="6.09779">
        <ele>579.79998779297</ele>
        <time>2021-05-23T08:47:57Z</time>
      </trkpt>
      <trkpt lat="43.61987" lon="6.0978">
        <ele>579.40002441406</ele>
        <time>2021-05-23T08:47:56Z</time>
      </trkpt>
      <trkpt lat="43.61984" lon="6.0978">
        <ele>579</ele>
        <time>2021-05-23T08:47:55Z</time>
      </trkpt>
      <trkpt lat="43.61981" lon="6.09779">
        <ele>578.59997558594</ele>
        <time>2021-05-23T08:47:54Z</time>
      </trkpt>
      <trkpt lat="43.61978" lon="6.09778">
        <ele>578.20001220703</ele>
        <time>2021-05-23T08:47:53Z</time>
      </trkpt>
      <trkpt lat="43.61975" lon="6.09778">
        <ele>577.79998779297</ele>
        <time>2021-05-23T08:47:52Z</time>
      </trkpt>
      <trkpt lat="43.61971" lon="6.09779">
        <ele>577.40002441406</ele>
        <time>2021-05-23T08:47:51Z</time>
      </trkpt>
      <trkpt lat="43.61969" lon="6.09781">
        <ele>577</ele>
        <time>2021-05-23T08:47:50Z</time>
      </trkpt>
      <trkpt lat="43.61966" lon="6.09783">
        <ele>576.79998779297</ele>
        <time>2021-05-23T08:47:49Z</time>
      </trkpt>
      <trkpt lat="43.61964" lon="6.09785">
        <ele>576.20001220703</ele>
        <time>2021-05-23T08:47:48Z</time>
      </trkpt>
      <trkpt lat="43.61961" lon="6.09787">
        <ele>575.79998779297</ele>
        <time>2021-05-23T08:47:47Z</time>
      </trkpt>
      <trkpt lat="43.61958" lon="6.09789">
        <ele>575.40002441406</ele>
        <time>2021-05-23T08:47:46Z</time>
      </trkpt>
      <trkpt lat="43.61956" lon="6.09791">
        <ele>575.20001220703</ele>
        <time>2021-05-23T08:47:45Z</time>
      </trkpt>
      <trkpt lat="43.61953" lon="6.09792">
        <ele>574.79998779297</ele>
        <time>2021-05-23T08:47:44Z</time>
      </trkpt>
      <trkpt lat="43.6195" lon="6.09792">
        <ele>574.59997558594</ele>
        <time>2021-05-23T08:47:43Z</time>
      </trkpt>
      <trkpt lat="43.61947" lon="6.09791">
        <ele>574.20001220703</ele>
        <time>2021-05-23T08:47:42Z</time>
      </trkpt>
      <trkpt lat="43.61945" lon="6.09789">
        <ele>573.79998779297</ele>
        <time>2021-05-23T08:47:41Z</time>
      </trkpt>
      <trkpt lat="43.61942" lon="6.09789">
        <ele>573.40002441406</ele>
        <time>2021-05-23T08:47:40Z</time>
      </trkpt>
      <trkpt lat="43.6194" lon="6.09787">
        <ele>573.20001220703</ele>
        <time>2021-05-23T08:47:39Z</time>
      </trkpt>
      <trkpt lat="43.61937" lon="6.09786">
        <ele>573.20001220703</ele>
        <time>2021-05-23T08:47:38Z</time>
      </trkpt>
      <trkpt lat="43.61935" lon="6.09783">
        <ele>572.79998779297</ele>
        <time>2021-05-23T08:47:37Z</time>
      </trkpt>
      <trkpt lat="43.61933" lon="6.09781">
        <ele>572.59997558594</ele>
        <time>2021-05-23T08:47:36Z</time>
      </trkpt>
      <trkpt lat="43.61931" lon="6.0978">
        <ele>572</ele>
        <time>2021-05-23T08:47:35Z</time>
      </trkpt>
      <trkpt lat="43.61929" lon="6.09779">
        <ele>571.59997558594</ele>
        <time>2021-05-23T08:47:34Z</time>
      </trkpt>
      <trkpt lat="43.61926" lon="6.09779">
        <ele>571</ele>
        <time>2021-05-23T08:47:33Z</time>
      </trkpt>
      <trkpt lat="43.61923" lon="6.09778">
        <ele>570.40002441406</ele>
        <time>2021-05-23T08:47:32Z</time>
      </trkpt>
      <trkpt lat="43.61921" lon="6.09778">
        <ele>570.20001220703</ele>
        <time>2021-05-23T08:47:31Z</time>
      </trkpt>
      <trkpt lat="43.61917" lon="6.09779">
        <ele>570</ele>
        <time>2021-05-23T08:47:30Z</time>
      </trkpt>
      <trkpt lat="43.61914" lon="6.09779">
        <ele>569.59997558594</ele>
        <time>2021-05-23T08:47:29Z</time>
      </trkpt>
      <trkpt lat="43.6191" lon="6.09779">
        <ele>569.59997558594</ele>
        <time>2021-05-23T08:47:28Z</time>
      </trkpt>
      <trkpt lat="43.61908" lon="6.09777">
        <ele>569.40002441406</ele>
        <time>2021-05-23T08:47:27Z</time>
      </trkpt>
      <trkpt lat="43.61905" lon="6.09775">
        <ele>569.20001220703</ele>
        <time>2021-05-23T08:47:26Z</time>
      </trkpt>
      <trkpt lat="43.61903" lon="6.09775">
        <ele>568.79998779297</ele>
        <time>2021-05-23T08:47:25Z</time>
      </trkpt>
      <trkpt lat="43.619" lon="6.09774">
        <ele>568.40002441406</ele>
        <time>2021-05-23T08:47:24Z</time>
      </trkpt>
      <trkpt lat="43.61897" lon="6.09773">
        <ele>568.20001220703</ele>
        <time>2021-05-23T08:47:23Z</time>
      </trkpt>
      <trkpt lat="43.61895" lon="6.09772">
        <ele>567.79998779297</ele>
        <time>2021-05-23T08:47:22Z</time>
      </trkpt>
      <trkpt lat="43.61892" lon="6.09771">
        <ele>567.59997558594</ele>
        <time>2021-05-23T08:47:21Z</time>
      </trkpt>
      <trkpt lat="43.61889" lon="6.0977">
        <ele>567.59997558594</ele>
        <time>2021-05-23T08:47:20Z</time>
      </trkpt>
      <trkpt lat="43.61887" lon="6.0977">
        <ele>567.40002441406</ele>
        <time>2021-05-23T08:47:19Z</time>
      </trkpt>
      <trkpt lat="43.61884" lon="6.0977">
        <ele>567.40002441406</ele>
        <time>2021-05-23T08:47:18Z</time>
      </trkpt>
      <trkpt lat="43.61882" lon="6.09771">
        <ele>567.40002441406</ele>
        <time>2021-05-23T08:47:17Z</time>
      </trkpt>
      <trkpt lat="43.61879" lon="6.09771">
        <ele>567.40002441406</ele>
        <time>2021-05-23T08:47:16Z</time>
      </trkpt>
      <trkpt lat="43.61876" lon="6.09772">
        <ele>567.20001220703</ele>
        <time>2021-05-23T08:47:15Z</time>
      </trkpt>
      <trkpt lat="43.61873" lon="6.09774">
        <ele>566.79998779297</ele>
        <time>2021-05-23T08:47:14Z</time>
      </trkpt>
      <trkpt lat="43.6187" lon="6.09775">
        <ele>566.59997558594</ele>
        <time>2021-05-23T08:47:13Z</time>
      </trkpt>
      <trkpt lat="43.61867" lon="6.09777">
        <ele>566.40002441406</ele>
        <time>2021-05-23T08:47:12Z</time>
      </trkpt>
      <trkpt lat="43.61864" lon="6.09778">
        <ele>566.40002441406</ele>
        <time>2021-05-23T08:47:11Z</time>
      </trkpt>
      <trkpt lat="43.61861" lon="6.0978">
        <ele>566.20001220703</ele>
        <time>2021-05-23T08:47:10Z</time>
      </trkpt>
      <trkpt lat="43.61858" lon="6.09781">
        <ele>566.20001220703</ele>
        <time>2021-05-23T08:47:09Z</time>
      </trkpt>
      <trkpt lat="43.61855" lon="6.09782">
        <ele>566</ele>
        <time>2021-05-23T08:47:08Z</time>
      </trkpt>
      <trkpt lat="43.61853" lon="6.09783">
        <ele>566</ele>
        <time>2021-05-23T08:47:07Z</time>
      </trkpt>
      <trkpt lat="43.6185" lon="6.09784">
        <ele>565.79998779297</ele>
        <time>2021-05-23T08:47:06Z</time>
      </trkpt>
      <trkpt lat="43.61847" lon="6.09786">
        <ele>565.79998779297</ele>
        <time>2021-05-23T08:47:05Z</time>
      </trkpt>
      <trkpt lat="43.61844" lon="6.09787">
        <ele>565.59997558594</ele>
        <time>2021-05-23T08:47:04Z</time>
      </trkpt>
      <trkpt lat="43.61842" lon="6.09788">
        <ele>565.59997558594</ele>
        <time>2021-05-23T08:47:03Z</time>
      </trkpt>
      <trkpt lat="43.61838" lon="6.09788">
        <ele>565.40002441406</ele>
        <time>2021-05-23T08:47:02Z</time>
      </trkpt>
      <trkpt lat="43.61836" lon="6.09789">
        <ele>565.20001220703</ele>
        <time>2021-05-23T08:47:01Z</time>
      </trkpt>
      <trkpt lat="43.61833" lon="6.0979">
        <ele>565</ele>
        <time>2021-05-23T08:47:00Z</time>
      </trkpt>
      <trkpt lat="43.6183" lon="6.09791">
        <ele>565</ele>
        <time>2021-05-23T08:46:59Z</time>
      </trkpt>
      <trkpt lat="43.61827" lon="6.09793">
        <ele>564.59997558594</ele>
        <time>2021-05-23T08:46:58Z</time>
      </trkpt>
      <trkpt lat="43.61824" lon="6.09793">
        <ele>564.40002441406</ele>
        <time>2021-05-23T08:46:57Z</time>
      </trkpt>
      <trkpt lat="43.61822" lon="6.09793">
        <ele>564.40002441406</ele>
        <time>2021-05-23T08:46:56Z</time>
      </trkpt>
      <trkpt lat="43.61819" lon="6.09793">
        <ele>564.20001220703</ele>
        <time>2021-05-23T08:46:55Z</time>
      </trkpt>
      <trkpt lat="43.61817" lon="6.09793">
        <ele>564.20001220703</ele>
        <time>2021-05-23T08:46:54Z</time>
      </trkpt>
      <trkpt lat="43.61813" lon="6.09793">
        <ele>564.20001220703</ele>
        <time>2021-05-23T08:46:53Z</time>
      </trkpt>
      <trkpt lat="43.6181" lon="6.09793">
        <ele>564.20001220703</ele>
        <time>2021-05-23T08:46:52Z</time>
      </trkpt>
      <trkpt lat="43.61807" lon="6.09793">
        <ele>564.20001220703</ele>
        <time>2021-05-23T08:46:51Z</time>
      </trkpt>
      <trkpt lat="43.61804" lon="6.09792">
        <ele>564</ele>
        <time>2021-05-23T08:46:50Z</time>
      </trkpt>
      <trkpt lat="43.61801" lon="6.09791">
        <ele>563.79998779297</ele>
        <time>2021-05-23T08:46:49Z</time>
      </trkpt>
      <trkpt lat="43.61799" lon="6.0979">
        <ele>563.40002441406</ele>
        <time>2021-05-23T08:46:48Z</time>
      </trkpt>
      <trkpt lat="43.61796" lon="6.09789">
        <ele>563</ele>
        <time>2021-05-23T08:46:47Z</time>
      </trkpt>
      <trkpt lat="43.61794" lon="6.09788">
        <ele>563</ele>
        <time>2021-05-23T08:46:46Z</time>
      </trkpt>
      <trkpt lat="43.61791" lon="6.09787">
        <ele>562.59997558594</ele>
        <time>2021-05-23T08:46:45Z</time>
      </trkpt>
      <trkpt lat="43.6179" lon="6.09785">
        <ele>562.40002441406</ele>
        <time>2021-05-23T08:46:44Z</time>
      </trkpt>
      <trkpt lat="43.61788" lon="6.09784">
        <ele>562.20001220703</ele>
        <time>2021-05-23T08:46:43Z</time>
      </trkpt>
      <trkpt lat="43.61786" lon="6.09783">
        <ele>562.20001220703</ele>
        <time>2021-05-23T08:46:42Z</time>
      </trkpt>
      <trkpt lat="43.61783" lon="6.09781">
        <ele>562.20001220703</ele>
        <time>2021-05-23T08:46:41Z</time>
      </trkpt>
      <trkpt lat="43.61781" lon="6.0978">
        <ele>562.20001220703</ele>
        <time>2021-05-23T08:46:40Z</time>
      </trkpt>
      <trkpt lat="43.61779" lon="6.09779">
        <ele>561.79998779297</ele>
        <time>2021-05-23T08:46:39Z</time>
      </trkpt>
      <trkpt lat="43.61777" lon="6.09778">
        <ele>561.79998779297</ele>
        <time>2021-05-23T08:46:38Z</time>
      </trkpt>
      <trkpt lat="43.61774" lon="6.09777">
        <ele>561.79998779297</ele>
        <time>2021-05-23T08:46:37Z</time>
      </trkpt>
      <trkpt lat="43.61772" lon="6.09775">
        <ele>561.79998779297</ele>
        <time>2021-05-23T08:46:36Z</time>
      </trkpt>
      <trkpt lat="43.61769" lon="6.09774">
        <ele>561.59997558594</ele>
        <time>2021-05-23T08:46:35Z</time>
      </trkpt>
      <trkpt lat="43.61767" lon="6.09773">
        <ele>561.40002441406</ele>
        <time>2021-05-23T08:46:34Z</time>
      </trkpt>
      <trkpt lat="43.61764" lon="6.09772">
        <ele>561.40002441406</ele>
        <time>2021-05-23T08:46:33Z</time>
      </trkpt>
      <trkpt lat="43.61761" lon="6.09771">
        <ele>561.40002441406</ele>
        <time>2021-05-23T08:46:32Z</time>
      </trkpt>
      <trkpt lat="43.61758" lon="6.09771">
        <ele>561.40002441406</ele>
        <time>2021-05-23T08:46:31Z</time>
      </trkpt>
      <trkpt lat="43.61755" lon="6.09771">
        <ele>561.40002441406</ele>
        <time>2021-05-23T08:46:30Z</time>
      </trkpt>
      <trkpt lat="43.61752" lon="6.09772">
        <ele>561.40002441406</ele>
        <time>2021-05-23T08:46:29Z</time>
      </trkpt>
      <trkpt lat="43.61749" lon="6.09773">
        <ele>561.40002441406</ele>
        <time>2021-05-23T08:46:28Z</time>
      </trkpt>
      <trkpt lat="43.61746" lon="6.09774">
        <ele>561.40002441406</ele>
        <time>2021-05-23T08:46:27Z</time>
      </trkpt>
      <trkpt lat="43.61744" lon="6.09774">
        <ele>561</ele>
        <time>2021-05-23T08:46:26Z</time>
      </trkpt>
      <trkpt lat="43.61741" lon="6.09774">
        <ele>560.79998779297</ele>
        <time>2021-05-23T08:46:25Z</time>
      </trkpt>
      <trkpt lat="43.61739" lon="6.09772">
        <ele>560.59997558594</ele>
        <time>2021-05-23T08:46:24Z</time>
      </trkpt>
      <trkpt lat="43.61737" lon="6.0977">
        <ele>560.40002441406</ele>
        <time>2021-05-23T08:46:23Z</time>
      </trkpt>
      <trkpt lat="43.61736" lon="6.09767">
        <ele>560.20001220703</ele>
        <time>2021-05-23T08:46:22Z</time>
      </trkpt>
      <trkpt lat="43.61734" lon="6.09764">
        <ele>560.20001220703</ele>
        <time>2021-05-23T08:46:21Z</time>
      </trkpt>
      <trkpt lat="43.61732" lon="6.09761">
        <ele>560.20001220703</ele>
        <time>2021-05-23T08:46:20Z</time>
      </trkpt>
      <trkpt lat="43.6173" lon="6.09758">
        <ele>560.20001220703</ele>
        <time>2021-05-23T08:46:19Z</time>
      </trkpt>
      <trkpt lat="43.61729" lon="6.09756">
        <ele>560.20001220703</ele>
        <time>2021-05-23T08:46:18Z</time>
      </trkpt>
      <trkpt lat="43.61727" lon="6.09753">
        <ele>560</ele>
        <time>2021-05-23T08:46:17Z</time>
      </trkpt>
      <trkpt lat="43.61725" lon="6.09751">
        <ele>559.79998779297</ele>
        <time>2021-05-23T08:46:16Z</time>
      </trkpt>
      <trkpt lat="43.61722" lon="6.09749">
        <ele>559.59997558594</ele>
        <time>2021-05-23T08:46:15Z</time>
      </trkpt>
      <trkpt lat="43.6172" lon="6.09748">
        <ele>559.59997558594</ele>
        <time>2021-05-23T08:46:14Z</time>
      </trkpt>
      <trkpt lat="43.61717" lon="6.09749">
        <ele>559.59997558594</ele>
        <time>2021-05-23T08:46:13Z</time>
      </trkpt>
      <trkpt lat="43.61714" lon="6.0975">
        <ele>559.59997558594</ele>
        <time>2021-05-23T08:46:12Z</time>
      </trkpt>
      <trkpt lat="43.61711" lon="6.09752">
        <ele>559.40002441406</ele>
        <time>2021-05-23T08:46:11Z</time>
      </trkpt>
      <trkpt lat="43.61708" lon="6.09753">
        <ele>559.20001220703</ele>
        <time>2021-05-23T08:46:10Z</time>
      </trkpt>
      <trkpt lat="43.61706" lon="6.09754">
        <ele>559.20001220703</ele>
        <time>2021-05-23T08:46:09Z</time>
      </trkpt>
      <trkpt lat="43.61703" lon="6.09755">
        <ele>559.20001220703</ele>
        <time>2021-05-23T08:46:08Z</time>
      </trkpt>
      <trkpt lat="43.617" lon="6.09755">
        <ele>559.20001220703</ele>
        <time>2021-05-23T08:46:07Z</time>
      </trkpt>
      <trkpt lat="43.61698" lon="6.09755">
        <ele>559</ele>
        <time>2021-05-23T08:46:06Z</time>
      </trkpt>
      <trkpt lat="43.61695" lon="6.09754">
        <ele>559</ele>
        <time>2021-05-23T08:46:05Z</time>
      </trkpt>
      <trkpt lat="43.61692" lon="6.09755">
        <ele>558.79998779297</ele>
        <time>2021-05-23T08:46:04Z</time>
      </trkpt>
      <trkpt lat="43.61689" lon="6.09755">
        <ele>558.59997558594</ele>
        <time>2021-05-23T08:46:03Z</time>
      </trkpt>
      <trkpt lat="43.61686" lon="6.09756">
        <ele>558.59997558594</ele>
        <time>2021-05-23T08:46:02Z</time>
      </trkpt>
      <trkpt lat="43.61682" lon="6.09758">
        <ele>558.59997558594</ele>
        <time>2021-05-23T08:46:01Z</time>
      </trkpt>
      <trkpt lat="43.6168" lon="6.0976">
        <ele>558.59997558594</ele>
        <time>2021-05-23T08:46:00Z</time>
      </trkpt>
      <trkpt lat="43.61677" lon="6.09761">
        <ele>558.40002441406</ele>
        <time>2021-05-23T08:45:59Z</time>
      </trkpt>
      <trkpt lat="43.61673" lon="6.09762">
        <ele>558.40002441406</ele>
        <time>2021-05-23T08:45:58Z</time>
      </trkpt>
      <trkpt lat="43.6167" lon="6.09763">
        <ele>558.40002441406</ele>
        <time>2021-05-23T08:45:57Z</time>
      </trkpt>
      <trkpt lat="43.61667" lon="6.09764">
        <ele>558.20001220703</ele>
        <time>2021-05-23T08:45:56Z</time>
      </trkpt>
      <trkpt lat="43.61664" lon="6.09764">
        <ele>558.20001220703</ele>
        <time>2021-05-23T08:45:55Z</time>
      </trkpt>
      <trkpt lat="43.61661" lon="6.09765">
        <ele>558.20001220703</ele>
        <time>2021-05-23T08:45:54Z</time>
      </trkpt>
      <trkpt lat="43.61659" lon="6.09765">
        <ele>558.20001220703</ele>
        <time>2021-05-23T08:45:53Z</time>
      </trkpt>
      <trkpt lat="43.61656" lon="6.09765">
        <ele>558</ele>
        <time>2021-05-23T08:45:52Z</time>
      </trkpt>
      <trkpt lat="43.61653" lon="6.09764">
        <ele>558</ele>
        <time>2021-05-23T08:45:51Z</time>
      </trkpt>
      <trkpt lat="43.6165" lon="6.09764">
        <ele>558</ele>
        <time>2021-05-23T08:45:50Z</time>
      </trkpt>
      <trkpt lat="43.61647" lon="6.09765">
        <ele>557.79998779297</ele>
        <time>2021-05-23T08:45:49Z</time>
      </trkpt>
      <trkpt lat="43.61644" lon="6.09766">
        <ele>557.59997558594</ele>
        <time>2021-05-23T08:45:48Z</time>
      </trkpt>
      <trkpt lat="43.61642" lon="6.09766">
        <ele>557.40002441406</ele>
        <time>2021-05-23T08:45:47Z</time>
      </trkpt>
      <trkpt lat="43.61639" lon="6.09766">
        <ele>557</ele>
        <time>2021-05-23T08:45:46Z</time>
      </trkpt>
      <trkpt lat="43.61637" lon="6.09766">
        <ele>556.79998779297</ele>
        <time>2021-05-23T08:45:45Z</time>
      </trkpt>
      <trkpt lat="43.61634" lon="6.09765">
        <ele>557</ele>
        <time>2021-05-23T08:45:44Z</time>
      </trkpt>
      <trkpt lat="43.61631" lon="6.09764">
        <ele>556.59997558594</ele>
        <time>2021-05-23T08:45:43Z</time>
      </trkpt>
      <trkpt lat="43.61629" lon="6.09764">
        <ele>556.59997558594</ele>
        <time>2021-05-23T08:45:42Z</time>
      </trkpt>
      <trkpt lat="43.61626" lon="6.09764">
        <ele>556.59997558594</ele>
        <time>2021-05-23T08:45:41Z</time>
      </trkpt>
      <trkpt lat="43.61624" lon="6.09763">
        <ele>556.40002441406</ele>
        <time>2021-05-23T08:45:40Z</time>
      </trkpt>
      <trkpt lat="43.61621" lon="6.09764">
        <ele>556.40002441406</ele>
        <time>2021-05-23T08:45:39Z</time>
      </trkpt>
      <trkpt lat="43.61618" lon="6.09763">
        <ele>556</ele>
        <time>2021-05-23T08:45:38Z</time>
      </trkpt>
      <trkpt lat="43.61615" lon="6.09764">
        <ele>556</ele>
        <time>2021-05-23T08:45:37Z</time>
      </trkpt>
      <trkpt lat="43.61612" lon="6.09764">
        <ele>555.59997558594</ele>
        <time>2021-05-23T08:45:36Z</time>
      </trkpt>
      <trkpt lat="43.6161" lon="6.09763">
        <ele>555.59997558594</ele>
        <time>2021-05-23T08:45:35Z</time>
      </trkpt>
      <trkpt lat="43.61607" lon="6.09763">
        <ele>555.59997558594</ele>
        <time>2021-05-23T08:45:34Z</time>
      </trkpt>
      <trkpt lat="43.61604" lon="6.09762">
        <ele>555.59997558594</ele>
        <time>2021-05-23T08:45:33Z</time>
      </trkpt>
      <trkpt lat="43.61601" lon="6.09763">
        <ele>555.40002441406</ele>
        <time>2021-05-23T08:45:32Z</time>
      </trkpt>
      <trkpt lat="43.61598" lon="6.09763">
        <ele>555.40002441406</ele>
        <time>2021-05-23T08:45:31Z</time>
      </trkpt>
      <trkpt lat="43.61596" lon="6.09764">
        <ele>555.40002441406</ele>
        <time>2021-05-23T08:45:30Z</time>
      </trkpt>
      <trkpt lat="43.61593" lon="6.09764">
        <ele>555.20001220703</ele>
        <time>2021-05-23T08:45:29Z</time>
      </trkpt>
      <trkpt lat="43.6159" lon="6.09765">
        <ele>555.20001220703</ele>
        <time>2021-05-23T08:45:28Z</time>
      </trkpt>
      <trkpt lat="43.61587" lon="6.09765">
        <ele>555</ele>
        <time>2021-05-23T08:45:27Z</time>
      </trkpt>
      <trkpt lat="43.61584" lon="6.09766">
        <ele>554.79998779297</ele>
        <time>2021-05-23T08:45:26Z</time>
      </trkpt>
      <trkpt lat="43.61581" lon="6.09766">
        <ele>554.59997558594</ele>
        <time>2021-05-23T08:45:25Z</time>
      </trkpt>
      <trkpt lat="43.61578" lon="6.09767">
        <ele>554.40002441406</ele>
        <time>2021-05-23T08:45:24Z</time>
      </trkpt>
      <trkpt lat="43.61575" lon="6.09767">
        <ele>554.40002441406</ele>
        <time>2021-05-23T08:45:23Z</time>
      </trkpt>
      <trkpt lat="43.61572" lon="6.09768">
        <ele>554.40002441406</ele>
        <time>2021-05-23T08:45:22Z</time>
      </trkpt>
      <trkpt lat="43.61569" lon="6.09769">
        <ele>554.40002441406</ele>
        <time>2021-05-23T08:45:21Z</time>
      </trkpt>
      <trkpt lat="43.61567" lon="6.0977">
        <ele>554.20001220703</ele>
        <time>2021-05-23T08:45:20Z</time>
      </trkpt>
      <trkpt lat="43.61564" lon="6.09771">
        <ele>554</ele>
        <time>2021-05-23T08:45:19Z</time>
      </trkpt>
      <trkpt lat="43.61562" lon="6.09772">
        <ele>553.79998779297</ele>
        <time>2021-05-23T08:45:18Z</time>
      </trkpt>
      <trkpt lat="43.61559" lon="6.09773">
        <ele>553.40002441406</ele>
        <time>2021-05-23T08:45:17Z</time>
      </trkpt>
      <trkpt lat="43.61556" lon="6.09774">
        <ele>553.20001220703</ele>
        <time>2021-05-23T08:45:16Z</time>
      </trkpt>
      <trkpt lat="43.61553" lon="6.09774">
        <ele>553</ele>
        <time>2021-05-23T08:45:15Z</time>
      </trkpt>
      <trkpt lat="43.6155" lon="6.09775">
        <ele>552.59997558594</ele>
        <time>2021-05-23T08:45:14Z</time>
      </trkpt>
      <trkpt lat="43.61547" lon="6.09776">
        <ele>552.40002441406</ele>
        <time>2021-05-23T08:45:13Z</time>
      </trkpt>
      <trkpt lat="43.61544" lon="6.09777">
        <ele>552.20001220703</ele>
        <time>2021-05-23T08:45:12Z</time>
      </trkpt>
      <trkpt lat="43.61541" lon="6.09777">
        <ele>552</ele>
        <time>2021-05-23T08:45:11Z</time>
      </trkpt>
      <trkpt lat="43.61538" lon="6.09776">
        <ele>551.79998779297</ele>
        <time>2021-05-23T08:45:10Z</time>
      </trkpt>
      <trkpt lat="43.61535" lon="6.09775">
        <ele>551.79998779297</ele>
        <time>2021-05-23T08:45:09Z</time>
      </trkpt>
      <trkpt lat="43.61533" lon="6.09773">
        <ele>551.59997558594</ele>
        <time>2021-05-23T08:45:08Z</time>
      </trkpt>
      <trkpt lat="43.61531" lon="6.09771">
        <ele>551.59997558594</ele>
        <time>2021-05-23T08:45:07Z</time>
      </trkpt>
      <trkpt lat="43.61529" lon="6.09768">
        <ele>551.40002441406</ele>
        <time>2021-05-23T08:45:06Z</time>
      </trkpt>
      <trkpt lat="43.61528" lon="6.09765">
        <ele>551.40002441406</ele>
        <time>2021-05-23T08:45:05Z</time>
      </trkpt>
      <trkpt lat="43.61527" lon="6.09761">
        <ele>551.20001220703</ele>
        <time>2021-05-23T08:45:04Z</time>
      </trkpt>
      <trkpt lat="43.61527" lon="6.09757">
        <ele>551.20001220703</ele>
        <time>2021-05-23T08:45:03Z</time>
      </trkpt>
      <trkpt lat="43.61526" lon="6.09755">
        <ele>551</ele>
        <time>2021-05-23T08:45:02Z</time>
      </trkpt>
      <trkpt lat="43.61524" lon="6.09752">
        <ele>551</ele>
        <time>2021-05-23T08:45:01Z</time>
      </trkpt>
      <trkpt lat="43.61522" lon="6.0975">
        <ele>551</ele>
        <time>2021-05-23T08:45:00Z</time>
      </trkpt>
      <trkpt lat="43.61519" lon="6.09748">
        <ele>551</ele>
        <time>2021-05-23T08:44:59Z</time>
      </trkpt>
      <trkpt lat="43.61517" lon="6.09747">
        <ele>551.20001220703</ele>
        <time>2021-05-23T08:44:58Z</time>
      </trkpt>
      <trkpt lat="43.61514" lon="6.09746">
        <ele>551.20001220703</ele>
        <time>2021-05-23T08:44:57Z</time>
      </trkpt>
      <trkpt lat="43.61511" lon="6.09747">
        <ele>551.20001220703</ele>
        <time>2021-05-23T08:44:56Z</time>
      </trkpt>
      <trkpt lat="43.61508" lon="6.09747">
        <ele>551.40002441406</ele>
        <time>2021-05-23T08:44:55Z</time>
      </trkpt>
      <trkpt lat="43.61505" lon="6.09748">
        <ele>551.59997558594</ele>
        <time>2021-05-23T08:44:54Z</time>
      </trkpt>
      <trkpt lat="43.61502" lon="6.09749">
        <ele>551.59997558594</ele>
        <time>2021-05-23T08:44:53Z</time>
      </trkpt>
      <trkpt lat="43.61499" lon="6.0975">
        <ele>551.59997558594</ele>
        <time>2021-05-23T08:44:52Z</time>
      </trkpt>
      <trkpt lat="43.61495" lon="6.0975">
        <ele>551.59997558594</ele>
        <time>2021-05-23T08:44:51Z</time>
      </trkpt>
      <trkpt lat="43.61492" lon="6.0975">
        <ele>551.79998779297</ele>
        <time>2021-05-23T08:44:50Z</time>
      </trkpt>
      <trkpt lat="43.61488" lon="6.0975">
        <ele>552</ele>
        <time>2021-05-23T08:44:49Z</time>
      </trkpt>
      <trkpt lat="43.61484" lon="6.0975">
        <ele>552</ele>
        <time>2021-05-23T08:44:48Z</time>
      </trkpt>
      <trkpt lat="43.6148" lon="6.0975">
        <ele>552.20001220703</ele>
        <time>2021-05-23T08:44:47Z</time>
      </trkpt>
      <trkpt lat="43.61477" lon="6.09751">
        <ele>552.40002441406</ele>
        <time>2021-05-23T08:44:46Z</time>
      </trkpt>
      <trkpt lat="43.61473" lon="6.09752">
        <ele>552.59997558594</ele>
        <time>2021-05-23T08:44:45Z</time>
      </trkpt>
      <trkpt lat="43.6147" lon="6.09752">
        <ele>552.59997558594</ele>
        <time>2021-05-23T08:44:44Z</time>
      </trkpt>
      <trkpt lat="43.61468" lon="6.09753">
        <ele>552.59997558594</ele>
        <time>2021-05-23T08:44:43Z</time>
      </trkpt>
      <trkpt lat="43.61464" lon="6.09753">
        <ele>552.59997558594</ele>
        <time>2021-05-23T08:44:42Z</time>
      </trkpt>
      <trkpt lat="43.61461" lon="6.09753">
        <ele>552.59997558594</ele>
        <time>2021-05-23T08:44:41Z</time>
      </trkpt>
      <trkpt lat="43.61458" lon="6.09753">
        <ele>552.59997558594</ele>
        <time>2021-05-23T08:44:40Z</time>
      </trkpt>
      <trkpt lat="43.61455" lon="6.09753">
        <ele>552.59997558594</ele>
        <time>2021-05-23T08:44:39Z</time>
      </trkpt>
      <trkpt lat="43.61451" lon="6.09752">
        <ele>552.59997558594</ele>
        <time>2021-05-23T08:44:38Z</time>
      </trkpt>
      <trkpt lat="43.61448" lon="6.09752">
        <ele>552.59997558594</ele>
        <time>2021-05-23T08:44:37Z</time>
      </trkpt>
      <trkpt lat="43.61445" lon="6.09753">
        <ele>552.59997558594</ele>
        <time>2021-05-23T08:44:36Z</time>
      </trkpt>
      <trkpt lat="43.61442" lon="6.09753">
        <ele>552.79998779297</ele>
        <time>2021-05-23T08:44:35Z</time>
      </trkpt>
      <trkpt lat="43.61439" lon="6.09754">
        <ele>552.79998779297</ele>
        <time>2021-05-23T08:44:34Z</time>
      </trkpt>
      <trkpt lat="43.61436" lon="6.09755">
        <ele>552.79998779297</ele>
        <time>2021-05-23T08:44:33Z</time>
      </trkpt>
      <trkpt lat="43.61433" lon="6.09756">
        <ele>552.79998779297</ele>
        <time>2021-05-23T08:44:32Z</time>
      </trkpt>
      <trkpt lat="43.6143" lon="6.09757">
        <ele>552.79998779297</ele>
        <time>2021-05-23T08:44:31Z</time>
      </trkpt>
      <trkpt lat="43.61426" lon="6.09758">
        <ele>552.79998779297</ele>
        <time>2021-05-23T08:44:30Z</time>
      </trkpt>
      <trkpt lat="43.61423" lon="6.09758">
        <ele>552.59997558594</ele>
        <time>2021-05-23T08:44:29Z</time>
      </trkpt>
      <trkpt lat="43.6142" lon="6.09758">
        <ele>552.59997558594</ele>
        <time>2021-05-23T08:44:28Z</time>
      </trkpt>
      <trkpt lat="43.61416" lon="6.09758">
        <ele>552.79998779297</ele>
        <time>2021-05-23T08:44:27Z</time>
      </trkpt>
      <trkpt lat="43.61413" lon="6.09758">
        <ele>553</ele>
        <time>2021-05-23T08:44:26Z</time>
      </trkpt>
      <trkpt lat="43.6141" lon="6.09759">
        <ele>553</ele>
        <time>2021-05-23T08:44:25Z</time>
      </trkpt>
      <trkpt lat="43.61407" lon="6.09759">
        <ele>553</ele>
        <time>2021-05-23T08:44:24Z</time>
      </trkpt>
      <trkpt lat="43.61404" lon="6.0976">
        <ele>553.20001220703</ele>
        <time>2021-05-23T08:44:23Z</time>
      </trkpt>
      <trkpt lat="43.61401" lon="6.09761">
        <ele>553.20001220703</ele>
        <time>2021-05-23T08:44:22Z</time>
      </trkpt>
      <trkpt lat="43.61397" lon="6.09762">
        <ele>553.20001220703</ele>
        <time>2021-05-23T08:44:21Z</time>
      </trkpt>
      <trkpt lat="43.61394" lon="6.09764">
        <ele>553.20001220703</ele>
        <time>2021-05-23T08:44:20Z</time>
      </trkpt>
      <trkpt lat="43.61392" lon="6.09765">
        <ele>553</ele>
        <time>2021-05-23T08:44:19Z</time>
      </trkpt>
      <trkpt lat="43.61388" lon="6.09767">
        <ele>553</ele>
        <time>2021-05-23T08:44:18Z</time>
      </trkpt>
      <trkpt lat="43.61386" lon="6.09769">
        <ele>553</ele>
        <time>2021-05-23T08:44:17Z</time>
      </trkpt>
      <trkpt lat="43.61383" lon="6.09771">
        <ele>553</ele>
        <time>2021-05-23T08:44:16Z</time>
      </trkpt>
      <trkpt lat="43.6138" lon="6.09773">
        <ele>553</ele>
        <time>2021-05-23T08:44:15Z</time>
      </trkpt>
      <trkpt lat="43.61378" lon="6.09774">
        <ele>553.20001220703</ele>
        <time>2021-05-23T08:44:14Z</time>
      </trkpt>
      <trkpt lat="43.61375" lon="6.09777">
        <ele>553.40002441406</ele>
        <time>2021-05-23T08:44:13Z</time>
      </trkpt>
      <trkpt lat="43.61372" lon="6.09779">
        <ele>553.40002441406</ele>
        <time>2021-05-23T08:44:12Z</time>
      </trkpt>
      <trkpt lat="43.6137" lon="6.09782">
        <ele>553.59997558594</ele>
        <time>2021-05-23T08:44:11Z</time>
      </trkpt>
      <trkpt lat="43.61368" lon="6.09785">
        <ele>553.40002441406</ele>
        <time>2021-05-23T08:44:10Z</time>
      </trkpt>
      <trkpt lat="43.61365" lon="6.09788">
        <ele>553.40002441406</ele>
        <time>2021-05-23T08:44:09Z</time>
      </trkpt>
      <trkpt lat="43.61363" lon="6.0979">
        <ele>553.40002441406</ele>
        <time>2021-05-23T08:44:08Z</time>
      </trkpt>
      <trkpt lat="43.6136" lon="6.09792">
        <ele>553.40002441406</ele>
        <time>2021-05-23T08:44:07Z</time>
      </trkpt>
      <trkpt lat="43.61358" lon="6.09794">
        <ele>553.40002441406</ele>
        <time>2021-05-23T08:44:06Z</time>
      </trkpt>
      <trkpt lat="43.61355" lon="6.09797">
        <ele>553.59997558594</ele>
        <time>2021-05-23T08:44:05Z</time>
      </trkpt>
      <trkpt lat="43.61354" lon="6.09801">
        <ele>553.59997558594</ele>
        <time>2021-05-23T08:44:04Z</time>
      </trkpt>
      <trkpt lat="43.61351" lon="6.09804">
        <ele>553.59997558594</ele>
        <time>2021-05-23T08:44:03Z</time>
      </trkpt>
      <trkpt lat="43.61349" lon="6.09806">
        <ele>553.59997558594</ele>
        <time>2021-05-23T08:44:02Z</time>
      </trkpt>
      <trkpt lat="43.61346" lon="6.09808">
        <ele>553.79998779297</ele>
        <time>2021-05-23T08:44:01Z</time>
      </trkpt>
      <trkpt lat="43.61343" lon="6.0981">
        <ele>553.59997558594</ele>
        <time>2021-05-23T08:44:00Z</time>
      </trkpt>
      <trkpt lat="43.6134" lon="6.09812">
        <ele>553.20001220703</ele>
        <time>2021-05-23T08:43:59Z</time>
      </trkpt>
      <trkpt lat="43.61337" lon="6.09815">
        <ele>553</ele>
        <time>2021-05-23T08:43:58Z</time>
      </trkpt>
      <trkpt lat="43.61335" lon="6.09817">
        <ele>553</ele>
        <time>2021-05-23T08:43:57Z</time>
      </trkpt>
      <trkpt lat="43.61332" lon="6.09819">
        <ele>552.59997558594</ele>
        <time>2021-05-23T08:43:56Z</time>
      </trkpt>
      <trkpt lat="43.61328" lon="6.0982">
        <ele>552.40002441406</ele>
        <time>2021-05-23T08:43:55Z</time>
      </trkpt>
      <trkpt lat="43.61325" lon="6.09821">
        <ele>552.40002441406</ele>
        <time>2021-05-23T08:43:54Z</time>
      </trkpt>
      <trkpt lat="43.61322" lon="6.09822">
        <ele>552.40002441406</ele>
        <time>2021-05-23T08:43:53Z</time>
      </trkpt>
      <trkpt lat="43.61319" lon="6.09823">
        <ele>552.20001220703</ele>
        <time>2021-05-23T08:43:52Z</time>
      </trkpt>
      <trkpt lat="43.61316" lon="6.09824">
        <ele>552.20001220703</ele>
        <time>2021-05-23T08:43:51Z</time>
      </trkpt>
      <trkpt lat="43.61313" lon="6.09825">
        <ele>552</ele>
        <time>2021-05-23T08:43:50Z</time>
      </trkpt>
      <trkpt lat="43.6131" lon="6.09827">
        <ele>552</ele>
        <time>2021-05-23T08:43:49Z</time>
      </trkpt>
      <trkpt lat="43.61308" lon="6.0983">
        <ele>552</ele>
        <time>2021-05-23T08:43:48Z</time>
      </trkpt>
      <trkpt lat="43.61306" lon="6.09833">
        <ele>551.79998779297</ele>
        <time>2021-05-23T08:43:47Z</time>
      </trkpt>
      <trkpt lat="43.61304" lon="6.09836">
        <ele>551.79998779297</ele>
        <time>2021-05-23T08:43:46Z</time>
      </trkpt>
      <trkpt lat="43.61302" lon="6.09839">
        <ele>551.79998779297</ele>
        <time>2021-05-23T08:43:45Z</time>
      </trkpt>
      <trkpt lat="43.61299" lon="6.09843">
        <ele>551.79998779297</ele>
        <time>2021-05-23T08:43:44Z</time>
      </trkpt>
      <trkpt lat="43.61297" lon="6.09846">
        <ele>551.59997558594</ele>
        <time>2021-05-23T08:43:43Z</time>
      </trkpt>
      <trkpt lat="43.61296" lon="6.0985">
        <ele>551.59997558594</ele>
        <time>2021-05-23T08:43:42Z</time>
      </trkpt>
      <trkpt lat="43.61295" lon="6.09853">
        <ele>551.40002441406</ele>
        <time>2021-05-23T08:43:41Z</time>
      </trkpt>
      <trkpt lat="43.61293" lon="6.09857">
        <ele>551.40002441406</ele>
        <time>2021-05-23T08:43:40Z</time>
      </trkpt>
      <trkpt lat="43.61292" lon="6.09861">
        <ele>551.40002441406</ele>
        <time>2021-05-23T08:43:39Z</time>
      </trkpt>
      <trkpt lat="43.61291" lon="6.09864">
        <ele>551.40002441406</ele>
        <time>2021-05-23T08:43:38Z</time>
      </trkpt>
      <trkpt lat="43.6129" lon="6.09868">
        <ele>551.40002441406</ele>
        <time>2021-05-23T08:43:37Z</time>
      </trkpt>
      <trkpt lat="43.61289" lon="6.09872">
        <ele>551.40002441406</ele>
        <time>2021-05-23T08:43:36Z</time>
      </trkpt>
      <trkpt lat="43.61288" lon="6.09875">
        <ele>551.40002441406</ele>
        <time>2021-05-23T08:43:35Z</time>
      </trkpt>
      <trkpt lat="43.61287" lon="6.09878">
        <ele>551.40002441406</ele>
        <time>2021-05-23T08:43:34Z</time>
      </trkpt>
      <trkpt lat="43.61286" lon="6.09881">
        <ele>551.20001220703</ele>
        <time>2021-05-23T08:43:33Z</time>
      </trkpt>
      <trkpt lat="43.61285" lon="6.09883">
        <ele>550.79998779297</ele>
        <time>2021-05-23T08:43:32Z</time>
      </trkpt>
      <trkpt lat="43.61283" lon="6.09886">
        <ele>550.59997558594</ele>
        <time>2021-05-23T08:43:31Z</time>
      </trkpt>
      <trkpt lat="43.61281" lon="6.09888">
        <ele>550.59997558594</ele>
        <time>2021-05-23T08:43:30Z</time>
      </trkpt>
      <trkpt lat="43.61279" lon="6.09891">
        <ele>550.59997558594</ele>
        <time>2021-05-23T08:43:29Z</time>
      </trkpt>
      <trkpt lat="43.61277" lon="6.09894">
        <ele>550.40002441406</ele>
        <time>2021-05-23T08:43:28Z</time>
      </trkpt>
      <trkpt lat="43.61275" lon="6.09896">
        <ele>550.40002441406</ele>
        <time>2021-05-23T08:43:27Z</time>
      </trkpt>
      <trkpt lat="43.61273" lon="6.09899">
        <ele>550.40002441406</ele>
        <time>2021-05-23T08:43:26Z</time>
      </trkpt>
      <trkpt lat="43.61271" lon="6.09902">
        <ele>550.40002441406</ele>
        <time>2021-05-23T08:43:25Z</time>
      </trkpt>
      <trkpt lat="43.61269" lon="6.09905">
        <ele>550.40002441406</ele>
        <time>2021-05-23T08:43:24Z</time>
      </trkpt>
      <trkpt lat="43.61268" lon="6.09908">
        <ele>550.20001220703</ele>
        <time>2021-05-23T08:43:23Z</time>
      </trkpt>
      <trkpt lat="43.61266" lon="6.0991">
        <ele>550</ele>
        <time>2021-05-23T08:43:22Z</time>
      </trkpt>
      <trkpt lat="43.61264" lon="6.09913">
        <ele>549.79998779297</ele>
        <time>2021-05-23T08:43:21Z</time>
      </trkpt>
      <trkpt lat="43.61261" lon="6.09916">
        <ele>549.59997558594</ele>
        <time>2021-05-23T08:43:20Z</time>
      </trkpt>
      <trkpt lat="43.61258" lon="6.09918">
        <ele>549.59997558594</ele>
        <time>2021-05-23T08:43:19Z</time>
      </trkpt>
      <trkpt lat="43.61256" lon="6.0992">
        <ele>549.40002441406</ele>
        <time>2021-05-23T08:43:18Z</time>
      </trkpt>
      <trkpt lat="43.61254" lon="6.09922">
        <ele>549.20001220703</ele>
        <time>2021-05-23T08:43:17Z</time>
      </trkpt>
      <trkpt lat="43.61252" lon="6.09925">
        <ele>549.20001220703</ele>
        <time>2021-05-23T08:43:16Z</time>
      </trkpt>
      <trkpt lat="43.6125" lon="6.09926">
        <ele>549.20001220703</ele>
        <time>2021-05-23T08:43:15Z</time>
      </trkpt>
      <trkpt lat="43.61248" lon="6.09927">
        <ele>549</ele>
        <time>2021-05-23T08:43:14Z</time>
      </trkpt>
      <trkpt lat="43.61245" lon="6.09927">
        <ele>548.79998779297</ele>
        <time>2021-05-23T08:43:13Z</time>
      </trkpt>
      <trkpt lat="43.61243" lon="6.09928">
        <ele>548.59997558594</ele>
        <time>2021-05-23T08:43:12Z</time>
      </trkpt>
      <trkpt lat="43.6124" lon="6.09929">
        <ele>548.40002441406</ele>
        <time>2021-05-23T08:43:11Z</time>
      </trkpt>
      <trkpt lat="43.61237" lon="6.09929">
        <ele>548.20001220703</ele>
        <time>2021-05-23T08:43:10Z</time>
      </trkpt>
      <trkpt lat="43.61234" lon="6.0993">
        <ele>548.20001220703</ele>
        <time>2021-05-23T08:43:09Z</time>
      </trkpt>
      <trkpt lat="43.61231" lon="6.09931">
        <ele>548</ele>
        <time>2021-05-23T08:43:08Z</time>
      </trkpt>
      <trkpt lat="43.61228" lon="6.09932">
        <ele>547.79998779297</ele>
        <time>2021-05-23T08:43:07Z</time>
      </trkpt>
      <trkpt lat="43.61226" lon="6.09935">
        <ele>547.59997558594</ele>
        <time>2021-05-23T08:43:06Z</time>
      </trkpt>
      <trkpt lat="43.61223" lon="6.09937">
        <ele>547.20001220703</ele>
        <time>2021-05-23T08:43:05Z</time>
      </trkpt>
      <trkpt lat="43.61221" lon="6.0994">
        <ele>547.20001220703</ele>
        <time>2021-05-23T08:43:04Z</time>
      </trkpt>
      <trkpt lat="43.61219" lon="6.09942">
        <ele>547</ele>
        <time>2021-05-23T08:43:03Z</time>
      </trkpt>
      <trkpt lat="43.61216" lon="6.09944">
        <ele>547</ele>
        <time>2021-05-23T08:43:02Z</time>
      </trkpt>
      <trkpt lat="43.61214" lon="6.09946">
        <ele>547</ele>
        <time>2021-05-23T08:43:01Z</time>
      </trkpt>
      <trkpt lat="43.61211" lon="6.09947">
        <ele>546.59997558594</ele>
        <time>2021-05-23T08:43:00Z</time>
      </trkpt>
      <trkpt lat="43.61208" lon="6.09947">
        <ele>546.59997558594</ele>
        <time>2021-05-23T08:42:59Z</time>
      </trkpt>
      <trkpt lat="43.61205" lon="6.09946">
        <ele>546.40002441406</ele>
        <time>2021-05-23T08:42:58Z</time>
      </trkpt>
      <trkpt lat="43.61203" lon="6.09944">
        <ele>546.40002441406</ele>
        <time>2021-05-23T08:42:57Z</time>
      </trkpt>
      <trkpt lat="43.612" lon="6.09943">
        <ele>546.20001220703</ele>
        <time>2021-05-23T08:42:56Z</time>
      </trkpt>
      <trkpt lat="43.61198" lon="6.09941">
        <ele>546.20001220703</ele>
        <time>2021-05-23T08:42:55Z</time>
      </trkpt>
      <trkpt lat="43.61195" lon="6.0994">
        <ele>546.20001220703</ele>
        <time>2021-05-23T08:42:54Z</time>
      </trkpt>
      <trkpt lat="43.61192" lon="6.09939">
        <ele>546.20001220703</ele>
        <time>2021-05-23T08:42:53Z</time>
      </trkpt>
      <trkpt lat="43.6119" lon="6.09937">
        <ele>546</ele>
        <time>2021-05-23T08:42:52Z</time>
      </trkpt>
      <trkpt lat="43.61187" lon="6.09936">
        <ele>545.79998779297</ele>
        <time>2021-05-23T08:42:51Z</time>
      </trkpt>
      <trkpt lat="43.61184" lon="6.09934">
        <ele>545.59997558594</ele>
        <time>2021-05-23T08:42:50Z</time>
      </trkpt>
      <trkpt lat="43.61181" lon="6.09932">
        <ele>545.40002441406</ele>
        <time>2021-05-23T08:42:49Z</time>
      </trkpt>
      <trkpt lat="43.61179" lon="6.0993">
        <ele>545.20001220703</ele>
        <time>2021-05-23T08:42:48Z</time>
      </trkpt>
      <trkpt lat="43.61176" lon="6.09929">
        <ele>545</ele>
        <time>2021-05-23T08:42:47Z</time>
      </trkpt>
      <trkpt lat="43.61174" lon="6.09928">
        <ele>545</ele>
        <time>2021-05-23T08:42:46Z</time>
      </trkpt>
      <trkpt lat="43.61171" lon="6.09928">
        <ele>544.79998779297</ele>
        <time>2021-05-23T08:42:45Z</time>
      </trkpt>
      <trkpt lat="43.61169" lon="6.09929">
        <ele>544.59997558594</ele>
        <time>2021-05-23T08:42:44Z</time>
      </trkpt>
      <trkpt lat="43.61166" lon="6.09929">
        <ele>544.59997558594</ele>
        <time>2021-05-23T08:42:43Z</time>
      </trkpt>
      <trkpt lat="43.61163" lon="6.0993">
        <ele>544.59997558594</ele>
        <time>2021-05-23T08:42:42Z</time>
      </trkpt>
      <trkpt lat="43.61161" lon="6.0993">
        <ele>544.59997558594</ele>
        <time>2021-05-23T08:42:41Z</time>
      </trkpt>
      <trkpt lat="43.61158" lon="6.09931">
        <ele>544.40002441406</ele>
        <time>2021-05-23T08:42:40Z</time>
      </trkpt>
      <trkpt lat="43.61156" lon="6.09932">
        <ele>544.40002441406</ele>
        <time>2021-05-23T08:42:39Z</time>
      </trkpt>
      <trkpt lat="43.61153" lon="6.09934">
        <ele>544.20001220703</ele>
        <time>2021-05-23T08:42:38Z</time>
      </trkpt>
      <trkpt lat="43.61151" lon="6.09935">
        <ele>544.20001220703</ele>
        <time>2021-05-23T08:42:37Z</time>
      </trkpt>
      <trkpt lat="43.61148" lon="6.09936">
        <ele>544</ele>
        <time>2021-05-23T08:42:36Z</time>
      </trkpt>
      <trkpt lat="43.61145" lon="6.09936">
        <ele>543.79998779297</ele>
        <time>2021-05-23T08:42:35Z</time>
      </trkpt>
      <trkpt lat="43.61143" lon="6.09937">
        <ele>543.59997558594</ele>
        <time>2021-05-23T08:42:34Z</time>
      </trkpt>
      <trkpt lat="43.6114" lon="6.09938">
        <ele>543.20001220703</ele>
        <time>2021-05-23T08:42:33Z</time>
      </trkpt>
      <trkpt lat="43.61137" lon="6.09939">
        <ele>542.79998779297</ele>
        <time>2021-05-23T08:42:32Z</time>
      </trkpt>
      <trkpt lat="43.61134" lon="6.0994">
        <ele>542.40002441406</ele>
        <time>2021-05-23T08:42:31Z</time>
      </trkpt>
      <trkpt lat="43.61131" lon="6.09941">
        <ele>542.20001220703</ele>
        <time>2021-05-23T08:42:30Z</time>
      </trkpt>
      <trkpt lat="43.61129" lon="6.09942">
        <ele>542</ele>
        <time>2021-05-23T08:42:29Z</time>
      </trkpt>
      <trkpt lat="43.61127" lon="6.09942">
        <ele>542.20001220703</ele>
        <time>2021-05-23T08:42:28Z</time>
      </trkpt>
      <trkpt lat="43.61125" lon="6.09942">
        <ele>542</ele>
        <time>2021-05-23T08:42:27Z</time>
      </trkpt>
      <trkpt lat="43.61122" lon="6.09942">
        <ele>542</ele>
        <time>2021-05-23T08:42:26Z</time>
      </trkpt>
      <trkpt lat="43.61119" lon="6.09941">
        <ele>542</ele>
        <time>2021-05-23T08:42:25Z</time>
      </trkpt>
      <trkpt lat="43.61116" lon="6.09941">
        <ele>542</ele>
        <time>2021-05-23T08:42:24Z</time>
      </trkpt>
      <trkpt lat="43.61114" lon="6.0994">
        <ele>541.79998779297</ele>
        <time>2021-05-23T08:42:23Z</time>
      </trkpt>
      <trkpt lat="43.61112" lon="6.0994">
        <ele>541.59997558594</ele>
        <time>2021-05-23T08:42:22Z</time>
      </trkpt>
      <trkpt lat="43.61111" lon="6.09938">
        <ele>541.40002441406</ele>
        <time>2021-05-23T08:42:21Z</time>
      </trkpt>
      <trkpt lat="43.61109" lon="6.09936">
        <ele>541.40002441406</ele>
        <time>2021-05-23T08:42:20Z</time>
      </trkpt>
      <trkpt lat="43.61107" lon="6.09934">
        <ele>541.20001220703</ele>
        <time>2021-05-23T08:42:19Z</time>
      </trkpt>
      <trkpt lat="43.61105" lon="6.09933">
        <ele>541</ele>
        <time>2021-05-23T08:42:18Z</time>
      </trkpt>
      <trkpt lat="43.61102" lon="6.09932">
        <ele>541</ele>
        <time>2021-05-23T08:42:17Z</time>
      </trkpt>
      <trkpt lat="43.61098" lon="6.09932">
        <ele>540.79998779297</ele>
        <time>2021-05-23T08:42:16Z</time>
      </trkpt>
      <trkpt lat="43.61096" lon="6.09931">
        <ele>540.59997558594</ele>
        <time>2021-05-23T08:42:15Z</time>
      </trkpt>
      <trkpt lat="43.61093" lon="6.0993">
        <ele>540.59997558594</ele>
        <time>2021-05-23T08:42:14Z</time>
      </trkpt>
      <trkpt lat="43.61091" lon="6.0993">
        <ele>540.20001220703</ele>
        <time>2021-05-23T08:42:13Z</time>
      </trkpt>
      <trkpt lat="43.61088" lon="6.09928">
        <ele>540</ele>
        <time>2021-05-23T08:42:12Z</time>
      </trkpt>
      <trkpt lat="43.61085" lon="6.09927">
        <ele>539.79998779297</ele>
        <time>2021-05-23T08:42:11Z</time>
      </trkpt>
      <trkpt lat="43.61082" lon="6.09925">
        <ele>539.40002441406</ele>
        <time>2021-05-23T08:42:10Z</time>
      </trkpt>
      <trkpt lat="43.61079" lon="6.09923">
        <ele>539.20001220703</ele>
        <time>2021-05-23T08:42:09Z</time>
      </trkpt>
      <trkpt lat="43.61077" lon="6.09922">
        <ele>539.20001220703</ele>
        <time>2021-05-23T08:42:08Z</time>
      </trkpt>
      <trkpt lat="43.61074" lon="6.0992">
        <ele>539</ele>
        <time>2021-05-23T08:42:07Z</time>
      </trkpt>
      <trkpt lat="43.61072" lon="6.09919">
        <ele>538.79998779297</ele>
        <time>2021-05-23T08:42:06Z</time>
      </trkpt>
      <trkpt lat="43.61069" lon="6.09917">
        <ele>538.40002441406</ele>
        <time>2021-05-23T08:42:05Z</time>
      </trkpt>
      <trkpt lat="43.61066" lon="6.09916">
        <ele>538.40002441406</ele>
        <time>2021-05-23T08:42:04Z</time>
      </trkpt>
      <trkpt lat="43.61064" lon="6.09913">
        <ele>538.20001220703</ele>
        <time>2021-05-23T08:42:03Z</time>
      </trkpt>
      <trkpt lat="43.61061" lon="6.09911">
        <ele>538.20001220703</ele>
        <time>2021-05-23T08:42:02Z</time>
      </trkpt>
      <trkpt lat="43.61059" lon="6.09908">
        <ele>538</ele>
        <time>2021-05-23T08:42:01Z</time>
      </trkpt>
      <trkpt lat="43.61057" lon="6.09905">
        <ele>538</ele>
        <time>2021-05-23T08:42:00Z</time>
      </trkpt>
      <trkpt lat="43.61055" lon="6.09903">
        <ele>537.79998779297</ele>
        <time>2021-05-23T08:41:59Z</time>
      </trkpt>
      <trkpt lat="43.61052" lon="6.09901">
        <ele>537.40002441406</ele>
        <time>2021-05-23T08:41:58Z</time>
      </trkpt>
      <trkpt lat="43.6105" lon="6.09899">
        <ele>537.20001220703</ele>
        <time>2021-05-23T08:41:57Z</time>
      </trkpt>
      <trkpt lat="43.61047" lon="6.09898">
        <ele>537</ele>
        <time>2021-05-23T08:41:56Z</time>
      </trkpt>
      <trkpt lat="43.61045" lon="6.09897">
        <ele>536.79998779297</ele>
        <time>2021-05-23T08:41:55Z</time>
      </trkpt>
      <trkpt lat="43.61042" lon="6.09895">
        <ele>536.59997558594</ele>
        <time>2021-05-23T08:41:54Z</time>
      </trkpt>
      <trkpt lat="43.61039" lon="6.09895">
        <ele>536.40002441406</ele>
        <time>2021-05-23T08:41:53Z</time>
      </trkpt>
      <trkpt lat="43.61037" lon="6.09894">
        <ele>536.20001220703</ele>
        <time>2021-05-23T08:41:52Z</time>
      </trkpt>
      <trkpt lat="43.61034" lon="6.09895">
        <ele>536.20001220703</ele>
        <time>2021-05-23T08:41:51Z</time>
      </trkpt>
      <trkpt lat="43.61031" lon="6.09896">
        <ele>535.79998779297</ele>
        <time>2021-05-23T08:41:50Z</time>
      </trkpt>
      <trkpt lat="43.61029" lon="6.09898">
        <ele>535.59997558594</ele>
        <time>2021-05-23T08:41:49Z</time>
      </trkpt>
      <trkpt lat="43.61026" lon="6.09899">
        <ele>535.40002441406</ele>
        <time>2021-05-23T08:41:48Z</time>
      </trkpt>
      <trkpt lat="43.61023" lon="6.09901">
        <ele>535.40002441406</ele>
        <time>2021-05-23T08:41:47Z</time>
      </trkpt>
      <trkpt lat="43.6102" lon="6.09904">
        <ele>535.40002441406</ele>
        <time>2021-05-23T08:41:46Z</time>
      </trkpt>
      <trkpt lat="43.61018" lon="6.09906">
        <ele>535.20001220703</ele>
        <time>2021-05-23T08:41:45Z</time>
      </trkpt>
      <trkpt lat="43.61015" lon="6.09908">
        <ele>535.20001220703</ele>
        <time>2021-05-23T08:41:44Z</time>
      </trkpt>
      <trkpt lat="43.61012" lon="6.09911">
        <ele>535</ele>
        <time>2021-05-23T08:41:43Z</time>
      </trkpt>
      <trkpt lat="43.6101" lon="6.09913">
        <ele>534.79998779297</ele>
        <time>2021-05-23T08:41:42Z</time>
      </trkpt>
      <trkpt lat="43.61007" lon="6.09916">
        <ele>534.40002441406</ele>
        <time>2021-05-23T08:41:41Z</time>
      </trkpt>
      <trkpt lat="43.61005" lon="6.09918">
        <ele>534</ele>
        <time>2021-05-23T08:41:40Z</time>
      </trkpt>
      <trkpt lat="43.61002" lon="6.0992">
        <ele>533.79998779297</ele>
        <time>2021-05-23T08:41:39Z</time>
      </trkpt>
      <trkpt lat="43.61" lon="6.09923">
        <ele>533.40002441406</ele>
        <time>2021-05-23T08:41:38Z</time>
      </trkpt>
      <trkpt lat="43.60997" lon="6.09925">
        <ele>533.20001220703</ele>
        <time>2021-05-23T08:41:37Z</time>
      </trkpt>
      <trkpt lat="43.60994" lon="6.09928">
        <ele>532.79998779297</ele>
        <time>2021-05-23T08:41:36Z</time>
      </trkpt>
      <trkpt lat="43.60992" lon="6.0993">
        <ele>532.40002441406</ele>
        <time>2021-05-23T08:41:35Z</time>
      </trkpt>
      <trkpt lat="43.6099" lon="6.09932">
        <ele>531.79998779297</ele>
        <time>2021-05-23T08:41:34Z</time>
      </trkpt>
      <trkpt lat="43.60988" lon="6.09934">
        <ele>531.40002441406</ele>
        <time>2021-05-23T08:41:33Z</time>
      </trkpt>
      <trkpt lat="43.60986" lon="6.09937">
        <ele>531.20001220703</ele>
        <time>2021-05-23T08:41:32Z</time>
      </trkpt>
      <trkpt lat="43.60983" lon="6.09939">
        <ele>531.20001220703</ele>
        <time>2021-05-23T08:41:31Z</time>
      </trkpt>
      <trkpt lat="43.60981" lon="6.09942">
        <ele>531.20001220703</ele>
        <time>2021-05-23T08:41:30Z</time>
      </trkpt>
      <trkpt lat="43.60978" lon="6.09944">
        <ele>531</ele>
        <time>2021-05-23T08:41:29Z</time>
      </trkpt>
      <trkpt lat="43.60976" lon="6.09947">
        <ele>530.79998779297</ele>
        <time>2021-05-23T08:41:28Z</time>
      </trkpt>
      <trkpt lat="43.60973" lon="6.09949">
        <ele>530.59997558594</ele>
        <time>2021-05-23T08:41:27Z</time>
      </trkpt>
      <trkpt lat="43.60971" lon="6.0995">
        <ele>530.40002441406</ele>
        <time>2021-05-23T08:41:26Z</time>
      </trkpt>
      <trkpt lat="43.60968" lon="6.09951">
        <ele>530.20001220703</ele>
        <time>2021-05-23T08:41:25Z</time>
      </trkpt>
      <trkpt lat="43.60965" lon="6.09952">
        <ele>530.20001220703</ele>
        <time>2021-05-23T08:41:24Z</time>
      </trkpt>
      <trkpt lat="43.60962" lon="6.09953">
        <ele>530.20001220703</ele>
        <time>2021-05-23T08:41:23Z</time>
      </trkpt>
      <trkpt lat="43.60959" lon="6.09954">
        <ele>530.20001220703</ele>
        <time>2021-05-23T08:41:22Z</time>
      </trkpt>
      <trkpt lat="43.60956" lon="6.09956">
        <ele>530.20001220703</ele>
        <time>2021-05-23T08:41:21Z</time>
      </trkpt>
      <trkpt lat="43.60953" lon="6.09958">
        <ele>530</ele>
        <time>2021-05-23T08:41:20Z</time>
      </trkpt>
      <trkpt lat="43.6095" lon="6.09961">
        <ele>530</ele>
        <time>2021-05-23T08:41:19Z</time>
      </trkpt>
      <trkpt lat="43.60947" lon="6.09963">
        <ele>529.79998779297</ele>
        <time>2021-05-23T08:41:18Z</time>
      </trkpt>
      <trkpt lat="43.60944" lon="6.09966">
        <ele>529.59997558594</ele>
        <time>2021-05-23T08:41:17Z</time>
      </trkpt>
      <trkpt lat="43.60941" lon="6.09968">
        <ele>529.40002441406</ele>
        <time>2021-05-23T08:41:16Z</time>
      </trkpt>
      <trkpt lat="43.60938" lon="6.0997">
        <ele>529.40002441406</ele>
        <time>2021-05-23T08:41:15Z</time>
      </trkpt>
      <trkpt lat="43.60936" lon="6.09972">
        <ele>529.40002441406</ele>
        <time>2021-05-23T08:41:14Z</time>
      </trkpt>
      <trkpt lat="43.60932" lon="6.09974">
        <ele>529.20001220703</ele>
        <time>2021-05-23T08:41:13Z</time>
      </trkpt>
      <trkpt lat="43.60929" lon="6.09977">
        <ele>529.20001220703</ele>
        <time>2021-05-23T08:41:12Z</time>
      </trkpt>
      <trkpt lat="43.60926" lon="6.09979">
        <ele>529</ele>
        <time>2021-05-23T08:41:11Z</time>
      </trkpt>
      <trkpt lat="43.60923" lon="6.09982">
        <ele>529</ele>
        <time>2021-05-23T08:41:10Z</time>
      </trkpt>
      <trkpt lat="43.6092" lon="6.09984">
        <ele>528.79998779297</ele>
        <time>2021-05-23T08:41:09Z</time>
      </trkpt>
      <trkpt lat="43.60917" lon="6.09987">
        <ele>528.79998779297</ele>
        <time>2021-05-23T08:41:08Z</time>
      </trkpt>
      <trkpt lat="43.60914" lon="6.0999">
        <ele>528.59997558594</ele>
        <time>2021-05-23T08:41:07Z</time>
      </trkpt>
      <trkpt lat="43.60911" lon="6.09993">
        <ele>528.40002441406</ele>
        <time>2021-05-23T08:41:06Z</time>
      </trkpt>
      <trkpt lat="43.60909" lon="6.09996">
        <ele>528.40002441406</ele>
        <time>2021-05-23T08:41:05Z</time>
      </trkpt>
      <trkpt lat="43.60906" lon="6.09998">
        <ele>528.20001220703</ele>
        <time>2021-05-23T08:41:04Z</time>
      </trkpt>
      <trkpt lat="43.60903" lon="6.10001">
        <ele>528</ele>
        <time>2021-05-23T08:41:03Z</time>
      </trkpt>
      <trkpt lat="43.609" lon="6.10003">
        <ele>528</ele>
        <time>2021-05-23T08:41:02Z</time>
      </trkpt>
      <trkpt lat="43.60897" lon="6.10005">
        <ele>527.59997558594</ele>
        <time>2021-05-23T08:41:01Z</time>
      </trkpt>
      <trkpt lat="43.60894" lon="6.10006">
        <ele>527.40002441406</ele>
        <time>2021-05-23T08:41:00Z</time>
      </trkpt>
      <trkpt lat="43.6089" lon="6.10007">
        <ele>527.40002441406</ele>
        <time>2021-05-23T08:40:59Z</time>
      </trkpt>
      <trkpt lat="43.60887" lon="6.10007">
        <ele>527.20001220703</ele>
        <time>2021-05-23T08:40:58Z</time>
      </trkpt>
      <trkpt lat="43.60883" lon="6.10007">
        <ele>527.20001220703</ele>
        <time>2021-05-23T08:40:57Z</time>
      </trkpt>
      <trkpt lat="43.6088" lon="6.10006">
        <ele>527.20001220703</ele>
        <time>2021-05-23T08:40:56Z</time>
      </trkpt>
      <trkpt lat="43.60877" lon="6.10006">
        <ele>527.20001220703</ele>
        <time>2021-05-23T08:40:55Z</time>
      </trkpt>
      <trkpt lat="43.60874" lon="6.10005">
        <ele>527.20001220703</ele>
        <time>2021-05-23T08:40:54Z</time>
      </trkpt>
      <trkpt lat="43.6087" lon="6.10005">
        <ele>527</ele>
        <time>2021-05-23T08:40:53Z</time>
      </trkpt>
      <trkpt lat="43.60867" lon="6.10006">
        <ele>527</ele>
        <time>2021-05-23T08:40:52Z</time>
      </trkpt>
      <trkpt lat="43.60865" lon="6.10008">
        <ele>527</ele>
        <time>2021-05-23T08:40:51Z</time>
      </trkpt>
      <trkpt lat="43.60862" lon="6.1001">
        <ele>527</ele>
        <time>2021-05-23T08:40:50Z</time>
      </trkpt>
      <trkpt lat="43.6086" lon="6.10011">
        <ele>527.20001220703</ele>
        <time>2021-05-23T08:40:49Z</time>
      </trkpt>
      <trkpt lat="43.60858" lon="6.10013">
        <ele>527.20001220703</ele>
        <time>2021-05-23T08:40:48Z</time>
      </trkpt>
      <trkpt lat="43.60855" lon="6.10014">
        <ele>527</ele>
        <time>2021-05-23T08:40:47Z</time>
      </trkpt>
      <trkpt lat="43.60852" lon="6.10016">
        <ele>526.79998779297</ele>
        <time>2021-05-23T08:40:46Z</time>
      </trkpt>
      <trkpt lat="43.60849" lon="6.10019">
        <ele>526.59997558594</ele>
        <time>2021-05-23T08:40:45Z</time>
      </trkpt>
      <trkpt lat="43.60847" lon="6.10021">
        <ele>526.20001220703</ele>
        <time>2021-05-23T08:40:44Z</time>
      </trkpt>
      <trkpt lat="43.60844" lon="6.10023">
        <ele>525.79998779297</ele>
        <time>2021-05-23T08:40:43Z</time>
      </trkpt>
      <trkpt lat="43.60842" lon="6.10025">
        <ele>525.40002441406</ele>
        <time>2021-05-23T08:40:42Z</time>
      </trkpt>
      <trkpt lat="43.60839" lon="6.10027">
        <ele>524.59997558594</ele>
        <time>2021-05-23T08:40:41Z</time>
      </trkpt>
      <trkpt lat="43.60835" lon="6.10027">
        <ele>524.40002441406</ele>
        <time>2021-05-23T08:40:40Z</time>
      </trkpt>
      <trkpt lat="43.60832" lon="6.10027">
        <ele>524.20001220703</ele>
        <time>2021-05-23T08:40:39Z</time>
      </trkpt>
      <trkpt lat="43.60829" lon="6.10025">
        <ele>524.20001220703</ele>
        <time>2021-05-23T08:40:38Z</time>
      </trkpt>
      <trkpt lat="43.60826" lon="6.10023">
        <ele>524</ele>
        <time>2021-05-23T08:40:37Z</time>
      </trkpt>
      <trkpt lat="43.60823" lon="6.10021">
        <ele>523.79998779297</ele>
        <time>2021-05-23T08:40:36Z</time>
      </trkpt>
      <trkpt lat="43.6082" lon="6.10019">
        <ele>523.79998779297</ele>
        <time>2021-05-23T08:40:35Z</time>
      </trkpt>
      <trkpt lat="43.60817" lon="6.10016">
        <ele>523.59997558594</ele>
        <time>2021-05-23T08:40:34Z</time>
      </trkpt>
      <trkpt lat="43.60814" lon="6.10014">
        <ele>523.40002441406</ele>
        <time>2021-05-23T08:40:33Z</time>
      </trkpt>
      <trkpt lat="43.6081" lon="6.10012">
        <ele>523</ele>
        <time>2021-05-23T08:40:32Z</time>
      </trkpt>
      <trkpt lat="43.60807" lon="6.1001">
        <ele>522.79998779297</ele>
        <time>2021-05-23T08:40:31Z</time>
      </trkpt>
      <trkpt lat="43.60804" lon="6.10007">
        <ele>522.79998779297</ele>
        <time>2021-05-23T08:40:30Z</time>
      </trkpt>
      <trkpt lat="43.608" lon="6.10005">
        <ele>522.79998779297</ele>
        <time>2021-05-23T08:40:29Z</time>
      </trkpt>
      <trkpt lat="43.60797" lon="6.10002">
        <ele>522.59997558594</ele>
        <time>2021-05-23T08:40:28Z</time>
      </trkpt>
      <trkpt lat="43.60793" lon="6.1">
        <ele>522.59997558594</ele>
        <time>2021-05-23T08:40:27Z</time>
      </trkpt>
      <trkpt lat="43.6079" lon="6.09998">
        <ele>522.40002441406</ele>
        <time>2021-05-23T08:40:26Z</time>
      </trkpt>
      <trkpt lat="43.60786" lon="6.09996">
        <ele>522.20001220703</ele>
        <time>2021-05-23T08:40:25Z</time>
      </trkpt>
      <trkpt lat="43.60782" lon="6.09994">
        <ele>522.20001220703</ele>
        <time>2021-05-23T08:40:24Z</time>
      </trkpt>
      <trkpt lat="43.60779" lon="6.09992">
        <ele>522.20001220703</ele>
        <time>2021-05-23T08:40:23Z</time>
      </trkpt>
      <trkpt lat="43.60775" lon="6.09989">
        <ele>522.20001220703</ele>
        <time>2021-05-23T08:40:22Z</time>
      </trkpt>
      <trkpt lat="43.60771" lon="6.09987">
        <ele>522.20001220703</ele>
        <time>2021-05-23T08:40:21Z</time>
      </trkpt>
      <trkpt lat="43.60767" lon="6.09984">
        <ele>522.20001220703</ele>
        <time>2021-05-23T08:40:20Z</time>
      </trkpt>
      <trkpt lat="43.60763" lon="6.09982">
        <ele>522.20001220703</ele>
        <time>2021-05-23T08:40:19Z</time>
      </trkpt>
      <trkpt lat="43.60759" lon="6.09979">
        <ele>522.20001220703</ele>
        <time>2021-05-23T08:40:18Z</time>
      </trkpt>
      <trkpt lat="43.60755" lon="6.09977">
        <ele>522.40002441406</ele>
        <time>2021-05-23T08:40:17Z</time>
      </trkpt>
      <trkpt lat="43.6075" lon="6.09975">
        <ele>522.59997558594</ele>
        <time>2021-05-23T08:40:16Z</time>
      </trkpt>
      <trkpt lat="43.60746" lon="6.09973">
        <ele>522.79998779297</ele>
        <time>2021-05-23T08:40:15Z</time>
      </trkpt>
      <trkpt lat="43.60741" lon="6.09971">
        <ele>523</ele>
        <time>2021-05-23T08:40:14Z</time>
      </trkpt>
      <trkpt lat="43.60736" lon="6.09969">
        <ele>523</ele>
        <time>2021-05-23T08:40:13Z</time>
      </trkpt>
      <trkpt lat="43.60731" lon="6.09967">
        <ele>523.20001220703</ele>
        <time>2021-05-23T08:40:12Z</time>
      </trkpt>
      <trkpt lat="43.60727" lon="6.09966">
        <ele>523.40002441406</ele>
        <time>2021-05-23T08:40:11Z</time>
      </trkpt>
      <trkpt lat="43.60722" lon="6.09964">
        <ele>523.59997558594</ele>
        <time>2021-05-23T08:40:10Z</time>
      </trkpt>
      <trkpt lat="43.60718" lon="6.09962">
        <ele>523.79998779297</ele>
        <time>2021-05-23T08:40:09Z</time>
      </trkpt>
      <trkpt lat="43.60714" lon="6.0996">
        <ele>524</ele>
        <time>2021-05-23T08:40:08Z</time>
      </trkpt>
      <trkpt lat="43.60709" lon="6.09958">
        <ele>524.20001220703</ele>
        <time>2021-05-23T08:40:07Z</time>
      </trkpt>
      <trkpt lat="43.60705" lon="6.09957">
        <ele>524.20001220703</ele>
        <time>2021-05-23T08:40:06Z</time>
      </trkpt>
      <trkpt lat="43.607" lon="6.09955">
        <ele>524.20001220703</ele>
        <time>2021-05-23T08:40:05Z</time>
      </trkpt>
      <trkpt lat="43.60695" lon="6.09953">
        <ele>524.40002441406</ele>
        <time>2021-05-23T08:40:04Z</time>
      </trkpt>
      <trkpt lat="43.60691" lon="6.09951">
        <ele>524.40002441406</ele>
        <time>2021-05-23T08:40:03Z</time>
      </trkpt>
      <trkpt lat="43.60686" lon="6.0995">
        <ele>524.59997558594</ele>
        <time>2021-05-23T08:40:02Z</time>
      </trkpt>
      <trkpt lat="43.60682" lon="6.09948">
        <ele>524.79998779297</ele>
        <time>2021-05-23T08:40:01Z</time>
      </trkpt>
      <trkpt lat="43.60677" lon="6.09946">
        <ele>525</ele>
        <time>2021-05-23T08:40:00Z</time>
      </trkpt>
      <trkpt lat="43.60672" lon="6.09945">
        <ele>525</ele>
        <time>2021-05-23T08:39:59Z</time>
      </trkpt>
      <trkpt lat="43.60667" lon="6.09944">
        <ele>525.59997558594</ele>
        <time>2021-05-23T08:39:58Z</time>
      </trkpt>
      <trkpt lat="43.60662" lon="6.09943">
        <ele>526</ele>
        <time>2021-05-23T08:39:57Z</time>
      </trkpt>
      <trkpt lat="43.60657" lon="6.09942">
        <ele>526.40002441406</ele>
        <time>2021-05-23T08:39:56Z</time>
      </trkpt>
      <trkpt lat="43.60652" lon="6.0994">
        <ele>526.59997558594</ele>
        <time>2021-05-23T08:39:55Z</time>
      </trkpt>
      <trkpt lat="43.60648" lon="6.09937">
        <ele>526.79998779297</ele>
        <time>2021-05-23T08:39:54Z</time>
      </trkpt>
      <trkpt lat="43.60644" lon="6.09934">
        <ele>527.20001220703</ele>
        <time>2021-05-23T08:39:53Z</time>
      </trkpt>
      <trkpt lat="43.6064" lon="6.09931">
        <ele>527.40002441406</ele>
        <time>2021-05-23T08:39:52Z</time>
      </trkpt>
      <trkpt lat="43.60637" lon="6.09928">
        <ele>527.40002441406</ele>
        <time>2021-05-23T08:39:51Z</time>
      </trkpt>
      <trkpt lat="43.60633" lon="6.09925">
        <ele>527.59997558594</ele>
        <time>2021-05-23T08:39:50Z</time>
      </trkpt>
      <trkpt lat="43.6063" lon="6.09923">
        <ele>527.59997558594</ele>
        <time>2021-05-23T08:39:49Z</time>
      </trkpt>
      <trkpt lat="43.60627" lon="6.09921">
        <ele>527.59997558594</ele>
        <time>2021-05-23T08:39:48Z</time>
      </trkpt>
      <trkpt lat="43.60624" lon="6.09918">
        <ele>527.79998779297</ele>
        <time>2021-05-23T08:39:47Z</time>
      </trkpt>
      <trkpt lat="43.60621" lon="6.09916">
        <ele>527.79998779297</ele>
        <time>2021-05-23T08:39:46Z</time>
      </trkpt>
      <trkpt lat="43.60618" lon="6.09913">
        <ele>527.59997558594</ele>
        <time>2021-05-23T08:39:45Z</time>
      </trkpt>
      <trkpt lat="43.60615" lon="6.0991">
        <ele>527.40002441406</ele>
        <time>2021-05-23T08:39:44Z</time>
      </trkpt>
      <trkpt lat="43.60612" lon="6.09907">
        <ele>527.20001220703</ele>
        <time>2021-05-23T08:39:43Z</time>
      </trkpt>
      <trkpt lat="43.60609" lon="6.09904">
        <ele>527</ele>
        <time>2021-05-23T08:39:42Z</time>
      </trkpt>
      <trkpt lat="43.60605" lon="6.09901">
        <ele>526.79998779297</ele>
        <time>2021-05-23T08:39:41Z</time>
      </trkpt>
      <trkpt lat="43.60602" lon="6.09899">
        <ele>526.79998779297</ele>
        <time>2021-05-23T08:39:40Z</time>
      </trkpt>
      <trkpt lat="43.60599" lon="6.09896">
        <ele>526.59997558594</ele>
        <time>2021-05-23T08:39:39Z</time>
      </trkpt>
      <trkpt lat="43.60596" lon="6.09893">
        <ele>526.59997558594</ele>
        <time>2021-05-23T08:39:38Z</time>
      </trkpt>
      <trkpt lat="43.60592" lon="6.0989">
        <ele>526.20001220703</ele>
        <time>2021-05-23T08:39:37Z</time>
      </trkpt>
      <trkpt lat="43.60589" lon="6.09888">
        <ele>526.20001220703</ele>
        <time>2021-05-23T08:39:36Z</time>
      </trkpt>
      <trkpt lat="43.60586" lon="6.09885">
        <ele>526</ele>
        <time>2021-05-23T08:39:35Z</time>
      </trkpt>
      <trkpt lat="43.60583" lon="6.09882">
        <ele>526</ele>
        <time>2021-05-23T08:39:34Z</time>
      </trkpt>
      <trkpt lat="43.6058" lon="6.09879">
        <ele>525.79998779297</ele>
        <time>2021-05-23T08:39:33Z</time>
      </trkpt>
      <trkpt lat="43.60576" lon="6.09876">
        <ele>525.20001220703</ele>
        <time>2021-05-23T08:39:32Z</time>
      </trkpt>
      <trkpt lat="43.60573" lon="6.09873">
        <ele>524.79998779297</ele>
        <time>2021-05-23T08:39:31Z</time>
      </trkpt>
      <trkpt lat="43.6057" lon="6.09871">
        <ele>524.40002441406</ele>
        <time>2021-05-23T08:39:30Z</time>
      </trkpt>
      <trkpt lat="43.60567" lon="6.09868">
        <ele>524.20001220703</ele>
        <time>2021-05-23T08:39:29Z</time>
      </trkpt>
      <trkpt lat="43.60564" lon="6.09865">
        <ele>524.20001220703</ele>
        <time>2021-05-23T08:39:28Z</time>
      </trkpt>
      <trkpt lat="43.60561" lon="6.09862">
        <ele>524</ele>
        <time>2021-05-23T08:39:27Z</time>
      </trkpt>
      <trkpt lat="43.60557" lon="6.0986">
        <ele>523.79998779297</ele>
        <time>2021-05-23T08:39:26Z</time>
      </trkpt>
      <trkpt lat="43.60554" lon="6.09857">
        <ele>523.59997558594</ele>
        <time>2021-05-23T08:39:25Z</time>
      </trkpt>
      <trkpt lat="43.6055" lon="6.09855">
        <ele>523.20001220703</ele>
        <time>2021-05-23T08:39:24Z</time>
      </trkpt>
      <trkpt lat="43.60546" lon="6.09852">
        <ele>522.79998779297</ele>
        <time>2021-05-23T08:39:23Z</time>
      </trkpt>
      <trkpt lat="43.60543" lon="6.0985">
        <ele>522.59997558594</ele>
        <time>2021-05-23T08:39:22Z</time>
      </trkpt>
      <trkpt lat="43.60539" lon="6.09848">
        <ele>522.59997558594</ele>
        <time>2021-05-23T08:39:21Z</time>
      </trkpt>
      <trkpt lat="43.60534" lon="6.09845">
        <ele>522.40002441406</ele>
        <time>2021-05-23T08:39:20Z</time>
      </trkpt>
      <trkpt lat="43.6053" lon="6.09843">
        <ele>522.40002441406</ele>
        <time>2021-05-23T08:39:19Z</time>
      </trkpt>
      <trkpt lat="43.60526" lon="6.0984">
        <ele>522.20001220703</ele>
        <time>2021-05-23T08:39:18Z</time>
      </trkpt>
      <trkpt lat="43.60522" lon="6.09838">
        <ele>521.79998779297</ele>
        <time>2021-05-23T08:39:17Z</time>
      </trkpt>
      <trkpt lat="43.60518" lon="6.09835">
        <ele>521.79998779297</ele>
        <time>2021-05-23T08:39:16Z</time>
      </trkpt>
      <trkpt lat="43.60514" lon="6.09833">
        <ele>521.59997558594</ele>
        <time>2021-05-23T08:39:15Z</time>
      </trkpt>
      <trkpt lat="43.6051" lon="6.0983">
        <ele>521.40002441406</ele>
        <time>2021-05-23T08:39:14Z</time>
      </trkpt>
      <trkpt lat="43.60506" lon="6.09827">
        <ele>521.20001220703</ele>
        <time>2021-05-23T08:39:13Z</time>
      </trkpt>
      <trkpt lat="43.60501" lon="6.09824">
        <ele>521.20001220703</ele>
        <time>2021-05-23T08:39:12Z</time>
      </trkpt>
      <trkpt lat="43.60497" lon="6.09821">
        <ele>521</ele>
        <time>2021-05-23T08:39:11Z</time>
      </trkpt>
      <trkpt lat="43.60493" lon="6.09818">
        <ele>520.59997558594</ele>
        <time>2021-05-23T08:39:10Z</time>
      </trkpt>
      <trkpt lat="43.60489" lon="6.09814">
        <ele>520.40002441406</ele>
        <time>2021-05-23T08:39:09Z</time>
      </trkpt>
      <trkpt lat="43.60485" lon="6.09811">
        <ele>520.40002441406</ele>
        <time>2021-05-23T08:39:08Z</time>
      </trkpt>
      <trkpt lat="43.6048" lon="6.09808">
        <ele>520.40002441406</ele>
        <time>2021-05-23T08:39:07Z</time>
      </trkpt>
      <trkpt lat="43.60476" lon="6.09805">
        <ele>520.20001220703</ele>
        <time>2021-05-23T08:39:06Z</time>
      </trkpt>
      <trkpt lat="43.60473" lon="6.09802">
        <ele>520</ele>
        <time>2021-05-23T08:39:05Z</time>
      </trkpt>
      <trkpt lat="43.60469" lon="6.09799">
        <ele>520</ele>
        <time>2021-05-23T08:39:04Z</time>
      </trkpt>
      <trkpt lat="43.60465" lon="6.09796">
        <ele>520</ele>
        <time>2021-05-23T08:39:03Z</time>
      </trkpt>
      <trkpt lat="43.60461" lon="6.09793">
        <ele>519.79998779297</ele>
        <time>2021-05-23T08:39:02Z</time>
      </trkpt>
      <trkpt lat="43.60457" lon="6.0979">
        <ele>519.79998779297</ele>
        <time>2021-05-23T08:39:01Z</time>
      </trkpt>
      <trkpt lat="43.60453" lon="6.09787">
        <ele>519.59997558594</ele>
        <time>2021-05-23T08:39:00Z</time>
      </trkpt>
      <trkpt lat="43.60449" lon="6.09784">
        <ele>519.40002441406</ele>
        <time>2021-05-23T08:38:59Z</time>
      </trkpt>
      <trkpt lat="43.60446" lon="6.09781">
        <ele>519.40002441406</ele>
        <time>2021-05-23T08:38:58Z</time>
      </trkpt>
      <trkpt lat="43.60442" lon="6.09777">
        <ele>519</ele>
        <time>2021-05-23T08:38:57Z</time>
      </trkpt>
      <trkpt lat="43.60438" lon="6.09774">
        <ele>518.79998779297</ele>
        <time>2021-05-23T08:38:56Z</time>
      </trkpt>
      <trkpt lat="43.60434" lon="6.0977">
        <ele>518.79998779297</ele>
        <time>2021-05-23T08:38:55Z</time>
      </trkpt>
      <trkpt lat="43.6043" lon="6.09766">
        <ele>518.79998779297</ele>
        <time>2021-05-23T08:38:54Z</time>
      </trkpt>
      <trkpt lat="43.60427" lon="6.09762">
        <ele>518.79998779297</ele>
        <time>2021-05-23T08:38:53Z</time>
      </trkpt>
      <trkpt lat="43.60423" lon="6.09759">
        <ele>518.59997558594</ele>
        <time>2021-05-23T08:38:52Z</time>
      </trkpt>
      <trkpt lat="43.6042" lon="6.09755">
        <ele>518.59997558594</ele>
        <time>2021-05-23T08:38:51Z</time>
      </trkpt>
      <trkpt lat="43.60416" lon="6.09751">
        <ele>518.79998779297</ele>
        <time>2021-05-23T08:38:50Z</time>
      </trkpt>
      <trkpt lat="43.60412" lon="6.09747">
        <ele>519</ele>
        <time>2021-05-23T08:38:49Z</time>
      </trkpt>
      <trkpt lat="43.60408" lon="6.09742">
        <ele>519.20001220703</ele>
        <time>2021-05-23T08:38:48Z</time>
      </trkpt>
      <trkpt lat="43.60403" lon="6.09738">
        <ele>519.79998779297</ele>
        <time>2021-05-23T08:38:47Z</time>
      </trkpt>
      <trkpt lat="43.60398" lon="6.09733">
        <ele>520</ele>
        <time>2021-05-23T08:38:46Z</time>
      </trkpt>
      <trkpt lat="43.60394" lon="6.09729">
        <ele>520</ele>
        <time>2021-05-23T08:38:45Z</time>
      </trkpt>
      <trkpt lat="43.60389" lon="6.09725">
        <ele>520</ele>
        <time>2021-05-23T08:38:44Z</time>
      </trkpt>
      <trkpt lat="43.60385" lon="6.09721">
        <ele>520</ele>
        <time>2021-05-23T08:38:43Z</time>
      </trkpt>
      <trkpt lat="43.60382" lon="6.09717">
        <ele>520.20001220703</ele>
        <time>2021-05-23T08:38:42Z</time>
      </trkpt>
      <trkpt lat="43.60377" lon="6.09712">
        <ele>520.40002441406</ele>
        <time>2021-05-23T08:38:41Z</time>
      </trkpt>
      <trkpt lat="43.60373" lon="6.09707">
        <ele>520.40002441406</ele>
        <time>2021-05-23T08:38:40Z</time>
      </trkpt>
      <trkpt lat="43.60369" lon="6.09702">
        <ele>520.79998779297</ele>
        <time>2021-05-23T08:38:39Z</time>
      </trkpt>
      <trkpt lat="43.60365" lon="6.09696">
        <ele>520.79998779297</ele>
        <time>2021-05-23T08:38:38Z</time>
      </trkpt>
      <trkpt lat="43.6036" lon="6.09691">
        <ele>521</ele>
        <time>2021-05-23T08:38:37Z</time>
      </trkpt>
      <trkpt lat="43.60356" lon="6.09685">
        <ele>521</ele>
        <time>2021-05-23T08:38:36Z</time>
      </trkpt>
      <trkpt lat="43.60351" lon="6.09679">
        <ele>521.20001220703</ele>
        <time>2021-05-23T08:38:35Z</time>
      </trkpt>
      <trkpt lat="43.60347" lon="6.09673">
        <ele>521</ele>
        <time>2021-05-23T08:38:34Z</time>
      </trkpt>
      <trkpt lat="43.60342" lon="6.09667">
        <ele>520.79998779297</ele>
        <time>2021-05-23T08:38:33Z</time>
      </trkpt>
      <trkpt lat="43.60337" lon="6.09661">
        <ele>520.79998779297</ele>
        <time>2021-05-23T08:38:32Z</time>
      </trkpt>
      <trkpt lat="43.60332" lon="6.09655">
        <ele>520.79998779297</ele>
        <time>2021-05-23T08:38:31Z</time>
      </trkpt>
      <trkpt lat="43.60326" lon="6.0965">
        <ele>520.79998779297</ele>
        <time>2021-05-23T08:38:30Z</time>
      </trkpt>
      <trkpt lat="43.6032" lon="6.09644">
        <ele>521</ele>
        <time>2021-05-23T08:38:29Z</time>
      </trkpt>
      <trkpt lat="43.60314" lon="6.09639">
        <ele>521</ele>
        <time>2021-05-23T08:38:28Z</time>
      </trkpt>
      <trkpt lat="43.60306" lon="6.09635">
        <ele>521.40002441406</ele>
        <time>2021-05-23T08:38:27Z</time>
      </trkpt>
      <trkpt lat="43.60299" lon="6.09632">
        <ele>521.40002441406</ele>
        <time>2021-05-23T08:38:26Z</time>
      </trkpt>
      <trkpt lat="43.60291" lon="6.09629">
        <ele>521.59997558594</ele>
        <time>2021-05-23T08:38:25Z</time>
      </trkpt>
      <trkpt lat="43.60283" lon="6.09625">
        <ele>521.79998779297</ele>
        <time>2021-05-23T08:38:24Z</time>
      </trkpt>
      <trkpt lat="43.60275" lon="6.0962">
        <ele>522.20001220703</ele>
        <time>2021-05-23T08:38:23Z</time>
      </trkpt>
      <trkpt lat="43.60268" lon="6.09614">
        <ele>522.40002441406</ele>
        <time>2021-05-23T08:38:22Z</time>
      </trkpt>
      <trkpt lat="43.6026" lon="6.09608">
        <ele>522.59997558594</ele>
        <time>2021-05-23T08:38:21Z</time>
      </trkpt>
      <trkpt lat="43.60252" lon="6.09601">
        <ele>522.59997558594</ele>
        <time>2021-05-23T08:38:20Z</time>
      </trkpt>
      <trkpt lat="43.60244" lon="6.09594">
        <ele>522.79998779297</ele>
        <time>2021-05-23T08:38:19Z</time>
      </trkpt>
      <trkpt lat="43.60236" lon="6.09587">
        <ele>523.20001220703</ele>
        <time>2021-05-23T08:38:18Z</time>
      </trkpt>
      <trkpt lat="43.60228" lon="6.0958">
        <ele>523.79998779297</ele>
        <time>2021-05-23T08:38:17Z</time>
      </trkpt>
      <trkpt lat="43.6022" lon="6.09573">
        <ele>524.20001220703</ele>
        <time>2021-05-23T08:38:16Z</time>
      </trkpt>
      <trkpt lat="43.60212" lon="6.09566">
        <ele>525</ele>
        <time>2021-05-23T08:38:15Z</time>
      </trkpt>
      <trkpt lat="43.60203" lon="6.09558">
        <ele>525.59997558594</ele>
        <time>2021-05-23T08:38:14Z</time>
      </trkpt>
      <trkpt lat="43.60195" lon="6.09551">
        <ele>526.40002441406</ele>
        <time>2021-05-23T08:38:13Z</time>
      </trkpt>
      <trkpt lat="43.60187" lon="6.09543">
        <ele>527</ele>
        <time>2021-05-23T08:38:12Z</time>
      </trkpt>
      <trkpt lat="43.6018" lon="6.09535">
        <ele>528.40002441406</ele>
        <time>2021-05-23T08:38:11Z</time>
      </trkpt>
      <trkpt lat="43.60172" lon="6.09528">
        <ele>530.20001220703</ele>
        <time>2021-05-23T08:38:10Z</time>
      </trkpt>
      <trkpt lat="43.60165" lon="6.09521">
        <ele>531.20001220703</ele>
        <time>2021-05-23T08:38:09Z</time>
      </trkpt>
      <trkpt lat="43.60158" lon="6.09515">
        <ele>532</ele>
        <time>2021-05-23T08:38:08Z</time>
      </trkpt>
      <trkpt lat="43.60152" lon="6.0951">
        <ele>533</ele>
        <time>2021-05-23T08:38:07Z</time>
      </trkpt>
      <trkpt lat="43.60146" lon="6.09504">
        <ele>533.59997558594</ele>
        <time>2021-05-23T08:38:06Z</time>
      </trkpt>
      <trkpt lat="43.60141" lon="6.09499">
        <ele>534</ele>
        <time>2021-05-23T08:38:05Z</time>
      </trkpt>
      <trkpt lat="43.60136" lon="6.09495">
        <ele>534.40002441406</ele>
        <time>2021-05-23T08:38:04Z</time>
      </trkpt>
      <trkpt lat="43.60132" lon="6.09492">
        <ele>534.40002441406</ele>
        <time>2021-05-23T08:38:03Z</time>
      </trkpt>
      <trkpt lat="43.60129" lon="6.0949">
        <ele>534.40002441406</ele>
        <time>2021-05-23T08:38:02Z</time>
      </trkpt>
      <trkpt lat="43.60127" lon="6.09488">
        <ele>534.40002441406</ele>
        <time>2021-05-23T08:38:01Z</time>
      </trkpt>
      <trkpt lat="43.60124" lon="6.09487">
        <ele>534.20001220703</ele>
        <time>2021-05-23T08:38:00Z</time>
      </trkpt>
      <trkpt lat="43.60122" lon="6.09487">
        <ele>534.20001220703</ele>
        <time>2021-05-23T08:37:59Z</time>
      </trkpt>
      <trkpt lat="43.60119" lon="6.09488">
        <ele>534.20001220703</ele>
        <time>2021-05-23T08:37:58Z</time>
      </trkpt>
      <trkpt lat="43.60116" lon="6.0949">
        <ele>534</ele>
        <time>2021-05-23T08:37:57Z</time>
      </trkpt>
      <trkpt lat="43.60114" lon="6.09492">
        <ele>534</ele>
        <time>2021-05-23T08:37:56Z</time>
      </trkpt>
      <trkpt lat="43.60111" lon="6.09494">
        <ele>534</ele>
        <time>2021-05-23T08:37:55Z</time>
      </trkpt>
      <trkpt lat="43.60108" lon="6.09496">
        <ele>533.79998779297</ele>
        <time>2021-05-23T08:37:54Z</time>
      </trkpt>
      <trkpt lat="43.60106" lon="6.09497">
        <ele>533.79998779297</ele>
        <time>2021-05-23T08:37:53Z</time>
      </trkpt>
      <trkpt lat="43.60104" lon="6.09498">
        <ele>533.79998779297</ele>
        <time>2021-05-23T08:37:52Z</time>
      </trkpt>
      <trkpt lat="43.60102" lon="6.09498">
        <ele>533.59997558594</ele>
        <time>2021-05-23T08:37:51Z</time>
      </trkpt>
      <trkpt lat="43.601" lon="6.09498">
        <ele>533.40002441406</ele>
        <time>2021-05-23T08:37:50Z</time>
      </trkpt>
      <trkpt lat="43.60098" lon="6.09496">
        <ele>533.20001220703</ele>
        <time>2021-05-23T08:37:49Z</time>
      </trkpt>
      <trkpt lat="43.60096" lon="6.09493">
        <ele>532.59997558594</ele>
        <time>2021-05-23T08:37:48Z</time>
      </trkpt>
      <trkpt lat="43.60094" lon="6.09489">
        <ele>532.20001220703</ele>
        <time>2021-05-23T08:37:47Z</time>
      </trkpt>
      <trkpt lat="43.60093" lon="6.09485">
        <ele>531.79998779297</ele>
        <time>2021-05-23T08:37:46Z</time>
      </trkpt>
      <trkpt lat="43.60091" lon="6.09481">
        <ele>531.40002441406</ele>
        <time>2021-05-23T08:37:45Z</time>
      </trkpt>
      <trkpt lat="43.60089" lon="6.09478">
        <ele>531</ele>
        <time>2021-05-23T08:37:44Z</time>
      </trkpt>
      <trkpt lat="43.60087" lon="6.09474">
        <ele>530.40002441406</ele>
        <time>2021-05-23T08:37:43Z</time>
      </trkpt>
      <trkpt lat="43.60085" lon="6.0947">
        <ele>530</ele>
        <time>2021-05-23T08:37:42Z</time>
      </trkpt>
      <trkpt lat="43.60084" lon="6.09465">
        <ele>529.79998779297</ele>
        <time>2021-05-23T08:37:41Z</time>
      </trkpt>
      <trkpt lat="43.60082" lon="6.09461">
        <ele>529.40002441406</ele>
        <time>2021-05-23T08:37:40Z</time>
      </trkpt>
      <trkpt lat="43.6008" lon="6.09456">
        <ele>529.20001220703</ele>
        <time>2021-05-23T08:37:39Z</time>
      </trkpt>
      <trkpt lat="43.60079" lon="6.09451">
        <ele>528.79998779297</ele>
        <time>2021-05-23T08:37:38Z</time>
      </trkpt>
      <trkpt lat="43.60077" lon="6.09447">
        <ele>528.79998779297</ele>
        <time>2021-05-23T08:37:37Z</time>
      </trkpt>
      <trkpt lat="43.60075" lon="6.09443">
        <ele>528.59997558594</ele>
        <time>2021-05-23T08:37:36Z</time>
      </trkpt>
      <trkpt lat="43.60073" lon="6.09439">
        <ele>528</ele>
        <time>2021-05-23T08:37:35Z</time>
      </trkpt>
      <trkpt lat="43.60071" lon="6.09435">
        <ele>527.79998779297</ele>
        <time>2021-05-23T08:37:34Z</time>
      </trkpt>
      <trkpt lat="43.60069" lon="6.09431">
        <ele>527.59997558594</ele>
        <time>2021-05-23T08:37:33Z</time>
      </trkpt>
      <trkpt lat="43.60067" lon="6.09426">
        <ele>527.59997558594</ele>
        <time>2021-05-23T08:37:32Z</time>
      </trkpt>
      <trkpt lat="43.60066" lon="6.09422">
        <ele>527.40002441406</ele>
        <time>2021-05-23T08:37:31Z</time>
      </trkpt>
      <trkpt lat="43.60064" lon="6.09418">
        <ele>527</ele>
        <time>2021-05-23T08:37:30Z</time>
      </trkpt>
      <trkpt lat="43.60063" lon="6.09413">
        <ele>526.79998779297</ele>
        <time>2021-05-23T08:37:29Z</time>
      </trkpt>
      <trkpt lat="43.60062" lon="6.09409">
        <ele>526.59997558594</ele>
        <time>2021-05-23T08:37:28Z</time>
      </trkpt>
      <trkpt lat="43.60061" lon="6.09404">
        <ele>526.20001220703</ele>
        <time>2021-05-23T08:37:27Z</time>
      </trkpt>
      <trkpt lat="43.6006" lon="6.094">
        <ele>526</ele>
        <time>2021-05-23T08:37:26Z</time>
      </trkpt>
      <trkpt lat="43.60058" lon="6.09395">
        <ele>525.40002441406</ele>
        <time>2021-05-23T08:37:25Z</time>
      </trkpt>
      <trkpt lat="43.60056" lon="6.09391">
        <ele>525</ele>
        <time>2021-05-23T08:37:24Z</time>
      </trkpt>
      <trkpt lat="43.60053" lon="6.09388">
        <ele>524.59997558594</ele>
        <time>2021-05-23T08:37:23Z</time>
      </trkpt>
      <trkpt lat="43.6005" lon="6.09384">
        <ele>524.40002441406</ele>
        <time>2021-05-23T08:37:22Z</time>
      </trkpt>
      <trkpt lat="43.60048" lon="6.0938">
        <ele>524.40002441406</ele>
        <time>2021-05-23T08:37:21Z</time>
      </trkpt>
      <trkpt lat="43.60046" lon="6.09376">
        <ele>524.40002441406</ele>
        <time>2021-05-23T08:37:20Z</time>
      </trkpt>
      <trkpt lat="43.60044" lon="6.09372">
        <ele>524.40002441406</ele>
        <time>2021-05-23T08:37:19Z</time>
      </trkpt>
      <trkpt lat="43.60041" lon="6.0937">
        <ele>524.20001220703</ele>
        <time>2021-05-23T08:37:18Z</time>
      </trkpt>
      <trkpt lat="43.60038" lon="6.09369">
        <ele>524.20001220703</ele>
        <time>2021-05-23T08:37:17Z</time>
      </trkpt>
      <trkpt lat="43.60035" lon="6.09369">
        <ele>524</ele>
        <time>2021-05-23T08:37:16Z</time>
      </trkpt>
      <trkpt lat="43.60033" lon="6.09371">
        <ele>524</ele>
        <time>2021-05-23T08:37:15Z</time>
      </trkpt>
      <trkpt lat="43.60032" lon="6.09373">
        <ele>523.79998779297</ele>
        <time>2021-05-23T08:37:14Z</time>
      </trkpt>
      <trkpt lat="43.6003" lon="6.09374">
        <ele>523.40002441406</ele>
        <time>2021-05-23T08:37:13Z</time>
      </trkpt>
      <trkpt lat="43.60028" lon="6.09376">
        <ele>523.20001220703</ele>
        <time>2021-05-23T08:37:12Z</time>
      </trkpt>
      <trkpt lat="43.60025" lon="6.09378">
        <ele>523.20001220703</ele>
        <time>2021-05-23T08:37:11Z</time>
      </trkpt>
      <trkpt lat="43.60021" lon="6.09379">
        <ele>523</ele>
        <time>2021-05-23T08:37:10Z</time>
      </trkpt>
      <trkpt lat="43.60018" lon="6.09381">
        <ele>523</ele>
        <time>2021-05-23T08:37:09Z</time>
      </trkpt>
      <trkpt lat="43.60015" lon="6.09384">
        <ele>522.79998779297</ele>
        <time>2021-05-23T08:37:08Z</time>
      </trkpt>
      <trkpt lat="43.60011" lon="6.09387">
        <ele>522.79998779297</ele>
        <time>2021-05-23T08:37:07Z</time>
      </trkpt>
      <trkpt lat="43.60008" lon="6.0939">
        <ele>522.79998779297</ele>
        <time>2021-05-23T08:37:06Z</time>
      </trkpt>
      <trkpt lat="43.60004" lon="6.09394">
        <ele>522.59997558594</ele>
        <time>2021-05-23T08:37:05Z</time>
      </trkpt>
      <trkpt lat="43.60001" lon="6.09397">
        <ele>522.59997558594</ele>
        <time>2021-05-23T08:37:04Z</time>
      </trkpt>
      <trkpt lat="43.59998" lon="6.09401">
        <ele>522.59997558594</ele>
        <time>2021-05-23T08:37:03Z</time>
      </trkpt>
      <trkpt lat="43.59995" lon="6.09404">
        <ele>522.59997558594</ele>
        <time>2021-05-23T08:37:02Z</time>
      </trkpt>
      <trkpt lat="43.59992" lon="6.09408">
        <ele>522.59997558594</ele>
        <time>2021-05-23T08:37:01Z</time>
      </trkpt>
      <trkpt lat="43.59989" lon="6.09411">
        <ele>522.40002441406</ele>
        <time>2021-05-23T08:37:00Z</time>
      </trkpt>
      <trkpt lat="43.59987" lon="6.09415">
        <ele>522.59997558594</ele>
        <time>2021-05-23T08:36:59Z</time>
      </trkpt>
      <trkpt lat="43.59984" lon="6.09418">
        <ele>522.59997558594</ele>
        <time>2021-05-23T08:36:58Z</time>
      </trkpt>
      <trkpt lat="43.59981" lon="6.09421">
        <ele>522.79998779297</ele>
        <time>2021-05-23T08:36:57Z</time>
      </trkpt>
      <trkpt lat="43.59978" lon="6.09424">
        <ele>522.79998779297</ele>
        <time>2021-05-23T08:36:56Z</time>
      </trkpt>
      <trkpt lat="43.59976" lon="6.09427">
        <ele>522.59997558594</ele>
        <time>2021-05-23T08:36:55Z</time>
      </trkpt>
      <trkpt lat="43.59974" lon="6.09431">
        <ele>522.59997558594</ele>
        <time>2021-05-23T08:36:54Z</time>
      </trkpt>
      <trkpt lat="43.59971" lon="6.09435">
        <ele>522.59997558594</ele>
        <time>2021-05-23T08:36:53Z</time>
      </trkpt>
      <trkpt lat="43.59969" lon="6.09439">
        <ele>522.40002441406</ele>
        <time>2021-05-23T08:36:52Z</time>
      </trkpt>
      <trkpt lat="43.59966" lon="6.09442">
        <ele>522.40002441406</ele>
        <time>2021-05-23T08:36:51Z</time>
      </trkpt>
      <trkpt lat="43.59964" lon="6.09445">
        <ele>522.20001220703</ele>
        <time>2021-05-23T08:36:50Z</time>
      </trkpt>
      <trkpt lat="43.59961" lon="6.09448">
        <ele>522</ele>
        <time>2021-05-23T08:36:49Z</time>
      </trkpt>
      <trkpt lat="43.59959" lon="6.09449">
        <ele>522</ele>
        <time>2021-05-23T08:36:48Z</time>
      </trkpt>
      <trkpt lat="43.59957" lon="6.09451">
        <ele>521.79998779297</ele>
        <time>2021-05-23T08:36:47Z</time>
      </trkpt>
      <trkpt lat="43.59956" lon="6.09452">
        <ele>521.59997558594</ele>
        <time>2021-05-23T08:36:46Z</time>
      </trkpt>
      <trkpt lat="43.59954" lon="6.09452">
        <ele>521.40002441406</ele>
        <time>2021-05-23T08:36:45Z</time>
      </trkpt>
      <trkpt lat="43.59951" lon="6.09452">
        <ele>521.40002441406</ele>
        <time>2021-05-23T08:36:44Z</time>
      </trkpt>
      <trkpt lat="43.59949" lon="6.09451">
        <ele>521.40002441406</ele>
        <time>2021-05-23T08:36:43Z</time>
      </trkpt>
      <trkpt lat="43.59946" lon="6.09452">
        <ele>521.40002441406</ele>
        <time>2021-05-23T08:36:42Z</time>
      </trkpt>
      <trkpt lat="43.59944" lon="6.09455">
        <ele>521.40002441406</ele>
        <time>2021-05-23T08:36:41Z</time>
      </trkpt>
      <trkpt lat="43.59941" lon="6.09458">
        <ele>521.40002441406</ele>
        <time>2021-05-23T08:36:40Z</time>
      </trkpt>
      <trkpt lat="43.59939" lon="6.0946">
        <ele>521.40002441406</ele>
        <time>2021-05-23T08:36:39Z</time>
      </trkpt>
      <trkpt lat="43.59936" lon="6.09463">
        <ele>521.20001220703</ele>
        <time>2021-05-23T08:36:38Z</time>
      </trkpt>
      <trkpt lat="43.59933" lon="6.09466">
        <ele>521</ele>
        <time>2021-05-23T08:36:37Z</time>
      </trkpt>
      <trkpt lat="43.59931" lon="6.09468">
        <ele>521</ele>
        <time>2021-05-23T08:36:36Z</time>
      </trkpt>
      <trkpt lat="43.59928" lon="6.09471">
        <ele>521</ele>
        <time>2021-05-23T08:36:35Z</time>
      </trkpt>
      <trkpt lat="43.59925" lon="6.09474">
        <ele>520.59997558594</ele>
        <time>2021-05-23T08:36:34Z</time>
      </trkpt>
      <trkpt lat="43.59922" lon="6.09477">
        <ele>520.59997558594</ele>
        <time>2021-05-23T08:36:33Z</time>
      </trkpt>
      <trkpt lat="43.59919" lon="6.09481">
        <ele>520.79998779297</ele>
        <time>2021-05-23T08:36:32Z</time>
      </trkpt>
      <trkpt lat="43.59916" lon="6.09484">
        <ele>520.79998779297</ele>
        <time>2021-05-23T08:36:31Z</time>
      </trkpt>
      <trkpt lat="43.59914" lon="6.09487">
        <ele>521.20001220703</ele>
        <time>2021-05-23T08:36:30Z</time>
      </trkpt>
      <trkpt lat="43.59911" lon="6.0949">
        <ele>521.20001220703</ele>
        <time>2021-05-23T08:36:29Z</time>
      </trkpt>
      <trkpt lat="43.59909" lon="6.09494">
        <ele>521.40002441406</ele>
        <time>2021-05-23T08:36:28Z</time>
      </trkpt>
      <trkpt lat="43.59907" lon="6.09498">
        <ele>521.40002441406</ele>
        <time>2021-05-23T08:36:27Z</time>
      </trkpt>
      <trkpt lat="43.59906" lon="6.09501">
        <ele>521.40002441406</ele>
        <time>2021-05-23T08:36:26Z</time>
      </trkpt>
      <trkpt lat="43.59906" lon="6.09505">
        <ele>521.59997558594</ele>
        <time>2021-05-23T08:36:25Z</time>
      </trkpt>
      <trkpt lat="43.59907" lon="6.09507">
        <ele>521.59997558594</ele>
        <time>2021-05-23T08:36:24Z</time>
      </trkpt>
      <trkpt lat="43.59908" lon="6.09508">
        <ele>521.40002441406</ele>
        <time>2021-05-23T08:36:23Z</time>
      </trkpt>
      <trkpt lat="43.59909" lon="6.09509">
        <ele>521.59997558594</ele>
        <time>2021-05-23T08:36:22Z</time>
      </trkpt>
      <trkpt lat="43.5991" lon="6.09509">
        <ele>521.59997558594</ele>
        <time>2021-05-23T08:36:21Z</time>
      </trkpt>
      <trkpt lat="43.5991" lon="6.09509">
        <ele>521.59997558594</ele>
        <time>2021-05-23T08:36:20Z</time>
      </trkpt>
      <trkpt lat="43.5991" lon="6.09509">
        <ele>521.59997558594</ele>
        <time>2021-05-23T08:36:19Z</time>
      </trkpt>
      <trkpt lat="43.5991" lon="6.09509">
        <ele>521.59997558594</ele>
        <time>2021-05-23T08:36:18Z</time>
      </trkpt>
      <trkpt lat="43.5991" lon="6.09509">
        <ele>521.59997558594</ele>
        <time>2021-05-23T08:36:17Z</time>
      </trkpt>
      <trkpt lat="43.5991" lon="6.09509">
        <ele>521.59997558594</ele>
        <time>2021-05-23T08:36:16Z</time>
      </trkpt>
      <trkpt lat="43.5991" lon="6.09509">
        <ele>521.59997558594</ele>
        <time>2021-05-23T08:36:15Z</time>
      </trkpt>
      <trkpt lat="43.5991" lon="6.09509">
        <ele>521.79998779297</ele>
        <time>2021-05-23T08:36:14Z</time>
      </trkpt>
      <trkpt lat="43.5991" lon="6.09509">
        <ele>521.79998779297</ele>
        <time>2021-05-23T08:36:13Z</time>
      </trkpt>
      <trkpt lat="43.5991" lon="6.09509">
        <ele>521.79998779297</ele>
        <time>2021-05-23T08:36:12Z</time>
      </trkpt>
      <trkpt lat="43.5991" lon="6.09509">
        <ele>521.59997558594</ele>
        <time>2021-05-23T08:36:11Z</time>
      </trkpt>
      <trkpt lat="43.5991" lon="6.09509">
        <ele>521.59997558594</ele>
        <time>2021-05-23T08:36:10Z</time>
      </trkpt>
      <trkpt lat="43.5991" lon="6.09509">
        <ele>521.59997558594</ele>
        <time>2021-05-23T08:36:09Z</time>
      </trkpt>
      <trkpt lat="43.5991" lon="6.09509">
        <ele>521.79998779297</ele>
        <time>2021-05-23T08:36:08Z</time>
      </trkpt>
      <trkpt lat="43.5991" lon="6.09509">
        <ele>521.79998779297</ele>
        <time>2021-05-23T08:36:07Z</time>
      </trkpt>
      <trkpt lat="43.5991" lon="6.09509">
        <ele>521.59997558594</ele>
        <time>2021-05-23T08:36:06Z</time>
      </trkpt>
      <trkpt lat="43.5991" lon="6.09509">
        <ele>521.79998779297</ele>
        <time>2021-05-23T08:36:05Z</time>
      </trkpt>
      <trkpt lat="43.5991" lon="6.09509">
        <ele>521.79998779297</ele>
        <time>2021-05-23T08:36:04Z</time>
      </trkpt>
      <trkpt lat="43.5991" lon="6.09509">
        <ele>521.79998779297</ele>
        <time>2021-05-23T08:36:03Z</time>
      </trkpt>
      <trkpt lat="43.5991" lon="6.09509">
        <ele>521.79998779297</ele>
        <time>2021-05-23T08:36:02Z</time>
      </trkpt>
      <trkpt lat="43.5991" lon="6.09509">
        <ele>521.59997558594</ele>
        <time>2021-05-23T08:36:01Z</time>
      </trkpt>
      <trkpt lat="43.5991" lon="6.09509">
        <ele>521.59997558594</ele>
        <time>2021-05-23T08:36:00Z</time>
      </trkpt>
      <trkpt lat="43.5991" lon="6.09509">
        <ele>521.59997558594</ele>
        <time>2021-05-23T08:35:59Z</time>
      </trkpt>
      <trkpt lat="43.5991" lon="6.09509">
        <ele>521.59997558594</ele>
        <time>2021-05-23T08:35:58Z</time>
      </trkpt>
      <trkpt lat="43.5991" lon="6.09509">
        <ele>521.79998779297</ele>
        <time>2021-05-23T08:35:57Z</time>
      </trkpt>
      <trkpt lat="43.5991" lon="6.0951">
        <ele>521.79998779297</ele>
        <time>2021-05-23T08:35:56Z</time>
      </trkpt>
      <trkpt lat="43.5991" lon="6.0951">
        <ele>521.59997558594</ele>
        <time>2021-05-23T08:35:55Z</time>
      </trkpt>
      <trkpt lat="43.5991" lon="6.0951">
        <ele>521.59997558594</ele>
        <time>2021-05-23T08:35:54Z</time>
      </trkpt>
      <trkpt lat="43.5991" lon="6.0951">
        <ele>521.40002441406</ele>
        <time>2021-05-23T08:35:53Z</time>
      </trkpt>
      <trkpt lat="43.5991" lon="6.0951">
        <ele>521.59997558594</ele>
        <time>2021-05-23T08:35:52Z</time>
      </trkpt>
      <trkpt lat="43.5991" lon="6.0951">
        <ele>521.59997558594</ele>
        <time>2021-05-23T08:35:51Z</time>
      </trkpt>
      <trkpt lat="43.5991" lon="6.0951">
        <ele>521.59997558594</ele>
        <time>2021-05-23T08:35:50Z</time>
      </trkpt>
      <trkpt lat="43.5991" lon="6.0951">
        <ele>521.59997558594</ele>
        <time>2021-05-23T08:35:49Z</time>
      </trkpt>
      <trkpt lat="43.5991" lon="6.0951">
        <ele>521.40002441406</ele>
        <time>2021-05-23T08:35:48Z</time>
      </trkpt>
      <trkpt lat="43.5991" lon="6.0951">
        <ele>521.40002441406</ele>
        <time>2021-05-23T08:35:47Z</time>
      </trkpt>
      <trkpt lat="43.5991" lon="6.0951">
        <ele>521.59997558594</ele>
        <time>2021-05-23T08:35:46Z</time>
      </trkpt>
      <trkpt lat="43.5991" lon="6.0951">
        <ele>521.59997558594</ele>
        <time>2021-05-23T08:35:45Z</time>
      </trkpt>
      <trkpt lat="43.5991" lon="6.0951">
        <ele>521.59997558594</ele>
        <time>2021-05-23T08:35:44Z</time>
      </trkpt>
      <trkpt lat="43.5991" lon="6.0951">
        <ele>521.59997558594</ele>
        <time>2021-05-23T08:35:43Z</time>
      </trkpt>
      <trkpt lat="43.5991" lon="6.0951">
        <ele>521.40002441406</ele>
        <time>2021-05-23T08:35:42Z</time>
      </trkpt>
      <trkpt lat="43.5991" lon="6.0951">
        <ele>521.40002441406</ele>
        <time>2021-05-23T08:35:41Z</time>
      </trkpt>
      <trkpt lat="43.5991" lon="6.0951">
        <ele>521.59997558594</ele>
        <time>2021-05-23T08:35:40Z</time>
      </trkpt>
      <trkpt lat="43.5991" lon="6.0951">
        <ele>521.59997558594</ele>
        <time>2021-05-23T08:35:39Z</time>
      </trkpt>
      <trkpt lat="43.5991" lon="6.0951">
        <ele>521.79998779297</ele>
        <time>2021-05-23T08:35:38Z</time>
      </trkpt>
      <trkpt lat="43.5991" lon="6.0951">
        <ele>521.59997558594</ele>
        <time>2021-05-23T08:35:37Z</time>
      </trkpt>
      <trkpt lat="43.5991" lon="6.0951">
        <ele>521.59997558594</ele>
        <time>2021-05-23T08:35:36Z</time>
      </trkpt>
      <trkpt lat="43.5991" lon="6.0951">
        <ele>521.59997558594</ele>
        <time>2021-05-23T08:35:35Z</time>
      </trkpt>
      <trkpt lat="43.5991" lon="6.0951">
        <ele>521.59997558594</ele>
        <time>2021-05-23T08:35:34Z</time>
      </trkpt>
      <trkpt lat="43.5991" lon="6.0951">
        <ele>521.59997558594</ele>
        <time>2021-05-23T08:35:33Z</time>
      </trkpt>
      <trkpt lat="43.5991" lon="6.0951">
        <ele>521.40002441406</ele>
        <time>2021-05-23T08:35:32Z</time>
      </trkpt>
      <trkpt lat="43.5991" lon="6.0951">
        <ele>521.40002441406</ele>
        <time>2021-05-23T08:35:31Z</time>
      </trkpt>
      <trkpt lat="43.5991" lon="6.0951">
        <ele>521.40002441406</ele>
        <time>2021-05-23T08:35:30Z</time>
      </trkpt>
      <trkpt lat="43.5991" lon="6.0951">
        <ele>521.59997558594</ele>
        <time>2021-05-23T08:35:29Z</time>
      </trkpt>
      <trkpt lat="43.5991" lon="6.0951">
        <ele>521.59997558594</ele>
        <time>2021-05-23T08:35:28Z</time>
      </trkpt>
      <trkpt lat="43.5991" lon="6.0951">
        <ele>521.79998779297</ele>
        <time>2021-05-23T08:35:27Z</time>
      </trkpt>
      <trkpt lat="43.5991" lon="6.0951">
        <ele>521.79998779297</ele>
        <time>2021-05-23T08:35:26Z</time>
      </trkpt>
      <trkpt lat="43.5991" lon="6.0951">
        <ele>521.59997558594</ele>
        <time>2021-05-23T08:35:25Z</time>
      </trkpt>
      <trkpt lat="43.5991" lon="6.0951">
        <ele>521.59997558594</ele>
        <time>2021-05-23T08:35:24Z</time>
      </trkpt>
      <trkpt lat="43.5991" lon="6.0951">
        <ele>521.59997558594</ele>
        <time>2021-05-23T08:35:23Z</time>
      </trkpt>
      <trkpt lat="43.5991" lon="6.0951">
        <ele>521.59997558594</ele>
        <time>2021-05-23T08:35:22Z</time>
      </trkpt>
      <trkpt lat="43.5991" lon="6.09509">
        <ele>521.59997558594</ele>
        <time>2021-05-23T08:35:21Z</time>
      </trkpt>
      <trkpt lat="43.59911" lon="6.09509">
        <ele>521.40002441406</ele>
        <time>2021-05-23T08:35:20Z</time>
      </trkpt>
      <trkpt lat="43.59911" lon="6.09509">
        <ele>521.40002441406</ele>
        <time>2021-05-23T08:35:19Z</time>
      </trkpt>
      <trkpt lat="43.59911" lon="6.09509">
        <ele>521.40002441406</ele>
        <time>2021-05-23T08:35:18Z</time>
      </trkpt>
      <trkpt lat="43.59911" lon="6.09509">
        <ele>521.40002441406</ele>
        <time>2021-05-23T08:35:17Z</time>
      </trkpt>
      <trkpt lat="43.59911" lon="6.09509">
        <ele>521.59997558594</ele>
        <time>2021-05-23T08:35:16Z</time>
      </trkpt>
      <trkpt lat="43.59911" lon="6.09509">
        <ele>521.59997558594</ele>
        <time>2021-05-23T08:35:15Z</time>
      </trkpt>
      <trkpt lat="43.5991" lon="6.0951">
        <ele>521.59997558594</ele>
        <time>2021-05-23T08:35:14Z</time>
      </trkpt>
      <trkpt lat="43.5991" lon="6.0951">
        <ele>521.59997558594</ele>
        <time>2021-05-23T08:35:13Z</time>
      </trkpt>
      <trkpt lat="43.5991" lon="6.0951">
        <ele>521.79998779297</ele>
        <time>2021-05-23T08:35:12Z</time>
      </trkpt>
      <trkpt lat="43.5991" lon="6.0951">
        <ele>521.59997558594</ele>
        <time>2021-05-23T08:35:11Z</time>
      </trkpt>
      <trkpt lat="43.5991" lon="6.0951">
        <ele>521.59997558594</ele>
        <time>2021-05-23T08:35:10Z</time>
      </trkpt>
      <trkpt lat="43.5991" lon="6.0951">
        <ele>521.79998779297</ele>
        <time>2021-05-23T08:35:09Z</time>
      </trkpt>
      <trkpt lat="43.5991" lon="6.0951">
        <ele>521.59997558594</ele>
        <time>2021-05-23T08:35:08Z</time>
      </trkpt>
      <trkpt lat="43.5991" lon="6.0951">
        <ele>521.59997558594</ele>
        <time>2021-05-23T08:35:07Z</time>
      </trkpt>
      <trkpt lat="43.5991" lon="6.0951">
        <ele>521.59997558594</ele>
        <time>2021-05-23T08:35:06Z</time>
      </trkpt>
      <trkpt lat="43.59911" lon="6.09509">
        <ele>521.59997558594</ele>
        <time>2021-05-23T08:35:05Z</time>
      </trkpt>
      <trkpt lat="43.59912" lon="6.09509">
        <ele>521.59997558594</ele>
        <time>2021-05-23T08:35:04Z</time>
      </trkpt>
      <trkpt lat="43.59913" lon="6.09508">
        <ele>521.59997558594</ele>
        <time>2021-05-23T08:35:03Z</time>
      </trkpt>
      <trkpt lat="43.59914" lon="6.09508">
        <ele>521.59997558594</ele>
        <time>2021-05-23T08:35:02Z</time>
      </trkpt>
      <trkpt lat="43.59915" lon="6.09508">
        <ele>521.79998779297</ele>
        <time>2021-05-23T08:35:01Z</time>
      </trkpt>
      <trkpt lat="43.59916" lon="6.09507">
        <ele>521.79998779297</ele>
        <time>2021-05-23T08:35:00Z</time>
      </trkpt>
      <trkpt lat="43.59916" lon="6.09507">
        <ele>521.79998779297</ele>
        <time>2021-05-23T08:34:59Z</time>
      </trkpt>
      <trkpt lat="43.59918" lon="6.09505">
        <ele>521.79998779297</ele>
        <time>2021-05-23T08:34:58Z</time>
      </trkpt>
      <trkpt lat="43.59919" lon="6.09505">
        <ele>521.79998779297</ele>
        <time>2021-05-23T08:34:57Z</time>
      </trkpt>
      <trkpt lat="43.59919" lon="6.09504">
        <ele>521.79998779297</ele>
        <time>2021-05-23T08:34:56Z</time>
      </trkpt>
      <trkpt lat="43.5992" lon="6.09504">
        <ele>521.79998779297</ele>
        <time>2021-05-23T08:34:55Z</time>
      </trkpt>
      <trkpt lat="43.5992" lon="6.09503">
        <ele>521.79998779297</ele>
        <time>2021-05-23T08:34:54Z</time>
      </trkpt>
      <trkpt lat="43.5992" lon="6.09503">
        <ele>521.79998779297</ele>
        <time>2021-05-23T08:34:53Z</time>
      </trkpt>
      <trkpt lat="43.59921" lon="6.09503">
        <ele>521.79998779297</ele>
        <time>2021-05-23T08:34:52Z</time>
      </trkpt>
      <trkpt lat="43.59923" lon="6.09501">
        <ele>521.59997558594</ele>
        <time>2021-05-23T08:34:51Z</time>
      </trkpt>
      <trkpt lat="43.59926" lon="6.095">
        <ele>521.59997558594</ele>
        <time>2021-05-23T08:34:50Z</time>
      </trkpt>
      <trkpt lat="43.59926" lon="6.095">
        <ele>521.59997558594</ele>
        <time>2021-05-23T08:34:49Z</time>
      </trkpt>
      <trkpt lat="43.59926" lon="6.095">
        <ele>521.40002441406</ele>
        <time>2021-05-23T08:34:48Z</time>
      </trkpt>
      <trkpt lat="43.59927" lon="6.095">
        <ele>521.40002441406</ele>
        <time>2021-05-23T08:34:47Z</time>
      </trkpt>
      <trkpt lat="43.59926" lon="6.095">
        <ele>521.40002441406</ele>
        <time>2021-05-23T08:34:46Z</time>
      </trkpt>
      <trkpt lat="43.59924" lon="6.09501">
        <ele>521.59997558594</ele>
        <time>2021-05-23T08:34:45Z</time>
      </trkpt>
      <trkpt lat="43.59921" lon="6.09505">
        <ele>521.59997558594</ele>
        <time>2021-05-23T08:34:44Z</time>
      </trkpt>
      <trkpt lat="43.59938" lon="6.09491">
        <ele>521.40002441406</ele>
        <time>2021-05-23T08:34:43Z</time>
      </trkpt>
      <trkpt lat="43.59938" lon="6.09491">
        <ele>521.59997558594</ele>
        <time>2021-05-23T08:34:42Z</time>
      </trkpt>
      <trkpt lat="43.59938" lon="6.09492">
        <ele>521.59997558594</ele>
        <time>2021-05-23T08:34:41Z</time>
      </trkpt>
      <trkpt lat="43.59932" lon="6.0949">
        <ele>521.59997558594</ele>
        <time>2021-05-23T08:34:39Z</time>
      </trkpt>
      <trkpt lat="43.59932" lon="6.09491">
        <ele>521.59997558594</ele>
        <time>2021-05-23T08:34:38Z</time>
      </trkpt>
      <trkpt lat="43.59932" lon="6.09491">
        <ele>521.59997558594</ele>
        <time>2021-05-23T08:34:37Z</time>
      </trkpt>
      <trkpt lat="43.59931" lon="6.09491">
        <ele>521.59997558594</ele>
        <time>2021-05-23T08:34:36Z</time>
      </trkpt>
      <trkpt lat="43.59931" lon="6.0949">
        <ele>521.40002441406</ele>
        <time>2021-05-23T08:34:35Z</time>
      </trkpt>
      <trkpt lat="43.59932" lon="6.0949">
        <ele>521.79998779297</ele>
        <time>2021-05-23T08:34:34Z</time>
      </trkpt>
      <trkpt lat="43.59932" lon="6.0949">
        <ele>521.59997558594</ele>
        <time>2021-05-23T08:34:33Z</time>
      </trkpt>
      <trkpt lat="43.59932" lon="6.0949">
        <ele>521.59997558594</ele>
        <time>2021-05-23T08:34:32Z</time>
      </trkpt>
      <trkpt lat="43.59932" lon="6.0949">
        <ele>521.40002441406</ele>
        <time>2021-05-23T08:34:31Z</time>
      </trkpt>
      <trkpt lat="43.59932" lon="6.0949">
        <ele>521.79998779297</ele>
        <time>2021-05-23T08:34:30Z</time>
      </trkpt>
    </trkseg>
  </trk>
</gpx>